<?xml version="1.0" encoding="UTF-8"?>
<gpx version="1.1" creator="https://www.youtrack.es" xsi:schemaLocation="http://www.topografix.com/GPX/1/1 http://www.topografix.com/GPX/1/1/gpx.xsd http://www.garmin.com/xmlschemas/GpxExtensions/v3 http://www.garmin.com/xmlschemas/GpxExtensionsv3.xsd http://www.garmin.com/xmlschemas/TrackPointExtension/v1 http://www.garmin.com/xmlschemas/TrackPointExtensionv1.xsd" xmlns:gpxtpx="http://www.garmin.com/xmlschemas/TrackPointExtension/v1" xmlns:gpxx="http://www.garmin.com/xmlschemas/GpxExtensions/v3" xmlns:xsi="http://www.w3.org/2001/XMLSchema-instance">
  <metadata>
    <link href="https://www.youtrack.es">
      <text>YouTrack.es</text>
    </link>
    <time>2026-05-08T12:10:21Z</time>
  </metadata>
  <trk>
    <src>https://www.youtrack.es</src>
    <link href="https://www.youtrack.es/ruta/20893-salida-dominguera-con-emilio-y-chechu">
      <text>YouTrack.es</text>
    </link>
    <trkseg>
      <trkpt lat="40.3837130" lon="-3.5348230">
        <ele>647.0</ele>
        <time>2021-04-04T06:26:42Z</time>
      </trkpt>
      <trkpt lat="40.3836190" lon="-3.5347270">
        <ele>647.0</ele>
        <time>2021-04-04T06:26:43Z</time>
      </trkpt>
      <trkpt lat="40.3835740" lon="-3.5346790">
        <ele>647.0</ele>
        <time>2021-04-04T06:26:44Z</time>
      </trkpt>
      <trkpt lat="40.3835300" lon="-3.5346320">
        <ele>647.0</ele>
        <time>2021-04-04T06:26:45Z</time>
      </trkpt>
      <trkpt lat="40.3834650" lon="-3.5345610">
        <ele>647.0</ele>
        <time>2021-04-04T06:26:46Z</time>
      </trkpt>
      <trkpt lat="40.3834110" lon="-3.5344920">
        <ele>647.0</ele>
        <time>2021-04-04T06:26:47Z</time>
      </trkpt>
      <trkpt lat="40.3833500" lon="-3.5344240">
        <ele>647.0</ele>
        <time>2021-04-04T06:26:48Z</time>
      </trkpt>
      <trkpt lat="40.3832970" lon="-3.5343530">
        <ele>647.0</ele>
        <time>2021-04-04T06:26:49Z</time>
      </trkpt>
      <trkpt lat="40.3832470" lon="-3.5342830">
        <ele>647.0</ele>
        <time>2021-04-04T06:26:50Z</time>
      </trkpt>
      <trkpt lat="40.3832020" lon="-3.5342150">
        <ele>647.0</ele>
        <time>2021-04-04T06:26:51Z</time>
      </trkpt>
      <trkpt lat="40.3831560" lon="-3.5341480">
        <ele>647.0</ele>
        <time>2021-04-04T06:26:52Z</time>
      </trkpt>
      <trkpt lat="40.3831140" lon="-3.5340820">
        <ele>647.0</ele>
        <time>2021-04-04T06:26:53Z</time>
      </trkpt>
      <trkpt lat="40.3830720" lon="-3.5340160">
        <ele>647.0</ele>
        <time>2021-04-04T06:26:54Z</time>
      </trkpt>
      <trkpt lat="40.3830260" lon="-3.5339530">
        <ele>647.0</ele>
        <time>2021-04-04T06:26:55Z</time>
      </trkpt>
      <trkpt lat="40.3829840" lon="-3.5338900">
        <ele>647.0</ele>
        <time>2021-04-04T06:26:56Z</time>
      </trkpt>
      <trkpt lat="40.3829420" lon="-3.5338260">
        <ele>647.0</ele>
        <time>2021-04-04T06:26:57Z</time>
      </trkpt>
      <trkpt lat="40.3829000" lon="-3.5337610">
        <ele>647.0</ele>
        <time>2021-04-04T06:26:58Z</time>
      </trkpt>
      <trkpt lat="40.3828470" lon="-3.5336960">
        <ele>647.0</ele>
        <time>2021-04-04T06:26:59Z</time>
      </trkpt>
      <trkpt lat="40.3827970" lon="-3.5336430">
        <ele>647.0</ele>
        <time>2021-04-04T06:27:00Z</time>
      </trkpt>
      <trkpt lat="40.3827480" lon="-3.5335860">
        <ele>647.0</ele>
        <time>2021-04-04T06:27:01Z</time>
      </trkpt>
      <trkpt lat="40.3826980" lon="-3.5335240">
        <ele>647.0</ele>
        <time>2021-04-04T06:27:02Z</time>
      </trkpt>
      <trkpt lat="40.3826520" lon="-3.5334620">
        <ele>647.0</ele>
        <time>2021-04-04T06:27:03Z</time>
      </trkpt>
      <trkpt lat="40.3826070" lon="-3.5333990">
        <ele>647.0</ele>
        <time>2021-04-04T06:27:04Z</time>
      </trkpt>
      <trkpt lat="40.3825610" lon="-3.5333370">
        <ele>647.0</ele>
        <time>2021-04-04T06:27:05Z</time>
      </trkpt>
      <trkpt lat="40.3825190" lon="-3.5332740">
        <ele>647.0</ele>
        <time>2021-04-04T06:27:06Z</time>
      </trkpt>
      <trkpt lat="40.3824770" lon="-3.5332100">
        <ele>647.0</ele>
        <time>2021-04-04T06:27:07Z</time>
      </trkpt>
      <trkpt lat="40.3824230" lon="-3.5331410">
        <ele>647.0</ele>
        <time>2021-04-04T06:27:08Z</time>
      </trkpt>
      <trkpt lat="40.3823700" lon="-3.5330720">
        <ele>647.0</ele>
        <time>2021-04-04T06:27:09Z</time>
      </trkpt>
      <trkpt lat="40.3823320" lon="-3.5330090">
        <ele>647.0</ele>
        <time>2021-04-04T06:27:10Z</time>
      </trkpt>
      <trkpt lat="40.3822900" lon="-3.5329440">
        <ele>647.0</ele>
        <time>2021-04-04T06:27:11Z</time>
      </trkpt>
      <trkpt lat="40.3822520" lon="-3.5328800">
        <ele>647.0</ele>
        <time>2021-04-04T06:27:12Z</time>
      </trkpt>
      <trkpt lat="40.3822170" lon="-3.5328180">
        <ele>647.0</ele>
        <time>2021-04-04T06:27:13Z</time>
      </trkpt>
      <trkpt lat="40.3821790" lon="-3.5327650">
        <ele>647.0</ele>
        <time>2021-04-04T06:27:14Z</time>
      </trkpt>
      <trkpt lat="40.3821330" lon="-3.5327380">
        <ele>647.0</ele>
        <time>2021-04-04T06:27:15Z</time>
      </trkpt>
      <trkpt lat="40.3820840" lon="-3.5327460">
        <ele>647.0</ele>
        <time>2021-04-04T06:27:16Z</time>
      </trkpt>
      <trkpt lat="40.3820310" lon="-3.5327770">
        <ele>647.0</ele>
        <time>2021-04-04T06:27:17Z</time>
      </trkpt>
      <trkpt lat="40.3819770" lon="-3.5328170">
        <ele>647.0</ele>
        <time>2021-04-04T06:27:18Z</time>
      </trkpt>
      <trkpt lat="40.3819270" lon="-3.5328650">
        <ele>647.0</ele>
        <time>2021-04-04T06:27:19Z</time>
      </trkpt>
      <trkpt lat="40.3818700" lon="-3.5329100">
        <ele>647.0</ele>
        <time>2021-04-04T06:27:20Z</time>
      </trkpt>
      <trkpt lat="40.3818130" lon="-3.5329530">
        <ele>647.0</ele>
        <time>2021-04-04T06:27:21Z</time>
      </trkpt>
      <trkpt lat="40.3817560" lon="-3.5329970">
        <ele>647.0</ele>
        <time>2021-04-04T06:27:22Z</time>
      </trkpt>
      <trkpt lat="40.3816990" lon="-3.5330400">
        <ele>647.0</ele>
        <time>2021-04-04T06:27:23Z</time>
      </trkpt>
      <trkpt lat="40.3816380" lon="-3.5330810">
        <ele>647.0</ele>
        <time>2021-04-04T06:27:24Z</time>
      </trkpt>
      <trkpt lat="40.3815770" lon="-3.5331200">
        <ele>647.0</ele>
        <time>2021-04-04T06:27:25Z</time>
      </trkpt>
      <trkpt lat="40.3815160" lon="-3.5331570">
        <ele>647.0</ele>
        <time>2021-04-04T06:27:26Z</time>
      </trkpt>
      <trkpt lat="40.3814550" lon="-3.5331910">
        <ele>647.0</ele>
        <time>2021-04-04T06:27:27Z</time>
      </trkpt>
      <trkpt lat="40.3813900" lon="-3.5332240">
        <ele>647.0</ele>
        <time>2021-04-04T06:27:28Z</time>
      </trkpt>
      <trkpt lat="40.3813290" lon="-3.5332540">
        <ele>647.0</ele>
        <time>2021-04-04T06:27:29Z</time>
      </trkpt>
      <trkpt lat="40.3812710" lon="-3.5332810">
        <ele>647.0</ele>
        <time>2021-04-04T06:27:30Z</time>
      </trkpt>
      <trkpt lat="40.3812100" lon="-3.5333040">
        <ele>647.0</ele>
        <time>2021-04-04T06:27:31Z</time>
      </trkpt>
      <trkpt lat="40.3811490" lon="-3.5333260">
        <ele>647.0</ele>
        <time>2021-04-04T06:27:32Z</time>
      </trkpt>
      <trkpt lat="40.3810920" lon="-3.5333480">
        <ele>647.0</ele>
        <time>2021-04-04T06:27:33Z</time>
      </trkpt>
      <trkpt lat="40.3810310" lon="-3.5333650">
        <ele>647.0</ele>
        <time>2021-04-04T06:27:34Z</time>
      </trkpt>
      <trkpt lat="40.3809700" lon="-3.5333770">
        <ele>647.0</ele>
        <time>2021-04-04T06:27:35Z</time>
      </trkpt>
      <trkpt lat="40.3809050" lon="-3.5333860">
        <ele>647.0</ele>
        <time>2021-04-04T06:27:36Z</time>
      </trkpt>
      <trkpt lat="40.3808440" lon="-3.5333930">
        <ele>647.0</ele>
        <time>2021-04-04T06:27:37Z</time>
      </trkpt>
      <trkpt lat="40.3807870" lon="-3.5333990">
        <ele>647.0</ele>
        <time>2021-04-04T06:27:38Z</time>
      </trkpt>
      <trkpt lat="40.3807260" lon="-3.5334040">
        <ele>647.0</ele>
        <time>2021-04-04T06:27:39Z</time>
      </trkpt>
      <trkpt lat="40.3806650" lon="-3.5334080">
        <ele>647.0</ele>
        <time>2021-04-04T06:27:40Z</time>
      </trkpt>
      <trkpt lat="40.3806040" lon="-3.5334080">
        <ele>647.0</ele>
        <time>2021-04-04T06:27:41Z</time>
      </trkpt>
      <trkpt lat="40.3805430" lon="-3.5334060">
        <ele>647.0</ele>
        <time>2021-04-04T06:27:42Z</time>
      </trkpt>
      <trkpt lat="40.3804820" lon="-3.5334020">
        <ele>647.0</ele>
        <time>2021-04-04T06:27:43Z</time>
      </trkpt>
      <trkpt lat="40.3804170" lon="-3.5333950">
        <ele>647.0</ele>
        <time>2021-04-04T06:27:44Z</time>
      </trkpt>
      <trkpt lat="40.3803520" lon="-3.5333860">
        <ele>647.0</ele>
        <time>2021-04-04T06:27:45Z</time>
      </trkpt>
      <trkpt lat="40.3802870" lon="-3.5333750">
        <ele>647.0</ele>
        <time>2021-04-04T06:27:46Z</time>
      </trkpt>
      <trkpt lat="40.3802260" lon="-3.5333610">
        <ele>647.0</ele>
        <time>2021-04-04T06:27:47Z</time>
      </trkpt>
      <trkpt lat="40.3801610" lon="-3.5333450">
        <ele>647.0</ele>
        <time>2021-04-04T06:27:48Z</time>
      </trkpt>
      <trkpt lat="40.3801000" lon="-3.5333260">
        <ele>647.0</ele>
        <time>2021-04-04T06:27:49Z</time>
      </trkpt>
      <trkpt lat="40.3800390" lon="-3.5333100">
        <ele>647.0</ele>
        <time>2021-04-04T06:27:50Z</time>
      </trkpt>
      <trkpt lat="40.3799780" lon="-3.5332980">
        <ele>647.0</ele>
        <time>2021-04-04T06:27:51Z</time>
      </trkpt>
      <trkpt lat="40.3799170" lon="-3.5332910">
        <ele>647.0</ele>
        <time>2021-04-04T06:27:52Z</time>
      </trkpt>
      <trkpt lat="40.3798480" lon="-3.5332850">
        <ele>647.0</ele>
        <time>2021-04-04T06:27:53Z</time>
      </trkpt>
      <trkpt lat="40.3797840" lon="-3.5332830">
        <ele>647.2</ele>
        <time>2021-04-04T06:27:54Z</time>
      </trkpt>
      <trkpt lat="40.3797190" lon="-3.5332840">
        <ele>647.2</ele>
        <time>2021-04-04T06:27:55Z</time>
      </trkpt>
      <trkpt lat="40.3796460" lon="-3.5332920">
        <ele>647.2</ele>
        <time>2021-04-04T06:27:56Z</time>
      </trkpt>
      <trkpt lat="40.3795780" lon="-3.5333020">
        <ele>647.2</ele>
        <time>2021-04-04T06:27:57Z</time>
      </trkpt>
      <trkpt lat="40.3795130" lon="-3.5333180">
        <ele>647.4</ele>
        <time>2021-04-04T06:27:58Z</time>
      </trkpt>
      <trkpt lat="40.3794520" lon="-3.5333430">
        <ele>647.4</ele>
        <time>2021-04-04T06:27:59Z</time>
      </trkpt>
      <trkpt lat="40.3793950" lon="-3.5333740">
        <ele>647.4</ele>
        <time>2021-04-04T06:28:00Z</time>
      </trkpt>
      <trkpt lat="40.3793300" lon="-3.5333960">
        <ele>647.6</ele>
        <time>2021-04-04T06:28:01Z</time>
      </trkpt>
      <trkpt lat="40.3792690" lon="-3.5334050">
        <ele>647.6</ele>
        <time>2021-04-04T06:28:02Z</time>
      </trkpt>
      <trkpt lat="40.3792110" lon="-3.5334040">
        <ele>647.6</ele>
        <time>2021-04-04T06:28:03Z</time>
      </trkpt>
      <trkpt lat="40.3791540" lon="-3.5333870">
        <ele>647.6</ele>
        <time>2021-04-04T06:28:04Z</time>
      </trkpt>
      <trkpt lat="40.3790930" lon="-3.5333590">
        <ele>647.6</ele>
        <time>2021-04-04T06:28:05Z</time>
      </trkpt>
      <trkpt lat="40.3790320" lon="-3.5333260">
        <ele>647.6</ele>
        <time>2021-04-04T06:28:06Z</time>
      </trkpt>
      <trkpt lat="40.3789750" lon="-3.5332920">
        <ele>647.6</ele>
        <time>2021-04-04T06:28:07Z</time>
      </trkpt>
      <trkpt lat="40.3789100" lon="-3.5332590">
        <ele>647.6</ele>
        <time>2021-04-04T06:28:08Z</time>
      </trkpt>
      <trkpt lat="40.3788490" lon="-3.5332290">
        <ele>647.8</ele>
        <time>2021-04-04T06:28:09Z</time>
      </trkpt>
      <trkpt lat="40.3787880" lon="-3.5332020">
        <ele>647.8</ele>
        <time>2021-04-04T06:28:10Z</time>
      </trkpt>
      <trkpt lat="40.3787230" lon="-3.5331790">
        <ele>647.8</ele>
        <time>2021-04-04T06:28:11Z</time>
      </trkpt>
      <trkpt lat="40.3786540" lon="-3.5331590">
        <ele>648.0</ele>
        <time>2021-04-04T06:28:12Z</time>
      </trkpt>
      <trkpt lat="40.3785900" lon="-3.5331430">
        <ele>648.0</ele>
        <time>2021-04-04T06:28:13Z</time>
      </trkpt>
      <trkpt lat="40.3785210" lon="-3.5331280">
        <ele>648.2</ele>
        <time>2021-04-04T06:28:14Z</time>
      </trkpt>
      <trkpt lat="40.3784600" lon="-3.5331150">
        <ele>648.4</ele>
        <time>2021-04-04T06:28:15Z</time>
      </trkpt>
      <trkpt lat="40.3783950" lon="-3.5331050">
        <ele>648.6</ele>
        <time>2021-04-04T06:28:16Z</time>
      </trkpt>
      <trkpt lat="40.3783300" lon="-3.5330970">
        <ele>648.8</ele>
        <time>2021-04-04T06:28:17Z</time>
      </trkpt>
      <trkpt lat="40.3782690" lon="-3.5330880">
        <ele>649.2</ele>
        <time>2021-04-04T06:28:18Z</time>
      </trkpt>
      <trkpt lat="40.3782080" lon="-3.5330810">
        <ele>649.2</ele>
        <time>2021-04-04T06:28:19Z</time>
      </trkpt>
      <trkpt lat="40.3781470" lon="-3.5330720">
        <ele>649.4</ele>
        <time>2021-04-04T06:28:20Z</time>
      </trkpt>
      <trkpt lat="40.3780860" lon="-3.5330600">
        <ele>649.6</ele>
        <time>2021-04-04T06:28:21Z</time>
      </trkpt>
      <trkpt lat="40.3780290" lon="-3.5330470">
        <ele>649.8</ele>
        <time>2021-04-04T06:28:22Z</time>
      </trkpt>
      <trkpt lat="40.3779680" lon="-3.5330360">
        <ele>650.0</ele>
        <time>2021-04-04T06:28:23Z</time>
      </trkpt>
      <trkpt lat="40.3779140" lon="-3.5330220">
        <ele>650.2</ele>
        <time>2021-04-04T06:28:24Z</time>
      </trkpt>
      <trkpt lat="40.3778570" lon="-3.5330090">
        <ele>650.4</ele>
        <time>2021-04-04T06:28:25Z</time>
      </trkpt>
      <trkpt lat="40.3778000" lon="-3.5329960">
        <ele>650.6</ele>
        <time>2021-04-04T06:28:26Z</time>
      </trkpt>
      <trkpt lat="40.3777390" lon="-3.5329840">
        <ele>650.8</ele>
        <time>2021-04-04T06:28:27Z</time>
      </trkpt>
      <trkpt lat="40.3776780" lon="-3.5329730">
        <ele>651.0</ele>
        <time>2021-04-04T06:28:28Z</time>
      </trkpt>
      <trkpt lat="40.3776170" lon="-3.5329630">
        <ele>651.2</ele>
        <time>2021-04-04T06:28:29Z</time>
      </trkpt>
      <trkpt lat="40.3775600" lon="-3.5329550">
        <ele>651.4</ele>
        <time>2021-04-04T06:28:30Z</time>
      </trkpt>
      <trkpt lat="40.3775020" lon="-3.5329470">
        <ele>651.4</ele>
        <time>2021-04-04T06:28:31Z</time>
      </trkpt>
      <trkpt lat="40.3774450" lon="-3.5329410">
        <ele>651.6</ele>
        <time>2021-04-04T06:28:32Z</time>
      </trkpt>
      <trkpt lat="40.3773840" lon="-3.5329360">
        <ele>651.6</ele>
        <time>2021-04-04T06:28:33Z</time>
      </trkpt>
      <trkpt lat="40.3773230" lon="-3.5329320">
        <ele>651.6</ele>
        <time>2021-04-04T06:28:34Z</time>
      </trkpt>
      <trkpt lat="40.3772620" lon="-3.5329270">
        <ele>651.6</ele>
        <time>2021-04-04T06:28:35Z</time>
      </trkpt>
      <trkpt lat="40.3772010" lon="-3.5329190">
        <ele>651.6</ele>
        <time>2021-04-04T06:28:36Z</time>
      </trkpt>
      <trkpt lat="40.3771360" lon="-3.5329110">
        <ele>651.6</ele>
        <time>2021-04-04T06:28:37Z</time>
      </trkpt>
      <trkpt lat="40.3770710" lon="-3.5329040">
        <ele>651.6</ele>
        <time>2021-04-04T06:28:38Z</time>
      </trkpt>
      <trkpt lat="40.3770070" lon="-3.5328970">
        <ele>651.6</ele>
        <time>2021-04-04T06:28:39Z</time>
      </trkpt>
      <trkpt lat="40.3769420" lon="-3.5328880">
        <ele>651.4</ele>
        <time>2021-04-04T06:28:40Z</time>
      </trkpt>
      <trkpt lat="40.3768770" lon="-3.5328800">
        <ele>651.4</ele>
        <time>2021-04-04T06:28:41Z</time>
      </trkpt>
      <trkpt lat="40.3768080" lon="-3.5328710">
        <ele>651.4</ele>
        <time>2021-04-04T06:28:42Z</time>
      </trkpt>
      <trkpt lat="40.3767430" lon="-3.5328610">
        <ele>651.2</ele>
        <time>2021-04-04T06:28:43Z</time>
      </trkpt>
      <trkpt lat="40.3766790" lon="-3.5328520">
        <ele>651.2</ele>
        <time>2021-04-04T06:28:44Z</time>
      </trkpt>
      <trkpt lat="40.3766100" lon="-3.5328430">
        <ele>651.0</ele>
        <time>2021-04-04T06:28:45Z</time>
      </trkpt>
      <trkpt lat="40.3765450" lon="-3.5328320">
        <ele>651.0</ele>
        <time>2021-04-04T06:28:46Z</time>
      </trkpt>
      <trkpt lat="40.3764760" lon="-3.5328200">
        <ele>650.8</ele>
        <time>2021-04-04T06:28:47Z</time>
      </trkpt>
      <trkpt lat="40.3764080" lon="-3.5328090">
        <ele>650.8</ele>
        <time>2021-04-04T06:28:48Z</time>
      </trkpt>
      <trkpt lat="40.3763390" lon="-3.5328010">
        <ele>650.8</ele>
        <time>2021-04-04T06:28:49Z</time>
      </trkpt>
      <trkpt lat="40.3762700" lon="-3.5327950">
        <ele>650.6</ele>
        <time>2021-04-04T06:28:50Z</time>
      </trkpt>
      <trkpt lat="40.3762050" lon="-3.5327860">
        <ele>650.6</ele>
        <time>2021-04-04T06:28:51Z</time>
      </trkpt>
      <trkpt lat="40.3761370" lon="-3.5327740">
        <ele>650.4</ele>
        <time>2021-04-04T06:28:52Z</time>
      </trkpt>
      <trkpt lat="40.3760680" lon="-3.5327600">
        <ele>650.4</ele>
        <time>2021-04-04T06:28:53Z</time>
      </trkpt>
      <trkpt lat="40.3759990" lon="-3.5327430">
        <ele>650.2</ele>
        <time>2021-04-04T06:28:54Z</time>
      </trkpt>
      <trkpt lat="40.3759350" lon="-3.5327250">
        <ele>650.2</ele>
        <time>2021-04-04T06:28:55Z</time>
      </trkpt>
      <trkpt lat="40.3758620" lon="-3.5327090">
        <ele>650.2</ele>
        <time>2021-04-04T06:28:56Z</time>
      </trkpt>
      <trkpt lat="40.3757970" lon="-3.5326960">
        <ele>650.2</ele>
        <time>2021-04-04T06:28:57Z</time>
      </trkpt>
      <trkpt lat="40.3757360" lon="-3.5326840">
        <ele>650.2</ele>
        <time>2021-04-04T06:28:58Z</time>
      </trkpt>
      <trkpt lat="40.3756750" lon="-3.5326750">
        <ele>650.4</ele>
        <time>2021-04-04T06:28:59Z</time>
      </trkpt>
      <trkpt lat="40.3756100" lon="-3.5326670">
        <ele>650.6</ele>
        <time>2021-04-04T06:29:00Z</time>
      </trkpt>
      <trkpt lat="40.3755490" lon="-3.5326590">
        <ele>650.8</ele>
        <time>2021-04-04T06:29:01Z</time>
      </trkpt>
      <trkpt lat="40.3754880" lon="-3.5326560">
        <ele>650.8</ele>
        <time>2021-04-04T06:29:02Z</time>
      </trkpt>
      <trkpt lat="40.3754270" lon="-3.5326650">
        <ele>651.0</ele>
        <time>2021-04-04T06:29:03Z</time>
      </trkpt>
      <trkpt lat="40.3753660" lon="-3.5326900">
        <ele>651.0</ele>
        <time>2021-04-04T06:29:04Z</time>
      </trkpt>
      <trkpt lat="40.3753130" lon="-3.5327190">
        <ele>651.2</ele>
        <time>2021-04-04T06:29:05Z</time>
      </trkpt>
      <trkpt lat="40.3752560" lon="-3.5327430">
        <ele>651.2</ele>
        <time>2021-04-04T06:29:06Z</time>
      </trkpt>
      <trkpt lat="40.3751910" lon="-3.5327580">
        <ele>651.2</ele>
        <time>2021-04-04T06:29:07Z</time>
      </trkpt>
      <trkpt lat="40.3751260" lon="-3.5327590">
        <ele>651.4</ele>
        <time>2021-04-04T06:29:08Z</time>
      </trkpt>
      <trkpt lat="40.3750650" lon="-3.5327430">
        <ele>651.6</ele>
        <time>2021-04-04T06:29:09Z</time>
      </trkpt>
      <trkpt lat="40.3750110" lon="-3.5327170">
        <ele>651.8</ele>
        <time>2021-04-04T06:29:10Z</time>
      </trkpt>
      <trkpt lat="40.3749540" lon="-3.5326830">
        <ele>651.8</ele>
        <time>2021-04-04T06:29:11Z</time>
      </trkpt>
      <trkpt lat="40.3748970" lon="-3.5326470">
        <ele>652.0</ele>
        <time>2021-04-04T06:29:12Z</time>
      </trkpt>
      <trkpt lat="40.3748400" lon="-3.5326150">
        <ele>652.0</ele>
        <time>2021-04-04T06:29:13Z</time>
      </trkpt>
      <trkpt lat="40.3747830" lon="-3.5325940">
        <ele>652.2</ele>
        <time>2021-04-04T06:29:14Z</time>
      </trkpt>
      <trkpt lat="40.3747210" lon="-3.5325820">
        <ele>652.4</ele>
        <time>2021-04-04T06:29:15Z</time>
      </trkpt>
      <trkpt lat="40.3746570" lon="-3.5325730">
        <ele>652.4</ele>
        <time>2021-04-04T06:29:16Z</time>
      </trkpt>
      <trkpt lat="40.3745960" lon="-3.5325640">
        <ele>652.6</ele>
        <time>2021-04-04T06:29:17Z</time>
      </trkpt>
      <trkpt lat="40.3745350" lon="-3.5325540">
        <ele>652.6</ele>
        <time>2021-04-04T06:29:18Z</time>
      </trkpt>
      <trkpt lat="40.3744700" lon="-3.5325430">
        <ele>652.6</ele>
        <time>2021-04-04T06:29:19Z</time>
      </trkpt>
      <trkpt lat="40.3744010" lon="-3.5325330">
        <ele>652.4</ele>
        <time>2021-04-04T06:29:20Z</time>
      </trkpt>
      <trkpt lat="40.3743320" lon="-3.5325250">
        <ele>652.4</ele>
        <time>2021-04-04T06:29:21Z</time>
      </trkpt>
      <trkpt lat="40.3742640" lon="-3.5325140">
        <ele>652.2</ele>
        <time>2021-04-04T06:29:22Z</time>
      </trkpt>
      <trkpt lat="40.3741950" lon="-3.5325050">
        <ele>652.2</ele>
        <time>2021-04-04T06:29:23Z</time>
      </trkpt>
      <trkpt lat="40.3741260" lon="-3.5324940">
        <ele>652.0</ele>
        <time>2021-04-04T06:29:24Z</time>
      </trkpt>
      <trkpt lat="40.3740540" lon="-3.5324830">
        <ele>652.0</ele>
        <time>2021-04-04T06:29:25Z</time>
      </trkpt>
      <trkpt lat="40.3739810" lon="-3.5324740">
        <ele>651.8</ele>
        <time>2021-04-04T06:29:26Z</time>
      </trkpt>
      <trkpt lat="40.3739050" lon="-3.5324640">
        <ele>651.6</ele>
        <time>2021-04-04T06:29:27Z</time>
      </trkpt>
      <trkpt lat="40.3738330" lon="-3.5324510">
        <ele>651.4</ele>
        <time>2021-04-04T06:29:28Z</time>
      </trkpt>
      <trkpt lat="40.3737600" lon="-3.5324380">
        <ele>651.2</ele>
        <time>2021-04-04T06:29:29Z</time>
      </trkpt>
      <trkpt lat="40.3736880" lon="-3.5324260">
        <ele>651.2</ele>
        <time>2021-04-04T06:29:30Z</time>
      </trkpt>
      <trkpt lat="40.3736150" lon="-3.5324160">
        <ele>651.2</ele>
        <time>2021-04-04T06:29:31Z</time>
      </trkpt>
      <trkpt lat="40.3735430" lon="-3.5324050">
        <ele>651.2</ele>
        <time>2021-04-04T06:29:32Z</time>
      </trkpt>
      <trkpt lat="40.3734700" lon="-3.5323930">
        <ele>651.2</ele>
        <time>2021-04-04T06:29:33Z</time>
      </trkpt>
      <trkpt lat="40.3734020" lon="-3.5323840">
        <ele>651.2</ele>
        <time>2021-04-04T06:29:34Z</time>
      </trkpt>
      <trkpt lat="40.3733370" lon="-3.5323750">
        <ele>651.2</ele>
        <time>2021-04-04T06:29:35Z</time>
      </trkpt>
      <trkpt lat="40.3732680" lon="-3.5323670">
        <ele>651.4</ele>
        <time>2021-04-04T06:29:36Z</time>
      </trkpt>
      <trkpt lat="40.3731990" lon="-3.5323560">
        <ele>651.4</ele>
        <time>2021-04-04T06:29:37Z</time>
      </trkpt>
      <trkpt lat="40.3731350" lon="-3.5323470">
        <ele>651.6</ele>
        <time>2021-04-04T06:29:38Z</time>
      </trkpt>
      <trkpt lat="40.3730660" lon="-3.5323410">
        <ele>651.6</ele>
        <time>2021-04-04T06:29:39Z</time>
      </trkpt>
      <trkpt lat="40.3730010" lon="-3.5323350">
        <ele>651.8</ele>
        <time>2021-04-04T06:29:40Z</time>
      </trkpt>
      <trkpt lat="40.3729360" lon="-3.5323310">
        <ele>652.0</ele>
        <time>2021-04-04T06:29:41Z</time>
      </trkpt>
      <trkpt lat="40.3728710" lon="-3.5323320">
        <ele>652.2</ele>
        <time>2021-04-04T06:29:42Z</time>
      </trkpt>
      <trkpt lat="40.3728070" lon="-3.5323400">
        <ele>652.2</ele>
        <time>2021-04-04T06:29:43Z</time>
      </trkpt>
      <trkpt lat="40.3727420" lon="-3.5323530">
        <ele>652.4</ele>
        <time>2021-04-04T06:29:44Z</time>
      </trkpt>
      <trkpt lat="40.3726770" lon="-3.5323600">
        <ele>652.6</ele>
        <time>2021-04-04T06:29:45Z</time>
      </trkpt>
      <trkpt lat="40.3726080" lon="-3.5323520">
        <ele>652.6</ele>
        <time>2021-04-04T06:29:46Z</time>
      </trkpt>
      <trkpt lat="40.3725470" lon="-3.5323250">
        <ele>652.8</ele>
        <time>2021-04-04T06:29:47Z</time>
      </trkpt>
      <trkpt lat="40.3724900" lon="-3.5322790">
        <ele>652.8</ele>
        <time>2021-04-04T06:29:48Z</time>
      </trkpt>
      <trkpt lat="40.3724370" lon="-3.5322230">
        <ele>652.8</ele>
        <time>2021-04-04T06:29:49Z</time>
      </trkpt>
      <trkpt lat="40.3723870" lon="-3.5321710">
        <ele>652.8</ele>
        <time>2021-04-04T06:29:50Z</time>
      </trkpt>
      <trkpt lat="40.3723300" lon="-3.5321230">
        <ele>652.8</ele>
        <time>2021-04-04T06:29:51Z</time>
      </trkpt>
      <trkpt lat="40.3722720" lon="-3.5320830">
        <ele>652.8</ele>
        <time>2021-04-04T06:29:52Z</time>
      </trkpt>
      <trkpt lat="40.3722150" lon="-3.5320530">
        <ele>652.8</ele>
        <time>2021-04-04T06:29:53Z</time>
      </trkpt>
      <trkpt lat="40.3721470" lon="-3.5320340">
        <ele>652.6</ele>
        <time>2021-04-04T06:29:54Z</time>
      </trkpt>
      <trkpt lat="40.3720780" lon="-3.5320200">
        <ele>652.6</ele>
        <time>2021-04-04T06:29:55Z</time>
      </trkpt>
      <trkpt lat="40.3720130" lon="-3.5320070">
        <ele>652.6</ele>
        <time>2021-04-04T06:29:56Z</time>
      </trkpt>
      <trkpt lat="40.3719410" lon="-3.5319940">
        <ele>652.6</ele>
        <time>2021-04-04T06:29:57Z</time>
      </trkpt>
      <trkpt lat="40.3718680" lon="-3.5319830">
        <ele>652.6</ele>
        <time>2021-04-04T06:29:58Z</time>
      </trkpt>
      <trkpt lat="40.3718030" lon="-3.5319730">
        <ele>652.6</ele>
        <time>2021-04-04T06:29:59Z</time>
      </trkpt>
      <trkpt lat="40.3717350" lon="-3.5319620">
        <ele>652.4</ele>
        <time>2021-04-04T06:30:00Z</time>
      </trkpt>
      <trkpt lat="40.3716660" lon="-3.5319500">
        <ele>652.4</ele>
        <time>2021-04-04T06:30:01Z</time>
      </trkpt>
      <trkpt lat="40.3715970" lon="-3.5319370">
        <ele>652.4</ele>
        <time>2021-04-04T06:30:02Z</time>
      </trkpt>
      <trkpt lat="40.3715320" lon="-3.5319260">
        <ele>652.4</ele>
        <time>2021-04-04T06:30:03Z</time>
      </trkpt>
      <trkpt lat="40.3714680" lon="-3.5319150">
        <ele>652.4</ele>
        <time>2021-04-04T06:30:04Z</time>
      </trkpt>
      <trkpt lat="40.3713990" lon="-3.5319040">
        <ele>652.4</ele>
        <time>2021-04-04T06:30:05Z</time>
      </trkpt>
      <trkpt lat="40.3713380" lon="-3.5318940">
        <ele>652.4</ele>
        <time>2021-04-04T06:30:06Z</time>
      </trkpt>
      <trkpt lat="40.3712770" lon="-3.5318850">
        <ele>652.4</ele>
        <time>2021-04-04T06:30:07Z</time>
      </trkpt>
      <trkpt lat="40.3712160" lon="-3.5318760">
        <ele>652.4</ele>
        <time>2021-04-04T06:30:08Z</time>
      </trkpt>
      <trkpt lat="40.3711590" lon="-3.5318650">
        <ele>652.4</ele>
        <time>2021-04-04T06:30:09Z</time>
      </trkpt>
      <trkpt lat="40.3711010" lon="-3.5318550">
        <ele>652.6</ele>
        <time>2021-04-04T06:30:10Z</time>
      </trkpt>
      <trkpt lat="40.3710480" lon="-3.5318490">
        <ele>652.6</ele>
        <time>2021-04-04T06:30:11Z</time>
      </trkpt>
      <trkpt lat="40.3710020" lon="-3.5318490">
        <ele>652.6</ele>
        <time>2021-04-04T06:30:12Z</time>
      </trkpt>
      <trkpt lat="40.3709530" lon="-3.5318480">
        <ele>652.6</ele>
        <time>2021-04-04T06:30:13Z</time>
      </trkpt>
      <trkpt lat="40.3708990" lon="-3.5318450">
        <ele>652.6</ele>
        <time>2021-04-04T06:30:14Z</time>
      </trkpt>
      <trkpt lat="40.3708460" lon="-3.5318480">
        <ele>652.4</ele>
        <time>2021-04-04T06:30:15Z</time>
      </trkpt>
      <trkpt lat="40.3707850" lon="-3.5318540">
        <ele>652.4</ele>
        <time>2021-04-04T06:30:16Z</time>
      </trkpt>
      <trkpt lat="40.3707200" lon="-3.5318630">
        <ele>652.2</ele>
        <time>2021-04-04T06:30:17Z</time>
      </trkpt>
      <trkpt lat="40.3706550" lon="-3.5318730">
        <ele>652.2</ele>
        <time>2021-04-04T06:30:18Z</time>
      </trkpt>
      <trkpt lat="40.3705900" lon="-3.5318800">
        <ele>652.0</ele>
        <time>2021-04-04T06:30:19Z</time>
      </trkpt>
      <trkpt lat="40.3705250" lon="-3.5318840">
        <ele>652.0</ele>
        <time>2021-04-04T06:30:20Z</time>
      </trkpt>
      <trkpt lat="40.3704570" lon="-3.5318840">
        <ele>651.8</ele>
        <time>2021-04-04T06:30:21Z</time>
      </trkpt>
      <trkpt lat="40.3703840" lon="-3.5318810">
        <ele>651.8</ele>
        <time>2021-04-04T06:30:22Z</time>
      </trkpt>
      <trkpt lat="40.3703120" lon="-3.5318800">
        <ele>651.6</ele>
        <time>2021-04-04T06:30:23Z</time>
      </trkpt>
      <trkpt lat="40.3702430" lon="-3.5318770">
        <ele>651.4</ele>
        <time>2021-04-04T06:30:24Z</time>
      </trkpt>
      <trkpt lat="40.3701710" lon="-3.5318710">
        <ele>651.2</ele>
        <time>2021-04-04T06:30:25Z</time>
      </trkpt>
      <trkpt lat="40.3700980" lon="-3.5318630">
        <ele>651.2</ele>
        <time>2021-04-04T06:30:26Z</time>
      </trkpt>
      <trkpt lat="40.3700290" lon="-3.5318520">
        <ele>651.0</ele>
        <time>2021-04-04T06:30:27Z</time>
      </trkpt>
      <trkpt lat="40.3699530" lon="-3.5318390">
        <ele>650.8</ele>
        <time>2021-04-04T06:30:28Z</time>
      </trkpt>
      <trkpt lat="40.3698840" lon="-3.5318230">
        <ele>650.6</ele>
        <time>2021-04-04T06:30:29Z</time>
      </trkpt>
      <trkpt lat="40.3698080" lon="-3.5318040">
        <ele>650.4</ele>
        <time>2021-04-04T06:30:30Z</time>
      </trkpt>
      <trkpt lat="40.3697360" lon="-3.5317820">
        <ele>650.4</ele>
        <time>2021-04-04T06:30:31Z</time>
      </trkpt>
      <trkpt lat="40.3696630" lon="-3.5317560">
        <ele>650.2</ele>
        <time>2021-04-04T06:30:32Z</time>
      </trkpt>
      <trkpt lat="40.3695950" lon="-3.5317260">
        <ele>650.0</ele>
        <time>2021-04-04T06:30:33Z</time>
      </trkpt>
      <trkpt lat="40.3695260" lon="-3.5316920">
        <ele>649.8</ele>
        <time>2021-04-04T06:30:34Z</time>
      </trkpt>
      <trkpt lat="40.3694610" lon="-3.5316570">
        <ele>649.8</ele>
        <time>2021-04-04T06:30:35Z</time>
      </trkpt>
      <trkpt lat="40.3693960" lon="-3.5316200">
        <ele>649.6</ele>
        <time>2021-04-04T06:30:36Z</time>
      </trkpt>
      <trkpt lat="40.3693280" lon="-3.5315790">
        <ele>649.6</ele>
        <time>2021-04-04T06:30:37Z</time>
      </trkpt>
      <trkpt lat="40.3692590" lon="-3.5315360">
        <ele>649.4</ele>
        <time>2021-04-04T06:30:38Z</time>
      </trkpt>
      <trkpt lat="40.3691940" lon="-3.5314960">
        <ele>649.4</ele>
        <time>2021-04-04T06:30:39Z</time>
      </trkpt>
      <trkpt lat="40.3691220" lon="-3.5314540">
        <ele>649.2</ele>
        <time>2021-04-04T06:30:40Z</time>
      </trkpt>
      <trkpt lat="40.3690570" lon="-3.5314120">
        <ele>649.0</ele>
        <time>2021-04-04T06:30:41Z</time>
      </trkpt>
      <trkpt lat="40.3689880" lon="-3.5313700">
        <ele>649.0</ele>
        <time>2021-04-04T06:30:42Z</time>
      </trkpt>
      <trkpt lat="40.3689230" lon="-3.5313290">
        <ele>649.0</ele>
        <time>2021-04-04T06:30:43Z</time>
      </trkpt>
      <trkpt lat="40.3688540" lon="-3.5312880">
        <ele>648.8</ele>
        <time>2021-04-04T06:30:44Z</time>
      </trkpt>
      <trkpt lat="40.3687900" lon="-3.5312480">
        <ele>648.8</ele>
        <time>2021-04-04T06:30:45Z</time>
      </trkpt>
      <trkpt lat="40.3687290" lon="-3.5312100">
        <ele>648.8</ele>
        <time>2021-04-04T06:30:46Z</time>
      </trkpt>
      <trkpt lat="40.3686640" lon="-3.5311690">
        <ele>648.8</ele>
        <time>2021-04-04T06:30:47Z</time>
      </trkpt>
      <trkpt lat="40.3685990" lon="-3.5311280">
        <ele>649.0</ele>
        <time>2021-04-04T06:30:48Z</time>
      </trkpt>
      <trkpt lat="40.3685380" lon="-3.5310890">
        <ele>649.2</ele>
        <time>2021-04-04T06:30:49Z</time>
      </trkpt>
      <trkpt lat="40.3684730" lon="-3.5310520">
        <ele>649.2</ele>
        <time>2021-04-04T06:30:50Z</time>
      </trkpt>
      <trkpt lat="40.3684120" lon="-3.5310160">
        <ele>649.4</ele>
        <time>2021-04-04T06:30:51Z</time>
      </trkpt>
      <trkpt lat="40.3683510" lon="-3.5309810">
        <ele>649.6</ele>
        <time>2021-04-04T06:30:52Z</time>
      </trkpt>
      <trkpt lat="40.3682980" lon="-3.5309460">
        <ele>649.8</ele>
        <time>2021-04-04T06:30:53Z</time>
      </trkpt>
      <trkpt lat="40.3682440" lon="-3.5309100">
        <ele>650.2</ele>
        <time>2021-04-04T06:30:54Z</time>
      </trkpt>
      <trkpt lat="40.3681910" lon="-3.5308770">
        <ele>650.4</ele>
        <time>2021-04-04T06:30:55Z</time>
      </trkpt>
      <trkpt lat="40.3681370" lon="-3.5308450">
        <ele>650.8</ele>
        <time>2021-04-04T06:30:56Z</time>
      </trkpt>
      <trkpt lat="40.3680800" lon="-3.5308150">
        <ele>651.2</ele>
        <time>2021-04-04T06:30:57Z</time>
      </trkpt>
      <trkpt lat="40.3680310" lon="-3.5307850">
        <ele>651.6</ele>
        <time>2021-04-04T06:30:58Z</time>
      </trkpt>
      <trkpt lat="40.3679810" lon="-3.5307560">
        <ele>652.0</ele>
        <time>2021-04-04T06:30:59Z</time>
      </trkpt>
      <trkpt lat="40.3679310" lon="-3.5307290">
        <ele>652.4</ele>
        <time>2021-04-04T06:31:00Z</time>
      </trkpt>
      <trkpt lat="40.3678820" lon="-3.5307050">
        <ele>652.8</ele>
        <time>2021-04-04T06:31:01Z</time>
      </trkpt>
      <trkpt lat="40.3678360" lon="-3.5306850">
        <ele>653.2</ele>
        <time>2021-04-04T06:31:02Z</time>
      </trkpt>
      <trkpt lat="40.3677830" lon="-3.5306700">
        <ele>653.4</ele>
        <time>2021-04-04T06:31:03Z</time>
      </trkpt>
      <trkpt lat="40.3677330" lon="-3.5306560">
        <ele>653.8</ele>
        <time>2021-04-04T06:31:04Z</time>
      </trkpt>
      <trkpt lat="40.3676800" lon="-3.5306430">
        <ele>654.2</ele>
        <time>2021-04-04T06:31:05Z</time>
      </trkpt>
      <trkpt lat="40.3676300" lon="-3.5306290">
        <ele>654.6</ele>
        <time>2021-04-04T06:31:06Z</time>
      </trkpt>
      <trkpt lat="40.3675770" lon="-3.5306160">
        <ele>655.0</ele>
        <time>2021-04-04T06:31:07Z</time>
      </trkpt>
      <trkpt lat="40.3675230" lon="-3.5306060">
        <ele>655.2</ele>
        <time>2021-04-04T06:31:08Z</time>
      </trkpt>
      <trkpt lat="40.3674700" lon="-3.5305970">
        <ele>655.6</ele>
        <time>2021-04-04T06:31:09Z</time>
      </trkpt>
      <trkpt lat="40.3674160" lon="-3.5305900">
        <ele>656.0</ele>
        <time>2021-04-04T06:31:10Z</time>
      </trkpt>
      <trkpt lat="40.3673590" lon="-3.5305850">
        <ele>656.4</ele>
        <time>2021-04-04T06:31:11Z</time>
      </trkpt>
      <trkpt lat="40.3673060" lon="-3.5305820">
        <ele>656.6</ele>
        <time>2021-04-04T06:31:12Z</time>
      </trkpt>
      <trkpt lat="40.3672520" lon="-3.5305790">
        <ele>657.0</ele>
        <time>2021-04-04T06:31:13Z</time>
      </trkpt>
      <trkpt lat="40.3671990" lon="-3.5305800">
        <ele>657.4</ele>
        <time>2021-04-04T06:31:14Z</time>
      </trkpt>
      <trkpt lat="40.3671490" lon="-3.5305840">
        <ele>657.6</ele>
        <time>2021-04-04T06:31:15Z</time>
      </trkpt>
      <trkpt lat="40.3670960" lon="-3.5305900">
        <ele>658.0</ele>
        <time>2021-04-04T06:31:16Z</time>
      </trkpt>
      <trkpt lat="40.3670460" lon="-3.5305980">
        <ele>658.2</ele>
        <time>2021-04-04T06:31:17Z</time>
      </trkpt>
      <trkpt lat="40.3669970" lon="-3.5306080">
        <ele>658.4</ele>
        <time>2021-04-04T06:31:18Z</time>
      </trkpt>
      <trkpt lat="40.3669470" lon="-3.5306220">
        <ele>658.6</ele>
        <time>2021-04-04T06:31:19Z</time>
      </trkpt>
      <trkpt lat="40.3668980" lon="-3.5306390">
        <ele>658.8</ele>
        <time>2021-04-04T06:31:20Z</time>
      </trkpt>
      <trkpt lat="40.3668480" lon="-3.5306580">
        <ele>659.0</ele>
        <time>2021-04-04T06:31:21Z</time>
      </trkpt>
      <trkpt lat="40.3667950" lon="-3.5306810">
        <ele>659.0</ele>
        <time>2021-04-04T06:31:22Z</time>
      </trkpt>
      <trkpt lat="40.3667450" lon="-3.5307040">
        <ele>659.2</ele>
        <time>2021-04-04T06:31:23Z</time>
      </trkpt>
      <trkpt lat="40.3666880" lon="-3.5307290">
        <ele>659.2</ele>
        <time>2021-04-04T06:31:24Z</time>
      </trkpt>
      <trkpt lat="40.3666310" lon="-3.5307570">
        <ele>659.0</ele>
        <time>2021-04-04T06:31:25Z</time>
      </trkpt>
      <trkpt lat="40.3665730" lon="-3.5307890">
        <ele>659.0</ele>
        <time>2021-04-04T06:31:26Z</time>
      </trkpt>
      <trkpt lat="40.3665120" lon="-3.5308250">
        <ele>658.8</ele>
        <time>2021-04-04T06:31:27Z</time>
      </trkpt>
      <trkpt lat="40.3664510" lon="-3.5308650">
        <ele>658.6</ele>
        <time>2021-04-04T06:31:28Z</time>
      </trkpt>
      <trkpt lat="40.3663860" lon="-3.5309100">
        <ele>658.4</ele>
        <time>2021-04-04T06:31:29Z</time>
      </trkpt>
      <trkpt lat="40.3663180" lon="-3.5309600">
        <ele>658.2</ele>
        <time>2021-04-04T06:31:30Z</time>
      </trkpt>
      <trkpt lat="40.3662570" lon="-3.5310140">
        <ele>658.0</ele>
        <time>2021-04-04T06:31:31Z</time>
      </trkpt>
      <trkpt lat="40.3661960" lon="-3.5310710">
        <ele>657.6</ele>
        <time>2021-04-04T06:31:32Z</time>
      </trkpt>
      <trkpt lat="40.3661380" lon="-3.5311330">
        <ele>657.4</ele>
        <time>2021-04-04T06:31:33Z</time>
      </trkpt>
      <trkpt lat="40.3660770" lon="-3.5312070">
        <ele>657.0</ele>
        <time>2021-04-04T06:31:34Z</time>
      </trkpt>
      <trkpt lat="40.3660240" lon="-3.5312780">
        <ele>656.8</ele>
        <time>2021-04-04T06:31:35Z</time>
      </trkpt>
      <trkpt lat="40.3659740" lon="-3.5313540">
        <ele>656.6</ele>
        <time>2021-04-04T06:31:36Z</time>
      </trkpt>
      <trkpt lat="40.3659290" lon="-3.5314320">
        <ele>656.4</ele>
        <time>2021-04-04T06:31:37Z</time>
      </trkpt>
      <trkpt lat="40.3658870" lon="-3.5315100">
        <ele>656.2</ele>
        <time>2021-04-04T06:31:38Z</time>
      </trkpt>
      <trkpt lat="40.3658490" lon="-3.5315950">
        <ele>656.0</ele>
        <time>2021-04-04T06:31:39Z</time>
      </trkpt>
      <trkpt lat="40.3658140" lon="-3.5316790">
        <ele>655.8</ele>
        <time>2021-04-04T06:31:40Z</time>
      </trkpt>
      <trkpt lat="40.3657910" lon="-3.5317630">
        <ele>655.6</ele>
        <time>2021-04-04T06:31:41Z</time>
      </trkpt>
      <trkpt lat="40.3657760" lon="-3.5318460">
        <ele>655.6</ele>
        <time>2021-04-04T06:31:42Z</time>
      </trkpt>
      <trkpt lat="40.3657610" lon="-3.5319230">
        <ele>655.4</ele>
        <time>2021-04-04T06:31:43Z</time>
      </trkpt>
      <trkpt lat="40.3657300" lon="-3.5319860">
        <ele>655.4</ele>
        <time>2021-04-04T06:31:44Z</time>
      </trkpt>
      <trkpt lat="40.3656850" lon="-3.5320200">
        <ele>655.2</ele>
        <time>2021-04-04T06:31:45Z</time>
      </trkpt>
      <trkpt lat="40.3656390" lon="-3.5320200">
        <ele>655.2</ele>
        <time>2021-04-04T06:31:46Z</time>
      </trkpt>
      <trkpt lat="40.3656010" lon="-3.5319860">
        <ele>655.0</ele>
        <time>2021-04-04T06:31:47Z</time>
      </trkpt>
      <trkpt lat="40.3655700" lon="-3.5319360">
        <ele>655.0</ele>
        <time>2021-04-04T06:31:48Z</time>
      </trkpt>
      <trkpt lat="40.3655430" lon="-3.5318830">
        <ele>655.0</ele>
        <time>2021-04-04T06:31:49Z</time>
      </trkpt>
      <trkpt lat="40.3655050" lon="-3.5318340">
        <ele>654.8</ele>
        <time>2021-04-04T06:31:50Z</time>
      </trkpt>
      <trkpt lat="40.3654590" lon="-3.5317870">
        <ele>654.6</ele>
        <time>2021-04-04T06:31:51Z</time>
      </trkpt>
      <trkpt lat="40.3654020" lon="-3.5317350">
        <ele>654.2</ele>
        <time>2021-04-04T06:31:52Z</time>
      </trkpt>
      <trkpt lat="40.3653450" lon="-3.5316800">
        <ele>653.6</ele>
        <time>2021-04-04T06:31:53Z</time>
      </trkpt>
      <trkpt lat="40.3652760" lon="-3.5316240">
        <ele>653.0</ele>
        <time>2021-04-04T06:31:54Z</time>
      </trkpt>
      <trkpt lat="40.3652080" lon="-3.5315650">
        <ele>652.4</ele>
        <time>2021-04-04T06:31:55Z</time>
      </trkpt>
      <trkpt lat="40.3651310" lon="-3.5315050">
        <ele>651.8</ele>
        <time>2021-04-04T06:31:56Z</time>
      </trkpt>
      <trkpt lat="40.3650550" lon="-3.5314430">
        <ele>651.0</ele>
        <time>2021-04-04T06:31:57Z</time>
      </trkpt>
      <trkpt lat="40.3649750" lon="-3.5313770">
        <ele>650.4</ele>
        <time>2021-04-04T06:31:58Z</time>
      </trkpt>
      <trkpt lat="40.3648990" lon="-3.5313190">
        <ele>649.8</ele>
        <time>2021-04-04T06:31:59Z</time>
      </trkpt>
      <trkpt lat="40.3648260" lon="-3.5312700">
        <ele>649.4</ele>
        <time>2021-04-04T06:32:00Z</time>
      </trkpt>
      <trkpt lat="40.3647610" lon="-3.5312220">
        <ele>649.4</ele>
        <time>2021-04-04T06:32:01Z</time>
      </trkpt>
      <trkpt lat="40.3647000" lon="-3.5311790">
        <ele>649.6</ele>
        <time>2021-04-04T06:32:02Z</time>
      </trkpt>
      <trkpt lat="40.3646430" lon="-3.5311360">
        <ele>649.8</ele>
        <time>2021-04-04T06:32:03Z</time>
      </trkpt>
      <trkpt lat="40.3645930" lon="-3.5310960">
        <ele>650.4</ele>
        <time>2021-04-04T06:32:04Z</time>
      </trkpt>
      <trkpt lat="40.3645480" lon="-3.5310580">
        <ele>650.8</ele>
        <time>2021-04-04T06:32:05Z</time>
      </trkpt>
      <trkpt lat="40.3645020" lon="-3.5310240">
        <ele>651.4</ele>
        <time>2021-04-04T06:32:06Z</time>
      </trkpt>
      <trkpt lat="40.3644640" lon="-3.5309950">
        <ele>652.0</ele>
        <time>2021-04-04T06:32:07Z</time>
      </trkpt>
      <trkpt lat="40.3644260" lon="-3.5309690">
        <ele>652.6</ele>
        <time>2021-04-04T06:32:08Z</time>
      </trkpt>
      <trkpt lat="40.3643910" lon="-3.5309440">
        <ele>653.0</ele>
        <time>2021-04-04T06:32:09Z</time>
      </trkpt>
      <trkpt lat="40.3643570" lon="-3.5309170">
        <ele>653.6</ele>
        <time>2021-04-04T06:32:10Z</time>
      </trkpt>
      <trkpt lat="40.3643270" lon="-3.5308920">
        <ele>654.0</ele>
        <time>2021-04-04T06:32:11Z</time>
      </trkpt>
      <trkpt lat="40.3642920" lon="-3.5308650">
        <ele>654.4</ele>
        <time>2021-04-04T06:32:12Z</time>
      </trkpt>
      <trkpt lat="40.3642580" lon="-3.5308360">
        <ele>655.0</ele>
        <time>2021-04-04T06:32:13Z</time>
      </trkpt>
      <trkpt lat="40.3642230" lon="-3.5308050">
        <ele>655.2</ele>
        <time>2021-04-04T06:32:14Z</time>
      </trkpt>
      <trkpt lat="40.3641820" lon="-3.5307740">
        <ele>655.6</ele>
        <time>2021-04-04T06:32:15Z</time>
      </trkpt>
      <trkpt lat="40.3641470" lon="-3.5307450">
        <ele>655.8</ele>
        <time>2021-04-04T06:32:16Z</time>
      </trkpt>
      <trkpt lat="40.3641090" lon="-3.5307160">
        <ele>656.0</ele>
        <time>2021-04-04T06:32:17Z</time>
      </trkpt>
      <trkpt lat="40.3640710" lon="-3.5306860">
        <ele>656.2</ele>
        <time>2021-04-04T06:32:18Z</time>
      </trkpt>
      <trkpt lat="40.3640330" lon="-3.5306540">
        <ele>656.2</ele>
        <time>2021-04-04T06:32:19Z</time>
      </trkpt>
      <trkpt lat="40.3639870" lon="-3.5306180">
        <ele>656.2</ele>
        <time>2021-04-04T06:32:20Z</time>
      </trkpt>
      <trkpt lat="40.3639370" lon="-3.5305810">
        <ele>656.2</ele>
        <time>2021-04-04T06:32:21Z</time>
      </trkpt>
      <trkpt lat="40.3638880" lon="-3.5305430">
        <ele>656.2</ele>
        <time>2021-04-04T06:32:22Z</time>
      </trkpt>
      <trkpt lat="40.3638380" lon="-3.5305050">
        <ele>656.0</ele>
        <time>2021-04-04T06:32:23Z</time>
      </trkpt>
      <trkpt lat="40.3637850" lon="-3.5304630">
        <ele>655.6</ele>
        <time>2021-04-04T06:32:24Z</time>
      </trkpt>
      <trkpt lat="40.3637310" lon="-3.5304180">
        <ele>655.4</ele>
        <time>2021-04-04T06:32:25Z</time>
      </trkpt>
      <trkpt lat="40.3636700" lon="-3.5303710">
        <ele>655.2</ele>
        <time>2021-04-04T06:32:26Z</time>
      </trkpt>
      <trkpt lat="40.3636130" lon="-3.5303240">
        <ele>655.0</ele>
        <time>2021-04-04T06:32:27Z</time>
      </trkpt>
      <trkpt lat="40.3635600" lon="-3.5302770">
        <ele>654.8</ele>
        <time>2021-04-04T06:32:28Z</time>
      </trkpt>
      <trkpt lat="40.3635060" lon="-3.5302280">
        <ele>654.6</ele>
        <time>2021-04-04T06:32:29Z</time>
      </trkpt>
      <trkpt lat="40.3634490" lon="-3.5301750">
        <ele>654.6</ele>
        <time>2021-04-04T06:32:30Z</time>
      </trkpt>
      <trkpt lat="40.3633920" lon="-3.5301240">
        <ele>654.4</ele>
        <time>2021-04-04T06:32:31Z</time>
      </trkpt>
      <trkpt lat="40.3633350" lon="-3.5300790">
        <ele>654.2</ele>
        <time>2021-04-04T06:32:32Z</time>
      </trkpt>
      <trkpt lat="40.3632810" lon="-3.5300400">
        <ele>654.2</ele>
        <time>2021-04-04T06:32:33Z</time>
      </trkpt>
      <trkpt lat="40.3632280" lon="-3.5299990">
        <ele>654.2</ele>
        <time>2021-04-04T06:32:34Z</time>
      </trkpt>
      <trkpt lat="40.3631740" lon="-3.5299560">
        <ele>654.2</ele>
        <time>2021-04-04T06:32:35Z</time>
      </trkpt>
      <trkpt lat="40.3631210" lon="-3.5299130">
        <ele>654.2</ele>
        <time>2021-04-04T06:32:36Z</time>
      </trkpt>
      <trkpt lat="40.3630710" lon="-3.5298700">
        <ele>654.4</ele>
        <time>2021-04-04T06:32:37Z</time>
      </trkpt>
      <trkpt lat="40.3630220" lon="-3.5298290">
        <ele>654.4</ele>
        <time>2021-04-04T06:32:38Z</time>
      </trkpt>
      <trkpt lat="40.3629720" lon="-3.5297900">
        <ele>654.6</ele>
        <time>2021-04-04T06:32:39Z</time>
      </trkpt>
      <trkpt lat="40.3629190" lon="-3.5297530">
        <ele>654.8</ele>
        <time>2021-04-04T06:32:40Z</time>
      </trkpt>
      <trkpt lat="40.3628690" lon="-3.5297140">
        <ele>655.0</ele>
        <time>2021-04-04T06:32:41Z</time>
      </trkpt>
      <trkpt lat="40.3628160" lon="-3.5296740">
        <ele>655.2</ele>
        <time>2021-04-04T06:32:42Z</time>
      </trkpt>
      <trkpt lat="40.3627660" lon="-3.5296360">
        <ele>655.6</ele>
        <time>2021-04-04T06:32:43Z</time>
      </trkpt>
      <trkpt lat="40.3627200" lon="-3.5295990">
        <ele>656.0</ele>
        <time>2021-04-04T06:32:44Z</time>
      </trkpt>
      <trkpt lat="40.3626790" lon="-3.5295640">
        <ele>656.4</ele>
        <time>2021-04-04T06:32:45Z</time>
      </trkpt>
      <trkpt lat="40.3626370" lon="-3.5295300">
        <ele>656.6</ele>
        <time>2021-04-04T06:32:46Z</time>
      </trkpt>
      <trkpt lat="40.3625950" lon="-3.5294950">
        <ele>657.0</ele>
        <time>2021-04-04T06:32:47Z</time>
      </trkpt>
      <trkpt lat="40.3625490" lon="-3.5294620">
        <ele>657.4</ele>
        <time>2021-04-04T06:32:48Z</time>
      </trkpt>
      <trkpt lat="40.3625070" lon="-3.5294290">
        <ele>657.8</ele>
        <time>2021-04-04T06:32:49Z</time>
      </trkpt>
      <trkpt lat="40.3624650" lon="-3.5293950">
        <ele>658.2</ele>
        <time>2021-04-04T06:32:50Z</time>
      </trkpt>
      <trkpt lat="40.3624230" lon="-3.5293630">
        <ele>658.6</ele>
        <time>2021-04-04T06:32:51Z</time>
      </trkpt>
      <trkpt lat="40.3623810" lon="-3.5293310">
        <ele>659.0</ele>
        <time>2021-04-04T06:32:52Z</time>
      </trkpt>
      <trkpt lat="40.3623390" lon="-3.5292960">
        <ele>659.2</ele>
        <time>2021-04-04T06:32:53Z</time>
      </trkpt>
      <trkpt lat="40.3622970" lon="-3.5292630">
        <ele>659.4</ele>
        <time>2021-04-04T06:32:54Z</time>
      </trkpt>
      <trkpt lat="40.3622510" lon="-3.5292290">
        <ele>659.6</ele>
        <time>2021-04-04T06:32:55Z</time>
      </trkpt>
      <trkpt lat="40.3622050" lon="-3.5291940">
        <ele>659.8</ele>
        <time>2021-04-04T06:32:56Z</time>
      </trkpt>
      <trkpt lat="40.3621560" lon="-3.5291570">
        <ele>659.8</ele>
        <time>2021-04-04T06:32:57Z</time>
      </trkpt>
      <trkpt lat="40.3621100" lon="-3.5291170">
        <ele>659.6</ele>
        <time>2021-04-04T06:32:58Z</time>
      </trkpt>
      <trkpt lat="40.3620570" lon="-3.5290770">
        <ele>659.4</ele>
        <time>2021-04-04T06:32:59Z</time>
      </trkpt>
      <trkpt lat="40.3620110" lon="-3.5290420">
        <ele>659.0</ele>
        <time>2021-04-04T06:33:00Z</time>
      </trkpt>
      <trkpt lat="40.3619690" lon="-3.5290160">
        <ele>658.8</ele>
        <time>2021-04-04T06:33:01Z</time>
      </trkpt>
      <trkpt lat="40.3619390" lon="-3.5290060">
        <ele>658.4</ele>
        <time>2021-04-04T06:33:02Z</time>
      </trkpt>
      <trkpt lat="40.3619120" lon="-3.5290160">
        <ele>658.0</ele>
        <time>2021-04-04T06:33:03Z</time>
      </trkpt>
      <trkpt lat="40.3618890" lon="-3.5290400">
        <ele>657.8</ele>
        <time>2021-04-04T06:33:04Z</time>
      </trkpt>
      <trkpt lat="40.3618700" lon="-3.5290790">
        <ele>657.4</ele>
        <time>2021-04-04T06:33:05Z</time>
      </trkpt>
      <trkpt lat="40.3618470" lon="-3.5291270">
        <ele>657.2</ele>
        <time>2021-04-04T06:33:06Z</time>
      </trkpt>
      <trkpt lat="40.3618200" lon="-3.5291810">
        <ele>656.8</ele>
        <time>2021-04-04T06:33:07Z</time>
      </trkpt>
      <trkpt lat="40.3617860" lon="-3.5292430">
        <ele>656.4</ele>
        <time>2021-04-04T06:33:08Z</time>
      </trkpt>
      <trkpt lat="40.3617520" lon="-3.5293130">
        <ele>656.0</ele>
        <time>2021-04-04T06:33:09Z</time>
      </trkpt>
      <trkpt lat="40.3617210" lon="-3.5293860">
        <ele>655.6</ele>
        <time>2021-04-04T06:33:10Z</time>
      </trkpt>
      <trkpt lat="40.3616830" lon="-3.5294600">
        <ele>655.2</ele>
        <time>2021-04-04T06:33:11Z</time>
      </trkpt>
      <trkpt lat="40.3616410" lon="-3.5295390">
        <ele>654.6</ele>
        <time>2021-04-04T06:33:12Z</time>
      </trkpt>
      <trkpt lat="40.3616030" lon="-3.5296240">
        <ele>654.2</ele>
        <time>2021-04-04T06:33:13Z</time>
      </trkpt>
      <trkpt lat="40.3615610" lon="-3.5297090">
        <ele>653.8</ele>
        <time>2021-04-04T06:33:14Z</time>
      </trkpt>
      <trkpt lat="40.3615190" lon="-3.5297960">
        <ele>653.2</ele>
        <time>2021-04-04T06:33:15Z</time>
      </trkpt>
      <trkpt lat="40.3614770" lon="-3.5298870">
        <ele>652.8</ele>
        <time>2021-04-04T06:33:16Z</time>
      </trkpt>
      <trkpt lat="40.3614350" lon="-3.5299790">
        <ele>652.4</ele>
        <time>2021-04-04T06:33:17Z</time>
      </trkpt>
      <trkpt lat="40.3613890" lon="-3.5300690">
        <ele>652.2</ele>
        <time>2021-04-04T06:33:18Z</time>
      </trkpt>
      <trkpt lat="40.3613470" lon="-3.5301600">
        <ele>651.6</ele>
        <time>2021-04-04T06:33:19Z</time>
      </trkpt>
      <trkpt lat="40.3613090" lon="-3.5302550">
        <ele>651.2</ele>
        <time>2021-04-04T06:33:20Z</time>
      </trkpt>
      <trkpt lat="40.3612670" lon="-3.5303500">
        <ele>651.0</ele>
        <time>2021-04-04T06:33:21Z</time>
      </trkpt>
      <trkpt lat="40.3612250" lon="-3.5304420">
        <ele>650.6</ele>
        <time>2021-04-04T06:33:22Z</time>
      </trkpt>
      <trkpt lat="40.3611830" lon="-3.5305310">
        <ele>650.4</ele>
        <time>2021-04-04T06:33:23Z</time>
      </trkpt>
      <trkpt lat="40.3611410" lon="-3.5306190">
        <ele>650.2</ele>
        <time>2021-04-04T06:33:24Z</time>
      </trkpt>
      <trkpt lat="40.3610990" lon="-3.5307060">
        <ele>650.0</ele>
        <time>2021-04-04T06:33:25Z</time>
      </trkpt>
      <trkpt lat="40.3610570" lon="-3.5307910">
        <ele>649.8</ele>
        <time>2021-04-04T06:33:26Z</time>
      </trkpt>
      <trkpt lat="40.3610190" lon="-3.5308780">
        <ele>649.6</ele>
        <time>2021-04-04T06:33:27Z</time>
      </trkpt>
      <trkpt lat="40.3609810" lon="-3.5309640">
        <ele>649.6</ele>
        <time>2021-04-04T06:33:28Z</time>
      </trkpt>
      <trkpt lat="40.3609430" lon="-3.5310490">
        <ele>649.4</ele>
        <time>2021-04-04T06:33:29Z</time>
      </trkpt>
      <trkpt lat="40.3609050" lon="-3.5311310">
        <ele>649.4</ele>
        <time>2021-04-04T06:33:30Z</time>
      </trkpt>
      <trkpt lat="40.3608670" lon="-3.5312120">
        <ele>649.4</ele>
        <time>2021-04-04T06:33:31Z</time>
      </trkpt>
      <trkpt lat="40.3608280" lon="-3.5312930">
        <ele>649.2</ele>
        <time>2021-04-04T06:33:32Z</time>
      </trkpt>
      <trkpt lat="40.3607860" lon="-3.5313710">
        <ele>649.0</ele>
        <time>2021-04-04T06:33:33Z</time>
      </trkpt>
      <trkpt lat="40.3607480" lon="-3.5314470">
        <ele>649.0</ele>
        <time>2021-04-04T06:33:34Z</time>
      </trkpt>
      <trkpt lat="40.3607100" lon="-3.5315250">
        <ele>648.8</ele>
        <time>2021-04-04T06:33:35Z</time>
      </trkpt>
      <trkpt lat="40.3606720" lon="-3.5316040">
        <ele>648.6</ele>
        <time>2021-04-04T06:33:36Z</time>
      </trkpt>
      <trkpt lat="40.3606380" lon="-3.5316840">
        <ele>648.4</ele>
        <time>2021-04-04T06:33:37Z</time>
      </trkpt>
      <trkpt lat="40.3606030" lon="-3.5317620">
        <ele>648.2</ele>
        <time>2021-04-04T06:33:38Z</time>
      </trkpt>
      <trkpt lat="40.3605650" lon="-3.5318430">
        <ele>648.0</ele>
        <time>2021-04-04T06:33:39Z</time>
      </trkpt>
      <trkpt lat="40.3605270" lon="-3.5319230">
        <ele>647.8</ele>
        <time>2021-04-04T06:33:40Z</time>
      </trkpt>
      <trkpt lat="40.3604930" lon="-3.5320010">
        <ele>647.4</ele>
        <time>2021-04-04T06:33:41Z</time>
      </trkpt>
      <trkpt lat="40.3604580" lon="-3.5320790">
        <ele>647.2</ele>
        <time>2021-04-04T06:33:42Z</time>
      </trkpt>
      <trkpt lat="40.3604240" lon="-3.5321530">
        <ele>646.8</ele>
        <time>2021-04-04T06:33:43Z</time>
      </trkpt>
      <trkpt lat="40.3603940" lon="-3.5322160">
        <ele>646.6</ele>
        <time>2021-04-04T06:33:44Z</time>
      </trkpt>
      <trkpt lat="40.3603670" lon="-3.5322700">
        <ele>646.2</ele>
        <time>2021-04-04T06:33:45Z</time>
      </trkpt>
      <trkpt lat="40.3603520" lon="-3.5323130">
        <ele>646.0</ele>
        <time>2021-04-04T06:33:46Z</time>
      </trkpt>
      <trkpt lat="40.3603480" lon="-3.5323500">
        <ele>645.8</ele>
        <time>2021-04-04T06:33:47Z</time>
      </trkpt>
      <trkpt lat="40.3603590" lon="-3.5323870">
        <ele>645.6</ele>
        <time>2021-04-04T06:33:48Z</time>
      </trkpt>
      <trkpt lat="40.3603820" lon="-3.5324220">
        <ele>645.6</ele>
        <time>2021-04-04T06:33:49Z</time>
      </trkpt>
      <trkpt lat="40.3604090" lon="-3.5324580">
        <ele>645.4</ele>
        <time>2021-04-04T06:33:50Z</time>
      </trkpt>
      <trkpt lat="40.3604320" lon="-3.5324940">
        <ele>645.4</ele>
        <time>2021-04-04T06:33:51Z</time>
      </trkpt>
      <trkpt lat="40.3604550" lon="-3.5325270">
        <ele>645.4</ele>
        <time>2021-04-04T06:33:52Z</time>
      </trkpt>
      <trkpt lat="40.3604890" lon="-3.5325510">
        <ele>645.2</ele>
        <time>2021-04-04T06:33:53Z</time>
      </trkpt>
      <trkpt lat="40.3605270" lon="-3.5325670">
        <ele>645.2</ele>
        <time>2021-04-04T06:33:54Z</time>
      </trkpt>
      <trkpt lat="40.3605650" lon="-3.5325810">
        <ele>645.2</ele>
        <time>2021-04-04T06:33:55Z</time>
      </trkpt>
      <trkpt lat="40.3606070" lon="-3.5326020">
        <ele>645.4</ele>
        <time>2021-04-04T06:33:56Z</time>
      </trkpt>
      <trkpt lat="40.3606490" lon="-3.5326320">
        <ele>645.4</ele>
        <time>2021-04-04T06:33:57Z</time>
      </trkpt>
      <trkpt lat="40.3606870" lon="-3.5326660">
        <ele>645.4</ele>
        <time>2021-04-04T06:33:58Z</time>
      </trkpt>
      <trkpt lat="40.3607250" lon="-3.5327000">
        <ele>645.4</ele>
        <time>2021-04-04T06:33:59Z</time>
      </trkpt>
      <trkpt lat="40.3607640" lon="-3.5327350">
        <ele>645.4</ele>
        <time>2021-04-04T06:34:00Z</time>
      </trkpt>
      <trkpt lat="40.3608020" lon="-3.5327660">
        <ele>645.4</ele>
        <time>2021-04-04T06:34:01Z</time>
      </trkpt>
      <trkpt lat="40.3608440" lon="-3.5327970">
        <ele>645.4</ele>
        <time>2021-04-04T06:34:02Z</time>
      </trkpt>
      <trkpt lat="40.3608930" lon="-3.5328360">
        <ele>645.2</ele>
        <time>2021-04-04T06:34:03Z</time>
      </trkpt>
      <trkpt lat="40.3609390" lon="-3.5328760">
        <ele>645.0</ele>
        <time>2021-04-04T06:34:04Z</time>
      </trkpt>
      <trkpt lat="40.3609920" lon="-3.5329180">
        <ele>644.8</ele>
        <time>2021-04-04T06:34:05Z</time>
      </trkpt>
      <trkpt lat="40.3610500" lon="-3.5329610">
        <ele>644.4</ele>
        <time>2021-04-04T06:34:06Z</time>
      </trkpt>
      <trkpt lat="40.3611110" lon="-3.5330070">
        <ele>644.0</ele>
        <time>2021-04-04T06:34:07Z</time>
      </trkpt>
      <trkpt lat="40.3611750" lon="-3.5330580">
        <ele>643.4</ele>
        <time>2021-04-04T06:34:08Z</time>
      </trkpt>
      <trkpt lat="40.3612440" lon="-3.5331120">
        <ele>643.0</ele>
        <time>2021-04-04T06:34:09Z</time>
      </trkpt>
      <trkpt lat="40.3613170" lon="-3.5331670">
        <ele>642.2</ele>
        <time>2021-04-04T06:34:10Z</time>
      </trkpt>
      <trkpt lat="40.3613930" lon="-3.5332220">
        <ele>641.6</ele>
        <time>2021-04-04T06:34:11Z</time>
      </trkpt>
      <trkpt lat="40.3614730" lon="-3.5332790">
        <ele>641.0</ele>
        <time>2021-04-04T06:34:12Z</time>
      </trkpt>
      <trkpt lat="40.3615460" lon="-3.5333390">
        <ele>640.2</ele>
        <time>2021-04-04T06:34:13Z</time>
      </trkpt>
      <trkpt lat="40.3616220" lon="-3.5333990">
        <ele>639.6</ele>
        <time>2021-04-04T06:34:14Z</time>
      </trkpt>
      <trkpt lat="40.3616900" lon="-3.5334530">
        <ele>639.0</ele>
        <time>2021-04-04T06:34:15Z</time>
      </trkpt>
      <trkpt lat="40.3617550" lon="-3.5335050">
        <ele>638.4</ele>
        <time>2021-04-04T06:34:16Z</time>
      </trkpt>
      <trkpt lat="40.3618050" lon="-3.5335530">
        <ele>638.0</ele>
        <time>2021-04-04T06:34:17Z</time>
      </trkpt>
      <trkpt lat="40.3618390" lon="-3.5336040">
        <ele>637.6</ele>
        <time>2021-04-04T06:34:18Z</time>
      </trkpt>
      <trkpt lat="40.3618550" lon="-3.5336650">
        <ele>637.2</ele>
        <time>2021-04-04T06:34:19Z</time>
      </trkpt>
      <trkpt lat="40.3618510" lon="-3.5337300">
        <ele>637.0</ele>
        <time>2021-04-04T06:34:20Z</time>
      </trkpt>
      <trkpt lat="40.3618240" lon="-3.5337930">
        <ele>636.8</ele>
        <time>2021-04-04T06:34:21Z</time>
      </trkpt>
      <trkpt lat="40.3617970" lon="-3.5338540">
        <ele>636.6</ele>
        <time>2021-04-04T06:34:22Z</time>
      </trkpt>
      <trkpt lat="40.3617670" lon="-3.5339170">
        <ele>636.4</ele>
        <time>2021-04-04T06:34:23Z</time>
      </trkpt>
      <trkpt lat="40.3617400" lon="-3.5339810">
        <ele>636.2</ele>
        <time>2021-04-04T06:34:24Z</time>
      </trkpt>
      <trkpt lat="40.3617100" lon="-3.5340440">
        <ele>636.0</ele>
        <time>2021-04-04T06:34:25Z</time>
      </trkpt>
      <trkpt lat="40.3616790" lon="-3.5341050">
        <ele>636.0</ele>
        <time>2021-04-04T06:34:26Z</time>
      </trkpt>
      <trkpt lat="40.3616490" lon="-3.5341600">
        <ele>636.0</ele>
        <time>2021-04-04T06:34:27Z</time>
      </trkpt>
      <trkpt lat="40.3616100" lon="-3.5342030">
        <ele>636.0</ele>
        <time>2021-04-04T06:34:28Z</time>
      </trkpt>
      <trkpt lat="40.3615610" lon="-3.5342240">
        <ele>636.0</ele>
        <time>2021-04-04T06:34:29Z</time>
      </trkpt>
      <trkpt lat="40.3615150" lon="-3.5342250">
        <ele>636.2</ele>
        <time>2021-04-04T06:34:30Z</time>
      </trkpt>
      <trkpt lat="40.3614730" lon="-3.5342110">
        <ele>636.4</ele>
        <time>2021-04-04T06:34:31Z</time>
      </trkpt>
      <trkpt lat="40.3614350" lon="-3.5341910">
        <ele>636.6</ele>
        <time>2021-04-04T06:34:32Z</time>
      </trkpt>
      <trkpt lat="40.3614010" lon="-3.5341650">
        <ele>637.0</ele>
        <time>2021-04-04T06:34:33Z</time>
      </trkpt>
      <trkpt lat="40.3613700" lon="-3.5341360">
        <ele>637.2</ele>
        <time>2021-04-04T06:34:34Z</time>
      </trkpt>
      <trkpt lat="40.3613320" lon="-3.5341080">
        <ele>637.6</ele>
        <time>2021-04-04T06:34:35Z</time>
      </trkpt>
      <trkpt lat="40.3612980" lon="-3.5340790">
        <ele>638.0</ele>
        <time>2021-04-04T06:34:36Z</time>
      </trkpt>
      <trkpt lat="40.3612590" lon="-3.5340500">
        <ele>638.4</ele>
        <time>2021-04-04T06:34:37Z</time>
      </trkpt>
      <trkpt lat="40.3612210" lon="-3.5340190">
        <ele>638.8</ele>
        <time>2021-04-04T06:34:38Z</time>
      </trkpt>
      <trkpt lat="40.3611870" lon="-3.5339860">
        <ele>639.0</ele>
        <time>2021-04-04T06:34:39Z</time>
      </trkpt>
      <trkpt lat="40.3611490" lon="-3.5339540">
        <ele>639.4</ele>
        <time>2021-04-04T06:34:40Z</time>
      </trkpt>
      <trkpt lat="40.3611110" lon="-3.5339240">
        <ele>639.8</ele>
        <time>2021-04-04T06:34:41Z</time>
      </trkpt>
      <trkpt lat="40.3610690" lon="-3.5338940">
        <ele>640.0</ele>
        <time>2021-04-04T06:34:42Z</time>
      </trkpt>
      <trkpt lat="40.3610310" lon="-3.5338620">
        <ele>640.2</ele>
        <time>2021-04-04T06:34:43Z</time>
      </trkpt>
      <trkpt lat="40.3609890" lon="-3.5338290">
        <ele>640.4</ele>
        <time>2021-04-04T06:34:44Z</time>
      </trkpt>
      <trkpt lat="40.3609470" lon="-3.5337940">
        <ele>640.6</ele>
        <time>2021-04-04T06:34:45Z</time>
      </trkpt>
      <trkpt lat="40.3609050" lon="-3.5337570">
        <ele>640.6</ele>
        <time>2021-04-04T06:34:46Z</time>
      </trkpt>
      <trkpt lat="40.3608590" lon="-3.5337200">
        <ele>640.6</ele>
        <time>2021-04-04T06:34:47Z</time>
      </trkpt>
      <trkpt lat="40.3608090" lon="-3.5336810">
        <ele>640.6</ele>
        <time>2021-04-04T06:34:48Z</time>
      </trkpt>
      <trkpt lat="40.3607560" lon="-3.5336450">
        <ele>640.4</ele>
        <time>2021-04-04T06:34:49Z</time>
      </trkpt>
      <trkpt lat="40.3607060" lon="-3.5336230">
        <ele>640.4</ele>
        <time>2021-04-04T06:34:50Z</time>
      </trkpt>
      <trkpt lat="40.3606570" lon="-3.5336260">
        <ele>640.2</ele>
        <time>2021-04-04T06:34:51Z</time>
      </trkpt>
      <trkpt lat="40.3606070" lon="-3.5336540">
        <ele>640.0</ele>
        <time>2021-04-04T06:34:52Z</time>
      </trkpt>
      <trkpt lat="40.3605610" lon="-3.5337050">
        <ele>639.8</ele>
        <time>2021-04-04T06:34:53Z</time>
      </trkpt>
      <trkpt lat="40.3605270" lon="-3.5337700">
        <ele>639.6</ele>
        <time>2021-04-04T06:34:54Z</time>
      </trkpt>
      <trkpt lat="40.3604960" lon="-3.5338410">
        <ele>639.4</ele>
        <time>2021-04-04T06:34:55Z</time>
      </trkpt>
      <trkpt lat="40.3604620" lon="-3.5339140">
        <ele>639.2</ele>
        <time>2021-04-04T06:34:56Z</time>
      </trkpt>
      <trkpt lat="40.3604240" lon="-3.5339900">
        <ele>638.8</ele>
        <time>2021-04-04T06:34:57Z</time>
      </trkpt>
      <trkpt lat="40.3603940" lon="-3.5340660">
        <ele>638.6</ele>
        <time>2021-04-04T06:34:58Z</time>
      </trkpt>
      <trkpt lat="40.3603550" lon="-3.5341400">
        <ele>638.6</ele>
        <time>2021-04-04T06:34:59Z</time>
      </trkpt>
      <trkpt lat="40.3603170" lon="-3.5342140">
        <ele>638.4</ele>
        <time>2021-04-04T06:35:00Z</time>
      </trkpt>
      <trkpt lat="40.3602790" lon="-3.5342870">
        <ele>638.2</ele>
        <time>2021-04-04T06:35:01Z</time>
      </trkpt>
      <trkpt lat="40.3602490" lon="-3.5343610">
        <ele>638.0</ele>
        <time>2021-04-04T06:35:02Z</time>
      </trkpt>
      <trkpt lat="40.3602140" lon="-3.5344350">
        <ele>637.8</ele>
        <time>2021-04-04T06:35:03Z</time>
      </trkpt>
      <trkpt lat="40.3601840" lon="-3.5345110">
        <ele>637.6</ele>
        <time>2021-04-04T06:35:04Z</time>
      </trkpt>
      <trkpt lat="40.3601530" lon="-3.5345860">
        <ele>637.6</ele>
        <time>2021-04-04T06:35:05Z</time>
      </trkpt>
      <trkpt lat="40.3601190" lon="-3.5346640">
        <ele>637.4</ele>
        <time>2021-04-04T06:35:06Z</time>
      </trkpt>
      <trkpt lat="40.3600880" lon="-3.5347450">
        <ele>637.2</ele>
        <time>2021-04-04T06:35:07Z</time>
      </trkpt>
      <trkpt lat="40.3600620" lon="-3.5348260">
        <ele>637.2</ele>
        <time>2021-04-04T06:35:08Z</time>
      </trkpt>
      <trkpt lat="40.3600350" lon="-3.5349070">
        <ele>637.0</ele>
        <time>2021-04-04T06:35:09Z</time>
      </trkpt>
      <trkpt lat="40.3600040" lon="-3.5349910">
        <ele>636.8</ele>
        <time>2021-04-04T06:35:10Z</time>
      </trkpt>
      <trkpt lat="40.3599780" lon="-3.5350760">
        <ele>636.4</ele>
        <time>2021-04-04T06:35:11Z</time>
      </trkpt>
      <trkpt lat="40.3599470" lon="-3.5351620">
        <ele>636.2</ele>
        <time>2021-04-04T06:35:12Z</time>
      </trkpt>
      <trkpt lat="40.3599170" lon="-3.5352490">
        <ele>636.0</ele>
        <time>2021-04-04T06:35:13Z</time>
      </trkpt>
      <trkpt lat="40.3598860" lon="-3.5353350">
        <ele>635.8</ele>
        <time>2021-04-04T06:35:14Z</time>
      </trkpt>
      <trkpt lat="40.3598520" lon="-3.5354240">
        <ele>635.6</ele>
        <time>2021-04-04T06:35:15Z</time>
      </trkpt>
      <trkpt lat="40.3598170" lon="-3.5355170">
        <ele>635.4</ele>
        <time>2021-04-04T06:35:16Z</time>
      </trkpt>
      <trkpt lat="40.3597870" lon="-3.5356100">
        <ele>635.2</ele>
        <time>2021-04-04T06:35:17Z</time>
      </trkpt>
      <trkpt lat="40.3597560" lon="-3.5357030">
        <ele>635.0</ele>
        <time>2021-04-04T06:35:18Z</time>
      </trkpt>
      <trkpt lat="40.3597260" lon="-3.5357970">
        <ele>634.8</ele>
        <time>2021-04-04T06:35:19Z</time>
      </trkpt>
      <trkpt lat="40.3596950" lon="-3.5358910">
        <ele>634.6</ele>
        <time>2021-04-04T06:35:20Z</time>
      </trkpt>
      <trkpt lat="40.3596650" lon="-3.5359840">
        <ele>634.2</ele>
        <time>2021-04-04T06:35:21Z</time>
      </trkpt>
      <trkpt lat="40.3596310" lon="-3.5360760">
        <ele>634.0</ele>
        <time>2021-04-04T06:35:22Z</time>
      </trkpt>
      <trkpt lat="40.3596000" lon="-3.5361700">
        <ele>633.8</ele>
        <time>2021-04-04T06:35:23Z</time>
      </trkpt>
      <trkpt lat="40.3595700" lon="-3.5362640">
        <ele>633.4</ele>
        <time>2021-04-04T06:35:24Z</time>
      </trkpt>
      <trkpt lat="40.3595390" lon="-3.5363570">
        <ele>633.2</ele>
        <time>2021-04-04T06:35:25Z</time>
      </trkpt>
      <trkpt lat="40.3595090" lon="-3.5364510">
        <ele>632.8</ele>
        <time>2021-04-04T06:35:26Z</time>
      </trkpt>
      <trkpt lat="40.3594740" lon="-3.5365430">
        <ele>632.6</ele>
        <time>2021-04-04T06:35:27Z</time>
      </trkpt>
      <trkpt lat="40.3594440" lon="-3.5366330">
        <ele>632.6</ele>
        <time>2021-04-04T06:35:28Z</time>
      </trkpt>
      <trkpt lat="40.3594170" lon="-3.5367220">
        <ele>632.6</ele>
        <time>2021-04-04T06:35:29Z</time>
      </trkpt>
      <trkpt lat="40.3593860" lon="-3.5368090">
        <ele>632.4</ele>
        <time>2021-04-04T06:35:30Z</time>
      </trkpt>
      <trkpt lat="40.3593560" lon="-3.5368990">
        <ele>632.2</ele>
        <time>2021-04-04T06:35:31Z</time>
      </trkpt>
      <trkpt lat="40.3593250" lon="-3.5369850">
        <ele>632.2</ele>
        <time>2021-04-04T06:35:32Z</time>
      </trkpt>
      <trkpt lat="40.3592990" lon="-3.5370680">
        <ele>632.4</ele>
        <time>2021-04-04T06:35:33Z</time>
      </trkpt>
      <trkpt lat="40.3592720" lon="-3.5371470">
        <ele>632.4</ele>
        <time>2021-04-04T06:35:34Z</time>
      </trkpt>
      <trkpt lat="40.3592450" lon="-3.5372230">
        <ele>632.4</ele>
        <time>2021-04-04T06:35:35Z</time>
      </trkpt>
      <trkpt lat="40.3592150" lon="-3.5372980">
        <ele>632.6</ele>
        <time>2021-04-04T06:35:36Z</time>
      </trkpt>
      <trkpt lat="40.3591880" lon="-3.5373710">
        <ele>632.8</ele>
        <time>2021-04-04T06:35:37Z</time>
      </trkpt>
      <trkpt lat="40.3591650" lon="-3.5374430">
        <ele>632.8</ele>
        <time>2021-04-04T06:35:38Z</time>
      </trkpt>
      <trkpt lat="40.3591420" lon="-3.5375110">
        <ele>633.0</ele>
        <time>2021-04-04T06:35:39Z</time>
      </trkpt>
      <trkpt lat="40.3591190" lon="-3.5375740">
        <ele>633.2</ele>
        <time>2021-04-04T06:35:40Z</time>
      </trkpt>
      <trkpt lat="40.3591000" lon="-3.5376320">
        <ele>633.2</ele>
        <time>2021-04-04T06:35:41Z</time>
      </trkpt>
      <trkpt lat="40.3590810" lon="-3.5376830">
        <ele>633.4</ele>
        <time>2021-04-04T06:35:42Z</time>
      </trkpt>
      <trkpt lat="40.3590620" lon="-3.5377290">
        <ele>633.4</ele>
        <time>2021-04-04T06:35:43Z</time>
      </trkpt>
      <trkpt lat="40.3590470" lon="-3.5377680">
        <ele>633.6</ele>
        <time>2021-04-04T06:35:44Z</time>
      </trkpt>
      <trkpt lat="40.3590280" lon="-3.5378010">
        <ele>633.6</ele>
        <time>2021-04-04T06:35:45Z</time>
      </trkpt>
      <trkpt lat="40.3590050" lon="-3.5378230">
        <ele>633.6</ele>
        <time>2021-04-04T06:35:46Z</time>
      </trkpt>
      <trkpt lat="40.3589740" lon="-3.5378280">
        <ele>633.8</ele>
        <time>2021-04-04T06:35:47Z</time>
      </trkpt>
      <trkpt lat="40.3589360" lon="-3.5378170">
        <ele>633.8</ele>
        <time>2021-04-04T06:35:48Z</time>
      </trkpt>
      <trkpt lat="40.3589020" lon="-3.5377920">
        <ele>633.8</ele>
        <time>2021-04-04T06:35:49Z</time>
      </trkpt>
      <trkpt lat="40.3588600" lon="-3.5377620">
        <ele>634.0</ele>
        <time>2021-04-04T06:35:50Z</time>
      </trkpt>
      <trkpt lat="40.3588180" lon="-3.5377320">
        <ele>634.0</ele>
        <time>2021-04-04T06:35:51Z</time>
      </trkpt>
      <trkpt lat="40.3587720" lon="-3.5377020">
        <ele>634.2</ele>
        <time>2021-04-04T06:35:52Z</time>
      </trkpt>
      <trkpt lat="40.3587230" lon="-3.5376710">
        <ele>634.2</ele>
        <time>2021-04-04T06:35:53Z</time>
      </trkpt>
      <trkpt lat="40.3586730" lon="-3.5376370">
        <ele>634.2</ele>
        <time>2021-04-04T06:35:54Z</time>
      </trkpt>
      <trkpt lat="40.3586200" lon="-3.5376020">
        <ele>634.2</ele>
        <time>2021-04-04T06:35:55Z</time>
      </trkpt>
      <trkpt lat="40.3585620" lon="-3.5375670">
        <ele>634.4</ele>
        <time>2021-04-04T06:35:56Z</time>
      </trkpt>
      <trkpt lat="40.3585050" lon="-3.5375310">
        <ele>634.4</ele>
        <time>2021-04-04T06:35:57Z</time>
      </trkpt>
      <trkpt lat="40.3584440" lon="-3.5374960">
        <ele>634.4</ele>
        <time>2021-04-04T06:35:58Z</time>
      </trkpt>
      <trkpt lat="40.3583870" lon="-3.5374600">
        <ele>634.4</ele>
        <time>2021-04-04T06:35:59Z</time>
      </trkpt>
      <trkpt lat="40.3583260" lon="-3.5374190">
        <ele>634.2</ele>
        <time>2021-04-04T06:36:00Z</time>
      </trkpt>
      <trkpt lat="40.3582650" lon="-3.5373760">
        <ele>634.2</ele>
        <time>2021-04-04T06:36:01Z</time>
      </trkpt>
      <trkpt lat="40.3582000" lon="-3.5373320">
        <ele>634.2</ele>
        <time>2021-04-04T06:36:02Z</time>
      </trkpt>
      <trkpt lat="40.3581390" lon="-3.5372900">
        <ele>634.0</ele>
        <time>2021-04-04T06:36:03Z</time>
      </trkpt>
      <trkpt lat="40.3580780" lon="-3.5372500">
        <ele>633.8</ele>
        <time>2021-04-04T06:36:04Z</time>
      </trkpt>
      <trkpt lat="40.3580130" lon="-3.5372060">
        <ele>633.8</ele>
        <time>2021-04-04T06:36:05Z</time>
      </trkpt>
      <trkpt lat="40.3579520" lon="-3.5371550">
        <ele>633.6</ele>
        <time>2021-04-04T06:36:06Z</time>
      </trkpt>
      <trkpt lat="40.3578910" lon="-3.5370990">
        <ele>633.4</ele>
        <time>2021-04-04T06:36:07Z</time>
      </trkpt>
      <trkpt lat="40.3578340" lon="-3.5370450">
        <ele>633.2</ele>
        <time>2021-04-04T06:36:08Z</time>
      </trkpt>
      <trkpt lat="40.3577690" lon="-3.5369940">
        <ele>633.0</ele>
        <time>2021-04-04T06:36:09Z</time>
      </trkpt>
      <trkpt lat="40.3577000" lon="-3.5369400">
        <ele>632.8</ele>
        <time>2021-04-04T06:36:10Z</time>
      </trkpt>
      <trkpt lat="40.3576320" lon="-3.5368860">
        <ele>632.4</ele>
        <time>2021-04-04T06:36:11Z</time>
      </trkpt>
      <trkpt lat="40.3575630" lon="-3.5368310">
        <ele>632.2</ele>
        <time>2021-04-04T06:36:12Z</time>
      </trkpt>
      <trkpt lat="40.3574940" lon="-3.5367750">
        <ele>632.0</ele>
        <time>2021-04-04T06:36:13Z</time>
      </trkpt>
      <trkpt lat="40.3574260" lon="-3.5367170">
        <ele>631.6</ele>
        <time>2021-04-04T06:36:14Z</time>
      </trkpt>
      <trkpt lat="40.3573490" lon="-3.5366590">
        <ele>631.2</ele>
        <time>2021-04-04T06:36:15Z</time>
      </trkpt>
      <trkpt lat="40.3572730" lon="-3.5366000">
        <ele>631.0</ele>
        <time>2021-04-04T06:36:16Z</time>
      </trkpt>
      <trkpt lat="40.3572010" lon="-3.5365400">
        <ele>630.8</ele>
        <time>2021-04-04T06:36:17Z</time>
      </trkpt>
      <trkpt lat="40.3571240" lon="-3.5364800">
        <ele>630.4</ele>
        <time>2021-04-04T06:36:18Z</time>
      </trkpt>
      <trkpt lat="40.3570400" lon="-3.5364180">
        <ele>630.2</ele>
        <time>2021-04-04T06:36:19Z</time>
      </trkpt>
      <trkpt lat="40.3569530" lon="-3.5363560">
        <ele>629.8</ele>
        <time>2021-04-04T06:36:20Z</time>
      </trkpt>
      <trkpt lat="40.3568760" lon="-3.5362990">
        <ele>629.6</ele>
        <time>2021-04-04T06:36:21Z</time>
      </trkpt>
      <trkpt lat="40.3568000" lon="-3.5362430">
        <ele>629.4</ele>
        <time>2021-04-04T06:36:22Z</time>
      </trkpt>
      <trkpt lat="40.3567240" lon="-3.5361830">
        <ele>629.4</ele>
        <time>2021-04-04T06:36:23Z</time>
      </trkpt>
      <trkpt lat="40.3566510" lon="-3.5361260">
        <ele>629.2</ele>
        <time>2021-04-04T06:36:24Z</time>
      </trkpt>
      <trkpt lat="40.3565790" lon="-3.5360710">
        <ele>629.0</ele>
        <time>2021-04-04T06:36:25Z</time>
      </trkpt>
      <trkpt lat="40.3565100" lon="-3.5360170">
        <ele>629.0</ele>
        <time>2021-04-04T06:36:26Z</time>
      </trkpt>
      <trkpt lat="40.3564410" lon="-3.5359640">
        <ele>628.8</ele>
        <time>2021-04-04T06:36:27Z</time>
      </trkpt>
      <trkpt lat="40.3563770" lon="-3.5359110">
        <ele>628.8</ele>
        <time>2021-04-04T06:36:28Z</time>
      </trkpt>
      <trkpt lat="40.3563120" lon="-3.5358610">
        <ele>628.8</ele>
        <time>2021-04-04T06:36:29Z</time>
      </trkpt>
      <trkpt lat="40.3562470" lon="-3.5358100">
        <ele>628.6</ele>
        <time>2021-04-04T06:36:30Z</time>
      </trkpt>
      <trkpt lat="40.3561820" lon="-3.5357590">
        <ele>628.6</ele>
        <time>2021-04-04T06:36:31Z</time>
      </trkpt>
      <trkpt lat="40.3561130" lon="-3.5357080">
        <ele>628.4</ele>
        <time>2021-04-04T06:36:32Z</time>
      </trkpt>
      <trkpt lat="40.3560520" lon="-3.5356550">
        <ele>628.4</ele>
        <time>2021-04-04T06:36:33Z</time>
      </trkpt>
      <trkpt lat="40.3559910" lon="-3.5356040">
        <ele>628.4</ele>
        <time>2021-04-04T06:36:34Z</time>
      </trkpt>
      <trkpt lat="40.3559270" lon="-3.5355540">
        <ele>628.2</ele>
        <time>2021-04-04T06:36:35Z</time>
      </trkpt>
      <trkpt lat="40.3558620" lon="-3.5355030">
        <ele>628.2</ele>
        <time>2021-04-04T06:36:36Z</time>
      </trkpt>
      <trkpt lat="40.3558010" lon="-3.5354520">
        <ele>628.2</ele>
        <time>2021-04-04T06:36:37Z</time>
      </trkpt>
      <trkpt lat="40.3557360" lon="-3.5354000">
        <ele>628.2</ele>
        <time>2021-04-04T06:36:38Z</time>
      </trkpt>
      <trkpt lat="40.3556710" lon="-3.5353500">
        <ele>628.2</ele>
        <time>2021-04-04T06:36:39Z</time>
      </trkpt>
      <trkpt lat="40.3556100" lon="-3.5353010">
        <ele>628.2</ele>
        <time>2021-04-04T06:36:40Z</time>
      </trkpt>
      <trkpt lat="40.3555450" lon="-3.5352520">
        <ele>628.2</ele>
        <time>2021-04-04T06:36:41Z</time>
      </trkpt>
      <trkpt lat="40.3554800" lon="-3.5352020">
        <ele>628.2</ele>
        <time>2021-04-04T06:36:42Z</time>
      </trkpt>
      <trkpt lat="40.3554150" lon="-3.5351520">
        <ele>628.0</ele>
        <time>2021-04-04T06:36:43Z</time>
      </trkpt>
      <trkpt lat="40.3553500" lon="-3.5351010">
        <ele>628.0</ele>
        <time>2021-04-04T06:36:44Z</time>
      </trkpt>
      <trkpt lat="40.3552820" lon="-3.5350480">
        <ele>628.0</ele>
        <time>2021-04-04T06:36:45Z</time>
      </trkpt>
      <trkpt lat="40.3552170" lon="-3.5349950">
        <ele>628.0</ele>
        <time>2021-04-04T06:36:46Z</time>
      </trkpt>
      <trkpt lat="40.3551520" lon="-3.5349420">
        <ele>628.0</ele>
        <time>2021-04-04T06:36:47Z</time>
      </trkpt>
      <trkpt lat="40.3550830" lon="-3.5348900">
        <ele>627.8</ele>
        <time>2021-04-04T06:36:48Z</time>
      </trkpt>
      <trkpt lat="40.3550190" lon="-3.5348360">
        <ele>627.8</ele>
        <time>2021-04-04T06:36:49Z</time>
      </trkpt>
      <trkpt lat="40.3549500" lon="-3.5347820">
        <ele>627.8</ele>
        <time>2021-04-04T06:36:50Z</time>
      </trkpt>
      <trkpt lat="40.3548850" lon="-3.5347280">
        <ele>627.8</ele>
        <time>2021-04-04T06:36:51Z</time>
      </trkpt>
      <trkpt lat="40.3548240" lon="-3.5346780">
        <ele>627.6</ele>
        <time>2021-04-04T06:36:52Z</time>
      </trkpt>
      <trkpt lat="40.3547630" lon="-3.5346310">
        <ele>627.6</ele>
        <time>2021-04-04T06:36:53Z</time>
      </trkpt>
      <trkpt lat="40.3546980" lon="-3.5345850">
        <ele>627.6</ele>
        <time>2021-04-04T06:36:54Z</time>
      </trkpt>
      <trkpt lat="40.3546330" lon="-3.5345410">
        <ele>627.6</ele>
        <time>2021-04-04T06:36:55Z</time>
      </trkpt>
      <trkpt lat="40.3545680" lon="-3.5345000">
        <ele>627.6</ele>
        <time>2021-04-04T06:36:56Z</time>
      </trkpt>
      <trkpt lat="40.3545070" lon="-3.5344550">
        <ele>627.6</ele>
        <time>2021-04-04T06:36:57Z</time>
      </trkpt>
      <trkpt lat="40.3544460" lon="-3.5344040">
        <ele>627.6</ele>
        <time>2021-04-04T06:36:58Z</time>
      </trkpt>
      <trkpt lat="40.3543930" lon="-3.5343500">
        <ele>627.4</ele>
        <time>2021-04-04T06:36:59Z</time>
      </trkpt>
      <trkpt lat="40.3543360" lon="-3.5342970">
        <ele>627.4</ele>
        <time>2021-04-04T06:37:00Z</time>
      </trkpt>
      <trkpt lat="40.3542790" lon="-3.5342510">
        <ele>627.4</ele>
        <time>2021-04-04T06:37:01Z</time>
      </trkpt>
      <trkpt lat="40.3542210" lon="-3.5342050">
        <ele>627.6</ele>
        <time>2021-04-04T06:37:02Z</time>
      </trkpt>
      <trkpt lat="40.3541640" lon="-3.5341590">
        <ele>627.6</ele>
        <time>2021-04-04T06:37:03Z</time>
      </trkpt>
      <trkpt lat="40.3541110" lon="-3.5341150">
        <ele>627.6</ele>
        <time>2021-04-04T06:37:04Z</time>
      </trkpt>
      <trkpt lat="40.3540530" lon="-3.5340700">
        <ele>627.8</ele>
        <time>2021-04-04T06:37:05Z</time>
      </trkpt>
      <trkpt lat="40.3539920" lon="-3.5340270">
        <ele>627.8</ele>
        <time>2021-04-04T06:37:06Z</time>
      </trkpt>
      <trkpt lat="40.3539350" lon="-3.5339830">
        <ele>627.8</ele>
        <time>2021-04-04T06:37:07Z</time>
      </trkpt>
      <trkpt lat="40.3538780" lon="-3.5339380">
        <ele>628.0</ele>
        <time>2021-04-04T06:37:08Z</time>
      </trkpt>
      <trkpt lat="40.3538170" lon="-3.5338930">
        <ele>628.0</ele>
        <time>2021-04-04T06:37:09Z</time>
      </trkpt>
      <trkpt lat="40.3537600" lon="-3.5338490">
        <ele>628.0</ele>
        <time>2021-04-04T06:37:10Z</time>
      </trkpt>
      <trkpt lat="40.3537030" lon="-3.5338040">
        <ele>628.0</ele>
        <time>2021-04-04T06:37:11Z</time>
      </trkpt>
      <trkpt lat="40.3536450" lon="-3.5337580">
        <ele>628.0</ele>
        <time>2021-04-04T06:37:12Z</time>
      </trkpt>
      <trkpt lat="40.3535840" lon="-3.5337130">
        <ele>628.0</ele>
        <time>2021-04-04T06:37:13Z</time>
      </trkpt>
      <trkpt lat="40.3535270" lon="-3.5336670">
        <ele>628.0</ele>
        <time>2021-04-04T06:37:14Z</time>
      </trkpt>
      <trkpt lat="40.3534700" lon="-3.5336190">
        <ele>628.0</ele>
        <time>2021-04-04T06:37:15Z</time>
      </trkpt>
      <trkpt lat="40.3534090" lon="-3.5335710">
        <ele>628.0</ele>
        <time>2021-04-04T06:37:16Z</time>
      </trkpt>
      <trkpt lat="40.3533520" lon="-3.5335230">
        <ele>628.0</ele>
        <time>2021-04-04T06:37:17Z</time>
      </trkpt>
      <trkpt lat="40.3532940" lon="-3.5334740">
        <ele>628.0</ele>
        <time>2021-04-04T06:37:18Z</time>
      </trkpt>
      <trkpt lat="40.3532410" lon="-3.5334270">
        <ele>628.0</ele>
        <time>2021-04-04T06:37:19Z</time>
      </trkpt>
      <trkpt lat="40.3531840" lon="-3.5333790">
        <ele>628.0</ele>
        <time>2021-04-04T06:37:20Z</time>
      </trkpt>
      <trkpt lat="40.3531270" lon="-3.5333300">
        <ele>628.0</ele>
        <time>2021-04-04T06:37:21Z</time>
      </trkpt>
      <trkpt lat="40.3530730" lon="-3.5332800">
        <ele>628.0</ele>
        <time>2021-04-04T06:37:22Z</time>
      </trkpt>
      <trkpt lat="40.3530200" lon="-3.5332310">
        <ele>628.2</ele>
        <time>2021-04-04T06:37:23Z</time>
      </trkpt>
      <trkpt lat="40.3529620" lon="-3.5331810">
        <ele>628.0</ele>
        <time>2021-04-04T06:37:24Z</time>
      </trkpt>
      <trkpt lat="40.3529090" lon="-3.5331300">
        <ele>628.0</ele>
        <time>2021-04-04T06:37:25Z</time>
      </trkpt>
      <trkpt lat="40.3528590" lon="-3.5330770">
        <ele>628.2</ele>
        <time>2021-04-04T06:37:26Z</time>
      </trkpt>
      <trkpt lat="40.3528060" lon="-3.5330250">
        <ele>628.2</ele>
        <time>2021-04-04T06:37:27Z</time>
      </trkpt>
      <trkpt lat="40.3527490" lon="-3.5329720">
        <ele>628.2</ele>
        <time>2021-04-04T06:37:28Z</time>
      </trkpt>
      <trkpt lat="40.3526990" lon="-3.5329200">
        <ele>628.2</ele>
        <time>2021-04-04T06:37:29Z</time>
      </trkpt>
      <trkpt lat="40.3526420" lon="-3.5328680">
        <ele>628.4</ele>
        <time>2021-04-04T06:37:30Z</time>
      </trkpt>
      <trkpt lat="40.3525890" lon="-3.5328150">
        <ele>628.4</ele>
        <time>2021-04-04T06:37:31Z</time>
      </trkpt>
      <trkpt lat="40.3525310" lon="-3.5327620">
        <ele>628.4</ele>
        <time>2021-04-04T06:37:32Z</time>
      </trkpt>
      <trkpt lat="40.3524780" lon="-3.5327090">
        <ele>628.4</ele>
        <time>2021-04-04T06:37:33Z</time>
      </trkpt>
      <trkpt lat="40.3524280" lon="-3.5326560">
        <ele>628.4</ele>
        <time>2021-04-04T06:37:34Z</time>
      </trkpt>
      <trkpt lat="40.3523790" lon="-3.5326020">
        <ele>628.4</ele>
        <time>2021-04-04T06:37:35Z</time>
      </trkpt>
      <trkpt lat="40.3523290" lon="-3.5325460">
        <ele>628.4</ele>
        <time>2021-04-04T06:37:36Z</time>
      </trkpt>
      <trkpt lat="40.3522760" lon="-3.5324900">
        <ele>628.4</ele>
        <time>2021-04-04T06:37:37Z</time>
      </trkpt>
      <trkpt lat="40.3522220" lon="-3.5324340">
        <ele>628.2</ele>
        <time>2021-04-04T06:37:38Z</time>
      </trkpt>
      <trkpt lat="40.3521690" lon="-3.5323770">
        <ele>628.2</ele>
        <time>2021-04-04T06:37:39Z</time>
      </trkpt>
      <trkpt lat="40.3521190" lon="-3.5323190">
        <ele>628.2</ele>
        <time>2021-04-04T06:37:40Z</time>
      </trkpt>
      <trkpt lat="40.3520700" lon="-3.5322620">
        <ele>628.2</ele>
        <time>2021-04-04T06:37:41Z</time>
      </trkpt>
      <trkpt lat="40.3520200" lon="-3.5322060">
        <ele>628.2</ele>
        <time>2021-04-04T06:37:42Z</time>
      </trkpt>
      <trkpt lat="40.3519670" lon="-3.5321500">
        <ele>628.2</ele>
        <time>2021-04-04T06:37:43Z</time>
      </trkpt>
      <trkpt lat="40.3519170" lon="-3.5320970">
        <ele>628.2</ele>
        <time>2021-04-04T06:37:44Z</time>
      </trkpt>
      <trkpt lat="40.3518640" lon="-3.5320460">
        <ele>628.0</ele>
        <time>2021-04-04T06:37:45Z</time>
      </trkpt>
      <trkpt lat="40.3518070" lon="-3.5319990">
        <ele>628.0</ele>
        <time>2021-04-04T06:37:46Z</time>
      </trkpt>
      <trkpt lat="40.3517490" lon="-3.5319530">
        <ele>628.0</ele>
        <time>2021-04-04T06:37:47Z</time>
      </trkpt>
      <trkpt lat="40.3516960" lon="-3.5319030">
        <ele>627.8</ele>
        <time>2021-04-04T06:37:48Z</time>
      </trkpt>
      <trkpt lat="40.3516430" lon="-3.5318510">
        <ele>627.6</ele>
        <time>2021-04-04T06:37:49Z</time>
      </trkpt>
      <trkpt lat="40.3515890" lon="-3.5317930">
        <ele>627.6</ele>
        <time>2021-04-04T06:37:50Z</time>
      </trkpt>
      <trkpt lat="40.3515400" lon="-3.5317290">
        <ele>627.4</ele>
        <time>2021-04-04T06:37:51Z</time>
      </trkpt>
      <trkpt lat="40.3514940" lon="-3.5316600">
        <ele>627.4</ele>
        <time>2021-04-04T06:37:52Z</time>
      </trkpt>
      <trkpt lat="40.3514560" lon="-3.5315820">
        <ele>627.2</ele>
        <time>2021-04-04T06:37:53Z</time>
      </trkpt>
      <trkpt lat="40.3514210" lon="-3.5315020">
        <ele>627.0</ele>
        <time>2021-04-04T06:37:54Z</time>
      </trkpt>
      <trkpt lat="40.3513870" lon="-3.5314210">
        <ele>627.0</ele>
        <time>2021-04-04T06:37:55Z</time>
      </trkpt>
      <trkpt lat="40.3513530" lon="-3.5313420">
        <ele>626.8</ele>
        <time>2021-04-04T06:37:56Z</time>
      </trkpt>
      <trkpt lat="40.3513070" lon="-3.5312670">
        <ele>626.6</ele>
        <time>2021-04-04T06:37:57Z</time>
      </trkpt>
      <trkpt lat="40.3512650" lon="-3.5311940">
        <ele>626.6</ele>
        <time>2021-04-04T06:37:58Z</time>
      </trkpt>
      <trkpt lat="40.3512190" lon="-3.5311210">
        <ele>626.4</ele>
        <time>2021-04-04T06:37:59Z</time>
      </trkpt>
      <trkpt lat="40.3511700" lon="-3.5310470">
        <ele>626.2</ele>
        <time>2021-04-04T06:38:00Z</time>
      </trkpt>
      <trkpt lat="40.3511200" lon="-3.5309730">
        <ele>626.0</ele>
        <time>2021-04-04T06:38:01Z</time>
      </trkpt>
      <trkpt lat="40.3510670" lon="-3.5309000">
        <ele>625.8</ele>
        <time>2021-04-04T06:38:02Z</time>
      </trkpt>
      <trkpt lat="40.3510210" lon="-3.5308240">
        <ele>625.6</ele>
        <time>2021-04-04T06:38:03Z</time>
      </trkpt>
      <trkpt lat="40.3509710" lon="-3.5307440">
        <ele>625.4</ele>
        <time>2021-04-04T06:38:04Z</time>
      </trkpt>
      <trkpt lat="40.3509250" lon="-3.5306650">
        <ele>625.2</ele>
        <time>2021-04-04T06:38:05Z</time>
      </trkpt>
      <trkpt lat="40.3508760" lon="-3.5305860">
        <ele>624.8</ele>
        <time>2021-04-04T06:38:06Z</time>
      </trkpt>
      <trkpt lat="40.3508260" lon="-3.5305050">
        <ele>624.6</ele>
        <time>2021-04-04T06:38:07Z</time>
      </trkpt>
      <trkpt lat="40.3507840" lon="-3.5304230">
        <ele>624.4</ele>
        <time>2021-04-04T06:38:08Z</time>
      </trkpt>
      <trkpt lat="40.3507350" lon="-3.5303390">
        <ele>624.0</ele>
        <time>2021-04-04T06:38:09Z</time>
      </trkpt>
      <trkpt lat="40.3506890" lon="-3.5302540">
        <ele>623.8</ele>
        <time>2021-04-04T06:38:10Z</time>
      </trkpt>
      <trkpt lat="40.3506430" lon="-3.5301690">
        <ele>623.4</ele>
        <time>2021-04-04T06:38:11Z</time>
      </trkpt>
      <trkpt lat="40.3505970" lon="-3.5300810">
        <ele>623.0</ele>
        <time>2021-04-04T06:38:12Z</time>
      </trkpt>
      <trkpt lat="40.3505520" lon="-3.5299920">
        <ele>622.8</ele>
        <time>2021-04-04T06:38:13Z</time>
      </trkpt>
      <trkpt lat="40.3505060" lon="-3.5299040">
        <ele>622.4</ele>
        <time>2021-04-04T06:38:14Z</time>
      </trkpt>
      <trkpt lat="40.3504600" lon="-3.5298140">
        <ele>622.2</ele>
        <time>2021-04-04T06:38:15Z</time>
      </trkpt>
      <trkpt lat="40.3504180" lon="-3.5297220">
        <ele>621.8</ele>
        <time>2021-04-04T06:38:16Z</time>
      </trkpt>
      <trkpt lat="40.3503720" lon="-3.5296310">
        <ele>621.4</ele>
        <time>2021-04-04T06:38:17Z</time>
      </trkpt>
      <trkpt lat="40.3503300" lon="-3.5295400">
        <ele>621.2</ele>
        <time>2021-04-04T06:38:18Z</time>
      </trkpt>
      <trkpt lat="40.3502880" lon="-3.5294490">
        <ele>620.8</ele>
        <time>2021-04-04T06:38:19Z</time>
      </trkpt>
      <trkpt lat="40.3502430" lon="-3.5293550">
        <ele>620.6</ele>
        <time>2021-04-04T06:38:20Z</time>
      </trkpt>
      <trkpt lat="40.3501970" lon="-3.5292630">
        <ele>620.2</ele>
        <time>2021-04-04T06:38:21Z</time>
      </trkpt>
      <trkpt lat="40.3501510" lon="-3.5291680">
        <ele>620.0</ele>
        <time>2021-04-04T06:38:22Z</time>
      </trkpt>
      <trkpt lat="40.3501090" lon="-3.5290720">
        <ele>619.6</ele>
        <time>2021-04-04T06:38:23Z</time>
      </trkpt>
      <trkpt lat="40.3500670" lon="-3.5289740">
        <ele>619.4</ele>
        <time>2021-04-04T06:38:24Z</time>
      </trkpt>
      <trkpt lat="40.3500290" lon="-3.5288750">
        <ele>619.0</ele>
        <time>2021-04-04T06:38:25Z</time>
      </trkpt>
      <trkpt lat="40.3499870" lon="-3.5287770">
        <ele>618.8</ele>
        <time>2021-04-04T06:38:26Z</time>
      </trkpt>
      <trkpt lat="40.3499490" lon="-3.5286780">
        <ele>618.4</ele>
        <time>2021-04-04T06:38:27Z</time>
      </trkpt>
      <trkpt lat="40.3499070" lon="-3.5285800">
        <ele>618.2</ele>
        <time>2021-04-04T06:38:28Z</time>
      </trkpt>
      <trkpt lat="40.3498690" lon="-3.5284830">
        <ele>617.8</ele>
        <time>2021-04-04T06:38:29Z</time>
      </trkpt>
      <trkpt lat="40.3498310" lon="-3.5283880">
        <ele>617.6</ele>
        <time>2021-04-04T06:38:30Z</time>
      </trkpt>
      <trkpt lat="40.3497920" lon="-3.5282930">
        <ele>617.4</ele>
        <time>2021-04-04T06:38:31Z</time>
      </trkpt>
      <trkpt lat="40.3497540" lon="-3.5282000">
        <ele>617.2</ele>
        <time>2021-04-04T06:38:32Z</time>
      </trkpt>
      <trkpt lat="40.3497160" lon="-3.5281050">
        <ele>617.0</ele>
        <time>2021-04-04T06:38:33Z</time>
      </trkpt>
      <trkpt lat="40.3496780" lon="-3.5280150">
        <ele>616.8</ele>
        <time>2021-04-04T06:38:34Z</time>
      </trkpt>
      <trkpt lat="40.3496400" lon="-3.5279240">
        <ele>616.6</ele>
        <time>2021-04-04T06:38:35Z</time>
      </trkpt>
      <trkpt lat="40.3496020" lon="-3.5278350">
        <ele>616.4</ele>
        <time>2021-04-04T06:38:36Z</time>
      </trkpt>
      <trkpt lat="40.3495600" lon="-3.5277490">
        <ele>616.2</ele>
        <time>2021-04-04T06:38:37Z</time>
      </trkpt>
      <trkpt lat="40.3495140" lon="-3.5276700">
        <ele>616.0</ele>
        <time>2021-04-04T06:38:38Z</time>
      </trkpt>
      <trkpt lat="40.3494570" lon="-3.5275970">
        <ele>615.8</ele>
        <time>2021-04-04T06:38:39Z</time>
      </trkpt>
      <trkpt lat="40.3494030" lon="-3.5275250">
        <ele>615.6</ele>
        <time>2021-04-04T06:38:40Z</time>
      </trkpt>
      <trkpt lat="40.3493500" lon="-3.5274480">
        <ele>615.4</ele>
        <time>2021-04-04T06:38:41Z</time>
      </trkpt>
      <trkpt lat="40.3493120" lon="-3.5273600">
        <ele>615.2</ele>
        <time>2021-04-04T06:38:42Z</time>
      </trkpt>
      <trkpt lat="40.3492770" lon="-3.5272670">
        <ele>615.0</ele>
        <time>2021-04-04T06:38:43Z</time>
      </trkpt>
      <trkpt lat="40.3492550" lon="-3.5271690">
        <ele>614.8</ele>
        <time>2021-04-04T06:38:44Z</time>
      </trkpt>
      <trkpt lat="40.3492360" lon="-3.5270690">
        <ele>614.6</ele>
        <time>2021-04-04T06:38:45Z</time>
      </trkpt>
      <trkpt lat="40.3492160" lon="-3.5269740">
        <ele>614.6</ele>
        <time>2021-04-04T06:38:46Z</time>
      </trkpt>
      <trkpt lat="40.3491940" lon="-3.5268820">
        <ele>614.4</ele>
        <time>2021-04-04T06:38:47Z</time>
      </trkpt>
      <trkpt lat="40.3491630" lon="-3.5267950">
        <ele>614.4</ele>
        <time>2021-04-04T06:38:48Z</time>
      </trkpt>
      <trkpt lat="40.3491210" lon="-3.5267110">
        <ele>614.2</ele>
        <time>2021-04-04T06:38:49Z</time>
      </trkpt>
      <trkpt lat="40.3490790" lon="-3.5266260">
        <ele>614.2</ele>
        <time>2021-04-04T06:38:50Z</time>
      </trkpt>
      <trkpt lat="40.3490370" lon="-3.5265400">
        <ele>614.0</ele>
        <time>2021-04-04T06:38:51Z</time>
      </trkpt>
      <trkpt lat="40.3489990" lon="-3.5264530">
        <ele>613.8</ele>
        <time>2021-04-04T06:38:52Z</time>
      </trkpt>
      <trkpt lat="40.3489570" lon="-3.5263650">
        <ele>613.6</ele>
        <time>2021-04-04T06:38:53Z</time>
      </trkpt>
      <trkpt lat="40.3489110" lon="-3.5262760">
        <ele>613.4</ele>
        <time>2021-04-04T06:38:54Z</time>
      </trkpt>
      <trkpt lat="40.3488660" lon="-3.5261880">
        <ele>613.4</ele>
        <time>2021-04-04T06:38:55Z</time>
      </trkpt>
      <trkpt lat="40.3488200" lon="-3.5261030">
        <ele>613.2</ele>
        <time>2021-04-04T06:38:56Z</time>
      </trkpt>
      <trkpt lat="40.3487780" lon="-3.5260170">
        <ele>613.2</ele>
        <time>2021-04-04T06:38:57Z</time>
      </trkpt>
      <trkpt lat="40.3487400" lon="-3.5259330">
        <ele>613.0</ele>
        <time>2021-04-04T06:38:58Z</time>
      </trkpt>
      <trkpt lat="40.3487010" lon="-3.5258510">
        <ele>613.0</ele>
        <time>2021-04-04T06:38:59Z</time>
      </trkpt>
      <trkpt lat="40.3486560" lon="-3.5257720">
        <ele>613.0</ele>
        <time>2021-04-04T06:39:00Z</time>
      </trkpt>
      <trkpt lat="40.3486140" lon="-3.5256930">
        <ele>613.0</ele>
        <time>2021-04-04T06:39:01Z</time>
      </trkpt>
      <trkpt lat="40.3485720" lon="-3.5256150">
        <ele>613.0</ele>
        <time>2021-04-04T06:39:02Z</time>
      </trkpt>
      <trkpt lat="40.3485260" lon="-3.5255350">
        <ele>613.0</ele>
        <time>2021-04-04T06:39:03Z</time>
      </trkpt>
      <trkpt lat="40.3484800" lon="-3.5254550">
        <ele>612.8</ele>
        <time>2021-04-04T06:39:04Z</time>
      </trkpt>
      <trkpt lat="40.3484340" lon="-3.5253770">
        <ele>612.6</ele>
        <time>2021-04-04T06:39:05Z</time>
      </trkpt>
      <trkpt lat="40.3483850" lon="-3.5252980">
        <ele>612.6</ele>
        <time>2021-04-04T06:39:06Z</time>
      </trkpt>
      <trkpt lat="40.3483390" lon="-3.5252190">
        <ele>612.2</ele>
        <time>2021-04-04T06:39:07Z</time>
      </trkpt>
      <trkpt lat="40.3482890" lon="-3.5251400">
        <ele>612.0</ele>
        <time>2021-04-04T06:39:08Z</time>
      </trkpt>
      <trkpt lat="40.3482360" lon="-3.5250600">
        <ele>611.8</ele>
        <time>2021-04-04T06:39:09Z</time>
      </trkpt>
      <trkpt lat="40.3481860" lon="-3.5249790">
        <ele>611.4</ele>
        <time>2021-04-04T06:39:10Z</time>
      </trkpt>
      <trkpt lat="40.3481330" lon="-3.5248990">
        <ele>611.0</ele>
        <time>2021-04-04T06:39:11Z</time>
      </trkpt>
      <trkpt lat="40.3480760" lon="-3.5248150">
        <ele>610.6</ele>
        <time>2021-04-04T06:39:12Z</time>
      </trkpt>
      <trkpt lat="40.3480190" lon="-3.5247300">
        <ele>610.2</ele>
        <time>2021-04-04T06:39:13Z</time>
      </trkpt>
      <trkpt lat="40.3479610" lon="-3.5246440">
        <ele>609.6</ele>
        <time>2021-04-04T06:39:14Z</time>
      </trkpt>
      <trkpt lat="40.3478970" lon="-3.5245550">
        <ele>609.2</ele>
        <time>2021-04-04T06:39:15Z</time>
      </trkpt>
      <trkpt lat="40.3478360" lon="-3.5244660">
        <ele>608.6</ele>
        <time>2021-04-04T06:39:16Z</time>
      </trkpt>
      <trkpt lat="40.3477710" lon="-3.5243770">
        <ele>608.2</ele>
        <time>2021-04-04T06:39:17Z</time>
      </trkpt>
      <trkpt lat="40.3477020" lon="-3.5242900">
        <ele>607.6</ele>
        <time>2021-04-04T06:39:18Z</time>
      </trkpt>
      <trkpt lat="40.3476330" lon="-3.5242040">
        <ele>607.2</ele>
        <time>2021-04-04T06:39:19Z</time>
      </trkpt>
      <trkpt lat="40.3475680" lon="-3.5241160">
        <ele>606.6</ele>
        <time>2021-04-04T06:39:20Z</time>
      </trkpt>
      <trkpt lat="40.3475040" lon="-3.5240290">
        <ele>606.0</ele>
        <time>2021-04-04T06:39:21Z</time>
      </trkpt>
      <trkpt lat="40.3474310" lon="-3.5239440">
        <ele>605.6</ele>
        <time>2021-04-04T06:39:22Z</time>
      </trkpt>
      <trkpt lat="40.3473630" lon="-3.5238570">
        <ele>605.0</ele>
        <time>2021-04-04T06:39:23Z</time>
      </trkpt>
      <trkpt lat="40.3472860" lon="-3.5237820">
        <ele>604.4</ele>
        <time>2021-04-04T06:39:24Z</time>
      </trkpt>
      <trkpt lat="40.3471990" lon="-3.5237220">
        <ele>604.0</ele>
        <time>2021-04-04T06:39:25Z</time>
      </trkpt>
      <trkpt lat="40.3471150" lon="-3.5236700">
        <ele>603.6</ele>
        <time>2021-04-04T06:39:26Z</time>
      </trkpt>
      <trkpt lat="40.3470310" lon="-3.5235990">
        <ele>603.2</ele>
        <time>2021-04-04T06:39:27Z</time>
      </trkpt>
      <trkpt lat="40.3469700" lon="-3.5235010">
        <ele>602.6</ele>
        <time>2021-04-04T06:39:28Z</time>
      </trkpt>
      <trkpt lat="40.3469240" lon="-3.5233930">
        <ele>602.2</ele>
        <time>2021-04-04T06:39:29Z</time>
      </trkpt>
      <trkpt lat="40.3468670" lon="-3.5232930">
        <ele>601.6</ele>
        <time>2021-04-04T06:39:30Z</time>
      </trkpt>
      <trkpt lat="40.3467870" lon="-3.5232130">
        <ele>601.2</ele>
        <time>2021-04-04T06:39:31Z</time>
      </trkpt>
      <trkpt lat="40.3467060" lon="-3.5231400">
        <ele>600.6</ele>
        <time>2021-04-04T06:39:32Z</time>
      </trkpt>
      <trkpt lat="40.3466300" lon="-3.5230620">
        <ele>600.2</ele>
        <time>2021-04-04T06:39:33Z</time>
      </trkpt>
      <trkpt lat="40.3465460" lon="-3.5229900">
        <ele>599.4</ele>
        <time>2021-04-04T06:39:34Z</time>
      </trkpt>
      <trkpt lat="40.3464580" lon="-3.5229220">
        <ele>598.8</ele>
        <time>2021-04-04T06:39:35Z</time>
      </trkpt>
      <trkpt lat="40.3463900" lon="-3.5228330">
        <ele>598.2</ele>
        <time>2021-04-04T06:39:36Z</time>
      </trkpt>
      <trkpt lat="40.3463130" lon="-3.5227430">
        <ele>597.6</ele>
        <time>2021-04-04T06:39:37Z</time>
      </trkpt>
      <trkpt lat="40.3462260" lon="-3.5226750">
        <ele>597.0</ele>
        <time>2021-04-04T06:39:38Z</time>
      </trkpt>
      <trkpt lat="40.3461270" lon="-3.5226000">
        <ele>596.6</ele>
        <time>2021-04-04T06:39:39Z</time>
      </trkpt>
      <trkpt lat="40.3460240" lon="-3.5224920">
        <ele>596.2</ele>
        <time>2021-04-04T06:39:40Z</time>
      </trkpt>
      <trkpt lat="40.3459360" lon="-3.5224300">
        <ele>595.8</ele>
        <time>2021-04-04T06:39:41Z</time>
      </trkpt>
      <trkpt lat="40.3458630" lon="-3.5223880">
        <ele>595.6</ele>
        <time>2021-04-04T06:39:42Z</time>
      </trkpt>
      <trkpt lat="40.3458060" lon="-3.5223240">
        <ele>595.4</ele>
        <time>2021-04-04T06:39:43Z</time>
      </trkpt>
      <trkpt lat="40.3457450" lon="-3.5222570">
        <ele>595.4</ele>
        <time>2021-04-04T06:39:44Z</time>
      </trkpt>
      <trkpt lat="40.3456730" lon="-3.5221940">
        <ele>595.4</ele>
        <time>2021-04-04T06:39:45Z</time>
      </trkpt>
      <trkpt lat="40.3456080" lon="-3.5221380">
        <ele>595.4</ele>
        <time>2021-04-04T06:39:46Z</time>
      </trkpt>
      <trkpt lat="40.3455430" lon="-3.5220850">
        <ele>595.4</ele>
        <time>2021-04-04T06:39:47Z</time>
      </trkpt>
      <trkpt lat="40.3454820" lon="-3.5220360">
        <ele>595.4</ele>
        <time>2021-04-04T06:39:48Z</time>
      </trkpt>
      <trkpt lat="40.3454210" lon="-3.5219860">
        <ele>595.4</ele>
        <time>2021-04-04T06:39:49Z</time>
      </trkpt>
      <trkpt lat="40.3453520" lon="-3.5219360">
        <ele>595.6</ele>
        <time>2021-04-04T06:39:50Z</time>
      </trkpt>
      <trkpt lat="40.3452870" lon="-3.5218890">
        <ele>595.6</ele>
        <time>2021-04-04T06:39:51Z</time>
      </trkpt>
      <trkpt lat="40.3452220" lon="-3.5218440">
        <ele>595.6</ele>
        <time>2021-04-04T06:39:52Z</time>
      </trkpt>
      <trkpt lat="40.3451610" lon="-3.5218010">
        <ele>595.6</ele>
        <time>2021-04-04T06:39:53Z</time>
      </trkpt>
      <trkpt lat="40.3450970" lon="-3.5217560">
        <ele>595.8</ele>
        <time>2021-04-04T06:39:54Z</time>
      </trkpt>
      <trkpt lat="40.3450360" lon="-3.5217090">
        <ele>595.8</ele>
        <time>2021-04-04T06:39:55Z</time>
      </trkpt>
      <trkpt lat="40.3449750" lon="-3.5216620">
        <ele>595.8</ele>
        <time>2021-04-04T06:39:56Z</time>
      </trkpt>
      <trkpt lat="40.3449140" lon="-3.5216120">
        <ele>596.0</ele>
        <time>2021-04-04T06:39:57Z</time>
      </trkpt>
      <trkpt lat="40.3448520" lon="-3.5215630">
        <ele>596.2</ele>
        <time>2021-04-04T06:39:58Z</time>
      </trkpt>
      <trkpt lat="40.3447910" lon="-3.5215160">
        <ele>596.2</ele>
        <time>2021-04-04T06:39:59Z</time>
      </trkpt>
      <trkpt lat="40.3447270" lon="-3.5214720">
        <ele>596.4</ele>
        <time>2021-04-04T06:40:00Z</time>
      </trkpt>
      <trkpt lat="40.3446650" lon="-3.5214290">
        <ele>596.4</ele>
        <time>2021-04-04T06:40:01Z</time>
      </trkpt>
      <trkpt lat="40.3446040" lon="-3.5213890">
        <ele>596.6</ele>
        <time>2021-04-04T06:40:02Z</time>
      </trkpt>
      <trkpt lat="40.3445430" lon="-3.5213510">
        <ele>596.6</ele>
        <time>2021-04-04T06:40:03Z</time>
      </trkpt>
      <trkpt lat="40.3444750" lon="-3.5213090">
        <ele>596.6</ele>
        <time>2021-04-04T06:40:04Z</time>
      </trkpt>
      <trkpt lat="40.3444020" lon="-3.5212650">
        <ele>596.8</ele>
        <time>2021-04-04T06:40:05Z</time>
      </trkpt>
      <trkpt lat="40.3443300" lon="-3.5212260">
        <ele>596.8</ele>
        <time>2021-04-04T06:40:06Z</time>
      </trkpt>
      <trkpt lat="40.3442650" lon="-3.5211900">
        <ele>597.0</ele>
        <time>2021-04-04T06:40:07Z</time>
      </trkpt>
      <trkpt lat="40.3441930" lon="-3.5211530">
        <ele>597.2</ele>
        <time>2021-04-04T06:40:08Z</time>
      </trkpt>
      <trkpt lat="40.3441200" lon="-3.5211180">
        <ele>597.2</ele>
        <time>2021-04-04T06:40:09Z</time>
      </trkpt>
      <trkpt lat="40.3440550" lon="-3.5210850">
        <ele>597.2</ele>
        <time>2021-04-04T06:40:10Z</time>
      </trkpt>
      <trkpt lat="40.3439900" lon="-3.5210500">
        <ele>597.2</ele>
        <time>2021-04-04T06:40:11Z</time>
      </trkpt>
      <trkpt lat="40.3439290" lon="-3.5210140">
        <ele>597.4</ele>
        <time>2021-04-04T06:40:12Z</time>
      </trkpt>
      <trkpt lat="40.3438680" lon="-3.5209780">
        <ele>597.4</ele>
        <time>2021-04-04T06:40:13Z</time>
      </trkpt>
      <trkpt lat="40.3438070" lon="-3.5209400">
        <ele>597.4</ele>
        <time>2021-04-04T06:40:14Z</time>
      </trkpt>
      <trkpt lat="40.3437390" lon="-3.5209050">
        <ele>597.6</ele>
        <time>2021-04-04T06:40:15Z</time>
      </trkpt>
      <trkpt lat="40.3436740" lon="-3.5208700">
        <ele>597.8</ele>
        <time>2021-04-04T06:40:16Z</time>
      </trkpt>
      <trkpt lat="40.3436130" lon="-3.5208360">
        <ele>597.8</ele>
        <time>2021-04-04T06:40:17Z</time>
      </trkpt>
      <trkpt lat="40.3435480" lon="-3.5208000">
        <ele>598.0</ele>
        <time>2021-04-04T06:40:18Z</time>
      </trkpt>
      <trkpt lat="40.3434830" lon="-3.5207580">
        <ele>598.0</ele>
        <time>2021-04-04T06:40:19Z</time>
      </trkpt>
      <trkpt lat="40.3434220" lon="-3.5207120">
        <ele>598.2</ele>
        <time>2021-04-04T06:40:20Z</time>
      </trkpt>
      <trkpt lat="40.3433610" lon="-3.5206680">
        <ele>598.2</ele>
        <time>2021-04-04T06:40:21Z</time>
      </trkpt>
      <trkpt lat="40.3433040" lon="-3.5206280">
        <ele>598.2</ele>
        <time>2021-04-04T06:40:22Z</time>
      </trkpt>
      <trkpt lat="40.3432460" lon="-3.5205860">
        <ele>598.2</ele>
        <time>2021-04-04T06:40:23Z</time>
      </trkpt>
      <trkpt lat="40.3431850" lon="-3.5205430">
        <ele>598.2</ele>
        <time>2021-04-04T06:40:24Z</time>
      </trkpt>
      <trkpt lat="40.3431170" lon="-3.5205100">
        <ele>598.2</ele>
        <time>2021-04-04T06:40:25Z</time>
      </trkpt>
      <trkpt lat="40.3430560" lon="-3.5204820">
        <ele>598.2</ele>
        <time>2021-04-04T06:40:26Z</time>
      </trkpt>
      <trkpt lat="40.3429910" lon="-3.5204580">
        <ele>598.0</ele>
        <time>2021-04-04T06:40:27Z</time>
      </trkpt>
      <trkpt lat="40.3429110" lon="-3.5204440">
        <ele>598.0</ele>
        <time>2021-04-04T06:40:28Z</time>
      </trkpt>
      <trkpt lat="40.3428270" lon="-3.5204370">
        <ele>597.8</ele>
        <time>2021-04-04T06:40:29Z</time>
      </trkpt>
      <trkpt lat="40.3427510" lon="-3.5204250">
        <ele>597.6</ele>
        <time>2021-04-04T06:40:30Z</time>
      </trkpt>
      <trkpt lat="40.3426780" lon="-3.5203910">
        <ele>597.4</ele>
        <time>2021-04-04T06:40:31Z</time>
      </trkpt>
      <trkpt lat="40.3426170" lon="-3.5203440">
        <ele>597.2</ele>
        <time>2021-04-04T06:40:32Z</time>
      </trkpt>
      <trkpt lat="40.3425600" lon="-3.5202890">
        <ele>597.2</ele>
        <time>2021-04-04T06:40:33Z</time>
      </trkpt>
      <trkpt lat="40.3425060" lon="-3.5202350">
        <ele>597.0</ele>
        <time>2021-04-04T06:40:34Z</time>
      </trkpt>
      <trkpt lat="40.3424640" lon="-3.5201910">
        <ele>596.8</ele>
        <time>2021-04-04T06:40:35Z</time>
      </trkpt>
      <trkpt lat="40.3424190" lon="-3.5201410">
        <ele>596.8</ele>
        <time>2021-04-04T06:40:36Z</time>
      </trkpt>
      <trkpt lat="40.3423650" lon="-3.5200920">
        <ele>596.8</ele>
        <time>2021-04-04T06:40:37Z</time>
      </trkpt>
      <trkpt lat="40.3423040" lon="-3.5200530">
        <ele>596.8</ele>
        <time>2021-04-04T06:40:38Z</time>
      </trkpt>
      <trkpt lat="40.3422360" lon="-3.5200150">
        <ele>596.6</ele>
        <time>2021-04-04T06:40:39Z</time>
      </trkpt>
      <trkpt lat="40.3421710" lon="-3.5199830">
        <ele>596.2</ele>
        <time>2021-04-04T06:40:40Z</time>
      </trkpt>
      <trkpt lat="40.3420980" lon="-3.5199510">
        <ele>596.0</ele>
        <time>2021-04-04T06:40:41Z</time>
      </trkpt>
      <trkpt lat="40.3420260" lon="-3.5199160">
        <ele>595.8</ele>
        <time>2021-04-04T06:40:42Z</time>
      </trkpt>
      <trkpt lat="40.3419530" lon="-3.5198770">
        <ele>595.6</ele>
        <time>2021-04-04T06:40:43Z</time>
      </trkpt>
      <trkpt lat="40.3418810" lon="-3.5198400">
        <ele>595.4</ele>
        <time>2021-04-04T06:40:44Z</time>
      </trkpt>
      <trkpt lat="40.3418120" lon="-3.5197980">
        <ele>595.0</ele>
        <time>2021-04-04T06:40:45Z</time>
      </trkpt>
      <trkpt lat="40.3417320" lon="-3.5197540">
        <ele>594.8</ele>
        <time>2021-04-04T06:40:46Z</time>
      </trkpt>
      <trkpt lat="40.3416440" lon="-3.5197070">
        <ele>594.6</ele>
        <time>2021-04-04T06:40:47Z</time>
      </trkpt>
      <trkpt lat="40.3415640" lon="-3.5196570">
        <ele>594.2</ele>
        <time>2021-04-04T06:40:48Z</time>
      </trkpt>
      <trkpt lat="40.3414840" lon="-3.5196100">
        <ele>594.0</ele>
        <time>2021-04-04T06:40:49Z</time>
      </trkpt>
      <trkpt lat="40.3414040" lon="-3.5195680">
        <ele>593.8</ele>
        <time>2021-04-04T06:40:50Z</time>
      </trkpt>
      <trkpt lat="40.3413200" lon="-3.5195250">
        <ele>593.4</ele>
        <time>2021-04-04T06:40:51Z</time>
      </trkpt>
      <trkpt lat="40.3412400" lon="-3.5194800">
        <ele>593.2</ele>
        <time>2021-04-04T06:40:52Z</time>
      </trkpt>
      <trkpt lat="40.3411600" lon="-3.5194350">
        <ele>592.8</ele>
        <time>2021-04-04T06:40:53Z</time>
      </trkpt>
      <trkpt lat="40.3410800" lon="-3.5193910">
        <ele>592.6</ele>
        <time>2021-04-04T06:40:54Z</time>
      </trkpt>
      <trkpt lat="40.3410030" lon="-3.5193460">
        <ele>592.4</ele>
        <time>2021-04-04T06:40:55Z</time>
      </trkpt>
      <trkpt lat="40.3409230" lon="-3.5193030">
        <ele>592.0</ele>
        <time>2021-04-04T06:40:56Z</time>
      </trkpt>
      <trkpt lat="40.3408510" lon="-3.5192610">
        <ele>591.8</ele>
        <time>2021-04-04T06:40:57Z</time>
      </trkpt>
      <trkpt lat="40.3407780" lon="-3.5192230">
        <ele>591.6</ele>
        <time>2021-04-04T06:40:58Z</time>
      </trkpt>
      <trkpt lat="40.3407060" lon="-3.5191910">
        <ele>591.4</ele>
        <time>2021-04-04T06:40:59Z</time>
      </trkpt>
      <trkpt lat="40.3406330" lon="-3.5191610">
        <ele>591.2</ele>
        <time>2021-04-04T06:41:00Z</time>
      </trkpt>
      <trkpt lat="40.3405610" lon="-3.5191380">
        <ele>591.0</ele>
        <time>2021-04-04T06:41:01Z</time>
      </trkpt>
      <trkpt lat="40.3404920" lon="-3.5191160">
        <ele>590.8</ele>
        <time>2021-04-04T06:41:02Z</time>
      </trkpt>
      <trkpt lat="40.3404200" lon="-3.5190770">
        <ele>590.6</ele>
        <time>2021-04-04T06:41:03Z</time>
      </trkpt>
      <trkpt lat="40.3403470" lon="-3.5190350">
        <ele>590.4</ele>
        <time>2021-04-04T06:41:04Z</time>
      </trkpt>
      <trkpt lat="40.3402790" lon="-3.5190000">
        <ele>590.2</ele>
        <time>2021-04-04T06:41:05Z</time>
      </trkpt>
      <trkpt lat="40.3402180" lon="-3.5189760">
        <ele>590.2</ele>
        <time>2021-04-04T06:41:06Z</time>
      </trkpt>
      <trkpt lat="40.3401530" lon="-3.5189550">
        <ele>590.0</ele>
        <time>2021-04-04T06:41:07Z</time>
      </trkpt>
      <trkpt lat="40.3400840" lon="-3.5189300">
        <ele>589.6</ele>
        <time>2021-04-04T06:41:08Z</time>
      </trkpt>
      <trkpt lat="40.3400150" lon="-3.5189040">
        <ele>589.4</ele>
        <time>2021-04-04T06:41:09Z</time>
      </trkpt>
      <trkpt lat="40.3399430" lon="-3.5188740">
        <ele>589.2</ele>
        <time>2021-04-04T06:41:10Z</time>
      </trkpt>
      <trkpt lat="40.3398700" lon="-3.5188400">
        <ele>589.0</ele>
        <time>2021-04-04T06:41:11Z</time>
      </trkpt>
      <trkpt lat="40.3397980" lon="-3.5188020">
        <ele>588.8</ele>
        <time>2021-04-04T06:41:12Z</time>
      </trkpt>
      <trkpt lat="40.3397250" lon="-3.5187620">
        <ele>588.6</ele>
        <time>2021-04-04T06:41:13Z</time>
      </trkpt>
      <trkpt lat="40.3396530" lon="-3.5187210">
        <ele>588.4</ele>
        <time>2021-04-04T06:41:14Z</time>
      </trkpt>
      <trkpt lat="40.3395810" lon="-3.5186820">
        <ele>588.2</ele>
        <time>2021-04-04T06:41:15Z</time>
      </trkpt>
      <trkpt lat="40.3395080" lon="-3.5186430">
        <ele>588.2</ele>
        <time>2021-04-04T06:41:16Z</time>
      </trkpt>
      <trkpt lat="40.3394360" lon="-3.5186020">
        <ele>588.0</ele>
        <time>2021-04-04T06:41:17Z</time>
      </trkpt>
      <trkpt lat="40.3393630" lon="-3.5185600">
        <ele>587.8</ele>
        <time>2021-04-04T06:41:18Z</time>
      </trkpt>
      <trkpt lat="40.3392940" lon="-3.5185200">
        <ele>587.6</ele>
        <time>2021-04-04T06:41:19Z</time>
      </trkpt>
      <trkpt lat="40.3392220" lon="-3.5184790">
        <ele>587.4</ele>
        <time>2021-04-04T06:41:20Z</time>
      </trkpt>
      <trkpt lat="40.3391530" lon="-3.5184380">
        <ele>587.4</ele>
        <time>2021-04-04T06:41:21Z</time>
      </trkpt>
      <trkpt lat="40.3390850" lon="-3.5183980">
        <ele>587.2</ele>
        <time>2021-04-04T06:41:22Z</time>
      </trkpt>
      <trkpt lat="40.3390120" lon="-3.5183610">
        <ele>587.0</ele>
        <time>2021-04-04T06:41:23Z</time>
      </trkpt>
      <trkpt lat="40.3389440" lon="-3.5183260">
        <ele>587.0</ele>
        <time>2021-04-04T06:41:24Z</time>
      </trkpt>
      <trkpt lat="40.3388790" lon="-3.5182890">
        <ele>586.8</ele>
        <time>2021-04-04T06:41:25Z</time>
      </trkpt>
      <trkpt lat="40.3388100" lon="-3.5182510">
        <ele>586.8</ele>
        <time>2021-04-04T06:41:26Z</time>
      </trkpt>
      <trkpt lat="40.3387450" lon="-3.5182140">
        <ele>586.6</ele>
        <time>2021-04-04T06:41:27Z</time>
      </trkpt>
      <trkpt lat="40.3386760" lon="-3.5181790">
        <ele>586.4</ele>
        <time>2021-04-04T06:41:28Z</time>
      </trkpt>
      <trkpt lat="40.3386080" lon="-3.5181460">
        <ele>586.4</ele>
        <time>2021-04-04T06:41:29Z</time>
      </trkpt>
      <trkpt lat="40.3385390" lon="-3.5181130">
        <ele>586.2</ele>
        <time>2021-04-04T06:41:30Z</time>
      </trkpt>
      <trkpt lat="40.3384700" lon="-3.5180780">
        <ele>586.0</ele>
        <time>2021-04-04T06:41:31Z</time>
      </trkpt>
      <trkpt lat="40.3384020" lon="-3.5180420">
        <ele>585.8</ele>
        <time>2021-04-04T06:41:32Z</time>
      </trkpt>
      <trkpt lat="40.3383290" lon="-3.5180060">
        <ele>585.8</ele>
        <time>2021-04-04T06:41:33Z</time>
      </trkpt>
      <trkpt lat="40.3382570" lon="-3.5179710">
        <ele>585.6</ele>
        <time>2021-04-04T06:41:34Z</time>
      </trkpt>
      <trkpt lat="40.3381880" lon="-3.5179350">
        <ele>585.6</ele>
        <time>2021-04-04T06:41:35Z</time>
      </trkpt>
      <trkpt lat="40.3381160" lon="-3.5179000">
        <ele>585.4</ele>
        <time>2021-04-04T06:41:36Z</time>
      </trkpt>
      <trkpt lat="40.3380430" lon="-3.5178640">
        <ele>585.2</ele>
        <time>2021-04-04T06:41:37Z</time>
      </trkpt>
      <trkpt lat="40.3379710" lon="-3.5178300">
        <ele>585.2</ele>
        <time>2021-04-04T06:41:38Z</time>
      </trkpt>
      <trkpt lat="40.3378980" lon="-3.5177980">
        <ele>585.0</ele>
        <time>2021-04-04T06:41:39Z</time>
      </trkpt>
      <trkpt lat="40.3378300" lon="-3.5177650">
        <ele>585.0</ele>
        <time>2021-04-04T06:41:40Z</time>
      </trkpt>
      <trkpt lat="40.3377610" lon="-3.5177290">
        <ele>584.8</ele>
        <time>2021-04-04T06:41:41Z</time>
      </trkpt>
      <trkpt lat="40.3376960" lon="-3.5176930">
        <ele>584.6</ele>
        <time>2021-04-04T06:41:42Z</time>
      </trkpt>
      <trkpt lat="40.3376310" lon="-3.5176590">
        <ele>584.6</ele>
        <time>2021-04-04T06:41:43Z</time>
      </trkpt>
      <trkpt lat="40.3375630" lon="-3.5176280">
        <ele>584.4</ele>
        <time>2021-04-04T06:41:44Z</time>
      </trkpt>
      <trkpt lat="40.3374980" lon="-3.5175970">
        <ele>584.4</ele>
        <time>2021-04-04T06:41:45Z</time>
      </trkpt>
      <trkpt lat="40.3374290" lon="-3.5175600">
        <ele>584.2</ele>
        <time>2021-04-04T06:41:46Z</time>
      </trkpt>
      <trkpt lat="40.3373680" lon="-3.5175190">
        <ele>584.0</ele>
        <time>2021-04-04T06:41:47Z</time>
      </trkpt>
      <trkpt lat="40.3373030" lon="-3.5174770">
        <ele>584.0</ele>
        <time>2021-04-04T06:41:48Z</time>
      </trkpt>
      <trkpt lat="40.3372380" lon="-3.5174370">
        <ele>583.8</ele>
        <time>2021-04-04T06:41:49Z</time>
      </trkpt>
      <trkpt lat="40.3371740" lon="-3.5174000">
        <ele>583.8</ele>
        <time>2021-04-04T06:41:50Z</time>
      </trkpt>
      <trkpt lat="40.3371050" lon="-3.5173620">
        <ele>583.6</ele>
        <time>2021-04-04T06:41:51Z</time>
      </trkpt>
      <trkpt lat="40.3370400" lon="-3.5173240">
        <ele>583.6</ele>
        <time>2021-04-04T06:41:52Z</time>
      </trkpt>
      <trkpt lat="40.3369750" lon="-3.5172870">
        <ele>583.4</ele>
        <time>2021-04-04T06:41:53Z</time>
      </trkpt>
      <trkpt lat="40.3369060" lon="-3.5172490">
        <ele>583.2</ele>
        <time>2021-04-04T06:41:54Z</time>
      </trkpt>
      <trkpt lat="40.3368380" lon="-3.5172120">
        <ele>583.0</ele>
        <time>2021-04-04T06:41:55Z</time>
      </trkpt>
      <trkpt lat="40.3367730" lon="-3.5171750">
        <ele>583.0</ele>
        <time>2021-04-04T06:41:56Z</time>
      </trkpt>
      <trkpt lat="40.3367040" lon="-3.5171370">
        <ele>582.8</ele>
        <time>2021-04-04T06:41:57Z</time>
      </trkpt>
      <trkpt lat="40.3366320" lon="-3.5171000">
        <ele>582.8</ele>
        <time>2021-04-04T06:41:58Z</time>
      </trkpt>
      <trkpt lat="40.3365630" lon="-3.5170630">
        <ele>582.6</ele>
        <time>2021-04-04T06:41:59Z</time>
      </trkpt>
      <trkpt lat="40.3364910" lon="-3.5170240">
        <ele>582.6</ele>
        <time>2021-04-04T06:42:00Z</time>
      </trkpt>
      <trkpt lat="40.3364220" lon="-3.5169840">
        <ele>582.4</ele>
        <time>2021-04-04T06:42:01Z</time>
      </trkpt>
      <trkpt lat="40.3363530" lon="-3.5169440">
        <ele>582.4</ele>
        <time>2021-04-04T06:42:02Z</time>
      </trkpt>
      <trkpt lat="40.3362810" lon="-3.5169080">
        <ele>582.2</ele>
        <time>2021-04-04T06:42:03Z</time>
      </trkpt>
      <trkpt lat="40.3362080" lon="-3.5168700">
        <ele>582.0</ele>
        <time>2021-04-04T06:42:04Z</time>
      </trkpt>
      <trkpt lat="40.3361400" lon="-3.5168280">
        <ele>582.0</ele>
        <time>2021-04-04T06:42:05Z</time>
      </trkpt>
      <trkpt lat="40.3360710" lon="-3.5167860">
        <ele>581.8</ele>
        <time>2021-04-04T06:42:06Z</time>
      </trkpt>
      <trkpt lat="40.3360020" lon="-3.5167460">
        <ele>581.6</ele>
        <time>2021-04-04T06:42:07Z</time>
      </trkpt>
      <trkpt lat="40.3359340" lon="-3.5167030">
        <ele>581.6</ele>
        <time>2021-04-04T06:42:08Z</time>
      </trkpt>
      <trkpt lat="40.3358650" lon="-3.5166590">
        <ele>581.4</ele>
        <time>2021-04-04T06:42:09Z</time>
      </trkpt>
      <trkpt lat="40.3358000" lon="-3.5166150">
        <ele>581.4</ele>
        <time>2021-04-04T06:42:10Z</time>
      </trkpt>
      <trkpt lat="40.3357310" lon="-3.5165730">
        <ele>581.2</ele>
        <time>2021-04-04T06:42:11Z</time>
      </trkpt>
      <trkpt lat="40.3356630" lon="-3.5165320">
        <ele>581.2</ele>
        <time>2021-04-04T06:42:12Z</time>
      </trkpt>
      <trkpt lat="40.3355900" lon="-3.5164890">
        <ele>581.0</ele>
        <time>2021-04-04T06:42:13Z</time>
      </trkpt>
      <trkpt lat="40.3355180" lon="-3.5164470">
        <ele>581.0</ele>
        <time>2021-04-04T06:42:14Z</time>
      </trkpt>
      <trkpt lat="40.3354490" lon="-3.5164060">
        <ele>580.8</ele>
        <time>2021-04-04T06:42:15Z</time>
      </trkpt>
      <trkpt lat="40.3353810" lon="-3.5163650">
        <ele>580.8</ele>
        <time>2021-04-04T06:42:16Z</time>
      </trkpt>
      <trkpt lat="40.3353160" lon="-3.5163250">
        <ele>580.8</ele>
        <time>2021-04-04T06:42:17Z</time>
      </trkpt>
      <trkpt lat="40.3352470" lon="-3.5162850">
        <ele>580.8</ele>
        <time>2021-04-04T06:42:18Z</time>
      </trkpt>
      <trkpt lat="40.3351780" lon="-3.5162480">
        <ele>580.8</ele>
        <time>2021-04-04T06:42:19Z</time>
      </trkpt>
      <trkpt lat="40.3351140" lon="-3.5162110">
        <ele>580.8</ele>
        <time>2021-04-04T06:42:20Z</time>
      </trkpt>
      <trkpt lat="40.3350520" lon="-3.5161750">
        <ele>580.8</ele>
        <time>2021-04-04T06:42:21Z</time>
      </trkpt>
      <trkpt lat="40.3349910" lon="-3.5161410">
        <ele>581.0</ele>
        <time>2021-04-04T06:42:22Z</time>
      </trkpt>
      <trkpt lat="40.3349270" lon="-3.5161070">
        <ele>581.0</ele>
        <time>2021-04-04T06:42:23Z</time>
      </trkpt>
      <trkpt lat="40.3348620" lon="-3.5160710">
        <ele>581.0</ele>
        <time>2021-04-04T06:42:24Z</time>
      </trkpt>
      <trkpt lat="40.3347970" lon="-3.5160340">
        <ele>581.0</ele>
        <time>2021-04-04T06:42:25Z</time>
      </trkpt>
      <trkpt lat="40.3347360" lon="-3.5159960">
        <ele>581.0</ele>
        <time>2021-04-04T06:42:26Z</time>
      </trkpt>
      <trkpt lat="40.3346750" lon="-3.5159590">
        <ele>581.0</ele>
        <time>2021-04-04T06:42:27Z</time>
      </trkpt>
      <trkpt lat="40.3346100" lon="-3.5159200">
        <ele>581.0</ele>
        <time>2021-04-04T06:42:28Z</time>
      </trkpt>
      <trkpt lat="40.3345450" lon="-3.5158820">
        <ele>581.0</ele>
        <time>2021-04-04T06:42:29Z</time>
      </trkpt>
      <trkpt lat="40.3344840" lon="-3.5158440">
        <ele>581.0</ele>
        <time>2021-04-04T06:42:30Z</time>
      </trkpt>
      <trkpt lat="40.3344190" lon="-3.5158060">
        <ele>581.0</ele>
        <time>2021-04-04T06:42:31Z</time>
      </trkpt>
      <trkpt lat="40.3343540" lon="-3.5157690">
        <ele>581.0</ele>
        <time>2021-04-04T06:42:32Z</time>
      </trkpt>
      <trkpt lat="40.3342900" lon="-3.5157330">
        <ele>581.0</ele>
        <time>2021-04-04T06:42:33Z</time>
      </trkpt>
      <trkpt lat="40.3342210" lon="-3.5156970">
        <ele>581.0</ele>
        <time>2021-04-04T06:42:34Z</time>
      </trkpt>
      <trkpt lat="40.3341520" lon="-3.5156600">
        <ele>580.8</ele>
        <time>2021-04-04T06:42:35Z</time>
      </trkpt>
      <trkpt lat="40.3340870" lon="-3.5156220">
        <ele>580.6</ele>
        <time>2021-04-04T06:42:36Z</time>
      </trkpt>
      <trkpt lat="40.3340190" lon="-3.5155830">
        <ele>580.4</ele>
        <time>2021-04-04T06:42:37Z</time>
      </trkpt>
      <trkpt lat="40.3339500" lon="-3.5155430">
        <ele>580.2</ele>
        <time>2021-04-04T06:42:38Z</time>
      </trkpt>
      <trkpt lat="40.3338850" lon="-3.5155020">
        <ele>580.0</ele>
        <time>2021-04-04T06:42:39Z</time>
      </trkpt>
      <trkpt lat="40.3338130" lon="-3.5154600">
        <ele>580.0</ele>
        <time>2021-04-04T06:42:40Z</time>
      </trkpt>
      <trkpt lat="40.3337440" lon="-3.5154190">
        <ele>579.6</ele>
        <time>2021-04-04T06:42:41Z</time>
      </trkpt>
      <trkpt lat="40.3336720" lon="-3.5153780">
        <ele>579.4</ele>
        <time>2021-04-04T06:42:42Z</time>
      </trkpt>
      <trkpt lat="40.3336030" lon="-3.5153350">
        <ele>579.2</ele>
        <time>2021-04-04T06:42:43Z</time>
      </trkpt>
      <trkpt lat="40.3335340" lon="-3.5152920">
        <ele>579.0</ele>
        <time>2021-04-04T06:42:44Z</time>
      </trkpt>
      <trkpt lat="40.3334620" lon="-3.5152500">
        <ele>578.6</ele>
        <time>2021-04-04T06:42:45Z</time>
      </trkpt>
      <trkpt lat="40.3333930" lon="-3.5152110">
        <ele>578.4</ele>
        <time>2021-04-04T06:42:46Z</time>
      </trkpt>
      <trkpt lat="40.3333210" lon="-3.5151750">
        <ele>578.2</ele>
        <time>2021-04-04T06:42:47Z</time>
      </trkpt>
      <trkpt lat="40.3332520" lon="-3.5151400">
        <ele>578.0</ele>
        <time>2021-04-04T06:42:48Z</time>
      </trkpt>
      <trkpt lat="40.3331790" lon="-3.5151010">
        <ele>577.8</ele>
        <time>2021-04-04T06:42:49Z</time>
      </trkpt>
      <trkpt lat="40.3331070" lon="-3.5150670">
        <ele>577.6</ele>
        <time>2021-04-04T06:42:50Z</time>
      </trkpt>
      <trkpt lat="40.3330350" lon="-3.5150330">
        <ele>577.4</ele>
        <time>2021-04-04T06:42:51Z</time>
      </trkpt>
      <trkpt lat="40.3329660" lon="-3.5149970">
        <ele>577.2</ele>
        <time>2021-04-04T06:42:52Z</time>
      </trkpt>
      <trkpt lat="40.3328970" lon="-3.5149520">
        <ele>577.0</ele>
        <time>2021-04-04T06:42:53Z</time>
      </trkpt>
      <trkpt lat="40.3328280" lon="-3.5149020">
        <ele>576.8</ele>
        <time>2021-04-04T06:42:54Z</time>
      </trkpt>
      <trkpt lat="40.3327600" lon="-3.5148530">
        <ele>576.4</ele>
        <time>2021-04-04T06:42:55Z</time>
      </trkpt>
      <trkpt lat="40.3326910" lon="-3.5148080">
        <ele>576.2</ele>
        <time>2021-04-04T06:42:56Z</time>
      </trkpt>
      <trkpt lat="40.3326190" lon="-3.5147650">
        <ele>575.8</ele>
        <time>2021-04-04T06:42:57Z</time>
      </trkpt>
      <trkpt lat="40.3325460" lon="-3.5147220">
        <ele>575.6</ele>
        <time>2021-04-04T06:42:58Z</time>
      </trkpt>
      <trkpt lat="40.3324700" lon="-3.5146800">
        <ele>575.4</ele>
        <time>2021-04-04T06:42:59Z</time>
      </trkpt>
      <trkpt lat="40.3323970" lon="-3.5146370">
        <ele>575.2</ele>
        <time>2021-04-04T06:43:00Z</time>
      </trkpt>
      <trkpt lat="40.3323210" lon="-3.5145930">
        <ele>574.8</ele>
        <time>2021-04-04T06:43:01Z</time>
      </trkpt>
      <trkpt lat="40.3322410" lon="-3.5145500">
        <ele>574.6</ele>
        <time>2021-04-04T06:43:02Z</time>
      </trkpt>
      <trkpt lat="40.3321650" lon="-3.5145090">
        <ele>574.4</ele>
        <time>2021-04-04T06:43:03Z</time>
      </trkpt>
      <trkpt lat="40.3320880" lon="-3.5144680">
        <ele>574.0</ele>
        <time>2021-04-04T06:43:04Z</time>
      </trkpt>
      <trkpt lat="40.3320160" lon="-3.5144250">
        <ele>573.8</ele>
        <time>2021-04-04T06:43:05Z</time>
      </trkpt>
      <trkpt lat="40.3319400" lon="-3.5143810">
        <ele>573.6</ele>
        <time>2021-04-04T06:43:06Z</time>
      </trkpt>
      <trkpt lat="40.3318630" lon="-3.5143380">
        <ele>573.2</ele>
        <time>2021-04-04T06:43:07Z</time>
      </trkpt>
      <trkpt lat="40.3317910" lon="-3.5142940">
        <ele>573.0</ele>
        <time>2021-04-04T06:43:08Z</time>
      </trkpt>
      <trkpt lat="40.3317150" lon="-3.5142500">
        <ele>572.6</ele>
        <time>2021-04-04T06:43:09Z</time>
      </trkpt>
      <trkpt lat="40.3316420" lon="-3.5142050">
        <ele>572.4</ele>
        <time>2021-04-04T06:43:10Z</time>
      </trkpt>
      <trkpt lat="40.3315660" lon="-3.5141600">
        <ele>572.2</ele>
        <time>2021-04-04T06:43:11Z</time>
      </trkpt>
      <trkpt lat="40.3314930" lon="-3.5141170">
        <ele>572.0</ele>
        <time>2021-04-04T06:43:12Z</time>
      </trkpt>
      <trkpt lat="40.3314210" lon="-3.5140730">
        <ele>571.8</ele>
        <time>2021-04-04T06:43:13Z</time>
      </trkpt>
      <trkpt lat="40.3313480" lon="-3.5140310">
        <ele>571.8</ele>
        <time>2021-04-04T06:43:14Z</time>
      </trkpt>
      <trkpt lat="40.3312800" lon="-3.5139890">
        <ele>572.0</ele>
        <time>2021-04-04T06:43:15Z</time>
      </trkpt>
      <trkpt lat="40.3312110" lon="-3.5139480">
        <ele>572.0</ele>
        <time>2021-04-04T06:43:16Z</time>
      </trkpt>
      <trkpt lat="40.3311500" lon="-3.5139100">
        <ele>572.2</ele>
        <time>2021-04-04T06:43:17Z</time>
      </trkpt>
      <trkpt lat="40.3310850" lon="-3.5138720">
        <ele>572.2</ele>
        <time>2021-04-04T06:43:18Z</time>
      </trkpt>
      <trkpt lat="40.3310200" lon="-3.5138320">
        <ele>572.4</ele>
        <time>2021-04-04T06:43:19Z</time>
      </trkpt>
      <trkpt lat="40.3309590" lon="-3.5137960">
        <ele>572.6</ele>
        <time>2021-04-04T06:43:20Z</time>
      </trkpt>
      <trkpt lat="40.3308980" lon="-3.5137620">
        <ele>572.8</ele>
        <time>2021-04-04T06:43:21Z</time>
      </trkpt>
      <trkpt lat="40.3308410" lon="-3.5137260">
        <ele>573.0</ele>
        <time>2021-04-04T06:43:22Z</time>
      </trkpt>
      <trkpt lat="40.3307880" lon="-3.5136920">
        <ele>573.4</ele>
        <time>2021-04-04T06:43:23Z</time>
      </trkpt>
      <trkpt lat="40.3307300" lon="-3.5136600">
        <ele>573.6</ele>
        <time>2021-04-04T06:43:24Z</time>
      </trkpt>
      <trkpt lat="40.3306770" lon="-3.5136290">
        <ele>573.8</ele>
        <time>2021-04-04T06:43:25Z</time>
      </trkpt>
      <trkpt lat="40.3306270" lon="-3.5135980">
        <ele>574.2</ele>
        <time>2021-04-04T06:43:26Z</time>
      </trkpt>
      <trkpt lat="40.3305740" lon="-3.5135670">
        <ele>574.6</ele>
        <time>2021-04-04T06:43:27Z</time>
      </trkpt>
      <trkpt lat="40.3305240" lon="-3.5135370">
        <ele>574.8</ele>
        <time>2021-04-04T06:43:28Z</time>
      </trkpt>
      <trkpt lat="40.3304790" lon="-3.5135100">
        <ele>575.2</ele>
        <time>2021-04-04T06:43:29Z</time>
      </trkpt>
      <trkpt lat="40.3304330" lon="-3.5134840">
        <ele>575.4</ele>
        <time>2021-04-04T06:43:30Z</time>
      </trkpt>
      <trkpt lat="40.3303870" lon="-3.5134600">
        <ele>575.8</ele>
        <time>2021-04-04T06:43:31Z</time>
      </trkpt>
      <trkpt lat="40.3303450" lon="-3.5134410">
        <ele>576.0</ele>
        <time>2021-04-04T06:43:32Z</time>
      </trkpt>
      <trkpt lat="40.3303030" lon="-3.5134240">
        <ele>576.4</ele>
        <time>2021-04-04T06:43:33Z</time>
      </trkpt>
      <trkpt lat="40.3302610" lon="-3.5134120">
        <ele>576.6</ele>
        <time>2021-04-04T06:43:34Z</time>
      </trkpt>
      <trkpt lat="40.3302350" lon="-3.5134060">
        <ele>576.8</ele>
        <time>2021-04-04T06:43:35Z</time>
      </trkpt>
      <trkpt lat="40.3302120" lon="-3.5134030">
        <ele>577.0</ele>
        <time>2021-04-04T06:43:36Z</time>
      </trkpt>
      <trkpt lat="40.3301890" lon="-3.5133990">
        <ele>577.2</ele>
        <time>2021-04-04T06:43:37Z</time>
      </trkpt>
      <trkpt lat="40.3301580" lon="-3.5133970">
        <ele>577.2</ele>
        <time>2021-04-04T06:43:38Z</time>
      </trkpt>
      <trkpt lat="40.3301200" lon="-3.5134040">
        <ele>577.2</ele>
        <time>2021-04-04T06:43:39Z</time>
      </trkpt>
      <trkpt lat="40.3300900" lon="-3.5134260">
        <ele>577.2</ele>
        <time>2021-04-04T06:43:40Z</time>
      </trkpt>
      <trkpt lat="40.3300630" lon="-3.5134650">
        <ele>577.2</ele>
        <time>2021-04-04T06:43:41Z</time>
      </trkpt>
      <trkpt lat="40.3300480" lon="-3.5135150">
        <ele>577.2</ele>
        <time>2021-04-04T06:43:42Z</time>
      </trkpt>
      <trkpt lat="40.3300320" lon="-3.5135710">
        <ele>577.2</ele>
        <time>2021-04-04T06:43:43Z</time>
      </trkpt>
      <trkpt lat="40.3300130" lon="-3.5136310">
        <ele>577.2</ele>
        <time>2021-04-04T06:43:44Z</time>
      </trkpt>
      <trkpt lat="40.3299940" lon="-3.5136950">
        <ele>577.0</ele>
        <time>2021-04-04T06:43:45Z</time>
      </trkpt>
      <trkpt lat="40.3299670" lon="-3.5137640">
        <ele>576.8</ele>
        <time>2021-04-04T06:43:46Z</time>
      </trkpt>
      <trkpt lat="40.3299410" lon="-3.5138400">
        <ele>576.4</ele>
        <time>2021-04-04T06:43:47Z</time>
      </trkpt>
      <trkpt lat="40.3299140" lon="-3.5139230">
        <ele>576.0</ele>
        <time>2021-04-04T06:43:48Z</time>
      </trkpt>
      <trkpt lat="40.3298840" lon="-3.5140130">
        <ele>575.4</ele>
        <time>2021-04-04T06:43:49Z</time>
      </trkpt>
      <trkpt lat="40.3298530" lon="-3.5141070">
        <ele>574.8</ele>
        <time>2021-04-04T06:43:50Z</time>
      </trkpt>
      <trkpt lat="40.3298150" lon="-3.5142030">
        <ele>574.2</ele>
        <time>2021-04-04T06:43:51Z</time>
      </trkpt>
      <trkpt lat="40.3297840" lon="-3.5143010">
        <ele>573.8</ele>
        <time>2021-04-04T06:43:52Z</time>
      </trkpt>
      <trkpt lat="40.3297540" lon="-3.5144020">
        <ele>573.2</ele>
        <time>2021-04-04T06:43:53Z</time>
      </trkpt>
      <trkpt lat="40.3297160" lon="-3.5145050">
        <ele>572.8</ele>
        <time>2021-04-04T06:43:54Z</time>
      </trkpt>
      <trkpt lat="40.3296850" lon="-3.5146080">
        <ele>572.2</ele>
        <time>2021-04-04T06:43:55Z</time>
      </trkpt>
      <trkpt lat="40.3296510" lon="-3.5147140">
        <ele>571.8</ele>
        <time>2021-04-04T06:43:56Z</time>
      </trkpt>
      <trkpt lat="40.3296130" lon="-3.5148210">
        <ele>571.2</ele>
        <time>2021-04-04T06:43:57Z</time>
      </trkpt>
      <trkpt lat="40.3295750" lon="-3.5149300">
        <ele>570.6</ele>
        <time>2021-04-04T06:43:58Z</time>
      </trkpt>
      <trkpt lat="40.3295330" lon="-3.5150470">
        <ele>570.2</ele>
        <time>2021-04-04T06:43:59Z</time>
      </trkpt>
      <trkpt lat="40.3294870" lon="-3.5151620">
        <ele>569.6</ele>
        <time>2021-04-04T06:44:00Z</time>
      </trkpt>
      <trkpt lat="40.3294490" lon="-3.5152800">
        <ele>569.0</ele>
        <time>2021-04-04T06:44:01Z</time>
      </trkpt>
      <trkpt lat="40.3294110" lon="-3.5153940">
        <ele>568.4</ele>
        <time>2021-04-04T06:44:02Z</time>
      </trkpt>
      <trkpt lat="40.3293760" lon="-3.5155080">
        <ele>567.8</ele>
        <time>2021-04-04T06:44:03Z</time>
      </trkpt>
      <trkpt lat="40.3293340" lon="-3.5156220">
        <ele>567.2</ele>
        <time>2021-04-04T06:44:04Z</time>
      </trkpt>
      <trkpt lat="40.3292960" lon="-3.5157420">
        <ele>566.8</ele>
        <time>2021-04-04T06:44:05Z</time>
      </trkpt>
      <trkpt lat="40.3292580" lon="-3.5158620">
        <ele>566.4</ele>
        <time>2021-04-04T06:44:06Z</time>
      </trkpt>
      <trkpt lat="40.3292270" lon="-3.5159720">
        <ele>565.8</ele>
        <time>2021-04-04T06:44:07Z</time>
      </trkpt>
      <trkpt lat="40.3292080" lon="-3.5160650">
        <ele>565.6</ele>
        <time>2021-04-04T06:44:08Z</time>
      </trkpt>
      <trkpt lat="40.3291780" lon="-3.5161650">
        <ele>565.4</ele>
        <time>2021-04-04T06:44:09Z</time>
      </trkpt>
      <trkpt lat="40.3291400" lon="-3.5162700">
        <ele>565.0</ele>
        <time>2021-04-04T06:44:10Z</time>
      </trkpt>
      <trkpt lat="40.3290980" lon="-3.5163740">
        <ele>564.8</ele>
        <time>2021-04-04T06:44:11Z</time>
      </trkpt>
      <trkpt lat="40.3290600" lon="-3.5164770">
        <ele>564.6</ele>
        <time>2021-04-04T06:44:12Z</time>
      </trkpt>
      <trkpt lat="40.3290250" lon="-3.5165780">
        <ele>564.4</ele>
        <time>2021-04-04T06:44:13Z</time>
      </trkpt>
      <trkpt lat="40.3289870" lon="-3.5166800">
        <ele>564.4</ele>
        <time>2021-04-04T06:44:14Z</time>
      </trkpt>
      <trkpt lat="40.3289530" lon="-3.5167850">
        <ele>564.2</ele>
        <time>2021-04-04T06:44:15Z</time>
      </trkpt>
      <trkpt lat="40.3289180" lon="-3.5168850">
        <ele>564.2</ele>
        <time>2021-04-04T06:44:16Z</time>
      </trkpt>
      <trkpt lat="40.3288840" lon="-3.5169860">
        <ele>564.2</ele>
        <time>2021-04-04T06:44:17Z</time>
      </trkpt>
      <trkpt lat="40.3288540" lon="-3.5170820">
        <ele>564.0</ele>
        <time>2021-04-04T06:44:18Z</time>
      </trkpt>
      <trkpt lat="40.3288230" lon="-3.5171780">
        <ele>564.0</ele>
        <time>2021-04-04T06:44:19Z</time>
      </trkpt>
      <trkpt lat="40.3287930" lon="-3.5172740">
        <ele>563.8</ele>
        <time>2021-04-04T06:44:20Z</time>
      </trkpt>
      <trkpt lat="40.3287580" lon="-3.5173710">
        <ele>563.6</ele>
        <time>2021-04-04T06:44:21Z</time>
      </trkpt>
      <trkpt lat="40.3287240" lon="-3.5174690">
        <ele>563.4</ele>
        <time>2021-04-04T06:44:22Z</time>
      </trkpt>
      <trkpt lat="40.3286930" lon="-3.5175700">
        <ele>563.0</ele>
        <time>2021-04-04T06:44:23Z</time>
      </trkpt>
      <trkpt lat="40.3286550" lon="-3.5176750">
        <ele>562.4</ele>
        <time>2021-04-04T06:44:24Z</time>
      </trkpt>
      <trkpt lat="40.3286170" lon="-3.5177820">
        <ele>561.8</ele>
        <time>2021-04-04T06:44:25Z</time>
      </trkpt>
      <trkpt lat="40.3285790" lon="-3.5178920">
        <ele>561.2</ele>
        <time>2021-04-04T06:44:26Z</time>
      </trkpt>
      <trkpt lat="40.3285370" lon="-3.5180080">
        <ele>560.6</ele>
        <time>2021-04-04T06:44:27Z</time>
      </trkpt>
      <trkpt lat="40.3284990" lon="-3.5181260">
        <ele>559.8</ele>
        <time>2021-04-04T06:44:28Z</time>
      </trkpt>
      <trkpt lat="40.3284610" lon="-3.5182450">
        <ele>559.0</ele>
        <time>2021-04-04T06:44:29Z</time>
      </trkpt>
      <trkpt lat="40.3284150" lon="-3.5183690">
        <ele>558.2</ele>
        <time>2021-04-04T06:44:30Z</time>
      </trkpt>
      <trkpt lat="40.3283690" lon="-3.5184910">
        <ele>557.4</ele>
        <time>2021-04-04T06:44:31Z</time>
      </trkpt>
      <trkpt lat="40.3283230" lon="-3.5186140">
        <ele>556.8</ele>
        <time>2021-04-04T06:44:32Z</time>
      </trkpt>
      <trkpt lat="40.3282740" lon="-3.5187420">
        <ele>556.2</ele>
        <time>2021-04-04T06:44:33Z</time>
      </trkpt>
      <trkpt lat="40.3282360" lon="-3.5188600">
        <ele>555.4</ele>
        <time>2021-04-04T06:44:34Z</time>
      </trkpt>
      <trkpt lat="40.3282010" lon="-3.5189740">
        <ele>554.8</ele>
        <time>2021-04-04T06:44:35Z</time>
      </trkpt>
      <trkpt lat="40.3281590" lon="-3.5190820">
        <ele>554.4</ele>
        <time>2021-04-04T06:44:36Z</time>
      </trkpt>
      <trkpt lat="40.3281250" lon="-3.5191870">
        <ele>553.8</ele>
        <time>2021-04-04T06:44:37Z</time>
      </trkpt>
      <trkpt lat="40.3281060" lon="-3.5192920">
        <ele>553.2</ele>
        <time>2021-04-04T06:44:38Z</time>
      </trkpt>
      <trkpt lat="40.3280980" lon="-3.5194060">
        <ele>552.6</ele>
        <time>2021-04-04T06:44:39Z</time>
      </trkpt>
      <trkpt lat="40.3281060" lon="-3.5195310">
        <ele>551.6</ele>
        <time>2021-04-04T06:44:40Z</time>
      </trkpt>
      <trkpt lat="40.3281060" lon="-3.5196580">
        <ele>551.0</ele>
        <time>2021-04-04T06:44:41Z</time>
      </trkpt>
      <trkpt lat="40.3280790" lon="-3.5197740">
        <ele>550.0</ele>
        <time>2021-04-04T06:44:42Z</time>
      </trkpt>
      <trkpt lat="40.3280260" lon="-3.5198840">
        <ele>549.2</ele>
        <time>2021-04-04T06:44:43Z</time>
      </trkpt>
      <trkpt lat="40.3279500" lon="-3.5199880">
        <ele>548.2</ele>
        <time>2021-04-04T06:44:44Z</time>
      </trkpt>
      <trkpt lat="40.3278730" lon="-3.5200930">
        <ele>547.2</ele>
        <time>2021-04-04T06:44:45Z</time>
      </trkpt>
      <trkpt lat="40.3278010" lon="-3.5201930">
        <ele>546.4</ele>
        <time>2021-04-04T06:44:46Z</time>
      </trkpt>
      <trkpt lat="40.3277240" lon="-3.5202870">
        <ele>545.6</ele>
        <time>2021-04-04T06:44:47Z</time>
      </trkpt>
      <trkpt lat="40.3276480" lon="-3.5203850">
        <ele>544.8</ele>
        <time>2021-04-04T06:44:48Z</time>
      </trkpt>
      <trkpt lat="40.3275870" lon="-3.5204890">
        <ele>544.4</ele>
        <time>2021-04-04T06:44:49Z</time>
      </trkpt>
      <trkpt lat="40.3275340" lon="-3.5205810">
        <ele>544.2</ele>
        <time>2021-04-04T06:44:50Z</time>
      </trkpt>
      <trkpt lat="40.3274760" lon="-3.5206410">
        <ele>544.0</ele>
        <time>2021-04-04T06:44:51Z</time>
      </trkpt>
      <trkpt lat="40.3274150" lon="-3.5206600">
        <ele>544.0</ele>
        <time>2021-04-04T06:44:52Z</time>
      </trkpt>
      <trkpt lat="40.3273620" lon="-3.5206290">
        <ele>543.8</ele>
        <time>2021-04-04T06:44:53Z</time>
      </trkpt>
      <trkpt lat="40.3273200" lon="-3.5205540">
        <ele>543.6</ele>
        <time>2021-04-04T06:44:54Z</time>
      </trkpt>
      <trkpt lat="40.3272860" lon="-3.5204630">
        <ele>543.4</ele>
        <time>2021-04-04T06:44:55Z</time>
      </trkpt>
      <trkpt lat="40.3272510" lon="-3.5203690">
        <ele>543.2</ele>
        <time>2021-04-04T06:44:56Z</time>
      </trkpt>
      <trkpt lat="40.3272100" lon="-3.5202780">
        <ele>542.8</ele>
        <time>2021-04-04T06:44:57Z</time>
      </trkpt>
      <trkpt lat="40.3271600" lon="-3.5201970">
        <ele>542.6</ele>
        <time>2021-04-04T06:44:58Z</time>
      </trkpt>
      <trkpt lat="40.3271030" lon="-3.5201250">
        <ele>542.4</ele>
        <time>2021-04-04T06:44:59Z</time>
      </trkpt>
      <trkpt lat="40.3270380" lon="-3.5200590">
        <ele>542.0</ele>
        <time>2021-04-04T06:45:00Z</time>
      </trkpt>
      <trkpt lat="40.3269650" lon="-3.5200020">
        <ele>541.6</ele>
        <time>2021-04-04T06:45:01Z</time>
      </trkpt>
      <trkpt lat="40.3268890" lon="-3.5199500">
        <ele>541.2</ele>
        <time>2021-04-04T06:45:02Z</time>
      </trkpt>
      <trkpt lat="40.3268050" lon="-3.5199090">
        <ele>541.0</ele>
        <time>2021-04-04T06:45:03Z</time>
      </trkpt>
      <trkpt lat="40.3267250" lon="-3.5198830">
        <ele>540.4</ele>
        <time>2021-04-04T06:45:04Z</time>
      </trkpt>
      <trkpt lat="40.3266370" lon="-3.5198820">
        <ele>540.0</ele>
        <time>2021-04-04T06:45:05Z</time>
      </trkpt>
      <trkpt lat="40.3265530" lon="-3.5199100">
        <ele>539.4</ele>
        <time>2021-04-04T06:45:06Z</time>
      </trkpt>
      <trkpt lat="40.3264770" lon="-3.5199630">
        <ele>539.2</ele>
        <time>2021-04-04T06:45:07Z</time>
      </trkpt>
      <trkpt lat="40.3264120" lon="-3.5200300">
        <ele>539.0</ele>
        <time>2021-04-04T06:45:08Z</time>
      </trkpt>
      <trkpt lat="40.3263470" lon="-3.5200990">
        <ele>538.6</ele>
        <time>2021-04-04T06:45:09Z</time>
      </trkpt>
      <trkpt lat="40.3262820" lon="-3.5201690">
        <ele>538.4</ele>
        <time>2021-04-04T06:45:10Z</time>
      </trkpt>
      <trkpt lat="40.3262180" lon="-3.5202410">
        <ele>538.2</ele>
        <time>2021-04-04T06:45:11Z</time>
      </trkpt>
      <trkpt lat="40.3261490" lon="-3.5203160">
        <ele>538.2</ele>
        <time>2021-04-04T06:45:12Z</time>
      </trkpt>
      <trkpt lat="40.3260840" lon="-3.5203950">
        <ele>538.2</ele>
        <time>2021-04-04T06:45:13Z</time>
      </trkpt>
      <trkpt lat="40.3260380" lon="-3.5204840">
        <ele>538.0</ele>
        <time>2021-04-04T06:45:14Z</time>
      </trkpt>
      <trkpt lat="40.3260000" lon="-3.5205740">
        <ele>538.0</ele>
        <time>2021-04-04T06:45:15Z</time>
      </trkpt>
      <trkpt lat="40.3259510" lon="-3.5206520">
        <ele>538.0</ele>
        <time>2021-04-04T06:45:16Z</time>
      </trkpt>
      <trkpt lat="40.3259010" lon="-3.5207280">
        <ele>538.2</ele>
        <time>2021-04-04T06:45:17Z</time>
      </trkpt>
      <trkpt lat="40.3258510" lon="-3.5208050">
        <ele>538.4</ele>
        <time>2021-04-04T06:45:18Z</time>
      </trkpt>
      <trkpt lat="40.3258090" lon="-3.5208830">
        <ele>538.6</ele>
        <time>2021-04-04T06:45:19Z</time>
      </trkpt>
      <trkpt lat="40.3257750" lon="-3.5209630">
        <ele>538.8</ele>
        <time>2021-04-04T06:45:20Z</time>
      </trkpt>
      <trkpt lat="40.3257480" lon="-3.5210460">
        <ele>539.2</ele>
        <time>2021-04-04T06:45:21Z</time>
      </trkpt>
      <trkpt lat="40.3257370" lon="-3.5211280">
        <ele>539.4</ele>
        <time>2021-04-04T06:45:22Z</time>
      </trkpt>
      <trkpt lat="40.3257330" lon="-3.5212080">
        <ele>539.8</ele>
        <time>2021-04-04T06:45:23Z</time>
      </trkpt>
      <trkpt lat="40.3257370" lon="-3.5212890">
        <ele>540.2</ele>
        <time>2021-04-04T06:45:24Z</time>
      </trkpt>
      <trkpt lat="40.3257520" lon="-3.5213670">
        <ele>540.4</ele>
        <time>2021-04-04T06:45:25Z</time>
      </trkpt>
      <trkpt lat="40.3257710" lon="-3.5214420">
        <ele>540.6</ele>
        <time>2021-04-04T06:45:26Z</time>
      </trkpt>
      <trkpt lat="40.3258020" lon="-3.5215090">
        <ele>541.0</ele>
        <time>2021-04-04T06:45:27Z</time>
      </trkpt>
      <trkpt lat="40.3258320" lon="-3.5215630">
        <ele>541.4</ele>
        <time>2021-04-04T06:45:28Z</time>
      </trkpt>
      <trkpt lat="40.3258630" lon="-3.5216040">
        <ele>541.6</ele>
        <time>2021-04-04T06:45:29Z</time>
      </trkpt>
      <trkpt lat="40.3258860" lon="-3.5216440">
        <ele>542.0</ele>
        <time>2021-04-04T06:45:30Z</time>
      </trkpt>
      <trkpt lat="40.3258930" lon="-3.5216860">
        <ele>542.2</ele>
        <time>2021-04-04T06:45:31Z</time>
      </trkpt>
      <trkpt lat="40.3258820" lon="-3.5217290">
        <ele>542.6</ele>
        <time>2021-04-04T06:45:32Z</time>
      </trkpt>
      <trkpt lat="40.3258550" lon="-3.5217760">
        <ele>542.6</ele>
        <time>2021-04-04T06:45:33Z</time>
      </trkpt>
      <trkpt lat="40.3258290" lon="-3.5218360">
        <ele>542.6</ele>
        <time>2021-04-04T06:45:34Z</time>
      </trkpt>
      <trkpt lat="40.3258020" lon="-3.5219130">
        <ele>542.2</ele>
        <time>2021-04-04T06:45:35Z</time>
      </trkpt>
      <trkpt lat="40.3257750" lon="-3.5219980">
        <ele>542.0</ele>
        <time>2021-04-04T06:45:36Z</time>
      </trkpt>
      <trkpt lat="40.3257480" lon="-3.5220890">
        <ele>541.6</ele>
        <time>2021-04-04T06:45:37Z</time>
      </trkpt>
      <trkpt lat="40.3257180" lon="-3.5221810">
        <ele>541.2</ele>
        <time>2021-04-04T06:45:38Z</time>
      </trkpt>
      <trkpt lat="40.3256950" lon="-3.5222750">
        <ele>540.8</ele>
        <time>2021-04-04T06:45:39Z</time>
      </trkpt>
      <trkpt lat="40.3256720" lon="-3.5223720">
        <ele>540.6</ele>
        <time>2021-04-04T06:45:40Z</time>
      </trkpt>
      <trkpt lat="40.3256650" lon="-3.5224700">
        <ele>540.2</ele>
        <time>2021-04-04T06:45:41Z</time>
      </trkpt>
      <trkpt lat="40.3256720" lon="-3.5225670">
        <ele>540.0</ele>
        <time>2021-04-04T06:45:42Z</time>
      </trkpt>
      <trkpt lat="40.3256870" lon="-3.5226630">
        <ele>539.8</ele>
        <time>2021-04-04T06:45:43Z</time>
      </trkpt>
      <trkpt lat="40.3257060" lon="-3.5227570">
        <ele>539.6</ele>
        <time>2021-04-04T06:45:44Z</time>
      </trkpt>
      <trkpt lat="40.3257330" lon="-3.5228470">
        <ele>539.4</ele>
        <time>2021-04-04T06:45:45Z</time>
      </trkpt>
      <trkpt lat="40.3257670" lon="-3.5229340">
        <ele>539.4</ele>
        <time>2021-04-04T06:45:46Z</time>
      </trkpt>
      <trkpt lat="40.3257980" lon="-3.5230190">
        <ele>539.4</ele>
        <time>2021-04-04T06:45:47Z</time>
      </trkpt>
      <trkpt lat="40.3258360" lon="-3.5231010">
        <ele>539.4</ele>
        <time>2021-04-04T06:45:48Z</time>
      </trkpt>
      <trkpt lat="40.3258740" lon="-3.5231790">
        <ele>539.4</ele>
        <time>2021-04-04T06:45:49Z</time>
      </trkpt>
      <trkpt lat="40.3259200" lon="-3.5232520">
        <ele>539.2</ele>
        <time>2021-04-04T06:45:50Z</time>
      </trkpt>
      <trkpt lat="40.3259700" lon="-3.5233220">
        <ele>539.2</ele>
        <time>2021-04-04T06:45:51Z</time>
      </trkpt>
      <trkpt lat="40.3260230" lon="-3.5233870">
        <ele>539.2</ele>
        <time>2021-04-04T06:45:52Z</time>
      </trkpt>
      <trkpt lat="40.3260770" lon="-3.5234480">
        <ele>539.2</ele>
        <time>2021-04-04T06:45:53Z</time>
      </trkpt>
      <trkpt lat="40.3261340" lon="-3.5235080">
        <ele>539.4</ele>
        <time>2021-04-04T06:45:54Z</time>
      </trkpt>
      <trkpt lat="40.3261870" lon="-3.5235650">
        <ele>539.4</ele>
        <time>2021-04-04T06:45:55Z</time>
      </trkpt>
      <trkpt lat="40.3262410" lon="-3.5236220">
        <ele>539.4</ele>
        <time>2021-04-04T06:45:56Z</time>
      </trkpt>
      <trkpt lat="40.3262940" lon="-3.5236790">
        <ele>539.4</ele>
        <time>2021-04-04T06:45:57Z</time>
      </trkpt>
      <trkpt lat="40.3263470" lon="-3.5237370">
        <ele>539.4</ele>
        <time>2021-04-04T06:45:58Z</time>
      </trkpt>
      <trkpt lat="40.3264050" lon="-3.5237930">
        <ele>539.4</ele>
        <time>2021-04-04T06:45:59Z</time>
      </trkpt>
      <trkpt lat="40.3264580" lon="-3.5238490">
        <ele>539.4</ele>
        <time>2021-04-04T06:46:00Z</time>
      </trkpt>
      <trkpt lat="40.3265110" lon="-3.5239070">
        <ele>539.6</ele>
        <time>2021-04-04T06:46:01Z</time>
      </trkpt>
      <trkpt lat="40.3265690" lon="-3.5239620">
        <ele>539.6</ele>
        <time>2021-04-04T06:46:02Z</time>
      </trkpt>
      <trkpt lat="40.3266260" lon="-3.5240160">
        <ele>539.6</ele>
        <time>2021-04-04T06:46:03Z</time>
      </trkpt>
      <trkpt lat="40.3266790" lon="-3.5240720">
        <ele>539.6</ele>
        <time>2021-04-04T06:46:04Z</time>
      </trkpt>
      <trkpt lat="40.3267330" lon="-3.5241290">
        <ele>539.8</ele>
        <time>2021-04-04T06:46:05Z</time>
      </trkpt>
      <trkpt lat="40.3267860" lon="-3.5241880">
        <ele>539.8</ele>
        <time>2021-04-04T06:46:06Z</time>
      </trkpt>
      <trkpt lat="40.3268360" lon="-3.5242460">
        <ele>539.8</ele>
        <time>2021-04-04T06:46:07Z</time>
      </trkpt>
      <trkpt lat="40.3268810" lon="-3.5243000">
        <ele>540.0</ele>
        <time>2021-04-04T06:46:08Z</time>
      </trkpt>
      <trkpt lat="40.3269270" lon="-3.5243530">
        <ele>540.0</ele>
        <time>2021-04-04T06:46:09Z</time>
      </trkpt>
      <trkpt lat="40.3269770" lon="-3.5244080">
        <ele>540.0</ele>
        <time>2021-04-04T06:46:10Z</time>
      </trkpt>
      <trkpt lat="40.3270260" lon="-3.5244640">
        <ele>540.0</ele>
        <time>2021-04-04T06:46:11Z</time>
      </trkpt>
      <trkpt lat="40.3270720" lon="-3.5245220">
        <ele>540.0</ele>
        <time>2021-04-04T06:46:12Z</time>
      </trkpt>
      <trkpt lat="40.3271220" lon="-3.5245790">
        <ele>540.2</ele>
        <time>2021-04-04T06:46:13Z</time>
      </trkpt>
      <trkpt lat="40.3271710" lon="-3.5246360">
        <ele>540.2</ele>
        <time>2021-04-04T06:46:14Z</time>
      </trkpt>
      <trkpt lat="40.3272170" lon="-3.5246920">
        <ele>540.2</ele>
        <time>2021-04-04T06:46:15Z</time>
      </trkpt>
      <trkpt lat="40.3272670" lon="-3.5247490">
        <ele>540.2</ele>
        <time>2021-04-04T06:46:16Z</time>
      </trkpt>
      <trkpt lat="40.3273160" lon="-3.5248060">
        <ele>540.2</ele>
        <time>2021-04-04T06:46:17Z</time>
      </trkpt>
      <trkpt lat="40.3273660" lon="-3.5248650">
        <ele>540.2</ele>
        <time>2021-04-04T06:46:18Z</time>
      </trkpt>
      <trkpt lat="40.3274150" lon="-3.5249250">
        <ele>540.0</ele>
        <time>2021-04-04T06:46:19Z</time>
      </trkpt>
      <trkpt lat="40.3274650" lon="-3.5249840">
        <ele>540.2</ele>
        <time>2021-04-04T06:46:20Z</time>
      </trkpt>
      <trkpt lat="40.3275150" lon="-3.5250430">
        <ele>540.2</ele>
        <time>2021-04-04T06:46:21Z</time>
      </trkpt>
      <trkpt lat="40.3275640" lon="-3.5251000">
        <ele>540.2</ele>
        <time>2021-04-04T06:46:22Z</time>
      </trkpt>
      <trkpt lat="40.3276180" lon="-3.5251570">
        <ele>540.2</ele>
        <time>2021-04-04T06:46:23Z</time>
      </trkpt>
      <trkpt lat="40.3276670" lon="-3.5252180">
        <ele>540.4</ele>
        <time>2021-04-04T06:46:24Z</time>
      </trkpt>
      <trkpt lat="40.3277130" lon="-3.5252780">
        <ele>540.4</ele>
        <time>2021-04-04T06:46:25Z</time>
      </trkpt>
      <trkpt lat="40.3277630" lon="-3.5253360">
        <ele>540.4</ele>
        <time>2021-04-04T06:46:26Z</time>
      </trkpt>
      <trkpt lat="40.3278160" lon="-3.5253940">
        <ele>540.4</ele>
        <time>2021-04-04T06:46:27Z</time>
      </trkpt>
      <trkpt lat="40.3278660" lon="-3.5254500">
        <ele>540.6</ele>
        <time>2021-04-04T06:46:28Z</time>
      </trkpt>
      <trkpt lat="40.3279150" lon="-3.5255080">
        <ele>540.6</ele>
        <time>2021-04-04T06:46:29Z</time>
      </trkpt>
      <trkpt lat="40.3279690" lon="-3.5255650">
        <ele>540.8</ele>
        <time>2021-04-04T06:46:30Z</time>
      </trkpt>
      <trkpt lat="40.3280220" lon="-3.5256220">
        <ele>540.8</ele>
        <time>2021-04-04T06:46:31Z</time>
      </trkpt>
      <trkpt lat="40.3280750" lon="-3.5256800">
        <ele>540.8</ele>
        <time>2021-04-04T06:46:32Z</time>
      </trkpt>
      <trkpt lat="40.3281290" lon="-3.5257350">
        <ele>541.0</ele>
        <time>2021-04-04T06:46:33Z</time>
      </trkpt>
      <trkpt lat="40.3281860" lon="-3.5257900">
        <ele>541.0</ele>
        <time>2021-04-04T06:46:34Z</time>
      </trkpt>
      <trkpt lat="40.3282430" lon="-3.5258430">
        <ele>541.2</ele>
        <time>2021-04-04T06:46:35Z</time>
      </trkpt>
      <trkpt lat="40.3283010" lon="-3.5258920">
        <ele>541.2</ele>
        <time>2021-04-04T06:46:36Z</time>
      </trkpt>
      <trkpt lat="40.3283620" lon="-3.5259380">
        <ele>541.4</ele>
        <time>2021-04-04T06:46:37Z</time>
      </trkpt>
      <trkpt lat="40.3284230" lon="-3.5259790">
        <ele>541.6</ele>
        <time>2021-04-04T06:46:38Z</time>
      </trkpt>
      <trkpt lat="40.3284870" lon="-3.5260130">
        <ele>541.6</ele>
        <time>2021-04-04T06:46:39Z</time>
      </trkpt>
      <trkpt lat="40.3285520" lon="-3.5260400">
        <ele>541.6</ele>
        <time>2021-04-04T06:46:40Z</time>
      </trkpt>
      <trkpt lat="40.3286130" lon="-3.5260630">
        <ele>541.8</ele>
        <time>2021-04-04T06:46:41Z</time>
      </trkpt>
      <trkpt lat="40.3286780" lon="-3.5260830">
        <ele>542.0</ele>
        <time>2021-04-04T06:46:42Z</time>
      </trkpt>
      <trkpt lat="40.3287390" lon="-3.5261050">
        <ele>542.2</ele>
        <time>2021-04-04T06:46:43Z</time>
      </trkpt>
      <trkpt lat="40.3288000" lon="-3.5261290">
        <ele>542.4</ele>
        <time>2021-04-04T06:46:44Z</time>
      </trkpt>
      <trkpt lat="40.3288610" lon="-3.5261610">
        <ele>542.6</ele>
        <time>2021-04-04T06:46:45Z</time>
      </trkpt>
      <trkpt lat="40.3289220" lon="-3.5262010">
        <ele>542.8</ele>
        <time>2021-04-04T06:46:46Z</time>
      </trkpt>
      <trkpt lat="40.3289760" lon="-3.5262480">
        <ele>542.8</ele>
        <time>2021-04-04T06:46:47Z</time>
      </trkpt>
      <trkpt lat="40.3290290" lon="-3.5262990">
        <ele>542.8</ele>
        <time>2021-04-04T06:46:48Z</time>
      </trkpt>
      <trkpt lat="40.3290790" lon="-3.5263530">
        <ele>543.0</ele>
        <time>2021-04-04T06:46:49Z</time>
      </trkpt>
      <trkpt lat="40.3291320" lon="-3.5264090">
        <ele>543.0</ele>
        <time>2021-04-04T06:46:50Z</time>
      </trkpt>
      <trkpt lat="40.3291820" lon="-3.5264660">
        <ele>543.0</ele>
        <time>2021-04-04T06:46:51Z</time>
      </trkpt>
      <trkpt lat="40.3292270" lon="-3.5265250">
        <ele>543.0</ele>
        <time>2021-04-04T06:46:52Z</time>
      </trkpt>
      <trkpt lat="40.3292730" lon="-3.5265880">
        <ele>543.0</ele>
        <time>2021-04-04T06:46:53Z</time>
      </trkpt>
      <trkpt lat="40.3293230" lon="-3.5266500">
        <ele>543.0</ele>
        <time>2021-04-04T06:46:54Z</time>
      </trkpt>
      <trkpt lat="40.3293690" lon="-3.5267110">
        <ele>543.0</ele>
        <time>2021-04-04T06:46:55Z</time>
      </trkpt>
      <trkpt lat="40.3294140" lon="-3.5267730">
        <ele>542.8</ele>
        <time>2021-04-04T06:46:56Z</time>
      </trkpt>
      <trkpt lat="40.3294640" lon="-3.5268350">
        <ele>542.8</ele>
        <time>2021-04-04T06:46:57Z</time>
      </trkpt>
      <trkpt lat="40.3295140" lon="-3.5268970">
        <ele>542.8</ele>
        <time>2021-04-04T06:46:58Z</time>
      </trkpt>
      <trkpt lat="40.3295590" lon="-3.5269560">
        <ele>543.0</ele>
        <time>2021-04-04T06:46:59Z</time>
      </trkpt>
      <trkpt lat="40.3296050" lon="-3.5270140">
        <ele>543.0</ele>
        <time>2021-04-04T06:47:00Z</time>
      </trkpt>
      <trkpt lat="40.3296550" lon="-3.5270730">
        <ele>543.0</ele>
        <time>2021-04-04T06:47:01Z</time>
      </trkpt>
      <trkpt lat="40.3297040" lon="-3.5271320">
        <ele>543.0</ele>
        <time>2021-04-04T06:47:02Z</time>
      </trkpt>
      <trkpt lat="40.3297500" lon="-3.5271920">
        <ele>542.8</ele>
        <time>2021-04-04T06:47:03Z</time>
      </trkpt>
      <trkpt lat="40.3297920" lon="-3.5272520">
        <ele>542.8</ele>
        <time>2021-04-04T06:47:04Z</time>
      </trkpt>
      <trkpt lat="40.3298420" lon="-3.5273130">
        <ele>543.0</ele>
        <time>2021-04-04T06:47:05Z</time>
      </trkpt>
      <trkpt lat="40.3298870" lon="-3.5273730">
        <ele>543.0</ele>
        <time>2021-04-04T06:47:06Z</time>
      </trkpt>
      <trkpt lat="40.3299330" lon="-3.5274340">
        <ele>543.0</ele>
        <time>2021-04-04T06:47:07Z</time>
      </trkpt>
      <trkpt lat="40.3299790" lon="-3.5274940">
        <ele>543.0</ele>
        <time>2021-04-04T06:47:08Z</time>
      </trkpt>
      <trkpt lat="40.3300250" lon="-3.5275530">
        <ele>543.2</ele>
        <time>2021-04-04T06:47:09Z</time>
      </trkpt>
      <trkpt lat="40.3300740" lon="-3.5276120">
        <ele>543.2</ele>
        <time>2021-04-04T06:47:10Z</time>
      </trkpt>
      <trkpt lat="40.3301200" lon="-3.5276720">
        <ele>543.2</ele>
        <time>2021-04-04T06:47:11Z</time>
      </trkpt>
      <trkpt lat="40.3301660" lon="-3.5277320">
        <ele>543.2</ele>
        <time>2021-04-04T06:47:12Z</time>
      </trkpt>
      <trkpt lat="40.3302120" lon="-3.5277920">
        <ele>543.4</ele>
        <time>2021-04-04T06:47:13Z</time>
      </trkpt>
      <trkpt lat="40.3302570" lon="-3.5278510">
        <ele>543.4</ele>
        <time>2021-04-04T06:47:14Z</time>
      </trkpt>
      <trkpt lat="40.3303030" lon="-3.5279090">
        <ele>543.4</ele>
        <time>2021-04-04T06:47:15Z</time>
      </trkpt>
      <trkpt lat="40.3303450" lon="-3.5279670">
        <ele>543.4</ele>
        <time>2021-04-04T06:47:16Z</time>
      </trkpt>
      <trkpt lat="40.3303830" lon="-3.5280250">
        <ele>543.6</ele>
        <time>2021-04-04T06:47:17Z</time>
      </trkpt>
      <trkpt lat="40.3304140" lon="-3.5280860">
        <ele>543.6</ele>
        <time>2021-04-04T06:47:18Z</time>
      </trkpt>
      <trkpt lat="40.3304250" lon="-3.5281480">
        <ele>543.6</ele>
        <time>2021-04-04T06:47:19Z</time>
      </trkpt>
      <trkpt lat="40.3304180" lon="-3.5282090">
        <ele>543.6</ele>
        <time>2021-04-04T06:47:20Z</time>
      </trkpt>
      <trkpt lat="40.3304140" lon="-3.5282760">
        <ele>543.4</ele>
        <time>2021-04-04T06:47:21Z</time>
      </trkpt>
      <trkpt lat="40.3304100" lon="-3.5283480">
        <ele>543.4</ele>
        <time>2021-04-04T06:47:22Z</time>
      </trkpt>
      <trkpt lat="40.3304140" lon="-3.5284210">
        <ele>543.2</ele>
        <time>2021-04-04T06:47:23Z</time>
      </trkpt>
      <trkpt lat="40.3304180" lon="-3.5284970">
        <ele>543.2</ele>
        <time>2021-04-04T06:47:24Z</time>
      </trkpt>
      <trkpt lat="40.3304180" lon="-3.5285740">
        <ele>543.0</ele>
        <time>2021-04-04T06:47:25Z</time>
      </trkpt>
      <trkpt lat="40.3304180" lon="-3.5286550">
        <ele>543.0</ele>
        <time>2021-04-04T06:47:26Z</time>
      </trkpt>
      <trkpt lat="40.3304180" lon="-3.5287390">
        <ele>542.8</ele>
        <time>2021-04-04T06:47:27Z</time>
      </trkpt>
      <trkpt lat="40.3304180" lon="-3.5288220">
        <ele>542.8</ele>
        <time>2021-04-04T06:47:28Z</time>
      </trkpt>
      <trkpt lat="40.3304180" lon="-3.5289060">
        <ele>542.6</ele>
        <time>2021-04-04T06:47:29Z</time>
      </trkpt>
      <trkpt lat="40.3304250" lon="-3.5289900">
        <ele>542.4</ele>
        <time>2021-04-04T06:47:30Z</time>
      </trkpt>
      <trkpt lat="40.3304330" lon="-3.5290750">
        <ele>542.4</ele>
        <time>2021-04-04T06:47:31Z</time>
      </trkpt>
      <trkpt lat="40.3304400" lon="-3.5291610">
        <ele>542.2</ele>
        <time>2021-04-04T06:47:32Z</time>
      </trkpt>
      <trkpt lat="40.3304440" lon="-3.5292460">
        <ele>542.2</ele>
        <time>2021-04-04T06:47:33Z</time>
      </trkpt>
      <trkpt lat="40.3304560" lon="-3.5293340">
        <ele>542.0</ele>
        <time>2021-04-04T06:47:34Z</time>
      </trkpt>
      <trkpt lat="40.3304670" lon="-3.5294190">
        <ele>542.0</ele>
        <time>2021-04-04T06:47:35Z</time>
      </trkpt>
      <trkpt lat="40.3304710" lon="-3.5295000">
        <ele>542.0</ele>
        <time>2021-04-04T06:47:36Z</time>
      </trkpt>
      <trkpt lat="40.3304750" lon="-3.5295770">
        <ele>542.0</ele>
        <time>2021-04-04T06:47:37Z</time>
      </trkpt>
      <trkpt lat="40.3304750" lon="-3.5296530">
        <ele>541.8</ele>
        <time>2021-04-04T06:47:38Z</time>
      </trkpt>
      <trkpt lat="40.3304750" lon="-3.5297310">
        <ele>541.8</ele>
        <time>2021-04-04T06:47:39Z</time>
      </trkpt>
      <trkpt lat="40.3304750" lon="-3.5298110">
        <ele>541.8</ele>
        <time>2021-04-04T06:47:40Z</time>
      </trkpt>
      <trkpt lat="40.3304750" lon="-3.5298910">
        <ele>541.8</ele>
        <time>2021-04-04T06:47:41Z</time>
      </trkpt>
      <trkpt lat="40.3304790" lon="-3.5299730">
        <ele>541.6</ele>
        <time>2021-04-04T06:47:42Z</time>
      </trkpt>
      <trkpt lat="40.3304820" lon="-3.5300580">
        <ele>541.4</ele>
        <time>2021-04-04T06:47:43Z</time>
      </trkpt>
      <trkpt lat="40.3304820" lon="-3.5301450">
        <ele>541.2</ele>
        <time>2021-04-04T06:47:44Z</time>
      </trkpt>
      <trkpt lat="40.3304940" lon="-3.5302300">
        <ele>541.2</ele>
        <time>2021-04-04T06:47:45Z</time>
      </trkpt>
      <trkpt lat="40.3305090" lon="-3.5303120">
        <ele>541.0</ele>
        <time>2021-04-04T06:47:46Z</time>
      </trkpt>
      <trkpt lat="40.3305320" lon="-3.5303950">
        <ele>541.0</ele>
        <time>2021-04-04T06:47:47Z</time>
      </trkpt>
      <trkpt lat="40.3305550" lon="-3.5304780">
        <ele>540.8</ele>
        <time>2021-04-04T06:47:48Z</time>
      </trkpt>
      <trkpt lat="40.3305740" lon="-3.5305600">
        <ele>540.8</ele>
        <time>2021-04-04T06:47:49Z</time>
      </trkpt>
      <trkpt lat="40.3305930" lon="-3.5306430">
        <ele>540.8</ele>
        <time>2021-04-04T06:47:50Z</time>
      </trkpt>
      <trkpt lat="40.3306200" lon="-3.5307230">
        <ele>540.8</ele>
        <time>2021-04-04T06:47:51Z</time>
      </trkpt>
      <trkpt lat="40.3306430" lon="-3.5308040">
        <ele>540.8</ele>
        <time>2021-04-04T06:47:52Z</time>
      </trkpt>
      <trkpt lat="40.3306660" lon="-3.5308840">
        <ele>541.0</ele>
        <time>2021-04-04T06:47:53Z</time>
      </trkpt>
      <trkpt lat="40.3306920" lon="-3.5309610">
        <ele>541.0</ele>
        <time>2021-04-04T06:47:54Z</time>
      </trkpt>
      <trkpt lat="40.3307150" lon="-3.5310380">
        <ele>541.2</ele>
        <time>2021-04-04T06:47:55Z</time>
      </trkpt>
      <trkpt lat="40.3307380" lon="-3.5311180">
        <ele>541.2</ele>
        <time>2021-04-04T06:47:56Z</time>
      </trkpt>
      <trkpt lat="40.3307650" lon="-3.5311970">
        <ele>541.2</ele>
        <time>2021-04-04T06:47:57Z</time>
      </trkpt>
      <trkpt lat="40.3307880" lon="-3.5312760">
        <ele>541.2</ele>
        <time>2021-04-04T06:47:58Z</time>
      </trkpt>
      <trkpt lat="40.3308070" lon="-3.5313560">
        <ele>541.2</ele>
        <time>2021-04-04T06:47:59Z</time>
      </trkpt>
      <trkpt lat="40.3308260" lon="-3.5314360">
        <ele>541.2</ele>
        <time>2021-04-04T06:48:00Z</time>
      </trkpt>
      <trkpt lat="40.3308450" lon="-3.5315160">
        <ele>541.2</ele>
        <time>2021-04-04T06:48:01Z</time>
      </trkpt>
      <trkpt lat="40.3308640" lon="-3.5315960">
        <ele>541.2</ele>
        <time>2021-04-04T06:48:02Z</time>
      </trkpt>
      <trkpt lat="40.3308870" lon="-3.5316780">
        <ele>541.0</ele>
        <time>2021-04-04T06:48:03Z</time>
      </trkpt>
      <trkpt lat="40.3309100" lon="-3.5317580">
        <ele>541.0</ele>
        <time>2021-04-04T06:48:04Z</time>
      </trkpt>
      <trkpt lat="40.3309330" lon="-3.5318380">
        <ele>541.0</ele>
        <time>2021-04-04T06:48:05Z</time>
      </trkpt>
      <trkpt lat="40.3309520" lon="-3.5319200">
        <ele>541.0</ele>
        <time>2021-04-04T06:48:06Z</time>
      </trkpt>
      <trkpt lat="40.3309780" lon="-3.5320000">
        <ele>541.0</ele>
        <time>2021-04-04T06:48:07Z</time>
      </trkpt>
      <trkpt lat="40.3310050" lon="-3.5320790">
        <ele>541.2</ele>
        <time>2021-04-04T06:48:08Z</time>
      </trkpt>
      <trkpt lat="40.3310320" lon="-3.5321600">
        <ele>541.2</ele>
        <time>2021-04-04T06:48:09Z</time>
      </trkpt>
      <trkpt lat="40.3310580" lon="-3.5322410">
        <ele>541.2</ele>
        <time>2021-04-04T06:48:10Z</time>
      </trkpt>
      <trkpt lat="40.3310890" lon="-3.5323200">
        <ele>541.2</ele>
        <time>2021-04-04T06:48:11Z</time>
      </trkpt>
      <trkpt lat="40.3311200" lon="-3.5324020">
        <ele>541.0</ele>
        <time>2021-04-04T06:48:12Z</time>
      </trkpt>
      <trkpt lat="40.3311420" lon="-3.5324840">
        <ele>541.0</ele>
        <time>2021-04-04T06:48:13Z</time>
      </trkpt>
      <trkpt lat="40.3311650" lon="-3.5325690">
        <ele>541.0</ele>
        <time>2021-04-04T06:48:14Z</time>
      </trkpt>
      <trkpt lat="40.3311920" lon="-3.5326520">
        <ele>541.0</ele>
        <time>2021-04-04T06:48:15Z</time>
      </trkpt>
      <trkpt lat="40.3312190" lon="-3.5327350">
        <ele>541.0</ele>
        <time>2021-04-04T06:48:16Z</time>
      </trkpt>
      <trkpt lat="40.3312420" lon="-3.5328170">
        <ele>541.0</ele>
        <time>2021-04-04T06:48:17Z</time>
      </trkpt>
      <trkpt lat="40.3312650" lon="-3.5329000">
        <ele>541.0</ele>
        <time>2021-04-04T06:48:18Z</time>
      </trkpt>
      <trkpt lat="40.3312870" lon="-3.5329830">
        <ele>541.0</ele>
        <time>2021-04-04T06:48:19Z</time>
      </trkpt>
      <trkpt lat="40.3313060" lon="-3.5330660">
        <ele>541.0</ele>
        <time>2021-04-04T06:48:20Z</time>
      </trkpt>
      <trkpt lat="40.3313330" lon="-3.5331490">
        <ele>540.8</ele>
        <time>2021-04-04T06:48:21Z</time>
      </trkpt>
      <trkpt lat="40.3313560" lon="-3.5332320">
        <ele>540.8</ele>
        <time>2021-04-04T06:48:22Z</time>
      </trkpt>
      <trkpt lat="40.3313830" lon="-3.5333130">
        <ele>540.8</ele>
        <time>2021-04-04T06:48:23Z</time>
      </trkpt>
      <trkpt lat="40.3314060" lon="-3.5333950">
        <ele>540.8</ele>
        <time>2021-04-04T06:48:24Z</time>
      </trkpt>
      <trkpt lat="40.3314320" lon="-3.5334790">
        <ele>540.8</ele>
        <time>2021-04-04T06:48:25Z</time>
      </trkpt>
      <trkpt lat="40.3314550" lon="-3.5335620">
        <ele>540.8</ele>
        <time>2021-04-04T06:48:26Z</time>
      </trkpt>
      <trkpt lat="40.3314780" lon="-3.5336460">
        <ele>541.0</ele>
        <time>2021-04-04T06:48:27Z</time>
      </trkpt>
      <trkpt lat="40.3315010" lon="-3.5337280">
        <ele>541.0</ele>
        <time>2021-04-04T06:48:28Z</time>
      </trkpt>
      <trkpt lat="40.3315280" lon="-3.5338110">
        <ele>540.8</ele>
        <time>2021-04-04T06:48:29Z</time>
      </trkpt>
      <trkpt lat="40.3315510" lon="-3.5338950">
        <ele>540.8</ele>
        <time>2021-04-04T06:48:30Z</time>
      </trkpt>
      <trkpt lat="40.3315730" lon="-3.5339780">
        <ele>540.8</ele>
        <time>2021-04-04T06:48:31Z</time>
      </trkpt>
      <trkpt lat="40.3315960" lon="-3.5340610">
        <ele>540.8</ele>
        <time>2021-04-04T06:48:32Z</time>
      </trkpt>
      <trkpt lat="40.3316190" lon="-3.5341430">
        <ele>540.8</ele>
        <time>2021-04-04T06:48:33Z</time>
      </trkpt>
      <trkpt lat="40.3316460" lon="-3.5342250">
        <ele>540.8</ele>
        <time>2021-04-04T06:48:34Z</time>
      </trkpt>
      <trkpt lat="40.3316690" lon="-3.5343080">
        <ele>540.8</ele>
        <time>2021-04-04T06:48:35Z</time>
      </trkpt>
      <trkpt lat="40.3316920" lon="-3.5343900">
        <ele>540.6</ele>
        <time>2021-04-04T06:48:36Z</time>
      </trkpt>
      <trkpt lat="40.3317150" lon="-3.5344740">
        <ele>540.6</ele>
        <time>2021-04-04T06:48:37Z</time>
      </trkpt>
      <trkpt lat="40.3317380" lon="-3.5345570">
        <ele>540.6</ele>
        <time>2021-04-04T06:48:38Z</time>
      </trkpt>
      <trkpt lat="40.3317600" lon="-3.5346400">
        <ele>540.8</ele>
        <time>2021-04-04T06:48:39Z</time>
      </trkpt>
      <trkpt lat="40.3317870" lon="-3.5347210">
        <ele>540.8</ele>
        <time>2021-04-04T06:48:40Z</time>
      </trkpt>
      <trkpt lat="40.3318100" lon="-3.5348030">
        <ele>540.6</ele>
        <time>2021-04-04T06:48:41Z</time>
      </trkpt>
      <trkpt lat="40.3318330" lon="-3.5348840">
        <ele>540.6</ele>
        <time>2021-04-04T06:48:42Z</time>
      </trkpt>
      <trkpt lat="40.3318600" lon="-3.5349650">
        <ele>540.6</ele>
        <time>2021-04-04T06:48:43Z</time>
      </trkpt>
      <trkpt lat="40.3318830" lon="-3.5350480">
        <ele>540.6</ele>
        <time>2021-04-04T06:48:44Z</time>
      </trkpt>
      <trkpt lat="40.3319090" lon="-3.5351300">
        <ele>540.4</ele>
        <time>2021-04-04T06:48:45Z</time>
      </trkpt>
      <trkpt lat="40.3319320" lon="-3.5352140">
        <ele>540.4</ele>
        <time>2021-04-04T06:48:46Z</time>
      </trkpt>
      <trkpt lat="40.3319550" lon="-3.5352960">
        <ele>540.4</ele>
        <time>2021-04-04T06:48:47Z</time>
      </trkpt>
      <trkpt lat="40.3319780" lon="-3.5353810">
        <ele>540.4</ele>
        <time>2021-04-04T06:48:48Z</time>
      </trkpt>
      <trkpt lat="40.3320050" lon="-3.5354640">
        <ele>540.2</ele>
        <time>2021-04-04T06:48:49Z</time>
      </trkpt>
      <trkpt lat="40.3320310" lon="-3.5355460">
        <ele>540.2</ele>
        <time>2021-04-04T06:48:50Z</time>
      </trkpt>
      <trkpt lat="40.3320580" lon="-3.5356240">
        <ele>540.2</ele>
        <time>2021-04-04T06:48:51Z</time>
      </trkpt>
      <trkpt lat="40.3320920" lon="-3.5356940">
        <ele>540.2</ele>
        <time>2021-04-04T06:48:52Z</time>
      </trkpt>
      <trkpt lat="40.3321300" lon="-3.5357530">
        <ele>540.2</ele>
        <time>2021-04-04T06:48:53Z</time>
      </trkpt>
      <trkpt lat="40.3321760" lon="-3.5358030">
        <ele>540.2</ele>
        <time>2021-04-04T06:48:54Z</time>
      </trkpt>
      <trkpt lat="40.3322300" lon="-3.5358470">
        <ele>540.2</ele>
        <time>2021-04-04T06:48:55Z</time>
      </trkpt>
      <trkpt lat="40.3322870" lon="-3.5358870">
        <ele>540.2</ele>
        <time>2021-04-04T06:48:56Z</time>
      </trkpt>
      <trkpt lat="40.3323400" lon="-3.5359200">
        <ele>540.2</ele>
        <time>2021-04-04T06:48:57Z</time>
      </trkpt>
      <trkpt lat="40.3323940" lon="-3.5359470">
        <ele>540.4</ele>
        <time>2021-04-04T06:48:58Z</time>
      </trkpt>
      <trkpt lat="40.3324510" lon="-3.5359690">
        <ele>540.4</ele>
        <time>2021-04-04T06:48:59Z</time>
      </trkpt>
      <trkpt lat="40.3325080" lon="-3.5359850">
        <ele>540.4</ele>
        <time>2021-04-04T06:49:00Z</time>
      </trkpt>
      <trkpt lat="40.3325650" lon="-3.5360000">
        <ele>540.4</ele>
        <time>2021-04-04T06:49:01Z</time>
      </trkpt>
      <trkpt lat="40.3326190" lon="-3.5360130">
        <ele>540.4</ele>
        <time>2021-04-04T06:49:02Z</time>
      </trkpt>
      <trkpt lat="40.3326570" lon="-3.5360330">
        <ele>540.4</ele>
        <time>2021-04-04T06:49:03Z</time>
      </trkpt>
      <trkpt lat="40.3326870" lon="-3.5360640">
        <ele>540.6</ele>
        <time>2021-04-04T06:49:04Z</time>
      </trkpt>
      <trkpt lat="40.3327030" lon="-3.5361060">
        <ele>540.6</ele>
        <time>2021-04-04T06:49:05Z</time>
      </trkpt>
      <trkpt lat="40.3327140" lon="-3.5361540">
        <ele>540.6</ele>
        <time>2021-04-04T06:49:06Z</time>
      </trkpt>
      <trkpt lat="40.3327260" lon="-3.5362060">
        <ele>540.6</ele>
        <time>2021-04-04T06:49:07Z</time>
      </trkpt>
      <trkpt lat="40.3327330" lon="-3.5362590">
        <ele>540.6</ele>
        <time>2021-04-04T06:49:08Z</time>
      </trkpt>
      <trkpt lat="40.3327450" lon="-3.5363140">
        <ele>540.6</ele>
        <time>2021-04-04T06:49:09Z</time>
      </trkpt>
      <trkpt lat="40.3327600" lon="-3.5363700">
        <ele>540.6</ele>
        <time>2021-04-04T06:49:10Z</time>
      </trkpt>
      <trkpt lat="40.3327750" lon="-3.5364270">
        <ele>540.8</ele>
        <time>2021-04-04T06:49:11Z</time>
      </trkpt>
      <trkpt lat="40.3327900" lon="-3.5364880">
        <ele>540.8</ele>
        <time>2021-04-04T06:49:12Z</time>
      </trkpt>
      <trkpt lat="40.3328020" lon="-3.5365520">
        <ele>540.8</ele>
        <time>2021-04-04T06:49:13Z</time>
      </trkpt>
      <trkpt lat="40.3328130" lon="-3.5366200">
        <ele>540.8</ele>
        <time>2021-04-04T06:49:14Z</time>
      </trkpt>
      <trkpt lat="40.3328210" lon="-3.5366930">
        <ele>540.6</ele>
        <time>2021-04-04T06:49:15Z</time>
      </trkpt>
      <trkpt lat="40.3328280" lon="-3.5367680">
        <ele>540.6</ele>
        <time>2021-04-04T06:49:16Z</time>
      </trkpt>
      <trkpt lat="40.3328250" lon="-3.5368440">
        <ele>540.6</ele>
        <time>2021-04-04T06:49:17Z</time>
      </trkpt>
      <trkpt lat="40.3328170" lon="-3.5369230">
        <ele>540.4</ele>
        <time>2021-04-04T06:49:18Z</time>
      </trkpt>
      <trkpt lat="40.3328090" lon="-3.5370050">
        <ele>540.2</ele>
        <time>2021-04-04T06:49:19Z</time>
      </trkpt>
      <trkpt lat="40.3327940" lon="-3.5370880">
        <ele>540.0</ele>
        <time>2021-04-04T06:49:20Z</time>
      </trkpt>
      <trkpt lat="40.3327830" lon="-3.5371750">
        <ele>540.0</ele>
        <time>2021-04-04T06:49:21Z</time>
      </trkpt>
      <trkpt lat="40.3327670" lon="-3.5372600">
        <ele>539.8</ele>
        <time>2021-04-04T06:49:22Z</time>
      </trkpt>
      <trkpt lat="40.3327520" lon="-3.5373440">
        <ele>539.8</ele>
        <time>2021-04-04T06:49:23Z</time>
      </trkpt>
      <trkpt lat="40.3327370" lon="-3.5374290">
        <ele>539.8</ele>
        <time>2021-04-04T06:49:24Z</time>
      </trkpt>
      <trkpt lat="40.3327220" lon="-3.5375120">
        <ele>539.8</ele>
        <time>2021-04-04T06:49:25Z</time>
      </trkpt>
      <trkpt lat="40.3327060" lon="-3.5375950">
        <ele>539.8</ele>
        <time>2021-04-04T06:49:26Z</time>
      </trkpt>
      <trkpt lat="40.3326910" lon="-3.5376780">
        <ele>539.8</ele>
        <time>2021-04-04T06:49:27Z</time>
      </trkpt>
      <trkpt lat="40.3326760" lon="-3.5377600">
        <ele>539.8</ele>
        <time>2021-04-04T06:49:28Z</time>
      </trkpt>
      <trkpt lat="40.3326640" lon="-3.5378400">
        <ele>539.8</ele>
        <time>2021-04-04T06:49:29Z</time>
      </trkpt>
      <trkpt lat="40.3326490" lon="-3.5379200">
        <ele>540.0</ele>
        <time>2021-04-04T06:49:30Z</time>
      </trkpt>
      <trkpt lat="40.3326300" lon="-3.5380040">
        <ele>540.0</ele>
        <time>2021-04-04T06:49:31Z</time>
      </trkpt>
      <trkpt lat="40.3326110" lon="-3.5380870">
        <ele>540.0</ele>
        <time>2021-04-04T06:49:32Z</time>
      </trkpt>
      <trkpt lat="40.3325960" lon="-3.5381690">
        <ele>540.0</ele>
        <time>2021-04-04T06:49:33Z</time>
      </trkpt>
      <trkpt lat="40.3325810" lon="-3.5382490">
        <ele>540.2</ele>
        <time>2021-04-04T06:49:34Z</time>
      </trkpt>
      <trkpt lat="40.3325650" lon="-3.5383270">
        <ele>540.4</ele>
        <time>2021-04-04T06:49:35Z</time>
      </trkpt>
      <trkpt lat="40.3325460" lon="-3.5384060">
        <ele>540.6</ele>
        <time>2021-04-04T06:49:36Z</time>
      </trkpt>
      <trkpt lat="40.3325310" lon="-3.5384800">
        <ele>540.8</ele>
        <time>2021-04-04T06:49:37Z</time>
      </trkpt>
      <trkpt lat="40.3325160" lon="-3.5385530">
        <ele>541.0</ele>
        <time>2021-04-04T06:49:38Z</time>
      </trkpt>
      <trkpt lat="40.3325040" lon="-3.5386280">
        <ele>541.0</ele>
        <time>2021-04-04T06:49:39Z</time>
      </trkpt>
      <trkpt lat="40.3324890" lon="-3.5387060">
        <ele>541.0</ele>
        <time>2021-04-04T06:49:40Z</time>
      </trkpt>
      <trkpt lat="40.3324780" lon="-3.5387870">
        <ele>541.0</ele>
        <time>2021-04-04T06:49:41Z</time>
      </trkpt>
      <trkpt lat="40.3324620" lon="-3.5388740">
        <ele>540.8</ele>
        <time>2021-04-04T06:49:42Z</time>
      </trkpt>
      <trkpt lat="40.3324470" lon="-3.5389640">
        <ele>540.8</ele>
        <time>2021-04-04T06:49:43Z</time>
      </trkpt>
      <trkpt lat="40.3324360" lon="-3.5390580">
        <ele>540.6</ele>
        <time>2021-04-04T06:49:44Z</time>
      </trkpt>
      <trkpt lat="40.3324200" lon="-3.5391510">
        <ele>540.6</ele>
        <time>2021-04-04T06:49:45Z</time>
      </trkpt>
      <trkpt lat="40.3324090" lon="-3.5392440">
        <ele>540.4</ele>
        <time>2021-04-04T06:49:46Z</time>
      </trkpt>
      <trkpt lat="40.3323970" lon="-3.5393350">
        <ele>540.4</ele>
        <time>2021-04-04T06:49:47Z</time>
      </trkpt>
      <trkpt lat="40.3323860" lon="-3.5394240">
        <ele>540.4</ele>
        <time>2021-04-04T06:49:48Z</time>
      </trkpt>
      <trkpt lat="40.3323780" lon="-3.5395110">
        <ele>540.2</ele>
        <time>2021-04-04T06:49:49Z</time>
      </trkpt>
      <trkpt lat="40.3323670" lon="-3.5395970">
        <ele>540.2</ele>
        <time>2021-04-04T06:49:50Z</time>
      </trkpt>
      <trkpt lat="40.3323590" lon="-3.5396810">
        <ele>540.2</ele>
        <time>2021-04-04T06:49:51Z</time>
      </trkpt>
      <trkpt lat="40.3323440" lon="-3.5397660">
        <ele>540.2</ele>
        <time>2021-04-04T06:49:52Z</time>
      </trkpt>
      <trkpt lat="40.3323330" lon="-3.5398480">
        <ele>540.2</ele>
        <time>2021-04-04T06:49:53Z</time>
      </trkpt>
      <trkpt lat="40.3323170" lon="-3.5399290">
        <ele>540.4</ele>
        <time>2021-04-04T06:49:54Z</time>
      </trkpt>
      <trkpt lat="40.3323060" lon="-3.5400090">
        <ele>540.4</ele>
        <time>2021-04-04T06:49:55Z</time>
      </trkpt>
      <trkpt lat="40.3322940" lon="-3.5400900">
        <ele>540.4</ele>
        <time>2021-04-04T06:49:56Z</time>
      </trkpt>
      <trkpt lat="40.3322870" lon="-3.5401710">
        <ele>540.4</ele>
        <time>2021-04-04T06:49:57Z</time>
      </trkpt>
      <trkpt lat="40.3322750" lon="-3.5402500">
        <ele>540.4</ele>
        <time>2021-04-04T06:49:58Z</time>
      </trkpt>
      <trkpt lat="40.3322640" lon="-3.5403290">
        <ele>540.6</ele>
        <time>2021-04-04T06:49:59Z</time>
      </trkpt>
      <trkpt lat="40.3322520" lon="-3.5404080">
        <ele>540.6</ele>
        <time>2021-04-04T06:50:00Z</time>
      </trkpt>
      <trkpt lat="40.3322410" lon="-3.5404860">
        <ele>540.6</ele>
        <time>2021-04-04T06:50:01Z</time>
      </trkpt>
      <trkpt lat="40.3322300" lon="-3.5405660">
        <ele>540.8</ele>
        <time>2021-04-04T06:50:02Z</time>
      </trkpt>
      <trkpt lat="40.3322220" lon="-3.5406470">
        <ele>540.8</ele>
        <time>2021-04-04T06:50:03Z</time>
      </trkpt>
      <trkpt lat="40.3322110" lon="-3.5407270">
        <ele>540.8</ele>
        <time>2021-04-04T06:50:04Z</time>
      </trkpt>
      <trkpt lat="40.3321950" lon="-3.5408080">
        <ele>540.8</ele>
        <time>2021-04-04T06:50:05Z</time>
      </trkpt>
      <trkpt lat="40.3321800" lon="-3.5408890">
        <ele>540.8</ele>
        <time>2021-04-04T06:50:06Z</time>
      </trkpt>
      <trkpt lat="40.3321690" lon="-3.5409690">
        <ele>540.8</ele>
        <time>2021-04-04T06:50:07Z</time>
      </trkpt>
      <trkpt lat="40.3321530" lon="-3.5410490">
        <ele>540.8</ele>
        <time>2021-04-04T06:50:08Z</time>
      </trkpt>
      <trkpt lat="40.3321420" lon="-3.5411290">
        <ele>540.8</ele>
        <time>2021-04-04T06:50:09Z</time>
      </trkpt>
      <trkpt lat="40.3321300" lon="-3.5412070">
        <ele>541.0</ele>
        <time>2021-04-04T06:50:10Z</time>
      </trkpt>
      <trkpt lat="40.3321190" lon="-3.5412860">
        <ele>541.0</ele>
        <time>2021-04-04T06:50:11Z</time>
      </trkpt>
      <trkpt lat="40.3321080" lon="-3.5413670">
        <ele>541.0</ele>
        <time>2021-04-04T06:50:12Z</time>
      </trkpt>
      <trkpt lat="40.3320960" lon="-3.5414480">
        <ele>541.0</ele>
        <time>2021-04-04T06:50:13Z</time>
      </trkpt>
      <trkpt lat="40.3320810" lon="-3.5415290">
        <ele>540.8</ele>
        <time>2021-04-04T06:50:14Z</time>
      </trkpt>
      <trkpt lat="40.3320660" lon="-3.5416120">
        <ele>540.8</ele>
        <time>2021-04-04T06:50:15Z</time>
      </trkpt>
      <trkpt lat="40.3320500" lon="-3.5416950">
        <ele>540.6</ele>
        <time>2021-04-04T06:50:16Z</time>
      </trkpt>
      <trkpt lat="40.3320310" lon="-3.5417780">
        <ele>540.6</ele>
        <time>2021-04-04T06:50:17Z</time>
      </trkpt>
      <trkpt lat="40.3320160" lon="-3.5418620">
        <ele>540.6</ele>
        <time>2021-04-04T06:50:18Z</time>
      </trkpt>
      <trkpt lat="40.3320010" lon="-3.5419460">
        <ele>540.4</ele>
        <time>2021-04-04T06:50:19Z</time>
      </trkpt>
      <trkpt lat="40.3319850" lon="-3.5420300">
        <ele>540.4</ele>
        <time>2021-04-04T06:50:20Z</time>
      </trkpt>
      <trkpt lat="40.3319740" lon="-3.5421140">
        <ele>540.4</ele>
        <time>2021-04-04T06:50:21Z</time>
      </trkpt>
      <trkpt lat="40.3319630" lon="-3.5421980">
        <ele>540.2</ele>
        <time>2021-04-04T06:50:22Z</time>
      </trkpt>
      <trkpt lat="40.3319470" lon="-3.5422820">
        <ele>540.2</ele>
        <time>2021-04-04T06:50:23Z</time>
      </trkpt>
      <trkpt lat="40.3319320" lon="-3.5423660">
        <ele>540.2</ele>
        <time>2021-04-04T06:50:24Z</time>
      </trkpt>
      <trkpt lat="40.3319170" lon="-3.5424510">
        <ele>540.0</ele>
        <time>2021-04-04T06:50:25Z</time>
      </trkpt>
      <trkpt lat="40.3319050" lon="-3.5425340">
        <ele>540.0</ele>
        <time>2021-04-04T06:50:26Z</time>
      </trkpt>
      <trkpt lat="40.3318900" lon="-3.5426160">
        <ele>539.8</ele>
        <time>2021-04-04T06:50:27Z</time>
      </trkpt>
      <trkpt lat="40.3318790" lon="-3.5427040">
        <ele>539.8</ele>
        <time>2021-04-04T06:50:28Z</time>
      </trkpt>
      <trkpt lat="40.3318670" lon="-3.5427910">
        <ele>539.8</ele>
        <time>2021-04-04T06:50:29Z</time>
      </trkpt>
      <trkpt lat="40.3318520" lon="-3.5428760">
        <ele>539.6</ele>
        <time>2021-04-04T06:50:30Z</time>
      </trkpt>
      <trkpt lat="40.3318410" lon="-3.5429580">
        <ele>539.6</ele>
        <time>2021-04-04T06:50:31Z</time>
      </trkpt>
      <trkpt lat="40.3318290" lon="-3.5430410">
        <ele>539.6</ele>
        <time>2021-04-04T06:50:32Z</time>
      </trkpt>
      <trkpt lat="40.3318180" lon="-3.5431260">
        <ele>539.6</ele>
        <time>2021-04-04T06:50:33Z</time>
      </trkpt>
      <trkpt lat="40.3318060" lon="-3.5432100">
        <ele>539.6</ele>
        <time>2021-04-04T06:50:34Z</time>
      </trkpt>
      <trkpt lat="40.3317950" lon="-3.5432930">
        <ele>539.6</ele>
        <time>2021-04-04T06:50:35Z</time>
      </trkpt>
      <trkpt lat="40.3317870" lon="-3.5433750">
        <ele>539.6</ele>
        <time>2021-04-04T06:50:36Z</time>
      </trkpt>
      <trkpt lat="40.3317720" lon="-3.5434560">
        <ele>539.6</ele>
        <time>2021-04-04T06:50:37Z</time>
      </trkpt>
      <trkpt lat="40.3317600" lon="-3.5435360">
        <ele>539.8</ele>
        <time>2021-04-04T06:50:38Z</time>
      </trkpt>
      <trkpt lat="40.3317490" lon="-3.5436160">
        <ele>539.8</ele>
        <time>2021-04-04T06:50:39Z</time>
      </trkpt>
      <trkpt lat="40.3317380" lon="-3.5436960">
        <ele>539.8</ele>
        <time>2021-04-04T06:50:40Z</time>
      </trkpt>
      <trkpt lat="40.3317260" lon="-3.5437750">
        <ele>539.8</ele>
        <time>2021-04-04T06:50:41Z</time>
      </trkpt>
      <trkpt lat="40.3317180" lon="-3.5438530">
        <ele>540.0</ele>
        <time>2021-04-04T06:50:42Z</time>
      </trkpt>
      <trkpt lat="40.3317110" lon="-3.5439320">
        <ele>540.0</ele>
        <time>2021-04-04T06:50:43Z</time>
      </trkpt>
      <trkpt lat="40.3317070" lon="-3.5440100">
        <ele>540.0</ele>
        <time>2021-04-04T06:50:44Z</time>
      </trkpt>
      <trkpt lat="40.3316990" lon="-3.5440910">
        <ele>540.2</ele>
        <time>2021-04-04T06:50:45Z</time>
      </trkpt>
      <trkpt lat="40.3316920" lon="-3.5441720">
        <ele>540.2</ele>
        <time>2021-04-04T06:50:46Z</time>
      </trkpt>
      <trkpt lat="40.3316840" lon="-3.5442550">
        <ele>540.2</ele>
        <time>2021-04-04T06:50:47Z</time>
      </trkpt>
      <trkpt lat="40.3316800" lon="-3.5443380">
        <ele>540.2</ele>
        <time>2021-04-04T06:50:48Z</time>
      </trkpt>
      <trkpt lat="40.3316760" lon="-3.5444210">
        <ele>540.4</ele>
        <time>2021-04-04T06:50:49Z</time>
      </trkpt>
      <trkpt lat="40.3316690" lon="-3.5445050">
        <ele>540.4</ele>
        <time>2021-04-04T06:50:50Z</time>
      </trkpt>
      <trkpt lat="40.3316610" lon="-3.5445890">
        <ele>540.4</ele>
        <time>2021-04-04T06:50:51Z</time>
      </trkpt>
      <trkpt lat="40.3316540" lon="-3.5446710">
        <ele>540.4</ele>
        <time>2021-04-04T06:50:52Z</time>
      </trkpt>
      <trkpt lat="40.3316460" lon="-3.5447520">
        <ele>540.4</ele>
        <time>2021-04-04T06:50:53Z</time>
      </trkpt>
      <trkpt lat="40.3316380" lon="-3.5448360">
        <ele>540.6</ele>
        <time>2021-04-04T06:50:54Z</time>
      </trkpt>
      <trkpt lat="40.3316310" lon="-3.5449190">
        <ele>540.6</ele>
        <time>2021-04-04T06:50:55Z</time>
      </trkpt>
      <trkpt lat="40.3316230" lon="-3.5450020">
        <ele>540.8</ele>
        <time>2021-04-04T06:50:56Z</time>
      </trkpt>
      <trkpt lat="40.3316120" lon="-3.5450860">
        <ele>540.8</ele>
        <time>2021-04-04T06:50:57Z</time>
      </trkpt>
      <trkpt lat="40.3316040" lon="-3.5451710">
        <ele>541.0</ele>
        <time>2021-04-04T06:50:58Z</time>
      </trkpt>
      <trkpt lat="40.3315960" lon="-3.5452560">
        <ele>541.0</ele>
        <time>2021-04-04T06:50:59Z</time>
      </trkpt>
      <trkpt lat="40.3315890" lon="-3.5453400">
        <ele>541.2</ele>
        <time>2021-04-04T06:51:00Z</time>
      </trkpt>
      <trkpt lat="40.3315810" lon="-3.5454230">
        <ele>541.2</ele>
        <time>2021-04-04T06:51:01Z</time>
      </trkpt>
      <trkpt lat="40.3315730" lon="-3.5455050">
        <ele>541.4</ele>
        <time>2021-04-04T06:51:02Z</time>
      </trkpt>
      <trkpt lat="40.3315660" lon="-3.5455880">
        <ele>541.6</ele>
        <time>2021-04-04T06:51:03Z</time>
      </trkpt>
      <trkpt lat="40.3315620" lon="-3.5456730">
        <ele>541.8</ele>
        <time>2021-04-04T06:51:04Z</time>
      </trkpt>
      <trkpt lat="40.3315540" lon="-3.5457580">
        <ele>541.8</ele>
        <time>2021-04-04T06:51:05Z</time>
      </trkpt>
      <trkpt lat="40.3315390" lon="-3.5458410">
        <ele>542.0</ele>
        <time>2021-04-04T06:51:06Z</time>
      </trkpt>
      <trkpt lat="40.3315240" lon="-3.5459250">
        <ele>542.0</ele>
        <time>2021-04-04T06:51:07Z</time>
      </trkpt>
      <trkpt lat="40.3315050" lon="-3.5460080">
        <ele>542.2</ele>
        <time>2021-04-04T06:51:08Z</time>
      </trkpt>
      <trkpt lat="40.3314860" lon="-3.5460910">
        <ele>542.2</ele>
        <time>2021-04-04T06:51:09Z</time>
      </trkpt>
      <trkpt lat="40.3314590" lon="-3.5461700">
        <ele>542.4</ele>
        <time>2021-04-04T06:51:10Z</time>
      </trkpt>
      <trkpt lat="40.3314320" lon="-3.5462480">
        <ele>542.4</ele>
        <time>2021-04-04T06:51:11Z</time>
      </trkpt>
      <trkpt lat="40.3314020" lon="-3.5463250">
        <ele>542.4</ele>
        <time>2021-04-04T06:51:12Z</time>
      </trkpt>
      <trkpt lat="40.3313750" lon="-3.5464030">
        <ele>542.6</ele>
        <time>2021-04-04T06:51:13Z</time>
      </trkpt>
      <trkpt lat="40.3313480" lon="-3.5464810">
        <ele>542.6</ele>
        <time>2021-04-04T06:51:14Z</time>
      </trkpt>
      <trkpt lat="40.3313140" lon="-3.5465580">
        <ele>542.8</ele>
        <time>2021-04-04T06:51:15Z</time>
      </trkpt>
      <trkpt lat="40.3312840" lon="-3.5466310">
        <ele>542.8</ele>
        <time>2021-04-04T06:51:16Z</time>
      </trkpt>
      <trkpt lat="40.3312530" lon="-3.5467040">
        <ele>543.0</ele>
        <time>2021-04-04T06:51:17Z</time>
      </trkpt>
      <trkpt lat="40.3312190" lon="-3.5467780">
        <ele>543.2</ele>
        <time>2021-04-04T06:51:18Z</time>
      </trkpt>
      <trkpt lat="40.3311840" lon="-3.5468530">
        <ele>543.2</ele>
        <time>2021-04-04T06:51:19Z</time>
      </trkpt>
      <trkpt lat="40.3311500" lon="-3.5469310">
        <ele>543.2</ele>
        <time>2021-04-04T06:51:20Z</time>
      </trkpt>
      <trkpt lat="40.3311120" lon="-3.5470060">
        <ele>543.2</ele>
        <time>2021-04-04T06:51:21Z</time>
      </trkpt>
      <trkpt lat="40.3310810" lon="-3.5470780">
        <ele>543.4</ele>
        <time>2021-04-04T06:51:22Z</time>
      </trkpt>
      <trkpt lat="40.3310470" lon="-3.5471500">
        <ele>543.4</ele>
        <time>2021-04-04T06:51:23Z</time>
      </trkpt>
      <trkpt lat="40.3310090" lon="-3.5472250">
        <ele>543.4</ele>
        <time>2021-04-04T06:51:24Z</time>
      </trkpt>
      <trkpt lat="40.3309710" lon="-3.5472990">
        <ele>543.6</ele>
        <time>2021-04-04T06:51:25Z</time>
      </trkpt>
      <trkpt lat="40.3309400" lon="-3.5473750">
        <ele>543.6</ele>
        <time>2021-04-04T06:51:26Z</time>
      </trkpt>
      <trkpt lat="40.3309100" lon="-3.5474510">
        <ele>543.6</ele>
        <time>2021-04-04T06:51:27Z</time>
      </trkpt>
      <trkpt lat="40.3308750" lon="-3.5475250">
        <ele>543.8</ele>
        <time>2021-04-04T06:51:28Z</time>
      </trkpt>
      <trkpt lat="40.3308410" lon="-3.5476010">
        <ele>543.8</ele>
        <time>2021-04-04T06:51:29Z</time>
      </trkpt>
      <trkpt lat="40.3308110" lon="-3.5476800">
        <ele>543.8</ele>
        <time>2021-04-04T06:51:30Z</time>
      </trkpt>
      <trkpt lat="40.3307800" lon="-3.5477600">
        <ele>543.6</ele>
        <time>2021-04-04T06:51:31Z</time>
      </trkpt>
      <trkpt lat="40.3307570" lon="-3.5478430">
        <ele>543.6</ele>
        <time>2021-04-04T06:51:32Z</time>
      </trkpt>
      <trkpt lat="40.3307340" lon="-3.5479290">
        <ele>543.6</ele>
        <time>2021-04-04T06:51:33Z</time>
      </trkpt>
      <trkpt lat="40.3307110" lon="-3.5480180">
        <ele>543.4</ele>
        <time>2021-04-04T06:51:34Z</time>
      </trkpt>
      <trkpt lat="40.3306920" lon="-3.5481090">
        <ele>543.4</ele>
        <time>2021-04-04T06:51:35Z</time>
      </trkpt>
      <trkpt lat="40.3306730" lon="-3.5482000">
        <ele>543.2</ele>
        <time>2021-04-04T06:51:36Z</time>
      </trkpt>
      <trkpt lat="40.3306500" lon="-3.5482890">
        <ele>543.0</ele>
        <time>2021-04-04T06:51:37Z</time>
      </trkpt>
      <trkpt lat="40.3306240" lon="-3.5483750">
        <ele>543.0</ele>
        <time>2021-04-04T06:51:38Z</time>
      </trkpt>
      <trkpt lat="40.3305970" lon="-3.5484610">
        <ele>542.8</ele>
        <time>2021-04-04T06:51:39Z</time>
      </trkpt>
      <trkpt lat="40.3305630" lon="-3.5485410">
        <ele>542.8</ele>
        <time>2021-04-04T06:51:40Z</time>
      </trkpt>
      <trkpt lat="40.3305240" lon="-3.5486160">
        <ele>542.8</ele>
        <time>2021-04-04T06:51:41Z</time>
      </trkpt>
      <trkpt lat="40.3304860" lon="-3.5486900">
        <ele>542.8</ele>
        <time>2021-04-04T06:51:42Z</time>
      </trkpt>
      <trkpt lat="40.3304520" lon="-3.5487650">
        <ele>542.8</ele>
        <time>2021-04-04T06:51:43Z</time>
      </trkpt>
      <trkpt lat="40.3304180" lon="-3.5488380">
        <ele>543.0</ele>
        <time>2021-04-04T06:51:44Z</time>
      </trkpt>
      <trkpt lat="40.3303830" lon="-3.5489140">
        <ele>543.0</ele>
        <time>2021-04-04T06:51:45Z</time>
      </trkpt>
      <trkpt lat="40.3303490" lon="-3.5489890">
        <ele>543.0</ele>
        <time>2021-04-04T06:51:46Z</time>
      </trkpt>
      <trkpt lat="40.3303150" lon="-3.5490630">
        <ele>543.2</ele>
        <time>2021-04-04T06:51:47Z</time>
      </trkpt>
      <trkpt lat="40.3302800" lon="-3.5491340">
        <ele>543.4</ele>
        <time>2021-04-04T06:51:48Z</time>
      </trkpt>
      <trkpt lat="40.3302500" lon="-3.5492030">
        <ele>543.4</ele>
        <time>2021-04-04T06:51:49Z</time>
      </trkpt>
      <trkpt lat="40.3302150" lon="-3.5492760">
        <ele>543.4</ele>
        <time>2021-04-04T06:51:50Z</time>
      </trkpt>
      <trkpt lat="40.3301850" lon="-3.5493500">
        <ele>543.4</ele>
        <time>2021-04-04T06:51:51Z</time>
      </trkpt>
      <trkpt lat="40.3301510" lon="-3.5494240">
        <ele>543.4</ele>
        <time>2021-04-04T06:51:52Z</time>
      </trkpt>
      <trkpt lat="40.3301120" lon="-3.5494980">
        <ele>543.2</ele>
        <time>2021-04-04T06:51:53Z</time>
      </trkpt>
      <trkpt lat="40.3300740" lon="-3.5495720">
        <ele>543.2</ele>
        <time>2021-04-04T06:51:54Z</time>
      </trkpt>
      <trkpt lat="40.3300360" lon="-3.5496460">
        <ele>543.0</ele>
        <time>2021-04-04T06:51:55Z</time>
      </trkpt>
      <trkpt lat="40.3299980" lon="-3.5497210">
        <ele>542.8</ele>
        <time>2021-04-04T06:51:56Z</time>
      </trkpt>
      <trkpt lat="40.3299600" lon="-3.5497960">
        <ele>542.8</ele>
        <time>2021-04-04T06:51:57Z</time>
      </trkpt>
      <trkpt lat="40.3299220" lon="-3.5498710">
        <ele>542.6</ele>
        <time>2021-04-04T06:51:58Z</time>
      </trkpt>
      <trkpt lat="40.3298800" lon="-3.5499460">
        <ele>542.6</ele>
        <time>2021-04-04T06:51:59Z</time>
      </trkpt>
      <trkpt lat="40.3298380" lon="-3.5500220">
        <ele>542.4</ele>
        <time>2021-04-04T06:52:00Z</time>
      </trkpt>
      <trkpt lat="40.3297920" lon="-3.5500990">
        <ele>542.2</ele>
        <time>2021-04-04T06:52:01Z</time>
      </trkpt>
      <trkpt lat="40.3297500" lon="-3.5501760">
        <ele>542.2</ele>
        <time>2021-04-04T06:52:02Z</time>
      </trkpt>
      <trkpt lat="40.3297080" lon="-3.5502540">
        <ele>542.0</ele>
        <time>2021-04-04T06:52:03Z</time>
      </trkpt>
      <trkpt lat="40.3296620" lon="-3.5503320">
        <ele>541.8</ele>
        <time>2021-04-04T06:52:04Z</time>
      </trkpt>
      <trkpt lat="40.3296170" lon="-3.5504090">
        <ele>541.6</ele>
        <time>2021-04-04T06:52:05Z</time>
      </trkpt>
      <trkpt lat="40.3295750" lon="-3.5504840">
        <ele>541.6</ele>
        <time>2021-04-04T06:52:06Z</time>
      </trkpt>
      <trkpt lat="40.3295330" lon="-3.5505590">
        <ele>541.4</ele>
        <time>2021-04-04T06:52:07Z</time>
      </trkpt>
      <trkpt lat="40.3294830" lon="-3.5506330">
        <ele>541.4</ele>
        <time>2021-04-04T06:52:08Z</time>
      </trkpt>
      <trkpt lat="40.3294370" lon="-3.5507050">
        <ele>541.4</ele>
        <time>2021-04-04T06:52:09Z</time>
      </trkpt>
      <trkpt lat="40.3293910" lon="-3.5507790">
        <ele>541.4</ele>
        <time>2021-04-04T06:52:10Z</time>
      </trkpt>
      <trkpt lat="40.3293460" lon="-3.5508500">
        <ele>541.4</ele>
        <time>2021-04-04T06:52:11Z</time>
      </trkpt>
      <trkpt lat="40.3293000" lon="-3.5509190">
        <ele>541.4</ele>
        <time>2021-04-04T06:52:12Z</time>
      </trkpt>
      <trkpt lat="40.3292500" lon="-3.5509880">
        <ele>541.4</ele>
        <time>2021-04-04T06:52:13Z</time>
      </trkpt>
      <trkpt lat="40.3292050" lon="-3.5510550">
        <ele>541.4</ele>
        <time>2021-04-04T06:52:14Z</time>
      </trkpt>
      <trkpt lat="40.3291590" lon="-3.5511200">
        <ele>541.4</ele>
        <time>2021-04-04T06:52:15Z</time>
      </trkpt>
      <trkpt lat="40.3291090" lon="-3.5511850">
        <ele>541.4</ele>
        <time>2021-04-04T06:52:16Z</time>
      </trkpt>
      <trkpt lat="40.3290630" lon="-3.5512500">
        <ele>541.6</ele>
        <time>2021-04-04T06:52:17Z</time>
      </trkpt>
      <trkpt lat="40.3290210" lon="-3.5513110">
        <ele>541.6</ele>
        <time>2021-04-04T06:52:18Z</time>
      </trkpt>
      <trkpt lat="40.3289760" lon="-3.5513730">
        <ele>541.6</ele>
        <time>2021-04-04T06:52:19Z</time>
      </trkpt>
      <trkpt lat="40.3289300" lon="-3.5514400">
        <ele>541.6</ele>
        <time>2021-04-04T06:52:20Z</time>
      </trkpt>
      <trkpt lat="40.3288880" lon="-3.5515080">
        <ele>541.8</ele>
        <time>2021-04-04T06:52:21Z</time>
      </trkpt>
      <trkpt lat="40.3288500" lon="-3.5515750">
        <ele>541.8</ele>
        <time>2021-04-04T06:52:22Z</time>
      </trkpt>
      <trkpt lat="40.3288080" lon="-3.5516450">
        <ele>541.8</ele>
        <time>2021-04-04T06:52:23Z</time>
      </trkpt>
      <trkpt lat="40.3287730" lon="-3.5517160">
        <ele>542.0</ele>
        <time>2021-04-04T06:52:24Z</time>
      </trkpt>
      <trkpt lat="40.3287390" lon="-3.5517900">
        <ele>542.0</ele>
        <time>2021-04-04T06:52:25Z</time>
      </trkpt>
      <trkpt lat="40.3287010" lon="-3.5518620">
        <ele>542.0</ele>
        <time>2021-04-04T06:52:26Z</time>
      </trkpt>
      <trkpt lat="40.3286670" lon="-3.5519350">
        <ele>542.0</ele>
        <time>2021-04-04T06:52:27Z</time>
      </trkpt>
      <trkpt lat="40.3286360" lon="-3.5520070">
        <ele>542.0</ele>
        <time>2021-04-04T06:52:28Z</time>
      </trkpt>
      <trkpt lat="40.3285980" lon="-3.5520790">
        <ele>542.0</ele>
        <time>2021-04-04T06:52:29Z</time>
      </trkpt>
      <trkpt lat="40.3285640" lon="-3.5521530">
        <ele>542.0</ele>
        <time>2021-04-04T06:52:30Z</time>
      </trkpt>
      <trkpt lat="40.3285290" lon="-3.5522270">
        <ele>542.0</ele>
        <time>2021-04-04T06:52:31Z</time>
      </trkpt>
      <trkpt lat="40.3284990" lon="-3.5523000">
        <ele>542.0</ele>
        <time>2021-04-04T06:52:32Z</time>
      </trkpt>
      <trkpt lat="40.3284680" lon="-3.5523740">
        <ele>542.0</ele>
        <time>2021-04-04T06:52:33Z</time>
      </trkpt>
      <trkpt lat="40.3284340" lon="-3.5524490">
        <ele>542.2</ele>
        <time>2021-04-04T06:52:34Z</time>
      </trkpt>
      <trkpt lat="40.3284030" lon="-3.5525240">
        <ele>542.2</ele>
        <time>2021-04-04T06:52:35Z</time>
      </trkpt>
      <trkpt lat="40.3283770" lon="-3.5526000">
        <ele>542.2</ele>
        <time>2021-04-04T06:52:36Z</time>
      </trkpt>
      <trkpt lat="40.3283460" lon="-3.5526750">
        <ele>542.2</ele>
        <time>2021-04-04T06:52:37Z</time>
      </trkpt>
      <trkpt lat="40.3283160" lon="-3.5527490">
        <ele>542.2</ele>
        <time>2021-04-04T06:52:38Z</time>
      </trkpt>
      <trkpt lat="40.3282810" lon="-3.5528250">
        <ele>542.0</ele>
        <time>2021-04-04T06:52:39Z</time>
      </trkpt>
      <trkpt lat="40.3282430" lon="-3.5528960">
        <ele>542.0</ele>
        <time>2021-04-04T06:52:40Z</time>
      </trkpt>
      <trkpt lat="40.3282010" lon="-3.5529650">
        <ele>542.0</ele>
        <time>2021-04-04T06:52:41Z</time>
      </trkpt>
      <trkpt lat="40.3281520" lon="-3.5530330">
        <ele>542.0</ele>
        <time>2021-04-04T06:52:42Z</time>
      </trkpt>
      <trkpt lat="40.3281060" lon="-3.5530940">
        <ele>542.0</ele>
        <time>2021-04-04T06:52:43Z</time>
      </trkpt>
      <trkpt lat="40.3280600" lon="-3.5531530">
        <ele>542.0</ele>
        <time>2021-04-04T06:52:44Z</time>
      </trkpt>
      <trkpt lat="40.3280110" lon="-3.5532140">
        <ele>542.0</ele>
        <time>2021-04-04T06:52:45Z</time>
      </trkpt>
      <trkpt lat="40.3279650" lon="-3.5532720">
        <ele>542.2</ele>
        <time>2021-04-04T06:52:46Z</time>
      </trkpt>
      <trkpt lat="40.3279230" lon="-3.5533310">
        <ele>542.2</ele>
        <time>2021-04-04T06:52:47Z</time>
      </trkpt>
      <trkpt lat="40.3278810" lon="-3.5533890">
        <ele>542.2</ele>
        <time>2021-04-04T06:52:48Z</time>
      </trkpt>
      <trkpt lat="40.3278430" lon="-3.5534500">
        <ele>542.4</ele>
        <time>2021-04-04T06:52:49Z</time>
      </trkpt>
      <trkpt lat="40.3278010" lon="-3.5535120">
        <ele>542.4</ele>
        <time>2021-04-04T06:52:50Z</time>
      </trkpt>
      <trkpt lat="40.3277630" lon="-3.5535750">
        <ele>542.4</ele>
        <time>2021-04-04T06:52:51Z</time>
      </trkpt>
      <trkpt lat="40.3277240" lon="-3.5536370">
        <ele>542.4</ele>
        <time>2021-04-04T06:52:52Z</time>
      </trkpt>
      <trkpt lat="40.3276860" lon="-3.5536990">
        <ele>542.4</ele>
        <time>2021-04-04T06:52:53Z</time>
      </trkpt>
      <trkpt lat="40.3276440" lon="-3.5537620">
        <ele>542.4</ele>
        <time>2021-04-04T06:52:54Z</time>
      </trkpt>
      <trkpt lat="40.3276060" lon="-3.5538250">
        <ele>542.4</ele>
        <time>2021-04-04T06:52:55Z</time>
      </trkpt>
      <trkpt lat="40.3275680" lon="-3.5538880">
        <ele>542.4</ele>
        <time>2021-04-04T06:52:56Z</time>
      </trkpt>
      <trkpt lat="40.3275260" lon="-3.5539470">
        <ele>542.4</ele>
        <time>2021-04-04T06:52:57Z</time>
      </trkpt>
      <trkpt lat="40.3274800" lon="-3.5540030">
        <ele>542.4</ele>
        <time>2021-04-04T06:52:58Z</time>
      </trkpt>
      <trkpt lat="40.3274380" lon="-3.5540580">
        <ele>542.4</ele>
        <time>2021-04-04T06:52:59Z</time>
      </trkpt>
      <trkpt lat="40.3273960" lon="-3.5541120">
        <ele>542.6</ele>
        <time>2021-04-04T06:53:00Z</time>
      </trkpt>
      <trkpt lat="40.3273510" lon="-3.5541690">
        <ele>542.6</ele>
        <time>2021-04-04T06:53:01Z</time>
      </trkpt>
      <trkpt lat="40.3273090" lon="-3.5542250">
        <ele>542.6</ele>
        <time>2021-04-04T06:53:02Z</time>
      </trkpt>
      <trkpt lat="40.3272670" lon="-3.5542780">
        <ele>542.6</ele>
        <time>2021-04-04T06:53:03Z</time>
      </trkpt>
      <trkpt lat="40.3272210" lon="-3.5543320">
        <ele>542.4</ele>
        <time>2021-04-04T06:53:04Z</time>
      </trkpt>
      <trkpt lat="40.3271710" lon="-3.5543940">
        <ele>542.4</ele>
        <time>2021-04-04T06:53:05Z</time>
      </trkpt>
      <trkpt lat="40.3271260" lon="-3.5544500">
        <ele>542.4</ele>
        <time>2021-04-04T06:53:06Z</time>
      </trkpt>
      <trkpt lat="40.3270760" lon="-3.5545050">
        <ele>542.4</ele>
        <time>2021-04-04T06:53:07Z</time>
      </trkpt>
      <trkpt lat="40.3270300" lon="-3.5545610">
        <ele>542.2</ele>
        <time>2021-04-04T06:53:08Z</time>
      </trkpt>
      <trkpt lat="40.3269810" lon="-3.5546160">
        <ele>542.2</ele>
        <time>2021-04-04T06:53:09Z</time>
      </trkpt>
      <trkpt lat="40.3269350" lon="-3.5546690">
        <ele>542.2</ele>
        <time>2021-04-04T06:53:10Z</time>
      </trkpt>
      <trkpt lat="40.3268890" lon="-3.5547260">
        <ele>542.2</ele>
        <time>2021-04-04T06:53:11Z</time>
      </trkpt>
      <trkpt lat="40.3268430" lon="-3.5547830">
        <ele>542.2</ele>
        <time>2021-04-04T06:53:12Z</time>
      </trkpt>
      <trkpt lat="40.3267970" lon="-3.5548370">
        <ele>542.2</ele>
        <time>2021-04-04T06:53:13Z</time>
      </trkpt>
      <trkpt lat="40.3267480" lon="-3.5548910">
        <ele>542.2</ele>
        <time>2021-04-04T06:53:14Z</time>
      </trkpt>
      <trkpt lat="40.3266980" lon="-3.5549450">
        <ele>542.0</ele>
        <time>2021-04-04T06:53:15Z</time>
      </trkpt>
      <trkpt lat="40.3266530" lon="-3.5550000">
        <ele>542.0</ele>
        <time>2021-04-04T06:53:16Z</time>
      </trkpt>
      <trkpt lat="40.3266030" lon="-3.5550530">
        <ele>542.0</ele>
        <time>2021-04-04T06:53:17Z</time>
      </trkpt>
      <trkpt lat="40.3265570" lon="-3.5551050">
        <ele>542.0</ele>
        <time>2021-04-04T06:53:18Z</time>
      </trkpt>
      <trkpt lat="40.3265110" lon="-3.5551590">
        <ele>542.0</ele>
        <time>2021-04-04T06:53:19Z</time>
      </trkpt>
      <trkpt lat="40.3264660" lon="-3.5552120">
        <ele>542.2</ele>
        <time>2021-04-04T06:53:20Z</time>
      </trkpt>
      <trkpt lat="40.3264200" lon="-3.5552660">
        <ele>542.2</ele>
        <time>2021-04-04T06:53:21Z</time>
      </trkpt>
      <trkpt lat="40.3263740" lon="-3.5553200">
        <ele>542.2</ele>
        <time>2021-04-04T06:53:22Z</time>
      </trkpt>
      <trkpt lat="40.3263280" lon="-3.5553760">
        <ele>542.2</ele>
        <time>2021-04-04T06:53:23Z</time>
      </trkpt>
      <trkpt lat="40.3262860" lon="-3.5554330">
        <ele>542.2</ele>
        <time>2021-04-04T06:53:24Z</time>
      </trkpt>
      <trkpt lat="40.3262440" lon="-3.5554920">
        <ele>542.4</ele>
        <time>2021-04-04T06:53:25Z</time>
      </trkpt>
      <trkpt lat="40.3262020" lon="-3.5555500">
        <ele>542.4</ele>
        <time>2021-04-04T06:53:26Z</time>
      </trkpt>
      <trkpt lat="40.3261570" lon="-3.5556060">
        <ele>542.4</ele>
        <time>2021-04-04T06:53:27Z</time>
      </trkpt>
      <trkpt lat="40.3261150" lon="-3.5556610">
        <ele>542.4</ele>
        <time>2021-04-04T06:53:28Z</time>
      </trkpt>
      <trkpt lat="40.3260770" lon="-3.5557150">
        <ele>542.6</ele>
        <time>2021-04-04T06:53:29Z</time>
      </trkpt>
      <trkpt lat="40.3260350" lon="-3.5557690">
        <ele>542.6</ele>
        <time>2021-04-04T06:53:30Z</time>
      </trkpt>
      <trkpt lat="40.3259960" lon="-3.5558230">
        <ele>542.8</ele>
        <time>2021-04-04T06:53:31Z</time>
      </trkpt>
      <trkpt lat="40.3259540" lon="-3.5558750">
        <ele>542.8</ele>
        <time>2021-04-04T06:53:32Z</time>
      </trkpt>
      <trkpt lat="40.3259120" lon="-3.5559270">
        <ele>543.0</ele>
        <time>2021-04-04T06:53:33Z</time>
      </trkpt>
      <trkpt lat="40.3258740" lon="-3.5559810">
        <ele>543.0</ele>
        <time>2021-04-04T06:53:34Z</time>
      </trkpt>
      <trkpt lat="40.3258320" lon="-3.5560370">
        <ele>543.0</ele>
        <time>2021-04-04T06:53:35Z</time>
      </trkpt>
      <trkpt lat="40.3257900" lon="-3.5560920">
        <ele>543.0</ele>
        <time>2021-04-04T06:53:36Z</time>
      </trkpt>
      <trkpt lat="40.3257480" lon="-3.5561480">
        <ele>542.8</ele>
        <time>2021-04-04T06:53:37Z</time>
      </trkpt>
      <trkpt lat="40.3257060" lon="-3.5562010">
        <ele>542.8</ele>
        <time>2021-04-04T06:53:38Z</time>
      </trkpt>
      <trkpt lat="40.3256570" lon="-3.5562560">
        <ele>542.8</ele>
        <time>2021-04-04T06:53:39Z</time>
      </trkpt>
      <trkpt lat="40.3256150" lon="-3.5563110">
        <ele>542.8</ele>
        <time>2021-04-04T06:53:40Z</time>
      </trkpt>
      <trkpt lat="40.3255690" lon="-3.5563630">
        <ele>542.8</ele>
        <time>2021-04-04T06:53:41Z</time>
      </trkpt>
      <trkpt lat="40.3255270" lon="-3.5564170">
        <ele>542.8</ele>
        <time>2021-04-04T06:53:42Z</time>
      </trkpt>
      <trkpt lat="40.3254890" lon="-3.5564730">
        <ele>543.0</ele>
        <time>2021-04-04T06:53:43Z</time>
      </trkpt>
      <trkpt lat="40.3254550" lon="-3.5565300">
        <ele>543.0</ele>
        <time>2021-04-04T06:53:44Z</time>
      </trkpt>
      <trkpt lat="40.3254170" lon="-3.5565890">
        <ele>543.0</ele>
        <time>2021-04-04T06:53:45Z</time>
      </trkpt>
      <trkpt lat="40.3253820" lon="-3.5566450">
        <ele>543.2</ele>
        <time>2021-04-04T06:53:46Z</time>
      </trkpt>
      <trkpt lat="40.3253440" lon="-3.5567010">
        <ele>543.2</ele>
        <time>2021-04-04T06:53:47Z</time>
      </trkpt>
      <trkpt lat="40.3253060" lon="-3.5567560">
        <ele>543.2</ele>
        <time>2021-04-04T06:53:48Z</time>
      </trkpt>
      <trkpt lat="40.3252640" lon="-3.5568130">
        <ele>543.0</ele>
        <time>2021-04-04T06:53:49Z</time>
      </trkpt>
      <trkpt lat="40.3252220" lon="-3.5568720">
        <ele>543.0</ele>
        <time>2021-04-04T06:53:50Z</time>
      </trkpt>
      <trkpt lat="40.3251840" lon="-3.5569280">
        <ele>542.8</ele>
        <time>2021-04-04T06:53:51Z</time>
      </trkpt>
      <trkpt lat="40.3251420" lon="-3.5569840">
        <ele>542.8</ele>
        <time>2021-04-04T06:53:52Z</time>
      </trkpt>
      <trkpt lat="40.3251000" lon="-3.5570400">
        <ele>542.6</ele>
        <time>2021-04-04T06:53:53Z</time>
      </trkpt>
      <trkpt lat="40.3250580" lon="-3.5570960">
        <ele>542.4</ele>
        <time>2021-04-04T06:53:54Z</time>
      </trkpt>
      <trkpt lat="40.3250200" lon="-3.5571510">
        <ele>542.4</ele>
        <time>2021-04-04T06:53:55Z</time>
      </trkpt>
      <trkpt lat="40.3249780" lon="-3.5572030">
        <ele>542.2</ele>
        <time>2021-04-04T06:53:56Z</time>
      </trkpt>
      <trkpt lat="40.3249280" lon="-3.5572560">
        <ele>542.0</ele>
        <time>2021-04-04T06:53:57Z</time>
      </trkpt>
      <trkpt lat="40.3248830" lon="-3.5573080">
        <ele>541.8</ele>
        <time>2021-04-04T06:53:58Z</time>
      </trkpt>
      <trkpt lat="40.3248370" lon="-3.5573580">
        <ele>541.4</ele>
        <time>2021-04-04T06:53:59Z</time>
      </trkpt>
      <trkpt lat="40.3247830" lon="-3.5574020">
        <ele>541.2</ele>
        <time>2021-04-04T06:54:00Z</time>
      </trkpt>
      <trkpt lat="40.3247260" lon="-3.5574350">
        <ele>541.0</ele>
        <time>2021-04-04T06:54:01Z</time>
      </trkpt>
      <trkpt lat="40.3246730" lon="-3.5574580">
        <ele>540.6</ele>
        <time>2021-04-04T06:54:02Z</time>
      </trkpt>
      <trkpt lat="40.3246230" lon="-3.5574700">
        <ele>540.4</ele>
        <time>2021-04-04T06:54:03Z</time>
      </trkpt>
      <trkpt lat="40.3245810" lon="-3.5574700">
        <ele>540.2</ele>
        <time>2021-04-04T06:54:04Z</time>
      </trkpt>
      <trkpt lat="40.3245430" lon="-3.5574630">
        <ele>540.2</ele>
        <time>2021-04-04T06:54:05Z</time>
      </trkpt>
      <trkpt lat="40.3245090" lon="-3.5574560">
        <ele>540.0</ele>
        <time>2021-04-04T06:54:06Z</time>
      </trkpt>
      <trkpt lat="40.3244780" lon="-3.5574580">
        <ele>539.8</ele>
        <time>2021-04-04T06:54:07Z</time>
      </trkpt>
      <trkpt lat="40.3244510" lon="-3.5574720">
        <ele>539.8</ele>
        <time>2021-04-04T06:54:08Z</time>
      </trkpt>
      <trkpt lat="40.3244320" lon="-3.5574960">
        <ele>539.8</ele>
        <time>2021-04-04T06:54:09Z</time>
      </trkpt>
      <trkpt lat="40.3244250" lon="-3.5575300">
        <ele>539.6</ele>
        <time>2021-04-04T06:54:10Z</time>
      </trkpt>
      <trkpt lat="40.3244250" lon="-3.5575710">
        <ele>539.6</ele>
        <time>2021-04-04T06:54:11Z</time>
      </trkpt>
      <trkpt lat="40.3244320" lon="-3.5576140">
        <ele>539.6</ele>
        <time>2021-04-04T06:54:12Z</time>
      </trkpt>
      <trkpt lat="40.3244440" lon="-3.5576590">
        <ele>539.6</ele>
        <time>2021-04-04T06:54:13Z</time>
      </trkpt>
      <trkpt lat="40.3244550" lon="-3.5577070">
        <ele>539.6</ele>
        <time>2021-04-04T06:54:14Z</time>
      </trkpt>
      <trkpt lat="40.3244630" lon="-3.5577650">
        <ele>539.8</ele>
        <time>2021-04-04T06:54:15Z</time>
      </trkpt>
      <trkpt lat="40.3244710" lon="-3.5578260">
        <ele>539.8</ele>
        <time>2021-04-04T06:54:16Z</time>
      </trkpt>
      <trkpt lat="40.3244780" lon="-3.5578870">
        <ele>539.8</ele>
        <time>2021-04-04T06:54:17Z</time>
      </trkpt>
      <trkpt lat="40.3244860" lon="-3.5579460">
        <ele>539.8</ele>
        <time>2021-04-04T06:54:18Z</time>
      </trkpt>
      <trkpt lat="40.3244900" lon="-3.5580030">
        <ele>540.0</ele>
        <time>2021-04-04T06:54:19Z</time>
      </trkpt>
      <trkpt lat="40.3244860" lon="-3.5580590">
        <ele>540.2</ele>
        <time>2021-04-04T06:54:20Z</time>
      </trkpt>
      <trkpt lat="40.3244740" lon="-3.5581130">
        <ele>540.4</ele>
        <time>2021-04-04T06:54:21Z</time>
      </trkpt>
      <trkpt lat="40.3244590" lon="-3.5581640">
        <ele>540.6</ele>
        <time>2021-04-04T06:54:22Z</time>
      </trkpt>
      <trkpt lat="40.3244440" lon="-3.5582130">
        <ele>541.0</ele>
        <time>2021-04-04T06:54:23Z</time>
      </trkpt>
      <trkpt lat="40.3244290" lon="-3.5582600">
        <ele>541.2</ele>
        <time>2021-04-04T06:54:24Z</time>
      </trkpt>
      <trkpt lat="40.3244060" lon="-3.5583100">
        <ele>541.4</ele>
        <time>2021-04-04T06:54:25Z</time>
      </trkpt>
      <trkpt lat="40.3243870" lon="-3.5583590">
        <ele>541.8</ele>
        <time>2021-04-04T06:54:26Z</time>
      </trkpt>
      <trkpt lat="40.3243680" lon="-3.5584080">
        <ele>542.0</ele>
        <time>2021-04-04T06:54:27Z</time>
      </trkpt>
      <trkpt lat="40.3243450" lon="-3.5584550">
        <ele>542.2</ele>
        <time>2021-04-04T06:54:28Z</time>
      </trkpt>
      <trkpt lat="40.3243180" lon="-3.5585030">
        <ele>542.6</ele>
        <time>2021-04-04T06:54:29Z</time>
      </trkpt>
      <trkpt lat="40.3242910" lon="-3.5585520">
        <ele>542.8</ele>
        <time>2021-04-04T06:54:30Z</time>
      </trkpt>
      <trkpt lat="40.3242650" lon="-3.5586040">
        <ele>543.0</ele>
        <time>2021-04-04T06:54:31Z</time>
      </trkpt>
      <trkpt lat="40.3242380" lon="-3.5586530">
        <ele>543.2</ele>
        <time>2021-04-04T06:54:32Z</time>
      </trkpt>
      <trkpt lat="40.3242070" lon="-3.5586990">
        <ele>543.4</ele>
        <time>2021-04-04T06:54:33Z</time>
      </trkpt>
      <trkpt lat="40.3241730" lon="-3.5587440">
        <ele>543.6</ele>
        <time>2021-04-04T06:54:34Z</time>
      </trkpt>
      <trkpt lat="40.3241350" lon="-3.5587930">
        <ele>543.8</ele>
        <time>2021-04-04T06:54:35Z</time>
      </trkpt>
      <trkpt lat="40.3241040" lon="-3.5588430">
        <ele>543.8</ele>
        <time>2021-04-04T06:54:36Z</time>
      </trkpt>
      <trkpt lat="40.3240700" lon="-3.5588930">
        <ele>544.0</ele>
        <time>2021-04-04T06:54:37Z</time>
      </trkpt>
      <trkpt lat="40.3240360" lon="-3.5589420">
        <ele>544.0</ele>
        <time>2021-04-04T06:54:38Z</time>
      </trkpt>
      <trkpt lat="40.3240010" lon="-3.5589930">
        <ele>544.2</ele>
        <time>2021-04-04T06:54:39Z</time>
      </trkpt>
      <trkpt lat="40.3239630" lon="-3.5590440">
        <ele>544.2</ele>
        <time>2021-04-04T06:54:40Z</time>
      </trkpt>
      <trkpt lat="40.3239290" lon="-3.5590950">
        <ele>544.2</ele>
        <time>2021-04-04T06:54:41Z</time>
      </trkpt>
      <trkpt lat="40.3238940" lon="-3.5591470">
        <ele>544.4</ele>
        <time>2021-04-04T06:54:42Z</time>
      </trkpt>
      <trkpt lat="40.3238560" lon="-3.5592000">
        <ele>544.4</ele>
        <time>2021-04-04T06:54:43Z</time>
      </trkpt>
      <trkpt lat="40.3238220" lon="-3.5592520">
        <ele>544.4</ele>
        <time>2021-04-04T06:54:44Z</time>
      </trkpt>
      <trkpt lat="40.3237840" lon="-3.5593050">
        <ele>544.6</ele>
        <time>2021-04-04T06:54:45Z</time>
      </trkpt>
      <trkpt lat="40.3237530" lon="-3.5593570">
        <ele>544.6</ele>
        <time>2021-04-04T06:54:46Z</time>
      </trkpt>
      <trkpt lat="40.3237190" lon="-3.5594060">
        <ele>544.6</ele>
        <time>2021-04-04T06:54:47Z</time>
      </trkpt>
      <trkpt lat="40.3236810" lon="-3.5594530">
        <ele>544.8</ele>
        <time>2021-04-04T06:54:48Z</time>
      </trkpt>
      <trkpt lat="40.3236430" lon="-3.5595050">
        <ele>544.8</ele>
        <time>2021-04-04T06:54:49Z</time>
      </trkpt>
      <trkpt lat="40.3236120" lon="-3.5595580">
        <ele>545.0</ele>
        <time>2021-04-04T06:54:50Z</time>
      </trkpt>
      <trkpt lat="40.3235820" lon="-3.5596130">
        <ele>545.0</ele>
        <time>2021-04-04T06:54:51Z</time>
      </trkpt>
      <trkpt lat="40.3235470" lon="-3.5596690">
        <ele>545.0</ele>
        <time>2021-04-04T06:54:52Z</time>
      </trkpt>
      <trkpt lat="40.3235130" lon="-3.5597240">
        <ele>545.0</ele>
        <time>2021-04-04T06:54:53Z</time>
      </trkpt>
      <trkpt lat="40.3234790" lon="-3.5597770">
        <ele>545.0</ele>
        <time>2021-04-04T06:54:54Z</time>
      </trkpt>
      <trkpt lat="40.3234440" lon="-3.5598300">
        <ele>545.0</ele>
        <time>2021-04-04T06:54:55Z</time>
      </trkpt>
      <trkpt lat="40.3234060" lon="-3.5598830">
        <ele>545.2</ele>
        <time>2021-04-04T06:54:56Z</time>
      </trkpt>
      <trkpt lat="40.3233680" lon="-3.5599360">
        <ele>545.2</ele>
        <time>2021-04-04T06:54:57Z</time>
      </trkpt>
      <trkpt lat="40.3233340" lon="-3.5599890">
        <ele>545.2</ele>
        <time>2021-04-04T06:54:58Z</time>
      </trkpt>
      <trkpt lat="40.3232990" lon="-3.5600430">
        <ele>545.2</ele>
        <time>2021-04-04T06:54:59Z</time>
      </trkpt>
      <trkpt lat="40.3232650" lon="-3.5600970">
        <ele>545.2</ele>
        <time>2021-04-04T06:55:00Z</time>
      </trkpt>
      <trkpt lat="40.3232310" lon="-3.5601540">
        <ele>545.2</ele>
        <time>2021-04-04T06:55:01Z</time>
      </trkpt>
      <trkpt lat="40.3231960" lon="-3.5602100">
        <ele>545.2</ele>
        <time>2021-04-04T06:55:02Z</time>
      </trkpt>
      <trkpt lat="40.3231580" lon="-3.5602650">
        <ele>545.2</ele>
        <time>2021-04-04T06:55:03Z</time>
      </trkpt>
      <trkpt lat="40.3231240" lon="-3.5603190">
        <ele>545.4</ele>
        <time>2021-04-04T06:55:04Z</time>
      </trkpt>
      <trkpt lat="40.3230900" lon="-3.5603740">
        <ele>545.4</ele>
        <time>2021-04-04T06:55:05Z</time>
      </trkpt>
      <trkpt lat="40.3230550" lon="-3.5604300">
        <ele>545.4</ele>
        <time>2021-04-04T06:55:06Z</time>
      </trkpt>
      <trkpt lat="40.3230210" lon="-3.5604860">
        <ele>545.4</ele>
        <time>2021-04-04T06:55:07Z</time>
      </trkpt>
      <trkpt lat="40.3229830" lon="-3.5605420">
        <ele>545.4</ele>
        <time>2021-04-04T06:55:08Z</time>
      </trkpt>
      <trkpt lat="40.3229480" lon="-3.5605980">
        <ele>545.4</ele>
        <time>2021-04-04T06:55:09Z</time>
      </trkpt>
      <trkpt lat="40.3229140" lon="-3.5606530">
        <ele>545.4</ele>
        <time>2021-04-04T06:55:10Z</time>
      </trkpt>
      <trkpt lat="40.3228800" lon="-3.5607090">
        <ele>545.4</ele>
        <time>2021-04-04T06:55:11Z</time>
      </trkpt>
      <trkpt lat="40.3228420" lon="-3.5607650">
        <ele>545.2</ele>
        <time>2021-04-04T06:55:12Z</time>
      </trkpt>
      <trkpt lat="40.3228030" lon="-3.5608200">
        <ele>545.2</ele>
        <time>2021-04-04T06:55:13Z</time>
      </trkpt>
      <trkpt lat="40.3227690" lon="-3.5608730">
        <ele>545.2</ele>
        <time>2021-04-04T06:55:14Z</time>
      </trkpt>
      <trkpt lat="40.3227350" lon="-3.5609240">
        <ele>545.2</ele>
        <time>2021-04-04T06:55:15Z</time>
      </trkpt>
      <trkpt lat="40.3227000" lon="-3.5609740">
        <ele>545.2</ele>
        <time>2021-04-04T06:55:16Z</time>
      </trkpt>
      <trkpt lat="40.3226700" lon="-3.5610250">
        <ele>545.0</ele>
        <time>2021-04-04T06:55:17Z</time>
      </trkpt>
      <trkpt lat="40.3226390" lon="-3.5610760">
        <ele>545.0</ele>
        <time>2021-04-04T06:55:18Z</time>
      </trkpt>
      <trkpt lat="40.3226050" lon="-3.5611260">
        <ele>545.0</ele>
        <time>2021-04-04T06:55:19Z</time>
      </trkpt>
      <trkpt lat="40.3225710" lon="-3.5611790">
        <ele>545.0</ele>
        <time>2021-04-04T06:55:20Z</time>
      </trkpt>
      <trkpt lat="40.3225330" lon="-3.5612330">
        <ele>544.8</ele>
        <time>2021-04-04T06:55:21Z</time>
      </trkpt>
      <trkpt lat="40.3224980" lon="-3.5612880">
        <ele>544.8</ele>
        <time>2021-04-04T06:55:22Z</time>
      </trkpt>
      <trkpt lat="40.3224680" lon="-3.5613430">
        <ele>544.8</ele>
        <time>2021-04-04T06:55:23Z</time>
      </trkpt>
      <trkpt lat="40.3224340" lon="-3.5613990">
        <ele>544.8</ele>
        <time>2021-04-04T06:55:24Z</time>
      </trkpt>
      <trkpt lat="40.3223990" lon="-3.5614550">
        <ele>544.8</ele>
        <time>2021-04-04T06:55:25Z</time>
      </trkpt>
      <trkpt lat="40.3223650" lon="-3.5615130">
        <ele>544.8</ele>
        <time>2021-04-04T06:55:26Z</time>
      </trkpt>
      <trkpt lat="40.3223270" lon="-3.5615700">
        <ele>544.6</ele>
        <time>2021-04-04T06:55:27Z</time>
      </trkpt>
      <trkpt lat="40.3222960" lon="-3.5616280">
        <ele>544.6</ele>
        <time>2021-04-04T06:55:28Z</time>
      </trkpt>
      <trkpt lat="40.3222620" lon="-3.5616870">
        <ele>544.6</ele>
        <time>2021-04-04T06:55:29Z</time>
      </trkpt>
      <trkpt lat="40.3222310" lon="-3.5617490">
        <ele>544.6</ele>
        <time>2021-04-04T06:55:30Z</time>
      </trkpt>
      <trkpt lat="40.3221970" lon="-3.5618130">
        <ele>544.6</ele>
        <time>2021-04-04T06:55:31Z</time>
      </trkpt>
      <trkpt lat="40.3221700" lon="-3.5618780">
        <ele>544.6</ele>
        <time>2021-04-04T06:55:32Z</time>
      </trkpt>
      <trkpt lat="40.3221440" lon="-3.5619450">
        <ele>544.6</ele>
        <time>2021-04-04T06:55:33Z</time>
      </trkpt>
      <trkpt lat="40.3221210" lon="-3.5620150">
        <ele>544.6</ele>
        <time>2021-04-04T06:55:34Z</time>
      </trkpt>
      <trkpt lat="40.3221050" lon="-3.5620870">
        <ele>544.6</ele>
        <time>2021-04-04T06:55:35Z</time>
      </trkpt>
      <trkpt lat="40.3220830" lon="-3.5621560">
        <ele>544.8</ele>
        <time>2021-04-04T06:55:36Z</time>
      </trkpt>
      <trkpt lat="40.3220670" lon="-3.5622250">
        <ele>544.8</ele>
        <time>2021-04-04T06:55:37Z</time>
      </trkpt>
      <trkpt lat="40.3220560" lon="-3.5622940">
        <ele>544.8</ele>
        <time>2021-04-04T06:55:38Z</time>
      </trkpt>
      <trkpt lat="40.3220370" lon="-3.5623660">
        <ele>544.6</ele>
        <time>2021-04-04T06:55:39Z</time>
      </trkpt>
      <trkpt lat="40.3220250" lon="-3.5624390">
        <ele>544.6</ele>
        <time>2021-04-04T06:55:40Z</time>
      </trkpt>
      <trkpt lat="40.3220180" lon="-3.5625160">
        <ele>544.4</ele>
        <time>2021-04-04T06:55:41Z</time>
      </trkpt>
      <trkpt lat="40.3220100" lon="-3.5625950">
        <ele>544.2</ele>
        <time>2021-04-04T06:55:42Z</time>
      </trkpt>
      <trkpt lat="40.3220060" lon="-3.5626730">
        <ele>544.0</ele>
        <time>2021-04-04T06:55:43Z</time>
      </trkpt>
      <trkpt lat="40.3220020" lon="-3.5627490">
        <ele>543.6</ele>
        <time>2021-04-04T06:55:44Z</time>
      </trkpt>
      <trkpt lat="40.3220020" lon="-3.5628220">
        <ele>543.6</ele>
        <time>2021-04-04T06:55:45Z</time>
      </trkpt>
      <trkpt lat="40.3220020" lon="-3.5628860">
        <ele>543.4</ele>
        <time>2021-04-04T06:55:46Z</time>
      </trkpt>
      <trkpt lat="40.3220020" lon="-3.5629400">
        <ele>543.2</ele>
        <time>2021-04-04T06:55:47Z</time>
      </trkpt>
      <trkpt lat="40.3220020" lon="-3.5629850">
        <ele>543.2</ele>
        <time>2021-04-04T06:55:48Z</time>
      </trkpt>
      <trkpt lat="40.3219990" lon="-3.5630170">
        <ele>543.2</ele>
        <time>2021-04-04T06:55:49Z</time>
      </trkpt>
      <trkpt lat="40.3219950" lon="-3.5630330">
        <ele>543.2</ele>
        <time>2021-04-04T06:55:50Z</time>
      </trkpt>
      <trkpt lat="40.3219030" lon="-3.5630350">
        <ele>543.0</ele>
        <time>2021-04-04T06:56:01Z</time>
      </trkpt>
      <trkpt lat="40.3218990" lon="-3.5630460">
        <ele>543.0</ele>
        <time>2021-04-04T06:56:02Z</time>
      </trkpt>
      <trkpt lat="40.3218960" lon="-3.5630540">
        <ele>543.0</ele>
        <time>2021-04-04T06:56:03Z</time>
      </trkpt>
      <trkpt lat="40.3218920" lon="-3.5630590">
        <ele>543.0</ele>
        <time>2021-04-04T06:56:04Z</time>
      </trkpt>
      <trkpt lat="40.3218880" lon="-3.5630630">
        <ele>543.0</ele>
        <time>2021-04-04T06:56:05Z</time>
      </trkpt>
      <trkpt lat="40.3218880" lon="-3.5630630">
        <ele>543.0</ele>
        <time>2021-04-04T06:56:06Z</time>
      </trkpt>
      <trkpt lat="40.3218880" lon="-3.5630630">
        <ele>543.2</ele>
        <time>2021-04-04T06:56:07Z</time>
      </trkpt>
      <trkpt lat="40.3218880" lon="-3.5630630">
        <ele>543.2</ele>
        <time>2021-04-04T06:56:08Z</time>
      </trkpt>
      <trkpt lat="40.3218880" lon="-3.5630630">
        <ele>543.2</ele>
        <time>2021-04-04T06:56:09Z</time>
      </trkpt>
      <trkpt lat="40.3218880" lon="-3.5630630">
        <ele>543.2</ele>
        <time>2021-04-04T06:56:10Z</time>
      </trkpt>
      <trkpt lat="40.3218880" lon="-3.5630630">
        <ele>543.4</ele>
        <time>2021-04-04T06:56:11Z</time>
      </trkpt>
      <trkpt lat="40.3218880" lon="-3.5630630">
        <ele>543.4</ele>
        <time>2021-04-04T06:56:12Z</time>
      </trkpt>
      <trkpt lat="40.3218880" lon="-3.5630630">
        <ele>543.4</ele>
        <time>2021-04-04T06:56:13Z</time>
      </trkpt>
      <trkpt lat="40.3218880" lon="-3.5630920">
        <ele>543.4</ele>
        <time>2021-04-04T06:56:14Z</time>
      </trkpt>
      <trkpt lat="40.3218880" lon="-3.5631500">
        <ele>543.4</ele>
        <time>2021-04-04T06:56:15Z</time>
      </trkpt>
      <trkpt lat="40.3218920" lon="-3.5631700">
        <ele>543.4</ele>
        <time>2021-04-04T06:56:16Z</time>
      </trkpt>
      <trkpt lat="40.3218990" lon="-3.5631910">
        <ele>543.4</ele>
        <time>2021-04-04T06:56:17Z</time>
      </trkpt>
      <trkpt lat="40.3219070" lon="-3.5632110">
        <ele>543.6</ele>
        <time>2021-04-04T06:56:18Z</time>
      </trkpt>
      <trkpt lat="40.3219220" lon="-3.5632310">
        <ele>543.6</ele>
        <time>2021-04-04T06:56:19Z</time>
      </trkpt>
      <trkpt lat="40.3219380" lon="-3.5632520">
        <ele>543.6</ele>
        <time>2021-04-04T06:56:20Z</time>
      </trkpt>
      <trkpt lat="40.3219450" lon="-3.5632780">
        <ele>543.6</ele>
        <time>2021-04-04T06:56:21Z</time>
      </trkpt>
      <trkpt lat="40.3219490" lon="-3.5633080">
        <ele>543.6</ele>
        <time>2021-04-04T06:56:22Z</time>
      </trkpt>
      <trkpt lat="40.3219450" lon="-3.5633410">
        <ele>543.6</ele>
        <time>2021-04-04T06:56:23Z</time>
      </trkpt>
      <trkpt lat="40.3219380" lon="-3.5633750">
        <ele>543.8</ele>
        <time>2021-04-04T06:56:24Z</time>
      </trkpt>
      <trkpt lat="40.3219260" lon="-3.5634130">
        <ele>543.8</ele>
        <time>2021-04-04T06:56:25Z</time>
      </trkpt>
      <trkpt lat="40.3219110" lon="-3.5634510">
        <ele>544.0</ele>
        <time>2021-04-04T06:56:26Z</time>
      </trkpt>
      <trkpt lat="40.3218920" lon="-3.5634880">
        <ele>544.0</ele>
        <time>2021-04-04T06:56:27Z</time>
      </trkpt>
      <trkpt lat="40.3218690" lon="-3.5635190">
        <ele>544.2</ele>
        <time>2021-04-04T06:56:28Z</time>
      </trkpt>
      <trkpt lat="40.3218380" lon="-3.5635450">
        <ele>544.4</ele>
        <time>2021-04-04T06:56:29Z</time>
      </trkpt>
      <trkpt lat="40.3218080" lon="-3.5635680">
        <ele>544.6</ele>
        <time>2021-04-04T06:56:30Z</time>
      </trkpt>
      <trkpt lat="40.3217850" lon="-3.5635940">
        <ele>545.0</ele>
        <time>2021-04-04T06:56:31Z</time>
      </trkpt>
      <trkpt lat="40.3217580" lon="-3.5636220">
        <ele>545.2</ele>
        <time>2021-04-04T06:56:32Z</time>
      </trkpt>
      <trkpt lat="40.3217320" lon="-3.5636500">
        <ele>545.4</ele>
        <time>2021-04-04T06:56:33Z</time>
      </trkpt>
      <trkpt lat="40.3217050" lon="-3.5636800">
        <ele>545.8</ele>
        <time>2021-04-04T06:56:34Z</time>
      </trkpt>
      <trkpt lat="40.3216780" lon="-3.5637100">
        <ele>546.0</ele>
        <time>2021-04-04T06:56:35Z</time>
      </trkpt>
      <trkpt lat="40.3216510" lon="-3.5637400">
        <ele>546.2</ele>
        <time>2021-04-04T06:56:36Z</time>
      </trkpt>
      <trkpt lat="40.3216250" lon="-3.5637700">
        <ele>546.4</ele>
        <time>2021-04-04T06:56:37Z</time>
      </trkpt>
      <trkpt lat="40.3215980" lon="-3.5637990">
        <ele>546.6</ele>
        <time>2021-04-04T06:56:38Z</time>
      </trkpt>
      <trkpt lat="40.3215710" lon="-3.5638300">
        <ele>546.8</ele>
        <time>2021-04-04T06:56:39Z</time>
      </trkpt>
      <trkpt lat="40.3215480" lon="-3.5638620">
        <ele>547.0</ele>
        <time>2021-04-04T06:56:40Z</time>
      </trkpt>
      <trkpt lat="40.3215220" lon="-3.5638940">
        <ele>547.2</ele>
        <time>2021-04-04T06:56:41Z</time>
      </trkpt>
      <trkpt lat="40.3214950" lon="-3.5639250">
        <ele>547.2</ele>
        <time>2021-04-04T06:56:42Z</time>
      </trkpt>
      <trkpt lat="40.3214650" lon="-3.5639570">
        <ele>547.4</ele>
        <time>2021-04-04T06:56:43Z</time>
      </trkpt>
      <trkpt lat="40.3214380" lon="-3.5639880">
        <ele>547.4</ele>
        <time>2021-04-04T06:56:44Z</time>
      </trkpt>
      <trkpt lat="40.3214110" lon="-3.5640200">
        <ele>547.6</ele>
        <time>2021-04-04T06:56:45Z</time>
      </trkpt>
      <trkpt lat="40.3213770" lon="-3.5640520">
        <ele>547.6</ele>
        <time>2021-04-04T06:56:46Z</time>
      </trkpt>
      <trkpt lat="40.3213390" lon="-3.5640840">
        <ele>547.6</ele>
        <time>2021-04-04T06:56:47Z</time>
      </trkpt>
      <trkpt lat="40.3213040" lon="-3.5641190">
        <ele>547.4</ele>
        <time>2021-04-04T06:56:48Z</time>
      </trkpt>
      <trkpt lat="40.3212700" lon="-3.5641590">
        <ele>547.4</ele>
        <time>2021-04-04T06:56:49Z</time>
      </trkpt>
      <trkpt lat="40.3212320" lon="-3.5642010">
        <ele>547.4</ele>
        <time>2021-04-04T06:56:50Z</time>
      </trkpt>
      <trkpt lat="40.3211940" lon="-3.5642450">
        <ele>547.2</ele>
        <time>2021-04-04T06:56:51Z</time>
      </trkpt>
      <trkpt lat="40.3211560" lon="-3.5642880">
        <ele>547.2</ele>
        <time>2021-04-04T06:56:52Z</time>
      </trkpt>
      <trkpt lat="40.3211170" lon="-3.5643320">
        <ele>547.0</ele>
        <time>2021-04-04T06:56:53Z</time>
      </trkpt>
      <trkpt lat="40.3210750" lon="-3.5643780">
        <ele>547.0</ele>
        <time>2021-04-04T06:56:54Z</time>
      </trkpt>
      <trkpt lat="40.3210330" lon="-3.5644240">
        <ele>546.8</ele>
        <time>2021-04-04T06:56:55Z</time>
      </trkpt>
      <trkpt lat="40.3209950" lon="-3.5644680">
        <ele>546.8</ele>
        <time>2021-04-04T06:56:56Z</time>
      </trkpt>
      <trkpt lat="40.3209530" lon="-3.5645140">
        <ele>546.6</ele>
        <time>2021-04-04T06:56:57Z</time>
      </trkpt>
      <trkpt lat="40.3209080" lon="-3.5645590">
        <ele>546.4</ele>
        <time>2021-04-04T06:56:58Z</time>
      </trkpt>
      <trkpt lat="40.3208690" lon="-3.5646020">
        <ele>546.2</ele>
        <time>2021-04-04T06:56:59Z</time>
      </trkpt>
      <trkpt lat="40.3208270" lon="-3.5646450">
        <ele>546.0</ele>
        <time>2021-04-04T06:57:00Z</time>
      </trkpt>
      <trkpt lat="40.3207780" lon="-3.5646980">
        <ele>546.0</ele>
        <time>2021-04-04T06:57:01Z</time>
      </trkpt>
      <trkpt lat="40.3207400" lon="-3.5647450">
        <ele>545.8</ele>
        <time>2021-04-04T06:57:02Z</time>
      </trkpt>
      <trkpt lat="40.3206980" lon="-3.5647900">
        <ele>545.6</ele>
        <time>2021-04-04T06:57:03Z</time>
      </trkpt>
      <trkpt lat="40.3206600" lon="-3.5648320">
        <ele>545.6</ele>
        <time>2021-04-04T06:57:04Z</time>
      </trkpt>
      <trkpt lat="40.3206140" lon="-3.5648760">
        <ele>545.4</ele>
        <time>2021-04-04T06:57:05Z</time>
      </trkpt>
      <trkpt lat="40.3205720" lon="-3.5649200">
        <ele>545.4</ele>
        <time>2021-04-04T06:57:06Z</time>
      </trkpt>
      <trkpt lat="40.3205300" lon="-3.5649650">
        <ele>545.2</ele>
        <time>2021-04-04T06:57:07Z</time>
      </trkpt>
      <trkpt lat="40.3204880" lon="-3.5650100">
        <ele>545.2</ele>
        <time>2021-04-04T06:57:08Z</time>
      </trkpt>
      <trkpt lat="40.3204460" lon="-3.5650560">
        <ele>545.2</ele>
        <time>2021-04-04T06:57:09Z</time>
      </trkpt>
      <trkpt lat="40.3204040" lon="-3.5651020">
        <ele>545.0</ele>
        <time>2021-04-04T06:57:10Z</time>
      </trkpt>
      <trkpt lat="40.3203620" lon="-3.5651470">
        <ele>545.0</ele>
        <time>2021-04-04T06:57:11Z</time>
      </trkpt>
      <trkpt lat="40.3203200" lon="-3.5651920">
        <ele>545.0</ele>
        <time>2021-04-04T06:57:12Z</time>
      </trkpt>
      <trkpt lat="40.3202780" lon="-3.5652390">
        <ele>544.8</ele>
        <time>2021-04-04T06:57:13Z</time>
      </trkpt>
      <trkpt lat="40.3202360" lon="-3.5652850">
        <ele>544.8</ele>
        <time>2021-04-04T06:57:14Z</time>
      </trkpt>
      <trkpt lat="40.3201940" lon="-3.5653330">
        <ele>544.6</ele>
        <time>2021-04-04T06:57:15Z</time>
      </trkpt>
      <trkpt lat="40.3201520" lon="-3.5653810">
        <ele>544.6</ele>
        <time>2021-04-04T06:57:16Z</time>
      </trkpt>
      <trkpt lat="40.3201140" lon="-3.5654280">
        <ele>544.4</ele>
        <time>2021-04-04T06:57:17Z</time>
      </trkpt>
      <trkpt lat="40.3200720" lon="-3.5654750">
        <ele>544.2</ele>
        <time>2021-04-04T06:57:18Z</time>
      </trkpt>
      <trkpt lat="40.3200300" lon="-3.5655240">
        <ele>544.0</ele>
        <time>2021-04-04T06:57:19Z</time>
      </trkpt>
      <trkpt lat="40.3199920" lon="-3.5655740">
        <ele>543.8</ele>
        <time>2021-04-04T06:57:20Z</time>
      </trkpt>
      <trkpt lat="40.3199580" lon="-3.5656270">
        <ele>543.6</ele>
        <time>2021-04-04T06:57:21Z</time>
      </trkpt>
      <trkpt lat="40.3199200" lon="-3.5656850">
        <ele>543.6</ele>
        <time>2021-04-04T06:57:22Z</time>
      </trkpt>
      <trkpt lat="40.3198810" lon="-3.5657410">
        <ele>543.4</ele>
        <time>2021-04-04T06:57:23Z</time>
      </trkpt>
      <trkpt lat="40.3198430" lon="-3.5657960">
        <ele>543.4</ele>
        <time>2021-04-04T06:57:24Z</time>
      </trkpt>
      <trkpt lat="40.3198010" lon="-3.5658510">
        <ele>543.2</ele>
        <time>2021-04-04T06:57:25Z</time>
      </trkpt>
      <trkpt lat="40.3197590" lon="-3.5658980">
        <ele>543.2</ele>
        <time>2021-04-04T06:57:26Z</time>
      </trkpt>
      <trkpt lat="40.3197170" lon="-3.5659400">
        <ele>543.0</ele>
        <time>2021-04-04T06:57:27Z</time>
      </trkpt>
      <trkpt lat="40.3196750" lon="-3.5659770">
        <ele>543.0</ele>
        <time>2021-04-04T06:57:28Z</time>
      </trkpt>
      <trkpt lat="40.3196410" lon="-3.5660090">
        <ele>543.0</ele>
        <time>2021-04-04T06:57:29Z</time>
      </trkpt>
      <trkpt lat="40.3196180" lon="-3.5660310">
        <ele>543.0</ele>
        <time>2021-04-04T06:57:30Z</time>
      </trkpt>
      <trkpt lat="40.3195950" lon="-3.5660440">
        <ele>542.8</ele>
        <time>2021-04-04T06:57:31Z</time>
      </trkpt>
      <trkpt lat="40.3195720" lon="-3.5660480">
        <ele>542.8</ele>
        <time>2021-04-04T06:57:32Z</time>
      </trkpt>
      <trkpt lat="40.3195570" lon="-3.5660480">
        <ele>542.8</ele>
        <time>2021-04-04T06:57:33Z</time>
      </trkpt>
      <trkpt lat="40.3195380" lon="-3.5660500">
        <ele>542.8</ele>
        <time>2021-04-04T06:57:34Z</time>
      </trkpt>
      <trkpt lat="40.3195150" lon="-3.5660580">
        <ele>542.8</ele>
        <time>2021-04-04T06:57:35Z</time>
      </trkpt>
      <trkpt lat="40.3194890" lon="-3.5660760">
        <ele>542.8</ele>
        <time>2021-04-04T06:57:36Z</time>
      </trkpt>
      <trkpt lat="40.3194660" lon="-3.5661010">
        <ele>542.6</ele>
        <time>2021-04-04T06:57:37Z</time>
      </trkpt>
      <trkpt lat="40.3194390" lon="-3.5661250">
        <ele>542.6</ele>
        <time>2021-04-04T06:57:38Z</time>
      </trkpt>
      <trkpt lat="40.3194120" lon="-3.5661480">
        <ele>542.4</ele>
        <time>2021-04-04T06:57:39Z</time>
      </trkpt>
      <trkpt lat="40.3193820" lon="-3.5661770">
        <ele>542.2</ele>
        <time>2021-04-04T06:57:40Z</time>
      </trkpt>
      <trkpt lat="40.3193550" lon="-3.5662120">
        <ele>542.0</ele>
        <time>2021-04-04T06:57:41Z</time>
      </trkpt>
      <trkpt lat="40.3193320" lon="-3.5662490">
        <ele>542.0</ele>
        <time>2021-04-04T06:57:42Z</time>
      </trkpt>
      <trkpt lat="40.3193090" lon="-3.5662840">
        <ele>542.0</ele>
        <time>2021-04-04T06:57:43Z</time>
      </trkpt>
      <trkpt lat="40.3192860" lon="-3.5663120">
        <ele>541.8</ele>
        <time>2021-04-04T06:57:44Z</time>
      </trkpt>
      <trkpt lat="40.3192670" lon="-3.5663350">
        <ele>541.8</ele>
        <time>2021-04-04T06:57:45Z</time>
      </trkpt>
      <trkpt lat="40.3192560" lon="-3.5663560">
        <ele>541.8</ele>
        <time>2021-04-04T06:57:46Z</time>
      </trkpt>
      <trkpt lat="40.3192440" lon="-3.5663780">
        <ele>541.8</ele>
        <time>2021-04-04T06:57:47Z</time>
      </trkpt>
      <trkpt lat="40.3192250" lon="-3.5664010">
        <ele>541.8</ele>
        <time>2021-04-04T06:57:48Z</time>
      </trkpt>
      <trkpt lat="40.3192060" lon="-3.5664290">
        <ele>541.8</ele>
        <time>2021-04-04T06:57:49Z</time>
      </trkpt>
      <trkpt lat="40.3191830" lon="-3.5664590">
        <ele>541.6</ele>
        <time>2021-04-04T06:57:50Z</time>
      </trkpt>
      <trkpt lat="40.3191570" lon="-3.5664930">
        <ele>541.6</ele>
        <time>2021-04-04T06:57:51Z</time>
      </trkpt>
      <trkpt lat="40.3191180" lon="-3.5665300">
        <ele>541.6</ele>
        <time>2021-04-04T06:57:52Z</time>
      </trkpt>
      <trkpt lat="40.3190800" lon="-3.5665660">
        <ele>541.4</ele>
        <time>2021-04-04T06:57:53Z</time>
      </trkpt>
      <trkpt lat="40.3190420" lon="-3.5666020">
        <ele>541.4</ele>
        <time>2021-04-04T06:57:54Z</time>
      </trkpt>
      <trkpt lat="40.3190000" lon="-3.5666400">
        <ele>541.2</ele>
        <time>2021-04-04T06:57:55Z</time>
      </trkpt>
      <trkpt lat="40.3189580" lon="-3.5666780">
        <ele>541.2</ele>
        <time>2021-04-04T06:57:56Z</time>
      </trkpt>
      <trkpt lat="40.3189240" lon="-3.5667170">
        <ele>541.2</ele>
        <time>2021-04-04T06:57:57Z</time>
      </trkpt>
      <trkpt lat="40.3188860" lon="-3.5667560">
        <ele>541.2</ele>
        <time>2021-04-04T06:57:58Z</time>
      </trkpt>
      <trkpt lat="40.3188510" lon="-3.5667880">
        <ele>541.2</ele>
        <time>2021-04-04T06:57:59Z</time>
      </trkpt>
      <trkpt lat="40.3188170" lon="-3.5668170">
        <ele>541.2</ele>
        <time>2021-04-04T06:58:00Z</time>
      </trkpt>
      <trkpt lat="40.3187830" lon="-3.5668560">
        <ele>541.0</ele>
        <time>2021-04-04T06:58:01Z</time>
      </trkpt>
      <trkpt lat="40.3187480" lon="-3.5668870">
        <ele>541.0</ele>
        <time>2021-04-04T06:58:02Z</time>
      </trkpt>
      <trkpt lat="40.3187180" lon="-3.5669180">
        <ele>541.0</ele>
        <time>2021-04-04T06:58:03Z</time>
      </trkpt>
      <trkpt lat="40.3186990" lon="-3.5669500">
        <ele>541.0</ele>
        <time>2021-04-04T06:58:04Z</time>
      </trkpt>
      <trkpt lat="40.3186840" lon="-3.5669860">
        <ele>541.0</ele>
        <time>2021-04-04T06:58:05Z</time>
      </trkpt>
      <trkpt lat="40.3186680" lon="-3.5670190">
        <ele>541.0</ele>
        <time>2021-04-04T06:58:06Z</time>
      </trkpt>
      <trkpt lat="40.3186450" lon="-3.5670480">
        <ele>541.0</ele>
        <time>2021-04-04T06:58:07Z</time>
      </trkpt>
      <trkpt lat="40.3186190" lon="-3.5670760">
        <ele>541.0</ele>
        <time>2021-04-04T06:58:08Z</time>
      </trkpt>
      <trkpt lat="40.3185920" lon="-3.5671090">
        <ele>541.0</ele>
        <time>2021-04-04T06:58:09Z</time>
      </trkpt>
      <trkpt lat="40.3185650" lon="-3.5671460">
        <ele>541.0</ele>
        <time>2021-04-04T06:58:10Z</time>
      </trkpt>
      <trkpt lat="40.3185310" lon="-3.5671840">
        <ele>540.8</ele>
        <time>2021-04-04T06:58:11Z</time>
      </trkpt>
      <trkpt lat="40.3184930" lon="-3.5672240">
        <ele>540.8</ele>
        <time>2021-04-04T06:58:12Z</time>
      </trkpt>
      <trkpt lat="40.3184590" lon="-3.5672660">
        <ele>540.8</ele>
        <time>2021-04-04T06:58:13Z</time>
      </trkpt>
      <trkpt lat="40.3184200" lon="-3.5673110">
        <ele>540.8</ele>
        <time>2021-04-04T06:58:14Z</time>
      </trkpt>
      <trkpt lat="40.3183820" lon="-3.5673570">
        <ele>540.8</ele>
        <time>2021-04-04T06:58:15Z</time>
      </trkpt>
      <trkpt lat="40.3183370" lon="-3.5673980">
        <ele>540.6</ele>
        <time>2021-04-04T06:58:16Z</time>
      </trkpt>
      <trkpt lat="40.3182950" lon="-3.5674360">
        <ele>540.6</ele>
        <time>2021-04-04T06:58:17Z</time>
      </trkpt>
      <trkpt lat="40.3182530" lon="-3.5674740">
        <ele>540.6</ele>
        <time>2021-04-04T06:58:18Z</time>
      </trkpt>
      <trkpt lat="40.3182110" lon="-3.5675180">
        <ele>540.6</ele>
        <time>2021-04-04T06:58:19Z</time>
      </trkpt>
      <trkpt lat="40.3181720" lon="-3.5675660">
        <ele>540.6</ele>
        <time>2021-04-04T06:58:20Z</time>
      </trkpt>
      <trkpt lat="40.3181340" lon="-3.5676110">
        <ele>540.6</ele>
        <time>2021-04-04T06:58:21Z</time>
      </trkpt>
      <trkpt lat="40.3180960" lon="-3.5676550">
        <ele>540.6</ele>
        <time>2021-04-04T06:58:22Z</time>
      </trkpt>
      <trkpt lat="40.3180580" lon="-3.5676990">
        <ele>540.6</ele>
        <time>2021-04-04T06:58:23Z</time>
      </trkpt>
      <trkpt lat="40.3180240" lon="-3.5677500">
        <ele>540.4</ele>
        <time>2021-04-04T06:58:24Z</time>
      </trkpt>
      <trkpt lat="40.3179890" lon="-3.5678060">
        <ele>540.4</ele>
        <time>2021-04-04T06:58:25Z</time>
      </trkpt>
      <trkpt lat="40.3179550" lon="-3.5678610">
        <ele>540.4</ele>
        <time>2021-04-04T06:58:26Z</time>
      </trkpt>
      <trkpt lat="40.3179210" lon="-3.5679150">
        <ele>540.4</ele>
        <time>2021-04-04T06:58:27Z</time>
      </trkpt>
      <trkpt lat="40.3178860" lon="-3.5679680">
        <ele>540.6</ele>
        <time>2021-04-04T06:58:28Z</time>
      </trkpt>
      <trkpt lat="40.3178520" lon="-3.5680200">
        <ele>540.6</ele>
        <time>2021-04-04T06:58:29Z</time>
      </trkpt>
      <trkpt lat="40.3178140" lon="-3.5680670">
        <ele>540.6</ele>
        <time>2021-04-04T06:58:30Z</time>
      </trkpt>
      <trkpt lat="40.3177800" lon="-3.5681100">
        <ele>540.6</ele>
        <time>2021-04-04T06:58:31Z</time>
      </trkpt>
      <trkpt lat="40.3177490" lon="-3.5681540">
        <ele>540.8</ele>
        <time>2021-04-04T06:58:32Z</time>
      </trkpt>
      <trkpt lat="40.3177220" lon="-3.5682020">
        <ele>540.8</ele>
        <time>2021-04-04T06:58:33Z</time>
      </trkpt>
      <trkpt lat="40.3176920" lon="-3.5682520">
        <ele>540.8</ele>
        <time>2021-04-04T06:58:34Z</time>
      </trkpt>
      <trkpt lat="40.3176570" lon="-3.5682990">
        <ele>540.8</ele>
        <time>2021-04-04T06:58:35Z</time>
      </trkpt>
      <trkpt lat="40.3176230" lon="-3.5683480">
        <ele>540.8</ele>
        <time>2021-04-04T06:58:36Z</time>
      </trkpt>
      <trkpt lat="40.3175890" lon="-3.5683980">
        <ele>540.8</ele>
        <time>2021-04-04T06:58:37Z</time>
      </trkpt>
      <trkpt lat="40.3175540" lon="-3.5684470">
        <ele>540.8</ele>
        <time>2021-04-04T06:58:38Z</time>
      </trkpt>
      <trkpt lat="40.3175200" lon="-3.5684980">
        <ele>540.8</ele>
        <time>2021-04-04T06:58:39Z</time>
      </trkpt>
      <trkpt lat="40.3174820" lon="-3.5685490">
        <ele>541.0</ele>
        <time>2021-04-04T06:58:40Z</time>
      </trkpt>
      <trkpt lat="40.3174480" lon="-3.5686000">
        <ele>541.0</ele>
        <time>2021-04-04T06:58:41Z</time>
      </trkpt>
      <trkpt lat="40.3174170" lon="-3.5686510">
        <ele>541.2</ele>
        <time>2021-04-04T06:58:42Z</time>
      </trkpt>
      <trkpt lat="40.3173870" lon="-3.5686970">
        <ele>541.2</ele>
        <time>2021-04-04T06:58:43Z</time>
      </trkpt>
      <trkpt lat="40.3173560" lon="-3.5687440">
        <ele>541.4</ele>
        <time>2021-04-04T06:58:44Z</time>
      </trkpt>
      <trkpt lat="40.3173260" lon="-3.5687940">
        <ele>541.6</ele>
        <time>2021-04-04T06:58:45Z</time>
      </trkpt>
      <trkpt lat="40.3172910" lon="-3.5688450">
        <ele>541.6</ele>
        <time>2021-04-04T06:58:46Z</time>
      </trkpt>
      <trkpt lat="40.3172570" lon="-3.5688990">
        <ele>541.8</ele>
        <time>2021-04-04T06:58:47Z</time>
      </trkpt>
      <trkpt lat="40.3172230" lon="-3.5689540">
        <ele>541.8</ele>
        <time>2021-04-04T06:58:48Z</time>
      </trkpt>
      <trkpt lat="40.3171920" lon="-3.5690110">
        <ele>541.8</ele>
        <time>2021-04-04T06:58:49Z</time>
      </trkpt>
      <trkpt lat="40.3171580" lon="-3.5690680">
        <ele>542.0</ele>
        <time>2021-04-04T06:58:50Z</time>
      </trkpt>
      <trkpt lat="40.3171200" lon="-3.5691230">
        <ele>542.0</ele>
        <time>2021-04-04T06:58:51Z</time>
      </trkpt>
      <trkpt lat="40.3170850" lon="-3.5691800">
        <ele>542.0</ele>
        <time>2021-04-04T06:58:52Z</time>
      </trkpt>
      <trkpt lat="40.3170470" lon="-3.5692360">
        <ele>542.0</ele>
        <time>2021-04-04T06:58:53Z</time>
      </trkpt>
      <trkpt lat="40.3170130" lon="-3.5692940">
        <ele>541.8</ele>
        <time>2021-04-04T06:58:54Z</time>
      </trkpt>
      <trkpt lat="40.3169750" lon="-3.5693550">
        <ele>541.8</ele>
        <time>2021-04-04T06:58:55Z</time>
      </trkpt>
      <trkpt lat="40.3169400" lon="-3.5694130">
        <ele>541.8</ele>
        <time>2021-04-04T06:58:56Z</time>
      </trkpt>
      <trkpt lat="40.3169020" lon="-3.5694710">
        <ele>541.8</ele>
        <time>2021-04-04T06:58:57Z</time>
      </trkpt>
      <trkpt lat="40.3168680" lon="-3.5695290">
        <ele>541.6</ele>
        <time>2021-04-04T06:58:58Z</time>
      </trkpt>
      <trkpt lat="40.3168300" lon="-3.5695840">
        <ele>541.6</ele>
        <time>2021-04-04T06:58:59Z</time>
      </trkpt>
      <trkpt lat="40.3167950" lon="-3.5696390">
        <ele>541.6</ele>
        <time>2021-04-04T06:59:00Z</time>
      </trkpt>
      <trkpt lat="40.3167690" lon="-3.5696920">
        <ele>541.6</ele>
        <time>2021-04-04T06:59:01Z</time>
      </trkpt>
      <trkpt lat="40.3167340" lon="-3.5697440">
        <ele>541.6</ele>
        <time>2021-04-04T06:59:02Z</time>
      </trkpt>
      <trkpt lat="40.3167080" lon="-3.5697950">
        <ele>541.6</ele>
        <time>2021-04-04T06:59:03Z</time>
      </trkpt>
      <trkpt lat="40.3166730" lon="-3.5698510">
        <ele>541.6</ele>
        <time>2021-04-04T06:59:04Z</time>
      </trkpt>
      <trkpt lat="40.3166430" lon="-3.5699060">
        <ele>541.6</ele>
        <time>2021-04-04T06:59:05Z</time>
      </trkpt>
      <trkpt lat="40.3166080" lon="-3.5699600">
        <ele>541.6</ele>
        <time>2021-04-04T06:59:06Z</time>
      </trkpt>
      <trkpt lat="40.3165740" lon="-3.5700130">
        <ele>541.4</ele>
        <time>2021-04-04T06:59:07Z</time>
      </trkpt>
      <trkpt lat="40.3165440" lon="-3.5700660">
        <ele>541.4</ele>
        <time>2021-04-04T06:59:08Z</time>
      </trkpt>
      <trkpt lat="40.3165130" lon="-3.5701170">
        <ele>541.4</ele>
        <time>2021-04-04T06:59:09Z</time>
      </trkpt>
      <trkpt lat="40.3164830" lon="-3.5701640">
        <ele>541.4</ele>
        <time>2021-04-04T06:59:10Z</time>
      </trkpt>
      <trkpt lat="40.3164560" lon="-3.5702100">
        <ele>541.4</ele>
        <time>2021-04-04T06:59:11Z</time>
      </trkpt>
      <trkpt lat="40.3164250" lon="-3.5702520">
        <ele>541.4</ele>
        <time>2021-04-04T06:59:12Z</time>
      </trkpt>
      <trkpt lat="40.3164020" lon="-3.5702850">
        <ele>541.2</ele>
        <time>2021-04-04T06:59:13Z</time>
      </trkpt>
      <trkpt lat="40.3163870" lon="-3.5703100">
        <ele>541.2</ele>
        <time>2021-04-04T06:59:14Z</time>
      </trkpt>
      <trkpt lat="40.3163680" lon="-3.5703310">
        <ele>541.2</ele>
        <time>2021-04-04T06:59:15Z</time>
      </trkpt>
      <trkpt lat="40.3163530" lon="-3.5703540">
        <ele>541.2</ele>
        <time>2021-04-04T06:59:16Z</time>
      </trkpt>
      <trkpt lat="40.3163380" lon="-3.5703820">
        <ele>541.4</ele>
        <time>2021-04-04T06:59:17Z</time>
      </trkpt>
      <trkpt lat="40.3163220" lon="-3.5704150">
        <ele>541.4</ele>
        <time>2021-04-04T06:59:18Z</time>
      </trkpt>
      <trkpt lat="40.3162990" lon="-3.5704540">
        <ele>541.4</ele>
        <time>2021-04-04T06:59:19Z</time>
      </trkpt>
      <trkpt lat="40.3162800" lon="-3.5704960">
        <ele>541.6</ele>
        <time>2021-04-04T06:59:20Z</time>
      </trkpt>
      <trkpt lat="40.3162540" lon="-3.5705380">
        <ele>541.6</ele>
        <time>2021-04-04T06:59:21Z</time>
      </trkpt>
      <trkpt lat="40.3162270" lon="-3.5705860">
        <ele>541.8</ele>
        <time>2021-04-04T06:59:22Z</time>
      </trkpt>
      <trkpt lat="40.3162000" lon="-3.5706360">
        <ele>541.8</ele>
        <time>2021-04-04T06:59:23Z</time>
      </trkpt>
      <trkpt lat="40.3161700" lon="-3.5706880">
        <ele>541.8</ele>
        <time>2021-04-04T06:59:24Z</time>
      </trkpt>
      <trkpt lat="40.3161430" lon="-3.5707450">
        <ele>541.8</ele>
        <time>2021-04-04T06:59:25Z</time>
      </trkpt>
      <trkpt lat="40.3161200" lon="-3.5708010">
        <ele>541.8</ele>
        <time>2021-04-04T06:59:26Z</time>
      </trkpt>
      <trkpt lat="40.3160970" lon="-3.5708590">
        <ele>541.8</ele>
        <time>2021-04-04T06:59:27Z</time>
      </trkpt>
      <trkpt lat="40.3160710" lon="-3.5709190">
        <ele>541.8</ele>
        <time>2021-04-04T06:59:28Z</time>
      </trkpt>
      <trkpt lat="40.3160480" lon="-3.5709770">
        <ele>541.8</ele>
        <time>2021-04-04T06:59:29Z</time>
      </trkpt>
      <trkpt lat="40.3160250" lon="-3.5710380">
        <ele>541.8</ele>
        <time>2021-04-04T06:59:30Z</time>
      </trkpt>
      <trkpt lat="40.3160020" lon="-3.5711020">
        <ele>541.6</ele>
        <time>2021-04-04T06:59:31Z</time>
      </trkpt>
      <trkpt lat="40.3159830" lon="-3.5711630">
        <ele>541.6</ele>
        <time>2021-04-04T06:59:32Z</time>
      </trkpt>
      <trkpt lat="40.3159640" lon="-3.5712230">
        <ele>541.4</ele>
        <time>2021-04-04T06:59:33Z</time>
      </trkpt>
      <trkpt lat="40.3159450" lon="-3.5712820">
        <ele>541.4</ele>
        <time>2021-04-04T06:59:34Z</time>
      </trkpt>
      <trkpt lat="40.3159260" lon="-3.5713400">
        <ele>541.2</ele>
        <time>2021-04-04T06:59:35Z</time>
      </trkpt>
      <trkpt lat="40.3159030" lon="-3.5713930">
        <ele>541.2</ele>
        <time>2021-04-04T06:59:36Z</time>
      </trkpt>
      <trkpt lat="40.3158840" lon="-3.5714540">
        <ele>541.0</ele>
        <time>2021-04-04T06:59:37Z</time>
      </trkpt>
      <trkpt lat="40.3158650" lon="-3.5715190">
        <ele>541.0</ele>
        <time>2021-04-04T06:59:38Z</time>
      </trkpt>
      <trkpt lat="40.3158450" lon="-3.5715840">
        <ele>541.0</ele>
        <time>2021-04-04T06:59:39Z</time>
      </trkpt>
      <trkpt lat="40.3158190" lon="-3.5716480">
        <ele>541.0</ele>
        <time>2021-04-04T06:59:40Z</time>
      </trkpt>
      <trkpt lat="40.3157920" lon="-3.5717170">
        <ele>541.0</ele>
        <time>2021-04-04T06:59:41Z</time>
      </trkpt>
      <trkpt lat="40.3157650" lon="-3.5717860">
        <ele>541.0</ele>
        <time>2021-04-04T06:59:42Z</time>
      </trkpt>
      <trkpt lat="40.3157420" lon="-3.5718530">
        <ele>541.0</ele>
        <time>2021-04-04T06:59:43Z</time>
      </trkpt>
      <trkpt lat="40.3157200" lon="-3.5719210">
        <ele>541.0</ele>
        <time>2021-04-04T06:59:44Z</time>
      </trkpt>
      <trkpt lat="40.3156930" lon="-3.5719900">
        <ele>541.0</ele>
        <time>2021-04-04T06:59:45Z</time>
      </trkpt>
      <trkpt lat="40.3156660" lon="-3.5720620">
        <ele>541.0</ele>
        <time>2021-04-04T06:59:46Z</time>
      </trkpt>
      <trkpt lat="40.3156430" lon="-3.5721300">
        <ele>541.0</ele>
        <time>2021-04-04T06:59:47Z</time>
      </trkpt>
      <trkpt lat="40.3156200" lon="-3.5721980">
        <ele>541.2</ele>
        <time>2021-04-04T06:59:48Z</time>
      </trkpt>
      <trkpt lat="40.3155940" lon="-3.5722680">
        <ele>541.2</ele>
        <time>2021-04-04T06:59:49Z</time>
      </trkpt>
      <trkpt lat="40.3155670" lon="-3.5723370">
        <ele>541.4</ele>
        <time>2021-04-04T06:59:50Z</time>
      </trkpt>
      <trkpt lat="40.3155400" lon="-3.5724060">
        <ele>541.4</ele>
        <time>2021-04-04T06:59:51Z</time>
      </trkpt>
      <trkpt lat="40.3155170" lon="-3.5724740">
        <ele>541.6</ele>
        <time>2021-04-04T06:59:52Z</time>
      </trkpt>
      <trkpt lat="40.3154910" lon="-3.5725420">
        <ele>541.6</ele>
        <time>2021-04-04T06:59:53Z</time>
      </trkpt>
      <trkpt lat="40.3154680" lon="-3.5726110">
        <ele>541.8</ele>
        <time>2021-04-04T06:59:54Z</time>
      </trkpt>
      <trkpt lat="40.3154450" lon="-3.5726810">
        <ele>542.0</ele>
        <time>2021-04-04T06:59:55Z</time>
      </trkpt>
      <trkpt lat="40.3154220" lon="-3.5727510">
        <ele>542.0</ele>
        <time>2021-04-04T06:59:56Z</time>
      </trkpt>
      <trkpt lat="40.3153990" lon="-3.5728220">
        <ele>542.0</ele>
        <time>2021-04-04T06:59:57Z</time>
      </trkpt>
      <trkpt lat="40.3153760" lon="-3.5728940">
        <ele>542.2</ele>
        <time>2021-04-04T06:59:58Z</time>
      </trkpt>
      <trkpt lat="40.3153530" lon="-3.5729660">
        <ele>542.2</ele>
        <time>2021-04-04T06:59:59Z</time>
      </trkpt>
      <trkpt lat="40.3153310" lon="-3.5730370">
        <ele>542.2</ele>
        <time>2021-04-04T07:00:00Z</time>
      </trkpt>
      <trkpt lat="40.3153080" lon="-3.5731230">
        <ele>542.2</ele>
        <time>2021-04-04T07:00:01Z</time>
      </trkpt>
      <trkpt lat="40.3152890" lon="-3.5731990">
        <ele>542.2</ele>
        <time>2021-04-04T07:00:02Z</time>
      </trkpt>
      <trkpt lat="40.3152620" lon="-3.5732750">
        <ele>542.2</ele>
        <time>2021-04-04T07:00:03Z</time>
      </trkpt>
      <trkpt lat="40.3152350" lon="-3.5733490">
        <ele>542.2</ele>
        <time>2021-04-04T07:00:04Z</time>
      </trkpt>
      <trkpt lat="40.3152120" lon="-3.5734240">
        <ele>542.2</ele>
        <time>2021-04-04T07:00:05Z</time>
      </trkpt>
      <trkpt lat="40.3151890" lon="-3.5735000">
        <ele>542.2</ele>
        <time>2021-04-04T07:00:06Z</time>
      </trkpt>
      <trkpt lat="40.3151660" lon="-3.5735740">
        <ele>542.2</ele>
        <time>2021-04-04T07:00:07Z</time>
      </trkpt>
      <trkpt lat="40.3151470" lon="-3.5736500">
        <ele>542.0</ele>
        <time>2021-04-04T07:00:08Z</time>
      </trkpt>
      <trkpt lat="40.3151280" lon="-3.5737270">
        <ele>542.0</ele>
        <time>2021-04-04T07:00:09Z</time>
      </trkpt>
      <trkpt lat="40.3151090" lon="-3.5738000">
        <ele>542.0</ele>
        <time>2021-04-04T07:00:10Z</time>
      </trkpt>
      <trkpt lat="40.3150900" lon="-3.5738700">
        <ele>542.0</ele>
        <time>2021-04-04T07:00:11Z</time>
      </trkpt>
      <trkpt lat="40.3150710" lon="-3.5739420">
        <ele>542.0</ele>
        <time>2021-04-04T07:00:12Z</time>
      </trkpt>
      <trkpt lat="40.3150600" lon="-3.5740110">
        <ele>542.2</ele>
        <time>2021-04-04T07:00:13Z</time>
      </trkpt>
      <trkpt lat="40.3150440" lon="-3.5740810">
        <ele>542.2</ele>
        <time>2021-04-04T07:00:14Z</time>
      </trkpt>
      <trkpt lat="40.3150290" lon="-3.5741520">
        <ele>542.2</ele>
        <time>2021-04-04T07:00:15Z</time>
      </trkpt>
      <trkpt lat="40.3150140" lon="-3.5742220">
        <ele>542.2</ele>
        <time>2021-04-04T07:00:16Z</time>
      </trkpt>
      <trkpt lat="40.3149990" lon="-3.5742960">
        <ele>542.2</ele>
        <time>2021-04-04T07:00:17Z</time>
      </trkpt>
      <trkpt lat="40.3149870" lon="-3.5743690">
        <ele>542.2</ele>
        <time>2021-04-04T07:00:18Z</time>
      </trkpt>
      <trkpt lat="40.3149830" lon="-3.5744430">
        <ele>542.2</ele>
        <time>2021-04-04T07:00:19Z</time>
      </trkpt>
      <trkpt lat="40.3149800" lon="-3.5745180">
        <ele>542.4</ele>
        <time>2021-04-04T07:00:20Z</time>
      </trkpt>
      <trkpt lat="40.3149720" lon="-3.5745890">
        <ele>542.4</ele>
        <time>2021-04-04T07:00:21Z</time>
      </trkpt>
      <trkpt lat="40.3149600" lon="-3.5746570">
        <ele>542.4</ele>
        <time>2021-04-04T07:00:22Z</time>
      </trkpt>
      <trkpt lat="40.3149490" lon="-3.5747240">
        <ele>542.4</ele>
        <time>2021-04-04T07:00:23Z</time>
      </trkpt>
      <trkpt lat="40.3149380" lon="-3.5747940">
        <ele>542.4</ele>
        <time>2021-04-04T07:00:24Z</time>
      </trkpt>
      <trkpt lat="40.3149260" lon="-3.5748650">
        <ele>542.4</ele>
        <time>2021-04-04T07:00:25Z</time>
      </trkpt>
      <trkpt lat="40.3149110" lon="-3.5749350">
        <ele>542.4</ele>
        <time>2021-04-04T07:00:26Z</time>
      </trkpt>
      <trkpt lat="40.3148920" lon="-3.5750060">
        <ele>542.6</ele>
        <time>2021-04-04T07:00:27Z</time>
      </trkpt>
      <trkpt lat="40.3148730" lon="-3.5750760">
        <ele>542.6</ele>
        <time>2021-04-04T07:00:28Z</time>
      </trkpt>
      <trkpt lat="40.3148580" lon="-3.5751440">
        <ele>542.4</ele>
        <time>2021-04-04T07:00:29Z</time>
      </trkpt>
      <trkpt lat="40.3148420" lon="-3.5752100">
        <ele>542.4</ele>
        <time>2021-04-04T07:00:30Z</time>
      </trkpt>
      <trkpt lat="40.3148190" lon="-3.5752740">
        <ele>542.6</ele>
        <time>2021-04-04T07:00:31Z</time>
      </trkpt>
      <trkpt lat="40.3148040" lon="-3.5753370">
        <ele>542.6</ele>
        <time>2021-04-04T07:00:32Z</time>
      </trkpt>
      <trkpt lat="40.3147890" lon="-3.5754010">
        <ele>542.6</ele>
        <time>2021-04-04T07:00:33Z</time>
      </trkpt>
      <trkpt lat="40.3147740" lon="-3.5754640">
        <ele>542.4</ele>
        <time>2021-04-04T07:00:34Z</time>
      </trkpt>
      <trkpt lat="40.3147620" lon="-3.5755310">
        <ele>542.4</ele>
        <time>2021-04-04T07:00:35Z</time>
      </trkpt>
      <trkpt lat="40.3147550" lon="-3.5755970">
        <ele>542.4</ele>
        <time>2021-04-04T07:00:36Z</time>
      </trkpt>
      <trkpt lat="40.3147470" lon="-3.5756650">
        <ele>542.4</ele>
        <time>2021-04-04T07:00:37Z</time>
      </trkpt>
      <trkpt lat="40.3147390" lon="-3.5757350">
        <ele>542.4</ele>
        <time>2021-04-04T07:00:38Z</time>
      </trkpt>
      <trkpt lat="40.3147280" lon="-3.5758060">
        <ele>542.2</ele>
        <time>2021-04-04T07:00:39Z</time>
      </trkpt>
      <trkpt lat="40.3147160" lon="-3.5758780">
        <ele>542.2</ele>
        <time>2021-04-04T07:00:40Z</time>
      </trkpt>
      <trkpt lat="40.3147090" lon="-3.5759480">
        <ele>542.2</ele>
        <time>2021-04-04T07:00:41Z</time>
      </trkpt>
      <trkpt lat="40.3146900" lon="-3.5760170">
        <ele>542.2</ele>
        <time>2021-04-04T07:00:42Z</time>
      </trkpt>
      <trkpt lat="40.3146670" lon="-3.5760830">
        <ele>542.0</ele>
        <time>2021-04-04T07:00:43Z</time>
      </trkpt>
      <trkpt lat="40.3146360" lon="-3.5761420">
        <ele>542.0</ele>
        <time>2021-04-04T07:00:44Z</time>
      </trkpt>
      <trkpt lat="40.3145980" lon="-3.5761930">
        <ele>542.0</ele>
        <time>2021-04-04T07:00:45Z</time>
      </trkpt>
      <trkpt lat="40.3145560" lon="-3.5762410">
        <ele>542.0</ele>
        <time>2021-04-04T07:00:46Z</time>
      </trkpt>
      <trkpt lat="40.3145140" lon="-3.5762880">
        <ele>542.0</ele>
        <time>2021-04-04T07:00:47Z</time>
      </trkpt>
      <trkpt lat="40.3144720" lon="-3.5763390">
        <ele>542.0</ele>
        <time>2021-04-04T07:00:48Z</time>
      </trkpt>
      <trkpt lat="40.3144340" lon="-3.5763910">
        <ele>541.8</ele>
        <time>2021-04-04T07:00:49Z</time>
      </trkpt>
      <trkpt lat="40.3143960" lon="-3.5764430">
        <ele>541.8</ele>
        <time>2021-04-04T07:00:50Z</time>
      </trkpt>
      <trkpt lat="40.3143540" lon="-3.5764950">
        <ele>541.8</ele>
        <time>2021-04-04T07:00:51Z</time>
      </trkpt>
      <trkpt lat="40.3143120" lon="-3.5765480">
        <ele>541.8</ele>
        <time>2021-04-04T07:00:52Z</time>
      </trkpt>
      <trkpt lat="40.3142700" lon="-3.5766030">
        <ele>541.8</ele>
        <time>2021-04-04T07:00:53Z</time>
      </trkpt>
      <trkpt lat="40.3142360" lon="-3.5766570">
        <ele>541.8</ele>
        <time>2021-04-04T07:00:54Z</time>
      </trkpt>
      <trkpt lat="40.3142010" lon="-3.5767130">
        <ele>541.8</ele>
        <time>2021-04-04T07:00:55Z</time>
      </trkpt>
      <trkpt lat="40.3141670" lon="-3.5767670">
        <ele>541.8</ele>
        <time>2021-04-04T07:00:56Z</time>
      </trkpt>
      <trkpt lat="40.3141290" lon="-3.5768210">
        <ele>541.8</ele>
        <time>2021-04-04T07:00:57Z</time>
      </trkpt>
      <trkpt lat="40.3140950" lon="-3.5768760">
        <ele>541.6</ele>
        <time>2021-04-04T07:00:58Z</time>
      </trkpt>
      <trkpt lat="40.3140600" lon="-3.5769300">
        <ele>541.6</ele>
        <time>2021-04-04T07:00:59Z</time>
      </trkpt>
      <trkpt lat="40.3140300" lon="-3.5769830">
        <ele>541.6</ele>
        <time>2021-04-04T07:01:00Z</time>
      </trkpt>
      <trkpt lat="40.3139950" lon="-3.5770340">
        <ele>541.6</ele>
        <time>2021-04-04T07:01:01Z</time>
      </trkpt>
      <trkpt lat="40.3139610" lon="-3.5770800">
        <ele>541.6</ele>
        <time>2021-04-04T07:01:02Z</time>
      </trkpt>
      <trkpt lat="40.3139340" lon="-3.5771240">
        <ele>541.6</ele>
        <time>2021-04-04T07:01:03Z</time>
      </trkpt>
      <trkpt lat="40.3139110" lon="-3.5771730">
        <ele>541.6</ele>
        <time>2021-04-04T07:01:04Z</time>
      </trkpt>
      <trkpt lat="40.3138890" lon="-3.5772270">
        <ele>541.6</ele>
        <time>2021-04-04T07:01:05Z</time>
      </trkpt>
      <trkpt lat="40.3138690" lon="-3.5772800">
        <ele>541.6</ele>
        <time>2021-04-04T07:01:06Z</time>
      </trkpt>
      <trkpt lat="40.3138540" lon="-3.5773310">
        <ele>541.6</ele>
        <time>2021-04-04T07:01:07Z</time>
      </trkpt>
      <trkpt lat="40.3138390" lon="-3.5773790">
        <ele>541.6</ele>
        <time>2021-04-04T07:01:08Z</time>
      </trkpt>
      <trkpt lat="40.3138310" lon="-3.5774240">
        <ele>541.6</ele>
        <time>2021-04-04T07:01:09Z</time>
      </trkpt>
      <trkpt lat="40.3138200" lon="-3.5774620">
        <ele>541.6</ele>
        <time>2021-04-04T07:01:10Z</time>
      </trkpt>
      <trkpt lat="40.3138120" lon="-3.5774910">
        <ele>541.6</ele>
        <time>2021-04-04T07:01:11Z</time>
      </trkpt>
      <trkpt lat="40.3138050" lon="-3.5775190">
        <ele>541.6</ele>
        <time>2021-04-04T07:01:12Z</time>
      </trkpt>
      <trkpt lat="40.3137930" lon="-3.5775480">
        <ele>541.6</ele>
        <time>2021-04-04T07:01:13Z</time>
      </trkpt>
      <trkpt lat="40.3137820" lon="-3.5775800">
        <ele>541.8</ele>
        <time>2021-04-04T07:01:14Z</time>
      </trkpt>
      <trkpt lat="40.3137660" lon="-3.5776170">
        <ele>541.8</ele>
        <time>2021-04-04T07:01:15Z</time>
      </trkpt>
      <trkpt lat="40.3137510" lon="-3.5776540">
        <ele>541.8</ele>
        <time>2021-04-04T07:01:16Z</time>
      </trkpt>
      <trkpt lat="40.3137400" lon="-3.5776900">
        <ele>541.6</ele>
        <time>2021-04-04T07:01:17Z</time>
      </trkpt>
      <trkpt lat="40.3137250" lon="-3.5777250">
        <ele>541.6</ele>
        <time>2021-04-04T07:01:18Z</time>
      </trkpt>
      <trkpt lat="40.3137130" lon="-3.5777620">
        <ele>541.6</ele>
        <time>2021-04-04T07:01:19Z</time>
      </trkpt>
      <trkpt lat="40.3136980" lon="-3.5778060">
        <ele>541.6</ele>
        <time>2021-04-04T07:01:20Z</time>
      </trkpt>
      <trkpt lat="40.3136830" lon="-3.5778490">
        <ele>541.6</ele>
        <time>2021-04-04T07:01:21Z</time>
      </trkpt>
      <trkpt lat="40.3136710" lon="-3.5778980">
        <ele>541.6</ele>
        <time>2021-04-04T07:01:22Z</time>
      </trkpt>
      <trkpt lat="40.3136560" lon="-3.5779490">
        <ele>541.6</ele>
        <time>2021-04-04T07:01:23Z</time>
      </trkpt>
      <trkpt lat="40.3136410" lon="-3.5780020">
        <ele>541.6</ele>
        <time>2021-04-04T07:01:24Z</time>
      </trkpt>
      <trkpt lat="40.3136250" lon="-3.5780600">
        <ele>541.6</ele>
        <time>2021-04-04T07:01:25Z</time>
      </trkpt>
      <trkpt lat="40.3136100" lon="-3.5781210">
        <ele>541.6</ele>
        <time>2021-04-04T07:01:26Z</time>
      </trkpt>
      <trkpt lat="40.3135950" lon="-3.5781870">
        <ele>541.6</ele>
        <time>2021-04-04T07:01:27Z</time>
      </trkpt>
      <trkpt lat="40.3135830" lon="-3.5782520">
        <ele>541.6</ele>
        <time>2021-04-04T07:01:28Z</time>
      </trkpt>
      <trkpt lat="40.3135720" lon="-3.5783180">
        <ele>541.6</ele>
        <time>2021-04-04T07:01:29Z</time>
      </trkpt>
      <trkpt lat="40.3135530" lon="-3.5783840">
        <ele>541.6</ele>
        <time>2021-04-04T07:01:30Z</time>
      </trkpt>
      <trkpt lat="40.3135380" lon="-3.5784500">
        <ele>541.8</ele>
        <time>2021-04-04T07:01:31Z</time>
      </trkpt>
      <trkpt lat="40.3135220" lon="-3.5785190">
        <ele>541.8</ele>
        <time>2021-04-04T07:01:32Z</time>
      </trkpt>
      <trkpt lat="40.3135110" lon="-3.5785870">
        <ele>542.0</ele>
        <time>2021-04-04T07:01:33Z</time>
      </trkpt>
      <trkpt lat="40.3134990" lon="-3.5786570">
        <ele>542.0</ele>
        <time>2021-04-04T07:01:34Z</time>
      </trkpt>
      <trkpt lat="40.3134920" lon="-3.5787290">
        <ele>542.2</ele>
        <time>2021-04-04T07:01:35Z</time>
      </trkpt>
      <trkpt lat="40.3134840" lon="-3.5787970">
        <ele>542.2</ele>
        <time>2021-04-04T07:01:36Z</time>
      </trkpt>
      <trkpt lat="40.3134730" lon="-3.5788660">
        <ele>542.4</ele>
        <time>2021-04-04T07:01:37Z</time>
      </trkpt>
      <trkpt lat="40.3134690" lon="-3.5789340">
        <ele>542.6</ele>
        <time>2021-04-04T07:01:38Z</time>
      </trkpt>
      <trkpt lat="40.3134650" lon="-3.5790000">
        <ele>542.8</ele>
        <time>2021-04-04T07:01:39Z</time>
      </trkpt>
      <trkpt lat="40.3134570" lon="-3.5790680">
        <ele>543.0</ele>
        <time>2021-04-04T07:01:40Z</time>
      </trkpt>
      <trkpt lat="40.3134540" lon="-3.5791370">
        <ele>543.2</ele>
        <time>2021-04-04T07:01:41Z</time>
      </trkpt>
      <trkpt lat="40.3134500" lon="-3.5792070">
        <ele>543.4</ele>
        <time>2021-04-04T07:01:42Z</time>
      </trkpt>
      <trkpt lat="40.3134460" lon="-3.5792760">
        <ele>543.4</ele>
        <time>2021-04-04T07:01:43Z</time>
      </trkpt>
      <trkpt lat="40.3134420" lon="-3.5793410">
        <ele>543.4</ele>
        <time>2021-04-04T07:01:44Z</time>
      </trkpt>
      <trkpt lat="40.3134420" lon="-3.5794220">
        <ele>543.4</ele>
        <time>2021-04-04T07:01:45Z</time>
      </trkpt>
      <trkpt lat="40.3134420" lon="-3.5795010">
        <ele>543.4</ele>
        <time>2021-04-04T07:01:46Z</time>
      </trkpt>
      <trkpt lat="40.3134460" lon="-3.5795760">
        <ele>543.4</ele>
        <time>2021-04-04T07:01:47Z</time>
      </trkpt>
      <trkpt lat="40.3134420" lon="-3.5796490">
        <ele>543.4</ele>
        <time>2021-04-04T07:01:48Z</time>
      </trkpt>
      <trkpt lat="40.3134350" lon="-3.5797250">
        <ele>543.4</ele>
        <time>2021-04-04T07:01:49Z</time>
      </trkpt>
      <trkpt lat="40.3134230" lon="-3.5798030">
        <ele>543.4</ele>
        <time>2021-04-04T07:01:50Z</time>
      </trkpt>
      <trkpt lat="40.3134150" lon="-3.5798810">
        <ele>543.4</ele>
        <time>2021-04-04T07:01:51Z</time>
      </trkpt>
      <trkpt lat="40.3134120" lon="-3.5799560">
        <ele>543.6</ele>
        <time>2021-04-04T07:01:52Z</time>
      </trkpt>
      <trkpt lat="40.3134040" lon="-3.5800300">
        <ele>543.6</ele>
        <time>2021-04-04T07:01:53Z</time>
      </trkpt>
      <trkpt lat="40.3133960" lon="-3.5801020">
        <ele>543.8</ele>
        <time>2021-04-04T07:01:54Z</time>
      </trkpt>
      <trkpt lat="40.3133890" lon="-3.5801720">
        <ele>543.8</ele>
        <time>2021-04-04T07:01:55Z</time>
      </trkpt>
      <trkpt lat="40.3133810" lon="-3.5802450">
        <ele>543.8</ele>
        <time>2021-04-04T07:01:56Z</time>
      </trkpt>
      <trkpt lat="40.3133770" lon="-3.5803170">
        <ele>544.0</ele>
        <time>2021-04-04T07:01:57Z</time>
      </trkpt>
      <trkpt lat="40.3133740" lon="-3.5803890">
        <ele>544.0</ele>
        <time>2021-04-04T07:01:58Z</time>
      </trkpt>
      <trkpt lat="40.3133700" lon="-3.5804600">
        <ele>544.0</ele>
        <time>2021-04-04T07:01:59Z</time>
      </trkpt>
      <trkpt lat="40.3133620" lon="-3.5805310">
        <ele>544.0</ele>
        <time>2021-04-04T07:02:00Z</time>
      </trkpt>
      <trkpt lat="40.3133580" lon="-3.5806170">
        <ele>543.8</ele>
        <time>2021-04-04T07:02:01Z</time>
      </trkpt>
      <trkpt lat="40.3133580" lon="-3.5806960">
        <ele>543.8</ele>
        <time>2021-04-04T07:02:02Z</time>
      </trkpt>
      <trkpt lat="40.3133580" lon="-3.5807740">
        <ele>543.6</ele>
        <time>2021-04-04T07:02:03Z</time>
      </trkpt>
      <trkpt lat="40.3133540" lon="-3.5808520">
        <ele>543.6</ele>
        <time>2021-04-04T07:02:04Z</time>
      </trkpt>
      <trkpt lat="40.3133510" lon="-3.5809320">
        <ele>543.6</ele>
        <time>2021-04-04T07:02:05Z</time>
      </trkpt>
      <trkpt lat="40.3133430" lon="-3.5810110">
        <ele>543.6</ele>
        <time>2021-04-04T07:02:06Z</time>
      </trkpt>
      <trkpt lat="40.3133350" lon="-3.5810890">
        <ele>543.6</ele>
        <time>2021-04-04T07:02:07Z</time>
      </trkpt>
      <trkpt lat="40.3133320" lon="-3.5811660">
        <ele>543.4</ele>
        <time>2021-04-04T07:02:08Z</time>
      </trkpt>
      <trkpt lat="40.3133280" lon="-3.5812430">
        <ele>543.4</ele>
        <time>2021-04-04T07:02:09Z</time>
      </trkpt>
      <trkpt lat="40.3133280" lon="-3.5813190">
        <ele>543.4</ele>
        <time>2021-04-04T07:02:10Z</time>
      </trkpt>
      <trkpt lat="40.3133240" lon="-3.5813980">
        <ele>543.4</ele>
        <time>2021-04-04T07:02:11Z</time>
      </trkpt>
      <trkpt lat="40.3133160" lon="-3.5814780">
        <ele>543.4</ele>
        <time>2021-04-04T07:02:12Z</time>
      </trkpt>
      <trkpt lat="40.3133050" lon="-3.5815520">
        <ele>543.2</ele>
        <time>2021-04-04T07:02:13Z</time>
      </trkpt>
      <trkpt lat="40.3132860" lon="-3.5816240">
        <ele>543.2</ele>
        <time>2021-04-04T07:02:14Z</time>
      </trkpt>
      <trkpt lat="40.3132670" lon="-3.5816960">
        <ele>543.0</ele>
        <time>2021-04-04T07:02:15Z</time>
      </trkpt>
      <trkpt lat="40.3132510" lon="-3.5817690">
        <ele>543.0</ele>
        <time>2021-04-04T07:02:16Z</time>
      </trkpt>
      <trkpt lat="40.3132320" lon="-3.5818450">
        <ele>542.8</ele>
        <time>2021-04-04T07:02:17Z</time>
      </trkpt>
      <trkpt lat="40.3132100" lon="-3.5819180">
        <ele>542.8</ele>
        <time>2021-04-04T07:02:18Z</time>
      </trkpt>
      <trkpt lat="40.3131900" lon="-3.5819920">
        <ele>542.6</ele>
        <time>2021-04-04T07:02:19Z</time>
      </trkpt>
      <trkpt lat="40.3131710" lon="-3.5820660">
        <ele>542.6</ele>
        <time>2021-04-04T07:02:20Z</time>
      </trkpt>
      <trkpt lat="40.3131560" lon="-3.5821410">
        <ele>542.6</ele>
        <time>2021-04-04T07:02:21Z</time>
      </trkpt>
      <trkpt lat="40.3131370" lon="-3.5822190">
        <ele>542.4</ele>
        <time>2021-04-04T07:02:22Z</time>
      </trkpt>
      <trkpt lat="40.3131260" lon="-3.5822970">
        <ele>542.4</ele>
        <time>2021-04-04T07:02:23Z</time>
      </trkpt>
      <trkpt lat="40.3131100" lon="-3.5823760">
        <ele>542.2</ele>
        <time>2021-04-04T07:02:24Z</time>
      </trkpt>
      <trkpt lat="40.3130990" lon="-3.5824590">
        <ele>542.2</ele>
        <time>2021-04-04T07:02:25Z</time>
      </trkpt>
      <trkpt lat="40.3130950" lon="-3.5825420">
        <ele>542.0</ele>
        <time>2021-04-04T07:02:26Z</time>
      </trkpt>
      <trkpt lat="40.3130870" lon="-3.5826240">
        <ele>542.0</ele>
        <time>2021-04-04T07:02:27Z</time>
      </trkpt>
      <trkpt lat="40.3130800" lon="-3.5827040">
        <ele>541.8</ele>
        <time>2021-04-04T07:02:28Z</time>
      </trkpt>
      <trkpt lat="40.3130720" lon="-3.5827860">
        <ele>541.6</ele>
        <time>2021-04-04T07:02:29Z</time>
      </trkpt>
      <trkpt lat="40.3130650" lon="-3.5828660">
        <ele>541.4</ele>
        <time>2021-04-04T07:02:30Z</time>
      </trkpt>
      <trkpt lat="40.3130570" lon="-3.5829470">
        <ele>541.2</ele>
        <time>2021-04-04T07:02:31Z</time>
      </trkpt>
      <trkpt lat="40.3130570" lon="-3.5830310">
        <ele>541.0</ele>
        <time>2021-04-04T07:02:32Z</time>
      </trkpt>
      <trkpt lat="40.3130650" lon="-3.5831180">
        <ele>540.8</ele>
        <time>2021-04-04T07:02:33Z</time>
      </trkpt>
      <trkpt lat="40.3130760" lon="-3.5832020">
        <ele>540.6</ele>
        <time>2021-04-04T07:02:34Z</time>
      </trkpt>
      <trkpt lat="40.3130910" lon="-3.5832860">
        <ele>540.4</ele>
        <time>2021-04-04T07:02:35Z</time>
      </trkpt>
      <trkpt lat="40.3131030" lon="-3.5833670">
        <ele>540.4</ele>
        <time>2021-04-04T07:02:36Z</time>
      </trkpt>
      <trkpt lat="40.3131070" lon="-3.5834470">
        <ele>540.2</ele>
        <time>2021-04-04T07:02:37Z</time>
      </trkpt>
      <trkpt lat="40.3131100" lon="-3.5835310">
        <ele>540.2</ele>
        <time>2021-04-04T07:02:38Z</time>
      </trkpt>
      <trkpt lat="40.3131070" lon="-3.5836100">
        <ele>540.2</ele>
        <time>2021-04-04T07:02:39Z</time>
      </trkpt>
      <trkpt lat="40.3130990" lon="-3.5836880">
        <ele>540.2</ele>
        <time>2021-04-04T07:02:40Z</time>
      </trkpt>
      <trkpt lat="40.3130910" lon="-3.5837650">
        <ele>540.2</ele>
        <time>2021-04-04T07:02:41Z</time>
      </trkpt>
      <trkpt lat="40.3130840" lon="-3.5838400">
        <ele>540.0</ele>
        <time>2021-04-04T07:02:42Z</time>
      </trkpt>
      <trkpt lat="40.3130720" lon="-3.5839180">
        <ele>540.0</ele>
        <time>2021-04-04T07:02:43Z</time>
      </trkpt>
      <trkpt lat="40.3130610" lon="-3.5839990">
        <ele>540.0</ele>
        <time>2021-04-04T07:02:44Z</time>
      </trkpt>
      <trkpt lat="40.3130490" lon="-3.5840810">
        <ele>540.0</ele>
        <time>2021-04-04T07:02:45Z</time>
      </trkpt>
      <trkpt lat="40.3130380" lon="-3.5841630">
        <ele>540.0</ele>
        <time>2021-04-04T07:02:46Z</time>
      </trkpt>
      <trkpt lat="40.3130230" lon="-3.5842470">
        <ele>540.0</ele>
        <time>2021-04-04T07:02:47Z</time>
      </trkpt>
      <trkpt lat="40.3130110" lon="-3.5843330">
        <ele>540.0</ele>
        <time>2021-04-04T07:02:48Z</time>
      </trkpt>
      <trkpt lat="40.3130040" lon="-3.5844190">
        <ele>540.0</ele>
        <time>2021-04-04T07:02:49Z</time>
      </trkpt>
      <trkpt lat="40.3129920" lon="-3.5845050">
        <ele>540.0</ele>
        <time>2021-04-04T07:02:50Z</time>
      </trkpt>
      <trkpt lat="40.3129770" lon="-3.5845940">
        <ele>540.0</ele>
        <time>2021-04-04T07:02:51Z</time>
      </trkpt>
      <trkpt lat="40.3129650" lon="-3.5846840">
        <ele>540.0</ele>
        <time>2021-04-04T07:02:52Z</time>
      </trkpt>
      <trkpt lat="40.3129540" lon="-3.5847740">
        <ele>540.0</ele>
        <time>2021-04-04T07:02:53Z</time>
      </trkpt>
      <trkpt lat="40.3129430" lon="-3.5848640">
        <ele>540.0</ele>
        <time>2021-04-04T07:02:54Z</time>
      </trkpt>
      <trkpt lat="40.3129310" lon="-3.5849520">
        <ele>540.0</ele>
        <time>2021-04-04T07:02:55Z</time>
      </trkpt>
      <trkpt lat="40.3129200" lon="-3.5850390">
        <ele>540.0</ele>
        <time>2021-04-04T07:02:56Z</time>
      </trkpt>
      <trkpt lat="40.3129120" lon="-3.5851280">
        <ele>540.0</ele>
        <time>2021-04-04T07:02:57Z</time>
      </trkpt>
      <trkpt lat="40.3129040" lon="-3.5852190">
        <ele>540.2</ele>
        <time>2021-04-04T07:02:58Z</time>
      </trkpt>
      <trkpt lat="40.3128930" lon="-3.5853090">
        <ele>540.2</ele>
        <time>2021-04-04T07:02:59Z</time>
      </trkpt>
      <trkpt lat="40.3128810" lon="-3.5853980">
        <ele>540.2</ele>
        <time>2021-04-04T07:03:00Z</time>
      </trkpt>
      <trkpt lat="40.3128660" lon="-3.5854840">
        <ele>540.4</ele>
        <time>2021-04-04T07:03:01Z</time>
      </trkpt>
      <trkpt lat="40.3128550" lon="-3.5855680">
        <ele>540.4</ele>
        <time>2021-04-04T07:03:02Z</time>
      </trkpt>
      <trkpt lat="40.3128390" lon="-3.5856480">
        <ele>540.4</ele>
        <time>2021-04-04T07:03:03Z</time>
      </trkpt>
      <trkpt lat="40.3128280" lon="-3.5857290">
        <ele>540.4</ele>
        <time>2021-04-04T07:03:04Z</time>
      </trkpt>
      <trkpt lat="40.3128130" lon="-3.5858070">
        <ele>540.4</ele>
        <time>2021-04-04T07:03:05Z</time>
      </trkpt>
      <trkpt lat="40.3127980" lon="-3.5858790">
        <ele>540.4</ele>
        <time>2021-04-04T07:03:06Z</time>
      </trkpt>
      <trkpt lat="40.3127780" lon="-3.5859500">
        <ele>540.4</ele>
        <time>2021-04-04T07:03:07Z</time>
      </trkpt>
      <trkpt lat="40.3127590" lon="-3.5860280">
        <ele>540.4</ele>
        <time>2021-04-04T07:03:08Z</time>
      </trkpt>
      <trkpt lat="40.3127480" lon="-3.5861090">
        <ele>540.4</ele>
        <time>2021-04-04T07:03:09Z</time>
      </trkpt>
      <trkpt lat="40.3127400" lon="-3.5861910">
        <ele>540.4</ele>
        <time>2021-04-04T07:03:10Z</time>
      </trkpt>
      <trkpt lat="40.3127330" lon="-3.5862720">
        <ele>540.4</ele>
        <time>2021-04-04T07:03:11Z</time>
      </trkpt>
      <trkpt lat="40.3127250" lon="-3.5863520">
        <ele>540.6</ele>
        <time>2021-04-04T07:03:12Z</time>
      </trkpt>
      <trkpt lat="40.3127170" lon="-3.5864420">
        <ele>540.6</ele>
        <time>2021-04-04T07:03:13Z</time>
      </trkpt>
      <trkpt lat="40.3127060" lon="-3.5865230">
        <ele>540.6</ele>
        <time>2021-04-04T07:03:14Z</time>
      </trkpt>
      <trkpt lat="40.3126950" lon="-3.5866020">
        <ele>540.8</ele>
        <time>2021-04-04T07:03:15Z</time>
      </trkpt>
      <trkpt lat="40.3126870" lon="-3.5866860">
        <ele>540.8</ele>
        <time>2021-04-04T07:03:16Z</time>
      </trkpt>
      <trkpt lat="40.3126830" lon="-3.5867700">
        <ele>541.0</ele>
        <time>2021-04-04T07:03:17Z</time>
      </trkpt>
      <trkpt lat="40.3126750" lon="-3.5868520">
        <ele>541.0</ele>
        <time>2021-04-04T07:03:18Z</time>
      </trkpt>
      <trkpt lat="40.3126640" lon="-3.5869340">
        <ele>541.2</ele>
        <time>2021-04-04T07:03:19Z</time>
      </trkpt>
      <trkpt lat="40.3126560" lon="-3.5870150">
        <ele>541.2</ele>
        <time>2021-04-04T07:03:20Z</time>
      </trkpt>
      <trkpt lat="40.3126490" lon="-3.5870940">
        <ele>541.4</ele>
        <time>2021-04-04T07:03:21Z</time>
      </trkpt>
      <trkpt lat="40.3126410" lon="-3.5871750">
        <ele>541.6</ele>
        <time>2021-04-04T07:03:22Z</time>
      </trkpt>
      <trkpt lat="40.3126370" lon="-3.5872550">
        <ele>541.6</ele>
        <time>2021-04-04T07:03:23Z</time>
      </trkpt>
      <trkpt lat="40.3126300" lon="-3.5873370">
        <ele>541.6</ele>
        <time>2021-04-04T07:03:24Z</time>
      </trkpt>
      <trkpt lat="40.3126180" lon="-3.5874210">
        <ele>541.6</ele>
        <time>2021-04-04T07:03:25Z</time>
      </trkpt>
      <trkpt lat="40.3126030" lon="-3.5875040">
        <ele>541.6</ele>
        <time>2021-04-04T07:03:26Z</time>
      </trkpt>
      <trkpt lat="40.3125920" lon="-3.5875850">
        <ele>541.6</ele>
        <time>2021-04-04T07:03:27Z</time>
      </trkpt>
      <trkpt lat="40.3125800" lon="-3.5876620">
        <ele>541.4</ele>
        <time>2021-04-04T07:03:28Z</time>
      </trkpt>
      <trkpt lat="40.3125720" lon="-3.5877400">
        <ele>541.4</ele>
        <time>2021-04-04T07:03:29Z</time>
      </trkpt>
      <trkpt lat="40.3125690" lon="-3.5878210">
        <ele>541.4</ele>
        <time>2021-04-04T07:03:30Z</time>
      </trkpt>
      <trkpt lat="40.3125610" lon="-3.5879010">
        <ele>541.4</ele>
        <time>2021-04-04T07:03:31Z</time>
      </trkpt>
      <trkpt lat="40.3125530" lon="-3.5879800">
        <ele>541.4</ele>
        <time>2021-04-04T07:03:32Z</time>
      </trkpt>
      <trkpt lat="40.3125420" lon="-3.5880620">
        <ele>541.4</ele>
        <time>2021-04-04T07:03:33Z</time>
      </trkpt>
      <trkpt lat="40.3125340" lon="-3.5881400">
        <ele>541.6</ele>
        <time>2021-04-04T07:03:34Z</time>
      </trkpt>
      <trkpt lat="40.3125310" lon="-3.5882180">
        <ele>541.6</ele>
        <time>2021-04-04T07:03:35Z</time>
      </trkpt>
      <trkpt lat="40.3125230" lon="-3.5882990">
        <ele>541.6</ele>
        <time>2021-04-04T07:03:36Z</time>
      </trkpt>
      <trkpt lat="40.3125190" lon="-3.5883750">
        <ele>541.8</ele>
        <time>2021-04-04T07:03:37Z</time>
      </trkpt>
      <trkpt lat="40.3125110" lon="-3.5884520">
        <ele>541.8</ele>
        <time>2021-04-04T07:03:38Z</time>
      </trkpt>
      <trkpt lat="40.3125000" lon="-3.5885330">
        <ele>541.8</ele>
        <time>2021-04-04T07:03:39Z</time>
      </trkpt>
      <trkpt lat="40.3124920" lon="-3.5886140">
        <ele>541.8</ele>
        <time>2021-04-04T07:03:40Z</time>
      </trkpt>
      <trkpt lat="40.3124890" lon="-3.5886960">
        <ele>541.8</ele>
        <time>2021-04-04T07:03:41Z</time>
      </trkpt>
      <trkpt lat="40.3124810" lon="-3.5887770">
        <ele>541.8</ele>
        <time>2021-04-04T07:03:42Z</time>
      </trkpt>
      <trkpt lat="40.3124770" lon="-3.5888580">
        <ele>541.8</ele>
        <time>2021-04-04T07:03:43Z</time>
      </trkpt>
      <trkpt lat="40.3124730" lon="-3.5889430">
        <ele>541.8</ele>
        <time>2021-04-04T07:03:44Z</time>
      </trkpt>
      <trkpt lat="40.3124700" lon="-3.5890290">
        <ele>541.8</ele>
        <time>2021-04-04T07:03:45Z</time>
      </trkpt>
      <trkpt lat="40.3124660" lon="-3.5891110">
        <ele>541.8</ele>
        <time>2021-04-04T07:03:46Z</time>
      </trkpt>
      <trkpt lat="40.3124580" lon="-3.5891940">
        <ele>541.8</ele>
        <time>2021-04-04T07:03:47Z</time>
      </trkpt>
      <trkpt lat="40.3124470" lon="-3.5892780">
        <ele>541.8</ele>
        <time>2021-04-04T07:03:48Z</time>
      </trkpt>
      <trkpt lat="40.3124280" lon="-3.5893620">
        <ele>541.6</ele>
        <time>2021-04-04T07:03:49Z</time>
      </trkpt>
      <trkpt lat="40.3124160" lon="-3.5894470">
        <ele>541.6</ele>
        <time>2021-04-04T07:03:50Z</time>
      </trkpt>
      <trkpt lat="40.3124080" lon="-3.5895330">
        <ele>541.4</ele>
        <time>2021-04-04T07:03:51Z</time>
      </trkpt>
      <trkpt lat="40.3124010" lon="-3.5896180">
        <ele>541.2</ele>
        <time>2021-04-04T07:03:52Z</time>
      </trkpt>
      <trkpt lat="40.3123890" lon="-3.5896990">
        <ele>541.2</ele>
        <time>2021-04-04T07:03:53Z</time>
      </trkpt>
      <trkpt lat="40.3123780" lon="-3.5897770">
        <ele>541.0</ele>
        <time>2021-04-04T07:03:54Z</time>
      </trkpt>
      <trkpt lat="40.3123670" lon="-3.5898540">
        <ele>540.8</ele>
        <time>2021-04-04T07:03:55Z</time>
      </trkpt>
      <trkpt lat="40.3123550" lon="-3.5899310">
        <ele>540.8</ele>
        <time>2021-04-04T07:03:56Z</time>
      </trkpt>
      <trkpt lat="40.3123510" lon="-3.5900090">
        <ele>540.6</ele>
        <time>2021-04-04T07:03:57Z</time>
      </trkpt>
      <trkpt lat="40.3123470" lon="-3.5900870">
        <ele>540.6</ele>
        <time>2021-04-04T07:03:58Z</time>
      </trkpt>
      <trkpt lat="40.3123440" lon="-3.5901650">
        <ele>540.4</ele>
        <time>2021-04-04T07:03:59Z</time>
      </trkpt>
      <trkpt lat="40.3123440" lon="-3.5902410">
        <ele>540.4</ele>
        <time>2021-04-04T07:04:00Z</time>
      </trkpt>
      <trkpt lat="40.3123440" lon="-3.5903180">
        <ele>540.2</ele>
        <time>2021-04-04T07:04:01Z</time>
      </trkpt>
      <trkpt lat="40.3123510" lon="-3.5903940">
        <ele>540.2</ele>
        <time>2021-04-04T07:04:02Z</time>
      </trkpt>
      <trkpt lat="40.3123590" lon="-3.5904700">
        <ele>540.0</ele>
        <time>2021-04-04T07:04:03Z</time>
      </trkpt>
      <trkpt lat="40.3123700" lon="-3.5905500">
        <ele>540.0</ele>
        <time>2021-04-04T07:04:04Z</time>
      </trkpt>
      <trkpt lat="40.3123780" lon="-3.5906280">
        <ele>539.8</ele>
        <time>2021-04-04T07:04:05Z</time>
      </trkpt>
      <trkpt lat="40.3123890" lon="-3.5907060">
        <ele>539.6</ele>
        <time>2021-04-04T07:04:06Z</time>
      </trkpt>
      <trkpt lat="40.3123970" lon="-3.5907850">
        <ele>539.6</ele>
        <time>2021-04-04T07:04:07Z</time>
      </trkpt>
      <trkpt lat="40.3124050" lon="-3.5908650">
        <ele>539.4</ele>
        <time>2021-04-04T07:04:08Z</time>
      </trkpt>
      <trkpt lat="40.3124200" lon="-3.5909440">
        <ele>539.4</ele>
        <time>2021-04-04T07:04:09Z</time>
      </trkpt>
      <trkpt lat="40.3124350" lon="-3.5910190">
        <ele>539.4</ele>
        <time>2021-04-04T07:04:10Z</time>
      </trkpt>
      <trkpt lat="40.3124500" lon="-3.5910920">
        <ele>539.4</ele>
        <time>2021-04-04T07:04:11Z</time>
      </trkpt>
      <trkpt lat="40.3124660" lon="-3.5911590">
        <ele>539.2</ele>
        <time>2021-04-04T07:04:12Z</time>
      </trkpt>
      <trkpt lat="40.3124850" lon="-3.5912230">
        <ele>539.2</ele>
        <time>2021-04-04T07:04:13Z</time>
      </trkpt>
      <trkpt lat="40.3125000" lon="-3.5913010">
        <ele>539.4</ele>
        <time>2021-04-04T07:04:14Z</time>
      </trkpt>
      <trkpt lat="40.3125040" lon="-3.5913710">
        <ele>539.4</ele>
        <time>2021-04-04T07:04:15Z</time>
      </trkpt>
      <trkpt lat="40.3125000" lon="-3.5914400">
        <ele>539.4</ele>
        <time>2021-04-04T07:04:16Z</time>
      </trkpt>
      <trkpt lat="40.3124890" lon="-3.5915080">
        <ele>539.4</ele>
        <time>2021-04-04T07:04:17Z</time>
      </trkpt>
      <trkpt lat="40.3124700" lon="-3.5915730">
        <ele>539.4</ele>
        <time>2021-04-04T07:04:18Z</time>
      </trkpt>
      <trkpt lat="40.3124540" lon="-3.5916780">
        <ele>539.2</ele>
        <time>2021-04-04T07:04:19Z</time>
      </trkpt>
      <trkpt lat="40.3124430" lon="-3.5917620">
        <ele>539.2</ele>
        <time>2021-04-04T07:04:20Z</time>
      </trkpt>
      <trkpt lat="40.3124350" lon="-3.5918460">
        <ele>539.0</ele>
        <time>2021-04-04T07:04:21Z</time>
      </trkpt>
      <trkpt lat="40.3124200" lon="-3.5919270">
        <ele>539.0</ele>
        <time>2021-04-04T07:04:22Z</time>
      </trkpt>
      <trkpt lat="40.3124050" lon="-3.5920060">
        <ele>539.0</ele>
        <time>2021-04-04T07:04:23Z</time>
      </trkpt>
      <trkpt lat="40.3123890" lon="-3.5920870">
        <ele>538.8</ele>
        <time>2021-04-04T07:04:24Z</time>
      </trkpt>
      <trkpt lat="40.3123780" lon="-3.5921640">
        <ele>538.8</ele>
        <time>2021-04-04T07:04:25Z</time>
      </trkpt>
      <trkpt lat="40.3123700" lon="-3.5922370">
        <ele>538.8</ele>
        <time>2021-04-04T07:04:26Z</time>
      </trkpt>
      <trkpt lat="40.3123700" lon="-3.5923080">
        <ele>538.8</ele>
        <time>2021-04-04T07:04:27Z</time>
      </trkpt>
      <trkpt lat="40.3123630" lon="-3.5923790">
        <ele>538.6</ele>
        <time>2021-04-04T07:04:28Z</time>
      </trkpt>
      <trkpt lat="40.3123550" lon="-3.5924520">
        <ele>538.6</ele>
        <time>2021-04-04T07:04:29Z</time>
      </trkpt>
      <trkpt lat="40.3123510" lon="-3.5925240">
        <ele>538.6</ele>
        <time>2021-04-04T07:04:30Z</time>
      </trkpt>
      <trkpt lat="40.3123550" lon="-3.5925960">
        <ele>538.6</ele>
        <time>2021-04-04T07:04:31Z</time>
      </trkpt>
      <trkpt lat="40.3123550" lon="-3.5926690">
        <ele>538.6</ele>
        <time>2021-04-04T07:04:32Z</time>
      </trkpt>
      <trkpt lat="40.3123510" lon="-3.5927430">
        <ele>538.6</ele>
        <time>2021-04-04T07:04:33Z</time>
      </trkpt>
      <trkpt lat="40.3123470" lon="-3.5928170">
        <ele>538.6</ele>
        <time>2021-04-04T07:04:34Z</time>
      </trkpt>
      <trkpt lat="40.3123400" lon="-3.5928880">
        <ele>538.6</ele>
        <time>2021-04-04T07:04:35Z</time>
      </trkpt>
      <trkpt lat="40.3123280" lon="-3.5929500">
        <ele>538.6</ele>
        <time>2021-04-04T07:04:36Z</time>
      </trkpt>
      <trkpt lat="40.3123250" lon="-3.5930040">
        <ele>538.8</ele>
        <time>2021-04-04T07:04:37Z</time>
      </trkpt>
      <trkpt lat="40.3123210" lon="-3.5930600">
        <ele>538.8</ele>
        <time>2021-04-04T07:04:38Z</time>
      </trkpt>
      <trkpt lat="40.3123210" lon="-3.5931230">
        <ele>538.8</ele>
        <time>2021-04-04T07:04:39Z</time>
      </trkpt>
      <trkpt lat="40.3123170" lon="-3.5931840">
        <ele>538.8</ele>
        <time>2021-04-04T07:04:40Z</time>
      </trkpt>
      <trkpt lat="40.3123090" lon="-3.5932490">
        <ele>538.8</ele>
        <time>2021-04-04T07:04:41Z</time>
      </trkpt>
      <trkpt lat="40.3123050" lon="-3.5933140">
        <ele>538.8</ele>
        <time>2021-04-04T07:04:42Z</time>
      </trkpt>
      <trkpt lat="40.3122980" lon="-3.5933760">
        <ele>538.8</ele>
        <time>2021-04-04T07:04:43Z</time>
      </trkpt>
      <trkpt lat="40.3122940" lon="-3.5934400">
        <ele>538.8</ele>
        <time>2021-04-04T07:04:44Z</time>
      </trkpt>
      <trkpt lat="40.3122900" lon="-3.5935100">
        <ele>538.8</ele>
        <time>2021-04-04T07:04:45Z</time>
      </trkpt>
      <trkpt lat="40.3122830" lon="-3.5935800">
        <ele>538.8</ele>
        <time>2021-04-04T07:04:46Z</time>
      </trkpt>
      <trkpt lat="40.3122750" lon="-3.5936470">
        <ele>538.8</ele>
        <time>2021-04-04T07:04:47Z</time>
      </trkpt>
      <trkpt lat="40.3122670" lon="-3.5937100">
        <ele>538.8</ele>
        <time>2021-04-04T07:04:48Z</time>
      </trkpt>
      <trkpt lat="40.3122600" lon="-3.5937650">
        <ele>539.0</ele>
        <time>2021-04-04T07:04:49Z</time>
      </trkpt>
      <trkpt lat="40.3122520" lon="-3.5938060">
        <ele>539.0</ele>
        <time>2021-04-04T07:04:50Z</time>
      </trkpt>
      <trkpt lat="40.3122480" lon="-3.5938370">
        <ele>539.0</ele>
        <time>2021-04-04T07:04:51Z</time>
      </trkpt>
      <trkpt lat="40.3122480" lon="-3.5938550">
        <ele>539.0</ele>
        <time>2021-04-04T07:04:52Z</time>
      </trkpt>
      <trkpt lat="40.3122440" lon="-3.5939200">
        <ele>539.2</ele>
        <time>2021-04-04T07:04:57Z</time>
      </trkpt>
      <trkpt lat="40.3122440" lon="-3.5939350">
        <ele>539.2</ele>
        <time>2021-04-04T07:04:58Z</time>
      </trkpt>
      <trkpt lat="40.3122440" lon="-3.5939510">
        <ele>539.2</ele>
        <time>2021-04-04T07:04:59Z</time>
      </trkpt>
      <trkpt lat="40.3122440" lon="-3.5939710">
        <ele>539.2</ele>
        <time>2021-04-04T07:05:00Z</time>
      </trkpt>
      <trkpt lat="40.3122440" lon="-3.5939980">
        <ele>539.2</ele>
        <time>2021-04-04T07:05:01Z</time>
      </trkpt>
      <trkpt lat="40.3122480" lon="-3.5940290">
        <ele>539.2</ele>
        <time>2021-04-04T07:05:02Z</time>
      </trkpt>
      <trkpt lat="40.3122560" lon="-3.5940650">
        <ele>539.2</ele>
        <time>2021-04-04T07:05:03Z</time>
      </trkpt>
      <trkpt lat="40.3122600" lon="-3.5941030">
        <ele>539.2</ele>
        <time>2021-04-04T07:05:04Z</time>
      </trkpt>
      <trkpt lat="40.3122630" lon="-3.5941430">
        <ele>539.4</ele>
        <time>2021-04-04T07:05:05Z</time>
      </trkpt>
      <trkpt lat="40.3122670" lon="-3.5941870">
        <ele>539.4</ele>
        <time>2021-04-04T07:05:06Z</time>
      </trkpt>
      <trkpt lat="40.3122710" lon="-3.5942330">
        <ele>539.4</ele>
        <time>2021-04-04T07:05:07Z</time>
      </trkpt>
      <trkpt lat="40.3122750" lon="-3.5942810">
        <ele>539.4</ele>
        <time>2021-04-04T07:05:08Z</time>
      </trkpt>
      <trkpt lat="40.3122790" lon="-3.5943330">
        <ele>539.4</ele>
        <time>2021-04-04T07:05:09Z</time>
      </trkpt>
      <trkpt lat="40.3122830" lon="-3.5943850">
        <ele>539.4</ele>
        <time>2021-04-04T07:05:10Z</time>
      </trkpt>
      <trkpt lat="40.3122860" lon="-3.5944380">
        <ele>539.4</ele>
        <time>2021-04-04T07:05:11Z</time>
      </trkpt>
      <trkpt lat="40.3122860" lon="-3.5944880">
        <ele>539.4</ele>
        <time>2021-04-04T07:05:12Z</time>
      </trkpt>
      <trkpt lat="40.3122860" lon="-3.5945370">
        <ele>539.4</ele>
        <time>2021-04-04T07:05:13Z</time>
      </trkpt>
      <trkpt lat="40.3122860" lon="-3.5945940">
        <ele>539.4</ele>
        <time>2021-04-04T07:05:14Z</time>
      </trkpt>
      <trkpt lat="40.3122860" lon="-3.5946520">
        <ele>539.4</ele>
        <time>2021-04-04T07:05:15Z</time>
      </trkpt>
      <trkpt lat="40.3122900" lon="-3.5947130">
        <ele>539.4</ele>
        <time>2021-04-04T07:05:16Z</time>
      </trkpt>
      <trkpt lat="40.3122900" lon="-3.5947730">
        <ele>539.4</ele>
        <time>2021-04-04T07:05:17Z</time>
      </trkpt>
      <trkpt lat="40.3122830" lon="-3.5948320">
        <ele>539.4</ele>
        <time>2021-04-04T07:05:18Z</time>
      </trkpt>
      <trkpt lat="40.3122670" lon="-3.5948930">
        <ele>539.4</ele>
        <time>2021-04-04T07:05:19Z</time>
      </trkpt>
      <trkpt lat="40.3122560" lon="-3.5949500">
        <ele>539.4</ele>
        <time>2021-04-04T07:05:20Z</time>
      </trkpt>
      <trkpt lat="40.3122440" lon="-3.5950060">
        <ele>539.2</ele>
        <time>2021-04-04T07:05:21Z</time>
      </trkpt>
      <trkpt lat="40.3122410" lon="-3.5950610">
        <ele>539.2</ele>
        <time>2021-04-04T07:05:22Z</time>
      </trkpt>
      <trkpt lat="40.3122330" lon="-3.5951140">
        <ele>539.2</ele>
        <time>2021-04-04T07:05:23Z</time>
      </trkpt>
      <trkpt lat="40.3122290" lon="-3.5951660">
        <ele>539.2</ele>
        <time>2021-04-04T07:05:24Z</time>
      </trkpt>
      <trkpt lat="40.3122250" lon="-3.5952160">
        <ele>539.2</ele>
        <time>2021-04-04T07:05:25Z</time>
      </trkpt>
      <trkpt lat="40.3122210" lon="-3.5952570">
        <ele>539.2</ele>
        <time>2021-04-04T07:05:26Z</time>
      </trkpt>
      <trkpt lat="40.3122210" lon="-3.5952910">
        <ele>539.2</ele>
        <time>2021-04-04T07:05:27Z</time>
      </trkpt>
      <trkpt lat="40.3122210" lon="-3.5953150">
        <ele>539.2</ele>
        <time>2021-04-04T07:05:28Z</time>
      </trkpt>
      <trkpt lat="40.3122250" lon="-3.5953250">
        <ele>539.2</ele>
        <time>2021-04-04T07:05:29Z</time>
      </trkpt>
      <trkpt lat="40.3122250" lon="-3.5953260">
        <ele>539.2</ele>
        <time>2021-04-04T07:05:30Z</time>
      </trkpt>
      <trkpt lat="40.3122250" lon="-3.5953280">
        <ele>539.2</ele>
        <time>2021-04-04T07:05:31Z</time>
      </trkpt>
      <trkpt lat="40.3122250" lon="-3.5953280">
        <ele>539.2</ele>
        <time>2021-04-04T07:05:32Z</time>
      </trkpt>
      <trkpt lat="40.3122250" lon="-3.5953280">
        <ele>539.2</ele>
        <time>2021-04-04T07:05:33Z</time>
      </trkpt>
      <trkpt lat="40.3122370" lon="-3.5955400">
        <ele>539.6</ele>
        <time>2021-04-04T07:06:00Z</time>
      </trkpt>
      <trkpt lat="40.3122370" lon="-3.5955610">
        <ele>539.6</ele>
        <time>2021-04-04T07:06:01Z</time>
      </trkpt>
      <trkpt lat="40.3122370" lon="-3.5955820">
        <ele>539.6</ele>
        <time>2021-04-04T07:06:02Z</time>
      </trkpt>
      <trkpt lat="40.3122370" lon="-3.5956030">
        <ele>539.6</ele>
        <time>2021-04-04T07:06:03Z</time>
      </trkpt>
      <trkpt lat="40.3122370" lon="-3.5956210">
        <ele>539.4</ele>
        <time>2021-04-04T07:06:04Z</time>
      </trkpt>
      <trkpt lat="40.3122330" lon="-3.5956370">
        <ele>539.2</ele>
        <time>2021-04-04T07:06:05Z</time>
      </trkpt>
      <trkpt lat="40.3122290" lon="-3.5956530">
        <ele>539.2</ele>
        <time>2021-04-04T07:06:06Z</time>
      </trkpt>
      <trkpt lat="40.3122290" lon="-3.5956740">
        <ele>539.0</ele>
        <time>2021-04-04T07:06:07Z</time>
      </trkpt>
      <trkpt lat="40.3122290" lon="-3.5956940">
        <ele>539.0</ele>
        <time>2021-04-04T07:06:08Z</time>
      </trkpt>
      <trkpt lat="40.3122290" lon="-3.5957130">
        <ele>538.8</ele>
        <time>2021-04-04T07:06:09Z</time>
      </trkpt>
      <trkpt lat="40.3122250" lon="-3.5957310">
        <ele>538.8</ele>
        <time>2021-04-04T07:06:10Z</time>
      </trkpt>
      <trkpt lat="40.3122210" lon="-3.5957490">
        <ele>538.8</ele>
        <time>2021-04-04T07:06:11Z</time>
      </trkpt>
      <trkpt lat="40.3122210" lon="-3.5957640">
        <ele>538.8</ele>
        <time>2021-04-04T07:06:12Z</time>
      </trkpt>
      <trkpt lat="40.3122180" lon="-3.5957730">
        <ele>539.0</ele>
        <time>2021-04-04T07:06:13Z</time>
      </trkpt>
      <trkpt lat="40.3122180" lon="-3.5957810">
        <ele>539.0</ele>
        <time>2021-04-04T07:06:14Z</time>
      </trkpt>
      <trkpt lat="40.3122180" lon="-3.5957870">
        <ele>539.0</ele>
        <time>2021-04-04T07:06:15Z</time>
      </trkpt>
      <trkpt lat="40.3122180" lon="-3.5957870">
        <ele>539.2</ele>
        <time>2021-04-04T07:06:16Z</time>
      </trkpt>
      <trkpt lat="40.3122180" lon="-3.5958060">
        <ele>539.2</ele>
        <time>2021-04-04T07:06:17Z</time>
      </trkpt>
      <trkpt lat="40.3122180" lon="-3.5958440">
        <ele>539.2</ele>
        <time>2021-04-04T07:06:18Z</time>
      </trkpt>
      <trkpt lat="40.3122180" lon="-3.5958610">
        <ele>539.2</ele>
        <time>2021-04-04T07:06:19Z</time>
      </trkpt>
      <trkpt lat="40.3122180" lon="-3.5958760">
        <ele>539.2</ele>
        <time>2021-04-04T07:06:20Z</time>
      </trkpt>
      <trkpt lat="40.3122180" lon="-3.5958850">
        <ele>539.2</ele>
        <time>2021-04-04T07:06:21Z</time>
      </trkpt>
      <trkpt lat="40.3122210" lon="-3.5958900">
        <ele>539.2</ele>
        <time>2021-04-04T07:06:22Z</time>
      </trkpt>
      <trkpt lat="40.3122210" lon="-3.5958900">
        <ele>539.2</ele>
        <time>2021-04-04T07:06:23Z</time>
      </trkpt>
      <trkpt lat="40.3122210" lon="-3.5958900">
        <ele>539.4</ele>
        <time>2021-04-04T07:06:24Z</time>
      </trkpt>
      <trkpt lat="40.3122210" lon="-3.5958900">
        <ele>539.4</ele>
        <time>2021-04-04T07:06:25Z</time>
      </trkpt>
      <trkpt lat="40.3122210" lon="-3.5958900">
        <ele>539.6</ele>
        <time>2021-04-04T07:06:26Z</time>
      </trkpt>
      <trkpt lat="40.3122210" lon="-3.5958900">
        <ele>539.8</ele>
        <time>2021-04-04T07:06:27Z</time>
      </trkpt>
      <trkpt lat="40.3122210" lon="-3.5958900">
        <ele>540.4</ele>
        <time>2021-04-04T07:06:31Z</time>
      </trkpt>
      <trkpt lat="40.3122210" lon="-3.5958900">
        <ele>540.4</ele>
        <time>2021-04-04T07:06:32Z</time>
      </trkpt>
      <trkpt lat="40.3122370" lon="-3.5959280">
        <ele>540.6</ele>
        <time>2021-04-04T07:06:33Z</time>
      </trkpt>
      <trkpt lat="40.3122670" lon="-3.5959940">
        <ele>540.6</ele>
        <time>2021-04-04T07:06:34Z</time>
      </trkpt>
      <trkpt lat="40.3122750" lon="-3.5959990">
        <ele>540.6</ele>
        <time>2021-04-04T07:06:35Z</time>
      </trkpt>
      <trkpt lat="40.3122830" lon="-3.5960040">
        <ele>540.6</ele>
        <time>2021-04-04T07:06:36Z</time>
      </trkpt>
      <trkpt lat="40.3122860" lon="-3.5960150">
        <ele>540.8</ele>
        <time>2021-04-04T07:06:37Z</time>
      </trkpt>
      <trkpt lat="40.3122940" lon="-3.5960230">
        <ele>540.8</ele>
        <time>2021-04-04T07:06:38Z</time>
      </trkpt>
      <trkpt lat="40.3122980" lon="-3.5960320">
        <ele>541.0</ele>
        <time>2021-04-04T07:06:39Z</time>
      </trkpt>
      <trkpt lat="40.3123050" lon="-3.5960420">
        <ele>541.0</ele>
        <time>2021-04-04T07:06:40Z</time>
      </trkpt>
      <trkpt lat="40.3123170" lon="-3.5960510">
        <ele>541.2</ele>
        <time>2021-04-04T07:06:41Z</time>
      </trkpt>
      <trkpt lat="40.3123250" lon="-3.5960610">
        <ele>541.4</ele>
        <time>2021-04-04T07:06:42Z</time>
      </trkpt>
      <trkpt lat="40.3123320" lon="-3.5960710">
        <ele>541.4</ele>
        <time>2021-04-04T07:06:43Z</time>
      </trkpt>
      <trkpt lat="40.3123440" lon="-3.5960800">
        <ele>541.6</ele>
        <time>2021-04-04T07:06:44Z</time>
      </trkpt>
      <trkpt lat="40.3123550" lon="-3.5960850">
        <ele>541.8</ele>
        <time>2021-04-04T07:06:45Z</time>
      </trkpt>
      <trkpt lat="40.3123630" lon="-3.5960920">
        <ele>542.0</ele>
        <time>2021-04-04T07:06:46Z</time>
      </trkpt>
      <trkpt lat="40.3123700" lon="-3.5961030">
        <ele>542.2</ele>
        <time>2021-04-04T07:06:47Z</time>
      </trkpt>
      <trkpt lat="40.3123740" lon="-3.5961160">
        <ele>542.2</ele>
        <time>2021-04-04T07:06:48Z</time>
      </trkpt>
      <trkpt lat="40.3123700" lon="-3.5961280">
        <ele>542.4</ele>
        <time>2021-04-04T07:06:49Z</time>
      </trkpt>
      <trkpt lat="40.3123630" lon="-3.5961380">
        <ele>542.6</ele>
        <time>2021-04-04T07:06:50Z</time>
      </trkpt>
      <trkpt lat="40.3123590" lon="-3.5961490">
        <ele>542.8</ele>
        <time>2021-04-04T07:06:51Z</time>
      </trkpt>
      <trkpt lat="40.3123550" lon="-3.5961630">
        <ele>543.0</ele>
        <time>2021-04-04T07:06:52Z</time>
      </trkpt>
      <trkpt lat="40.3123510" lon="-3.5961800">
        <ele>543.0</ele>
        <time>2021-04-04T07:06:53Z</time>
      </trkpt>
      <trkpt lat="40.3123440" lon="-3.5961980">
        <ele>543.0</ele>
        <time>2021-04-04T07:06:54Z</time>
      </trkpt>
      <trkpt lat="40.3123400" lon="-3.5962130">
        <ele>543.2</ele>
        <time>2021-04-04T07:06:55Z</time>
      </trkpt>
      <trkpt lat="40.3123400" lon="-3.5962250">
        <ele>543.2</ele>
        <time>2021-04-04T07:06:56Z</time>
      </trkpt>
      <trkpt lat="40.3123360" lon="-3.5962350">
        <ele>543.2</ele>
        <time>2021-04-04T07:06:57Z</time>
      </trkpt>
      <trkpt lat="40.3123320" lon="-3.5962450">
        <ele>543.0</ele>
        <time>2021-04-04T07:06:58Z</time>
      </trkpt>
      <trkpt lat="40.3123320" lon="-3.5962500">
        <ele>543.0</ele>
        <time>2021-04-04T07:06:59Z</time>
      </trkpt>
      <trkpt lat="40.3123280" lon="-3.5962600">
        <ele>543.0</ele>
        <time>2021-04-04T07:07:00Z</time>
      </trkpt>
      <trkpt lat="40.3123210" lon="-3.5962800">
        <ele>543.0</ele>
        <time>2021-04-04T07:07:01Z</time>
      </trkpt>
      <trkpt lat="40.3123170" lon="-3.5962900">
        <ele>543.0</ele>
        <time>2021-04-04T07:07:02Z</time>
      </trkpt>
      <trkpt lat="40.3123170" lon="-3.5962970">
        <ele>543.0</ele>
        <time>2021-04-04T07:07:03Z</time>
      </trkpt>
      <trkpt lat="40.3123130" lon="-3.5963000">
        <ele>543.0</ele>
        <time>2021-04-04T07:07:04Z</time>
      </trkpt>
      <trkpt lat="40.3123130" lon="-3.5963000">
        <ele>543.0</ele>
        <time>2021-04-04T07:07:05Z</time>
      </trkpt>
      <trkpt lat="40.3123130" lon="-3.5963000">
        <ele>542.8</ele>
        <time>2021-04-04T07:07:06Z</time>
      </trkpt>
      <trkpt lat="40.3123130" lon="-3.5963000">
        <ele>542.8</ele>
        <time>2021-04-04T07:07:07Z</time>
      </trkpt>
      <trkpt lat="40.3123130" lon="-3.5963000">
        <ele>542.8</ele>
        <time>2021-04-04T07:07:08Z</time>
      </trkpt>
      <trkpt lat="40.3123130" lon="-3.5963000">
        <ele>542.8</ele>
        <time>2021-04-04T07:07:14Z</time>
      </trkpt>
      <trkpt lat="40.3123130" lon="-3.5963000">
        <ele>542.8</ele>
        <time>2021-04-04T07:07:15Z</time>
      </trkpt>
      <trkpt lat="40.3123130" lon="-3.5963000">
        <ele>542.8</ele>
        <time>2021-04-04T07:07:16Z</time>
      </trkpt>
      <trkpt lat="40.3123130" lon="-3.5963000">
        <ele>542.8</ele>
        <time>2021-04-04T07:07:17Z</time>
      </trkpt>
      <trkpt lat="40.3123130" lon="-3.5963000">
        <ele>542.6</ele>
        <time>2021-04-04T07:07:18Z</time>
      </trkpt>
      <trkpt lat="40.3123130" lon="-3.5963000">
        <ele>542.6</ele>
        <time>2021-04-04T07:07:19Z</time>
      </trkpt>
      <trkpt lat="40.3123130" lon="-3.5963000">
        <ele>542.6</ele>
        <time>2021-04-04T07:07:20Z</time>
      </trkpt>
      <trkpt lat="40.3123130" lon="-3.5963000">
        <ele>542.6</ele>
        <time>2021-04-04T07:07:21Z</time>
      </trkpt>
      <trkpt lat="40.3123130" lon="-3.5963000">
        <ele>542.6</ele>
        <time>2021-04-04T07:07:22Z</time>
      </trkpt>
      <trkpt lat="40.3123130" lon="-3.5963000">
        <ele>542.6</ele>
        <time>2021-04-04T07:07:23Z</time>
      </trkpt>
      <trkpt lat="40.3123130" lon="-3.5963000">
        <ele>542.4</ele>
        <time>2021-04-04T07:07:24Z</time>
      </trkpt>
      <trkpt lat="40.3123130" lon="-3.5963000">
        <ele>542.4</ele>
        <time>2021-04-04T07:07:25Z</time>
      </trkpt>
      <trkpt lat="40.3123130" lon="-3.5963000">
        <ele>542.4</ele>
        <time>2021-04-04T07:07:26Z</time>
      </trkpt>
      <trkpt lat="40.3122790" lon="-3.5963070">
        <ele>542.2</ele>
        <time>2021-04-04T07:07:27Z</time>
      </trkpt>
      <trkpt lat="40.3122180" lon="-3.5963170">
        <ele>542.2</ele>
        <time>2021-04-04T07:07:28Z</time>
      </trkpt>
      <trkpt lat="40.3122100" lon="-3.5963160">
        <ele>542.0</ele>
        <time>2021-04-04T07:07:29Z</time>
      </trkpt>
      <trkpt lat="40.3122020" lon="-3.5963150">
        <ele>541.8</ele>
        <time>2021-04-04T07:07:30Z</time>
      </trkpt>
      <trkpt lat="40.3121910" lon="-3.5963150">
        <ele>541.8</ele>
        <time>2021-04-04T07:07:31Z</time>
      </trkpt>
      <trkpt lat="40.3121800" lon="-3.5963150">
        <ele>541.6</ele>
        <time>2021-04-04T07:07:32Z</time>
      </trkpt>
      <trkpt lat="40.3121680" lon="-3.5963140">
        <ele>541.4</ele>
        <time>2021-04-04T07:07:33Z</time>
      </trkpt>
      <trkpt lat="40.3121570" lon="-3.5963130">
        <ele>541.2</ele>
        <time>2021-04-04T07:07:34Z</time>
      </trkpt>
      <trkpt lat="40.3121490" lon="-3.5963100">
        <ele>541.0</ele>
        <time>2021-04-04T07:07:35Z</time>
      </trkpt>
      <trkpt lat="40.3121410" lon="-3.5963080">
        <ele>540.6</ele>
        <time>2021-04-04T07:07:36Z</time>
      </trkpt>
      <trkpt lat="40.3121260" lon="-3.5963090">
        <ele>540.4</ele>
        <time>2021-04-04T07:07:37Z</time>
      </trkpt>
      <trkpt lat="40.3121220" lon="-3.5963130">
        <ele>540.2</ele>
        <time>2021-04-04T07:07:38Z</time>
      </trkpt>
      <trkpt lat="40.3121190" lon="-3.5963170">
        <ele>540.0</ele>
        <time>2021-04-04T07:07:39Z</time>
      </trkpt>
      <trkpt lat="40.3121150" lon="-3.5963180">
        <ele>539.8</ele>
        <time>2021-04-04T07:07:40Z</time>
      </trkpt>
      <trkpt lat="40.3121150" lon="-3.5963180">
        <ele>539.6</ele>
        <time>2021-04-04T07:07:41Z</time>
      </trkpt>
      <trkpt lat="40.3121150" lon="-3.5963180">
        <ele>539.4</ele>
        <time>2021-04-04T07:07:42Z</time>
      </trkpt>
      <trkpt lat="40.3121150" lon="-3.5963180">
        <ele>539.2</ele>
        <time>2021-04-04T07:07:43Z</time>
      </trkpt>
      <trkpt lat="40.3121150" lon="-3.5963180">
        <ele>539.0</ele>
        <time>2021-04-04T07:07:44Z</time>
      </trkpt>
      <trkpt lat="40.3120840" lon="-3.5963660">
        <ele>538.6</ele>
        <time>2021-04-04T07:07:54Z</time>
      </trkpt>
      <trkpt lat="40.3120800" lon="-3.5963830">
        <ele>538.6</ele>
        <time>2021-04-04T07:07:55Z</time>
      </trkpt>
      <trkpt lat="40.3120770" lon="-3.5964020">
        <ele>538.6</ele>
        <time>2021-04-04T07:07:56Z</time>
      </trkpt>
      <trkpt lat="40.3120730" lon="-3.5964210">
        <ele>538.6</ele>
        <time>2021-04-04T07:07:57Z</time>
      </trkpt>
      <trkpt lat="40.3120690" lon="-3.5964430">
        <ele>538.6</ele>
        <time>2021-04-04T07:07:58Z</time>
      </trkpt>
      <trkpt lat="40.3120650" lon="-3.5964650">
        <ele>538.6</ele>
        <time>2021-04-04T07:07:59Z</time>
      </trkpt>
      <trkpt lat="40.3120650" lon="-3.5964870">
        <ele>538.6</ele>
        <time>2021-04-04T07:08:00Z</time>
      </trkpt>
      <trkpt lat="40.3120610" lon="-3.5965090">
        <ele>538.6</ele>
        <time>2021-04-04T07:08:01Z</time>
      </trkpt>
      <trkpt lat="40.3120610" lon="-3.5965310">
        <ele>538.6</ele>
        <time>2021-04-04T07:08:02Z</time>
      </trkpt>
      <trkpt lat="40.3120570" lon="-3.5965530">
        <ele>538.6</ele>
        <time>2021-04-04T07:08:03Z</time>
      </trkpt>
      <trkpt lat="40.3120570" lon="-3.5965730">
        <ele>538.6</ele>
        <time>2021-04-04T07:08:04Z</time>
      </trkpt>
      <trkpt lat="40.3120570" lon="-3.5965880">
        <ele>538.6</ele>
        <time>2021-04-04T07:08:05Z</time>
      </trkpt>
      <trkpt lat="40.3120570" lon="-3.5966010">
        <ele>538.6</ele>
        <time>2021-04-04T07:08:06Z</time>
      </trkpt>
      <trkpt lat="40.3120540" lon="-3.5966130">
        <ele>538.6</ele>
        <time>2021-04-04T07:08:07Z</time>
      </trkpt>
      <trkpt lat="40.3120500" lon="-3.5966220">
        <ele>538.6</ele>
        <time>2021-04-04T07:08:08Z</time>
      </trkpt>
      <trkpt lat="40.3120500" lon="-3.5966220">
        <ele>538.6</ele>
        <time>2021-04-04T07:08:09Z</time>
      </trkpt>
      <trkpt lat="40.3120500" lon="-3.5966220">
        <ele>538.6</ele>
        <time>2021-04-04T07:08:10Z</time>
      </trkpt>
      <trkpt lat="40.3120460" lon="-3.5966400">
        <ele>538.6</ele>
        <time>2021-04-04T07:08:11Z</time>
      </trkpt>
      <trkpt lat="40.3120380" lon="-3.5966810">
        <ele>538.6</ele>
        <time>2021-04-04T07:08:12Z</time>
      </trkpt>
      <trkpt lat="40.3120380" lon="-3.5967000">
        <ele>538.6</ele>
        <time>2021-04-04T07:08:13Z</time>
      </trkpt>
      <trkpt lat="40.3120380" lon="-3.5967190">
        <ele>538.6</ele>
        <time>2021-04-04T07:08:14Z</time>
      </trkpt>
      <trkpt lat="40.3120350" lon="-3.5967410">
        <ele>538.6</ele>
        <time>2021-04-04T07:08:15Z</time>
      </trkpt>
      <trkpt lat="40.3120310" lon="-3.5967680">
        <ele>538.6</ele>
        <time>2021-04-04T07:08:16Z</time>
      </trkpt>
      <trkpt lat="40.3120270" lon="-3.5968030">
        <ele>538.6</ele>
        <time>2021-04-04T07:08:17Z</time>
      </trkpt>
      <trkpt lat="40.3120190" lon="-3.5968400">
        <ele>538.6</ele>
        <time>2021-04-04T07:08:18Z</time>
      </trkpt>
      <trkpt lat="40.3120120" lon="-3.5968810">
        <ele>538.6</ele>
        <time>2021-04-04T07:08:19Z</time>
      </trkpt>
      <trkpt lat="40.3120040" lon="-3.5969250">
        <ele>538.4</ele>
        <time>2021-04-04T07:08:20Z</time>
      </trkpt>
      <trkpt lat="40.3120000" lon="-3.5969720">
        <ele>538.4</ele>
        <time>2021-04-04T07:08:21Z</time>
      </trkpt>
      <trkpt lat="40.3120000" lon="-3.5970260">
        <ele>538.4</ele>
        <time>2021-04-04T07:08:22Z</time>
      </trkpt>
      <trkpt lat="40.3119930" lon="-3.5970810">
        <ele>538.2</ele>
        <time>2021-04-04T07:08:23Z</time>
      </trkpt>
      <trkpt lat="40.3119890" lon="-3.5971400">
        <ele>538.2</ele>
        <time>2021-04-04T07:08:24Z</time>
      </trkpt>
      <trkpt lat="40.3119850" lon="-3.5971990">
        <ele>538.2</ele>
        <time>2021-04-04T07:08:25Z</time>
      </trkpt>
      <trkpt lat="40.3119850" lon="-3.5972580">
        <ele>538.2</ele>
        <time>2021-04-04T07:08:26Z</time>
      </trkpt>
      <trkpt lat="40.3119810" lon="-3.5973180">
        <ele>538.2</ele>
        <time>2021-04-04T07:08:27Z</time>
      </trkpt>
      <trkpt lat="40.3119770" lon="-3.5973790">
        <ele>538.2</ele>
        <time>2021-04-04T07:08:28Z</time>
      </trkpt>
      <trkpt lat="40.3119740" lon="-3.5974400">
        <ele>538.2</ele>
        <time>2021-04-04T07:08:29Z</time>
      </trkpt>
      <trkpt lat="40.3119660" lon="-3.5974990">
        <ele>538.2</ele>
        <time>2021-04-04T07:08:30Z</time>
      </trkpt>
      <trkpt lat="40.3119620" lon="-3.5975570">
        <ele>538.2</ele>
        <time>2021-04-04T07:08:31Z</time>
      </trkpt>
      <trkpt lat="40.3119580" lon="-3.5976150">
        <ele>538.2</ele>
        <time>2021-04-04T07:08:32Z</time>
      </trkpt>
      <trkpt lat="40.3119620" lon="-3.5976720">
        <ele>538.4</ele>
        <time>2021-04-04T07:08:33Z</time>
      </trkpt>
      <trkpt lat="40.3119700" lon="-3.5977270">
        <ele>538.4</ele>
        <time>2021-04-04T07:08:34Z</time>
      </trkpt>
      <trkpt lat="40.3119740" lon="-3.5977860">
        <ele>538.4</ele>
        <time>2021-04-04T07:08:35Z</time>
      </trkpt>
      <trkpt lat="40.3119770" lon="-3.5978400">
        <ele>538.6</ele>
        <time>2021-04-04T07:08:36Z</time>
      </trkpt>
      <trkpt lat="40.3119770" lon="-3.5978950">
        <ele>538.6</ele>
        <time>2021-04-04T07:08:37Z</time>
      </trkpt>
      <trkpt lat="40.3119740" lon="-3.5979550">
        <ele>538.6</ele>
        <time>2021-04-04T07:08:38Z</time>
      </trkpt>
      <trkpt lat="40.3119700" lon="-3.5980140">
        <ele>538.6</ele>
        <time>2021-04-04T07:08:39Z</time>
      </trkpt>
      <trkpt lat="40.3119660" lon="-3.5980740">
        <ele>538.8</ele>
        <time>2021-04-04T07:08:40Z</time>
      </trkpt>
      <trkpt lat="40.3119620" lon="-3.5981330">
        <ele>538.8</ele>
        <time>2021-04-04T07:08:41Z</time>
      </trkpt>
      <trkpt lat="40.3119580" lon="-3.5981910">
        <ele>538.8</ele>
        <time>2021-04-04T07:08:42Z</time>
      </trkpt>
      <trkpt lat="40.3119580" lon="-3.5982510">
        <ele>538.8</ele>
        <time>2021-04-04T07:08:43Z</time>
      </trkpt>
      <trkpt lat="40.3119550" lon="-3.5983090">
        <ele>538.8</ele>
        <time>2021-04-04T07:08:44Z</time>
      </trkpt>
      <trkpt lat="40.3119510" lon="-3.5983670">
        <ele>538.8</ele>
        <time>2021-04-04T07:08:45Z</time>
      </trkpt>
      <trkpt lat="40.3119470" lon="-3.5984200">
        <ele>539.0</ele>
        <time>2021-04-04T07:08:46Z</time>
      </trkpt>
      <trkpt lat="40.3119470" lon="-3.5984740">
        <ele>539.2</ele>
        <time>2021-04-04T07:08:47Z</time>
      </trkpt>
      <trkpt lat="40.3119430" lon="-3.5985290">
        <ele>539.2</ele>
        <time>2021-04-04T07:08:48Z</time>
      </trkpt>
      <trkpt lat="40.3119510" lon="-3.5985790">
        <ele>539.4</ele>
        <time>2021-04-04T07:08:49Z</time>
      </trkpt>
      <trkpt lat="40.3119580" lon="-3.5986260">
        <ele>539.6</ele>
        <time>2021-04-04T07:08:50Z</time>
      </trkpt>
      <trkpt lat="40.3119660" lon="-3.5986750">
        <ele>539.8</ele>
        <time>2021-04-04T07:08:51Z</time>
      </trkpt>
      <trkpt lat="40.3119770" lon="-3.5987270">
        <ele>540.0</ele>
        <time>2021-04-04T07:08:52Z</time>
      </trkpt>
      <trkpt lat="40.3119930" lon="-3.5987870">
        <ele>540.0</ele>
        <time>2021-04-04T07:08:53Z</time>
      </trkpt>
      <trkpt lat="40.3120040" lon="-3.5988490">
        <ele>540.0</ele>
        <time>2021-04-04T07:08:54Z</time>
      </trkpt>
      <trkpt lat="40.3120120" lon="-3.5989130">
        <ele>540.0</ele>
        <time>2021-04-04T07:08:55Z</time>
      </trkpt>
      <trkpt lat="40.3120190" lon="-3.5989800">
        <ele>539.8</ele>
        <time>2021-04-04T07:08:56Z</time>
      </trkpt>
      <trkpt lat="40.3120310" lon="-3.5990500">
        <ele>539.8</ele>
        <time>2021-04-04T07:08:57Z</time>
      </trkpt>
      <trkpt lat="40.3120420" lon="-3.5991200">
        <ele>539.6</ele>
        <time>2021-04-04T07:08:58Z</time>
      </trkpt>
      <trkpt lat="40.3120570" lon="-3.5991930">
        <ele>539.6</ele>
        <time>2021-04-04T07:08:59Z</time>
      </trkpt>
      <trkpt lat="40.3120690" lon="-3.5992650">
        <ele>539.6</ele>
        <time>2021-04-04T07:09:00Z</time>
      </trkpt>
      <trkpt lat="40.3120800" lon="-3.5993350">
        <ele>539.6</ele>
        <time>2021-04-04T07:09:01Z</time>
      </trkpt>
      <trkpt lat="40.3120960" lon="-3.5994060">
        <ele>539.6</ele>
        <time>2021-04-04T07:09:02Z</time>
      </trkpt>
      <trkpt lat="40.3121070" lon="-3.5994820">
        <ele>539.6</ele>
        <time>2021-04-04T07:09:03Z</time>
      </trkpt>
      <trkpt lat="40.3121190" lon="-3.5995580">
        <ele>539.6</ele>
        <time>2021-04-04T07:09:04Z</time>
      </trkpt>
      <trkpt lat="40.3121300" lon="-3.5996350">
        <ele>539.4</ele>
        <time>2021-04-04T07:09:05Z</time>
      </trkpt>
      <trkpt lat="40.3121410" lon="-3.5997150">
        <ele>539.6</ele>
        <time>2021-04-04T07:09:06Z</time>
      </trkpt>
      <trkpt lat="40.3121530" lon="-3.5997920">
        <ele>539.6</ele>
        <time>2021-04-04T07:09:07Z</time>
      </trkpt>
      <trkpt lat="40.3121600" lon="-3.5998670">
        <ele>539.4</ele>
        <time>2021-04-04T07:09:08Z</time>
      </trkpt>
      <trkpt lat="40.3121720" lon="-3.5999450">
        <ele>539.4</ele>
        <time>2021-04-04T07:09:09Z</time>
      </trkpt>
      <trkpt lat="40.3121800" lon="-3.6000210">
        <ele>539.4</ele>
        <time>2021-04-04T07:09:10Z</time>
      </trkpt>
      <trkpt lat="40.3121830" lon="-3.6000990">
        <ele>539.4</ele>
        <time>2021-04-04T07:09:11Z</time>
      </trkpt>
      <trkpt lat="40.3121870" lon="-3.6001730">
        <ele>539.4</ele>
        <time>2021-04-04T07:09:12Z</time>
      </trkpt>
      <trkpt lat="40.3121910" lon="-3.6002480">
        <ele>539.4</ele>
        <time>2021-04-04T07:09:13Z</time>
      </trkpt>
      <trkpt lat="40.3121990" lon="-3.6003270">
        <ele>539.2</ele>
        <time>2021-04-04T07:09:14Z</time>
      </trkpt>
      <trkpt lat="40.3122060" lon="-3.6004030">
        <ele>539.2</ele>
        <time>2021-04-04T07:09:15Z</time>
      </trkpt>
      <trkpt lat="40.3122140" lon="-3.6004790">
        <ele>539.2</ele>
        <time>2021-04-04T07:09:16Z</time>
      </trkpt>
      <trkpt lat="40.3122180" lon="-3.6005540">
        <ele>539.2</ele>
        <time>2021-04-04T07:09:17Z</time>
      </trkpt>
      <trkpt lat="40.3122250" lon="-3.6006290">
        <ele>539.4</ele>
        <time>2021-04-04T07:09:18Z</time>
      </trkpt>
      <trkpt lat="40.3122330" lon="-3.6007030">
        <ele>539.4</ele>
        <time>2021-04-04T07:09:19Z</time>
      </trkpt>
      <trkpt lat="40.3122370" lon="-3.6007750">
        <ele>539.6</ele>
        <time>2021-04-04T07:09:20Z</time>
      </trkpt>
      <trkpt lat="40.3122440" lon="-3.6008480">
        <ele>539.6</ele>
        <time>2021-04-04T07:09:21Z</time>
      </trkpt>
      <trkpt lat="40.3122480" lon="-3.6009200">
        <ele>539.8</ele>
        <time>2021-04-04T07:09:22Z</time>
      </trkpt>
      <trkpt lat="40.3122480" lon="-3.6009900">
        <ele>539.8</ele>
        <time>2021-04-04T07:09:23Z</time>
      </trkpt>
      <trkpt lat="40.3122520" lon="-3.6010650">
        <ele>540.0</ele>
        <time>2021-04-04T07:09:24Z</time>
      </trkpt>
      <trkpt lat="40.3122520" lon="-3.6011390">
        <ele>540.2</ele>
        <time>2021-04-04T07:09:25Z</time>
      </trkpt>
      <trkpt lat="40.3122520" lon="-3.6012080">
        <ele>540.2</ele>
        <time>2021-04-04T07:09:26Z</time>
      </trkpt>
      <trkpt lat="40.3122520" lon="-3.6012730">
        <ele>540.4</ele>
        <time>2021-04-04T07:09:27Z</time>
      </trkpt>
      <trkpt lat="40.3122560" lon="-3.6013330">
        <ele>540.6</ele>
        <time>2021-04-04T07:09:28Z</time>
      </trkpt>
      <trkpt lat="40.3122600" lon="-3.6013960">
        <ele>540.8</ele>
        <time>2021-04-04T07:09:29Z</time>
      </trkpt>
      <trkpt lat="40.3122600" lon="-3.6014600">
        <ele>541.0</ele>
        <time>2021-04-04T07:09:30Z</time>
      </trkpt>
      <trkpt lat="40.3122670" lon="-3.6015200">
        <ele>541.4</ele>
        <time>2021-04-04T07:09:31Z</time>
      </trkpt>
      <trkpt lat="40.3122790" lon="-3.6015800">
        <ele>541.6</ele>
        <time>2021-04-04T07:09:32Z</time>
      </trkpt>
      <trkpt lat="40.3122940" lon="-3.6016410">
        <ele>541.6</ele>
        <time>2021-04-04T07:09:33Z</time>
      </trkpt>
      <trkpt lat="40.3123090" lon="-3.6017150">
        <ele>541.8</ele>
        <time>2021-04-04T07:09:34Z</time>
      </trkpt>
      <trkpt lat="40.3123210" lon="-3.6017870">
        <ele>541.8</ele>
        <time>2021-04-04T07:09:35Z</time>
      </trkpt>
      <trkpt lat="40.3123400" lon="-3.6018570">
        <ele>541.8</ele>
        <time>2021-04-04T07:09:36Z</time>
      </trkpt>
      <trkpt lat="40.3123550" lon="-3.6019300">
        <ele>541.8</ele>
        <time>2021-04-04T07:09:37Z</time>
      </trkpt>
      <trkpt lat="40.3123740" lon="-3.6020030">
        <ele>541.8</ele>
        <time>2021-04-04T07:09:38Z</time>
      </trkpt>
      <trkpt lat="40.3123930" lon="-3.6020800">
        <ele>541.8</ele>
        <time>2021-04-04T07:09:39Z</time>
      </trkpt>
      <trkpt lat="40.3124080" lon="-3.6021560">
        <ele>541.8</ele>
        <time>2021-04-04T07:09:40Z</time>
      </trkpt>
      <trkpt lat="40.3124240" lon="-3.6022330">
        <ele>541.8</ele>
        <time>2021-04-04T07:09:41Z</time>
      </trkpt>
      <trkpt lat="40.3124390" lon="-3.6023100">
        <ele>541.8</ele>
        <time>2021-04-04T07:09:42Z</time>
      </trkpt>
      <trkpt lat="40.3124580" lon="-3.6023870">
        <ele>541.8</ele>
        <time>2021-04-04T07:09:43Z</time>
      </trkpt>
      <trkpt lat="40.3124770" lon="-3.6024610">
        <ele>541.8</ele>
        <time>2021-04-04T07:09:44Z</time>
      </trkpt>
      <trkpt lat="40.3124920" lon="-3.6025400">
        <ele>541.8</ele>
        <time>2021-04-04T07:09:45Z</time>
      </trkpt>
      <trkpt lat="40.3125110" lon="-3.6026130">
        <ele>541.8</ele>
        <time>2021-04-04T07:09:46Z</time>
      </trkpt>
      <trkpt lat="40.3125270" lon="-3.6026860">
        <ele>541.8</ele>
        <time>2021-04-04T07:09:47Z</time>
      </trkpt>
      <trkpt lat="40.3125420" lon="-3.6027590">
        <ele>541.8</ele>
        <time>2021-04-04T07:09:48Z</time>
      </trkpt>
      <trkpt lat="40.3125570" lon="-3.6028380">
        <ele>541.8</ele>
        <time>2021-04-04T07:09:49Z</time>
      </trkpt>
      <trkpt lat="40.3125690" lon="-3.6029160">
        <ele>541.8</ele>
        <time>2021-04-04T07:09:50Z</time>
      </trkpt>
      <trkpt lat="40.3125760" lon="-3.6029920">
        <ele>541.8</ele>
        <time>2021-04-04T07:09:51Z</time>
      </trkpt>
      <trkpt lat="40.3125880" lon="-3.6030700">
        <ele>542.0</ele>
        <time>2021-04-04T07:09:52Z</time>
      </trkpt>
      <trkpt lat="40.3125950" lon="-3.6031480">
        <ele>542.0</ele>
        <time>2021-04-04T07:09:53Z</time>
      </trkpt>
      <trkpt lat="40.3126110" lon="-3.6032280">
        <ele>542.0</ele>
        <time>2021-04-04T07:09:54Z</time>
      </trkpt>
      <trkpt lat="40.3126260" lon="-3.6033090">
        <ele>542.0</ele>
        <time>2021-04-04T07:09:55Z</time>
      </trkpt>
      <trkpt lat="40.3126370" lon="-3.6033840">
        <ele>542.0</ele>
        <time>2021-04-04T07:09:56Z</time>
      </trkpt>
      <trkpt lat="40.3126490" lon="-3.6034580">
        <ele>542.2</ele>
        <time>2021-04-04T07:09:57Z</time>
      </trkpt>
      <trkpt lat="40.3126640" lon="-3.6035330">
        <ele>542.4</ele>
        <time>2021-04-04T07:09:58Z</time>
      </trkpt>
      <trkpt lat="40.3126750" lon="-3.6036090">
        <ele>542.6</ele>
        <time>2021-04-04T07:09:59Z</time>
      </trkpt>
      <trkpt lat="40.3126870" lon="-3.6036840">
        <ele>542.6</ele>
        <time>2021-04-04T07:10:00Z</time>
      </trkpt>
      <trkpt lat="40.3127020" lon="-3.6037580">
        <ele>542.8</ele>
        <time>2021-04-04T07:10:01Z</time>
      </trkpt>
      <trkpt lat="40.3127140" lon="-3.6038340">
        <ele>542.8</ele>
        <time>2021-04-04T07:10:02Z</time>
      </trkpt>
      <trkpt lat="40.3127290" lon="-3.6039100">
        <ele>543.0</ele>
        <time>2021-04-04T07:10:03Z</time>
      </trkpt>
      <trkpt lat="40.3127400" lon="-3.6039840">
        <ele>543.0</ele>
        <time>2021-04-04T07:10:04Z</time>
      </trkpt>
      <trkpt lat="40.3127560" lon="-3.6040670">
        <ele>543.2</ele>
        <time>2021-04-04T07:10:05Z</time>
      </trkpt>
      <trkpt lat="40.3127670" lon="-3.6041400">
        <ele>543.4</ele>
        <time>2021-04-04T07:10:06Z</time>
      </trkpt>
      <trkpt lat="40.3127780" lon="-3.6042170">
        <ele>543.4</ele>
        <time>2021-04-04T07:10:07Z</time>
      </trkpt>
      <trkpt lat="40.3127940" lon="-3.6042930">
        <ele>543.6</ele>
        <time>2021-04-04T07:10:08Z</time>
      </trkpt>
      <trkpt lat="40.3128050" lon="-3.6043710">
        <ele>543.6</ele>
        <time>2021-04-04T07:10:09Z</time>
      </trkpt>
      <trkpt lat="40.3128170" lon="-3.6044460">
        <ele>543.6</ele>
        <time>2021-04-04T07:10:10Z</time>
      </trkpt>
      <trkpt lat="40.3128280" lon="-3.6045190">
        <ele>543.6</ele>
        <time>2021-04-04T07:10:11Z</time>
      </trkpt>
      <trkpt lat="40.3128430" lon="-3.6045940">
        <ele>543.6</ele>
        <time>2021-04-04T07:10:12Z</time>
      </trkpt>
      <trkpt lat="40.3128590" lon="-3.6046660">
        <ele>543.6</ele>
        <time>2021-04-04T07:10:13Z</time>
      </trkpt>
      <trkpt lat="40.3128740" lon="-3.6047360">
        <ele>543.8</ele>
        <time>2021-04-04T07:10:14Z</time>
      </trkpt>
      <trkpt lat="40.3128850" lon="-3.6048100">
        <ele>543.8</ele>
        <time>2021-04-04T07:10:15Z</time>
      </trkpt>
      <trkpt lat="40.3129010" lon="-3.6048850">
        <ele>544.0</ele>
        <time>2021-04-04T07:10:16Z</time>
      </trkpt>
      <trkpt lat="40.3129160" lon="-3.6049610">
        <ele>544.0</ele>
        <time>2021-04-04T07:10:17Z</time>
      </trkpt>
      <trkpt lat="40.3129310" lon="-3.6050370">
        <ele>544.2</ele>
        <time>2021-04-04T07:10:18Z</time>
      </trkpt>
      <trkpt lat="40.3129460" lon="-3.6051110">
        <ele>544.2</ele>
        <time>2021-04-04T07:10:19Z</time>
      </trkpt>
      <trkpt lat="40.3129580" lon="-3.6051890">
        <ele>544.4</ele>
        <time>2021-04-04T07:10:20Z</time>
      </trkpt>
      <trkpt lat="40.3129730" lon="-3.6052660">
        <ele>544.4</ele>
        <time>2021-04-04T07:10:21Z</time>
      </trkpt>
      <trkpt lat="40.3129880" lon="-3.6053420">
        <ele>544.6</ele>
        <time>2021-04-04T07:10:22Z</time>
      </trkpt>
      <trkpt lat="40.3130000" lon="-3.6054150">
        <ele>544.8</ele>
        <time>2021-04-04T07:10:23Z</time>
      </trkpt>
      <trkpt lat="40.3130110" lon="-3.6054900">
        <ele>544.8</ele>
        <time>2021-04-04T07:10:24Z</time>
      </trkpt>
      <trkpt lat="40.3130260" lon="-3.6055680">
        <ele>545.0</ele>
        <time>2021-04-04T07:10:25Z</time>
      </trkpt>
      <trkpt lat="40.3130340" lon="-3.6056430">
        <ele>545.0</ele>
        <time>2021-04-04T07:10:26Z</time>
      </trkpt>
      <trkpt lat="40.3130420" lon="-3.6057160">
        <ele>545.0</ele>
        <time>2021-04-04T07:10:27Z</time>
      </trkpt>
      <trkpt lat="40.3130530" lon="-3.6057910">
        <ele>545.2</ele>
        <time>2021-04-04T07:10:28Z</time>
      </trkpt>
      <trkpt lat="40.3130680" lon="-3.6058640">
        <ele>545.2</ele>
        <time>2021-04-04T07:10:29Z</time>
      </trkpt>
      <trkpt lat="40.3130840" lon="-3.6059390">
        <ele>545.4</ele>
        <time>2021-04-04T07:10:30Z</time>
      </trkpt>
      <trkpt lat="40.3130950" lon="-3.6060160">
        <ele>545.4</ele>
        <time>2021-04-04T07:10:31Z</time>
      </trkpt>
      <trkpt lat="40.3131070" lon="-3.6060890">
        <ele>545.6</ele>
        <time>2021-04-04T07:10:32Z</time>
      </trkpt>
      <trkpt lat="40.3131220" lon="-3.6061630">
        <ele>545.6</ele>
        <time>2021-04-04T07:10:33Z</time>
      </trkpt>
      <trkpt lat="40.3131410" lon="-3.6062390">
        <ele>545.6</ele>
        <time>2021-04-04T07:10:34Z</time>
      </trkpt>
      <trkpt lat="40.3131560" lon="-3.6063150">
        <ele>545.6</ele>
        <time>2021-04-04T07:10:35Z</time>
      </trkpt>
      <trkpt lat="40.3131680" lon="-3.6063880">
        <ele>545.6</ele>
        <time>2021-04-04T07:10:36Z</time>
      </trkpt>
      <trkpt lat="40.3131790" lon="-3.6064660">
        <ele>545.6</ele>
        <time>2021-04-04T07:10:37Z</time>
      </trkpt>
      <trkpt lat="40.3131940" lon="-3.6065400">
        <ele>545.8</ele>
        <time>2021-04-04T07:10:38Z</time>
      </trkpt>
      <trkpt lat="40.3132060" lon="-3.6066160">
        <ele>545.8</ele>
        <time>2021-04-04T07:10:39Z</time>
      </trkpt>
      <trkpt lat="40.3132250" lon="-3.6066980">
        <ele>545.6</ele>
        <time>2021-04-04T07:10:40Z</time>
      </trkpt>
      <trkpt lat="40.3132440" lon="-3.6067760">
        <ele>545.6</ele>
        <time>2021-04-04T07:10:41Z</time>
      </trkpt>
      <trkpt lat="40.3132630" lon="-3.6068510">
        <ele>545.4</ele>
        <time>2021-04-04T07:10:42Z</time>
      </trkpt>
      <trkpt lat="40.3132820" lon="-3.6069250">
        <ele>545.2</ele>
        <time>2021-04-04T07:10:43Z</time>
      </trkpt>
      <trkpt lat="40.3133010" lon="-3.6069880">
        <ele>545.2</ele>
        <time>2021-04-04T07:10:44Z</time>
      </trkpt>
      <trkpt lat="40.3133200" lon="-3.6070420">
        <ele>545.2</ele>
        <time>2021-04-04T07:10:45Z</time>
      </trkpt>
      <trkpt lat="40.3133430" lon="-3.6070890">
        <ele>545.2</ele>
        <time>2021-04-04T07:10:46Z</time>
      </trkpt>
      <trkpt lat="40.3133620" lon="-3.6071330">
        <ele>545.2</ele>
        <time>2021-04-04T07:10:47Z</time>
      </trkpt>
      <trkpt lat="40.3133770" lon="-3.6071840">
        <ele>545.2</ele>
        <time>2021-04-04T07:10:48Z</time>
      </trkpt>
      <trkpt lat="40.3133930" lon="-3.6072390">
        <ele>545.2</ele>
        <time>2021-04-04T07:10:49Z</time>
      </trkpt>
      <trkpt lat="40.3134120" lon="-3.6072930">
        <ele>545.2</ele>
        <time>2021-04-04T07:10:50Z</time>
      </trkpt>
      <trkpt lat="40.3134310" lon="-3.6073460">
        <ele>545.2</ele>
        <time>2021-04-04T07:10:51Z</time>
      </trkpt>
      <trkpt lat="40.3134540" lon="-3.6074030">
        <ele>545.2</ele>
        <time>2021-04-04T07:10:52Z</time>
      </trkpt>
      <trkpt lat="40.3134730" lon="-3.6074610">
        <ele>545.2</ele>
        <time>2021-04-04T07:10:53Z</time>
      </trkpt>
      <trkpt lat="40.3134920" lon="-3.6075220">
        <ele>545.4</ele>
        <time>2021-04-04T07:10:54Z</time>
      </trkpt>
      <trkpt lat="40.3135070" lon="-3.6075840">
        <ele>545.4</ele>
        <time>2021-04-04T07:10:55Z</time>
      </trkpt>
      <trkpt lat="40.3135220" lon="-3.6076450">
        <ele>545.6</ele>
        <time>2021-04-04T07:10:56Z</time>
      </trkpt>
      <trkpt lat="40.3135380" lon="-3.6077080">
        <ele>545.6</ele>
        <time>2021-04-04T07:10:57Z</time>
      </trkpt>
      <trkpt lat="40.3135490" lon="-3.6077710">
        <ele>545.8</ele>
        <time>2021-04-04T07:10:58Z</time>
      </trkpt>
      <trkpt lat="40.3135610" lon="-3.6078380">
        <ele>546.0</ele>
        <time>2021-04-04T07:10:59Z</time>
      </trkpt>
      <trkpt lat="40.3135680" lon="-3.6079020">
        <ele>546.4</ele>
        <time>2021-04-04T07:11:00Z</time>
      </trkpt>
      <trkpt lat="40.3135760" lon="-3.6079690">
        <ele>546.6</ele>
        <time>2021-04-04T07:11:01Z</time>
      </trkpt>
      <trkpt lat="40.3135870" lon="-3.6080310">
        <ele>547.0</ele>
        <time>2021-04-04T07:11:02Z</time>
      </trkpt>
      <trkpt lat="40.3135990" lon="-3.6080960">
        <ele>547.2</ele>
        <time>2021-04-04T07:11:03Z</time>
      </trkpt>
      <trkpt lat="40.3136100" lon="-3.6081570">
        <ele>547.6</ele>
        <time>2021-04-04T07:11:04Z</time>
      </trkpt>
      <trkpt lat="40.3136180" lon="-3.6082180">
        <ele>547.8</ele>
        <time>2021-04-04T07:11:05Z</time>
      </trkpt>
      <trkpt lat="40.3136330" lon="-3.6082780">
        <ele>547.8</ele>
        <time>2021-04-04T07:11:06Z</time>
      </trkpt>
      <trkpt lat="40.3136480" lon="-3.6083450">
        <ele>548.0</ele>
        <time>2021-04-04T07:11:07Z</time>
      </trkpt>
      <trkpt lat="40.3136600" lon="-3.6084150">
        <ele>548.0</ele>
        <time>2021-04-04T07:11:08Z</time>
      </trkpt>
      <trkpt lat="40.3136710" lon="-3.6084890">
        <ele>548.0</ele>
        <time>2021-04-04T07:11:09Z</time>
      </trkpt>
      <trkpt lat="40.3136860" lon="-3.6085620">
        <ele>547.8</ele>
        <time>2021-04-04T07:11:10Z</time>
      </trkpt>
      <trkpt lat="40.3136980" lon="-3.6086410">
        <ele>547.8</ele>
        <time>2021-04-04T07:11:11Z</time>
      </trkpt>
      <trkpt lat="40.3137170" lon="-3.6087220">
        <ele>547.6</ele>
        <time>2021-04-04T07:11:12Z</time>
      </trkpt>
      <trkpt lat="40.3137280" lon="-3.6088030">
        <ele>547.4</ele>
        <time>2021-04-04T07:11:13Z</time>
      </trkpt>
      <trkpt lat="40.3137440" lon="-3.6088830">
        <ele>547.4</ele>
        <time>2021-04-04T07:11:14Z</time>
      </trkpt>
      <trkpt lat="40.3137590" lon="-3.6089640">
        <ele>547.2</ele>
        <time>2021-04-04T07:11:15Z</time>
      </trkpt>
      <trkpt lat="40.3137700" lon="-3.6090440">
        <ele>547.0</ele>
        <time>2021-04-04T07:11:16Z</time>
      </trkpt>
      <trkpt lat="40.3137890" lon="-3.6091310">
        <ele>546.8</ele>
        <time>2021-04-04T07:11:17Z</time>
      </trkpt>
      <trkpt lat="40.3138010" lon="-3.6092130">
        <ele>546.8</ele>
        <time>2021-04-04T07:11:18Z</time>
      </trkpt>
      <trkpt lat="40.3138120" lon="-3.6092960">
        <ele>546.6</ele>
        <time>2021-04-04T07:11:19Z</time>
      </trkpt>
      <trkpt lat="40.3138240" lon="-3.6093770">
        <ele>546.4</ele>
        <time>2021-04-04T07:11:20Z</time>
      </trkpt>
      <trkpt lat="40.3138390" lon="-3.6094570">
        <ele>546.2</ele>
        <time>2021-04-04T07:11:21Z</time>
      </trkpt>
      <trkpt lat="40.3138500" lon="-3.6095380">
        <ele>546.2</ele>
        <time>2021-04-04T07:11:22Z</time>
      </trkpt>
      <trkpt lat="40.3138620" lon="-3.6096180">
        <ele>546.0</ele>
        <time>2021-04-04T07:11:23Z</time>
      </trkpt>
      <trkpt lat="40.3138770" lon="-3.6096960">
        <ele>546.0</ele>
        <time>2021-04-04T07:11:24Z</time>
      </trkpt>
      <trkpt lat="40.3139000" lon="-3.6097830">
        <ele>545.8</ele>
        <time>2021-04-04T07:11:25Z</time>
      </trkpt>
      <trkpt lat="40.3139150" lon="-3.6098660">
        <ele>545.8</ele>
        <time>2021-04-04T07:11:26Z</time>
      </trkpt>
      <trkpt lat="40.3139340" lon="-3.6099500">
        <ele>545.8</ele>
        <time>2021-04-04T07:11:27Z</time>
      </trkpt>
      <trkpt lat="40.3139500" lon="-3.6100330">
        <ele>545.6</ele>
        <time>2021-04-04T07:11:28Z</time>
      </trkpt>
      <trkpt lat="40.3139650" lon="-3.6101170">
        <ele>545.6</ele>
        <time>2021-04-04T07:11:29Z</time>
      </trkpt>
      <trkpt lat="40.3139800" lon="-3.6102040">
        <ele>545.4</ele>
        <time>2021-04-04T07:11:30Z</time>
      </trkpt>
      <trkpt lat="40.3139990" lon="-3.6102890">
        <ele>545.4</ele>
        <time>2021-04-04T07:11:31Z</time>
      </trkpt>
      <trkpt lat="40.3140180" lon="-3.6103690">
        <ele>545.2</ele>
        <time>2021-04-04T07:11:32Z</time>
      </trkpt>
      <trkpt lat="40.3140370" lon="-3.6104490">
        <ele>545.0</ele>
        <time>2021-04-04T07:11:33Z</time>
      </trkpt>
      <trkpt lat="40.3140530" lon="-3.6105270">
        <ele>545.0</ele>
        <time>2021-04-04T07:11:34Z</time>
      </trkpt>
      <trkpt lat="40.3140640" lon="-3.6106090">
        <ele>545.0</ele>
        <time>2021-04-04T07:11:35Z</time>
      </trkpt>
      <trkpt lat="40.3140750" lon="-3.6106900">
        <ele>544.8</ele>
        <time>2021-04-04T07:11:36Z</time>
      </trkpt>
      <trkpt lat="40.3140830" lon="-3.6107710">
        <ele>544.8</ele>
        <time>2021-04-04T07:11:37Z</time>
      </trkpt>
      <trkpt lat="40.3140950" lon="-3.6108550">
        <ele>544.8</ele>
        <time>2021-04-04T07:11:38Z</time>
      </trkpt>
      <trkpt lat="40.3141060" lon="-3.6109390">
        <ele>544.8</ele>
        <time>2021-04-04T07:11:39Z</time>
      </trkpt>
      <trkpt lat="40.3141140" lon="-3.6110240">
        <ele>544.8</ele>
        <time>2021-04-04T07:11:40Z</time>
      </trkpt>
      <trkpt lat="40.3141210" lon="-3.6111100">
        <ele>544.8</ele>
        <time>2021-04-04T07:11:41Z</time>
      </trkpt>
      <trkpt lat="40.3141400" lon="-3.6111900">
        <ele>544.8</ele>
        <time>2021-04-04T07:11:42Z</time>
      </trkpt>
      <trkpt lat="40.3141630" lon="-3.6112670">
        <ele>544.6</ele>
        <time>2021-04-04T07:11:43Z</time>
      </trkpt>
      <trkpt lat="40.3141940" lon="-3.6113350">
        <ele>544.6</ele>
        <time>2021-04-04T07:11:44Z</time>
      </trkpt>
      <trkpt lat="40.3142170" lon="-3.6114040">
        <ele>544.6</ele>
        <time>2021-04-04T07:11:45Z</time>
      </trkpt>
      <trkpt lat="40.3142320" lon="-3.6114740">
        <ele>544.6</ele>
        <time>2021-04-04T07:11:46Z</time>
      </trkpt>
      <trkpt lat="40.3142470" lon="-3.6115500">
        <ele>544.6</ele>
        <time>2021-04-04T07:11:47Z</time>
      </trkpt>
      <trkpt lat="40.3142660" lon="-3.6116220">
        <ele>544.6</ele>
        <time>2021-04-04T07:11:48Z</time>
      </trkpt>
      <trkpt lat="40.3142810" lon="-3.6116770">
        <ele>544.8</ele>
        <time>2021-04-04T07:11:49Z</time>
      </trkpt>
      <trkpt lat="40.3142930" lon="-3.6117160">
        <ele>544.8</ele>
        <time>2021-04-04T07:11:50Z</time>
      </trkpt>
      <trkpt lat="40.3143040" lon="-3.6117420">
        <ele>544.8</ele>
        <time>2021-04-04T07:11:51Z</time>
      </trkpt>
      <trkpt lat="40.3143160" lon="-3.6117650">
        <ele>544.8</ele>
        <time>2021-04-04T07:11:52Z</time>
      </trkpt>
      <trkpt lat="40.3143270" lon="-3.6117900">
        <ele>544.8</ele>
        <time>2021-04-04T07:11:53Z</time>
      </trkpt>
      <trkpt lat="40.3143390" lon="-3.6118130">
        <ele>544.8</ele>
        <time>2021-04-04T07:11:54Z</time>
      </trkpt>
      <trkpt lat="40.3143460" lon="-3.6118380">
        <ele>545.0</ele>
        <time>2021-04-04T07:11:55Z</time>
      </trkpt>
      <trkpt lat="40.3143540" lon="-3.6118660">
        <ele>545.0</ele>
        <time>2021-04-04T07:11:56Z</time>
      </trkpt>
      <trkpt lat="40.3143650" lon="-3.6118960">
        <ele>545.0</ele>
        <time>2021-04-04T07:11:57Z</time>
      </trkpt>
      <trkpt lat="40.3143730" lon="-3.6119280">
        <ele>545.0</ele>
        <time>2021-04-04T07:11:58Z</time>
      </trkpt>
      <trkpt lat="40.3143840" lon="-3.6119580">
        <ele>545.0</ele>
        <time>2021-04-04T07:11:59Z</time>
      </trkpt>
      <trkpt lat="40.3143960" lon="-3.6119920">
        <ele>545.0</ele>
        <time>2021-04-04T07:12:00Z</time>
      </trkpt>
      <trkpt lat="40.3144070" lon="-3.6120300">
        <ele>545.0</ele>
        <time>2021-04-04T07:12:01Z</time>
      </trkpt>
      <trkpt lat="40.3144190" lon="-3.6120740">
        <ele>545.0</ele>
        <time>2021-04-04T07:12:02Z</time>
      </trkpt>
      <trkpt lat="40.3144380" lon="-3.6121260">
        <ele>545.0</ele>
        <time>2021-04-04T07:12:03Z</time>
      </trkpt>
      <trkpt lat="40.3144570" lon="-3.6121780">
        <ele>545.0</ele>
        <time>2021-04-04T07:12:04Z</time>
      </trkpt>
      <trkpt lat="40.3144760" lon="-3.6122320">
        <ele>545.0</ele>
        <time>2021-04-04T07:12:05Z</time>
      </trkpt>
      <trkpt lat="40.3144990" lon="-3.6122850">
        <ele>545.0</ele>
        <time>2021-04-04T07:12:06Z</time>
      </trkpt>
      <trkpt lat="40.3145220" lon="-3.6123380">
        <ele>545.0</ele>
        <time>2021-04-04T07:12:07Z</time>
      </trkpt>
      <trkpt lat="40.3145520" lon="-3.6123890">
        <ele>545.0</ele>
        <time>2021-04-04T07:12:08Z</time>
      </trkpt>
      <trkpt lat="40.3145870" lon="-3.6124350">
        <ele>545.0</ele>
        <time>2021-04-04T07:12:09Z</time>
      </trkpt>
      <trkpt lat="40.3146130" lon="-3.6124860">
        <ele>545.0</ele>
        <time>2021-04-04T07:12:10Z</time>
      </trkpt>
      <trkpt lat="40.3146360" lon="-3.6125390">
        <ele>545.0</ele>
        <time>2021-04-04T07:12:11Z</time>
      </trkpt>
      <trkpt lat="40.3146590" lon="-3.6125920">
        <ele>545.0</ele>
        <time>2021-04-04T07:12:12Z</time>
      </trkpt>
      <trkpt lat="40.3146780" lon="-3.6126500">
        <ele>545.0</ele>
        <time>2021-04-04T07:12:13Z</time>
      </trkpt>
      <trkpt lat="40.3147090" lon="-3.6127060">
        <ele>545.0</ele>
        <time>2021-04-04T07:12:14Z</time>
      </trkpt>
      <trkpt lat="40.3147430" lon="-3.6127640">
        <ele>545.0</ele>
        <time>2021-04-04T07:12:15Z</time>
      </trkpt>
      <trkpt lat="40.3147770" lon="-3.6128170">
        <ele>545.0</ele>
        <time>2021-04-04T07:12:16Z</time>
      </trkpt>
      <trkpt lat="40.3148120" lon="-3.6128690">
        <ele>544.8</ele>
        <time>2021-04-04T07:12:17Z</time>
      </trkpt>
      <trkpt lat="40.3148420" lon="-3.6129400">
        <ele>544.8</ele>
        <time>2021-04-04T07:12:18Z</time>
      </trkpt>
      <trkpt lat="40.3148770" lon="-3.6130040">
        <ele>544.8</ele>
        <time>2021-04-04T07:12:19Z</time>
      </trkpt>
      <trkpt lat="40.3149110" lon="-3.6130660">
        <ele>544.8</ele>
        <time>2021-04-04T07:12:20Z</time>
      </trkpt>
      <trkpt lat="40.3149450" lon="-3.6131250">
        <ele>545.0</ele>
        <time>2021-04-04T07:12:21Z</time>
      </trkpt>
      <trkpt lat="40.3149870" lon="-3.6131860">
        <ele>545.0</ele>
        <time>2021-04-04T07:12:22Z</time>
      </trkpt>
      <trkpt lat="40.3150220" lon="-3.6132450">
        <ele>545.0</ele>
        <time>2021-04-04T07:12:23Z</time>
      </trkpt>
      <trkpt lat="40.3150600" lon="-3.6133040">
        <ele>545.0</ele>
        <time>2021-04-04T07:12:24Z</time>
      </trkpt>
      <trkpt lat="40.3150980" lon="-3.6133700">
        <ele>545.0</ele>
        <time>2021-04-04T07:12:25Z</time>
      </trkpt>
      <trkpt lat="40.3151400" lon="-3.6134360">
        <ele>545.0</ele>
        <time>2021-04-04T07:12:26Z</time>
      </trkpt>
      <trkpt lat="40.3151740" lon="-3.6135020">
        <ele>545.2</ele>
        <time>2021-04-04T07:12:27Z</time>
      </trkpt>
      <trkpt lat="40.3152160" lon="-3.6135700">
        <ele>545.2</ele>
        <time>2021-04-04T07:12:28Z</time>
      </trkpt>
      <trkpt lat="40.3152620" lon="-3.6136320">
        <ele>545.2</ele>
        <time>2021-04-04T07:12:29Z</time>
      </trkpt>
      <trkpt lat="40.3153040" lon="-3.6136950">
        <ele>545.2</ele>
        <time>2021-04-04T07:12:30Z</time>
      </trkpt>
      <trkpt lat="40.3153500" lon="-3.6137590">
        <ele>545.4</ele>
        <time>2021-04-04T07:12:31Z</time>
      </trkpt>
      <trkpt lat="40.3153880" lon="-3.6138220">
        <ele>545.4</ele>
        <time>2021-04-04T07:12:32Z</time>
      </trkpt>
      <trkpt lat="40.3154340" lon="-3.6138900">
        <ele>545.4</ele>
        <time>2021-04-04T07:12:33Z</time>
      </trkpt>
      <trkpt lat="40.3154790" lon="-3.6139570">
        <ele>545.4</ele>
        <time>2021-04-04T07:12:34Z</time>
      </trkpt>
      <trkpt lat="40.3155290" lon="-3.6140220">
        <ele>545.4</ele>
        <time>2021-04-04T07:12:35Z</time>
      </trkpt>
      <trkpt lat="40.3155780" lon="-3.6140770">
        <ele>545.4</ele>
        <time>2021-04-04T07:12:36Z</time>
      </trkpt>
      <trkpt lat="40.3156280" lon="-3.6141340">
        <ele>545.4</ele>
        <time>2021-04-04T07:12:37Z</time>
      </trkpt>
      <trkpt lat="40.3156810" lon="-3.6141970">
        <ele>545.6</ele>
        <time>2021-04-04T07:12:38Z</time>
      </trkpt>
      <trkpt lat="40.3157390" lon="-3.6142520">
        <ele>545.6</ele>
        <time>2021-04-04T07:12:39Z</time>
      </trkpt>
      <trkpt lat="40.3157920" lon="-3.6143100">
        <ele>545.6</ele>
        <time>2021-04-04T07:12:40Z</time>
      </trkpt>
      <trkpt lat="40.3158420" lon="-3.6143670">
        <ele>545.8</ele>
        <time>2021-04-04T07:12:41Z</time>
      </trkpt>
      <trkpt lat="40.3158910" lon="-3.6144220">
        <ele>545.8</ele>
        <time>2021-04-04T07:12:42Z</time>
      </trkpt>
      <trkpt lat="40.3159450" lon="-3.6144750">
        <ele>545.8</ele>
        <time>2021-04-04T07:12:43Z</time>
      </trkpt>
      <trkpt lat="40.3159980" lon="-3.6145260">
        <ele>546.0</ele>
        <time>2021-04-04T07:12:44Z</time>
      </trkpt>
      <trkpt lat="40.3160520" lon="-3.6145760">
        <ele>546.2</ele>
        <time>2021-04-04T07:12:45Z</time>
      </trkpt>
      <trkpt lat="40.3161090" lon="-3.6146210">
        <ele>546.2</ele>
        <time>2021-04-04T07:12:46Z</time>
      </trkpt>
      <trkpt lat="40.3161660" lon="-3.6146610">
        <ele>546.2</ele>
        <time>2021-04-04T07:12:47Z</time>
      </trkpt>
      <trkpt lat="40.3162270" lon="-3.6147020">
        <ele>546.4</ele>
        <time>2021-04-04T07:12:48Z</time>
      </trkpt>
      <trkpt lat="40.3162840" lon="-3.6147400">
        <ele>546.4</ele>
        <time>2021-04-04T07:12:49Z</time>
      </trkpt>
      <trkpt lat="40.3163410" lon="-3.6147840">
        <ele>546.6</ele>
        <time>2021-04-04T07:12:50Z</time>
      </trkpt>
      <trkpt lat="40.3163990" lon="-3.6148280">
        <ele>546.6</ele>
        <time>2021-04-04T07:12:51Z</time>
      </trkpt>
      <trkpt lat="40.3164520" lon="-3.6148710">
        <ele>546.6</ele>
        <time>2021-04-04T07:12:52Z</time>
      </trkpt>
      <trkpt lat="40.3165090" lon="-3.6149210">
        <ele>546.8</ele>
        <time>2021-04-04T07:12:53Z</time>
      </trkpt>
      <trkpt lat="40.3165630" lon="-3.6149690">
        <ele>547.0</ele>
        <time>2021-04-04T07:12:54Z</time>
      </trkpt>
      <trkpt lat="40.3166200" lon="-3.6150170">
        <ele>547.0</ele>
        <time>2021-04-04T07:12:55Z</time>
      </trkpt>
      <trkpt lat="40.3166730" lon="-3.6150540">
        <ele>547.2</ele>
        <time>2021-04-04T07:12:56Z</time>
      </trkpt>
      <trkpt lat="40.3167340" lon="-3.6150870">
        <ele>547.2</ele>
        <time>2021-04-04T07:12:57Z</time>
      </trkpt>
      <trkpt lat="40.3167950" lon="-3.6151210">
        <ele>547.2</ele>
        <time>2021-04-04T07:12:58Z</time>
      </trkpt>
      <trkpt lat="40.3168530" lon="-3.6151580">
        <ele>547.2</ele>
        <time>2021-04-04T07:12:59Z</time>
      </trkpt>
      <trkpt lat="40.3169020" lon="-3.6152050">
        <ele>547.2</ele>
        <time>2021-04-04T07:13:00Z</time>
      </trkpt>
      <trkpt lat="40.3169480" lon="-3.6152530">
        <ele>547.2</ele>
        <time>2021-04-04T07:13:01Z</time>
      </trkpt>
      <trkpt lat="40.3169980" lon="-3.6152910">
        <ele>547.2</ele>
        <time>2021-04-04T07:13:02Z</time>
      </trkpt>
      <trkpt lat="40.3170430" lon="-3.6153230">
        <ele>547.2</ele>
        <time>2021-04-04T07:13:03Z</time>
      </trkpt>
      <trkpt lat="40.3170850" lon="-3.6153580">
        <ele>547.2</ele>
        <time>2021-04-04T07:13:04Z</time>
      </trkpt>
      <trkpt lat="40.3171270" lon="-3.6154040">
        <ele>547.4</ele>
        <time>2021-04-04T07:13:05Z</time>
      </trkpt>
      <trkpt lat="40.3171690" lon="-3.6154540">
        <ele>547.4</ele>
        <time>2021-04-04T07:13:06Z</time>
      </trkpt>
      <trkpt lat="40.3172110" lon="-3.6155060">
        <ele>547.4</ele>
        <time>2021-04-04T07:13:07Z</time>
      </trkpt>
      <trkpt lat="40.3172530" lon="-3.6155620">
        <ele>547.4</ele>
        <time>2021-04-04T07:13:08Z</time>
      </trkpt>
      <trkpt lat="40.3172870" lon="-3.6156210">
        <ele>547.6</ele>
        <time>2021-04-04T07:13:09Z</time>
      </trkpt>
      <trkpt lat="40.3173180" lon="-3.6156820">
        <ele>547.6</ele>
        <time>2021-04-04T07:13:10Z</time>
      </trkpt>
      <trkpt lat="40.3173450" lon="-3.6157410">
        <ele>547.6</ele>
        <time>2021-04-04T07:13:11Z</time>
      </trkpt>
      <trkpt lat="40.3173750" lon="-3.6157990">
        <ele>547.6</ele>
        <time>2021-04-04T07:13:12Z</time>
      </trkpt>
      <trkpt lat="40.3174060" lon="-3.6158690">
        <ele>547.6</ele>
        <time>2021-04-04T07:13:13Z</time>
      </trkpt>
      <trkpt lat="40.3174320" lon="-3.6159300">
        <ele>547.8</ele>
        <time>2021-04-04T07:13:14Z</time>
      </trkpt>
      <trkpt lat="40.3174590" lon="-3.6159900">
        <ele>547.8</ele>
        <time>2021-04-04T07:13:15Z</time>
      </trkpt>
      <trkpt lat="40.3174780" lon="-3.6160450">
        <ele>547.8</ele>
        <time>2021-04-04T07:13:16Z</time>
      </trkpt>
      <trkpt lat="40.3174930" lon="-3.6160930">
        <ele>547.8</ele>
        <time>2021-04-04T07:13:17Z</time>
      </trkpt>
      <trkpt lat="40.3175090" lon="-3.6161300">
        <ele>547.8</ele>
        <time>2021-04-04T07:13:18Z</time>
      </trkpt>
      <trkpt lat="40.3175200" lon="-3.6161550">
        <ele>547.8</ele>
        <time>2021-04-04T07:13:19Z</time>
      </trkpt>
      <trkpt lat="40.3175320" lon="-3.6161740">
        <ele>547.8</ele>
        <time>2021-04-04T07:13:20Z</time>
      </trkpt>
      <trkpt lat="40.3175430" lon="-3.6161930">
        <ele>547.8</ele>
        <time>2021-04-04T07:13:21Z</time>
      </trkpt>
      <trkpt lat="40.3175580" lon="-3.6162220">
        <ele>547.8</ele>
        <time>2021-04-04T07:13:22Z</time>
      </trkpt>
      <trkpt lat="40.3175740" lon="-3.6162630">
        <ele>547.8</ele>
        <time>2021-04-04T07:13:23Z</time>
      </trkpt>
      <trkpt lat="40.3175890" lon="-3.6163120">
        <ele>547.8</ele>
        <time>2021-04-04T07:13:24Z</time>
      </trkpt>
      <trkpt lat="40.3175960" lon="-3.6163610">
        <ele>547.8</ele>
        <time>2021-04-04T07:13:25Z</time>
      </trkpt>
      <trkpt lat="40.3175930" lon="-3.6164070">
        <ele>548.0</ele>
        <time>2021-04-04T07:13:26Z</time>
      </trkpt>
      <trkpt lat="40.3175770" lon="-3.6164500">
        <ele>548.0</ele>
        <time>2021-04-04T07:13:27Z</time>
      </trkpt>
      <trkpt lat="40.3175540" lon="-3.6164930">
        <ele>548.0</ele>
        <time>2021-04-04T07:13:28Z</time>
      </trkpt>
      <trkpt lat="40.3175240" lon="-3.6165300">
        <ele>548.0</ele>
        <time>2021-04-04T07:13:29Z</time>
      </trkpt>
      <trkpt lat="40.3174860" lon="-3.6165650">
        <ele>548.0</ele>
        <time>2021-04-04T07:13:30Z</time>
      </trkpt>
      <trkpt lat="40.3174440" lon="-3.6165990">
        <ele>548.0</ele>
        <time>2021-04-04T07:13:31Z</time>
      </trkpt>
      <trkpt lat="40.3174020" lon="-3.6166310">
        <ele>548.0</ele>
        <time>2021-04-04T07:13:32Z</time>
      </trkpt>
      <trkpt lat="40.3173560" lon="-3.6166710">
        <ele>547.8</ele>
        <time>2021-04-04T07:13:33Z</time>
      </trkpt>
      <trkpt lat="40.3173100" lon="-3.6167050">
        <ele>547.8</ele>
        <time>2021-04-04T07:13:34Z</time>
      </trkpt>
      <trkpt lat="40.3172680" lon="-3.6167360">
        <ele>547.8</ele>
        <time>2021-04-04T07:13:35Z</time>
      </trkpt>
      <trkpt lat="40.3172260" lon="-3.6167650">
        <ele>547.8</ele>
        <time>2021-04-04T07:13:36Z</time>
      </trkpt>
      <trkpt lat="40.3171880" lon="-3.6167930">
        <ele>547.8</ele>
        <time>2021-04-04T07:13:37Z</time>
      </trkpt>
      <trkpt lat="40.3171460" lon="-3.6168240">
        <ele>547.8</ele>
        <time>2021-04-04T07:13:38Z</time>
      </trkpt>
      <trkpt lat="40.3171040" lon="-3.6168540">
        <ele>547.8</ele>
        <time>2021-04-04T07:13:39Z</time>
      </trkpt>
      <trkpt lat="40.3170660" lon="-3.6168820">
        <ele>547.6</ele>
        <time>2021-04-04T07:13:40Z</time>
      </trkpt>
      <trkpt lat="40.3170280" lon="-3.6169090">
        <ele>547.6</ele>
        <time>2021-04-04T07:13:41Z</time>
      </trkpt>
      <trkpt lat="40.3169860" lon="-3.6169380">
        <ele>547.6</ele>
        <time>2021-04-04T07:13:42Z</time>
      </trkpt>
      <trkpt lat="40.3169440" lon="-3.6169680">
        <ele>547.4</ele>
        <time>2021-04-04T07:13:43Z</time>
      </trkpt>
      <trkpt lat="40.3169020" lon="-3.6169950">
        <ele>547.4</ele>
        <time>2021-04-04T07:13:44Z</time>
      </trkpt>
      <trkpt lat="40.3168600" lon="-3.6170180">
        <ele>547.4</ele>
        <time>2021-04-04T07:13:45Z</time>
      </trkpt>
      <trkpt lat="40.3168180" lon="-3.6170400">
        <ele>547.4</ele>
        <time>2021-04-04T07:13:46Z</time>
      </trkpt>
      <trkpt lat="40.3167760" lon="-3.6170660">
        <ele>547.4</ele>
        <time>2021-04-04T07:13:47Z</time>
      </trkpt>
      <trkpt lat="40.3167340" lon="-3.6170930">
        <ele>547.2</ele>
        <time>2021-04-04T07:13:48Z</time>
      </trkpt>
      <trkpt lat="40.3166890" lon="-3.6171220">
        <ele>547.0</ele>
        <time>2021-04-04T07:13:49Z</time>
      </trkpt>
      <trkpt lat="40.3166430" lon="-3.6171500">
        <ele>546.8</ele>
        <time>2021-04-04T07:13:50Z</time>
      </trkpt>
      <trkpt lat="40.3165890" lon="-3.6171810">
        <ele>546.6</ele>
        <time>2021-04-04T07:13:51Z</time>
      </trkpt>
      <trkpt lat="40.3165360" lon="-3.6172140">
        <ele>546.2</ele>
        <time>2021-04-04T07:13:52Z</time>
      </trkpt>
      <trkpt lat="40.3164830" lon="-3.6172480">
        <ele>546.0</ele>
        <time>2021-04-04T07:13:53Z</time>
      </trkpt>
      <trkpt lat="40.3164290" lon="-3.6172810">
        <ele>546.0</ele>
        <time>2021-04-04T07:13:54Z</time>
      </trkpt>
      <trkpt lat="40.3163760" lon="-3.6173110">
        <ele>545.8</ele>
        <time>2021-04-04T07:13:55Z</time>
      </trkpt>
      <trkpt lat="40.3163260" lon="-3.6173380">
        <ele>545.6</ele>
        <time>2021-04-04T07:13:56Z</time>
      </trkpt>
      <trkpt lat="40.3162730" lon="-3.6173650">
        <ele>545.6</ele>
        <time>2021-04-04T07:13:57Z</time>
      </trkpt>
      <trkpt lat="40.3162230" lon="-3.6173870">
        <ele>545.6</ele>
        <time>2021-04-04T07:13:58Z</time>
      </trkpt>
      <trkpt lat="40.3161660" lon="-3.6174090">
        <ele>545.4</ele>
        <time>2021-04-04T07:13:59Z</time>
      </trkpt>
      <trkpt lat="40.3161130" lon="-3.6174280">
        <ele>545.4</ele>
        <time>2021-04-04T07:14:00Z</time>
      </trkpt>
      <trkpt lat="40.3160520" lon="-3.6174430">
        <ele>545.2</ele>
        <time>2021-04-04T07:14:01Z</time>
      </trkpt>
      <trkpt lat="40.3159940" lon="-3.6174550">
        <ele>545.0</ele>
        <time>2021-04-04T07:14:02Z</time>
      </trkpt>
      <trkpt lat="40.3159370" lon="-3.6174640">
        <ele>545.0</ele>
        <time>2021-04-04T07:14:03Z</time>
      </trkpt>
      <trkpt lat="40.3158720" lon="-3.6174740">
        <ele>544.8</ele>
        <time>2021-04-04T07:14:04Z</time>
      </trkpt>
      <trkpt lat="40.3158070" lon="-3.6174870">
        <ele>544.6</ele>
        <time>2021-04-04T07:14:05Z</time>
      </trkpt>
      <trkpt lat="40.3157500" lon="-3.6175050">
        <ele>544.4</ele>
        <time>2021-04-04T07:14:06Z</time>
      </trkpt>
      <trkpt lat="40.3156850" lon="-3.6175290">
        <ele>544.4</ele>
        <time>2021-04-04T07:14:07Z</time>
      </trkpt>
      <trkpt lat="40.3156280" lon="-3.6175570">
        <ele>544.4</ele>
        <time>2021-04-04T07:14:08Z</time>
      </trkpt>
      <trkpt lat="40.3155670" lon="-3.6175880">
        <ele>544.2</ele>
        <time>2021-04-04T07:14:09Z</time>
      </trkpt>
      <trkpt lat="40.3155100" lon="-3.6176190">
        <ele>544.2</ele>
        <time>2021-04-04T07:14:10Z</time>
      </trkpt>
      <trkpt lat="40.3154490" lon="-3.6176490">
        <ele>544.2</ele>
        <time>2021-04-04T07:14:11Z</time>
      </trkpt>
      <trkpt lat="40.3153920" lon="-3.6176760">
        <ele>544.2</ele>
        <time>2021-04-04T07:14:12Z</time>
      </trkpt>
      <trkpt lat="40.3153340" lon="-3.6177030">
        <ele>544.0</ele>
        <time>2021-04-04T07:14:13Z</time>
      </trkpt>
      <trkpt lat="40.3152730" lon="-3.6177310">
        <ele>544.0</ele>
        <time>2021-04-04T07:14:14Z</time>
      </trkpt>
      <trkpt lat="40.3152160" lon="-3.6177560">
        <ele>544.0</ele>
        <time>2021-04-04T07:14:15Z</time>
      </trkpt>
      <trkpt lat="40.3151550" lon="-3.6177800">
        <ele>544.0</ele>
        <time>2021-04-04T07:14:16Z</time>
      </trkpt>
      <trkpt lat="40.3150980" lon="-3.6178020">
        <ele>544.0</ele>
        <time>2021-04-04T07:14:17Z</time>
      </trkpt>
      <trkpt lat="40.3150410" lon="-3.6178210">
        <ele>543.8</ele>
        <time>2021-04-04T07:14:18Z</time>
      </trkpt>
      <trkpt lat="40.3149800" lon="-3.6178400">
        <ele>543.8</ele>
        <time>2021-04-04T07:14:19Z</time>
      </trkpt>
      <trkpt lat="40.3149190" lon="-3.6178570">
        <ele>543.8</ele>
        <time>2021-04-04T07:14:20Z</time>
      </trkpt>
      <trkpt lat="40.3148540" lon="-3.6178740">
        <ele>543.8</ele>
        <time>2021-04-04T07:14:21Z</time>
      </trkpt>
      <trkpt lat="40.3147930" lon="-3.6178890">
        <ele>543.8</ele>
        <time>2021-04-04T07:14:22Z</time>
      </trkpt>
      <trkpt lat="40.3147350" lon="-3.6179010">
        <ele>543.8</ele>
        <time>2021-04-04T07:14:23Z</time>
      </trkpt>
      <trkpt lat="40.3146630" lon="-3.6179120">
        <ele>543.8</ele>
        <time>2021-04-04T07:14:24Z</time>
      </trkpt>
      <trkpt lat="40.3145980" lon="-3.6179260">
        <ele>543.8</ele>
        <time>2021-04-04T07:14:25Z</time>
      </trkpt>
      <trkpt lat="40.3145370" lon="-3.6179430">
        <ele>543.8</ele>
        <time>2021-04-04T07:14:26Z</time>
      </trkpt>
      <trkpt lat="40.3144760" lon="-3.6179600">
        <ele>543.8</ele>
        <time>2021-04-04T07:14:27Z</time>
      </trkpt>
      <trkpt lat="40.3144190" lon="-3.6179790">
        <ele>543.8</ele>
        <time>2021-04-04T07:14:28Z</time>
      </trkpt>
      <trkpt lat="40.3143540" lon="-3.6180060">
        <ele>543.8</ele>
        <time>2021-04-04T07:14:29Z</time>
      </trkpt>
      <trkpt lat="40.3142930" lon="-3.6180330">
        <ele>543.8</ele>
        <time>2021-04-04T07:14:30Z</time>
      </trkpt>
      <trkpt lat="40.3142280" lon="-3.6180550">
        <ele>544.0</ele>
        <time>2021-04-04T07:14:31Z</time>
      </trkpt>
      <trkpt lat="40.3141710" lon="-3.6180740">
        <ele>544.2</ele>
        <time>2021-04-04T07:14:32Z</time>
      </trkpt>
      <trkpt lat="40.3141100" lon="-3.6180880">
        <ele>544.4</ele>
        <time>2021-04-04T07:14:33Z</time>
      </trkpt>
      <trkpt lat="40.3140530" lon="-3.6180960">
        <ele>544.8</ele>
        <time>2021-04-04T07:14:34Z</time>
      </trkpt>
      <trkpt lat="40.3139920" lon="-3.6180980">
        <ele>545.0</ele>
        <time>2021-04-04T07:14:35Z</time>
      </trkpt>
      <trkpt lat="40.3139340" lon="-3.6180960">
        <ele>545.2</ele>
        <time>2021-04-04T07:14:36Z</time>
      </trkpt>
      <trkpt lat="40.3138770" lon="-3.6180890">
        <ele>545.4</ele>
        <time>2021-04-04T07:14:37Z</time>
      </trkpt>
      <trkpt lat="40.3138160" lon="-3.6180770">
        <ele>545.2</ele>
        <time>2021-04-04T07:14:38Z</time>
      </trkpt>
      <trkpt lat="40.3137360" lon="-3.6180680">
        <ele>545.0</ele>
        <time>2021-04-04T07:14:39Z</time>
      </trkpt>
      <trkpt lat="40.3136600" lon="-3.6180640">
        <ele>544.6</ele>
        <time>2021-04-04T07:14:40Z</time>
      </trkpt>
      <trkpt lat="40.3135800" lon="-3.6180590">
        <ele>544.2</ele>
        <time>2021-04-04T07:14:41Z</time>
      </trkpt>
      <trkpt lat="40.3134990" lon="-3.6180520">
        <ele>543.8</ele>
        <time>2021-04-04T07:14:42Z</time>
      </trkpt>
      <trkpt lat="40.3134190" lon="-3.6180430">
        <ele>543.6</ele>
        <time>2021-04-04T07:14:43Z</time>
      </trkpt>
      <trkpt lat="40.3133430" lon="-3.6180380">
        <ele>543.4</ele>
        <time>2021-04-04T07:14:44Z</time>
      </trkpt>
      <trkpt lat="40.3132670" lon="-3.6180420">
        <ele>543.4</ele>
        <time>2021-04-04T07:14:45Z</time>
      </trkpt>
      <trkpt lat="40.3131940" lon="-3.6180540">
        <ele>543.2</ele>
        <time>2021-04-04T07:14:46Z</time>
      </trkpt>
      <trkpt lat="40.3131180" lon="-3.6180750">
        <ele>543.0</ele>
        <time>2021-04-04T07:14:47Z</time>
      </trkpt>
      <trkpt lat="40.3130460" lon="-3.6180970">
        <ele>543.0</ele>
        <time>2021-04-04T07:14:48Z</time>
      </trkpt>
      <trkpt lat="40.3129730" lon="-3.6181160">
        <ele>543.0</ele>
        <time>2021-04-04T07:14:49Z</time>
      </trkpt>
      <trkpt lat="40.3128970" lon="-3.6181340">
        <ele>543.0</ele>
        <time>2021-04-04T07:14:50Z</time>
      </trkpt>
      <trkpt lat="40.3128200" lon="-3.6181510">
        <ele>543.0</ele>
        <time>2021-04-04T07:14:51Z</time>
      </trkpt>
      <trkpt lat="40.3127400" lon="-3.6181660">
        <ele>543.0</ele>
        <time>2021-04-04T07:14:52Z</time>
      </trkpt>
      <trkpt lat="40.3126640" lon="-3.6181780">
        <ele>543.0</ele>
        <time>2021-04-04T07:14:53Z</time>
      </trkpt>
      <trkpt lat="40.3125800" lon="-3.6181880">
        <ele>543.0</ele>
        <time>2021-04-04T07:14:54Z</time>
      </trkpt>
      <trkpt lat="40.3124960" lon="-3.6181950">
        <ele>543.0</ele>
        <time>2021-04-04T07:14:55Z</time>
      </trkpt>
      <trkpt lat="40.3124200" lon="-3.6182000">
        <ele>543.0</ele>
        <time>2021-04-04T07:14:56Z</time>
      </trkpt>
      <trkpt lat="40.3123400" lon="-3.6182050">
        <ele>543.0</ele>
        <time>2021-04-04T07:14:57Z</time>
      </trkpt>
      <trkpt lat="40.3122630" lon="-3.6182080">
        <ele>543.0</ele>
        <time>2021-04-04T07:14:58Z</time>
      </trkpt>
      <trkpt lat="40.3121800" lon="-3.6182130">
        <ele>543.0</ele>
        <time>2021-04-04T07:14:59Z</time>
      </trkpt>
      <trkpt lat="40.3120990" lon="-3.6182160">
        <ele>543.0</ele>
        <time>2021-04-04T07:15:00Z</time>
      </trkpt>
      <trkpt lat="40.3120190" lon="-3.6182200">
        <ele>543.0</ele>
        <time>2021-04-04T07:15:01Z</time>
      </trkpt>
      <trkpt lat="40.3119390" lon="-3.6182250">
        <ele>543.2</ele>
        <time>2021-04-04T07:15:02Z</time>
      </trkpt>
      <trkpt lat="40.3118590" lon="-3.6182310">
        <ele>543.2</ele>
        <time>2021-04-04T07:15:03Z</time>
      </trkpt>
      <trkpt lat="40.3117790" lon="-3.6182410">
        <ele>543.2</ele>
        <time>2021-04-04T07:15:04Z</time>
      </trkpt>
      <trkpt lat="40.3116990" lon="-3.6182580">
        <ele>543.2</ele>
        <time>2021-04-04T07:15:05Z</time>
      </trkpt>
      <trkpt lat="40.3116190" lon="-3.6182870">
        <ele>543.2</ele>
        <time>2021-04-04T07:15:06Z</time>
      </trkpt>
      <trkpt lat="40.3115460" lon="-3.6183270">
        <ele>543.2</ele>
        <time>2021-04-04T07:15:07Z</time>
      </trkpt>
      <trkpt lat="40.3114780" lon="-3.6183770">
        <ele>543.2</ele>
        <time>2021-04-04T07:15:08Z</time>
      </trkpt>
      <trkpt lat="40.3114050" lon="-3.6184440">
        <ele>543.2</ele>
        <time>2021-04-04T07:15:09Z</time>
      </trkpt>
      <trkpt lat="40.3113480" lon="-3.6185160">
        <ele>543.2</ele>
        <time>2021-04-04T07:15:10Z</time>
      </trkpt>
      <trkpt lat="40.3112980" lon="-3.6185970">
        <ele>543.2</ele>
        <time>2021-04-04T07:15:11Z</time>
      </trkpt>
      <trkpt lat="40.3112600" lon="-3.6186880">
        <ele>543.2</ele>
        <time>2021-04-04T07:15:12Z</time>
      </trkpt>
      <trkpt lat="40.3112340" lon="-3.6187860">
        <ele>543.0</ele>
        <time>2021-04-04T07:15:13Z</time>
      </trkpt>
      <trkpt lat="40.3112070" lon="-3.6188930">
        <ele>543.2</ele>
        <time>2021-04-04T07:15:14Z</time>
      </trkpt>
      <trkpt lat="40.3111920" lon="-3.6189980">
        <ele>543.2</ele>
        <time>2021-04-04T07:15:15Z</time>
      </trkpt>
      <trkpt lat="40.3111880" lon="-3.6191010">
        <ele>543.4</ele>
        <time>2021-04-04T07:15:16Z</time>
      </trkpt>
      <trkpt lat="40.3111920" lon="-3.6192060">
        <ele>543.4</ele>
        <time>2021-04-04T07:15:17Z</time>
      </trkpt>
      <trkpt lat="40.3111990" lon="-3.6193080">
        <ele>543.4</ele>
        <time>2021-04-04T07:15:18Z</time>
      </trkpt>
      <trkpt lat="40.3112110" lon="-3.6194170">
        <ele>543.6</ele>
        <time>2021-04-04T07:15:19Z</time>
      </trkpt>
      <trkpt lat="40.3112220" lon="-3.6195170">
        <ele>543.6</ele>
        <time>2021-04-04T07:15:20Z</time>
      </trkpt>
      <trkpt lat="40.3112340" lon="-3.6196200">
        <ele>543.8</ele>
        <time>2021-04-04T07:15:21Z</time>
      </trkpt>
      <trkpt lat="40.3112490" lon="-3.6197230">
        <ele>543.8</ele>
        <time>2021-04-04T07:15:22Z</time>
      </trkpt>
      <trkpt lat="40.3112640" lon="-3.6198210">
        <ele>544.0</ele>
        <time>2021-04-04T07:15:23Z</time>
      </trkpt>
      <trkpt lat="40.3112790" lon="-3.6199150">
        <ele>544.0</ele>
        <time>2021-04-04T07:15:24Z</time>
      </trkpt>
      <trkpt lat="40.3112950" lon="-3.6200120">
        <ele>544.0</ele>
        <time>2021-04-04T07:15:25Z</time>
      </trkpt>
      <trkpt lat="40.3113100" lon="-3.6201050">
        <ele>544.2</ele>
        <time>2021-04-04T07:15:26Z</time>
      </trkpt>
      <trkpt lat="40.3113140" lon="-3.6201970">
        <ele>544.2</ele>
        <time>2021-04-04T07:15:27Z</time>
      </trkpt>
      <trkpt lat="40.3113170" lon="-3.6202860">
        <ele>544.4</ele>
        <time>2021-04-04T07:15:28Z</time>
      </trkpt>
      <trkpt lat="40.3113170" lon="-3.6203710">
        <ele>544.4</ele>
        <time>2021-04-04T07:15:29Z</time>
      </trkpt>
      <trkpt lat="40.3113100" lon="-3.6204640">
        <ele>544.4</ele>
        <time>2021-04-04T07:15:30Z</time>
      </trkpt>
      <trkpt lat="40.3112980" lon="-3.6205500">
        <ele>544.6</ele>
        <time>2021-04-04T07:15:31Z</time>
      </trkpt>
      <trkpt lat="40.3112790" lon="-3.6206320">
        <ele>544.6</ele>
        <time>2021-04-04T07:15:32Z</time>
      </trkpt>
      <trkpt lat="40.3112560" lon="-3.6207090">
        <ele>544.6</ele>
        <time>2021-04-04T07:15:33Z</time>
      </trkpt>
      <trkpt lat="40.3112260" lon="-3.6207890">
        <ele>544.6</ele>
        <time>2021-04-04T07:15:34Z</time>
      </trkpt>
      <trkpt lat="40.3111920" lon="-3.6208660">
        <ele>544.8</ele>
        <time>2021-04-04T07:15:35Z</time>
      </trkpt>
      <trkpt lat="40.3111570" lon="-3.6209370">
        <ele>544.8</ele>
        <time>2021-04-04T07:15:36Z</time>
      </trkpt>
      <trkpt lat="40.3111150" lon="-3.6210040">
        <ele>544.8</ele>
        <time>2021-04-04T07:15:37Z</time>
      </trkpt>
      <trkpt lat="40.3110730" lon="-3.6210620">
        <ele>545.0</ele>
        <time>2021-04-04T07:15:38Z</time>
      </trkpt>
      <trkpt lat="40.3110270" lon="-3.6211150">
        <ele>545.0</ele>
        <time>2021-04-04T07:15:39Z</time>
      </trkpt>
      <trkpt lat="40.3109780" lon="-3.6211650">
        <ele>545.0</ele>
        <time>2021-04-04T07:15:40Z</time>
      </trkpt>
      <trkpt lat="40.3109250" lon="-3.6212130">
        <ele>545.2</ele>
        <time>2021-04-04T07:15:41Z</time>
      </trkpt>
      <trkpt lat="40.3108790" lon="-3.6212590">
        <ele>545.4</ele>
        <time>2021-04-04T07:15:42Z</time>
      </trkpt>
      <trkpt lat="40.3108290" lon="-3.6213050">
        <ele>545.4</ele>
        <time>2021-04-04T07:15:43Z</time>
      </trkpt>
      <trkpt lat="40.3107800" lon="-3.6213500">
        <ele>545.6</ele>
        <time>2021-04-04T07:15:44Z</time>
      </trkpt>
      <trkpt lat="40.3107260" lon="-3.6213970">
        <ele>545.8</ele>
        <time>2021-04-04T07:15:45Z</time>
      </trkpt>
      <trkpt lat="40.3106770" lon="-3.6214380">
        <ele>546.0</ele>
        <time>2021-04-04T07:15:46Z</time>
      </trkpt>
      <trkpt lat="40.3106230" lon="-3.6214840">
        <ele>546.2</ele>
        <time>2021-04-04T07:15:47Z</time>
      </trkpt>
      <trkpt lat="40.3105770" lon="-3.6215260">
        <ele>546.4</ele>
        <time>2021-04-04T07:15:48Z</time>
      </trkpt>
      <trkpt lat="40.3105320" lon="-3.6215670">
        <ele>546.6</ele>
        <time>2021-04-04T07:15:49Z</time>
      </trkpt>
      <trkpt lat="40.3104820" lon="-3.6216060">
        <ele>546.8</ele>
        <time>2021-04-04T07:15:50Z</time>
      </trkpt>
      <trkpt lat="40.3104320" lon="-3.6216490">
        <ele>547.0</ele>
        <time>2021-04-04T07:15:51Z</time>
      </trkpt>
      <trkpt lat="40.3103790" lon="-3.6216920">
        <ele>547.2</ele>
        <time>2021-04-04T07:15:52Z</time>
      </trkpt>
      <trkpt lat="40.3103330" lon="-3.6217350">
        <ele>547.4</ele>
        <time>2021-04-04T07:15:53Z</time>
      </trkpt>
      <trkpt lat="40.3102840" lon="-3.6217800">
        <ele>547.6</ele>
        <time>2021-04-04T07:15:54Z</time>
      </trkpt>
      <trkpt lat="40.3102380" lon="-3.6218270">
        <ele>548.0</ele>
        <time>2021-04-04T07:15:55Z</time>
      </trkpt>
      <trkpt lat="40.3101880" lon="-3.6218730">
        <ele>548.2</ele>
        <time>2021-04-04T07:15:56Z</time>
      </trkpt>
      <trkpt lat="40.3101430" lon="-3.6219190">
        <ele>548.4</ele>
        <time>2021-04-04T07:15:57Z</time>
      </trkpt>
      <trkpt lat="40.3100970" lon="-3.6219690">
        <ele>548.6</ele>
        <time>2021-04-04T07:15:58Z</time>
      </trkpt>
      <trkpt lat="40.3100510" lon="-3.6220180">
        <ele>549.0</ele>
        <time>2021-04-04T07:15:59Z</time>
      </trkpt>
      <trkpt lat="40.3100010" lon="-3.6220670">
        <ele>549.2</ele>
        <time>2021-04-04T07:16:00Z</time>
      </trkpt>
      <trkpt lat="40.3099560" lon="-3.6221200">
        <ele>549.4</ele>
        <time>2021-04-04T07:16:01Z</time>
      </trkpt>
      <trkpt lat="40.3099100" lon="-3.6221680">
        <ele>549.6</ele>
        <time>2021-04-04T07:16:02Z</time>
      </trkpt>
      <trkpt lat="40.3098600" lon="-3.6222160">
        <ele>550.0</ele>
        <time>2021-04-04T07:16:03Z</time>
      </trkpt>
      <trkpt lat="40.3098140" lon="-3.6222640">
        <ele>550.2</ele>
        <time>2021-04-04T07:16:04Z</time>
      </trkpt>
      <trkpt lat="40.3097690" lon="-3.6223120">
        <ele>550.4</ele>
        <time>2021-04-04T07:16:05Z</time>
      </trkpt>
      <trkpt lat="40.3097230" lon="-3.6223610">
        <ele>550.6</ele>
        <time>2021-04-04T07:16:06Z</time>
      </trkpt>
      <trkpt lat="40.3096770" lon="-3.6224080">
        <ele>550.8</ele>
        <time>2021-04-04T07:16:07Z</time>
      </trkpt>
      <trkpt lat="40.3096310" lon="-3.6224580">
        <ele>551.0</ele>
        <time>2021-04-04T07:16:08Z</time>
      </trkpt>
      <trkpt lat="40.3095860" lon="-3.6225100">
        <ele>551.2</ele>
        <time>2021-04-04T07:16:09Z</time>
      </trkpt>
      <trkpt lat="40.3095400" lon="-3.6225620">
        <ele>551.4</ele>
        <time>2021-04-04T07:16:10Z</time>
      </trkpt>
      <trkpt lat="40.3094980" lon="-3.6226130">
        <ele>551.4</ele>
        <time>2021-04-04T07:16:11Z</time>
      </trkpt>
      <trkpt lat="40.3094520" lon="-3.6226600">
        <ele>551.6</ele>
        <time>2021-04-04T07:16:12Z</time>
      </trkpt>
      <trkpt lat="40.3094100" lon="-3.6227100">
        <ele>551.6</ele>
        <time>2021-04-04T07:16:13Z</time>
      </trkpt>
      <trkpt lat="40.3093680" lon="-3.6227630">
        <ele>551.8</ele>
        <time>2021-04-04T07:16:14Z</time>
      </trkpt>
      <trkpt lat="40.3093260" lon="-3.6228170">
        <ele>551.8</ele>
        <time>2021-04-04T07:16:15Z</time>
      </trkpt>
      <trkpt lat="40.3092800" lon="-3.6228740">
        <ele>552.0</ele>
        <time>2021-04-04T07:16:16Z</time>
      </trkpt>
      <trkpt lat="40.3092380" lon="-3.6229300">
        <ele>552.0</ele>
        <time>2021-04-04T07:16:17Z</time>
      </trkpt>
      <trkpt lat="40.3091960" lon="-3.6229850">
        <ele>552.0</ele>
        <time>2021-04-04T07:16:18Z</time>
      </trkpt>
      <trkpt lat="40.3091580" lon="-3.6230370">
        <ele>552.2</ele>
        <time>2021-04-04T07:16:19Z</time>
      </trkpt>
      <trkpt lat="40.3091200" lon="-3.6230920">
        <ele>552.2</ele>
        <time>2021-04-04T07:16:20Z</time>
      </trkpt>
      <trkpt lat="40.3090710" lon="-3.6231550">
        <ele>552.2</ele>
        <time>2021-04-04T07:16:21Z</time>
      </trkpt>
      <trkpt lat="40.3090250" lon="-3.6232150">
        <ele>552.4</ele>
        <time>2021-04-04T07:16:22Z</time>
      </trkpt>
      <trkpt lat="40.3089830" lon="-3.6232710">
        <ele>552.4</ele>
        <time>2021-04-04T07:16:23Z</time>
      </trkpt>
      <trkpt lat="40.3089410" lon="-3.6233300">
        <ele>552.4</ele>
        <time>2021-04-04T07:16:24Z</time>
      </trkpt>
      <trkpt lat="40.3088950" lon="-3.6233910">
        <ele>552.6</ele>
        <time>2021-04-04T07:16:25Z</time>
      </trkpt>
      <trkpt lat="40.3088530" lon="-3.6234470">
        <ele>552.6</ele>
        <time>2021-04-04T07:16:26Z</time>
      </trkpt>
      <trkpt lat="40.3088070" lon="-3.6235060">
        <ele>552.6</ele>
        <time>2021-04-04T07:16:27Z</time>
      </trkpt>
      <trkpt lat="40.3087650" lon="-3.6235660">
        <ele>552.6</ele>
        <time>2021-04-04T07:16:28Z</time>
      </trkpt>
      <trkpt lat="40.3087200" lon="-3.6236260">
        <ele>552.6</ele>
        <time>2021-04-04T07:16:29Z</time>
      </trkpt>
      <trkpt lat="40.3086780" lon="-3.6236870">
        <ele>552.8</ele>
        <time>2021-04-04T07:16:30Z</time>
      </trkpt>
      <trkpt lat="40.3086280" lon="-3.6237490">
        <ele>552.8</ele>
        <time>2021-04-04T07:16:31Z</time>
      </trkpt>
      <trkpt lat="40.3085820" lon="-3.6238130">
        <ele>552.8</ele>
        <time>2021-04-04T07:16:32Z</time>
      </trkpt>
      <trkpt lat="40.3085370" lon="-3.6238780">
        <ele>553.0</ele>
        <time>2021-04-04T07:16:33Z</time>
      </trkpt>
      <trkpt lat="40.3084910" lon="-3.6239400">
        <ele>553.0</ele>
        <time>2021-04-04T07:16:34Z</time>
      </trkpt>
      <trkpt lat="40.3084490" lon="-3.6240030">
        <ele>553.0</ele>
        <time>2021-04-04T07:16:35Z</time>
      </trkpt>
      <trkpt lat="40.3083950" lon="-3.6240710">
        <ele>553.2</ele>
        <time>2021-04-04T07:16:36Z</time>
      </trkpt>
      <trkpt lat="40.3083500" lon="-3.6241350">
        <ele>553.2</ele>
        <time>2021-04-04T07:16:37Z</time>
      </trkpt>
      <trkpt lat="40.3083040" lon="-3.6241990">
        <ele>553.2</ele>
        <time>2021-04-04T07:16:38Z</time>
      </trkpt>
      <trkpt lat="40.3082580" lon="-3.6242630">
        <ele>553.2</ele>
        <time>2021-04-04T07:16:39Z</time>
      </trkpt>
      <trkpt lat="40.3082080" lon="-3.6243260">
        <ele>553.2</ele>
        <time>2021-04-04T07:16:40Z</time>
      </trkpt>
      <trkpt lat="40.3081590" lon="-3.6243920">
        <ele>553.2</ele>
        <time>2021-04-04T07:16:41Z</time>
      </trkpt>
      <trkpt lat="40.3081090" lon="-3.6244550">
        <ele>553.2</ele>
        <time>2021-04-04T07:16:42Z</time>
      </trkpt>
      <trkpt lat="40.3080630" lon="-3.6245200">
        <ele>553.4</ele>
        <time>2021-04-04T07:16:43Z</time>
      </trkpt>
      <trkpt lat="40.3080140" lon="-3.6245830">
        <ele>553.4</ele>
        <time>2021-04-04T07:16:44Z</time>
      </trkpt>
      <trkpt lat="40.3079680" lon="-3.6246410">
        <ele>553.4</ele>
        <time>2021-04-04T07:16:45Z</time>
      </trkpt>
      <trkpt lat="40.3079190" lon="-3.6247070">
        <ele>553.6</ele>
        <time>2021-04-04T07:16:46Z</time>
      </trkpt>
      <trkpt lat="40.3078730" lon="-3.6247760">
        <ele>553.6</ele>
        <time>2021-04-04T07:16:47Z</time>
      </trkpt>
      <trkpt lat="40.3078270" lon="-3.6248420">
        <ele>553.6</ele>
        <time>2021-04-04T07:16:48Z</time>
      </trkpt>
      <trkpt lat="40.3077810" lon="-3.6248980">
        <ele>553.6</ele>
        <time>2021-04-04T07:16:49Z</time>
      </trkpt>
      <trkpt lat="40.3077320" lon="-3.6249520">
        <ele>553.8</ele>
        <time>2021-04-04T07:16:50Z</time>
      </trkpt>
      <trkpt lat="40.3076780" lon="-3.6250160">
        <ele>553.8</ele>
        <time>2021-04-04T07:16:51Z</time>
      </trkpt>
      <trkpt lat="40.3076320" lon="-3.6250830">
        <ele>553.8</ele>
        <time>2021-04-04T07:16:52Z</time>
      </trkpt>
      <trkpt lat="40.3075900" lon="-3.6251530">
        <ele>553.8</ele>
        <time>2021-04-04T07:16:53Z</time>
      </trkpt>
      <trkpt lat="40.3075490" lon="-3.6252220">
        <ele>554.0</ele>
        <time>2021-04-04T07:16:54Z</time>
      </trkpt>
      <trkpt lat="40.3075030" lon="-3.6252900">
        <ele>554.0</ele>
        <time>2021-04-04T07:16:55Z</time>
      </trkpt>
      <trkpt lat="40.3074530" lon="-3.6253610">
        <ele>554.0</ele>
        <time>2021-04-04T07:16:56Z</time>
      </trkpt>
      <trkpt lat="40.3074070" lon="-3.6254300">
        <ele>554.2</ele>
        <time>2021-04-04T07:16:57Z</time>
      </trkpt>
      <trkpt lat="40.3073620" lon="-3.6254970">
        <ele>554.2</ele>
        <time>2021-04-04T07:16:58Z</time>
      </trkpt>
      <trkpt lat="40.3073120" lon="-3.6255620">
        <ele>554.2</ele>
        <time>2021-04-04T07:16:59Z</time>
      </trkpt>
      <trkpt lat="40.3072660" lon="-3.6256290">
        <ele>554.2</ele>
        <time>2021-04-04T07:17:00Z</time>
      </trkpt>
      <trkpt lat="40.3072170" lon="-3.6256960">
        <ele>554.2</ele>
        <time>2021-04-04T07:17:01Z</time>
      </trkpt>
      <trkpt lat="40.3071670" lon="-3.6257600">
        <ele>554.2</ele>
        <time>2021-04-04T07:17:02Z</time>
      </trkpt>
      <trkpt lat="40.3071210" lon="-3.6258230">
        <ele>554.4</ele>
        <time>2021-04-04T07:17:03Z</time>
      </trkpt>
      <trkpt lat="40.3070720" lon="-3.6258890">
        <ele>554.4</ele>
        <time>2021-04-04T07:17:04Z</time>
      </trkpt>
      <trkpt lat="40.3070220" lon="-3.6259540">
        <ele>554.4</ele>
        <time>2021-04-04T07:17:05Z</time>
      </trkpt>
      <trkpt lat="40.3069760" lon="-3.6260180">
        <ele>554.4</ele>
        <time>2021-04-04T07:17:06Z</time>
      </trkpt>
      <trkpt lat="40.3069230" lon="-3.6260830">
        <ele>554.4</ele>
        <time>2021-04-04T07:17:07Z</time>
      </trkpt>
      <trkpt lat="40.3068770" lon="-3.6261500">
        <ele>554.6</ele>
        <time>2021-04-04T07:17:08Z</time>
      </trkpt>
      <trkpt lat="40.3068280" lon="-3.6262160">
        <ele>554.6</ele>
        <time>2021-04-04T07:17:09Z</time>
      </trkpt>
      <trkpt lat="40.3067780" lon="-3.6262820">
        <ele>554.6</ele>
        <time>2021-04-04T07:17:10Z</time>
      </trkpt>
      <trkpt lat="40.3067280" lon="-3.6263500">
        <ele>554.6</ele>
        <time>2021-04-04T07:17:11Z</time>
      </trkpt>
      <trkpt lat="40.3066790" lon="-3.6264170">
        <ele>554.6</ele>
        <time>2021-04-04T07:17:12Z</time>
      </trkpt>
      <trkpt lat="40.3066330" lon="-3.6264860">
        <ele>554.6</ele>
        <time>2021-04-04T07:17:13Z</time>
      </trkpt>
      <trkpt lat="40.3065830" lon="-3.6265550">
        <ele>554.8</ele>
        <time>2021-04-04T07:17:14Z</time>
      </trkpt>
      <trkpt lat="40.3065410" lon="-3.6266210">
        <ele>554.8</ele>
        <time>2021-04-04T07:17:15Z</time>
      </trkpt>
      <trkpt lat="40.3064880" lon="-3.6266930">
        <ele>554.8</ele>
        <time>2021-04-04T07:17:16Z</time>
      </trkpt>
      <trkpt lat="40.3064380" lon="-3.6267610">
        <ele>554.8</ele>
        <time>2021-04-04T07:17:17Z</time>
      </trkpt>
      <trkpt lat="40.3063930" lon="-3.6268280">
        <ele>554.8</ele>
        <time>2021-04-04T07:17:18Z</time>
      </trkpt>
      <trkpt lat="40.3063430" lon="-3.6268920">
        <ele>555.0</ele>
        <time>2021-04-04T07:17:19Z</time>
      </trkpt>
      <trkpt lat="40.3062930" lon="-3.6269550">
        <ele>555.0</ele>
        <time>2021-04-04T07:17:20Z</time>
      </trkpt>
      <trkpt lat="40.3062440" lon="-3.6270180">
        <ele>555.0</ele>
        <time>2021-04-04T07:17:21Z</time>
      </trkpt>
      <trkpt lat="40.3061980" lon="-3.6270840">
        <ele>555.0</ele>
        <time>2021-04-04T07:17:22Z</time>
      </trkpt>
      <trkpt lat="40.3061520" lon="-3.6271460">
        <ele>555.2</ele>
        <time>2021-04-04T07:17:23Z</time>
      </trkpt>
      <trkpt lat="40.3061100" lon="-3.6272070">
        <ele>555.2</ele>
        <time>2021-04-04T07:17:24Z</time>
      </trkpt>
      <trkpt lat="40.3060610" lon="-3.6272700">
        <ele>555.2</ele>
        <time>2021-04-04T07:17:25Z</time>
      </trkpt>
      <trkpt lat="40.3060150" lon="-3.6273310">
        <ele>555.2</ele>
        <time>2021-04-04T07:17:26Z</time>
      </trkpt>
      <trkpt lat="40.3059650" lon="-3.6273980">
        <ele>555.4</ele>
        <time>2021-04-04T07:17:27Z</time>
      </trkpt>
      <trkpt lat="40.3059160" lon="-3.6274580">
        <ele>555.4</ele>
        <time>2021-04-04T07:17:28Z</time>
      </trkpt>
      <trkpt lat="40.3058660" lon="-3.6275180">
        <ele>555.4</ele>
        <time>2021-04-04T07:17:29Z</time>
      </trkpt>
      <trkpt lat="40.3058200" lon="-3.6275790">
        <ele>555.4</ele>
        <time>2021-04-04T07:17:30Z</time>
      </trkpt>
      <trkpt lat="40.3057710" lon="-3.6276420">
        <ele>555.6</ele>
        <time>2021-04-04T07:17:31Z</time>
      </trkpt>
      <trkpt lat="40.3057210" lon="-3.6277090">
        <ele>555.6</ele>
        <time>2021-04-04T07:17:32Z</time>
      </trkpt>
      <trkpt lat="40.3056750" lon="-3.6277740">
        <ele>555.6</ele>
        <time>2021-04-04T07:17:33Z</time>
      </trkpt>
      <trkpt lat="40.3056300" lon="-3.6278380">
        <ele>555.6</ele>
        <time>2021-04-04T07:17:34Z</time>
      </trkpt>
      <trkpt lat="40.3055840" lon="-3.6279000">
        <ele>555.8</ele>
        <time>2021-04-04T07:17:35Z</time>
      </trkpt>
      <trkpt lat="40.3055420" lon="-3.6279570">
        <ele>555.8</ele>
        <time>2021-04-04T07:17:36Z</time>
      </trkpt>
      <trkpt lat="40.3055000" lon="-3.6280140">
        <ele>556.0</ele>
        <time>2021-04-04T07:17:37Z</time>
      </trkpt>
      <trkpt lat="40.3054620" lon="-3.6280690">
        <ele>556.0</ele>
        <time>2021-04-04T07:17:38Z</time>
      </trkpt>
      <trkpt lat="40.3054200" lon="-3.6281230">
        <ele>556.0</ele>
        <time>2021-04-04T07:17:39Z</time>
      </trkpt>
      <trkpt lat="40.3053820" lon="-3.6281700">
        <ele>556.2</ele>
        <time>2021-04-04T07:17:40Z</time>
      </trkpt>
      <trkpt lat="40.3053510" lon="-3.6282150">
        <ele>556.2</ele>
        <time>2021-04-04T07:17:41Z</time>
      </trkpt>
      <trkpt lat="40.3053210" lon="-3.6282630">
        <ele>556.2</ele>
        <time>2021-04-04T07:17:42Z</time>
      </trkpt>
      <trkpt lat="40.3052940" lon="-3.6283110">
        <ele>556.2</ele>
        <time>2021-04-04T07:17:43Z</time>
      </trkpt>
      <trkpt lat="40.3052790" lon="-3.6283650">
        <ele>556.2</ele>
        <time>2021-04-04T07:17:44Z</time>
      </trkpt>
      <trkpt lat="40.3052670" lon="-3.6284250">
        <ele>556.2</ele>
        <time>2021-04-04T07:17:45Z</time>
      </trkpt>
      <trkpt lat="40.3052640" lon="-3.6284820">
        <ele>556.2</ele>
        <time>2021-04-04T07:17:46Z</time>
      </trkpt>
      <trkpt lat="40.3052670" lon="-3.6285430">
        <ele>556.2</ele>
        <time>2021-04-04T07:17:47Z</time>
      </trkpt>
      <trkpt lat="40.3052710" lon="-3.6286010">
        <ele>556.4</ele>
        <time>2021-04-04T07:17:48Z</time>
      </trkpt>
      <trkpt lat="40.3052790" lon="-3.6286600">
        <ele>556.4</ele>
        <time>2021-04-04T07:17:49Z</time>
      </trkpt>
      <trkpt lat="40.3052790" lon="-3.6287150">
        <ele>556.4</ele>
        <time>2021-04-04T07:17:50Z</time>
      </trkpt>
      <trkpt lat="40.3052710" lon="-3.6287700">
        <ele>556.6</ele>
        <time>2021-04-04T07:17:51Z</time>
      </trkpt>
      <trkpt lat="40.3052640" lon="-3.6288220">
        <ele>556.6</ele>
        <time>2021-04-04T07:17:52Z</time>
      </trkpt>
      <trkpt lat="40.3052520" lon="-3.6288590">
        <ele>556.6</ele>
        <time>2021-04-04T07:17:53Z</time>
      </trkpt>
      <trkpt lat="40.3052370" lon="-3.6288810">
        <ele>556.8</ele>
        <time>2021-04-04T07:17:54Z</time>
      </trkpt>
      <trkpt lat="40.3052220" lon="-3.6288960">
        <ele>557.0</ele>
        <time>2021-04-04T07:18:24Z</time>
      </trkpt>
      <trkpt lat="40.3052060" lon="-3.6289020">
        <ele>557.0</ele>
        <time>2021-04-04T07:18:25Z</time>
      </trkpt>
      <trkpt lat="40.3051950" lon="-3.6289180">
        <ele>557.2</ele>
        <time>2021-04-04T07:18:26Z</time>
      </trkpt>
      <trkpt lat="40.3051870" lon="-3.6289360">
        <ele>557.2</ele>
        <time>2021-04-04T07:18:27Z</time>
      </trkpt>
      <trkpt lat="40.3051760" lon="-3.6289540">
        <ele>557.2</ele>
        <time>2021-04-04T07:18:28Z</time>
      </trkpt>
      <trkpt lat="40.3051530" lon="-3.6289680">
        <ele>557.2</ele>
        <time>2021-04-04T07:18:29Z</time>
      </trkpt>
      <trkpt lat="40.3051260" lon="-3.6289790">
        <ele>557.2</ele>
        <time>2021-04-04T07:18:30Z</time>
      </trkpt>
      <trkpt lat="40.3051070" lon="-3.6289910">
        <ele>557.2</ele>
        <time>2021-04-04T07:18:31Z</time>
      </trkpt>
      <trkpt lat="40.3050880" lon="-3.6290090">
        <ele>557.2</ele>
        <time>2021-04-04T07:18:32Z</time>
      </trkpt>
      <trkpt lat="40.3050690" lon="-3.6290250">
        <ele>557.4</ele>
        <time>2021-04-04T07:18:33Z</time>
      </trkpt>
      <trkpt lat="40.3050650" lon="-3.6290320">
        <ele>557.4</ele>
        <time>2021-04-04T07:18:34Z</time>
      </trkpt>
      <trkpt lat="40.3050610" lon="-3.6290330">
        <ele>557.4</ele>
        <time>2021-04-04T07:18:35Z</time>
      </trkpt>
      <trkpt lat="40.3050610" lon="-3.6290330">
        <ele>557.4</ele>
        <time>2021-04-04T07:18:36Z</time>
      </trkpt>
      <trkpt lat="40.3050610" lon="-3.6290330">
        <ele>557.4</ele>
        <time>2021-04-04T07:18:37Z</time>
      </trkpt>
      <trkpt lat="40.3050610" lon="-3.6290330">
        <ele>557.6</ele>
        <time>2021-04-04T07:18:38Z</time>
      </trkpt>
      <trkpt lat="40.3050610" lon="-3.6290330">
        <ele>557.6</ele>
        <time>2021-04-04T07:19:17Z</time>
      </trkpt>
      <trkpt lat="40.3050650" lon="-3.6290390">
        <ele>557.6</ele>
        <time>2021-04-04T07:19:18Z</time>
      </trkpt>
      <trkpt lat="40.3050770" lon="-3.6290520">
        <ele>557.6</ele>
        <time>2021-04-04T07:19:19Z</time>
      </trkpt>
      <trkpt lat="40.3050840" lon="-3.6290530">
        <ele>557.4</ele>
        <time>2021-04-04T07:19:20Z</time>
      </trkpt>
      <trkpt lat="40.3050920" lon="-3.6290520">
        <ele>557.4</ele>
        <time>2021-04-04T07:19:21Z</time>
      </trkpt>
      <trkpt lat="40.3050960" lon="-3.6290520">
        <ele>557.4</ele>
        <time>2021-04-04T07:19:22Z</time>
      </trkpt>
      <trkpt lat="40.3051030" lon="-3.6290470">
        <ele>557.4</ele>
        <time>2021-04-04T07:19:23Z</time>
      </trkpt>
      <trkpt lat="40.3051150" lon="-3.6290360">
        <ele>557.4</ele>
        <time>2021-04-04T07:19:24Z</time>
      </trkpt>
      <trkpt lat="40.3051260" lon="-3.6290270">
        <ele>557.4</ele>
        <time>2021-04-04T07:19:25Z</time>
      </trkpt>
      <trkpt lat="40.3051340" lon="-3.6290190">
        <ele>557.4</ele>
        <time>2021-04-04T07:19:26Z</time>
      </trkpt>
      <trkpt lat="40.3051450" lon="-3.6290130">
        <ele>557.4</ele>
        <time>2021-04-04T07:19:27Z</time>
      </trkpt>
      <trkpt lat="40.3051530" lon="-3.6290030">
        <ele>557.4</ele>
        <time>2021-04-04T07:19:28Z</time>
      </trkpt>
      <trkpt lat="40.3051600" lon="-3.6289940">
        <ele>557.2</ele>
        <time>2021-04-04T07:19:29Z</time>
      </trkpt>
      <trkpt lat="40.3051640" lon="-3.6289830">
        <ele>557.2</ele>
        <time>2021-04-04T07:19:30Z</time>
      </trkpt>
      <trkpt lat="40.3051720" lon="-3.6289710">
        <ele>557.2</ele>
        <time>2021-04-04T07:19:31Z</time>
      </trkpt>
      <trkpt lat="40.3051800" lon="-3.6289580">
        <ele>557.2</ele>
        <time>2021-04-04T07:19:32Z</time>
      </trkpt>
      <trkpt lat="40.3051870" lon="-3.6289440">
        <ele>557.2</ele>
        <time>2021-04-04T07:19:33Z</time>
      </trkpt>
      <trkpt lat="40.3051950" lon="-3.6289330">
        <ele>557.2</ele>
        <time>2021-04-04T07:19:34Z</time>
      </trkpt>
      <trkpt lat="40.3052020" lon="-3.6289220">
        <ele>557.2</ele>
        <time>2021-04-04T07:19:35Z</time>
      </trkpt>
      <trkpt lat="40.3052060" lon="-3.6289190">
        <ele>557.2</ele>
        <time>2021-04-04T07:19:36Z</time>
      </trkpt>
      <trkpt lat="40.3052060" lon="-3.6289210">
        <ele>557.0</ele>
        <time>2021-04-04T07:19:37Z</time>
      </trkpt>
      <trkpt lat="40.3052060" lon="-3.6289220">
        <ele>557.0</ele>
        <time>2021-04-04T07:19:38Z</time>
      </trkpt>
      <trkpt lat="40.3052060" lon="-3.6289220">
        <ele>557.0</ele>
        <time>2021-04-04T07:19:39Z</time>
      </trkpt>
      <trkpt lat="40.3052060" lon="-3.6289220">
        <ele>557.0</ele>
        <time>2021-04-04T07:19:40Z</time>
      </trkpt>
      <trkpt lat="40.3052060" lon="-3.6289220">
        <ele>557.0</ele>
        <time>2021-04-04T07:19:41Z</time>
      </trkpt>
      <trkpt lat="40.3052020" lon="-3.6289110">
        <ele>557.0</ele>
        <time>2021-04-04T07:21:34Z</time>
      </trkpt>
      <trkpt lat="40.3051950" lon="-3.6288880">
        <ele>557.0</ele>
        <time>2021-04-04T07:21:35Z</time>
      </trkpt>
      <trkpt lat="40.3051830" lon="-3.6288740">
        <ele>557.0</ele>
        <time>2021-04-04T07:21:36Z</time>
      </trkpt>
      <trkpt lat="40.3051720" lon="-3.6288540">
        <ele>557.0</ele>
        <time>2021-04-04T07:21:37Z</time>
      </trkpt>
      <trkpt lat="40.3051600" lon="-3.6288300">
        <ele>557.0</ele>
        <time>2021-04-04T07:21:38Z</time>
      </trkpt>
      <trkpt lat="40.3051450" lon="-3.6288020">
        <ele>556.8</ele>
        <time>2021-04-04T07:21:39Z</time>
      </trkpt>
      <trkpt lat="40.3051260" lon="-3.6287730">
        <ele>556.8</ele>
        <time>2021-04-04T07:21:40Z</time>
      </trkpt>
      <trkpt lat="40.3051070" lon="-3.6287400">
        <ele>556.8</ele>
        <time>2021-04-04T07:21:41Z</time>
      </trkpt>
      <trkpt lat="40.3050880" lon="-3.6287060">
        <ele>556.6</ele>
        <time>2021-04-04T07:21:42Z</time>
      </trkpt>
      <trkpt lat="40.3050730" lon="-3.6286710">
        <ele>556.6</ele>
        <time>2021-04-04T07:21:43Z</time>
      </trkpt>
      <trkpt lat="40.3050570" lon="-3.6286380">
        <ele>556.6</ele>
        <time>2021-04-04T07:21:44Z</time>
      </trkpt>
      <trkpt lat="40.3050420" lon="-3.6286090">
        <ele>556.6</ele>
        <time>2021-04-04T07:21:45Z</time>
      </trkpt>
      <trkpt lat="40.3050310" lon="-3.6285840">
        <ele>556.6</ele>
        <time>2021-04-04T07:21:46Z</time>
      </trkpt>
      <trkpt lat="40.3050190" lon="-3.6285580">
        <ele>556.6</ele>
        <time>2021-04-04T07:21:47Z</time>
      </trkpt>
      <trkpt lat="40.3050040" lon="-3.6285320">
        <ele>556.6</ele>
        <time>2021-04-04T07:21:48Z</time>
      </trkpt>
      <trkpt lat="40.3049850" lon="-3.6285060">
        <ele>556.6</ele>
        <time>2021-04-04T07:21:49Z</time>
      </trkpt>
      <trkpt lat="40.3049620" lon="-3.6284780">
        <ele>556.6</ele>
        <time>2021-04-04T07:21:50Z</time>
      </trkpt>
      <trkpt lat="40.3049350" lon="-3.6284470">
        <ele>556.6</ele>
        <time>2021-04-04T07:21:51Z</time>
      </trkpt>
      <trkpt lat="40.3049090" lon="-3.6284120">
        <ele>556.6</ele>
        <time>2021-04-04T07:21:52Z</time>
      </trkpt>
      <trkpt lat="40.3048780" lon="-3.6283770">
        <ele>556.6</ele>
        <time>2021-04-04T07:21:53Z</time>
      </trkpt>
      <trkpt lat="40.3048440" lon="-3.6283430">
        <ele>556.6</ele>
        <time>2021-04-04T07:21:54Z</time>
      </trkpt>
      <trkpt lat="40.3048130" lon="-3.6283030">
        <ele>556.6</ele>
        <time>2021-04-04T07:21:55Z</time>
      </trkpt>
      <trkpt lat="40.3047790" lon="-3.6282630">
        <ele>556.6</ele>
        <time>2021-04-04T07:21:56Z</time>
      </trkpt>
      <trkpt lat="40.3047490" lon="-3.6282230">
        <ele>556.6</ele>
        <time>2021-04-04T07:21:57Z</time>
      </trkpt>
      <trkpt lat="40.3047220" lon="-3.6281840">
        <ele>556.6</ele>
        <time>2021-04-04T07:21:58Z</time>
      </trkpt>
      <trkpt lat="40.3046910" lon="-3.6281440">
        <ele>556.6</ele>
        <time>2021-04-04T07:21:59Z</time>
      </trkpt>
      <trkpt lat="40.3046680" lon="-3.6281070">
        <ele>556.8</ele>
        <time>2021-04-04T07:22:00Z</time>
      </trkpt>
      <trkpt lat="40.3046420" lon="-3.6280700">
        <ele>556.8</ele>
        <time>2021-04-04T07:22:01Z</time>
      </trkpt>
      <trkpt lat="40.3046150" lon="-3.6280350">
        <ele>556.8</ele>
        <time>2021-04-04T07:22:02Z</time>
      </trkpt>
      <trkpt lat="40.3045880" lon="-3.6280000">
        <ele>556.8</ele>
        <time>2021-04-04T07:22:03Z</time>
      </trkpt>
      <trkpt lat="40.3045620" lon="-3.6279620">
        <ele>556.8</ele>
        <time>2021-04-04T07:22:04Z</time>
      </trkpt>
      <trkpt lat="40.3045350" lon="-3.6279230">
        <ele>556.8</ele>
        <time>2021-04-04T07:22:05Z</time>
      </trkpt>
      <trkpt lat="40.3045040" lon="-3.6278860">
        <ele>556.8</ele>
        <time>2021-04-04T07:22:06Z</time>
      </trkpt>
      <trkpt lat="40.3044780" lon="-3.6278490">
        <ele>556.8</ele>
        <time>2021-04-04T07:22:07Z</time>
      </trkpt>
      <trkpt lat="40.3044510" lon="-3.6278130">
        <ele>556.8</ele>
        <time>2021-04-04T07:22:08Z</time>
      </trkpt>
      <trkpt lat="40.3044200" lon="-3.6277760">
        <ele>556.8</ele>
        <time>2021-04-04T07:22:09Z</time>
      </trkpt>
      <trkpt lat="40.3043940" lon="-3.6277370">
        <ele>556.8</ele>
        <time>2021-04-04T07:22:10Z</time>
      </trkpt>
      <trkpt lat="40.3043670" lon="-3.6277020">
        <ele>557.0</ele>
        <time>2021-04-04T07:22:11Z</time>
      </trkpt>
      <trkpt lat="40.3043370" lon="-3.6276650">
        <ele>557.0</ele>
        <time>2021-04-04T07:22:12Z</time>
      </trkpt>
      <trkpt lat="40.3043060" lon="-3.6276250">
        <ele>557.0</ele>
        <time>2021-04-04T07:22:13Z</time>
      </trkpt>
      <trkpt lat="40.3042790" lon="-3.6275850">
        <ele>557.0</ele>
        <time>2021-04-04T07:22:14Z</time>
      </trkpt>
      <trkpt lat="40.3042490" lon="-3.6275470">
        <ele>557.2</ele>
        <time>2021-04-04T07:22:15Z</time>
      </trkpt>
      <trkpt lat="40.3042220" lon="-3.6275090">
        <ele>557.2</ele>
        <time>2021-04-04T07:22:16Z</time>
      </trkpt>
      <trkpt lat="40.3041920" lon="-3.6274700">
        <ele>557.2</ele>
        <time>2021-04-04T07:22:17Z</time>
      </trkpt>
      <trkpt lat="40.3041650" lon="-3.6274310">
        <ele>557.2</ele>
        <time>2021-04-04T07:22:18Z</time>
      </trkpt>
      <trkpt lat="40.3041340" lon="-3.6273930">
        <ele>557.2</ele>
        <time>2021-04-04T07:22:19Z</time>
      </trkpt>
      <trkpt lat="40.3041080" lon="-3.6273550">
        <ele>557.2</ele>
        <time>2021-04-04T07:22:20Z</time>
      </trkpt>
      <trkpt lat="40.3040770" lon="-3.6273180">
        <ele>557.2</ele>
        <time>2021-04-04T07:22:21Z</time>
      </trkpt>
      <trkpt lat="40.3040500" lon="-3.6272820">
        <ele>557.2</ele>
        <time>2021-04-04T07:22:22Z</time>
      </trkpt>
      <trkpt lat="40.3040240" lon="-3.6272460">
        <ele>557.0</ele>
        <time>2021-04-04T07:22:23Z</time>
      </trkpt>
      <trkpt lat="40.3039970" lon="-3.6272110">
        <ele>557.0</ele>
        <time>2021-04-04T07:22:24Z</time>
      </trkpt>
      <trkpt lat="40.3039700" lon="-3.6271750">
        <ele>557.0</ele>
        <time>2021-04-04T07:22:25Z</time>
      </trkpt>
      <trkpt lat="40.3039440" lon="-3.6271400">
        <ele>557.0</ele>
        <time>2021-04-04T07:22:26Z</time>
      </trkpt>
      <trkpt lat="40.3039170" lon="-3.6271030">
        <ele>557.0</ele>
        <time>2021-04-04T07:22:27Z</time>
      </trkpt>
      <trkpt lat="40.3038940" lon="-3.6270680">
        <ele>557.0</ele>
        <time>2021-04-04T07:22:28Z</time>
      </trkpt>
      <trkpt lat="40.3038710" lon="-3.6270340">
        <ele>557.2</ele>
        <time>2021-04-04T07:22:29Z</time>
      </trkpt>
      <trkpt lat="40.3038480" lon="-3.6270020">
        <ele>557.2</ele>
        <time>2021-04-04T07:22:30Z</time>
      </trkpt>
      <trkpt lat="40.3038220" lon="-3.6269690">
        <ele>557.2</ele>
        <time>2021-04-04T07:22:31Z</time>
      </trkpt>
      <trkpt lat="40.3037950" lon="-3.6269360">
        <ele>557.2</ele>
        <time>2021-04-04T07:22:32Z</time>
      </trkpt>
      <trkpt lat="40.3037720" lon="-3.6269020">
        <ele>557.2</ele>
        <time>2021-04-04T07:22:33Z</time>
      </trkpt>
      <trkpt lat="40.3037450" lon="-3.6268680">
        <ele>557.4</ele>
        <time>2021-04-04T07:22:34Z</time>
      </trkpt>
      <trkpt lat="40.3037190" lon="-3.6268320">
        <ele>557.4</ele>
        <time>2021-04-04T07:22:35Z</time>
      </trkpt>
      <trkpt lat="40.3036880" lon="-3.6267960">
        <ele>557.4</ele>
        <time>2021-04-04T07:22:36Z</time>
      </trkpt>
      <trkpt lat="40.3036610" lon="-3.6267620">
        <ele>557.4</ele>
        <time>2021-04-04T07:22:37Z</time>
      </trkpt>
      <trkpt lat="40.3036310" lon="-3.6267270">
        <ele>557.6</ele>
        <time>2021-04-04T07:22:38Z</time>
      </trkpt>
      <trkpt lat="40.3036040" lon="-3.6266930">
        <ele>557.6</ele>
        <time>2021-04-04T07:22:39Z</time>
      </trkpt>
      <trkpt lat="40.3035740" lon="-3.6266580">
        <ele>557.6</ele>
        <time>2021-04-04T07:22:40Z</time>
      </trkpt>
      <trkpt lat="40.3035470" lon="-3.6266230">
        <ele>557.6</ele>
        <time>2021-04-04T07:22:41Z</time>
      </trkpt>
      <trkpt lat="40.3035160" lon="-3.6265880">
        <ele>557.6</ele>
        <time>2021-04-04T07:22:42Z</time>
      </trkpt>
      <trkpt lat="40.3034900" lon="-3.6265510">
        <ele>557.6</ele>
        <time>2021-04-04T07:22:43Z</time>
      </trkpt>
      <trkpt lat="40.3034590" lon="-3.6265140">
        <ele>557.6</ele>
        <time>2021-04-04T07:22:44Z</time>
      </trkpt>
      <trkpt lat="40.3034290" lon="-3.6264770">
        <ele>557.6</ele>
        <time>2021-04-04T07:22:45Z</time>
      </trkpt>
      <trkpt lat="40.3033980" lon="-3.6264400">
        <ele>557.6</ele>
        <time>2021-04-04T07:22:46Z</time>
      </trkpt>
      <trkpt lat="40.3033680" lon="-3.6264020">
        <ele>557.8</ele>
        <time>2021-04-04T07:22:47Z</time>
      </trkpt>
      <trkpt lat="40.3033410" lon="-3.6263630">
        <ele>557.8</ele>
        <time>2021-04-04T07:22:48Z</time>
      </trkpt>
      <trkpt lat="40.3033100" lon="-3.6263240">
        <ele>557.8</ele>
        <time>2021-04-04T07:22:49Z</time>
      </trkpt>
      <trkpt lat="40.3032800" lon="-3.6262860">
        <ele>557.8</ele>
        <time>2021-04-04T07:22:50Z</time>
      </trkpt>
      <trkpt lat="40.3032490" lon="-3.6262490">
        <ele>557.8</ele>
        <time>2021-04-04T07:22:51Z</time>
      </trkpt>
      <trkpt lat="40.3032230" lon="-3.6262110">
        <ele>558.0</ele>
        <time>2021-04-04T07:22:52Z</time>
      </trkpt>
      <trkpt lat="40.3031920" lon="-3.6261750">
        <ele>558.0</ele>
        <time>2021-04-04T07:22:53Z</time>
      </trkpt>
      <trkpt lat="40.3031650" lon="-3.6261410">
        <ele>558.0</ele>
        <time>2021-04-04T07:22:54Z</time>
      </trkpt>
      <trkpt lat="40.3031390" lon="-3.6261050">
        <ele>558.0</ele>
        <time>2021-04-04T07:22:55Z</time>
      </trkpt>
      <trkpt lat="40.3031120" lon="-3.6260690">
        <ele>558.0</ele>
        <time>2021-04-04T07:22:56Z</time>
      </trkpt>
      <trkpt lat="40.3030850" lon="-3.6260320">
        <ele>558.2</ele>
        <time>2021-04-04T07:22:57Z</time>
      </trkpt>
      <trkpt lat="40.3030590" lon="-3.6259960">
        <ele>558.2</ele>
        <time>2021-04-04T07:22:58Z</time>
      </trkpt>
      <trkpt lat="40.3030320" lon="-3.6259620">
        <ele>558.2</ele>
        <time>2021-04-04T07:22:59Z</time>
      </trkpt>
      <trkpt lat="40.3030050" lon="-3.6259280">
        <ele>558.2</ele>
        <time>2021-04-04T07:23:00Z</time>
      </trkpt>
      <trkpt lat="40.3029750" lon="-3.6258930">
        <ele>558.2</ele>
        <time>2021-04-04T07:23:01Z</time>
      </trkpt>
      <trkpt lat="40.3029440" lon="-3.6258560">
        <ele>558.2</ele>
        <time>2021-04-04T07:23:02Z</time>
      </trkpt>
      <trkpt lat="40.3029180" lon="-3.6258190">
        <ele>558.2</ele>
        <time>2021-04-04T07:23:03Z</time>
      </trkpt>
      <trkpt lat="40.3028870" lon="-3.6257830">
        <ele>558.2</ele>
        <time>2021-04-04T07:23:04Z</time>
      </trkpt>
      <trkpt lat="40.3028600" lon="-3.6257470">
        <ele>558.2</ele>
        <time>2021-04-04T07:23:05Z</time>
      </trkpt>
      <trkpt lat="40.3028260" lon="-3.6257110">
        <ele>558.2</ele>
        <time>2021-04-04T07:23:06Z</time>
      </trkpt>
      <trkpt lat="40.3027950" lon="-3.6256740">
        <ele>558.4</ele>
        <time>2021-04-04T07:23:07Z</time>
      </trkpt>
      <trkpt lat="40.3027690" lon="-3.6256380">
        <ele>558.4</ele>
        <time>2021-04-04T07:23:08Z</time>
      </trkpt>
      <trkpt lat="40.3027380" lon="-3.6256020">
        <ele>558.4</ele>
        <time>2021-04-04T07:23:09Z</time>
      </trkpt>
      <trkpt lat="40.3027080" lon="-3.6255660">
        <ele>558.4</ele>
        <time>2021-04-04T07:23:10Z</time>
      </trkpt>
      <trkpt lat="40.3026810" lon="-3.6255310">
        <ele>558.4</ele>
        <time>2021-04-04T07:23:11Z</time>
      </trkpt>
      <trkpt lat="40.3026540" lon="-3.6254960">
        <ele>558.6</ele>
        <time>2021-04-04T07:23:12Z</time>
      </trkpt>
      <trkpt lat="40.3026280" lon="-3.6254600">
        <ele>558.6</ele>
        <time>2021-04-04T07:23:13Z</time>
      </trkpt>
      <trkpt lat="40.3026010" lon="-3.6254230">
        <ele>558.6</ele>
        <time>2021-04-04T07:23:14Z</time>
      </trkpt>
      <trkpt lat="40.3025740" lon="-3.6253860">
        <ele>558.8</ele>
        <time>2021-04-04T07:23:15Z</time>
      </trkpt>
      <trkpt lat="40.3025470" lon="-3.6253520">
        <ele>558.8</ele>
        <time>2021-04-04T07:23:16Z</time>
      </trkpt>
      <trkpt lat="40.3025170" lon="-3.6253180">
        <ele>558.8</ele>
        <time>2021-04-04T07:23:17Z</time>
      </trkpt>
      <trkpt lat="40.3024900" lon="-3.6252850">
        <ele>558.8</ele>
        <time>2021-04-04T07:23:18Z</time>
      </trkpt>
      <trkpt lat="40.3024560" lon="-3.6252490">
        <ele>558.8</ele>
        <time>2021-04-04T07:23:19Z</time>
      </trkpt>
      <trkpt lat="40.3024290" lon="-3.6252120">
        <ele>558.8</ele>
        <time>2021-04-04T07:23:20Z</time>
      </trkpt>
      <trkpt lat="40.3024030" lon="-3.6251740">
        <ele>558.8</ele>
        <time>2021-04-04T07:23:21Z</time>
      </trkpt>
      <trkpt lat="40.3023720" lon="-3.6251370">
        <ele>558.8</ele>
        <time>2021-04-04T07:23:22Z</time>
      </trkpt>
      <trkpt lat="40.3023410" lon="-3.6250990">
        <ele>558.8</ele>
        <time>2021-04-04T07:23:23Z</time>
      </trkpt>
      <trkpt lat="40.3023070" lon="-3.6250640">
        <ele>558.8</ele>
        <time>2021-04-04T07:23:24Z</time>
      </trkpt>
      <trkpt lat="40.3022770" lon="-3.6250280">
        <ele>558.8</ele>
        <time>2021-04-04T07:23:25Z</time>
      </trkpt>
      <trkpt lat="40.3022460" lon="-3.6249920">
        <ele>558.8</ele>
        <time>2021-04-04T07:23:26Z</time>
      </trkpt>
      <trkpt lat="40.3022160" lon="-3.6249600">
        <ele>558.8</ele>
        <time>2021-04-04T07:23:27Z</time>
      </trkpt>
      <trkpt lat="40.3021850" lon="-3.6249280">
        <ele>558.8</ele>
        <time>2021-04-04T07:23:28Z</time>
      </trkpt>
      <trkpt lat="40.3021550" lon="-3.6248940">
        <ele>558.6</ele>
        <time>2021-04-04T07:23:29Z</time>
      </trkpt>
      <trkpt lat="40.3021200" lon="-3.6248610">
        <ele>558.6</ele>
        <time>2021-04-04T07:23:30Z</time>
      </trkpt>
      <trkpt lat="40.3020900" lon="-3.6248270">
        <ele>558.6</ele>
        <time>2021-04-04T07:23:31Z</time>
      </trkpt>
      <trkpt lat="40.3020550" lon="-3.6247940">
        <ele>558.4</ele>
        <time>2021-04-04T07:23:32Z</time>
      </trkpt>
      <trkpt lat="40.3020250" lon="-3.6247610">
        <ele>558.4</ele>
        <time>2021-04-04T07:23:33Z</time>
      </trkpt>
      <trkpt lat="40.3019910" lon="-3.6247270">
        <ele>558.2</ele>
        <time>2021-04-04T07:23:34Z</time>
      </trkpt>
      <trkpt lat="40.3019560" lon="-3.6246910">
        <ele>558.2</ele>
        <time>2021-04-04T07:23:35Z</time>
      </trkpt>
      <trkpt lat="40.3019180" lon="-3.6246550">
        <ele>558.2</ele>
        <time>2021-04-04T07:23:36Z</time>
      </trkpt>
      <trkpt lat="40.3018840" lon="-3.6246180">
        <ele>558.0</ele>
        <time>2021-04-04T07:23:37Z</time>
      </trkpt>
      <trkpt lat="40.3018460" lon="-3.6245820">
        <ele>558.0</ele>
        <time>2021-04-04T07:23:38Z</time>
      </trkpt>
      <trkpt lat="40.3018070" lon="-3.6245460">
        <ele>558.0</ele>
        <time>2021-04-04T07:23:39Z</time>
      </trkpt>
      <trkpt lat="40.3017690" lon="-3.6245090">
        <ele>557.8</ele>
        <time>2021-04-04T07:23:40Z</time>
      </trkpt>
      <trkpt lat="40.3017310" lon="-3.6244700">
        <ele>557.8</ele>
        <time>2021-04-04T07:23:41Z</time>
      </trkpt>
      <trkpt lat="40.3016930" lon="-3.6244310">
        <ele>557.6</ele>
        <time>2021-04-04T07:23:42Z</time>
      </trkpt>
      <trkpt lat="40.3016550" lon="-3.6243920">
        <ele>557.6</ele>
        <time>2021-04-04T07:23:43Z</time>
      </trkpt>
      <trkpt lat="40.3016170" lon="-3.6243520">
        <ele>557.4</ele>
        <time>2021-04-04T07:23:44Z</time>
      </trkpt>
      <trkpt lat="40.3015750" lon="-3.6243110">
        <ele>557.2</ele>
        <time>2021-04-04T07:23:45Z</time>
      </trkpt>
      <trkpt lat="40.3015370" lon="-3.6242690">
        <ele>557.2</ele>
        <time>2021-04-04T07:23:46Z</time>
      </trkpt>
      <trkpt lat="40.3014950" lon="-3.6242270">
        <ele>557.0</ele>
        <time>2021-04-04T07:23:47Z</time>
      </trkpt>
      <trkpt lat="40.3014560" lon="-3.6241860">
        <ele>557.0</ele>
        <time>2021-04-04T07:23:48Z</time>
      </trkpt>
      <trkpt lat="40.3014140" lon="-3.6241450">
        <ele>556.8</ele>
        <time>2021-04-04T07:23:49Z</time>
      </trkpt>
      <trkpt lat="40.3013730" lon="-3.6241040">
        <ele>556.8</ele>
        <time>2021-04-04T07:23:50Z</time>
      </trkpt>
      <trkpt lat="40.3013310" lon="-3.6240630">
        <ele>556.6</ele>
        <time>2021-04-04T07:23:51Z</time>
      </trkpt>
      <trkpt lat="40.3012890" lon="-3.6240220">
        <ele>556.6</ele>
        <time>2021-04-04T07:23:52Z</time>
      </trkpt>
      <trkpt lat="40.3012470" lon="-3.6239810">
        <ele>556.6</ele>
        <time>2021-04-04T07:23:53Z</time>
      </trkpt>
      <trkpt lat="40.3012050" lon="-3.6239380">
        <ele>556.4</ele>
        <time>2021-04-04T07:23:54Z</time>
      </trkpt>
      <trkpt lat="40.3011670" lon="-3.6238950">
        <ele>556.2</ele>
        <time>2021-04-04T07:23:55Z</time>
      </trkpt>
      <trkpt lat="40.3011210" lon="-3.6238520">
        <ele>556.2</ele>
        <time>2021-04-04T07:23:56Z</time>
      </trkpt>
      <trkpt lat="40.3010750" lon="-3.6238070">
        <ele>556.0</ele>
        <time>2021-04-04T07:23:57Z</time>
      </trkpt>
      <trkpt lat="40.3010290" lon="-3.6237610">
        <ele>555.8</ele>
        <time>2021-04-04T07:23:58Z</time>
      </trkpt>
      <trkpt lat="40.3009830" lon="-3.6237150">
        <ele>555.6</ele>
        <time>2021-04-04T07:23:59Z</time>
      </trkpt>
      <trkpt lat="40.3009380" lon="-3.6236690">
        <ele>555.6</ele>
        <time>2021-04-04T07:24:00Z</time>
      </trkpt>
      <trkpt lat="40.3008920" lon="-3.6236250">
        <ele>555.4</ele>
        <time>2021-04-04T07:24:01Z</time>
      </trkpt>
      <trkpt lat="40.3008500" lon="-3.6235810">
        <ele>555.2</ele>
        <time>2021-04-04T07:24:02Z</time>
      </trkpt>
      <trkpt lat="40.3008040" lon="-3.6235350">
        <ele>555.2</ele>
        <time>2021-04-04T07:24:03Z</time>
      </trkpt>
      <trkpt lat="40.3007580" lon="-3.6234900">
        <ele>555.0</ele>
        <time>2021-04-04T07:24:04Z</time>
      </trkpt>
      <trkpt lat="40.3007160" lon="-3.6234450">
        <ele>555.0</ele>
        <time>2021-04-04T07:24:05Z</time>
      </trkpt>
      <trkpt lat="40.3006670" lon="-3.6233980">
        <ele>554.8</ele>
        <time>2021-04-04T07:24:06Z</time>
      </trkpt>
      <trkpt lat="40.3006250" lon="-3.6233550">
        <ele>554.8</ele>
        <time>2021-04-04T07:24:07Z</time>
      </trkpt>
      <trkpt lat="40.3005830" lon="-3.6233130">
        <ele>554.8</ele>
        <time>2021-04-04T07:24:08Z</time>
      </trkpt>
      <trkpt lat="40.3005410" lon="-3.6232690">
        <ele>555.0</ele>
        <time>2021-04-04T07:24:09Z</time>
      </trkpt>
      <trkpt lat="40.3004950" lon="-3.6232260">
        <ele>555.0</ele>
        <time>2021-04-04T07:24:10Z</time>
      </trkpt>
      <trkpt lat="40.3004530" lon="-3.6231840">
        <ele>555.0</ele>
        <time>2021-04-04T07:24:11Z</time>
      </trkpt>
      <trkpt lat="40.3004110" lon="-3.6231420">
        <ele>555.0</ele>
        <time>2021-04-04T07:24:12Z</time>
      </trkpt>
      <trkpt lat="40.3003690" lon="-3.6231010">
        <ele>555.0</ele>
        <time>2021-04-04T07:24:13Z</time>
      </trkpt>
      <trkpt lat="40.3003310" lon="-3.6230580">
        <ele>555.0</ele>
        <time>2021-04-04T07:24:14Z</time>
      </trkpt>
      <trkpt lat="40.3002890" lon="-3.6230140">
        <ele>555.0</ele>
        <time>2021-04-04T07:24:15Z</time>
      </trkpt>
      <trkpt lat="40.3002470" lon="-3.6229720">
        <ele>555.0</ele>
        <time>2021-04-04T07:24:16Z</time>
      </trkpt>
      <trkpt lat="40.3002050" lon="-3.6229310">
        <ele>555.0</ele>
        <time>2021-04-04T07:24:17Z</time>
      </trkpt>
      <trkpt lat="40.3001630" lon="-3.6228910">
        <ele>555.0</ele>
        <time>2021-04-04T07:24:18Z</time>
      </trkpt>
      <trkpt lat="40.3001210" lon="-3.6228510">
        <ele>555.0</ele>
        <time>2021-04-04T07:24:19Z</time>
      </trkpt>
      <trkpt lat="40.3000790" lon="-3.6228100">
        <ele>555.0</ele>
        <time>2021-04-04T07:24:20Z</time>
      </trkpt>
      <trkpt lat="40.3000370" lon="-3.6227670">
        <ele>555.0</ele>
        <time>2021-04-04T07:24:21Z</time>
      </trkpt>
      <trkpt lat="40.2999950" lon="-3.6227220">
        <ele>554.8</ele>
        <time>2021-04-04T07:24:22Z</time>
      </trkpt>
      <trkpt lat="40.2999530" lon="-3.6226800">
        <ele>554.8</ele>
        <time>2021-04-04T07:24:23Z</time>
      </trkpt>
      <trkpt lat="40.2999110" lon="-3.6226390">
        <ele>555.0</ele>
        <time>2021-04-04T07:24:24Z</time>
      </trkpt>
      <trkpt lat="40.2998620" lon="-3.6225950">
        <ele>554.8</ele>
        <time>2021-04-04T07:24:25Z</time>
      </trkpt>
      <trkpt lat="40.2998200" lon="-3.6225520">
        <ele>554.8</ele>
        <time>2021-04-04T07:24:26Z</time>
      </trkpt>
      <trkpt lat="40.2997740" lon="-3.6225080">
        <ele>554.8</ele>
        <time>2021-04-04T07:24:27Z</time>
      </trkpt>
      <trkpt lat="40.2997320" lon="-3.6224650">
        <ele>554.8</ele>
        <time>2021-04-04T07:24:28Z</time>
      </trkpt>
      <trkpt lat="40.2996900" lon="-3.6224220">
        <ele>554.6</ele>
        <time>2021-04-04T07:24:29Z</time>
      </trkpt>
      <trkpt lat="40.2996480" lon="-3.6223780">
        <ele>554.6</ele>
        <time>2021-04-04T07:24:30Z</time>
      </trkpt>
      <trkpt lat="40.2996030" lon="-3.6223320">
        <ele>554.6</ele>
        <time>2021-04-04T07:24:31Z</time>
      </trkpt>
      <trkpt lat="40.2995610" lon="-3.6222900">
        <ele>554.6</ele>
        <time>2021-04-04T07:24:32Z</time>
      </trkpt>
      <trkpt lat="40.2995190" lon="-3.6222490">
        <ele>554.6</ele>
        <time>2021-04-04T07:24:33Z</time>
      </trkpt>
      <trkpt lat="40.2994770" lon="-3.6222050">
        <ele>554.6</ele>
        <time>2021-04-04T07:24:34Z</time>
      </trkpt>
      <trkpt lat="40.2994390" lon="-3.6221590">
        <ele>554.6</ele>
        <time>2021-04-04T07:24:35Z</time>
      </trkpt>
      <trkpt lat="40.2993970" lon="-3.6221160">
        <ele>554.6</ele>
        <time>2021-04-04T07:24:36Z</time>
      </trkpt>
      <trkpt lat="40.2993580" lon="-3.6220750">
        <ele>554.6</ele>
        <time>2021-04-04T07:24:37Z</time>
      </trkpt>
      <trkpt lat="40.2993160" lon="-3.6220350">
        <ele>554.6</ele>
        <time>2021-04-04T07:24:38Z</time>
      </trkpt>
      <trkpt lat="40.2992740" lon="-3.6219950">
        <ele>554.6</ele>
        <time>2021-04-04T07:24:39Z</time>
      </trkpt>
      <trkpt lat="40.2992360" lon="-3.6219530">
        <ele>554.6</ele>
        <time>2021-04-04T07:24:40Z</time>
      </trkpt>
      <trkpt lat="40.2991940" lon="-3.6219090">
        <ele>554.8</ele>
        <time>2021-04-04T07:24:41Z</time>
      </trkpt>
      <trkpt lat="40.2991560" lon="-3.6218670">
        <ele>554.8</ele>
        <time>2021-04-04T07:24:42Z</time>
      </trkpt>
      <trkpt lat="40.2991140" lon="-3.6218280">
        <ele>554.8</ele>
        <time>2021-04-04T07:24:43Z</time>
      </trkpt>
      <trkpt lat="40.2990760" lon="-3.6217880">
        <ele>554.8</ele>
        <time>2021-04-04T07:24:44Z</time>
      </trkpt>
      <trkpt lat="40.2990380" lon="-3.6217470">
        <ele>555.0</ele>
        <time>2021-04-04T07:24:45Z</time>
      </trkpt>
      <trkpt lat="40.2990000" lon="-3.6217080">
        <ele>555.0</ele>
        <time>2021-04-04T07:24:46Z</time>
      </trkpt>
      <trkpt lat="40.2989580" lon="-3.6216700">
        <ele>555.0</ele>
        <time>2021-04-04T07:24:47Z</time>
      </trkpt>
      <trkpt lat="40.2989200" lon="-3.6216290">
        <ele>555.0</ele>
        <time>2021-04-04T07:24:48Z</time>
      </trkpt>
      <trkpt lat="40.2988820" lon="-3.6215890">
        <ele>555.0</ele>
        <time>2021-04-04T07:24:49Z</time>
      </trkpt>
      <trkpt lat="40.2988430" lon="-3.6215530">
        <ele>555.2</ele>
        <time>2021-04-04T07:24:50Z</time>
      </trkpt>
      <trkpt lat="40.2988050" lon="-3.6215150">
        <ele>555.2</ele>
        <time>2021-04-04T07:24:51Z</time>
      </trkpt>
      <trkpt lat="40.2987670" lon="-3.6214750">
        <ele>555.2</ele>
        <time>2021-04-04T07:24:52Z</time>
      </trkpt>
      <trkpt lat="40.2987330" lon="-3.6214370">
        <ele>555.4</ele>
        <time>2021-04-04T07:24:53Z</time>
      </trkpt>
      <trkpt lat="40.2986950" lon="-3.6213990">
        <ele>555.6</ele>
        <time>2021-04-04T07:24:54Z</time>
      </trkpt>
      <trkpt lat="40.2986560" lon="-3.6213610">
        <ele>555.6</ele>
        <time>2021-04-04T07:24:55Z</time>
      </trkpt>
      <trkpt lat="40.2986220" lon="-3.6213220">
        <ele>555.8</ele>
        <time>2021-04-04T07:24:56Z</time>
      </trkpt>
      <trkpt lat="40.2985840" lon="-3.6212830">
        <ele>555.8</ele>
        <time>2021-04-04T07:24:57Z</time>
      </trkpt>
      <trkpt lat="40.2985460" lon="-3.6212490">
        <ele>555.8</ele>
        <time>2021-04-04T07:24:58Z</time>
      </trkpt>
      <trkpt lat="40.2985080" lon="-3.6212140">
        <ele>555.8</ele>
        <time>2021-04-04T07:24:59Z</time>
      </trkpt>
      <trkpt lat="40.2984700" lon="-3.6211780">
        <ele>555.8</ele>
        <time>2021-04-04T07:25:00Z</time>
      </trkpt>
      <trkpt lat="40.2984310" lon="-3.6211410">
        <ele>555.8</ele>
        <time>2021-04-04T07:25:01Z</time>
      </trkpt>
      <trkpt lat="40.2983970" lon="-3.6211020">
        <ele>555.8</ele>
        <time>2021-04-04T07:25:02Z</time>
      </trkpt>
      <trkpt lat="40.2983590" lon="-3.6210640">
        <ele>555.8</ele>
        <time>2021-04-04T07:25:03Z</time>
      </trkpt>
      <trkpt lat="40.2983250" lon="-3.6210280">
        <ele>555.8</ele>
        <time>2021-04-04T07:25:04Z</time>
      </trkpt>
      <trkpt lat="40.2982860" lon="-3.6209910">
        <ele>555.8</ele>
        <time>2021-04-04T07:25:05Z</time>
      </trkpt>
      <trkpt lat="40.2982560" lon="-3.6209540">
        <ele>555.8</ele>
        <time>2021-04-04T07:25:06Z</time>
      </trkpt>
      <trkpt lat="40.2982180" lon="-3.6209180">
        <ele>556.0</ele>
        <time>2021-04-04T07:25:07Z</time>
      </trkpt>
      <trkpt lat="40.2981830" lon="-3.6208830">
        <ele>556.0</ele>
        <time>2021-04-04T07:25:08Z</time>
      </trkpt>
      <trkpt lat="40.2981490" lon="-3.6208480">
        <ele>556.0</ele>
        <time>2021-04-04T07:25:09Z</time>
      </trkpt>
      <trkpt lat="40.2981110" lon="-3.6208130">
        <ele>556.0</ele>
        <time>2021-04-04T07:25:10Z</time>
      </trkpt>
      <trkpt lat="40.2980770" lon="-3.6207760">
        <ele>556.2</ele>
        <time>2021-04-04T07:25:11Z</time>
      </trkpt>
      <trkpt lat="40.2980380" lon="-3.6207390">
        <ele>556.2</ele>
        <time>2021-04-04T07:25:12Z</time>
      </trkpt>
      <trkpt lat="40.2980040" lon="-3.6207010">
        <ele>556.2</ele>
        <time>2021-04-04T07:25:13Z</time>
      </trkpt>
      <trkpt lat="40.2979660" lon="-3.6206630">
        <ele>556.2</ele>
        <time>2021-04-04T07:25:14Z</time>
      </trkpt>
      <trkpt lat="40.2979280" lon="-3.6206260">
        <ele>556.2</ele>
        <time>2021-04-04T07:25:15Z</time>
      </trkpt>
      <trkpt lat="40.2978970" lon="-3.6205920">
        <ele>556.2</ele>
        <time>2021-04-04T07:25:16Z</time>
      </trkpt>
      <trkpt lat="40.2978590" lon="-3.6205570">
        <ele>556.2</ele>
        <time>2021-04-04T07:25:17Z</time>
      </trkpt>
      <trkpt lat="40.2978210" lon="-3.6205210">
        <ele>556.4</ele>
        <time>2021-04-04T07:25:18Z</time>
      </trkpt>
      <trkpt lat="40.2977870" lon="-3.6204850">
        <ele>556.4</ele>
        <time>2021-04-04T07:25:19Z</time>
      </trkpt>
      <trkpt lat="40.2977490" lon="-3.6204510">
        <ele>556.4</ele>
        <time>2021-04-04T07:25:20Z</time>
      </trkpt>
      <trkpt lat="40.2977100" lon="-3.6204180">
        <ele>556.4</ele>
        <time>2021-04-04T07:25:21Z</time>
      </trkpt>
      <trkpt lat="40.2976720" lon="-3.6203840">
        <ele>556.4</ele>
        <time>2021-04-04T07:25:22Z</time>
      </trkpt>
      <trkpt lat="40.2976380" lon="-3.6203520">
        <ele>556.4</ele>
        <time>2021-04-04T07:25:23Z</time>
      </trkpt>
      <trkpt lat="40.2975960" lon="-3.6203220">
        <ele>556.6</ele>
        <time>2021-04-04T07:25:24Z</time>
      </trkpt>
      <trkpt lat="40.2975540" lon="-3.6202920">
        <ele>556.6</ele>
        <time>2021-04-04T07:25:25Z</time>
      </trkpt>
      <trkpt lat="40.2975160" lon="-3.6202630">
        <ele>556.6</ele>
        <time>2021-04-04T07:25:26Z</time>
      </trkpt>
      <trkpt lat="40.2974780" lon="-3.6202350">
        <ele>556.6</ele>
        <time>2021-04-04T07:25:27Z</time>
      </trkpt>
      <trkpt lat="40.2974400" lon="-3.6202100">
        <ele>556.6</ele>
        <time>2021-04-04T07:25:28Z</time>
      </trkpt>
      <trkpt lat="40.2973980" lon="-3.6201880">
        <ele>556.6</ele>
        <time>2021-04-04T07:25:29Z</time>
      </trkpt>
      <trkpt lat="40.2973560" lon="-3.6201640">
        <ele>556.8</ele>
        <time>2021-04-04T07:25:30Z</time>
      </trkpt>
      <trkpt lat="40.2973140" lon="-3.6201410">
        <ele>556.8</ele>
        <time>2021-04-04T07:25:31Z</time>
      </trkpt>
      <trkpt lat="40.2972720" lon="-3.6201180">
        <ele>556.8</ele>
        <time>2021-04-04T07:25:32Z</time>
      </trkpt>
      <trkpt lat="40.2972340" lon="-3.6200980">
        <ele>556.8</ele>
        <time>2021-04-04T07:25:33Z</time>
      </trkpt>
      <trkpt lat="40.2971950" lon="-3.6200800">
        <ele>556.8</ele>
        <time>2021-04-04T07:25:34Z</time>
      </trkpt>
      <trkpt lat="40.2971530" lon="-3.6200620">
        <ele>556.8</ele>
        <time>2021-04-04T07:25:35Z</time>
      </trkpt>
      <trkpt lat="40.2971150" lon="-3.6200450">
        <ele>556.8</ele>
        <time>2021-04-04T07:25:36Z</time>
      </trkpt>
      <trkpt lat="40.2970850" lon="-3.6199890">
        <ele>556.8</ele>
        <time>2021-04-04T07:25:37Z</time>
      </trkpt>
      <trkpt lat="40.2970470" lon="-3.6199610">
        <ele>556.8</ele>
        <time>2021-04-04T07:25:38Z</time>
      </trkpt>
      <trkpt lat="40.2970090" lon="-3.6199400">
        <ele>556.6</ele>
        <time>2021-04-04T07:25:39Z</time>
      </trkpt>
      <trkpt lat="40.2969670" lon="-3.6199240">
        <ele>556.6</ele>
        <time>2021-04-04T07:25:40Z</time>
      </trkpt>
      <trkpt lat="40.2969250" lon="-3.6199100">
        <ele>556.4</ele>
        <time>2021-04-04T07:25:41Z</time>
      </trkpt>
      <trkpt lat="40.2968750" lon="-3.6198980">
        <ele>556.4</ele>
        <time>2021-04-04T07:25:42Z</time>
      </trkpt>
      <trkpt lat="40.2968250" lon="-3.6198860">
        <ele>556.2</ele>
        <time>2021-04-04T07:25:43Z</time>
      </trkpt>
      <trkpt lat="40.2967760" lon="-3.6198720">
        <ele>556.0</ele>
        <time>2021-04-04T07:25:44Z</time>
      </trkpt>
      <trkpt lat="40.2967260" lon="-3.6198580">
        <ele>556.0</ele>
        <time>2021-04-04T07:25:45Z</time>
      </trkpt>
      <trkpt lat="40.2966770" lon="-3.6198460">
        <ele>555.8</ele>
        <time>2021-04-04T07:25:46Z</time>
      </trkpt>
      <trkpt lat="40.2966270" lon="-3.6198380">
        <ele>555.6</ele>
        <time>2021-04-04T07:25:47Z</time>
      </trkpt>
      <trkpt lat="40.2965740" lon="-3.6198340">
        <ele>555.4</ele>
        <time>2021-04-04T07:25:48Z</time>
      </trkpt>
      <trkpt lat="40.2965240" lon="-3.6198310">
        <ele>555.0</ele>
        <time>2021-04-04T07:25:49Z</time>
      </trkpt>
      <trkpt lat="40.2964670" lon="-3.6198300">
        <ele>554.8</ele>
        <time>2021-04-04T07:25:50Z</time>
      </trkpt>
      <trkpt lat="40.2964130" lon="-3.6198300">
        <ele>554.4</ele>
        <time>2021-04-04T07:25:51Z</time>
      </trkpt>
      <trkpt lat="40.2963560" lon="-3.6198320">
        <ele>554.2</ele>
        <time>2021-04-04T07:25:52Z</time>
      </trkpt>
      <trkpt lat="40.2963030" lon="-3.6198400">
        <ele>554.0</ele>
        <time>2021-04-04T07:25:53Z</time>
      </trkpt>
      <trkpt lat="40.2962490" lon="-3.6198600">
        <ele>553.6</ele>
        <time>2021-04-04T07:25:54Z</time>
      </trkpt>
      <trkpt lat="40.2962000" lon="-3.6199010">
        <ele>553.4</ele>
        <time>2021-04-04T07:25:55Z</time>
      </trkpt>
      <trkpt lat="40.2961580" lon="-3.6199590">
        <ele>553.2</ele>
        <time>2021-04-04T07:25:56Z</time>
      </trkpt>
      <trkpt lat="40.2961230" lon="-3.6200260">
        <ele>553.0</ele>
        <time>2021-04-04T07:25:57Z</time>
      </trkpt>
      <trkpt lat="40.2960890" lon="-3.6200950">
        <ele>552.8</ele>
        <time>2021-04-04T07:25:58Z</time>
      </trkpt>
      <trkpt lat="40.2960510" lon="-3.6201610">
        <ele>552.4</ele>
        <time>2021-04-04T07:25:59Z</time>
      </trkpt>
      <trkpt lat="40.2960050" lon="-3.6202200">
        <ele>552.2</ele>
        <time>2021-04-04T07:26:00Z</time>
      </trkpt>
      <trkpt lat="40.2959590" lon="-3.6202710">
        <ele>552.0</ele>
        <time>2021-04-04T07:26:01Z</time>
      </trkpt>
      <trkpt lat="40.2959100" lon="-3.6203140">
        <ele>551.8</ele>
        <time>2021-04-04T07:26:02Z</time>
      </trkpt>
      <trkpt lat="40.2958600" lon="-3.6203430">
        <ele>551.6</ele>
        <time>2021-04-04T07:26:03Z</time>
      </trkpt>
      <trkpt lat="40.2958110" lon="-3.6203620">
        <ele>551.4</ele>
        <time>2021-04-04T07:26:04Z</time>
      </trkpt>
      <trkpt lat="40.2957610" lon="-3.6203770">
        <ele>551.2</ele>
        <time>2021-04-04T07:26:05Z</time>
      </trkpt>
      <trkpt lat="40.2957150" lon="-3.6203830">
        <ele>551.0</ele>
        <time>2021-04-04T07:26:06Z</time>
      </trkpt>
      <trkpt lat="40.2956700" lon="-3.6203840">
        <ele>550.8</ele>
        <time>2021-04-04T07:26:07Z</time>
      </trkpt>
      <trkpt lat="40.2956240" lon="-3.6203790">
        <ele>550.8</ele>
        <time>2021-04-04T07:26:08Z</time>
      </trkpt>
      <trkpt lat="40.2955740" lon="-3.6203660">
        <ele>550.6</ele>
        <time>2021-04-04T07:26:09Z</time>
      </trkpt>
      <trkpt lat="40.2955280" lon="-3.6203450">
        <ele>550.4</ele>
        <time>2021-04-04T07:26:10Z</time>
      </trkpt>
      <trkpt lat="40.2954830" lon="-3.6203180">
        <ele>550.2</ele>
        <time>2021-04-04T07:26:11Z</time>
      </trkpt>
      <trkpt lat="40.2954330" lon="-3.6202820">
        <ele>550.0</ele>
        <time>2021-04-04T07:26:12Z</time>
      </trkpt>
      <trkpt lat="40.2953910" lon="-3.6202370">
        <ele>549.8</ele>
        <time>2021-04-04T07:26:13Z</time>
      </trkpt>
      <trkpt lat="40.2953490" lon="-3.6201850">
        <ele>549.4</ele>
        <time>2021-04-04T07:26:14Z</time>
      </trkpt>
      <trkpt lat="40.2953110" lon="-3.6201270">
        <ele>549.2</ele>
        <time>2021-04-04T07:26:15Z</time>
      </trkpt>
      <trkpt lat="40.2952770" lon="-3.6200650">
        <ele>549.0</ele>
        <time>2021-04-04T07:26:16Z</time>
      </trkpt>
      <trkpt lat="40.2952500" lon="-3.6199970">
        <ele>548.6</ele>
        <time>2021-04-04T07:26:17Z</time>
      </trkpt>
      <trkpt lat="40.2952270" lon="-3.6199260">
        <ele>548.4</ele>
        <time>2021-04-04T07:26:18Z</time>
      </trkpt>
      <trkpt lat="40.2952120" lon="-3.6198540">
        <ele>548.2</ele>
        <time>2021-04-04T07:26:19Z</time>
      </trkpt>
      <trkpt lat="40.2952040" lon="-3.6197810">
        <ele>548.2</ele>
        <time>2021-04-04T07:26:20Z</time>
      </trkpt>
      <trkpt lat="40.2952000" lon="-3.6197050">
        <ele>548.0</ele>
        <time>2021-04-04T07:26:21Z</time>
      </trkpt>
      <trkpt lat="40.2952080" lon="-3.6196320">
        <ele>548.0</ele>
        <time>2021-04-04T07:26:22Z</time>
      </trkpt>
      <trkpt lat="40.2952230" lon="-3.6195620">
        <ele>547.8</ele>
        <time>2021-04-04T07:26:23Z</time>
      </trkpt>
      <trkpt lat="40.2952390" lon="-3.6194970">
        <ele>547.8</ele>
        <time>2021-04-04T07:26:24Z</time>
      </trkpt>
      <trkpt lat="40.2952580" lon="-3.6194350">
        <ele>547.6</ele>
        <time>2021-04-04T07:26:25Z</time>
      </trkpt>
      <trkpt lat="40.2952840" lon="-3.6193730">
        <ele>547.6</ele>
        <time>2021-04-04T07:26:26Z</time>
      </trkpt>
      <trkpt lat="40.2953110" lon="-3.6193170">
        <ele>547.4</ele>
        <time>2021-04-04T07:26:27Z</time>
      </trkpt>
      <trkpt lat="40.2953420" lon="-3.6192620">
        <ele>547.4</ele>
        <time>2021-04-04T07:26:28Z</time>
      </trkpt>
      <trkpt lat="40.2953680" lon="-3.6192070">
        <ele>547.4</ele>
        <time>2021-04-04T07:26:29Z</time>
      </trkpt>
      <trkpt lat="40.2953950" lon="-3.6191490">
        <ele>547.2</ele>
        <time>2021-04-04T07:26:30Z</time>
      </trkpt>
      <trkpt lat="40.2954100" lon="-3.6190870">
        <ele>547.2</ele>
        <time>2021-04-04T07:26:31Z</time>
      </trkpt>
      <trkpt lat="40.2954140" lon="-3.6190240">
        <ele>547.2</ele>
        <time>2021-04-04T07:26:32Z</time>
      </trkpt>
      <trkpt lat="40.2954060" lon="-3.6189610">
        <ele>547.2</ele>
        <time>2021-04-04T07:26:33Z</time>
      </trkpt>
      <trkpt lat="40.2953910" lon="-3.6189010">
        <ele>547.0</ele>
        <time>2021-04-04T07:26:34Z</time>
      </trkpt>
      <trkpt lat="40.2953760" lon="-3.6188420">
        <ele>547.0</ele>
        <time>2021-04-04T07:26:35Z</time>
      </trkpt>
      <trkpt lat="40.2953610" lon="-3.6187840">
        <ele>547.0</ele>
        <time>2021-04-04T07:26:36Z</time>
      </trkpt>
      <trkpt lat="40.2953450" lon="-3.6187290">
        <ele>547.0</ele>
        <time>2021-04-04T07:26:37Z</time>
      </trkpt>
      <trkpt lat="40.2953260" lon="-3.6186740">
        <ele>547.0</ele>
        <time>2021-04-04T07:26:38Z</time>
      </trkpt>
      <trkpt lat="40.2953070" lon="-3.6186190">
        <ele>546.8</ele>
        <time>2021-04-04T07:26:39Z</time>
      </trkpt>
      <trkpt lat="40.2952840" lon="-3.6185670">
        <ele>546.8</ele>
        <time>2021-04-04T07:26:40Z</time>
      </trkpt>
      <trkpt lat="40.2952580" lon="-3.6185160">
        <ele>546.8</ele>
        <time>2021-04-04T07:26:41Z</time>
      </trkpt>
      <trkpt lat="40.2952270" lon="-3.6184650">
        <ele>546.8</ele>
        <time>2021-04-04T07:26:42Z</time>
      </trkpt>
      <trkpt lat="40.2952000" lon="-3.6184150">
        <ele>546.8</ele>
        <time>2021-04-04T07:26:43Z</time>
      </trkpt>
      <trkpt lat="40.2951700" lon="-3.6183670">
        <ele>546.6</ele>
        <time>2021-04-04T07:26:44Z</time>
      </trkpt>
      <trkpt lat="40.2951350" lon="-3.6183170">
        <ele>546.6</ele>
        <time>2021-04-04T07:26:45Z</time>
      </trkpt>
      <trkpt lat="40.2951010" lon="-3.6182710">
        <ele>546.6</ele>
        <time>2021-04-04T07:26:46Z</time>
      </trkpt>
      <trkpt lat="40.2950670" lon="-3.6182270">
        <ele>546.6</ele>
        <time>2021-04-04T07:26:47Z</time>
      </trkpt>
      <trkpt lat="40.2950290" lon="-3.6181860">
        <ele>546.6</ele>
        <time>2021-04-04T07:26:48Z</time>
      </trkpt>
      <trkpt lat="40.2949910" lon="-3.6181440">
        <ele>546.6</ele>
        <time>2021-04-04T07:26:49Z</time>
      </trkpt>
      <trkpt lat="40.2949520" lon="-3.6181050">
        <ele>546.6</ele>
        <time>2021-04-04T07:26:50Z</time>
      </trkpt>
      <trkpt lat="40.2949140" lon="-3.6180660">
        <ele>546.6</ele>
        <time>2021-04-04T07:26:51Z</time>
      </trkpt>
      <trkpt lat="40.2948720" lon="-3.6180270">
        <ele>546.4</ele>
        <time>2021-04-04T07:26:52Z</time>
      </trkpt>
      <trkpt lat="40.2948340" lon="-3.6179880">
        <ele>546.4</ele>
        <time>2021-04-04T07:26:53Z</time>
      </trkpt>
      <trkpt lat="40.2947920" lon="-3.6179480">
        <ele>546.4</ele>
        <time>2021-04-04T07:26:54Z</time>
      </trkpt>
      <trkpt lat="40.2947540" lon="-3.6179070">
        <ele>546.4</ele>
        <time>2021-04-04T07:26:55Z</time>
      </trkpt>
      <trkpt lat="40.2947120" lon="-3.6178670">
        <ele>546.4</ele>
        <time>2021-04-04T07:26:56Z</time>
      </trkpt>
      <trkpt lat="40.2946740" lon="-3.6178270">
        <ele>546.4</ele>
        <time>2021-04-04T07:26:57Z</time>
      </trkpt>
      <trkpt lat="40.2946360" lon="-3.6177860">
        <ele>546.4</ele>
        <time>2021-04-04T07:26:58Z</time>
      </trkpt>
      <trkpt lat="40.2945980" lon="-3.6177460">
        <ele>546.4</ele>
        <time>2021-04-04T07:26:59Z</time>
      </trkpt>
      <trkpt lat="40.2945590" lon="-3.6177070">
        <ele>546.4</ele>
        <time>2021-04-04T07:27:00Z</time>
      </trkpt>
      <trkpt lat="40.2945210" lon="-3.6176690">
        <ele>546.4</ele>
        <time>2021-04-04T07:27:01Z</time>
      </trkpt>
      <trkpt lat="40.2944790" lon="-3.6176320">
        <ele>546.4</ele>
        <time>2021-04-04T07:27:02Z</time>
      </trkpt>
      <trkpt lat="40.2944370" lon="-3.6175990">
        <ele>546.4</ele>
        <time>2021-04-04T07:27:03Z</time>
      </trkpt>
      <trkpt lat="40.2943920" lon="-3.6175700">
        <ele>546.4</ele>
        <time>2021-04-04T07:27:04Z</time>
      </trkpt>
      <trkpt lat="40.2943500" lon="-3.6175470">
        <ele>546.4</ele>
        <time>2021-04-04T07:27:05Z</time>
      </trkpt>
      <trkpt lat="40.2943040" lon="-3.6175250">
        <ele>546.4</ele>
        <time>2021-04-04T07:27:06Z</time>
      </trkpt>
      <trkpt lat="40.2942620" lon="-3.6175060">
        <ele>546.4</ele>
        <time>2021-04-04T07:27:07Z</time>
      </trkpt>
      <trkpt lat="40.2942160" lon="-3.6174900">
        <ele>546.4</ele>
        <time>2021-04-04T07:27:08Z</time>
      </trkpt>
      <trkpt lat="40.2941700" lon="-3.6174760">
        <ele>546.6</ele>
        <time>2021-04-04T07:27:09Z</time>
      </trkpt>
      <trkpt lat="40.2941250" lon="-3.6174610">
        <ele>546.4</ele>
        <time>2021-04-04T07:27:10Z</time>
      </trkpt>
      <trkpt lat="40.2940790" lon="-3.6174460">
        <ele>546.4</ele>
        <time>2021-04-04T07:27:11Z</time>
      </trkpt>
      <trkpt lat="40.2940370" lon="-3.6174320">
        <ele>546.6</ele>
        <time>2021-04-04T07:27:12Z</time>
      </trkpt>
      <trkpt lat="40.2939870" lon="-3.6174190">
        <ele>546.6</ele>
        <time>2021-04-04T07:27:13Z</time>
      </trkpt>
      <trkpt lat="40.2939410" lon="-3.6174040">
        <ele>546.6</ele>
        <time>2021-04-04T07:27:14Z</time>
      </trkpt>
      <trkpt lat="40.2938920" lon="-3.6173890">
        <ele>546.6</ele>
        <time>2021-04-04T07:27:15Z</time>
      </trkpt>
      <trkpt lat="40.2938460" lon="-3.6173730">
        <ele>546.6</ele>
        <time>2021-04-04T07:27:16Z</time>
      </trkpt>
      <trkpt lat="40.2938040" lon="-3.6173570">
        <ele>546.6</ele>
        <time>2021-04-04T07:27:17Z</time>
      </trkpt>
      <trkpt lat="40.2937550" lon="-3.6173410">
        <ele>546.6</ele>
        <time>2021-04-04T07:27:18Z</time>
      </trkpt>
      <trkpt lat="40.2937130" lon="-3.6173260">
        <ele>546.6</ele>
        <time>2021-04-04T07:27:19Z</time>
      </trkpt>
      <trkpt lat="40.2936670" lon="-3.6173110">
        <ele>546.8</ele>
        <time>2021-04-04T07:27:20Z</time>
      </trkpt>
      <trkpt lat="40.2936170" lon="-3.6172950">
        <ele>546.8</ele>
        <time>2021-04-04T07:27:21Z</time>
      </trkpt>
      <trkpt lat="40.2935720" lon="-3.6172790">
        <ele>546.8</ele>
        <time>2021-04-04T07:27:22Z</time>
      </trkpt>
      <trkpt lat="40.2935260" lon="-3.6172630">
        <ele>546.8</ele>
        <time>2021-04-04T07:27:23Z</time>
      </trkpt>
      <trkpt lat="40.2934800" lon="-3.6172490">
        <ele>547.0</ele>
        <time>2021-04-04T07:27:24Z</time>
      </trkpt>
      <trkpt lat="40.2934340" lon="-3.6172340">
        <ele>547.0</ele>
        <time>2021-04-04T07:27:25Z</time>
      </trkpt>
      <trkpt lat="40.2933880" lon="-3.6172170">
        <ele>547.0</ele>
        <time>2021-04-04T07:27:26Z</time>
      </trkpt>
      <trkpt lat="40.2933460" lon="-3.6172000">
        <ele>547.0</ele>
        <time>2021-04-04T07:27:27Z</time>
      </trkpt>
      <trkpt lat="40.2933010" lon="-3.6171840">
        <ele>547.0</ele>
        <time>2021-04-04T07:27:28Z</time>
      </trkpt>
      <trkpt lat="40.2932510" lon="-3.6171670">
        <ele>547.0</ele>
        <time>2021-04-04T07:27:29Z</time>
      </trkpt>
      <trkpt lat="40.2932050" lon="-3.6171500">
        <ele>547.0</ele>
        <time>2021-04-04T07:27:30Z</time>
      </trkpt>
      <trkpt lat="40.2931590" lon="-3.6171340">
        <ele>547.2</ele>
        <time>2021-04-04T07:27:31Z</time>
      </trkpt>
      <trkpt lat="40.2931140" lon="-3.6171190">
        <ele>547.2</ele>
        <time>2021-04-04T07:27:32Z</time>
      </trkpt>
      <trkpt lat="40.2930680" lon="-3.6171050">
        <ele>547.2</ele>
        <time>2021-04-04T07:27:33Z</time>
      </trkpt>
      <trkpt lat="40.2930180" lon="-3.6170890">
        <ele>547.2</ele>
        <time>2021-04-04T07:27:34Z</time>
      </trkpt>
      <trkpt lat="40.2929730" lon="-3.6170740">
        <ele>547.2</ele>
        <time>2021-04-04T07:27:35Z</time>
      </trkpt>
      <trkpt lat="40.2929310" lon="-3.6170590">
        <ele>547.4</ele>
        <time>2021-04-04T07:27:36Z</time>
      </trkpt>
      <trkpt lat="40.2928850" lon="-3.6170450">
        <ele>547.4</ele>
        <time>2021-04-04T07:27:37Z</time>
      </trkpt>
      <trkpt lat="40.2928430" lon="-3.6170310">
        <ele>547.4</ele>
        <time>2021-04-04T07:27:38Z</time>
      </trkpt>
      <trkpt lat="40.2928010" lon="-3.6170160">
        <ele>547.6</ele>
        <time>2021-04-04T07:27:39Z</time>
      </trkpt>
      <trkpt lat="40.2927550" lon="-3.6170010">
        <ele>547.6</ele>
        <time>2021-04-04T07:27:40Z</time>
      </trkpt>
      <trkpt lat="40.2927130" lon="-3.6169850">
        <ele>547.6</ele>
        <time>2021-04-04T07:27:41Z</time>
      </trkpt>
      <trkpt lat="40.2926710" lon="-3.6169690">
        <ele>547.8</ele>
        <time>2021-04-04T07:27:42Z</time>
      </trkpt>
      <trkpt lat="40.2926290" lon="-3.6169550">
        <ele>547.8</ele>
        <time>2021-04-04T07:27:43Z</time>
      </trkpt>
      <trkpt lat="40.2925870" lon="-3.6169390">
        <ele>548.0</ele>
        <time>2021-04-04T07:27:44Z</time>
      </trkpt>
      <trkpt lat="40.2925450" lon="-3.6169220">
        <ele>548.0</ele>
        <time>2021-04-04T07:27:45Z</time>
      </trkpt>
      <trkpt lat="40.2925030" lon="-3.6169070">
        <ele>548.0</ele>
        <time>2021-04-04T07:27:46Z</time>
      </trkpt>
      <trkpt lat="40.2924610" lon="-3.6168930">
        <ele>548.2</ele>
        <time>2021-04-04T07:27:47Z</time>
      </trkpt>
      <trkpt lat="40.2924190" lon="-3.6168790">
        <ele>548.2</ele>
        <time>2021-04-04T07:27:48Z</time>
      </trkpt>
      <trkpt lat="40.2923780" lon="-3.6168650">
        <ele>548.2</ele>
        <time>2021-04-04T07:27:49Z</time>
      </trkpt>
      <trkpt lat="40.2923390" lon="-3.6168510">
        <ele>548.4</ele>
        <time>2021-04-04T07:27:50Z</time>
      </trkpt>
      <trkpt lat="40.2922970" lon="-3.6168370">
        <ele>548.4</ele>
        <time>2021-04-04T07:27:51Z</time>
      </trkpt>
      <trkpt lat="40.2922550" lon="-3.6168230">
        <ele>548.6</ele>
        <time>2021-04-04T07:27:52Z</time>
      </trkpt>
      <trkpt lat="40.2922170" lon="-3.6168100">
        <ele>548.6</ele>
        <time>2021-04-04T07:27:53Z</time>
      </trkpt>
      <trkpt lat="40.2921790" lon="-3.6167960">
        <ele>548.8</ele>
        <time>2021-04-04T07:27:54Z</time>
      </trkpt>
      <trkpt lat="40.2921370" lon="-3.6167830">
        <ele>548.8</ele>
        <time>2021-04-04T07:27:55Z</time>
      </trkpt>
      <trkpt lat="40.2920990" lon="-3.6167700">
        <ele>549.0</ele>
        <time>2021-04-04T07:27:56Z</time>
      </trkpt>
      <trkpt lat="40.2920570" lon="-3.6167570">
        <ele>549.0</ele>
        <time>2021-04-04T07:27:57Z</time>
      </trkpt>
      <trkpt lat="40.2920190" lon="-3.6167450">
        <ele>549.2</ele>
        <time>2021-04-04T07:27:58Z</time>
      </trkpt>
      <trkpt lat="40.2919810" lon="-3.6167310">
        <ele>549.2</ele>
        <time>2021-04-04T07:27:59Z</time>
      </trkpt>
      <trkpt lat="40.2919430" lon="-3.6167160">
        <ele>549.4</ele>
        <time>2021-04-04T07:28:00Z</time>
      </trkpt>
      <trkpt lat="40.2919040" lon="-3.6167010">
        <ele>549.4</ele>
        <time>2021-04-04T07:28:01Z</time>
      </trkpt>
      <trkpt lat="40.2918660" lon="-3.6166890">
        <ele>549.6</ele>
        <time>2021-04-04T07:28:02Z</time>
      </trkpt>
      <trkpt lat="40.2918280" lon="-3.6166760">
        <ele>549.6</ele>
        <time>2021-04-04T07:28:03Z</time>
      </trkpt>
      <trkpt lat="40.2917900" lon="-3.6166640">
        <ele>549.8</ele>
        <time>2021-04-04T07:28:04Z</time>
      </trkpt>
      <trkpt lat="40.2917560" lon="-3.6166530">
        <ele>549.8</ele>
        <time>2021-04-04T07:28:05Z</time>
      </trkpt>
      <trkpt lat="40.2917180" lon="-3.6166400">
        <ele>550.0</ele>
        <time>2021-04-04T07:28:06Z</time>
      </trkpt>
      <trkpt lat="40.2916790" lon="-3.6166270">
        <ele>550.0</ele>
        <time>2021-04-04T07:28:07Z</time>
      </trkpt>
      <trkpt lat="40.2916410" lon="-3.6166160">
        <ele>550.2</ele>
        <time>2021-04-04T07:28:08Z</time>
      </trkpt>
      <trkpt lat="40.2916070" lon="-3.6166060">
        <ele>550.2</ele>
        <time>2021-04-04T07:28:09Z</time>
      </trkpt>
      <trkpt lat="40.2915730" lon="-3.6165940">
        <ele>550.4</ele>
        <time>2021-04-04T07:28:10Z</time>
      </trkpt>
      <trkpt lat="40.2915340" lon="-3.6165830">
        <ele>550.4</ele>
        <time>2021-04-04T07:28:11Z</time>
      </trkpt>
      <trkpt lat="40.2914960" lon="-3.6165730">
        <ele>550.4</ele>
        <time>2021-04-04T07:28:12Z</time>
      </trkpt>
      <trkpt lat="40.2914620" lon="-3.6165620">
        <ele>550.6</ele>
        <time>2021-04-04T07:28:13Z</time>
      </trkpt>
      <trkpt lat="40.2914240" lon="-3.6165500">
        <ele>550.6</ele>
        <time>2021-04-04T07:28:14Z</time>
      </trkpt>
      <trkpt lat="40.2913860" lon="-3.6165360">
        <ele>550.8</ele>
        <time>2021-04-04T07:28:15Z</time>
      </trkpt>
      <trkpt lat="40.2913510" lon="-3.6165240">
        <ele>550.8</ele>
        <time>2021-04-04T07:28:16Z</time>
      </trkpt>
      <trkpt lat="40.2913170" lon="-3.6165130">
        <ele>551.0</ele>
        <time>2021-04-04T07:28:17Z</time>
      </trkpt>
      <trkpt lat="40.2912830" lon="-3.6165040">
        <ele>551.2</ele>
        <time>2021-04-04T07:28:18Z</time>
      </trkpt>
      <trkpt lat="40.2912520" lon="-3.6164910">
        <ele>551.2</ele>
        <time>2021-04-04T07:28:19Z</time>
      </trkpt>
      <trkpt lat="40.2912180" lon="-3.6164770">
        <ele>551.2</ele>
        <time>2021-04-04T07:28:20Z</time>
      </trkpt>
      <trkpt lat="40.2911840" lon="-3.6164650">
        <ele>551.4</ele>
        <time>2021-04-04T07:28:21Z</time>
      </trkpt>
      <trkpt lat="40.2911530" lon="-3.6164510">
        <ele>551.4</ele>
        <time>2021-04-04T07:28:22Z</time>
      </trkpt>
      <trkpt lat="40.2911150" lon="-3.6164380">
        <ele>551.6</ele>
        <time>2021-04-04T07:28:23Z</time>
      </trkpt>
      <trkpt lat="40.2910800" lon="-3.6164330">
        <ele>551.6</ele>
        <time>2021-04-04T07:28:24Z</time>
      </trkpt>
      <trkpt lat="40.2910420" lon="-3.6164360">
        <ele>551.8</ele>
        <time>2021-04-04T07:28:25Z</time>
      </trkpt>
      <trkpt lat="40.2910040" lon="-3.6164440">
        <ele>551.8</ele>
        <time>2021-04-04T07:28:26Z</time>
      </trkpt>
      <trkpt lat="40.2909700" lon="-3.6164550">
        <ele>551.8</ele>
        <time>2021-04-04T07:28:27Z</time>
      </trkpt>
      <trkpt lat="40.2909320" lon="-3.6164660">
        <ele>551.8</ele>
        <time>2021-04-04T07:28:28Z</time>
      </trkpt>
      <trkpt lat="40.2908940" lon="-3.6164710">
        <ele>552.0</ele>
        <time>2021-04-04T07:28:29Z</time>
      </trkpt>
      <trkpt lat="40.2908520" lon="-3.6164740">
        <ele>552.0</ele>
        <time>2021-04-04T07:28:30Z</time>
      </trkpt>
      <trkpt lat="40.2908170" lon="-3.6164750">
        <ele>552.0</ele>
        <time>2021-04-04T07:28:31Z</time>
      </trkpt>
      <trkpt lat="40.2907790" lon="-3.6164760">
        <ele>552.2</ele>
        <time>2021-04-04T07:28:32Z</time>
      </trkpt>
      <trkpt lat="40.2907410" lon="-3.6164770">
        <ele>552.2</ele>
        <time>2021-04-04T07:28:33Z</time>
      </trkpt>
      <trkpt lat="40.2907030" lon="-3.6164760">
        <ele>552.2</ele>
        <time>2021-04-04T07:28:34Z</time>
      </trkpt>
      <trkpt lat="40.2906650" lon="-3.6164740">
        <ele>552.4</ele>
        <time>2021-04-04T07:28:35Z</time>
      </trkpt>
      <trkpt lat="40.2906300" lon="-3.6164720">
        <ele>552.4</ele>
        <time>2021-04-04T07:28:36Z</time>
      </trkpt>
      <trkpt lat="40.2905960" lon="-3.6164680">
        <ele>552.6</ele>
        <time>2021-04-04T07:28:37Z</time>
      </trkpt>
      <trkpt lat="40.2905620" lon="-3.6164620">
        <ele>552.6</ele>
        <time>2021-04-04T07:28:38Z</time>
      </trkpt>
      <trkpt lat="40.2905270" lon="-3.6164550">
        <ele>552.8</ele>
        <time>2021-04-04T07:28:39Z</time>
      </trkpt>
      <trkpt lat="40.2904970" lon="-3.6164460">
        <ele>553.0</ele>
        <time>2021-04-04T07:28:40Z</time>
      </trkpt>
      <trkpt lat="40.2904660" lon="-3.6164390">
        <ele>553.2</ele>
        <time>2021-04-04T07:28:41Z</time>
      </trkpt>
      <trkpt lat="40.2904280" lon="-3.6164400">
        <ele>553.2</ele>
        <time>2021-04-04T07:28:42Z</time>
      </trkpt>
      <trkpt lat="40.2903940" lon="-3.6164420">
        <ele>553.2</ele>
        <time>2021-04-04T07:28:43Z</time>
      </trkpt>
      <trkpt lat="40.2903590" lon="-3.6164380">
        <ele>553.4</ele>
        <time>2021-04-04T07:28:44Z</time>
      </trkpt>
      <trkpt lat="40.2903250" lon="-3.6164280">
        <ele>553.4</ele>
        <time>2021-04-04T07:28:45Z</time>
      </trkpt>
      <trkpt lat="40.2902910" lon="-3.6164150">
        <ele>553.4</ele>
        <time>2021-04-04T07:28:46Z</time>
      </trkpt>
      <trkpt lat="40.2902560" lon="-3.6164000">
        <ele>553.6</ele>
        <time>2021-04-04T07:28:47Z</time>
      </trkpt>
      <trkpt lat="40.2902260" lon="-3.6163870">
        <ele>553.6</ele>
        <time>2021-04-04T07:28:48Z</time>
      </trkpt>
      <trkpt lat="40.2901920" lon="-3.6163730">
        <ele>553.8</ele>
        <time>2021-04-04T07:28:49Z</time>
      </trkpt>
      <trkpt lat="40.2901650" lon="-3.6163610">
        <ele>553.8</ele>
        <time>2021-04-04T07:28:50Z</time>
      </trkpt>
      <trkpt lat="40.2901310" lon="-3.6163500">
        <ele>554.0</ele>
        <time>2021-04-04T07:28:51Z</time>
      </trkpt>
      <trkpt lat="40.2900960" lon="-3.6163380">
        <ele>554.0</ele>
        <time>2021-04-04T07:28:52Z</time>
      </trkpt>
      <trkpt lat="40.2900620" lon="-3.6163220">
        <ele>554.2</ele>
        <time>2021-04-04T07:28:53Z</time>
      </trkpt>
      <trkpt lat="40.2900310" lon="-3.6163050">
        <ele>554.2</ele>
        <time>2021-04-04T07:28:54Z</time>
      </trkpt>
      <trkpt lat="40.2899970" lon="-3.6162880">
        <ele>554.2</ele>
        <time>2021-04-04T07:28:55Z</time>
      </trkpt>
      <trkpt lat="40.2899630" lon="-3.6162750">
        <ele>554.4</ele>
        <time>2021-04-04T07:28:56Z</time>
      </trkpt>
      <trkpt lat="40.2899280" lon="-3.6162630">
        <ele>554.6</ele>
        <time>2021-04-04T07:28:57Z</time>
      </trkpt>
      <trkpt lat="40.2898980" lon="-3.6162510">
        <ele>554.6</ele>
        <time>2021-04-04T07:28:58Z</time>
      </trkpt>
      <trkpt lat="40.2898670" lon="-3.6162420">
        <ele>554.8</ele>
        <time>2021-04-04T07:28:59Z</time>
      </trkpt>
      <trkpt lat="40.2898370" lon="-3.6162360">
        <ele>555.0</ele>
        <time>2021-04-04T07:29:00Z</time>
      </trkpt>
      <trkpt lat="40.2898060" lon="-3.6162310">
        <ele>555.2</ele>
        <time>2021-04-04T07:29:01Z</time>
      </trkpt>
      <trkpt lat="40.2897760" lon="-3.6162220">
        <ele>555.2</ele>
        <time>2021-04-04T07:29:02Z</time>
      </trkpt>
      <trkpt lat="40.2897450" lon="-3.6162070">
        <ele>555.4</ele>
        <time>2021-04-04T07:29:03Z</time>
      </trkpt>
      <trkpt lat="40.2897190" lon="-3.6161890">
        <ele>555.4</ele>
        <time>2021-04-04T07:29:04Z</time>
      </trkpt>
      <trkpt lat="40.2896920" lon="-3.6161670">
        <ele>555.4</ele>
        <time>2021-04-04T07:29:05Z</time>
      </trkpt>
      <trkpt lat="40.2896650" lon="-3.6161410">
        <ele>555.6</ele>
        <time>2021-04-04T07:29:06Z</time>
      </trkpt>
      <trkpt lat="40.2896390" lon="-3.6161140">
        <ele>555.6</ele>
        <time>2021-04-04T07:29:07Z</time>
      </trkpt>
      <trkpt lat="40.2896120" lon="-3.6160890">
        <ele>555.8</ele>
        <time>2021-04-04T07:29:08Z</time>
      </trkpt>
      <trkpt lat="40.2895850" lon="-3.6160710">
        <ele>555.8</ele>
        <time>2021-04-04T07:29:09Z</time>
      </trkpt>
      <trkpt lat="40.2895580" lon="-3.6160570">
        <ele>556.0</ele>
        <time>2021-04-04T07:29:10Z</time>
      </trkpt>
      <trkpt lat="40.2895280" lon="-3.6160450">
        <ele>556.0</ele>
        <time>2021-04-04T07:29:11Z</time>
      </trkpt>
      <trkpt lat="40.2894970" lon="-3.6160310">
        <ele>556.2</ele>
        <time>2021-04-04T07:29:12Z</time>
      </trkpt>
      <trkpt lat="40.2894710" lon="-3.6160190">
        <ele>556.4</ele>
        <time>2021-04-04T07:29:13Z</time>
      </trkpt>
      <trkpt lat="40.2894480" lon="-3.6160090">
        <ele>556.6</ele>
        <time>2021-04-04T07:29:14Z</time>
      </trkpt>
      <trkpt lat="40.2894170" lon="-3.6160000">
        <ele>556.8</ele>
        <time>2021-04-04T07:29:15Z</time>
      </trkpt>
      <trkpt lat="40.2893870" lon="-3.6159920">
        <ele>557.0</ele>
        <time>2021-04-04T07:29:16Z</time>
      </trkpt>
      <trkpt lat="40.2893640" lon="-3.6159840">
        <ele>557.2</ele>
        <time>2021-04-04T07:29:17Z</time>
      </trkpt>
      <trkpt lat="40.2893370" lon="-3.6159790">
        <ele>557.4</ele>
        <time>2021-04-04T07:29:18Z</time>
      </trkpt>
      <trkpt lat="40.2893100" lon="-3.6159770">
        <ele>557.6</ele>
        <time>2021-04-04T07:29:19Z</time>
      </trkpt>
      <trkpt lat="40.2892840" lon="-3.6159780">
        <ele>558.0</ele>
        <time>2021-04-04T07:29:20Z</time>
      </trkpt>
      <trkpt lat="40.2892570" lon="-3.6159820">
        <ele>558.2</ele>
        <time>2021-04-04T07:29:21Z</time>
      </trkpt>
      <trkpt lat="40.2892300" lon="-3.6159860">
        <ele>558.6</ele>
        <time>2021-04-04T07:29:22Z</time>
      </trkpt>
      <trkpt lat="40.2892040" lon="-3.6159880">
        <ele>558.8</ele>
        <time>2021-04-04T07:29:23Z</time>
      </trkpt>
      <trkpt lat="40.2891810" lon="-3.6159910">
        <ele>559.2</ele>
        <time>2021-04-04T07:29:24Z</time>
      </trkpt>
      <trkpt lat="40.2891540" lon="-3.6159940">
        <ele>559.6</ele>
        <time>2021-04-04T07:29:25Z</time>
      </trkpt>
      <trkpt lat="40.2891270" lon="-3.6159960">
        <ele>559.8</ele>
        <time>2021-04-04T07:29:26Z</time>
      </trkpt>
      <trkpt lat="40.2890970" lon="-3.6159990">
        <ele>560.2</ele>
        <time>2021-04-04T07:29:27Z</time>
      </trkpt>
      <trkpt lat="40.2890700" lon="-3.6160030">
        <ele>560.4</ele>
        <time>2021-04-04T07:29:28Z</time>
      </trkpt>
      <trkpt lat="40.2890430" lon="-3.6160090">
        <ele>560.8</ele>
        <time>2021-04-04T07:29:29Z</time>
      </trkpt>
      <trkpt lat="40.2890130" lon="-3.6160160">
        <ele>561.2</ele>
        <time>2021-04-04T07:29:30Z</time>
      </trkpt>
      <trkpt lat="40.2889860" lon="-3.6160210">
        <ele>561.4</ele>
        <time>2021-04-04T07:29:31Z</time>
      </trkpt>
      <trkpt lat="40.2889630" lon="-3.6160250">
        <ele>561.8</ele>
        <time>2021-04-04T07:29:32Z</time>
      </trkpt>
      <trkpt lat="40.2889400" lon="-3.6160270">
        <ele>562.2</ele>
        <time>2021-04-04T07:29:33Z</time>
      </trkpt>
      <trkpt lat="40.2889180" lon="-3.6160260">
        <ele>562.4</ele>
        <time>2021-04-04T07:29:34Z</time>
      </trkpt>
      <trkpt lat="40.2888980" lon="-3.6160240">
        <ele>562.8</ele>
        <time>2021-04-04T07:29:35Z</time>
      </trkpt>
      <trkpt lat="40.2888760" lon="-3.6160240">
        <ele>563.0</ele>
        <time>2021-04-04T07:29:36Z</time>
      </trkpt>
      <trkpt lat="40.2888530" lon="-3.6160260">
        <ele>563.2</ele>
        <time>2021-04-04T07:29:37Z</time>
      </trkpt>
      <trkpt lat="40.2888300" lon="-3.6160290">
        <ele>563.4</ele>
        <time>2021-04-04T07:29:38Z</time>
      </trkpt>
      <trkpt lat="40.2888030" lon="-3.6160310">
        <ele>563.8</ele>
        <time>2021-04-04T07:29:39Z</time>
      </trkpt>
      <trkpt lat="40.2887800" lon="-3.6160330">
        <ele>564.0</ele>
        <time>2021-04-04T07:29:40Z</time>
      </trkpt>
      <trkpt lat="40.2887570" lon="-3.6160380">
        <ele>564.0</ele>
        <time>2021-04-04T07:29:41Z</time>
      </trkpt>
      <trkpt lat="40.2887340" lon="-3.6160440">
        <ele>564.2</ele>
        <time>2021-04-04T07:29:42Z</time>
      </trkpt>
      <trkpt lat="40.2887120" lon="-3.6160510">
        <ele>564.4</ele>
        <time>2021-04-04T07:29:43Z</time>
      </trkpt>
      <trkpt lat="40.2886890" lon="-3.6160550">
        <ele>564.6</ele>
        <time>2021-04-04T07:29:44Z</time>
      </trkpt>
      <trkpt lat="40.2886620" lon="-3.6160560">
        <ele>564.6</ele>
        <time>2021-04-04T07:29:45Z</time>
      </trkpt>
      <trkpt lat="40.2886390" lon="-3.6160570">
        <ele>564.8</ele>
        <time>2021-04-04T07:29:46Z</time>
      </trkpt>
      <trkpt lat="40.2886160" lon="-3.6160600">
        <ele>565.0</ele>
        <time>2021-04-04T07:29:47Z</time>
      </trkpt>
      <trkpt lat="40.2885930" lon="-3.6160650">
        <ele>565.0</ele>
        <time>2021-04-04T07:29:48Z</time>
      </trkpt>
      <trkpt lat="40.2885700" lon="-3.6160670">
        <ele>565.0</ele>
        <time>2021-04-04T07:29:49Z</time>
      </trkpt>
      <trkpt lat="40.2885470" lon="-3.6160700">
        <ele>565.2</ele>
        <time>2021-04-04T07:29:50Z</time>
      </trkpt>
      <trkpt lat="40.2885170" lon="-3.6160730">
        <ele>565.2</ele>
        <time>2021-04-04T07:29:51Z</time>
      </trkpt>
      <trkpt lat="40.2884900" lon="-3.6160760">
        <ele>565.2</ele>
        <time>2021-04-04T07:29:52Z</time>
      </trkpt>
      <trkpt lat="40.2884670" lon="-3.6160770">
        <ele>565.4</ele>
        <time>2021-04-04T07:29:53Z</time>
      </trkpt>
      <trkpt lat="40.2884410" lon="-3.6160790">
        <ele>565.4</ele>
        <time>2021-04-04T07:29:54Z</time>
      </trkpt>
      <trkpt lat="40.2884140" lon="-3.6160810">
        <ele>565.6</ele>
        <time>2021-04-04T07:29:55Z</time>
      </trkpt>
      <trkpt lat="40.2883870" lon="-3.6160820">
        <ele>565.6</ele>
        <time>2021-04-04T07:29:56Z</time>
      </trkpt>
      <trkpt lat="40.2883640" lon="-3.6160850">
        <ele>565.6</ele>
        <time>2021-04-04T07:29:57Z</time>
      </trkpt>
      <trkpt lat="40.2883380" lon="-3.6160910">
        <ele>565.8</ele>
        <time>2021-04-04T07:29:58Z</time>
      </trkpt>
      <trkpt lat="40.2883110" lon="-3.6160980">
        <ele>565.8</ele>
        <time>2021-04-04T07:29:59Z</time>
      </trkpt>
      <trkpt lat="40.2882840" lon="-3.6161060">
        <ele>566.0</ele>
        <time>2021-04-04T07:30:00Z</time>
      </trkpt>
      <trkpt lat="40.2882580" lon="-3.6161120">
        <ele>566.0</ele>
        <time>2021-04-04T07:30:01Z</time>
      </trkpt>
      <trkpt lat="40.2882310" lon="-3.6161190">
        <ele>566.2</ele>
        <time>2021-04-04T07:30:02Z</time>
      </trkpt>
      <trkpt lat="40.2882000" lon="-3.6161250">
        <ele>566.2</ele>
        <time>2021-04-04T07:30:03Z</time>
      </trkpt>
      <trkpt lat="40.2881740" lon="-3.6161300">
        <ele>566.2</ele>
        <time>2021-04-04T07:30:04Z</time>
      </trkpt>
      <trkpt lat="40.2881470" lon="-3.6161350">
        <ele>566.4</ele>
        <time>2021-04-04T07:30:05Z</time>
      </trkpt>
      <trkpt lat="40.2881200" lon="-3.6161390">
        <ele>566.4</ele>
        <time>2021-04-04T07:30:06Z</time>
      </trkpt>
      <trkpt lat="40.2880940" lon="-3.6161430">
        <ele>566.6</ele>
        <time>2021-04-04T07:30:07Z</time>
      </trkpt>
      <trkpt lat="40.2880670" lon="-3.6161460">
        <ele>566.6</ele>
        <time>2021-04-04T07:30:08Z</time>
      </trkpt>
      <trkpt lat="40.2880400" lon="-3.6161510">
        <ele>566.6</ele>
        <time>2021-04-04T07:30:09Z</time>
      </trkpt>
      <trkpt lat="40.2880130" lon="-3.6161600">
        <ele>566.8</ele>
        <time>2021-04-04T07:30:10Z</time>
      </trkpt>
      <trkpt lat="40.2879830" lon="-3.6161690">
        <ele>566.8</ele>
        <time>2021-04-04T07:30:11Z</time>
      </trkpt>
      <trkpt lat="40.2879560" lon="-3.6161740">
        <ele>566.8</ele>
        <time>2021-04-04T07:30:12Z</time>
      </trkpt>
      <trkpt lat="40.2879220" lon="-3.6161790">
        <ele>567.0</ele>
        <time>2021-04-04T07:30:13Z</time>
      </trkpt>
      <trkpt lat="40.2878950" lon="-3.6161870">
        <ele>567.0</ele>
        <time>2021-04-04T07:30:14Z</time>
      </trkpt>
      <trkpt lat="40.2878650" lon="-3.6161940">
        <ele>567.0</ele>
        <time>2021-04-04T07:30:15Z</time>
      </trkpt>
      <trkpt lat="40.2878340" lon="-3.6162000">
        <ele>567.2</ele>
        <time>2021-04-04T07:30:16Z</time>
      </trkpt>
      <trkpt lat="40.2878040" lon="-3.6162050">
        <ele>567.2</ele>
        <time>2021-04-04T07:30:17Z</time>
      </trkpt>
      <trkpt lat="40.2877690" lon="-3.6162110">
        <ele>567.2</ele>
        <time>2021-04-04T07:30:18Z</time>
      </trkpt>
      <trkpt lat="40.2877390" lon="-3.6162200">
        <ele>567.4</ele>
        <time>2021-04-04T07:30:19Z</time>
      </trkpt>
      <trkpt lat="40.2877120" lon="-3.6162280">
        <ele>567.4</ele>
        <time>2021-04-04T07:30:20Z</time>
      </trkpt>
      <trkpt lat="40.2876820" lon="-3.6162360">
        <ele>567.4</ele>
        <time>2021-04-04T07:30:21Z</time>
      </trkpt>
      <trkpt lat="40.2876510" lon="-3.6162450">
        <ele>567.4</ele>
        <time>2021-04-04T07:30:22Z</time>
      </trkpt>
      <trkpt lat="40.2876210" lon="-3.6162530">
        <ele>567.6</ele>
        <time>2021-04-04T07:30:23Z</time>
      </trkpt>
      <trkpt lat="40.2875900" lon="-3.6162610">
        <ele>567.6</ele>
        <time>2021-04-04T07:30:24Z</time>
      </trkpt>
      <trkpt lat="40.2875630" lon="-3.6162710">
        <ele>567.6</ele>
        <time>2021-04-04T07:30:25Z</time>
      </trkpt>
      <trkpt lat="40.2875330" lon="-3.6162840">
        <ele>567.6</ele>
        <time>2021-04-04T07:30:26Z</time>
      </trkpt>
      <trkpt lat="40.2875060" lon="-3.6162980">
        <ele>567.8</ele>
        <time>2021-04-04T07:30:27Z</time>
      </trkpt>
      <trkpt lat="40.2874790" lon="-3.6163090">
        <ele>567.8</ele>
        <time>2021-04-04T07:30:28Z</time>
      </trkpt>
      <trkpt lat="40.2874490" lon="-3.6163190">
        <ele>567.8</ele>
        <time>2021-04-04T07:30:29Z</time>
      </trkpt>
      <trkpt lat="40.2874220" lon="-3.6163290">
        <ele>568.0</ele>
        <time>2021-04-04T07:30:30Z</time>
      </trkpt>
      <trkpt lat="40.2873920" lon="-3.6163420">
        <ele>568.0</ele>
        <time>2021-04-04T07:30:31Z</time>
      </trkpt>
      <trkpt lat="40.2873650" lon="-3.6163550">
        <ele>568.0</ele>
        <time>2021-04-04T07:30:32Z</time>
      </trkpt>
      <trkpt lat="40.2873380" lon="-3.6163680">
        <ele>568.2</ele>
        <time>2021-04-04T07:30:33Z</time>
      </trkpt>
      <trkpt lat="40.2873120" lon="-3.6163790">
        <ele>568.2</ele>
        <time>2021-04-04T07:30:34Z</time>
      </trkpt>
      <trkpt lat="40.2872850" lon="-3.6163900">
        <ele>568.4</ele>
        <time>2021-04-04T07:30:35Z</time>
      </trkpt>
      <trkpt lat="40.2872540" lon="-3.6164010">
        <ele>568.4</ele>
        <time>2021-04-04T07:30:36Z</time>
      </trkpt>
      <trkpt lat="40.2872280" lon="-3.6164130">
        <ele>568.6</ele>
        <time>2021-04-04T07:30:37Z</time>
      </trkpt>
      <trkpt lat="40.2872010" lon="-3.6164240">
        <ele>568.6</ele>
        <time>2021-04-04T07:30:38Z</time>
      </trkpt>
      <trkpt lat="40.2871740" lon="-3.6164340">
        <ele>568.6</ele>
        <time>2021-04-04T07:30:39Z</time>
      </trkpt>
      <trkpt lat="40.2871440" lon="-3.6164450">
        <ele>568.8</ele>
        <time>2021-04-04T07:30:40Z</time>
      </trkpt>
      <trkpt lat="40.2871170" lon="-3.6164560">
        <ele>568.8</ele>
        <time>2021-04-04T07:30:41Z</time>
      </trkpt>
      <trkpt lat="40.2870870" lon="-3.6164680">
        <ele>569.0</ele>
        <time>2021-04-04T07:30:42Z</time>
      </trkpt>
      <trkpt lat="40.2870600" lon="-3.6164790">
        <ele>569.0</ele>
        <time>2021-04-04T07:30:43Z</time>
      </trkpt>
      <trkpt lat="40.2870290" lon="-3.6164920">
        <ele>569.0</ele>
        <time>2021-04-04T07:30:44Z</time>
      </trkpt>
      <trkpt lat="40.2869990" lon="-3.6165050">
        <ele>569.2</ele>
        <time>2021-04-04T07:30:45Z</time>
      </trkpt>
      <trkpt lat="40.2869720" lon="-3.6165180">
        <ele>569.2</ele>
        <time>2021-04-04T07:30:46Z</time>
      </trkpt>
      <trkpt lat="40.2869420" lon="-3.6165290">
        <ele>569.2</ele>
        <time>2021-04-04T07:30:47Z</time>
      </trkpt>
      <trkpt lat="40.2869110" lon="-3.6165400">
        <ele>569.2</ele>
        <time>2021-04-04T07:30:48Z</time>
      </trkpt>
      <trkpt lat="40.2868800" lon="-3.6165510">
        <ele>569.4</ele>
        <time>2021-04-04T07:30:49Z</time>
      </trkpt>
      <trkpt lat="40.2868500" lon="-3.6165620">
        <ele>569.4</ele>
        <time>2021-04-04T07:30:50Z</time>
      </trkpt>
      <trkpt lat="40.2868160" lon="-3.6165710">
        <ele>569.4</ele>
        <time>2021-04-04T07:30:51Z</time>
      </trkpt>
      <trkpt lat="40.2867850" lon="-3.6165800">
        <ele>569.4</ele>
        <time>2021-04-04T07:30:52Z</time>
      </trkpt>
      <trkpt lat="40.2867550" lon="-3.6165890">
        <ele>569.4</ele>
        <time>2021-04-04T07:30:53Z</time>
      </trkpt>
      <trkpt lat="40.2867200" lon="-3.6165980">
        <ele>569.4</ele>
        <time>2021-04-04T07:30:54Z</time>
      </trkpt>
      <trkpt lat="40.2866900" lon="-3.6166070">
        <ele>569.4</ele>
        <time>2021-04-04T07:30:55Z</time>
      </trkpt>
      <trkpt lat="40.2866590" lon="-3.6166160">
        <ele>569.4</ele>
        <time>2021-04-04T07:30:56Z</time>
      </trkpt>
      <trkpt lat="40.2866290" lon="-3.6166260">
        <ele>569.6</ele>
        <time>2021-04-04T07:30:57Z</time>
      </trkpt>
      <trkpt lat="40.2865980" lon="-3.6166360">
        <ele>569.6</ele>
        <time>2021-04-04T07:30:58Z</time>
      </trkpt>
      <trkpt lat="40.2865680" lon="-3.6166450">
        <ele>569.6</ele>
        <time>2021-04-04T07:30:59Z</time>
      </trkpt>
      <trkpt lat="40.2865370" lon="-3.6166540">
        <ele>569.6</ele>
        <time>2021-04-04T07:31:00Z</time>
      </trkpt>
      <trkpt lat="40.2865070" lon="-3.6166630">
        <ele>569.6</ele>
        <time>2021-04-04T07:31:01Z</time>
      </trkpt>
      <trkpt lat="40.2864760" lon="-3.6166720">
        <ele>569.6</ele>
        <time>2021-04-04T07:31:02Z</time>
      </trkpt>
      <trkpt lat="40.2864460" lon="-3.6166810">
        <ele>569.6</ele>
        <time>2021-04-04T07:31:03Z</time>
      </trkpt>
      <trkpt lat="40.2864150" lon="-3.6166900">
        <ele>569.6</ele>
        <time>2021-04-04T07:31:04Z</time>
      </trkpt>
      <trkpt lat="40.2863850" lon="-3.6166980">
        <ele>569.6</ele>
        <time>2021-04-04T07:31:05Z</time>
      </trkpt>
      <trkpt lat="40.2863540" lon="-3.6167040">
        <ele>569.6</ele>
        <time>2021-04-04T07:31:06Z</time>
      </trkpt>
      <trkpt lat="40.2863240" lon="-3.6167110">
        <ele>569.8</ele>
        <time>2021-04-04T07:31:07Z</time>
      </trkpt>
      <trkpt lat="40.2862970" lon="-3.6167180">
        <ele>569.8</ele>
        <time>2021-04-04T07:31:08Z</time>
      </trkpt>
      <trkpt lat="40.2862700" lon="-3.6167260">
        <ele>569.8</ele>
        <time>2021-04-04T07:31:09Z</time>
      </trkpt>
      <trkpt lat="40.2862430" lon="-3.6167360">
        <ele>569.8</ele>
        <time>2021-04-04T07:31:10Z</time>
      </trkpt>
      <trkpt lat="40.2862170" lon="-3.6167520">
        <ele>569.8</ele>
        <time>2021-04-04T07:31:11Z</time>
      </trkpt>
      <trkpt lat="40.2861940" lon="-3.6167720">
        <ele>570.0</ele>
        <time>2021-04-04T07:31:12Z</time>
      </trkpt>
      <trkpt lat="40.2861710" lon="-3.6167930">
        <ele>570.0</ele>
        <time>2021-04-04T07:31:13Z</time>
      </trkpt>
      <trkpt lat="40.2861520" lon="-3.6168140">
        <ele>570.0</ele>
        <time>2021-04-04T07:31:14Z</time>
      </trkpt>
      <trkpt lat="40.2861290" lon="-3.6168370">
        <ele>570.0</ele>
        <time>2021-04-04T07:31:15Z</time>
      </trkpt>
      <trkpt lat="40.2861100" lon="-3.6168620">
        <ele>570.0</ele>
        <time>2021-04-04T07:31:16Z</time>
      </trkpt>
      <trkpt lat="40.2860950" lon="-3.6168900">
        <ele>570.2</ele>
        <time>2021-04-04T07:31:17Z</time>
      </trkpt>
      <trkpt lat="40.2860790" lon="-3.6169200">
        <ele>570.2</ele>
        <time>2021-04-04T07:31:18Z</time>
      </trkpt>
      <trkpt lat="40.2860640" lon="-3.6169490">
        <ele>570.2</ele>
        <time>2021-04-04T07:31:19Z</time>
      </trkpt>
      <trkpt lat="40.2860490" lon="-3.6169770">
        <ele>570.4</ele>
        <time>2021-04-04T07:31:20Z</time>
      </trkpt>
      <trkpt lat="40.2860340" lon="-3.6170060">
        <ele>570.4</ele>
        <time>2021-04-04T07:31:21Z</time>
      </trkpt>
      <trkpt lat="40.2860220" lon="-3.6170340">
        <ele>570.4</ele>
        <time>2021-04-04T07:31:22Z</time>
      </trkpt>
      <trkpt lat="40.2860030" lon="-3.6170620">
        <ele>570.6</ele>
        <time>2021-04-04T07:31:23Z</time>
      </trkpt>
      <trkpt lat="40.2859840" lon="-3.6170890">
        <ele>570.6</ele>
        <time>2021-04-04T07:31:24Z</time>
      </trkpt>
      <trkpt lat="40.2859690" lon="-3.6171160">
        <ele>570.6</ele>
        <time>2021-04-04T07:31:25Z</time>
      </trkpt>
      <trkpt lat="40.2859500" lon="-3.6171470">
        <ele>570.8</ele>
        <time>2021-04-04T07:31:26Z</time>
      </trkpt>
      <trkpt lat="40.2859340" lon="-3.6171780">
        <ele>570.8</ele>
        <time>2021-04-04T07:31:27Z</time>
      </trkpt>
      <trkpt lat="40.2859190" lon="-3.6172090">
        <ele>571.0</ele>
        <time>2021-04-04T07:31:28Z</time>
      </trkpt>
      <trkpt lat="40.2859040" lon="-3.6172410">
        <ele>571.0</ele>
        <time>2021-04-04T07:31:29Z</time>
      </trkpt>
      <trkpt lat="40.2858890" lon="-3.6172740">
        <ele>571.0</ele>
        <time>2021-04-04T07:31:30Z</time>
      </trkpt>
      <trkpt lat="40.2858730" lon="-3.6173040">
        <ele>571.2</ele>
        <time>2021-04-04T07:31:31Z</time>
      </trkpt>
      <trkpt lat="40.2858580" lon="-3.6173310">
        <ele>571.2</ele>
        <time>2021-04-04T07:31:32Z</time>
      </trkpt>
      <trkpt lat="40.2858390" lon="-3.6173570">
        <ele>571.4</ele>
        <time>2021-04-04T07:31:33Z</time>
      </trkpt>
      <trkpt lat="40.2858200" lon="-3.6173830">
        <ele>571.4</ele>
        <time>2021-04-04T07:31:34Z</time>
      </trkpt>
      <trkpt lat="40.2858010" lon="-3.6174090">
        <ele>571.4</ele>
        <time>2021-04-04T07:31:35Z</time>
      </trkpt>
      <trkpt lat="40.2857780" lon="-3.6174350">
        <ele>571.6</ele>
        <time>2021-04-04T07:31:36Z</time>
      </trkpt>
      <trkpt lat="40.2857590" lon="-3.6174600">
        <ele>571.6</ele>
        <time>2021-04-04T07:31:37Z</time>
      </trkpt>
      <trkpt lat="40.2857320" lon="-3.6174810">
        <ele>571.8</ele>
        <time>2021-04-04T07:31:38Z</time>
      </trkpt>
      <trkpt lat="40.2857090" lon="-3.6175020">
        <ele>572.0</ele>
        <time>2021-04-04T07:31:39Z</time>
      </trkpt>
      <trkpt lat="40.2856860" lon="-3.6175240">
        <ele>572.0</ele>
        <time>2021-04-04T07:31:40Z</time>
      </trkpt>
      <trkpt lat="40.2856670" lon="-3.6175470">
        <ele>572.2</ele>
        <time>2021-04-04T07:31:41Z</time>
      </trkpt>
      <trkpt lat="40.2856440" lon="-3.6175710">
        <ele>572.4</ele>
        <time>2021-04-04T07:31:42Z</time>
      </trkpt>
      <trkpt lat="40.2856180" lon="-3.6175930">
        <ele>572.4</ele>
        <time>2021-04-04T07:31:43Z</time>
      </trkpt>
      <trkpt lat="40.2855950" lon="-3.6176140">
        <ele>572.6</ele>
        <time>2021-04-04T07:31:44Z</time>
      </trkpt>
      <trkpt lat="40.2855720" lon="-3.6176350">
        <ele>572.6</ele>
        <time>2021-04-04T07:31:45Z</time>
      </trkpt>
      <trkpt lat="40.2855450" lon="-3.6176560">
        <ele>572.8</ele>
        <time>2021-04-04T07:31:46Z</time>
      </trkpt>
      <trkpt lat="40.2855190" lon="-3.6176770">
        <ele>573.0</ele>
        <time>2021-04-04T07:31:47Z</time>
      </trkpt>
      <trkpt lat="40.2854960" lon="-3.6176990">
        <ele>573.2</ele>
        <time>2021-04-04T07:31:48Z</time>
      </trkpt>
      <trkpt lat="40.2854730" lon="-3.6177220">
        <ele>573.2</ele>
        <time>2021-04-04T07:31:49Z</time>
      </trkpt>
      <trkpt lat="40.2854500" lon="-3.6177460">
        <ele>573.4</ele>
        <time>2021-04-04T07:31:50Z</time>
      </trkpt>
      <trkpt lat="40.2854270" lon="-3.6177710">
        <ele>573.4</ele>
        <time>2021-04-04T07:31:51Z</time>
      </trkpt>
      <trkpt lat="40.2854000" lon="-3.6177950">
        <ele>573.6</ele>
        <time>2021-04-04T07:31:52Z</time>
      </trkpt>
      <trkpt lat="40.2853780" lon="-3.6178190">
        <ele>573.8</ele>
        <time>2021-04-04T07:31:53Z</time>
      </trkpt>
      <trkpt lat="40.2853580" lon="-3.6178440">
        <ele>573.8</ele>
        <time>2021-04-04T07:31:54Z</time>
      </trkpt>
      <trkpt lat="40.2853360" lon="-3.6178700">
        <ele>574.0</ele>
        <time>2021-04-04T07:31:55Z</time>
      </trkpt>
      <trkpt lat="40.2853130" lon="-3.6178970">
        <ele>574.2</ele>
        <time>2021-04-04T07:31:56Z</time>
      </trkpt>
      <trkpt lat="40.2852940" lon="-3.6179240">
        <ele>574.2</ele>
        <time>2021-04-04T07:31:57Z</time>
      </trkpt>
      <trkpt lat="40.2852710" lon="-3.6179500">
        <ele>574.4</ele>
        <time>2021-04-04T07:31:58Z</time>
      </trkpt>
      <trkpt lat="40.2852520" lon="-3.6179750">
        <ele>574.6</ele>
        <time>2021-04-04T07:31:59Z</time>
      </trkpt>
      <trkpt lat="40.2852290" lon="-3.6180020">
        <ele>574.6</ele>
        <time>2021-04-04T07:32:00Z</time>
      </trkpt>
      <trkpt lat="40.2852100" lon="-3.6180310">
        <ele>574.8</ele>
        <time>2021-04-04T07:32:01Z</time>
      </trkpt>
      <trkpt lat="40.2851910" lon="-3.6180600">
        <ele>574.8</ele>
        <time>2021-04-04T07:32:02Z</time>
      </trkpt>
      <trkpt lat="40.2851680" lon="-3.6180890">
        <ele>575.0</ele>
        <time>2021-04-04T07:32:03Z</time>
      </trkpt>
      <trkpt lat="40.2851490" lon="-3.6181170">
        <ele>575.2</ele>
        <time>2021-04-04T07:32:04Z</time>
      </trkpt>
      <trkpt lat="40.2851300" lon="-3.6181440">
        <ele>575.4</ele>
        <time>2021-04-04T07:32:05Z</time>
      </trkpt>
      <trkpt lat="40.2851100" lon="-3.6181730">
        <ele>575.4</ele>
        <time>2021-04-04T07:32:06Z</time>
      </trkpt>
      <trkpt lat="40.2850910" lon="-3.6182000">
        <ele>575.6</ele>
        <time>2021-04-04T07:32:07Z</time>
      </trkpt>
      <trkpt lat="40.2850720" lon="-3.6182270">
        <ele>575.8</ele>
        <time>2021-04-04T07:32:08Z</time>
      </trkpt>
      <trkpt lat="40.2850490" lon="-3.6182540">
        <ele>575.8</ele>
        <time>2021-04-04T07:32:09Z</time>
      </trkpt>
      <trkpt lat="40.2850340" lon="-3.6182820">
        <ele>576.0</ele>
        <time>2021-04-04T07:32:10Z</time>
      </trkpt>
      <trkpt lat="40.2850150" lon="-3.6183090">
        <ele>576.2</ele>
        <time>2021-04-04T07:32:11Z</time>
      </trkpt>
      <trkpt lat="40.2849920" lon="-3.6183350">
        <ele>576.2</ele>
        <time>2021-04-04T07:32:12Z</time>
      </trkpt>
      <trkpt lat="40.2849690" lon="-3.6183620">
        <ele>576.4</ele>
        <time>2021-04-04T07:32:13Z</time>
      </trkpt>
      <trkpt lat="40.2849500" lon="-3.6183900">
        <ele>576.6</ele>
        <time>2021-04-04T07:32:14Z</time>
      </trkpt>
      <trkpt lat="40.2849310" lon="-3.6184150">
        <ele>576.8</ele>
        <time>2021-04-04T07:32:15Z</time>
      </trkpt>
      <trkpt lat="40.2849120" lon="-3.6184400">
        <ele>576.8</ele>
        <time>2021-04-04T07:32:16Z</time>
      </trkpt>
      <trkpt lat="40.2848890" lon="-3.6184650">
        <ele>577.0</ele>
        <time>2021-04-04T07:32:17Z</time>
      </trkpt>
      <trkpt lat="40.2848660" lon="-3.6184900">
        <ele>577.2</ele>
        <time>2021-04-04T07:32:18Z</time>
      </trkpt>
      <trkpt lat="40.2848470" lon="-3.6185150">
        <ele>577.4</ele>
        <time>2021-04-04T07:32:19Z</time>
      </trkpt>
      <trkpt lat="40.2848240" lon="-3.6185380">
        <ele>577.4</ele>
        <time>2021-04-04T07:32:20Z</time>
      </trkpt>
      <trkpt lat="40.2848010" lon="-3.6185610">
        <ele>577.6</ele>
        <time>2021-04-04T07:32:21Z</time>
      </trkpt>
      <trkpt lat="40.2847820" lon="-3.6185860">
        <ele>577.8</ele>
        <time>2021-04-04T07:32:22Z</time>
      </trkpt>
      <trkpt lat="40.2847600" lon="-3.6186090">
        <ele>578.0</ele>
        <time>2021-04-04T07:32:23Z</time>
      </trkpt>
      <trkpt lat="40.2847370" lon="-3.6186330">
        <ele>578.0</ele>
        <time>2021-04-04T07:32:24Z</time>
      </trkpt>
      <trkpt lat="40.2847140" lon="-3.6186550">
        <ele>578.2</ele>
        <time>2021-04-04T07:32:25Z</time>
      </trkpt>
      <trkpt lat="40.2846910" lon="-3.6186790">
        <ele>578.2</ele>
        <time>2021-04-04T07:32:26Z</time>
      </trkpt>
      <trkpt lat="40.2846680" lon="-3.6187050">
        <ele>578.4</ele>
        <time>2021-04-04T07:32:27Z</time>
      </trkpt>
      <trkpt lat="40.2846450" lon="-3.6187290">
        <ele>578.4</ele>
        <time>2021-04-04T07:32:28Z</time>
      </trkpt>
      <trkpt lat="40.2846220" lon="-3.6187530">
        <ele>578.6</ele>
        <time>2021-04-04T07:32:29Z</time>
      </trkpt>
      <trkpt lat="40.2845990" lon="-3.6187780">
        <ele>578.8</ele>
        <time>2021-04-04T07:32:30Z</time>
      </trkpt>
      <trkpt lat="40.2845760" lon="-3.6188020">
        <ele>578.8</ele>
        <time>2021-04-04T07:32:31Z</time>
      </trkpt>
      <trkpt lat="40.2845540" lon="-3.6188260">
        <ele>579.0</ele>
        <time>2021-04-04T07:32:32Z</time>
      </trkpt>
      <trkpt lat="40.2845310" lon="-3.6188480">
        <ele>579.0</ele>
        <time>2021-04-04T07:32:33Z</time>
      </trkpt>
      <trkpt lat="40.2845080" lon="-3.6188710">
        <ele>579.2</ele>
        <time>2021-04-04T07:32:34Z</time>
      </trkpt>
      <trkpt lat="40.2844850" lon="-3.6188930">
        <ele>579.2</ele>
        <time>2021-04-04T07:32:35Z</time>
      </trkpt>
      <trkpt lat="40.2844620" lon="-3.6189150">
        <ele>579.4</ele>
        <time>2021-04-04T07:32:36Z</time>
      </trkpt>
      <trkpt lat="40.2844390" lon="-3.6189340">
        <ele>579.6</ele>
        <time>2021-04-04T07:32:37Z</time>
      </trkpt>
      <trkpt lat="40.2844160" lon="-3.6189540">
        <ele>579.6</ele>
        <time>2021-04-04T07:32:38Z</time>
      </trkpt>
      <trkpt lat="40.2843970" lon="-3.6189750">
        <ele>579.8</ele>
        <time>2021-04-04T07:32:39Z</time>
      </trkpt>
      <trkpt lat="40.2843740" lon="-3.6189960">
        <ele>579.8</ele>
        <time>2021-04-04T07:32:40Z</time>
      </trkpt>
      <trkpt lat="40.2843510" lon="-3.6190160">
        <ele>580.0</ele>
        <time>2021-04-04T07:32:41Z</time>
      </trkpt>
      <trkpt lat="40.2843280" lon="-3.6190370">
        <ele>580.2</ele>
        <time>2021-04-04T07:32:42Z</time>
      </trkpt>
      <trkpt lat="40.2843060" lon="-3.6190600">
        <ele>580.2</ele>
        <time>2021-04-04T07:32:43Z</time>
      </trkpt>
      <trkpt lat="40.2842860" lon="-3.6190820">
        <ele>580.4</ele>
        <time>2021-04-04T07:32:44Z</time>
      </trkpt>
      <trkpt lat="40.2842670" lon="-3.6191040">
        <ele>580.6</ele>
        <time>2021-04-04T07:32:45Z</time>
      </trkpt>
      <trkpt lat="40.2842450" lon="-3.6191270">
        <ele>580.6</ele>
        <time>2021-04-04T07:32:46Z</time>
      </trkpt>
      <trkpt lat="40.2842250" lon="-3.6191510">
        <ele>580.8</ele>
        <time>2021-04-04T07:32:47Z</time>
      </trkpt>
      <trkpt lat="40.2842030" lon="-3.6191750">
        <ele>581.0</ele>
        <time>2021-04-04T07:32:48Z</time>
      </trkpt>
      <trkpt lat="40.2841800" lon="-3.6191990">
        <ele>581.0</ele>
        <time>2021-04-04T07:32:49Z</time>
      </trkpt>
      <trkpt lat="40.2841570" lon="-3.6192210">
        <ele>581.2</ele>
        <time>2021-04-04T07:32:50Z</time>
      </trkpt>
      <trkpt lat="40.2841340" lon="-3.6192440">
        <ele>581.4</ele>
        <time>2021-04-04T07:32:51Z</time>
      </trkpt>
      <trkpt lat="40.2841150" lon="-3.6192670">
        <ele>581.6</ele>
        <time>2021-04-04T07:32:52Z</time>
      </trkpt>
      <trkpt lat="40.2840960" lon="-3.6192890">
        <ele>581.8</ele>
        <time>2021-04-04T07:32:53Z</time>
      </trkpt>
      <trkpt lat="40.2840770" lon="-3.6193120">
        <ele>582.0</ele>
        <time>2021-04-04T07:32:54Z</time>
      </trkpt>
      <trkpt lat="40.2840580" lon="-3.6193360">
        <ele>582.2</ele>
        <time>2021-04-04T07:32:55Z</time>
      </trkpt>
      <trkpt lat="40.2840390" lon="-3.6193600">
        <ele>582.4</ele>
        <time>2021-04-04T07:32:56Z</time>
      </trkpt>
      <trkpt lat="40.2840190" lon="-3.6193840">
        <ele>582.4</ele>
        <time>2021-04-04T07:32:57Z</time>
      </trkpt>
      <trkpt lat="40.2840040" lon="-3.6194070">
        <ele>582.6</ele>
        <time>2021-04-04T07:32:58Z</time>
      </trkpt>
      <trkpt lat="40.2839850" lon="-3.6194300">
        <ele>582.8</ele>
        <time>2021-04-04T07:32:59Z</time>
      </trkpt>
      <trkpt lat="40.2839700" lon="-3.6194550">
        <ele>583.0</ele>
        <time>2021-04-04T07:33:00Z</time>
      </trkpt>
      <trkpt lat="40.2839510" lon="-3.6194800">
        <ele>583.2</ele>
        <time>2021-04-04T07:33:01Z</time>
      </trkpt>
      <trkpt lat="40.2839360" lon="-3.6195050">
        <ele>583.4</ele>
        <time>2021-04-04T07:33:02Z</time>
      </trkpt>
      <trkpt lat="40.2839200" lon="-3.6195330">
        <ele>583.4</ele>
        <time>2021-04-04T07:33:03Z</time>
      </trkpt>
      <trkpt lat="40.2839050" lon="-3.6195600">
        <ele>583.8</ele>
        <time>2021-04-04T07:33:04Z</time>
      </trkpt>
      <trkpt lat="40.2838900" lon="-3.6195870">
        <ele>584.0</ele>
        <time>2021-04-04T07:33:05Z</time>
      </trkpt>
      <trkpt lat="40.2838740" lon="-3.6196150">
        <ele>584.2</ele>
        <time>2021-04-04T07:33:06Z</time>
      </trkpt>
      <trkpt lat="40.2838590" lon="-3.6196440">
        <ele>584.4</ele>
        <time>2021-04-04T07:33:07Z</time>
      </trkpt>
      <trkpt lat="40.2838480" lon="-3.6196730">
        <ele>584.6</ele>
        <time>2021-04-04T07:33:08Z</time>
      </trkpt>
      <trkpt lat="40.2838330" lon="-3.6197020">
        <ele>584.8</ele>
        <time>2021-04-04T07:33:09Z</time>
      </trkpt>
      <trkpt lat="40.2838210" lon="-3.6197320">
        <ele>585.0</ele>
        <time>2021-04-04T07:33:10Z</time>
      </trkpt>
      <trkpt lat="40.2838060" lon="-3.6197630">
        <ele>585.2</ele>
        <time>2021-04-04T07:33:11Z</time>
      </trkpt>
      <trkpt lat="40.2837910" lon="-3.6197910">
        <ele>585.4</ele>
        <time>2021-04-04T07:33:12Z</time>
      </trkpt>
      <trkpt lat="40.2837750" lon="-3.6198190">
        <ele>585.6</ele>
        <time>2021-04-04T07:33:13Z</time>
      </trkpt>
      <trkpt lat="40.2837600" lon="-3.6198470">
        <ele>585.8</ele>
        <time>2021-04-04T07:33:14Z</time>
      </trkpt>
      <trkpt lat="40.2837410" lon="-3.6198760">
        <ele>585.8</ele>
        <time>2021-04-04T07:33:15Z</time>
      </trkpt>
      <trkpt lat="40.2837220" lon="-3.6199050">
        <ele>586.0</ele>
        <time>2021-04-04T07:33:16Z</time>
      </trkpt>
      <trkpt lat="40.2837030" lon="-3.6199310">
        <ele>586.0</ele>
        <time>2021-04-04T07:33:17Z</time>
      </trkpt>
      <trkpt lat="40.2836800" lon="-3.6199560">
        <ele>586.2</ele>
        <time>2021-04-04T07:33:18Z</time>
      </trkpt>
      <trkpt lat="40.2836570" lon="-3.6199790">
        <ele>586.4</ele>
        <time>2021-04-04T07:33:19Z</time>
      </trkpt>
      <trkpt lat="40.2836300" lon="-3.6199980">
        <ele>586.4</ele>
        <time>2021-04-04T07:33:20Z</time>
      </trkpt>
      <trkpt lat="40.2836040" lon="-3.6200120">
        <ele>586.6</ele>
        <time>2021-04-04T07:33:21Z</time>
      </trkpt>
      <trkpt lat="40.2835770" lon="-3.6200210">
        <ele>586.6</ele>
        <time>2021-04-04T07:33:22Z</time>
      </trkpt>
      <trkpt lat="40.2835500" lon="-3.6200250">
        <ele>586.8</ele>
        <time>2021-04-04T07:33:23Z</time>
      </trkpt>
      <trkpt lat="40.2835200" lon="-3.6200220">
        <ele>587.0</ele>
        <time>2021-04-04T07:33:24Z</time>
      </trkpt>
      <trkpt lat="40.2834930" lon="-3.6200110">
        <ele>587.0</ele>
        <time>2021-04-04T07:33:25Z</time>
      </trkpt>
      <trkpt lat="40.2834700" lon="-3.6199940">
        <ele>587.2</ele>
        <time>2021-04-04T07:33:26Z</time>
      </trkpt>
      <trkpt lat="40.2834430" lon="-3.6199750">
        <ele>587.2</ele>
        <time>2021-04-04T07:33:27Z</time>
      </trkpt>
      <trkpt lat="40.2834210" lon="-3.6199520">
        <ele>587.4</ele>
        <time>2021-04-04T07:33:28Z</time>
      </trkpt>
      <trkpt lat="40.2833980" lon="-3.6199270">
        <ele>587.6</ele>
        <time>2021-04-04T07:33:29Z</time>
      </trkpt>
      <trkpt lat="40.2833790" lon="-3.6199020">
        <ele>587.8</ele>
        <time>2021-04-04T07:33:30Z</time>
      </trkpt>
      <trkpt lat="40.2833560" lon="-3.6198750">
        <ele>588.0</ele>
        <time>2021-04-04T07:33:31Z</time>
      </trkpt>
      <trkpt lat="40.2833400" lon="-3.6198520">
        <ele>588.2</ele>
        <time>2021-04-04T07:33:32Z</time>
      </trkpt>
      <trkpt lat="40.2833210" lon="-3.6198300">
        <ele>588.4</ele>
        <time>2021-04-04T07:33:33Z</time>
      </trkpt>
      <trkpt lat="40.2833020" lon="-3.6198090">
        <ele>588.6</ele>
        <time>2021-04-04T07:33:34Z</time>
      </trkpt>
      <trkpt lat="40.2832830" lon="-3.6197860">
        <ele>588.8</ele>
        <time>2021-04-04T07:33:35Z</time>
      </trkpt>
      <trkpt lat="40.2832640" lon="-3.6197620">
        <ele>589.0</ele>
        <time>2021-04-04T07:33:36Z</time>
      </trkpt>
      <trkpt lat="40.2832530" lon="-3.6197370">
        <ele>589.2</ele>
        <time>2021-04-04T07:33:37Z</time>
      </trkpt>
      <trkpt lat="40.2832410" lon="-3.6197110">
        <ele>589.4</ele>
        <time>2021-04-04T07:33:38Z</time>
      </trkpt>
      <trkpt lat="40.2832340" lon="-3.6196850">
        <ele>589.6</ele>
        <time>2021-04-04T07:33:39Z</time>
      </trkpt>
      <trkpt lat="40.2832220" lon="-3.6196600">
        <ele>589.8</ele>
        <time>2021-04-04T07:33:40Z</time>
      </trkpt>
      <trkpt lat="40.2832070" lon="-3.6196370">
        <ele>590.0</ele>
        <time>2021-04-04T07:33:41Z</time>
      </trkpt>
      <trkpt lat="40.2831920" lon="-3.6196150">
        <ele>590.0</ele>
        <time>2021-04-04T07:33:42Z</time>
      </trkpt>
      <trkpt lat="40.2831760" lon="-3.6195920">
        <ele>590.4</ele>
        <time>2021-04-04T07:33:43Z</time>
      </trkpt>
      <trkpt lat="40.2831650" lon="-3.6195730">
        <ele>590.6</ele>
        <time>2021-04-04T07:33:44Z</time>
      </trkpt>
      <trkpt lat="40.2831540" lon="-3.6195550">
        <ele>590.8</ele>
        <time>2021-04-04T07:33:45Z</time>
      </trkpt>
      <trkpt lat="40.2831340" lon="-3.6195360">
        <ele>591.0</ele>
        <time>2021-04-04T07:33:46Z</time>
      </trkpt>
      <trkpt lat="40.2831190" lon="-3.6195150">
        <ele>591.2</ele>
        <time>2021-04-04T07:33:47Z</time>
      </trkpt>
      <trkpt lat="40.2831000" lon="-3.6194930">
        <ele>591.2</ele>
        <time>2021-04-04T07:33:48Z</time>
      </trkpt>
      <trkpt lat="40.2830810" lon="-3.6194700">
        <ele>591.4</ele>
        <time>2021-04-04T07:33:49Z</time>
      </trkpt>
      <trkpt lat="40.2830620" lon="-3.6194480">
        <ele>591.6</ele>
        <time>2021-04-04T07:33:50Z</time>
      </trkpt>
      <trkpt lat="40.2830390" lon="-3.6194250">
        <ele>591.6</ele>
        <time>2021-04-04T07:33:51Z</time>
      </trkpt>
      <trkpt lat="40.2830200" lon="-3.6194030">
        <ele>591.8</ele>
        <time>2021-04-04T07:33:52Z</time>
      </trkpt>
      <trkpt lat="40.2829970" lon="-3.6193820">
        <ele>591.8</ele>
        <time>2021-04-04T07:33:53Z</time>
      </trkpt>
      <trkpt lat="40.2829740" lon="-3.6193590">
        <ele>592.0</ele>
        <time>2021-04-04T07:33:54Z</time>
      </trkpt>
      <trkpt lat="40.2829510" lon="-3.6193370">
        <ele>592.2</ele>
        <time>2021-04-04T07:33:55Z</time>
      </trkpt>
      <trkpt lat="40.2829290" lon="-3.6193160">
        <ele>592.2</ele>
        <time>2021-04-04T07:33:56Z</time>
      </trkpt>
      <trkpt lat="40.2829060" lon="-3.6192940">
        <ele>592.2</ele>
        <time>2021-04-04T07:33:57Z</time>
      </trkpt>
      <trkpt lat="40.2828830" lon="-3.6192730">
        <ele>592.4</ele>
        <time>2021-04-04T07:33:58Z</time>
      </trkpt>
      <trkpt lat="40.2828600" lon="-3.6192510">
        <ele>592.4</ele>
        <time>2021-04-04T07:33:59Z</time>
      </trkpt>
      <trkpt lat="40.2828370" lon="-3.6192280">
        <ele>592.6</ele>
        <time>2021-04-04T07:34:00Z</time>
      </trkpt>
      <trkpt lat="40.2828100" lon="-3.6192050">
        <ele>592.6</ele>
        <time>2021-04-04T07:34:01Z</time>
      </trkpt>
      <trkpt lat="40.2827870" lon="-3.6191830">
        <ele>592.8</ele>
        <time>2021-04-04T07:34:02Z</time>
      </trkpt>
      <trkpt lat="40.2827680" lon="-3.6191610">
        <ele>592.8</ele>
        <time>2021-04-04T07:34:03Z</time>
      </trkpt>
      <trkpt lat="40.2827450" lon="-3.6191380">
        <ele>592.8</ele>
        <time>2021-04-04T07:34:04Z</time>
      </trkpt>
      <trkpt lat="40.2827260" lon="-3.6191170">
        <ele>593.0</ele>
        <time>2021-04-04T07:34:05Z</time>
      </trkpt>
      <trkpt lat="40.2827030" lon="-3.6190950">
        <ele>593.0</ele>
        <time>2021-04-04T07:34:06Z</time>
      </trkpt>
      <trkpt lat="40.2826800" lon="-3.6190720">
        <ele>593.2</ele>
        <time>2021-04-04T07:34:07Z</time>
      </trkpt>
      <trkpt lat="40.2826580" lon="-3.6190500">
        <ele>593.2</ele>
        <time>2021-04-04T07:34:08Z</time>
      </trkpt>
      <trkpt lat="40.2826350" lon="-3.6190290">
        <ele>593.4</ele>
        <time>2021-04-04T07:34:09Z</time>
      </trkpt>
      <trkpt lat="40.2826120" lon="-3.6190100">
        <ele>593.4</ele>
        <time>2021-04-04T07:34:10Z</time>
      </trkpt>
      <trkpt lat="40.2825890" lon="-3.6189920">
        <ele>593.4</ele>
        <time>2021-04-04T07:34:11Z</time>
      </trkpt>
      <trkpt lat="40.2825620" lon="-3.6189760">
        <ele>593.6</ele>
        <time>2021-04-04T07:34:12Z</time>
      </trkpt>
      <trkpt lat="40.2825390" lon="-3.6189620">
        <ele>593.6</ele>
        <time>2021-04-04T07:34:13Z</time>
      </trkpt>
      <trkpt lat="40.2825160" lon="-3.6189500">
        <ele>593.8</ele>
        <time>2021-04-04T07:34:14Z</time>
      </trkpt>
      <trkpt lat="40.2824940" lon="-3.6189380">
        <ele>593.8</ele>
        <time>2021-04-04T07:34:15Z</time>
      </trkpt>
      <trkpt lat="40.2824710" lon="-3.6189270">
        <ele>593.8</ele>
        <time>2021-04-04T07:34:16Z</time>
      </trkpt>
      <trkpt lat="40.2824480" lon="-3.6189160">
        <ele>594.0</ele>
        <time>2021-04-04T07:34:17Z</time>
      </trkpt>
      <trkpt lat="40.2824290" lon="-3.6189060">
        <ele>594.0</ele>
        <time>2021-04-04T07:34:18Z</time>
      </trkpt>
      <trkpt lat="40.2824060" lon="-3.6188960">
        <ele>594.2</ele>
        <time>2021-04-04T07:34:19Z</time>
      </trkpt>
      <trkpt lat="40.2823870" lon="-3.6188860">
        <ele>594.2</ele>
        <time>2021-04-04T07:34:20Z</time>
      </trkpt>
      <trkpt lat="40.2823680" lon="-3.6188770">
        <ele>594.4</ele>
        <time>2021-04-04T07:34:21Z</time>
      </trkpt>
      <trkpt lat="40.2823490" lon="-3.6188700">
        <ele>594.6</ele>
        <time>2021-04-04T07:34:22Z</time>
      </trkpt>
      <trkpt lat="40.2823260" lon="-3.6188630">
        <ele>594.6</ele>
        <time>2021-04-04T07:34:23Z</time>
      </trkpt>
      <trkpt lat="40.2823070" lon="-3.6188550">
        <ele>594.8</ele>
        <time>2021-04-04T07:34:24Z</time>
      </trkpt>
      <trkpt lat="40.2822880" lon="-3.6188460">
        <ele>594.8</ele>
        <time>2021-04-04T07:34:25Z</time>
      </trkpt>
      <trkpt lat="40.2822650" lon="-3.6188350">
        <ele>595.0</ele>
        <time>2021-04-04T07:34:26Z</time>
      </trkpt>
      <trkpt lat="40.2822460" lon="-3.6188210">
        <ele>595.0</ele>
        <time>2021-04-04T07:34:27Z</time>
      </trkpt>
      <trkpt lat="40.2822230" lon="-3.6188060">
        <ele>595.2</ele>
        <time>2021-04-04T07:34:28Z</time>
      </trkpt>
      <trkpt lat="40.2822040" lon="-3.6187930">
        <ele>595.2</ele>
        <time>2021-04-04T07:34:29Z</time>
      </trkpt>
      <trkpt lat="40.2821850" lon="-3.6187780">
        <ele>595.4</ele>
        <time>2021-04-04T07:34:30Z</time>
      </trkpt>
      <trkpt lat="40.2821660" lon="-3.6187620">
        <ele>595.4</ele>
        <time>2021-04-04T07:34:31Z</time>
      </trkpt>
      <trkpt lat="40.2821500" lon="-3.6187460">
        <ele>595.4</ele>
        <time>2021-04-04T07:34:32Z</time>
      </trkpt>
      <trkpt lat="40.2821310" lon="-3.6187270">
        <ele>595.4</ele>
        <time>2021-04-04T07:34:33Z</time>
      </trkpt>
      <trkpt lat="40.2821200" lon="-3.6187080">
        <ele>595.6</ele>
        <time>2021-04-04T07:34:34Z</time>
      </trkpt>
      <trkpt lat="40.2821040" lon="-3.6186870">
        <ele>595.6</ele>
        <time>2021-04-04T07:34:35Z</time>
      </trkpt>
      <trkpt lat="40.2820890" lon="-3.6186650">
        <ele>595.8</ele>
        <time>2021-04-04T07:34:36Z</time>
      </trkpt>
      <trkpt lat="40.2820780" lon="-3.6186430">
        <ele>595.8</ele>
        <time>2021-04-04T07:34:37Z</time>
      </trkpt>
      <trkpt lat="40.2820660" lon="-3.6186190">
        <ele>596.0</ele>
        <time>2021-04-04T07:34:38Z</time>
      </trkpt>
      <trkpt lat="40.2820550" lon="-3.6185940">
        <ele>596.0</ele>
        <time>2021-04-04T07:34:39Z</time>
      </trkpt>
      <trkpt lat="40.2820430" lon="-3.6185680">
        <ele>596.2</ele>
        <time>2021-04-04T07:34:40Z</time>
      </trkpt>
      <trkpt lat="40.2820320" lon="-3.6185410">
        <ele>596.2</ele>
        <time>2021-04-04T07:34:41Z</time>
      </trkpt>
      <trkpt lat="40.2820240" lon="-3.6185130">
        <ele>596.4</ele>
        <time>2021-04-04T07:34:42Z</time>
      </trkpt>
      <trkpt lat="40.2820130" lon="-3.6184840">
        <ele>596.4</ele>
        <time>2021-04-04T07:34:43Z</time>
      </trkpt>
      <trkpt lat="40.2820050" lon="-3.6184560">
        <ele>596.4</ele>
        <time>2021-04-04T07:34:44Z</time>
      </trkpt>
      <trkpt lat="40.2819980" lon="-3.6184280">
        <ele>596.6</ele>
        <time>2021-04-04T07:34:45Z</time>
      </trkpt>
      <trkpt lat="40.2819860" lon="-3.6183980">
        <ele>596.6</ele>
        <time>2021-04-04T07:34:46Z</time>
      </trkpt>
      <trkpt lat="40.2819790" lon="-3.6183690">
        <ele>596.6</ele>
        <time>2021-04-04T07:34:47Z</time>
      </trkpt>
      <trkpt lat="40.2819670" lon="-3.6183410">
        <ele>596.8</ele>
        <time>2021-04-04T07:34:48Z</time>
      </trkpt>
      <trkpt lat="40.2819600" lon="-3.6183120">
        <ele>596.8</ele>
        <time>2021-04-04T07:34:49Z</time>
      </trkpt>
      <trkpt lat="40.2819480" lon="-3.6182830">
        <ele>597.0</ele>
        <time>2021-04-04T07:34:50Z</time>
      </trkpt>
      <trkpt lat="40.2819370" lon="-3.6182530">
        <ele>597.0</ele>
        <time>2021-04-04T07:34:51Z</time>
      </trkpt>
      <trkpt lat="40.2819290" lon="-3.6182230">
        <ele>597.2</ele>
        <time>2021-04-04T07:34:52Z</time>
      </trkpt>
      <trkpt lat="40.2819180" lon="-3.6181930">
        <ele>597.2</ele>
        <time>2021-04-04T07:34:53Z</time>
      </trkpt>
      <trkpt lat="40.2819060" lon="-3.6181620">
        <ele>597.4</ele>
        <time>2021-04-04T07:34:54Z</time>
      </trkpt>
      <trkpt lat="40.2818950" lon="-3.6181320">
        <ele>597.4</ele>
        <time>2021-04-04T07:34:55Z</time>
      </trkpt>
      <trkpt lat="40.2818830" lon="-3.6181010">
        <ele>597.6</ele>
        <time>2021-04-04T07:34:56Z</time>
      </trkpt>
      <trkpt lat="40.2818720" lon="-3.6180690">
        <ele>597.8</ele>
        <time>2021-04-04T07:34:57Z</time>
      </trkpt>
      <trkpt lat="40.2818600" lon="-3.6180380">
        <ele>597.8</ele>
        <time>2021-04-04T07:34:58Z</time>
      </trkpt>
      <trkpt lat="40.2818490" lon="-3.6180090">
        <ele>598.0</ele>
        <time>2021-04-04T07:34:59Z</time>
      </trkpt>
      <trkpt lat="40.2818370" lon="-3.6179790">
        <ele>598.0</ele>
        <time>2021-04-04T07:35:00Z</time>
      </trkpt>
      <trkpt lat="40.2818260" lon="-3.6179500">
        <ele>598.2</ele>
        <time>2021-04-04T07:35:01Z</time>
      </trkpt>
      <trkpt lat="40.2818150" lon="-3.6179200">
        <ele>598.4</ele>
        <time>2021-04-04T07:35:02Z</time>
      </trkpt>
      <trkpt lat="40.2818030" lon="-3.6178900">
        <ele>598.6</ele>
        <time>2021-04-04T07:35:03Z</time>
      </trkpt>
      <trkpt lat="40.2817960" lon="-3.6178600">
        <ele>598.8</ele>
        <time>2021-04-04T07:35:04Z</time>
      </trkpt>
      <trkpt lat="40.2817840" lon="-3.6178280">
        <ele>599.0</ele>
        <time>2021-04-04T07:35:05Z</time>
      </trkpt>
      <trkpt lat="40.2817730" lon="-3.6177980">
        <ele>599.2</ele>
        <time>2021-04-04T07:35:06Z</time>
      </trkpt>
      <trkpt lat="40.2817610" lon="-3.6177690">
        <ele>599.4</ele>
        <time>2021-04-04T07:35:07Z</time>
      </trkpt>
      <trkpt lat="40.2817500" lon="-3.6177390">
        <ele>599.6</ele>
        <time>2021-04-04T07:35:08Z</time>
      </trkpt>
      <trkpt lat="40.2817380" lon="-3.6177120">
        <ele>599.8</ele>
        <time>2021-04-04T07:35:09Z</time>
      </trkpt>
      <trkpt lat="40.2817270" lon="-3.6176850">
        <ele>600.0</ele>
        <time>2021-04-04T07:35:10Z</time>
      </trkpt>
      <trkpt lat="40.2817190" lon="-3.6176570">
        <ele>600.2</ele>
        <time>2021-04-04T07:35:11Z</time>
      </trkpt>
      <trkpt lat="40.2817080" lon="-3.6176290">
        <ele>600.4</ele>
        <time>2021-04-04T07:35:12Z</time>
      </trkpt>
      <trkpt lat="40.2817000" lon="-3.6176010">
        <ele>600.6</ele>
        <time>2021-04-04T07:35:13Z</time>
      </trkpt>
      <trkpt lat="40.2816890" lon="-3.6175720">
        <ele>600.8</ele>
        <time>2021-04-04T07:35:14Z</time>
      </trkpt>
      <trkpt lat="40.2816810" lon="-3.6175420">
        <ele>600.8</ele>
        <time>2021-04-04T07:35:15Z</time>
      </trkpt>
      <trkpt lat="40.2816700" lon="-3.6175110">
        <ele>601.0</ele>
        <time>2021-04-04T07:35:16Z</time>
      </trkpt>
      <trkpt lat="40.2816620" lon="-3.6174800">
        <ele>601.0</ele>
        <time>2021-04-04T07:35:17Z</time>
      </trkpt>
      <trkpt lat="40.2816510" lon="-3.6174500">
        <ele>601.2</ele>
        <time>2021-04-04T07:35:18Z</time>
      </trkpt>
      <trkpt lat="40.2816430" lon="-3.6174180">
        <ele>601.2</ele>
        <time>2021-04-04T07:35:19Z</time>
      </trkpt>
      <trkpt lat="40.2816310" lon="-3.6173870">
        <ele>601.4</ele>
        <time>2021-04-04T07:35:20Z</time>
      </trkpt>
      <trkpt lat="40.2816240" lon="-3.6173560">
        <ele>601.4</ele>
        <time>2021-04-04T07:35:21Z</time>
      </trkpt>
      <trkpt lat="40.2816160" lon="-3.6173240">
        <ele>601.6</ele>
        <time>2021-04-04T07:35:22Z</time>
      </trkpt>
      <trkpt lat="40.2816050" lon="-3.6172910">
        <ele>601.6</ele>
        <time>2021-04-04T07:35:23Z</time>
      </trkpt>
      <trkpt lat="40.2815890" lon="-3.6172600">
        <ele>601.6</ele>
        <time>2021-04-04T07:35:24Z</time>
      </trkpt>
      <trkpt lat="40.2815740" lon="-3.6172300">
        <ele>601.8</ele>
        <time>2021-04-04T07:35:25Z</time>
      </trkpt>
      <trkpt lat="40.2815590" lon="-3.6172020">
        <ele>601.8</ele>
        <time>2021-04-04T07:35:26Z</time>
      </trkpt>
      <trkpt lat="40.2815440" lon="-3.6171730">
        <ele>602.0</ele>
        <time>2021-04-04T07:35:27Z</time>
      </trkpt>
      <trkpt lat="40.2815320" lon="-3.6171440">
        <ele>602.0</ele>
        <time>2021-04-04T07:35:28Z</time>
      </trkpt>
      <trkpt lat="40.2815170" lon="-3.6171170">
        <ele>602.2</ele>
        <time>2021-04-04T07:35:29Z</time>
      </trkpt>
      <trkpt lat="40.2815020" lon="-3.6170900">
        <ele>602.2</ele>
        <time>2021-04-04T07:35:30Z</time>
      </trkpt>
      <trkpt lat="40.2814830" lon="-3.6170640">
        <ele>602.4</ele>
        <time>2021-04-04T07:35:31Z</time>
      </trkpt>
      <trkpt lat="40.2814640" lon="-3.6170380">
        <ele>602.6</ele>
        <time>2021-04-04T07:35:32Z</time>
      </trkpt>
      <trkpt lat="40.2814480" lon="-3.6170110">
        <ele>602.8</ele>
        <time>2021-04-04T07:35:33Z</time>
      </trkpt>
      <trkpt lat="40.2814330" lon="-3.6169840">
        <ele>602.8</ele>
        <time>2021-04-04T07:35:34Z</time>
      </trkpt>
      <trkpt lat="40.2814180" lon="-3.6169560">
        <ele>603.0</ele>
        <time>2021-04-04T07:35:35Z</time>
      </trkpt>
      <trkpt lat="40.2814060" lon="-3.6169290">
        <ele>603.2</ele>
        <time>2021-04-04T07:35:36Z</time>
      </trkpt>
      <trkpt lat="40.2813910" lon="-3.6169020">
        <ele>603.4</ele>
        <time>2021-04-04T07:35:37Z</time>
      </trkpt>
      <trkpt lat="40.2813760" lon="-3.6168750">
        <ele>603.6</ele>
        <time>2021-04-04T07:35:38Z</time>
      </trkpt>
      <trkpt lat="40.2813610" lon="-3.6168510">
        <ele>603.8</ele>
        <time>2021-04-04T07:35:39Z</time>
      </trkpt>
      <trkpt lat="40.2813450" lon="-3.6168280">
        <ele>604.0</ele>
        <time>2021-04-04T07:35:40Z</time>
      </trkpt>
      <trkpt lat="40.2813340" lon="-3.6168060">
        <ele>604.2</ele>
        <time>2021-04-04T07:35:41Z</time>
      </trkpt>
      <trkpt lat="40.2813190" lon="-3.6167820">
        <ele>604.4</ele>
        <time>2021-04-04T07:35:42Z</time>
      </trkpt>
      <trkpt lat="40.2813070" lon="-3.6167570">
        <ele>604.6</ele>
        <time>2021-04-04T07:35:43Z</time>
      </trkpt>
      <trkpt lat="40.2812920" lon="-3.6167320">
        <ele>604.6</ele>
        <time>2021-04-04T07:35:44Z</time>
      </trkpt>
      <trkpt lat="40.2812770" lon="-3.6167070">
        <ele>604.8</ele>
        <time>2021-04-04T07:35:45Z</time>
      </trkpt>
      <trkpt lat="40.2812610" lon="-3.6166820">
        <ele>604.8</ele>
        <time>2021-04-04T07:35:46Z</time>
      </trkpt>
      <trkpt lat="40.2812420" lon="-3.6166580">
        <ele>605.0</ele>
        <time>2021-04-04T07:35:47Z</time>
      </trkpt>
      <trkpt lat="40.2812270" lon="-3.6166350">
        <ele>605.0</ele>
        <time>2021-04-04T07:35:48Z</time>
      </trkpt>
      <trkpt lat="40.2812080" lon="-3.6166130">
        <ele>605.0</ele>
        <time>2021-04-04T07:35:49Z</time>
      </trkpt>
      <trkpt lat="40.2811930" lon="-3.6165910">
        <ele>605.2</ele>
        <time>2021-04-04T07:35:50Z</time>
      </trkpt>
      <trkpt lat="40.2811740" lon="-3.6165690">
        <ele>605.2</ele>
        <time>2021-04-04T07:35:51Z</time>
      </trkpt>
      <trkpt lat="40.2811510" lon="-3.6165460">
        <ele>605.2</ele>
        <time>2021-04-04T07:35:52Z</time>
      </trkpt>
      <trkpt lat="40.2811240" lon="-3.6165240">
        <ele>605.2</ele>
        <time>2021-04-04T07:35:53Z</time>
      </trkpt>
      <trkpt lat="40.2811010" lon="-3.6165020">
        <ele>605.2</ele>
        <time>2021-04-04T07:35:54Z</time>
      </trkpt>
      <trkpt lat="40.2810750" lon="-3.6164800">
        <ele>605.2</ele>
        <time>2021-04-04T07:35:55Z</time>
      </trkpt>
      <trkpt lat="40.2810480" lon="-3.6164580">
        <ele>605.2</ele>
        <time>2021-04-04T07:35:56Z</time>
      </trkpt>
      <trkpt lat="40.2810210" lon="-3.6164370">
        <ele>605.2</ele>
        <time>2021-04-04T07:35:57Z</time>
      </trkpt>
      <trkpt lat="40.2809910" lon="-3.6164210">
        <ele>605.2</ele>
        <time>2021-04-04T07:35:58Z</time>
      </trkpt>
      <trkpt lat="40.2809600" lon="-3.6164070">
        <ele>605.2</ele>
        <time>2021-04-04T07:35:59Z</time>
      </trkpt>
      <trkpt lat="40.2809330" lon="-3.6163960">
        <ele>605.0</ele>
        <time>2021-04-04T07:36:00Z</time>
      </trkpt>
      <trkpt lat="40.2809030" lon="-3.6163840">
        <ele>605.0</ele>
        <time>2021-04-04T07:36:01Z</time>
      </trkpt>
      <trkpt lat="40.2808760" lon="-3.6163730">
        <ele>605.0</ele>
        <time>2021-04-04T07:36:02Z</time>
      </trkpt>
      <trkpt lat="40.2808490" lon="-3.6163630">
        <ele>605.0</ele>
        <time>2021-04-04T07:36:03Z</time>
      </trkpt>
      <trkpt lat="40.2808190" lon="-3.6163540">
        <ele>605.0</ele>
        <time>2021-04-04T07:36:04Z</time>
      </trkpt>
      <trkpt lat="40.2807920" lon="-3.6163450">
        <ele>605.0</ele>
        <time>2021-04-04T07:36:05Z</time>
      </trkpt>
      <trkpt lat="40.2807620" lon="-3.6163370">
        <ele>605.0</ele>
        <time>2021-04-04T07:36:06Z</time>
      </trkpt>
      <trkpt lat="40.2807350" lon="-3.6163330">
        <ele>605.0</ele>
        <time>2021-04-04T07:36:07Z</time>
      </trkpt>
      <trkpt lat="40.2807050" lon="-3.6163330">
        <ele>605.0</ele>
        <time>2021-04-04T07:36:08Z</time>
      </trkpt>
      <trkpt lat="40.2806740" lon="-3.6163330">
        <ele>605.0</ele>
        <time>2021-04-04T07:36:09Z</time>
      </trkpt>
      <trkpt lat="40.2806430" lon="-3.6163330">
        <ele>605.0</ele>
        <time>2021-04-04T07:36:10Z</time>
      </trkpt>
      <trkpt lat="40.2806130" lon="-3.6163320">
        <ele>605.2</ele>
        <time>2021-04-04T07:36:11Z</time>
      </trkpt>
      <trkpt lat="40.2805820" lon="-3.6163320">
        <ele>605.2</ele>
        <time>2021-04-04T07:36:12Z</time>
      </trkpt>
      <trkpt lat="40.2805560" lon="-3.6163320">
        <ele>605.2</ele>
        <time>2021-04-04T07:36:13Z</time>
      </trkpt>
      <trkpt lat="40.2805250" lon="-3.6163330">
        <ele>605.2</ele>
        <time>2021-04-04T07:36:14Z</time>
      </trkpt>
      <trkpt lat="40.2804950" lon="-3.6163340">
        <ele>605.2</ele>
        <time>2021-04-04T07:36:15Z</time>
      </trkpt>
      <trkpt lat="40.2804680" lon="-3.6163340">
        <ele>605.2</ele>
        <time>2021-04-04T07:36:16Z</time>
      </trkpt>
      <trkpt lat="40.2804370" lon="-3.6163330">
        <ele>605.2</ele>
        <time>2021-04-04T07:36:17Z</time>
      </trkpt>
      <trkpt lat="40.2804110" lon="-3.6163300">
        <ele>605.2</ele>
        <time>2021-04-04T07:36:18Z</time>
      </trkpt>
      <trkpt lat="40.2803800" lon="-3.6163270">
        <ele>605.2</ele>
        <time>2021-04-04T07:36:19Z</time>
      </trkpt>
      <trkpt lat="40.2803500" lon="-3.6163240">
        <ele>605.2</ele>
        <time>2021-04-04T07:36:20Z</time>
      </trkpt>
      <trkpt lat="40.2803190" lon="-3.6163220">
        <ele>605.2</ele>
        <time>2021-04-04T07:36:21Z</time>
      </trkpt>
      <trkpt lat="40.2802890" lon="-3.6163190">
        <ele>605.2</ele>
        <time>2021-04-04T07:36:22Z</time>
      </trkpt>
      <trkpt lat="40.2802540" lon="-3.6163160">
        <ele>605.2</ele>
        <time>2021-04-04T07:36:23Z</time>
      </trkpt>
      <trkpt lat="40.2802240" lon="-3.6163150">
        <ele>605.2</ele>
        <time>2021-04-04T07:36:24Z</time>
      </trkpt>
      <trkpt lat="40.2801930" lon="-3.6163160">
        <ele>605.2</ele>
        <time>2021-04-04T07:36:25Z</time>
      </trkpt>
      <trkpt lat="40.2801670" lon="-3.6163180">
        <ele>605.2</ele>
        <time>2021-04-04T07:36:26Z</time>
      </trkpt>
      <trkpt lat="40.2801320" lon="-3.6163240">
        <ele>605.0</ele>
        <time>2021-04-04T07:36:27Z</time>
      </trkpt>
      <trkpt lat="40.2801020" lon="-3.6163300">
        <ele>605.0</ele>
        <time>2021-04-04T07:36:28Z</time>
      </trkpt>
      <trkpt lat="40.2800710" lon="-3.6163360">
        <ele>604.8</ele>
        <time>2021-04-04T07:36:29Z</time>
      </trkpt>
      <trkpt lat="40.2800370" lon="-3.6163440">
        <ele>604.8</ele>
        <time>2021-04-04T07:36:30Z</time>
      </trkpt>
      <trkpt lat="40.2800030" lon="-3.6163560">
        <ele>604.8</ele>
        <time>2021-04-04T07:36:31Z</time>
      </trkpt>
      <trkpt lat="40.2799640" lon="-3.6163700">
        <ele>604.6</ele>
        <time>2021-04-04T07:36:32Z</time>
      </trkpt>
      <trkpt lat="40.2799260" lon="-3.6163890">
        <ele>604.6</ele>
        <time>2021-04-04T07:36:33Z</time>
      </trkpt>
      <trkpt lat="40.2798920" lon="-3.6164070">
        <ele>604.6</ele>
        <time>2021-04-04T07:36:34Z</time>
      </trkpt>
      <trkpt lat="40.2798540" lon="-3.6164200">
        <ele>604.4</ele>
        <time>2021-04-04T07:36:35Z</time>
      </trkpt>
      <trkpt lat="40.2798160" lon="-3.6164290">
        <ele>604.4</ele>
        <time>2021-04-04T07:36:36Z</time>
      </trkpt>
      <trkpt lat="40.2797810" lon="-3.6164320">
        <ele>604.4</ele>
        <time>2021-04-04T07:36:37Z</time>
      </trkpt>
      <trkpt lat="40.2797430" lon="-3.6164320">
        <ele>604.4</ele>
        <time>2021-04-04T07:36:38Z</time>
      </trkpt>
      <trkpt lat="40.2797050" lon="-3.6164280">
        <ele>604.4</ele>
        <time>2021-04-04T07:36:39Z</time>
      </trkpt>
      <trkpt lat="40.2796670" lon="-3.6164220">
        <ele>604.4</ele>
        <time>2021-04-04T07:36:40Z</time>
      </trkpt>
      <trkpt lat="40.2796290" lon="-3.6164150">
        <ele>604.4</ele>
        <time>2021-04-04T07:36:41Z</time>
      </trkpt>
      <trkpt lat="40.2795940" lon="-3.6164030">
        <ele>604.2</ele>
        <time>2021-04-04T07:36:42Z</time>
      </trkpt>
      <trkpt lat="40.2795560" lon="-3.6163890">
        <ele>604.2</ele>
        <time>2021-04-04T07:36:43Z</time>
      </trkpt>
      <trkpt lat="40.2795220" lon="-3.6163710">
        <ele>604.2</ele>
        <time>2021-04-04T07:36:44Z</time>
      </trkpt>
      <trkpt lat="40.2794840" lon="-3.6163540">
        <ele>604.2</ele>
        <time>2021-04-04T07:36:45Z</time>
      </trkpt>
      <trkpt lat="40.2794490" lon="-3.6163440">
        <ele>604.2</ele>
        <time>2021-04-04T07:36:46Z</time>
      </trkpt>
      <trkpt lat="40.2794110" lon="-3.6163390">
        <ele>604.2</ele>
        <time>2021-04-04T07:36:47Z</time>
      </trkpt>
      <trkpt lat="40.2793770" lon="-3.6163350">
        <ele>604.2</ele>
        <time>2021-04-04T07:36:48Z</time>
      </trkpt>
      <trkpt lat="40.2793390" lon="-3.6163320">
        <ele>604.2</ele>
        <time>2021-04-04T07:36:49Z</time>
      </trkpt>
      <trkpt lat="40.2793010" lon="-3.6163310">
        <ele>604.2</ele>
        <time>2021-04-04T07:36:50Z</time>
      </trkpt>
      <trkpt lat="40.2792630" lon="-3.6163320">
        <ele>604.0</ele>
        <time>2021-04-04T07:36:51Z</time>
      </trkpt>
      <trkpt lat="40.2792210" lon="-3.6163360">
        <ele>603.8</ele>
        <time>2021-04-04T07:36:52Z</time>
      </trkpt>
      <trkpt lat="40.2791790" lon="-3.6163420">
        <ele>603.8</ele>
        <time>2021-04-04T07:36:53Z</time>
      </trkpt>
      <trkpt lat="40.2791330" lon="-3.6163490">
        <ele>603.6</ele>
        <time>2021-04-04T07:36:54Z</time>
      </trkpt>
      <trkpt lat="40.2790870" lon="-3.6163550">
        <ele>603.4</ele>
        <time>2021-04-04T07:36:55Z</time>
      </trkpt>
      <trkpt lat="40.2790410" lon="-3.6163580">
        <ele>603.4</ele>
        <time>2021-04-04T07:36:56Z</time>
      </trkpt>
      <trkpt lat="40.2789960" lon="-3.6163590">
        <ele>603.2</ele>
        <time>2021-04-04T07:36:57Z</time>
      </trkpt>
      <trkpt lat="40.2789540" lon="-3.6163640">
        <ele>603.2</ele>
        <time>2021-04-04T07:36:58Z</time>
      </trkpt>
      <trkpt lat="40.2789120" lon="-3.6163710">
        <ele>603.0</ele>
        <time>2021-04-04T07:36:59Z</time>
      </trkpt>
      <trkpt lat="40.2788700" lon="-3.6163760">
        <ele>603.0</ele>
        <time>2021-04-04T07:37:00Z</time>
      </trkpt>
      <trkpt lat="40.2788280" lon="-3.6163780">
        <ele>602.8</ele>
        <time>2021-04-04T07:37:01Z</time>
      </trkpt>
      <trkpt lat="40.2787860" lon="-3.6163770">
        <ele>602.8</ele>
        <time>2021-04-04T07:37:02Z</time>
      </trkpt>
      <trkpt lat="40.2787400" lon="-3.6163800">
        <ele>602.6</ele>
        <time>2021-04-04T07:37:03Z</time>
      </trkpt>
      <trkpt lat="40.2786980" lon="-3.6163860">
        <ele>602.6</ele>
        <time>2021-04-04T07:37:04Z</time>
      </trkpt>
      <trkpt lat="40.2786600" lon="-3.6163950">
        <ele>602.4</ele>
        <time>2021-04-04T07:37:05Z</time>
      </trkpt>
      <trkpt lat="40.2786140" lon="-3.6164020">
        <ele>602.4</ele>
        <time>2021-04-04T07:37:06Z</time>
      </trkpt>
      <trkpt lat="40.2785680" lon="-3.6164080">
        <ele>602.2</ele>
        <time>2021-04-04T07:37:07Z</time>
      </trkpt>
      <trkpt lat="40.2785260" lon="-3.6164140">
        <ele>602.2</ele>
        <time>2021-04-04T07:37:08Z</time>
      </trkpt>
      <trkpt lat="40.2784810" lon="-3.6164220">
        <ele>602.0</ele>
        <time>2021-04-04T07:37:09Z</time>
      </trkpt>
      <trkpt lat="40.2784310" lon="-3.6164310">
        <ele>602.0</ele>
        <time>2021-04-04T07:37:10Z</time>
      </trkpt>
      <trkpt lat="40.2783850" lon="-3.6164380">
        <ele>602.0</ele>
        <time>2021-04-04T07:37:11Z</time>
      </trkpt>
      <trkpt lat="40.2783390" lon="-3.6164470">
        <ele>601.8</ele>
        <time>2021-04-04T07:37:12Z</time>
      </trkpt>
      <trkpt lat="40.2782900" lon="-3.6164540">
        <ele>601.8</ele>
        <time>2021-04-04T07:37:13Z</time>
      </trkpt>
      <trkpt lat="40.2782400" lon="-3.6164600">
        <ele>601.6</ele>
        <time>2021-04-04T07:37:14Z</time>
      </trkpt>
      <trkpt lat="40.2781910" lon="-3.6164650">
        <ele>601.6</ele>
        <time>2021-04-04T07:37:15Z</time>
      </trkpt>
      <trkpt lat="40.2781410" lon="-3.6164700">
        <ele>601.6</ele>
        <time>2021-04-04T07:37:16Z</time>
      </trkpt>
      <trkpt lat="40.2780910" lon="-3.6164740">
        <ele>601.6</ele>
        <time>2021-04-04T07:37:17Z</time>
      </trkpt>
      <trkpt lat="40.2780420" lon="-3.6164760">
        <ele>601.4</ele>
        <time>2021-04-04T07:37:18Z</time>
      </trkpt>
      <trkpt lat="40.2779920" lon="-3.6164770">
        <ele>601.4</ele>
        <time>2021-04-04T07:37:19Z</time>
      </trkpt>
      <trkpt lat="40.2779430" lon="-3.6164780">
        <ele>601.4</ele>
        <time>2021-04-04T07:37:20Z</time>
      </trkpt>
      <trkpt lat="40.2778970" lon="-3.6164780">
        <ele>601.2</ele>
        <time>2021-04-04T07:37:21Z</time>
      </trkpt>
      <trkpt lat="40.2778510" lon="-3.6164850">
        <ele>601.2</ele>
        <time>2021-04-04T07:37:22Z</time>
      </trkpt>
      <trkpt lat="40.2778050" lon="-3.6164990">
        <ele>601.0</ele>
        <time>2021-04-04T07:37:23Z</time>
      </trkpt>
      <trkpt lat="40.2777600" lon="-3.6165200">
        <ele>600.8</ele>
        <time>2021-04-04T07:37:24Z</time>
      </trkpt>
      <trkpt lat="40.2777140" lon="-3.6165490">
        <ele>600.6</ele>
        <time>2021-04-04T07:37:25Z</time>
      </trkpt>
      <trkpt lat="40.2776640" lon="-3.6165810">
        <ele>600.4</ele>
        <time>2021-04-04T07:37:26Z</time>
      </trkpt>
      <trkpt lat="40.2776110" lon="-3.6166150">
        <ele>600.0</ele>
        <time>2021-04-04T07:37:27Z</time>
      </trkpt>
      <trkpt lat="40.2775610" lon="-3.6166460">
        <ele>599.8</ele>
        <time>2021-04-04T07:37:28Z</time>
      </trkpt>
      <trkpt lat="40.2775120" lon="-3.6166740">
        <ele>599.6</ele>
        <time>2021-04-04T07:37:29Z</time>
      </trkpt>
      <trkpt lat="40.2774620" lon="-3.6167000">
        <ele>599.4</ele>
        <time>2021-04-04T07:37:30Z</time>
      </trkpt>
      <trkpt lat="40.2774090" lon="-3.6167230">
        <ele>599.2</ele>
        <time>2021-04-04T07:37:31Z</time>
      </trkpt>
      <trkpt lat="40.2773550" lon="-3.6167400">
        <ele>598.8</ele>
        <time>2021-04-04T07:37:32Z</time>
      </trkpt>
      <trkpt lat="40.2772980" lon="-3.6167520">
        <ele>598.6</ele>
        <time>2021-04-04T07:37:33Z</time>
      </trkpt>
      <trkpt lat="40.2772450" lon="-3.6167610">
        <ele>598.4</ele>
        <time>2021-04-04T07:37:34Z</time>
      </trkpt>
      <trkpt lat="40.2771870" lon="-3.6167660">
        <ele>598.2</ele>
        <time>2021-04-04T07:37:35Z</time>
      </trkpt>
      <trkpt lat="40.2771340" lon="-3.6167690">
        <ele>598.2</ele>
        <time>2021-04-04T07:37:36Z</time>
      </trkpt>
      <trkpt lat="40.2770770" lon="-3.6167690">
        <ele>598.0</ele>
        <time>2021-04-04T07:37:37Z</time>
      </trkpt>
      <trkpt lat="40.2770230" lon="-3.6167680">
        <ele>597.8</ele>
        <time>2021-04-04T07:37:38Z</time>
      </trkpt>
      <trkpt lat="40.2769660" lon="-3.6167680">
        <ele>597.8</ele>
        <time>2021-04-04T07:37:39Z</time>
      </trkpt>
      <trkpt lat="40.2769130" lon="-3.6167680">
        <ele>597.6</ele>
        <time>2021-04-04T07:37:40Z</time>
      </trkpt>
      <trkpt lat="40.2768590" lon="-3.6167680">
        <ele>597.6</ele>
        <time>2021-04-04T07:37:41Z</time>
      </trkpt>
      <trkpt lat="40.2768100" lon="-3.6167640">
        <ele>597.4</ele>
        <time>2021-04-04T07:37:42Z</time>
      </trkpt>
      <trkpt lat="40.2767640" lon="-3.6167560">
        <ele>597.4</ele>
        <time>2021-04-04T07:37:43Z</time>
      </trkpt>
      <trkpt lat="40.2767180" lon="-3.6167550">
        <ele>597.4</ele>
        <time>2021-04-04T07:37:44Z</time>
      </trkpt>
      <trkpt lat="40.2766690" lon="-3.6167640">
        <ele>597.4</ele>
        <time>2021-04-04T07:37:45Z</time>
      </trkpt>
      <trkpt lat="40.2766230" lon="-3.6167830">
        <ele>597.4</ele>
        <time>2021-04-04T07:37:46Z</time>
      </trkpt>
      <trkpt lat="40.2765770" lon="-3.6168020">
        <ele>597.2</ele>
        <time>2021-04-04T07:37:47Z</time>
      </trkpt>
      <trkpt lat="40.2765270" lon="-3.6168160">
        <ele>597.2</ele>
        <time>2021-04-04T07:37:48Z</time>
      </trkpt>
      <trkpt lat="40.2764740" lon="-3.6168230">
        <ele>597.2</ele>
        <time>2021-04-04T07:37:49Z</time>
      </trkpt>
      <trkpt lat="40.2764210" lon="-3.6168270">
        <ele>597.2</ele>
        <time>2021-04-04T07:37:50Z</time>
      </trkpt>
      <trkpt lat="40.2763710" lon="-3.6168340">
        <ele>597.2</ele>
        <time>2021-04-04T07:37:51Z</time>
      </trkpt>
      <trkpt lat="40.2763180" lon="-3.6168440">
        <ele>597.2</ele>
        <time>2021-04-04T07:37:52Z</time>
      </trkpt>
      <trkpt lat="40.2762640" lon="-3.6168530">
        <ele>597.2</ele>
        <time>2021-04-04T07:37:53Z</time>
      </trkpt>
      <trkpt lat="40.2762150" lon="-3.6168610">
        <ele>597.2</ele>
        <time>2021-04-04T07:37:54Z</time>
      </trkpt>
      <trkpt lat="40.2761650" lon="-3.6168690">
        <ele>597.2</ele>
        <time>2021-04-04T07:37:55Z</time>
      </trkpt>
      <trkpt lat="40.2761120" lon="-3.6168770">
        <ele>597.2</ele>
        <time>2021-04-04T07:37:56Z</time>
      </trkpt>
      <trkpt lat="40.2760620" lon="-3.6168870">
        <ele>597.0</ele>
        <time>2021-04-04T07:37:57Z</time>
      </trkpt>
      <trkpt lat="40.2760120" lon="-3.6168940">
        <ele>597.0</ele>
        <time>2021-04-04T07:37:58Z</time>
      </trkpt>
      <trkpt lat="40.2759700" lon="-3.6168990">
        <ele>597.0</ele>
        <time>2021-04-04T07:37:59Z</time>
      </trkpt>
      <trkpt lat="40.2759290" lon="-3.6169070">
        <ele>597.0</ele>
        <time>2021-04-04T07:38:00Z</time>
      </trkpt>
      <trkpt lat="40.2758870" lon="-3.6169160">
        <ele>596.8</ele>
        <time>2021-04-04T07:38:01Z</time>
      </trkpt>
      <trkpt lat="40.2758410" lon="-3.6169250">
        <ele>596.8</ele>
        <time>2021-04-04T07:38:02Z</time>
      </trkpt>
      <trkpt lat="40.2757990" lon="-3.6169350">
        <ele>596.8</ele>
        <time>2021-04-04T07:38:03Z</time>
      </trkpt>
      <trkpt lat="40.2757570" lon="-3.6169430">
        <ele>596.6</ele>
        <time>2021-04-04T07:38:04Z</time>
      </trkpt>
      <trkpt lat="40.2757110" lon="-3.6169490">
        <ele>596.6</ele>
        <time>2021-04-04T07:38:05Z</time>
      </trkpt>
      <trkpt lat="40.2756690" lon="-3.6169560">
        <ele>596.4</ele>
        <time>2021-04-04T07:38:06Z</time>
      </trkpt>
      <trkpt lat="40.2756270" lon="-3.6169640">
        <ele>596.4</ele>
        <time>2021-04-04T07:38:07Z</time>
      </trkpt>
      <trkpt lat="40.2755810" lon="-3.6169760">
        <ele>596.2</ele>
        <time>2021-04-04T07:38:08Z</time>
      </trkpt>
      <trkpt lat="40.2755360" lon="-3.6169910">
        <ele>596.2</ele>
        <time>2021-04-04T07:38:09Z</time>
      </trkpt>
      <trkpt lat="40.2754940" lon="-3.6170100">
        <ele>596.2</ele>
        <time>2021-04-04T07:38:10Z</time>
      </trkpt>
      <trkpt lat="40.2754480" lon="-3.6170340">
        <ele>596.0</ele>
        <time>2021-04-04T07:38:11Z</time>
      </trkpt>
      <trkpt lat="40.2754100" lon="-3.6170610">
        <ele>596.0</ele>
        <time>2021-04-04T07:38:12Z</time>
      </trkpt>
      <trkpt lat="40.2753680" lon="-3.6170910">
        <ele>596.0</ele>
        <time>2021-04-04T07:38:13Z</time>
      </trkpt>
      <trkpt lat="40.2753330" lon="-3.6171220">
        <ele>595.8</ele>
        <time>2021-04-04T07:38:14Z</time>
      </trkpt>
      <trkpt lat="40.2752950" lon="-3.6171550">
        <ele>595.8</ele>
        <time>2021-04-04T07:38:15Z</time>
      </trkpt>
      <trkpt lat="40.2752530" lon="-3.6171880">
        <ele>595.6</ele>
        <time>2021-04-04T07:38:16Z</time>
      </trkpt>
      <trkpt lat="40.2752110" lon="-3.6172200">
        <ele>595.4</ele>
        <time>2021-04-04T07:38:17Z</time>
      </trkpt>
      <trkpt lat="40.2751660" lon="-3.6172490">
        <ele>595.2</ele>
        <time>2021-04-04T07:38:18Z</time>
      </trkpt>
      <trkpt lat="40.2751160" lon="-3.6172760">
        <ele>595.0</ele>
        <time>2021-04-04T07:38:19Z</time>
      </trkpt>
      <trkpt lat="40.2750660" lon="-3.6172990">
        <ele>594.8</ele>
        <time>2021-04-04T07:38:20Z</time>
      </trkpt>
      <trkpt lat="40.2750130" lon="-3.6173150">
        <ele>594.6</ele>
        <time>2021-04-04T07:38:21Z</time>
      </trkpt>
      <trkpt lat="40.2749560" lon="-3.6173270">
        <ele>594.2</ele>
        <time>2021-04-04T07:38:22Z</time>
      </trkpt>
      <trkpt lat="40.2748990" lon="-3.6173370">
        <ele>594.0</ele>
        <time>2021-04-04T07:38:23Z</time>
      </trkpt>
      <trkpt lat="40.2748410" lon="-3.6173440">
        <ele>593.6</ele>
        <time>2021-04-04T07:38:24Z</time>
      </trkpt>
      <trkpt lat="40.2747800" lon="-3.6173490">
        <ele>593.4</ele>
        <time>2021-04-04T07:38:25Z</time>
      </trkpt>
      <trkpt lat="40.2747150" lon="-3.6173490">
        <ele>593.0</ele>
        <time>2021-04-04T07:38:26Z</time>
      </trkpt>
      <trkpt lat="40.2746470" lon="-3.6173450">
        <ele>592.6</ele>
        <time>2021-04-04T07:38:27Z</time>
      </trkpt>
      <trkpt lat="40.2745820" lon="-3.6173360">
        <ele>592.4</ele>
        <time>2021-04-04T07:38:28Z</time>
      </trkpt>
      <trkpt lat="40.2745130" lon="-3.6173250">
        <ele>592.0</ele>
        <time>2021-04-04T07:38:29Z</time>
      </trkpt>
      <trkpt lat="40.2744450" lon="-3.6173110">
        <ele>591.6</ele>
        <time>2021-04-04T07:38:30Z</time>
      </trkpt>
      <trkpt lat="40.2743760" lon="-3.6172980">
        <ele>591.2</ele>
        <time>2021-04-04T07:38:31Z</time>
      </trkpt>
      <trkpt lat="40.2743070" lon="-3.6172850">
        <ele>591.0</ele>
        <time>2021-04-04T07:38:32Z</time>
      </trkpt>
      <trkpt lat="40.2742390" lon="-3.6172780">
        <ele>590.6</ele>
        <time>2021-04-04T07:38:33Z</time>
      </trkpt>
      <trkpt lat="40.2741700" lon="-3.6172720">
        <ele>590.4</ele>
        <time>2021-04-04T07:38:34Z</time>
      </trkpt>
      <trkpt lat="40.2741010" lon="-3.6172650">
        <ele>590.2</ele>
        <time>2021-04-04T07:38:35Z</time>
      </trkpt>
      <trkpt lat="40.2740330" lon="-3.6172630">
        <ele>590.0</ele>
        <time>2021-04-04T07:38:36Z</time>
      </trkpt>
      <trkpt lat="40.2739600" lon="-3.6172640">
        <ele>589.8</ele>
        <time>2021-04-04T07:38:37Z</time>
      </trkpt>
      <trkpt lat="40.2738950" lon="-3.6172680">
        <ele>589.6</ele>
        <time>2021-04-04T07:38:38Z</time>
      </trkpt>
      <trkpt lat="40.2738300" lon="-3.6172800">
        <ele>589.4</ele>
        <time>2021-04-04T07:38:39Z</time>
      </trkpt>
      <trkpt lat="40.2737660" lon="-3.6172980">
        <ele>589.4</ele>
        <time>2021-04-04T07:38:40Z</time>
      </trkpt>
      <trkpt lat="40.2737050" lon="-3.6173170">
        <ele>589.4</ele>
        <time>2021-04-04T07:38:41Z</time>
      </trkpt>
      <trkpt lat="40.2736430" lon="-3.6173290">
        <ele>589.2</ele>
        <time>2021-04-04T07:38:42Z</time>
      </trkpt>
      <trkpt lat="40.2735900" lon="-3.6173380">
        <ele>589.2</ele>
        <time>2021-04-04T07:38:43Z</time>
      </trkpt>
      <trkpt lat="40.2735330" lon="-3.6173470">
        <ele>589.2</ele>
        <time>2021-04-04T07:38:44Z</time>
      </trkpt>
      <trkpt lat="40.2734800" lon="-3.6173580">
        <ele>589.2</ele>
        <time>2021-04-04T07:38:45Z</time>
      </trkpt>
      <trkpt lat="40.2734260" lon="-3.6173720">
        <ele>589.0</ele>
        <time>2021-04-04T07:38:46Z</time>
      </trkpt>
      <trkpt lat="40.2733730" lon="-3.6173850">
        <ele>589.0</ele>
        <time>2021-04-04T07:38:47Z</time>
      </trkpt>
      <trkpt lat="40.2733190" lon="-3.6174000">
        <ele>589.0</ele>
        <time>2021-04-04T07:38:48Z</time>
      </trkpt>
      <trkpt lat="40.2732700" lon="-3.6174140">
        <ele>589.0</ele>
        <time>2021-04-04T07:38:49Z</time>
      </trkpt>
      <trkpt lat="40.2732200" lon="-3.6174250">
        <ele>589.0</ele>
        <time>2021-04-04T07:38:50Z</time>
      </trkpt>
      <trkpt lat="40.2731700" lon="-3.6174350">
        <ele>589.2</ele>
        <time>2021-04-04T07:38:51Z</time>
      </trkpt>
      <trkpt lat="40.2731250" lon="-3.6174450">
        <ele>589.2</ele>
        <time>2021-04-04T07:38:52Z</time>
      </trkpt>
      <trkpt lat="40.2730830" lon="-3.6174530">
        <ele>589.4</ele>
        <time>2021-04-04T07:38:53Z</time>
      </trkpt>
      <trkpt lat="40.2730410" lon="-3.6174610">
        <ele>589.4</ele>
        <time>2021-04-04T07:38:54Z</time>
      </trkpt>
      <trkpt lat="40.2729990" lon="-3.6174710">
        <ele>589.6</ele>
        <time>2021-04-04T07:38:55Z</time>
      </trkpt>
      <trkpt lat="40.2729650" lon="-3.6174830">
        <ele>589.8</ele>
        <time>2021-04-04T07:38:56Z</time>
      </trkpt>
      <trkpt lat="40.2729260" lon="-3.6174970">
        <ele>589.8</ele>
        <time>2021-04-04T07:38:57Z</time>
      </trkpt>
      <trkpt lat="40.2728880" lon="-3.6175120">
        <ele>590.0</ele>
        <time>2021-04-04T07:38:58Z</time>
      </trkpt>
      <trkpt lat="40.2728580" lon="-3.6175260">
        <ele>590.2</ele>
        <time>2021-04-04T07:38:59Z</time>
      </trkpt>
      <trkpt lat="40.2728200" lon="-3.6175410">
        <ele>590.4</ele>
        <time>2021-04-04T07:39:00Z</time>
      </trkpt>
      <trkpt lat="40.2727850" lon="-3.6175580">
        <ele>590.4</ele>
        <time>2021-04-04T07:39:01Z</time>
      </trkpt>
      <trkpt lat="40.2727550" lon="-3.6175780">
        <ele>590.4</ele>
        <time>2021-04-04T07:39:02Z</time>
      </trkpt>
      <trkpt lat="40.2727200" lon="-3.6175990">
        <ele>590.4</ele>
        <time>2021-04-04T07:39:03Z</time>
      </trkpt>
      <trkpt lat="40.2726860" lon="-3.6176200">
        <ele>590.4</ele>
        <time>2021-04-04T07:39:04Z</time>
      </trkpt>
      <trkpt lat="40.2726480" lon="-3.6176450">
        <ele>590.4</ele>
        <time>2021-04-04T07:39:05Z</time>
      </trkpt>
      <trkpt lat="40.2726100" lon="-3.6176700">
        <ele>590.4</ele>
        <time>2021-04-04T07:39:06Z</time>
      </trkpt>
      <trkpt lat="40.2725680" lon="-3.6176970">
        <ele>590.2</ele>
        <time>2021-04-04T07:39:07Z</time>
      </trkpt>
      <trkpt lat="40.2725300" lon="-3.6177250">
        <ele>590.2</ele>
        <time>2021-04-04T07:39:08Z</time>
      </trkpt>
      <trkpt lat="40.2724880" lon="-3.6177560">
        <ele>590.0</ele>
        <time>2021-04-04T07:39:09Z</time>
      </trkpt>
      <trkpt lat="40.2724500" lon="-3.6177890">
        <ele>589.8</ele>
        <time>2021-04-04T07:39:10Z</time>
      </trkpt>
      <trkpt lat="40.2724040" lon="-3.6178200">
        <ele>589.6</ele>
        <time>2021-04-04T07:39:11Z</time>
      </trkpt>
      <trkpt lat="40.2723620" lon="-3.6178500">
        <ele>589.4</ele>
        <time>2021-04-04T07:39:12Z</time>
      </trkpt>
      <trkpt lat="40.2723200" lon="-3.6178800">
        <ele>589.4</ele>
        <time>2021-04-04T07:39:13Z</time>
      </trkpt>
      <trkpt lat="40.2722740" lon="-3.6179110">
        <ele>589.2</ele>
        <time>2021-04-04T07:39:14Z</time>
      </trkpt>
      <trkpt lat="40.2722280" lon="-3.6179420">
        <ele>589.0</ele>
        <time>2021-04-04T07:39:15Z</time>
      </trkpt>
      <trkpt lat="40.2721820" lon="-3.6179700">
        <ele>589.0</ele>
        <time>2021-04-04T07:39:16Z</time>
      </trkpt>
      <trkpt lat="40.2721330" lon="-3.6179930">
        <ele>588.8</ele>
        <time>2021-04-04T07:39:17Z</time>
      </trkpt>
      <trkpt lat="40.2720870" lon="-3.6180130">
        <ele>588.8</ele>
        <time>2021-04-04T07:39:18Z</time>
      </trkpt>
      <trkpt lat="40.2720410" lon="-3.6180300">
        <ele>588.8</ele>
        <time>2021-04-04T07:39:19Z</time>
      </trkpt>
      <trkpt lat="40.2719960" lon="-3.6180490">
        <ele>588.8</ele>
        <time>2021-04-04T07:39:20Z</time>
      </trkpt>
      <trkpt lat="40.2719540" lon="-3.6180690">
        <ele>588.6</ele>
        <time>2021-04-04T07:39:21Z</time>
      </trkpt>
      <trkpt lat="40.2719120" lon="-3.6180910">
        <ele>588.6</ele>
        <time>2021-04-04T07:39:22Z</time>
      </trkpt>
      <trkpt lat="40.2718660" lon="-3.6181120">
        <ele>588.4</ele>
        <time>2021-04-04T07:39:23Z</time>
      </trkpt>
      <trkpt lat="40.2718160" lon="-3.6181340">
        <ele>588.2</ele>
        <time>2021-04-04T07:39:24Z</time>
      </trkpt>
      <trkpt lat="40.2717710" lon="-3.6181590">
        <ele>588.0</ele>
        <time>2021-04-04T07:39:25Z</time>
      </trkpt>
      <trkpt lat="40.2717210" lon="-3.6181850">
        <ele>587.8</ele>
        <time>2021-04-04T07:39:26Z</time>
      </trkpt>
      <trkpt lat="40.2716710" lon="-3.6182100">
        <ele>587.6</ele>
        <time>2021-04-04T07:39:27Z</time>
      </trkpt>
      <trkpt lat="40.2716220" lon="-3.6182350">
        <ele>587.4</ele>
        <time>2021-04-04T07:39:28Z</time>
      </trkpt>
      <trkpt lat="40.2715760" lon="-3.6182580">
        <ele>587.2</ele>
        <time>2021-04-04T07:39:29Z</time>
      </trkpt>
      <trkpt lat="40.2715260" lon="-3.6182810">
        <ele>587.2</ele>
        <time>2021-04-04T07:39:30Z</time>
      </trkpt>
      <trkpt lat="40.2714770" lon="-3.6183030">
        <ele>587.0</ele>
        <time>2021-04-04T07:39:31Z</time>
      </trkpt>
      <trkpt lat="40.2714350" lon="-3.6183270">
        <ele>586.8</ele>
        <time>2021-04-04T07:39:32Z</time>
      </trkpt>
      <trkpt lat="40.2713930" lon="-3.6183550">
        <ele>586.8</ele>
        <time>2021-04-04T07:39:33Z</time>
      </trkpt>
      <trkpt lat="40.2713550" lon="-3.6183840">
        <ele>586.8</ele>
        <time>2021-04-04T07:39:34Z</time>
      </trkpt>
      <trkpt lat="40.2713130" lon="-3.6184080">
        <ele>586.8</ele>
        <time>2021-04-04T07:39:35Z</time>
      </trkpt>
      <trkpt lat="40.2712670" lon="-3.6184300">
        <ele>586.6</ele>
        <time>2021-04-04T07:39:36Z</time>
      </trkpt>
      <trkpt lat="40.2712250" lon="-3.6184540">
        <ele>586.6</ele>
        <time>2021-04-04T07:39:37Z</time>
      </trkpt>
      <trkpt lat="40.2711830" lon="-3.6184870">
        <ele>586.4</ele>
        <time>2021-04-04T07:39:38Z</time>
      </trkpt>
      <trkpt lat="40.2711490" lon="-3.6185260">
        <ele>586.4</ele>
        <time>2021-04-04T07:39:39Z</time>
      </trkpt>
      <trkpt lat="40.2711140" lon="-3.6185600">
        <ele>586.2</ele>
        <time>2021-04-04T07:39:40Z</time>
      </trkpt>
      <trkpt lat="40.2710760" lon="-3.6185790">
        <ele>586.2</ele>
        <time>2021-04-04T07:39:41Z</time>
      </trkpt>
      <trkpt lat="40.2710420" lon="-3.6185770">
        <ele>586.2</ele>
        <time>2021-04-04T07:39:42Z</time>
      </trkpt>
      <trkpt lat="40.2710150" lon="-3.6185520">
        <ele>586.2</ele>
        <time>2021-04-04T07:39:43Z</time>
      </trkpt>
      <trkpt lat="40.2709920" lon="-3.6185130">
        <ele>586.0</ele>
        <time>2021-04-04T07:39:44Z</time>
      </trkpt>
      <trkpt lat="40.2709770" lon="-3.6184690">
        <ele>586.0</ele>
        <time>2021-04-04T07:39:45Z</time>
      </trkpt>
      <trkpt lat="40.2709620" lon="-3.6184230">
        <ele>585.8</ele>
        <time>2021-04-04T07:39:46Z</time>
      </trkpt>
      <trkpt lat="40.2709460" lon="-3.6183750">
        <ele>585.8</ele>
        <time>2021-04-04T07:39:47Z</time>
      </trkpt>
      <trkpt lat="40.2709270" lon="-3.6183280">
        <ele>585.8</ele>
        <time>2021-04-04T07:39:48Z</time>
      </trkpt>
      <trkpt lat="40.2709120" lon="-3.6182800">
        <ele>585.6</ele>
        <time>2021-04-04T07:39:49Z</time>
      </trkpt>
      <trkpt lat="40.2708930" lon="-3.6182310">
        <ele>585.6</ele>
        <time>2021-04-04T07:39:50Z</time>
      </trkpt>
      <trkpt lat="40.2708740" lon="-3.6181820">
        <ele>585.6</ele>
        <time>2021-04-04T07:39:51Z</time>
      </trkpt>
      <trkpt lat="40.2708550" lon="-3.6181350">
        <ele>585.6</ele>
        <time>2021-04-04T07:39:52Z</time>
      </trkpt>
      <trkpt lat="40.2708360" lon="-3.6180870">
        <ele>585.6</ele>
        <time>2021-04-04T07:39:53Z</time>
      </trkpt>
      <trkpt lat="40.2708210" lon="-3.6180380">
        <ele>585.4</ele>
        <time>2021-04-04T07:39:54Z</time>
      </trkpt>
      <trkpt lat="40.2708050" lon="-3.6179910">
        <ele>585.4</ele>
        <time>2021-04-04T07:39:55Z</time>
      </trkpt>
      <trkpt lat="40.2707820" lon="-3.6179490">
        <ele>585.4</ele>
        <time>2021-04-04T07:39:56Z</time>
      </trkpt>
      <trkpt lat="40.2707600" lon="-3.6179080">
        <ele>585.4</ele>
        <time>2021-04-04T07:39:57Z</time>
      </trkpt>
      <trkpt lat="40.2707370" lon="-3.6178670">
        <ele>585.4</ele>
        <time>2021-04-04T07:39:58Z</time>
      </trkpt>
      <trkpt lat="40.2707140" lon="-3.6178250">
        <ele>585.4</ele>
        <time>2021-04-04T07:39:59Z</time>
      </trkpt>
      <trkpt lat="40.2706950" lon="-3.6177800">
        <ele>585.4</ele>
        <time>2021-04-04T07:40:00Z</time>
      </trkpt>
      <trkpt lat="40.2706760" lon="-3.6177370">
        <ele>585.4</ele>
        <time>2021-04-04T07:40:01Z</time>
      </trkpt>
      <trkpt lat="40.2706530" lon="-3.6176930">
        <ele>585.4</ele>
        <time>2021-04-04T07:40:02Z</time>
      </trkpt>
      <trkpt lat="40.2706340" lon="-3.6176490">
        <ele>585.6</ele>
        <time>2021-04-04T07:40:03Z</time>
      </trkpt>
      <trkpt lat="40.2706150" lon="-3.6176080">
        <ele>585.6</ele>
        <time>2021-04-04T07:40:04Z</time>
      </trkpt>
      <trkpt lat="40.2705960" lon="-3.6175650">
        <ele>585.6</ele>
        <time>2021-04-04T07:40:05Z</time>
      </trkpt>
      <trkpt lat="40.2705770" lon="-3.6175230">
        <ele>585.6</ele>
        <time>2021-04-04T07:40:06Z</time>
      </trkpt>
      <trkpt lat="40.2705570" lon="-3.6174830">
        <ele>585.8</ele>
        <time>2021-04-04T07:40:07Z</time>
      </trkpt>
      <trkpt lat="40.2705380" lon="-3.6174430">
        <ele>585.8</ele>
        <time>2021-04-04T07:40:08Z</time>
      </trkpt>
      <trkpt lat="40.2705230" lon="-3.6174040">
        <ele>586.0</ele>
        <time>2021-04-04T07:40:09Z</time>
      </trkpt>
      <trkpt lat="40.2705080" lon="-3.6173650">
        <ele>586.0</ele>
        <time>2021-04-04T07:40:10Z</time>
      </trkpt>
      <trkpt lat="40.2704930" lon="-3.6173260">
        <ele>586.2</ele>
        <time>2021-04-04T07:40:11Z</time>
      </trkpt>
      <trkpt lat="40.2704770" lon="-3.6172870">
        <ele>586.2</ele>
        <time>2021-04-04T07:40:12Z</time>
      </trkpt>
      <trkpt lat="40.2704620" lon="-3.6172490">
        <ele>586.4</ele>
        <time>2021-04-04T07:40:13Z</time>
      </trkpt>
      <trkpt lat="40.2704470" lon="-3.6172100">
        <ele>586.4</ele>
        <time>2021-04-04T07:40:14Z</time>
      </trkpt>
      <trkpt lat="40.2704280" lon="-3.6171710">
        <ele>586.6</ele>
        <time>2021-04-04T07:40:15Z</time>
      </trkpt>
      <trkpt lat="40.2704120" lon="-3.6171350">
        <ele>586.8</ele>
        <time>2021-04-04T07:40:16Z</time>
      </trkpt>
      <trkpt lat="40.2703930" lon="-3.6170980">
        <ele>586.8</ele>
        <time>2021-04-04T07:40:17Z</time>
      </trkpt>
      <trkpt lat="40.2703740" lon="-3.6170630">
        <ele>587.0</ele>
        <time>2021-04-04T07:40:18Z</time>
      </trkpt>
      <trkpt lat="40.2703550" lon="-3.6170280">
        <ele>587.2</ele>
        <time>2021-04-04T07:40:19Z</time>
      </trkpt>
      <trkpt lat="40.2703360" lon="-3.6169910">
        <ele>587.2</ele>
        <time>2021-04-04T07:40:20Z</time>
      </trkpt>
      <trkpt lat="40.2703250" lon="-3.6169530">
        <ele>587.4</ele>
        <time>2021-04-04T07:40:21Z</time>
      </trkpt>
      <trkpt lat="40.2703130" lon="-3.6169140">
        <ele>587.6</ele>
        <time>2021-04-04T07:40:22Z</time>
      </trkpt>
      <trkpt lat="40.2702940" lon="-3.6168770">
        <ele>587.8</ele>
        <time>2021-04-04T07:40:23Z</time>
      </trkpt>
      <trkpt lat="40.2702750" lon="-3.6168410">
        <ele>588.0</ele>
        <time>2021-04-04T07:40:24Z</time>
      </trkpt>
      <trkpt lat="40.2702600" lon="-3.6168050">
        <ele>588.2</ele>
        <time>2021-04-04T07:40:25Z</time>
      </trkpt>
      <trkpt lat="40.2702450" lon="-3.6167700">
        <ele>588.6</ele>
        <time>2021-04-04T07:40:26Z</time>
      </trkpt>
      <trkpt lat="40.2702290" lon="-3.6167350">
        <ele>588.8</ele>
        <time>2021-04-04T07:40:27Z</time>
      </trkpt>
      <trkpt lat="40.2702140" lon="-3.6166990">
        <ele>589.0</ele>
        <time>2021-04-04T07:40:28Z</time>
      </trkpt>
      <trkpt lat="40.2701990" lon="-3.6166620">
        <ele>589.2</ele>
        <time>2021-04-04T07:40:29Z</time>
      </trkpt>
      <trkpt lat="40.2701800" lon="-3.6166250">
        <ele>589.4</ele>
        <time>2021-04-04T07:40:30Z</time>
      </trkpt>
      <trkpt lat="40.2701640" lon="-3.6165870">
        <ele>589.6</ele>
        <time>2021-04-04T07:40:31Z</time>
      </trkpt>
      <trkpt lat="40.2701530" lon="-3.6165460">
        <ele>589.8</ele>
        <time>2021-04-04T07:40:32Z</time>
      </trkpt>
      <trkpt lat="40.2701340" lon="-3.6165060">
        <ele>590.2</ele>
        <time>2021-04-04T07:40:33Z</time>
      </trkpt>
      <trkpt lat="40.2701150" lon="-3.6164670">
        <ele>590.4</ele>
        <time>2021-04-04T07:40:34Z</time>
      </trkpt>
      <trkpt lat="40.2701000" lon="-3.6164280">
        <ele>590.6</ele>
        <time>2021-04-04T07:40:35Z</time>
      </trkpt>
      <trkpt lat="40.2700810" lon="-3.6163890">
        <ele>591.0</ele>
        <time>2021-04-04T07:40:36Z</time>
      </trkpt>
      <trkpt lat="40.2700650" lon="-3.6163470">
        <ele>591.2</ele>
        <time>2021-04-04T07:40:37Z</time>
      </trkpt>
      <trkpt lat="40.2700420" lon="-3.6163020">
        <ele>591.6</ele>
        <time>2021-04-04T07:40:38Z</time>
      </trkpt>
      <trkpt lat="40.2700230" lon="-3.6162600">
        <ele>591.8</ele>
        <time>2021-04-04T07:40:39Z</time>
      </trkpt>
      <trkpt lat="40.2700040" lon="-3.6162190">
        <ele>592.2</ele>
        <time>2021-04-04T07:40:40Z</time>
      </trkpt>
      <trkpt lat="40.2699850" lon="-3.6161800">
        <ele>592.4</ele>
        <time>2021-04-04T07:40:41Z</time>
      </trkpt>
      <trkpt lat="40.2699660" lon="-3.6161420">
        <ele>592.8</ele>
        <time>2021-04-04T07:40:42Z</time>
      </trkpt>
      <trkpt lat="40.2699510" lon="-3.6161050">
        <ele>593.0</ele>
        <time>2021-04-04T07:40:43Z</time>
      </trkpt>
      <trkpt lat="40.2699320" lon="-3.6160690">
        <ele>593.4</ele>
        <time>2021-04-04T07:40:44Z</time>
      </trkpt>
      <trkpt lat="40.2699130" lon="-3.6160320">
        <ele>593.6</ele>
        <time>2021-04-04T07:40:45Z</time>
      </trkpt>
      <trkpt lat="40.2698970" lon="-3.6159950">
        <ele>593.8</ele>
        <time>2021-04-04T07:40:46Z</time>
      </trkpt>
      <trkpt lat="40.2698820" lon="-3.6159570">
        <ele>594.2</ele>
        <time>2021-04-04T07:40:47Z</time>
      </trkpt>
      <trkpt lat="40.2698670" lon="-3.6159160">
        <ele>594.4</ele>
        <time>2021-04-04T07:40:48Z</time>
      </trkpt>
      <trkpt lat="40.2698520" lon="-3.6158760">
        <ele>594.8</ele>
        <time>2021-04-04T07:40:49Z</time>
      </trkpt>
      <trkpt lat="40.2698330" lon="-3.6158360">
        <ele>595.0</ele>
        <time>2021-04-04T07:40:50Z</time>
      </trkpt>
      <trkpt lat="40.2698170" lon="-3.6157970">
        <ele>595.4</ele>
        <time>2021-04-04T07:40:51Z</time>
      </trkpt>
      <trkpt lat="40.2697980" lon="-3.6157590">
        <ele>595.6</ele>
        <time>2021-04-04T07:40:52Z</time>
      </trkpt>
      <trkpt lat="40.2697790" lon="-3.6157200">
        <ele>596.0</ele>
        <time>2021-04-04T07:40:53Z</time>
      </trkpt>
      <trkpt lat="40.2697600" lon="-3.6156800">
        <ele>596.2</ele>
        <time>2021-04-04T07:40:54Z</time>
      </trkpt>
      <trkpt lat="40.2697410" lon="-3.6156410">
        <ele>596.6</ele>
        <time>2021-04-04T07:40:55Z</time>
      </trkpt>
      <trkpt lat="40.2697220" lon="-3.6156010">
        <ele>596.8</ele>
        <time>2021-04-04T07:40:56Z</time>
      </trkpt>
      <trkpt lat="40.2697030" lon="-3.6155590">
        <ele>597.2</ele>
        <time>2021-04-04T07:40:57Z</time>
      </trkpt>
      <trkpt lat="40.2696840" lon="-3.6155150">
        <ele>597.4</ele>
        <time>2021-04-04T07:40:58Z</time>
      </trkpt>
      <trkpt lat="40.2696690" lon="-3.6154710">
        <ele>597.6</ele>
        <time>2021-04-04T07:40:59Z</time>
      </trkpt>
      <trkpt lat="40.2696460" lon="-3.6154280">
        <ele>597.8</ele>
        <time>2021-04-04T07:41:00Z</time>
      </trkpt>
      <trkpt lat="40.2696300" lon="-3.6153860">
        <ele>598.2</ele>
        <time>2021-04-04T07:41:01Z</time>
      </trkpt>
      <trkpt lat="40.2696110" lon="-3.6153450">
        <ele>598.4</ele>
        <time>2021-04-04T07:41:02Z</time>
      </trkpt>
      <trkpt lat="40.2695960" lon="-3.6153060">
        <ele>598.6</ele>
        <time>2021-04-04T07:41:03Z</time>
      </trkpt>
      <trkpt lat="40.2695770" lon="-3.6152690">
        <ele>598.8</ele>
        <time>2021-04-04T07:41:04Z</time>
      </trkpt>
      <trkpt lat="40.2695580" lon="-3.6152330">
        <ele>599.2</ele>
        <time>2021-04-04T07:41:05Z</time>
      </trkpt>
      <trkpt lat="40.2695430" lon="-3.6151970">
        <ele>599.4</ele>
        <time>2021-04-04T07:41:06Z</time>
      </trkpt>
      <trkpt lat="40.2695310" lon="-3.6151630">
        <ele>599.6</ele>
        <time>2021-04-04T07:41:07Z</time>
      </trkpt>
      <trkpt lat="40.2695120" lon="-3.6151270">
        <ele>599.8</ele>
        <time>2021-04-04T07:41:08Z</time>
      </trkpt>
      <trkpt lat="40.2694930" lon="-3.6150940">
        <ele>600.0</ele>
        <time>2021-04-04T07:41:09Z</time>
      </trkpt>
      <trkpt lat="40.2694780" lon="-3.6150610">
        <ele>600.4</ele>
        <time>2021-04-04T07:41:10Z</time>
      </trkpt>
      <trkpt lat="40.2694660" lon="-3.6150300">
        <ele>600.6</ele>
        <time>2021-04-04T07:41:11Z</time>
      </trkpt>
      <trkpt lat="40.2694510" lon="-3.6149980">
        <ele>600.8</ele>
        <time>2021-04-04T07:41:12Z</time>
      </trkpt>
      <trkpt lat="40.2694360" lon="-3.6149620">
        <ele>601.2</ele>
        <time>2021-04-04T07:41:13Z</time>
      </trkpt>
      <trkpt lat="40.2694240" lon="-3.6149290">
        <ele>601.4</ele>
        <time>2021-04-04T07:41:14Z</time>
      </trkpt>
      <trkpt lat="40.2694090" lon="-3.6148980">
        <ele>601.6</ele>
        <time>2021-04-04T07:41:15Z</time>
      </trkpt>
      <trkpt lat="40.2693940" lon="-3.6148660">
        <ele>601.8</ele>
        <time>2021-04-04T07:41:16Z</time>
      </trkpt>
      <trkpt lat="40.2693750" lon="-3.6148330">
        <ele>602.2</ele>
        <time>2021-04-04T07:41:17Z</time>
      </trkpt>
      <trkpt lat="40.2693600" lon="-3.6148010">
        <ele>602.4</ele>
        <time>2021-04-04T07:41:18Z</time>
      </trkpt>
      <trkpt lat="40.2693480" lon="-3.6147690">
        <ele>602.6</ele>
        <time>2021-04-04T07:41:19Z</time>
      </trkpt>
      <trkpt lat="40.2693330" lon="-3.6147350">
        <ele>603.0</ele>
        <time>2021-04-04T07:41:20Z</time>
      </trkpt>
      <trkpt lat="40.2693210" lon="-3.6147000">
        <ele>603.2</ele>
        <time>2021-04-04T07:41:21Z</time>
      </trkpt>
      <trkpt lat="40.2693100" lon="-3.6146650">
        <ele>603.4</ele>
        <time>2021-04-04T07:41:22Z</time>
      </trkpt>
      <trkpt lat="40.2692990" lon="-3.6146290">
        <ele>603.8</ele>
        <time>2021-04-04T07:41:23Z</time>
      </trkpt>
      <trkpt lat="40.2692870" lon="-3.6145930">
        <ele>604.0</ele>
        <time>2021-04-04T07:41:24Z</time>
      </trkpt>
      <trkpt lat="40.2692760" lon="-3.6145580">
        <ele>604.2</ele>
        <time>2021-04-04T07:41:25Z</time>
      </trkpt>
      <trkpt lat="40.2692680" lon="-3.6145220">
        <ele>604.6</ele>
        <time>2021-04-04T07:41:26Z</time>
      </trkpt>
      <trkpt lat="40.2692570" lon="-3.6144860">
        <ele>604.8</ele>
        <time>2021-04-04T07:41:27Z</time>
      </trkpt>
      <trkpt lat="40.2692490" lon="-3.6144500">
        <ele>605.0</ele>
        <time>2021-04-04T07:41:28Z</time>
      </trkpt>
      <trkpt lat="40.2692380" lon="-3.6144170">
        <ele>605.2</ele>
        <time>2021-04-04T07:41:29Z</time>
      </trkpt>
      <trkpt lat="40.2692260" lon="-3.6143840">
        <ele>605.6</ele>
        <time>2021-04-04T07:41:30Z</time>
      </trkpt>
      <trkpt lat="40.2692150" lon="-3.6143510">
        <ele>605.8</ele>
        <time>2021-04-04T07:41:31Z</time>
      </trkpt>
      <trkpt lat="40.2692070" lon="-3.6143180">
        <ele>606.0</ele>
        <time>2021-04-04T07:41:32Z</time>
      </trkpt>
      <trkpt lat="40.2691990" lon="-3.6142830">
        <ele>606.2</ele>
        <time>2021-04-04T07:41:33Z</time>
      </trkpt>
      <trkpt lat="40.2691880" lon="-3.6142450">
        <ele>606.4</ele>
        <time>2021-04-04T07:41:34Z</time>
      </trkpt>
      <trkpt lat="40.2691760" lon="-3.6142050">
        <ele>606.8</ele>
        <time>2021-04-04T07:41:35Z</time>
      </trkpt>
      <trkpt lat="40.2691690" lon="-3.6141660">
        <ele>607.0</ele>
        <time>2021-04-04T07:41:36Z</time>
      </trkpt>
      <trkpt lat="40.2691570" lon="-3.6141280">
        <ele>607.2</ele>
        <time>2021-04-04T07:41:37Z</time>
      </trkpt>
      <trkpt lat="40.2691460" lon="-3.6140940">
        <ele>607.4</ele>
        <time>2021-04-04T07:41:38Z</time>
      </trkpt>
      <trkpt lat="40.2691340" lon="-3.6140610">
        <ele>607.8</ele>
        <time>2021-04-04T07:41:39Z</time>
      </trkpt>
      <trkpt lat="40.2691230" lon="-3.6140260">
        <ele>608.0</ele>
        <time>2021-04-04T07:41:40Z</time>
      </trkpt>
      <trkpt lat="40.2691150" lon="-3.6139910">
        <ele>608.2</ele>
        <time>2021-04-04T07:41:41Z</time>
      </trkpt>
      <trkpt lat="40.2691040" lon="-3.6139570">
        <ele>608.4</ele>
        <time>2021-04-04T07:41:42Z</time>
      </trkpt>
      <trkpt lat="40.2690930" lon="-3.6139220">
        <ele>608.8</ele>
        <time>2021-04-04T07:41:43Z</time>
      </trkpt>
      <trkpt lat="40.2690810" lon="-3.6138880">
        <ele>609.0</ele>
        <time>2021-04-04T07:41:44Z</time>
      </trkpt>
      <trkpt lat="40.2690730" lon="-3.6138540">
        <ele>609.2</ele>
        <time>2021-04-04T07:41:45Z</time>
      </trkpt>
      <trkpt lat="40.2690660" lon="-3.6138210">
        <ele>609.4</ele>
        <time>2021-04-04T07:41:46Z</time>
      </trkpt>
      <trkpt lat="40.2690540" lon="-3.6137870">
        <ele>609.8</ele>
        <time>2021-04-04T07:41:47Z</time>
      </trkpt>
      <trkpt lat="40.2690470" lon="-3.6137530">
        <ele>610.0</ele>
        <time>2021-04-04T07:41:48Z</time>
      </trkpt>
      <trkpt lat="40.2690350" lon="-3.6137190">
        <ele>610.2</ele>
        <time>2021-04-04T07:41:49Z</time>
      </trkpt>
      <trkpt lat="40.2690280" lon="-3.6136850">
        <ele>610.6</ele>
        <time>2021-04-04T07:41:50Z</time>
      </trkpt>
      <trkpt lat="40.2690160" lon="-3.6136500">
        <ele>610.8</ele>
        <time>2021-04-04T07:41:51Z</time>
      </trkpt>
      <trkpt lat="40.2690050" lon="-3.6136140">
        <ele>611.0</ele>
        <time>2021-04-04T07:41:52Z</time>
      </trkpt>
      <trkpt lat="40.2689970" lon="-3.6135780">
        <ele>611.2</ele>
        <time>2021-04-04T07:41:53Z</time>
      </trkpt>
      <trkpt lat="40.2689900" lon="-3.6135420">
        <ele>611.4</ele>
        <time>2021-04-04T07:41:54Z</time>
      </trkpt>
      <trkpt lat="40.2689860" lon="-3.6135050">
        <ele>611.8</ele>
        <time>2021-04-04T07:41:55Z</time>
      </trkpt>
      <trkpt lat="40.2689820" lon="-3.6134720">
        <ele>612.0</ele>
        <time>2021-04-04T07:41:56Z</time>
      </trkpt>
      <trkpt lat="40.2689820" lon="-3.6134380">
        <ele>612.2</ele>
        <time>2021-04-04T07:41:57Z</time>
      </trkpt>
      <trkpt lat="40.2689820" lon="-3.6134040">
        <ele>612.4</ele>
        <time>2021-04-04T07:41:58Z</time>
      </trkpt>
      <trkpt lat="40.2689820" lon="-3.6133710">
        <ele>612.6</ele>
        <time>2021-04-04T07:41:59Z</time>
      </trkpt>
      <trkpt lat="40.2689820" lon="-3.6133370">
        <ele>613.0</ele>
        <time>2021-04-04T07:42:00Z</time>
      </trkpt>
      <trkpt lat="40.2689860" lon="-3.6133030">
        <ele>613.2</ele>
        <time>2021-04-04T07:42:01Z</time>
      </trkpt>
      <trkpt lat="40.2689900" lon="-3.6132690">
        <ele>613.2</ele>
        <time>2021-04-04T07:42:02Z</time>
      </trkpt>
      <trkpt lat="40.2689860" lon="-3.6132360">
        <ele>613.4</ele>
        <time>2021-04-04T07:42:03Z</time>
      </trkpt>
      <trkpt lat="40.2689900" lon="-3.6132030">
        <ele>613.6</ele>
        <time>2021-04-04T07:42:04Z</time>
      </trkpt>
      <trkpt lat="40.2689900" lon="-3.6131680">
        <ele>613.8</ele>
        <time>2021-04-04T07:42:05Z</time>
      </trkpt>
      <trkpt lat="40.2689900" lon="-3.6131310">
        <ele>614.0</ele>
        <time>2021-04-04T07:42:06Z</time>
      </trkpt>
      <trkpt lat="40.2689900" lon="-3.6130940">
        <ele>614.0</ele>
        <time>2021-04-04T07:42:07Z</time>
      </trkpt>
      <trkpt lat="40.2689930" lon="-3.6130550">
        <ele>614.2</ele>
        <time>2021-04-04T07:42:08Z</time>
      </trkpt>
      <trkpt lat="40.2689930" lon="-3.6130170">
        <ele>614.4</ele>
        <time>2021-04-04T07:42:09Z</time>
      </trkpt>
      <trkpt lat="40.2690010" lon="-3.6129780">
        <ele>614.6</ele>
        <time>2021-04-04T07:42:10Z</time>
      </trkpt>
      <trkpt lat="40.2690050" lon="-3.6129360">
        <ele>614.8</ele>
        <time>2021-04-04T07:42:11Z</time>
      </trkpt>
      <trkpt lat="40.2690090" lon="-3.6128940">
        <ele>615.0</ele>
        <time>2021-04-04T07:42:12Z</time>
      </trkpt>
      <trkpt lat="40.2690200" lon="-3.6128510">
        <ele>615.2</ele>
        <time>2021-04-04T07:42:13Z</time>
      </trkpt>
      <trkpt lat="40.2690280" lon="-3.6128090">
        <ele>615.4</ele>
        <time>2021-04-04T07:42:14Z</time>
      </trkpt>
      <trkpt lat="40.2690470" lon="-3.6127660">
        <ele>615.6</ele>
        <time>2021-04-04T07:42:15Z</time>
      </trkpt>
      <trkpt lat="40.2690660" lon="-3.6127270">
        <ele>615.8</ele>
        <time>2021-04-04T07:42:16Z</time>
      </trkpt>
      <trkpt lat="40.2690890" lon="-3.6126900">
        <ele>615.8</ele>
        <time>2021-04-04T07:42:17Z</time>
      </trkpt>
      <trkpt lat="40.2691150" lon="-3.6126540">
        <ele>616.0</ele>
        <time>2021-04-04T07:42:18Z</time>
      </trkpt>
      <trkpt lat="40.2691460" lon="-3.6126240">
        <ele>616.2</ele>
        <time>2021-04-04T07:42:19Z</time>
      </trkpt>
      <trkpt lat="40.2691760" lon="-3.6125980">
        <ele>616.4</ele>
        <time>2021-04-04T07:42:20Z</time>
      </trkpt>
      <trkpt lat="40.2692110" lon="-3.6125720">
        <ele>616.4</ele>
        <time>2021-04-04T07:42:21Z</time>
      </trkpt>
      <trkpt lat="40.2692530" lon="-3.6125480">
        <ele>616.6</ele>
        <time>2021-04-04T07:42:22Z</time>
      </trkpt>
      <trkpt lat="40.2692910" lon="-3.6125270">
        <ele>616.8</ele>
        <time>2021-04-04T07:42:23Z</time>
      </trkpt>
      <trkpt lat="40.2693370" lon="-3.6125070">
        <ele>616.8</ele>
        <time>2021-04-04T07:42:24Z</time>
      </trkpt>
      <trkpt lat="40.2693790" lon="-3.6124860">
        <ele>617.0</ele>
        <time>2021-04-04T07:42:25Z</time>
      </trkpt>
      <trkpt lat="40.2694240" lon="-3.6124680">
        <ele>617.0</ele>
        <time>2021-04-04T07:42:26Z</time>
      </trkpt>
      <trkpt lat="40.2694660" lon="-3.6124500">
        <ele>617.2</ele>
        <time>2021-04-04T07:42:27Z</time>
      </trkpt>
      <trkpt lat="40.2695080" lon="-3.6124340">
        <ele>617.2</ele>
        <time>2021-04-04T07:42:28Z</time>
      </trkpt>
      <trkpt lat="40.2695500" lon="-3.6124180">
        <ele>617.4</ele>
        <time>2021-04-04T07:42:29Z</time>
      </trkpt>
      <trkpt lat="40.2695880" lon="-3.6124020">
        <ele>617.6</ele>
        <time>2021-04-04T07:42:30Z</time>
      </trkpt>
      <trkpt lat="40.2696300" lon="-3.6123880">
        <ele>617.8</ele>
        <time>2021-04-04T07:42:31Z</time>
      </trkpt>
      <trkpt lat="40.2696690" lon="-3.6123750">
        <ele>618.0</ele>
        <time>2021-04-04T07:42:32Z</time>
      </trkpt>
      <trkpt lat="40.2697070" lon="-3.6123630">
        <ele>618.2</ele>
        <time>2021-04-04T07:42:33Z</time>
      </trkpt>
      <trkpt lat="40.2697490" lon="-3.6123500">
        <ele>618.2</ele>
        <time>2021-04-04T07:42:34Z</time>
      </trkpt>
      <trkpt lat="40.2697870" lon="-3.6123400">
        <ele>618.4</ele>
        <time>2021-04-04T07:42:35Z</time>
      </trkpt>
      <trkpt lat="40.2698290" lon="-3.6123300">
        <ele>618.6</ele>
        <time>2021-04-04T07:42:36Z</time>
      </trkpt>
      <trkpt lat="40.2698670" lon="-3.6123160">
        <ele>618.8</ele>
        <time>2021-04-04T07:42:37Z</time>
      </trkpt>
      <trkpt lat="40.2699010" lon="-3.6123010">
        <ele>619.0</ele>
        <time>2021-04-04T07:42:38Z</time>
      </trkpt>
      <trkpt lat="40.2699390" lon="-3.6122850">
        <ele>619.0</ele>
        <time>2021-04-04T07:42:39Z</time>
      </trkpt>
      <trkpt lat="40.2699740" lon="-3.6122640">
        <ele>619.2</ele>
        <time>2021-04-04T07:42:40Z</time>
      </trkpt>
      <trkpt lat="40.2700080" lon="-3.6122360">
        <ele>619.4</ele>
        <time>2021-04-04T07:42:41Z</time>
      </trkpt>
      <trkpt lat="40.2700390" lon="-3.6122020">
        <ele>619.6</ele>
        <time>2021-04-04T07:42:42Z</time>
      </trkpt>
      <trkpt lat="40.2700650" lon="-3.6121630">
        <ele>619.6</ele>
        <time>2021-04-04T07:42:43Z</time>
      </trkpt>
      <trkpt lat="40.2700880" lon="-3.6121210">
        <ele>619.8</ele>
        <time>2021-04-04T07:42:44Z</time>
      </trkpt>
      <trkpt lat="40.2701110" lon="-3.6120730">
        <ele>619.8</ele>
        <time>2021-04-04T07:42:45Z</time>
      </trkpt>
      <trkpt lat="40.2701300" lon="-3.6120250">
        <ele>620.0</ele>
        <time>2021-04-04T07:42:46Z</time>
      </trkpt>
      <trkpt lat="40.2701450" lon="-3.6119770">
        <ele>620.0</ele>
        <time>2021-04-04T07:42:47Z</time>
      </trkpt>
      <trkpt lat="40.2701570" lon="-3.6119300">
        <ele>620.2</ele>
        <time>2021-04-04T07:42:48Z</time>
      </trkpt>
      <trkpt lat="40.2701610" lon="-3.6118820">
        <ele>620.2</ele>
        <time>2021-04-04T07:42:49Z</time>
      </trkpt>
      <trkpt lat="40.2701640" lon="-3.6118360">
        <ele>620.2</ele>
        <time>2021-04-04T07:42:50Z</time>
      </trkpt>
      <trkpt lat="40.2701680" lon="-3.6117930">
        <ele>620.4</ele>
        <time>2021-04-04T07:42:51Z</time>
      </trkpt>
      <trkpt lat="40.2701720" lon="-3.6117510">
        <ele>620.4</ele>
        <time>2021-04-04T07:42:52Z</time>
      </trkpt>
      <trkpt lat="40.2701760" lon="-3.6117150">
        <ele>620.4</ele>
        <time>2021-04-04T07:42:53Z</time>
      </trkpt>
      <trkpt lat="40.2701800" lon="-3.6116860">
        <ele>620.4</ele>
        <time>2021-04-04T07:42:54Z</time>
      </trkpt>
      <trkpt lat="40.2701800" lon="-3.6116680">
        <ele>620.4</ele>
        <time>2021-04-04T07:42:55Z</time>
      </trkpt>
      <trkpt lat="40.2701800" lon="-3.6116540">
        <ele>620.4</ele>
        <time>2021-04-04T07:43:41Z</time>
      </trkpt>
      <trkpt lat="40.2701840" lon="-3.6116330">
        <ele>620.4</ele>
        <time>2021-04-04T07:43:42Z</time>
      </trkpt>
      <trkpt lat="40.2701840" lon="-3.6116090">
        <ele>620.4</ele>
        <time>2021-04-04T07:43:43Z</time>
      </trkpt>
      <trkpt lat="40.2701910" lon="-3.6115820">
        <ele>620.4</ele>
        <time>2021-04-04T07:43:44Z</time>
      </trkpt>
      <trkpt lat="40.2701990" lon="-3.6115450">
        <ele>620.4</ele>
        <time>2021-04-04T07:43:45Z</time>
      </trkpt>
      <trkpt lat="40.2702100" lon="-3.6115090">
        <ele>620.4</ele>
        <time>2021-04-04T07:43:46Z</time>
      </trkpt>
      <trkpt lat="40.2702180" lon="-3.6114700">
        <ele>620.4</ele>
        <time>2021-04-04T07:43:47Z</time>
      </trkpt>
      <trkpt lat="40.2702260" lon="-3.6114280">
        <ele>620.4</ele>
        <time>2021-04-04T07:43:48Z</time>
      </trkpt>
      <trkpt lat="40.2702370" lon="-3.6113850">
        <ele>620.4</ele>
        <time>2021-04-04T07:43:49Z</time>
      </trkpt>
      <trkpt lat="40.2702520" lon="-3.6113410">
        <ele>620.2</ele>
        <time>2021-04-04T07:43:50Z</time>
      </trkpt>
      <trkpt lat="40.2702670" lon="-3.6112950">
        <ele>620.2</ele>
        <time>2021-04-04T07:43:51Z</time>
      </trkpt>
      <trkpt lat="40.2702830" lon="-3.6112490">
        <ele>620.2</ele>
        <time>2021-04-04T07:43:52Z</time>
      </trkpt>
      <trkpt lat="40.2702980" lon="-3.6112020">
        <ele>620.0</ele>
        <time>2021-04-04T07:43:53Z</time>
      </trkpt>
      <trkpt lat="40.2703170" lon="-3.6111560">
        <ele>620.0</ele>
        <time>2021-04-04T07:43:54Z</time>
      </trkpt>
      <trkpt lat="40.2703360" lon="-3.6111130">
        <ele>619.8</ele>
        <time>2021-04-04T07:43:55Z</time>
      </trkpt>
      <trkpt lat="40.2703550" lon="-3.6110710">
        <ele>619.8</ele>
        <time>2021-04-04T07:43:56Z</time>
      </trkpt>
      <trkpt lat="40.2703780" lon="-3.6110270">
        <ele>619.6</ele>
        <time>2021-04-04T07:43:57Z</time>
      </trkpt>
      <trkpt lat="40.2704050" lon="-3.6109860">
        <ele>619.4</ele>
        <time>2021-04-04T07:43:58Z</time>
      </trkpt>
      <trkpt lat="40.2704320" lon="-3.6109420">
        <ele>619.4</ele>
        <time>2021-04-04T07:43:59Z</time>
      </trkpt>
      <trkpt lat="40.2704580" lon="-3.6108970">
        <ele>619.0</ele>
        <time>2021-04-04T07:44:00Z</time>
      </trkpt>
      <trkpt lat="40.2704850" lon="-3.6108520">
        <ele>618.8</ele>
        <time>2021-04-04T07:44:01Z</time>
      </trkpt>
      <trkpt lat="40.2705120" lon="-3.6108060">
        <ele>618.6</ele>
        <time>2021-04-04T07:44:02Z</time>
      </trkpt>
      <trkpt lat="40.2705460" lon="-3.6107590">
        <ele>618.4</ele>
        <time>2021-04-04T07:44:03Z</time>
      </trkpt>
      <trkpt lat="40.2705770" lon="-3.6107110">
        <ele>618.2</ele>
        <time>2021-04-04T07:44:04Z</time>
      </trkpt>
      <trkpt lat="40.2706070" lon="-3.6106640">
        <ele>618.0</ele>
        <time>2021-04-04T07:44:05Z</time>
      </trkpt>
      <trkpt lat="40.2706380" lon="-3.6106150">
        <ele>617.8</ele>
        <time>2021-04-04T07:44:06Z</time>
      </trkpt>
      <trkpt lat="40.2706720" lon="-3.6105660">
        <ele>617.8</ele>
        <time>2021-04-04T07:44:07Z</time>
      </trkpt>
      <trkpt lat="40.2707060" lon="-3.6105170">
        <ele>617.6</ele>
        <time>2021-04-04T07:44:08Z</time>
      </trkpt>
      <trkpt lat="40.2707410" lon="-3.6104690">
        <ele>617.4</ele>
        <time>2021-04-04T07:44:09Z</time>
      </trkpt>
      <trkpt lat="40.2707790" lon="-3.6104250">
        <ele>617.2</ele>
        <time>2021-04-04T07:44:10Z</time>
      </trkpt>
      <trkpt lat="40.2708130" lon="-3.6103790">
        <ele>617.2</ele>
        <time>2021-04-04T07:44:11Z</time>
      </trkpt>
      <trkpt lat="40.2708360" lon="-3.6103280">
        <ele>617.2</ele>
        <time>2021-04-04T07:44:12Z</time>
      </trkpt>
      <trkpt lat="40.2708550" lon="-3.6102780">
        <ele>617.2</ele>
        <time>2021-04-04T07:44:13Z</time>
      </trkpt>
      <trkpt lat="40.2708780" lon="-3.6102310">
        <ele>617.0</ele>
        <time>2021-04-04T07:44:14Z</time>
      </trkpt>
      <trkpt lat="40.2709050" lon="-3.6101910">
        <ele>617.0</ele>
        <time>2021-04-04T07:44:15Z</time>
      </trkpt>
      <trkpt lat="40.2709310" lon="-3.6101510">
        <ele>617.0</ele>
        <time>2021-04-04T07:44:16Z</time>
      </trkpt>
      <trkpt lat="40.2709540" lon="-3.6101090">
        <ele>617.0</ele>
        <time>2021-04-04T07:44:17Z</time>
      </trkpt>
      <trkpt lat="40.2709810" lon="-3.6100670">
        <ele>617.2</ele>
        <time>2021-04-04T07:44:18Z</time>
      </trkpt>
      <trkpt lat="40.2710040" lon="-3.6100230">
        <ele>617.2</ele>
        <time>2021-04-04T07:44:19Z</time>
      </trkpt>
      <trkpt lat="40.2710270" lon="-3.6099790">
        <ele>617.4</ele>
        <time>2021-04-04T07:44:20Z</time>
      </trkpt>
      <trkpt lat="40.2710500" lon="-3.6099370">
        <ele>617.4</ele>
        <time>2021-04-04T07:44:21Z</time>
      </trkpt>
      <trkpt lat="40.2710760" lon="-3.6098950">
        <ele>617.6</ele>
        <time>2021-04-04T07:44:22Z</time>
      </trkpt>
      <trkpt lat="40.2711030" lon="-3.6098540">
        <ele>617.8</ele>
        <time>2021-04-04T07:44:23Z</time>
      </trkpt>
      <trkpt lat="40.2711300" lon="-3.6098160">
        <ele>618.0</ele>
        <time>2021-04-04T07:44:24Z</time>
      </trkpt>
      <trkpt lat="40.2711560" lon="-3.6097770">
        <ele>618.0</ele>
        <time>2021-04-04T07:44:25Z</time>
      </trkpt>
      <trkpt lat="40.2711790" lon="-3.6097390">
        <ele>618.2</ele>
        <time>2021-04-04T07:44:26Z</time>
      </trkpt>
      <trkpt lat="40.2711980" lon="-3.6097040">
        <ele>618.4</ele>
        <time>2021-04-04T07:44:27Z</time>
      </trkpt>
      <trkpt lat="40.2712210" lon="-3.6096700">
        <ele>618.4</ele>
        <time>2021-04-04T07:44:28Z</time>
      </trkpt>
      <trkpt lat="40.2712400" lon="-3.6096370">
        <ele>618.6</ele>
        <time>2021-04-04T07:44:29Z</time>
      </trkpt>
      <trkpt lat="40.2712590" lon="-3.6096050">
        <ele>618.6</ele>
        <time>2021-04-04T07:44:30Z</time>
      </trkpt>
      <trkpt lat="40.2712780" lon="-3.6095740">
        <ele>618.6</ele>
        <time>2021-04-04T07:44:31Z</time>
      </trkpt>
      <trkpt lat="40.2712970" lon="-3.6095440">
        <ele>618.6</ele>
        <time>2021-04-04T07:44:32Z</time>
      </trkpt>
      <trkpt lat="40.2713200" lon="-3.6095160">
        <ele>618.8</ele>
        <time>2021-04-04T07:44:33Z</time>
      </trkpt>
      <trkpt lat="40.2713360" lon="-3.6094880">
        <ele>618.8</ele>
        <time>2021-04-04T07:44:34Z</time>
      </trkpt>
      <trkpt lat="40.2713550" lon="-3.6094580">
        <ele>618.6</ele>
        <time>2021-04-04T07:44:35Z</time>
      </trkpt>
      <trkpt lat="40.2713740" lon="-3.6094300">
        <ele>618.6</ele>
        <time>2021-04-04T07:44:36Z</time>
      </trkpt>
      <trkpt lat="40.2713850" lon="-3.6094040">
        <ele>618.6</ele>
        <time>2021-04-04T07:44:37Z</time>
      </trkpt>
      <trkpt lat="40.2714000" lon="-3.6093770">
        <ele>618.6</ele>
        <time>2021-04-04T07:44:38Z</time>
      </trkpt>
      <trkpt lat="40.2714160" lon="-3.6093540">
        <ele>618.6</ele>
        <time>2021-04-04T07:44:39Z</time>
      </trkpt>
      <trkpt lat="40.2714310" lon="-3.6093320">
        <ele>618.6</ele>
        <time>2021-04-04T07:44:40Z</time>
      </trkpt>
      <trkpt lat="40.2714500" lon="-3.6093060">
        <ele>618.4</ele>
        <time>2021-04-04T07:44:41Z</time>
      </trkpt>
      <trkpt lat="40.2714610" lon="-3.6092720">
        <ele>618.4</ele>
        <time>2021-04-04T07:44:42Z</time>
      </trkpt>
      <trkpt lat="40.2714770" lon="-3.6092350">
        <ele>618.4</ele>
        <time>2021-04-04T07:44:43Z</time>
      </trkpt>
      <trkpt lat="40.2714920" lon="-3.6091980">
        <ele>618.4</ele>
        <time>2021-04-04T07:44:44Z</time>
      </trkpt>
      <trkpt lat="40.2715110" lon="-3.6091620">
        <ele>618.4</ele>
        <time>2021-04-04T07:44:45Z</time>
      </trkpt>
      <trkpt lat="40.2715340" lon="-3.6091270">
        <ele>618.4</ele>
        <time>2021-04-04T07:44:46Z</time>
      </trkpt>
      <trkpt lat="40.2715530" lon="-3.6090930">
        <ele>618.2</ele>
        <time>2021-04-04T07:44:47Z</time>
      </trkpt>
      <trkpt lat="40.2715760" lon="-3.6090590">
        <ele>618.2</ele>
        <time>2021-04-04T07:44:48Z</time>
      </trkpt>
      <trkpt lat="40.2715950" lon="-3.6090250">
        <ele>618.2</ele>
        <time>2021-04-04T07:44:49Z</time>
      </trkpt>
      <trkpt lat="40.2716180" lon="-3.6089940">
        <ele>618.2</ele>
        <time>2021-04-04T07:44:50Z</time>
      </trkpt>
      <trkpt lat="40.2716410" lon="-3.6089640">
        <ele>618.2</ele>
        <time>2021-04-04T07:44:51Z</time>
      </trkpt>
      <trkpt lat="40.2716600" lon="-3.6089340">
        <ele>618.2</ele>
        <time>2021-04-04T07:44:52Z</time>
      </trkpt>
      <trkpt lat="40.2716830" lon="-3.6089030">
        <ele>618.2</ele>
        <time>2021-04-04T07:44:53Z</time>
      </trkpt>
      <trkpt lat="40.2717020" lon="-3.6088710">
        <ele>618.2</ele>
        <time>2021-04-04T07:44:54Z</time>
      </trkpt>
      <trkpt lat="40.2717170" lon="-3.6088390">
        <ele>618.2</ele>
        <time>2021-04-04T07:44:55Z</time>
      </trkpt>
      <trkpt lat="40.2717320" lon="-3.6088070">
        <ele>618.2</ele>
        <time>2021-04-04T07:44:56Z</time>
      </trkpt>
      <trkpt lat="40.2717510" lon="-3.6087760">
        <ele>618.2</ele>
        <time>2021-04-04T07:44:57Z</time>
      </trkpt>
      <trkpt lat="40.2717710" lon="-3.6087460">
        <ele>618.4</ele>
        <time>2021-04-04T07:44:58Z</time>
      </trkpt>
      <trkpt lat="40.2717900" lon="-3.6087140">
        <ele>618.4</ele>
        <time>2021-04-04T07:44:59Z</time>
      </trkpt>
      <trkpt lat="40.2718090" lon="-3.6086810">
        <ele>618.4</ele>
        <time>2021-04-04T07:45:00Z</time>
      </trkpt>
      <trkpt lat="40.2718280" lon="-3.6086490">
        <ele>618.4</ele>
        <time>2021-04-04T07:45:01Z</time>
      </trkpt>
      <trkpt lat="40.2718430" lon="-3.6086190">
        <ele>618.4</ele>
        <time>2021-04-04T07:45:02Z</time>
      </trkpt>
      <trkpt lat="40.2718660" lon="-3.6085830">
        <ele>618.4</ele>
        <time>2021-04-04T07:45:03Z</time>
      </trkpt>
      <trkpt lat="40.2718850" lon="-3.6085510">
        <ele>618.6</ele>
        <time>2021-04-04T07:45:04Z</time>
      </trkpt>
      <trkpt lat="40.2719080" lon="-3.6085180">
        <ele>618.6</ele>
        <time>2021-04-04T07:45:05Z</time>
      </trkpt>
      <trkpt lat="40.2719270" lon="-3.6084870">
        <ele>618.6</ele>
        <time>2021-04-04T07:45:06Z</time>
      </trkpt>
      <trkpt lat="40.2719460" lon="-3.6084550">
        <ele>618.6</ele>
        <time>2021-04-04T07:45:07Z</time>
      </trkpt>
      <trkpt lat="40.2719650" lon="-3.6084210">
        <ele>618.6</ele>
        <time>2021-04-04T07:45:08Z</time>
      </trkpt>
      <trkpt lat="40.2719840" lon="-3.6083880">
        <ele>618.8</ele>
        <time>2021-04-04T07:45:09Z</time>
      </trkpt>
      <trkpt lat="40.2720030" lon="-3.6083530">
        <ele>618.8</ele>
        <time>2021-04-04T07:45:10Z</time>
      </trkpt>
      <trkpt lat="40.2720220" lon="-3.6083190">
        <ele>618.8</ele>
        <time>2021-04-04T07:45:11Z</time>
      </trkpt>
      <trkpt lat="40.2720410" lon="-3.6082840">
        <ele>618.8</ele>
        <time>2021-04-04T07:45:12Z</time>
      </trkpt>
      <trkpt lat="40.2720600" lon="-3.6082440">
        <ele>618.8</ele>
        <time>2021-04-04T07:45:13Z</time>
      </trkpt>
      <trkpt lat="40.2720830" lon="-3.6082070">
        <ele>618.8</ele>
        <time>2021-04-04T07:45:14Z</time>
      </trkpt>
      <trkpt lat="40.2721060" lon="-3.6081710">
        <ele>618.8</ele>
        <time>2021-04-04T07:45:15Z</time>
      </trkpt>
      <trkpt lat="40.2721290" lon="-3.6081350">
        <ele>618.8</ele>
        <time>2021-04-04T07:45:16Z</time>
      </trkpt>
      <trkpt lat="40.2721560" lon="-3.6080980">
        <ele>618.8</ele>
        <time>2021-04-04T07:45:17Z</time>
      </trkpt>
      <trkpt lat="40.2721750" lon="-3.6080590">
        <ele>619.0</ele>
        <time>2021-04-04T07:45:18Z</time>
      </trkpt>
      <trkpt lat="40.2722020" lon="-3.6080250">
        <ele>619.0</ele>
        <time>2021-04-04T07:45:19Z</time>
      </trkpt>
      <trkpt lat="40.2722240" lon="-3.6079930">
        <ele>619.0</ele>
        <time>2021-04-04T07:45:20Z</time>
      </trkpt>
      <trkpt lat="40.2722470" lon="-3.6079600">
        <ele>619.0</ele>
        <time>2021-04-04T07:45:21Z</time>
      </trkpt>
      <trkpt lat="40.2722660" lon="-3.6079250">
        <ele>619.0</ele>
        <time>2021-04-04T07:45:22Z</time>
      </trkpt>
      <trkpt lat="40.2722860" lon="-3.6078920">
        <ele>619.2</ele>
        <time>2021-04-04T07:45:23Z</time>
      </trkpt>
      <trkpt lat="40.2723050" lon="-3.6078560">
        <ele>619.2</ele>
        <time>2021-04-04T07:45:24Z</time>
      </trkpt>
      <trkpt lat="40.2723240" lon="-3.6078220">
        <ele>619.2</ele>
        <time>2021-04-04T07:45:25Z</time>
      </trkpt>
      <trkpt lat="40.2723470" lon="-3.6077880">
        <ele>619.2</ele>
        <time>2021-04-04T07:45:26Z</time>
      </trkpt>
      <trkpt lat="40.2723660" lon="-3.6077550">
        <ele>619.0</ele>
        <time>2021-04-04T07:45:27Z</time>
      </trkpt>
      <trkpt lat="40.2723880" lon="-3.6077190">
        <ele>619.0</ele>
        <time>2021-04-04T07:45:28Z</time>
      </trkpt>
      <trkpt lat="40.2724110" lon="-3.6076860">
        <ele>618.8</ele>
        <time>2021-04-04T07:45:29Z</time>
      </trkpt>
      <trkpt lat="40.2724340" lon="-3.6076520">
        <ele>618.8</ele>
        <time>2021-04-04T07:45:30Z</time>
      </trkpt>
      <trkpt lat="40.2724530" lon="-3.6076150">
        <ele>618.6</ele>
        <time>2021-04-04T07:45:31Z</time>
      </trkpt>
      <trkpt lat="40.2724760" lon="-3.6075740">
        <ele>618.4</ele>
        <time>2021-04-04T07:45:32Z</time>
      </trkpt>
      <trkpt lat="40.2724990" lon="-3.6075300">
        <ele>618.4</ele>
        <time>2021-04-04T07:45:33Z</time>
      </trkpt>
      <trkpt lat="40.2725260" lon="-3.6074870">
        <ele>618.2</ele>
        <time>2021-04-04T07:45:34Z</time>
      </trkpt>
      <trkpt lat="40.2725490" lon="-3.6074440">
        <ele>618.2</ele>
        <time>2021-04-04T07:45:35Z</time>
      </trkpt>
      <trkpt lat="40.2725720" lon="-3.6074000">
        <ele>618.0</ele>
        <time>2021-04-04T07:45:36Z</time>
      </trkpt>
      <trkpt lat="40.2725980" lon="-3.6073580">
        <ele>618.0</ele>
        <time>2021-04-04T07:45:37Z</time>
      </trkpt>
      <trkpt lat="40.2726250" lon="-3.6073170">
        <ele>617.8</ele>
        <time>2021-04-04T07:45:38Z</time>
      </trkpt>
      <trkpt lat="40.2726520" lon="-3.6072770">
        <ele>617.6</ele>
        <time>2021-04-04T07:45:39Z</time>
      </trkpt>
      <trkpt lat="40.2726750" lon="-3.6072370">
        <ele>617.6</ele>
        <time>2021-04-04T07:45:40Z</time>
      </trkpt>
      <trkpt lat="40.2727010" lon="-3.6071970">
        <ele>617.4</ele>
        <time>2021-04-04T07:45:41Z</time>
      </trkpt>
      <trkpt lat="40.2727240" lon="-3.6071580">
        <ele>617.4</ele>
        <time>2021-04-04T07:45:42Z</time>
      </trkpt>
      <trkpt lat="40.2727510" lon="-3.6071180">
        <ele>617.4</ele>
        <time>2021-04-04T07:45:43Z</time>
      </trkpt>
      <trkpt lat="40.2727780" lon="-3.6070760">
        <ele>617.4</ele>
        <time>2021-04-04T07:45:44Z</time>
      </trkpt>
      <trkpt lat="40.2728040" lon="-3.6070380">
        <ele>617.2</ele>
        <time>2021-04-04T07:45:45Z</time>
      </trkpt>
      <trkpt lat="40.2728350" lon="-3.6070030">
        <ele>617.2</ele>
        <time>2021-04-04T07:45:46Z</time>
      </trkpt>
      <trkpt lat="40.2728620" lon="-3.6069720">
        <ele>617.2</ele>
        <time>2021-04-04T07:45:47Z</time>
      </trkpt>
      <trkpt lat="40.2728840" lon="-3.6069390">
        <ele>617.0</ele>
        <time>2021-04-04T07:45:48Z</time>
      </trkpt>
      <trkpt lat="40.2729030" lon="-3.6068960">
        <ele>617.0</ele>
        <time>2021-04-04T07:45:49Z</time>
      </trkpt>
      <trkpt lat="40.2729190" lon="-3.6068500">
        <ele>617.0</ele>
        <time>2021-04-04T07:45:50Z</time>
      </trkpt>
      <trkpt lat="40.2729380" lon="-3.6068070">
        <ele>617.0</ele>
        <time>2021-04-04T07:45:51Z</time>
      </trkpt>
      <trkpt lat="40.2729570" lon="-3.6067660">
        <ele>617.0</ele>
        <time>2021-04-04T07:45:52Z</time>
      </trkpt>
      <trkpt lat="40.2729800" lon="-3.6067290">
        <ele>617.0</ele>
        <time>2021-04-04T07:45:53Z</time>
      </trkpt>
      <trkpt lat="40.2730030" lon="-3.6066950">
        <ele>616.8</ele>
        <time>2021-04-04T07:45:54Z</time>
      </trkpt>
      <trkpt lat="40.2730290" lon="-3.6066590">
        <ele>616.8</ele>
        <time>2021-04-04T07:45:55Z</time>
      </trkpt>
      <trkpt lat="40.2730560" lon="-3.6066250">
        <ele>616.8</ele>
        <time>2021-04-04T07:45:56Z</time>
      </trkpt>
      <trkpt lat="40.2730790" lon="-3.6065940">
        <ele>616.8</ele>
        <time>2021-04-04T07:45:57Z</time>
      </trkpt>
      <trkpt lat="40.2731060" lon="-3.6065650">
        <ele>616.8</ele>
        <time>2021-04-04T07:45:58Z</time>
      </trkpt>
      <trkpt lat="40.2731320" lon="-3.6065360">
        <ele>616.8</ele>
        <time>2021-04-04T07:45:59Z</time>
      </trkpt>
      <trkpt lat="40.2731590" lon="-3.6065070">
        <ele>616.6</ele>
        <time>2021-04-04T07:46:00Z</time>
      </trkpt>
      <trkpt lat="40.2731900" lon="-3.6064790">
        <ele>616.4</ele>
        <time>2021-04-04T07:46:01Z</time>
      </trkpt>
      <trkpt lat="40.2732240" lon="-3.6064540">
        <ele>616.4</ele>
        <time>2021-04-04T07:46:02Z</time>
      </trkpt>
      <trkpt lat="40.2732620" lon="-3.6064300">
        <ele>616.2</ele>
        <time>2021-04-04T07:46:03Z</time>
      </trkpt>
      <trkpt lat="40.2733040" lon="-3.6064070">
        <ele>616.0</ele>
        <time>2021-04-04T07:46:04Z</time>
      </trkpt>
      <trkpt lat="40.2733420" lon="-3.6063830">
        <ele>615.8</ele>
        <time>2021-04-04T07:46:05Z</time>
      </trkpt>
      <trkpt lat="40.2733880" lon="-3.6063590">
        <ele>615.6</ele>
        <time>2021-04-04T07:46:06Z</time>
      </trkpt>
      <trkpt lat="40.2734340" lon="-3.6063310">
        <ele>615.2</ele>
        <time>2021-04-04T07:46:07Z</time>
      </trkpt>
      <trkpt lat="40.2734760" lon="-3.6063020">
        <ele>615.0</ele>
        <time>2021-04-04T07:46:08Z</time>
      </trkpt>
      <trkpt lat="40.2735210" lon="-3.6062720">
        <ele>614.8</ele>
        <time>2021-04-04T07:46:09Z</time>
      </trkpt>
      <trkpt lat="40.2735630" lon="-3.6062430">
        <ele>614.4</ele>
        <time>2021-04-04T07:46:10Z</time>
      </trkpt>
      <trkpt lat="40.2736090" lon="-3.6062120">
        <ele>614.2</ele>
        <time>2021-04-04T07:46:11Z</time>
      </trkpt>
      <trkpt lat="40.2736510" lon="-3.6061770">
        <ele>614.0</ele>
        <time>2021-04-04T07:46:12Z</time>
      </trkpt>
      <trkpt lat="40.2736930" lon="-3.6061370">
        <ele>613.8</ele>
        <time>2021-04-04T07:46:13Z</time>
      </trkpt>
      <trkpt lat="40.2737310" lon="-3.6060950">
        <ele>613.6</ele>
        <time>2021-04-04T07:46:14Z</time>
      </trkpt>
      <trkpt lat="40.2737660" lon="-3.6060520">
        <ele>613.4</ele>
        <time>2021-04-04T07:46:15Z</time>
      </trkpt>
      <trkpt lat="40.2738000" lon="-3.6060110">
        <ele>613.4</ele>
        <time>2021-04-04T07:46:16Z</time>
      </trkpt>
      <trkpt lat="40.2738300" lon="-3.6059690">
        <ele>613.2</ele>
        <time>2021-04-04T07:46:17Z</time>
      </trkpt>
      <trkpt lat="40.2738570" lon="-3.6059220">
        <ele>613.2</ele>
        <time>2021-04-04T07:46:18Z</time>
      </trkpt>
      <trkpt lat="40.2738690" lon="-3.6058720">
        <ele>613.2</ele>
        <time>2021-04-04T07:46:19Z</time>
      </trkpt>
      <trkpt lat="40.2738650" lon="-3.6058180">
        <ele>613.2</ele>
        <time>2021-04-04T07:46:20Z</time>
      </trkpt>
      <trkpt lat="40.2738720" lon="-3.6057640">
        <ele>613.2</ele>
        <time>2021-04-04T07:46:21Z</time>
      </trkpt>
      <trkpt lat="40.2738800" lon="-3.6057110">
        <ele>613.2</ele>
        <time>2021-04-04T07:46:22Z</time>
      </trkpt>
      <trkpt lat="40.2738950" lon="-3.6056590">
        <ele>613.4</ele>
        <time>2021-04-04T07:46:23Z</time>
      </trkpt>
      <trkpt lat="40.2739110" lon="-3.6056070">
        <ele>613.4</ele>
        <time>2021-04-04T07:46:24Z</time>
      </trkpt>
      <trkpt lat="40.2739220" lon="-3.6055540">
        <ele>613.4</ele>
        <time>2021-04-04T07:46:25Z</time>
      </trkpt>
      <trkpt lat="40.2739330" lon="-3.6055010">
        <ele>613.6</ele>
        <time>2021-04-04T07:46:26Z</time>
      </trkpt>
      <trkpt lat="40.2739410" lon="-3.6054500">
        <ele>613.8</ele>
        <time>2021-04-04T07:46:27Z</time>
      </trkpt>
      <trkpt lat="40.2739520" lon="-3.6054020">
        <ele>613.8</ele>
        <time>2021-04-04T07:46:28Z</time>
      </trkpt>
      <trkpt lat="40.2739640" lon="-3.6053550">
        <ele>614.0</ele>
        <time>2021-04-04T07:46:29Z</time>
      </trkpt>
      <trkpt lat="40.2739750" lon="-3.6053060">
        <ele>614.0</ele>
        <time>2021-04-04T07:46:30Z</time>
      </trkpt>
      <trkpt lat="40.2739870" lon="-3.6052590">
        <ele>614.2</ele>
        <time>2021-04-04T07:46:31Z</time>
      </trkpt>
      <trkpt lat="40.2739980" lon="-3.6052120">
        <ele>614.2</ele>
        <time>2021-04-04T07:46:32Z</time>
      </trkpt>
      <trkpt lat="40.2740100" lon="-3.6051670">
        <ele>614.2</ele>
        <time>2021-04-04T07:46:33Z</time>
      </trkpt>
      <trkpt lat="40.2740210" lon="-3.6051250">
        <ele>614.4</ele>
        <time>2021-04-04T07:46:34Z</time>
      </trkpt>
      <trkpt lat="40.2740360" lon="-3.6050760">
        <ele>614.4</ele>
        <time>2021-04-04T07:46:35Z</time>
      </trkpt>
      <trkpt lat="40.2740560" lon="-3.6050330">
        <ele>614.4</ele>
        <time>2021-04-04T07:46:36Z</time>
      </trkpt>
      <trkpt lat="40.2740710" lon="-3.6049890">
        <ele>614.4</ele>
        <time>2021-04-04T07:46:37Z</time>
      </trkpt>
      <trkpt lat="40.2740860" lon="-3.6049460">
        <ele>614.6</ele>
        <time>2021-04-04T07:46:38Z</time>
      </trkpt>
      <trkpt lat="40.2741010" lon="-3.6049030">
        <ele>614.6</ele>
        <time>2021-04-04T07:46:39Z</time>
      </trkpt>
      <trkpt lat="40.2741170" lon="-3.6048590">
        <ele>614.6</ele>
        <time>2021-04-04T07:46:40Z</time>
      </trkpt>
      <trkpt lat="40.2741240" lon="-3.6048120">
        <ele>614.6</ele>
        <time>2021-04-04T07:46:41Z</time>
      </trkpt>
      <trkpt lat="40.2741280" lon="-3.6047640">
        <ele>614.6</ele>
        <time>2021-04-04T07:46:42Z</time>
      </trkpt>
      <trkpt lat="40.2741280" lon="-3.6047200">
        <ele>614.6</ele>
        <time>2021-04-04T07:46:43Z</time>
      </trkpt>
      <trkpt lat="40.2741280" lon="-3.6046800">
        <ele>614.8</ele>
        <time>2021-04-04T07:46:44Z</time>
      </trkpt>
      <trkpt lat="40.2741430" lon="-3.6046440">
        <ele>614.8</ele>
        <time>2021-04-04T07:46:45Z</time>
      </trkpt>
      <trkpt lat="40.2741580" lon="-3.6046050">
        <ele>614.8</ele>
        <time>2021-04-04T07:46:46Z</time>
      </trkpt>
      <trkpt lat="40.2741700" lon="-3.6045610">
        <ele>614.8</ele>
        <time>2021-04-04T07:46:47Z</time>
      </trkpt>
      <trkpt lat="40.2741810" lon="-3.6045130">
        <ele>614.8</ele>
        <time>2021-04-04T07:46:48Z</time>
      </trkpt>
      <trkpt lat="40.2741890" lon="-3.6044650">
        <ele>614.8</ele>
        <time>2021-04-04T07:46:49Z</time>
      </trkpt>
      <trkpt lat="40.2742000" lon="-3.6044160">
        <ele>614.8</ele>
        <time>2021-04-04T07:46:50Z</time>
      </trkpt>
      <trkpt lat="40.2742080" lon="-3.6043680">
        <ele>614.8</ele>
        <time>2021-04-04T07:46:51Z</time>
      </trkpt>
      <trkpt lat="40.2742200" lon="-3.6043200">
        <ele>614.8</ele>
        <time>2021-04-04T07:46:52Z</time>
      </trkpt>
      <trkpt lat="40.2742270" lon="-3.6042750">
        <ele>615.0</ele>
        <time>2021-04-04T07:46:53Z</time>
      </trkpt>
      <trkpt lat="40.2742390" lon="-3.6042300">
        <ele>615.0</ele>
        <time>2021-04-04T07:46:54Z</time>
      </trkpt>
      <trkpt lat="40.2742540" lon="-3.6041840">
        <ele>615.0</ele>
        <time>2021-04-04T07:46:55Z</time>
      </trkpt>
      <trkpt lat="40.2742650" lon="-3.6041410">
        <ele>615.0</ele>
        <time>2021-04-04T07:46:56Z</time>
      </trkpt>
      <trkpt lat="40.2742810" lon="-3.6041020">
        <ele>615.2</ele>
        <time>2021-04-04T07:46:57Z</time>
      </trkpt>
      <trkpt lat="40.2742920" lon="-3.6040640">
        <ele>615.2</ele>
        <time>2021-04-04T07:46:58Z</time>
      </trkpt>
      <trkpt lat="40.2743070" lon="-3.6040280">
        <ele>615.2</ele>
        <time>2021-04-04T07:46:59Z</time>
      </trkpt>
      <trkpt lat="40.2743220" lon="-3.6039910">
        <ele>615.2</ele>
        <time>2021-04-04T07:47:00Z</time>
      </trkpt>
      <trkpt lat="40.2743420" lon="-3.6039540">
        <ele>615.2</ele>
        <time>2021-04-04T07:47:01Z</time>
      </trkpt>
      <trkpt lat="40.2743570" lon="-3.6039170">
        <ele>615.2</ele>
        <time>2021-04-04T07:47:02Z</time>
      </trkpt>
      <trkpt lat="40.2743760" lon="-3.6038810">
        <ele>615.2</ele>
        <time>2021-04-04T07:47:03Z</time>
      </trkpt>
      <trkpt lat="40.2743950" lon="-3.6038460">
        <ele>615.2</ele>
        <time>2021-04-04T07:47:04Z</time>
      </trkpt>
      <trkpt lat="40.2744180" lon="-3.6038080">
        <ele>615.0</ele>
        <time>2021-04-04T07:47:05Z</time>
      </trkpt>
      <trkpt lat="40.2744450" lon="-3.6037720">
        <ele>614.8</ele>
        <time>2021-04-04T07:47:06Z</time>
      </trkpt>
      <trkpt lat="40.2744670" lon="-3.6037350">
        <ele>614.8</ele>
        <time>2021-04-04T07:47:07Z</time>
      </trkpt>
      <trkpt lat="40.2744900" lon="-3.6036990">
        <ele>614.6</ele>
        <time>2021-04-04T07:47:08Z</time>
      </trkpt>
      <trkpt lat="40.2745170" lon="-3.6036620">
        <ele>614.4</ele>
        <time>2021-04-04T07:47:09Z</time>
      </trkpt>
      <trkpt lat="40.2745400" lon="-3.6036240">
        <ele>614.4</ele>
        <time>2021-04-04T07:47:10Z</time>
      </trkpt>
      <trkpt lat="40.2745700" lon="-3.6035870">
        <ele>614.2</ele>
        <time>2021-04-04T07:47:11Z</time>
      </trkpt>
      <trkpt lat="40.2745970" lon="-3.6035490">
        <ele>614.2</ele>
        <time>2021-04-04T07:47:12Z</time>
      </trkpt>
      <trkpt lat="40.2746200" lon="-3.6035130">
        <ele>614.0</ele>
        <time>2021-04-04T07:47:13Z</time>
      </trkpt>
      <trkpt lat="40.2746470" lon="-3.6034780">
        <ele>613.8</ele>
        <time>2021-04-04T07:47:14Z</time>
      </trkpt>
      <trkpt lat="40.2746770" lon="-3.6034430">
        <ele>613.8</ele>
        <time>2021-04-04T07:47:15Z</time>
      </trkpt>
      <trkpt lat="40.2747040" lon="-3.6034100">
        <ele>613.6</ele>
        <time>2021-04-04T07:47:16Z</time>
      </trkpt>
      <trkpt lat="40.2747310" lon="-3.6033770">
        <ele>613.6</ele>
        <time>2021-04-04T07:47:17Z</time>
      </trkpt>
      <trkpt lat="40.2747570" lon="-3.6033450">
        <ele>613.4</ele>
        <time>2021-04-04T07:47:18Z</time>
      </trkpt>
      <trkpt lat="40.2747800" lon="-3.6033100">
        <ele>613.4</ele>
        <time>2021-04-04T07:47:19Z</time>
      </trkpt>
      <trkpt lat="40.2748030" lon="-3.6032690">
        <ele>613.4</ele>
        <time>2021-04-04T07:47:20Z</time>
      </trkpt>
      <trkpt lat="40.2748220" lon="-3.6032300">
        <ele>613.2</ele>
        <time>2021-04-04T07:47:21Z</time>
      </trkpt>
      <trkpt lat="40.2748410" lon="-3.6031960">
        <ele>613.2</ele>
        <time>2021-04-04T07:47:22Z</time>
      </trkpt>
      <trkpt lat="40.2748640" lon="-3.6031690">
        <ele>613.2</ele>
        <time>2021-04-04T07:47:23Z</time>
      </trkpt>
      <trkpt lat="40.2748870" lon="-3.6031420">
        <ele>613.0</ele>
        <time>2021-04-04T07:47:24Z</time>
      </trkpt>
      <trkpt lat="40.2749100" lon="-3.6031150">
        <ele>613.0</ele>
        <time>2021-04-04T07:47:25Z</time>
      </trkpt>
      <trkpt lat="40.2749290" lon="-3.6030910">
        <ele>613.0</ele>
        <time>2021-04-04T07:47:26Z</time>
      </trkpt>
      <trkpt lat="40.2749480" lon="-3.6030650">
        <ele>613.0</ele>
        <time>2021-04-04T07:47:27Z</time>
      </trkpt>
      <trkpt lat="40.2749710" lon="-3.6030370">
        <ele>613.0</ele>
        <time>2021-04-04T07:47:28Z</time>
      </trkpt>
      <trkpt lat="40.2749980" lon="-3.6030070">
        <ele>613.0</ele>
        <time>2021-04-04T07:47:29Z</time>
      </trkpt>
      <trkpt lat="40.2750170" lon="-3.6029770">
        <ele>613.0</ele>
        <time>2021-04-04T07:47:30Z</time>
      </trkpt>
      <trkpt lat="40.2750360" lon="-3.6029480">
        <ele>613.0</ele>
        <time>2021-04-04T07:47:31Z</time>
      </trkpt>
      <trkpt lat="40.2750550" lon="-3.6029180">
        <ele>613.0</ele>
        <time>2021-04-04T07:47:32Z</time>
      </trkpt>
      <trkpt lat="40.2750740" lon="-3.6028900">
        <ele>613.0</ele>
        <time>2021-04-04T07:47:33Z</time>
      </trkpt>
      <trkpt lat="40.2750930" lon="-3.6028610">
        <ele>613.0</ele>
        <time>2021-04-04T07:47:34Z</time>
      </trkpt>
      <trkpt lat="40.2751080" lon="-3.6028330">
        <ele>613.0</ele>
        <time>2021-04-04T07:47:35Z</time>
      </trkpt>
      <trkpt lat="40.2751240" lon="-3.6028070">
        <ele>613.2</ele>
        <time>2021-04-04T07:47:36Z</time>
      </trkpt>
      <trkpt lat="40.2751390" lon="-3.6027820">
        <ele>613.2</ele>
        <time>2021-04-04T07:47:37Z</time>
      </trkpt>
      <trkpt lat="40.2751540" lon="-3.6027570">
        <ele>613.2</ele>
        <time>2021-04-04T07:47:38Z</time>
      </trkpt>
      <trkpt lat="40.2751690" lon="-3.6027320">
        <ele>613.4</ele>
        <time>2021-04-04T07:47:39Z</time>
      </trkpt>
      <trkpt lat="40.2751810" lon="-3.6027070">
        <ele>613.6</ele>
        <time>2021-04-04T07:47:40Z</time>
      </trkpt>
      <trkpt lat="40.2751920" lon="-3.6026850">
        <ele>613.6</ele>
        <time>2021-04-04T07:47:41Z</time>
      </trkpt>
      <trkpt lat="40.2752080" lon="-3.6026640">
        <ele>613.8</ele>
        <time>2021-04-04T07:47:42Z</time>
      </trkpt>
      <trkpt lat="40.2752190" lon="-3.6026440">
        <ele>613.8</ele>
        <time>2021-04-04T07:47:43Z</time>
      </trkpt>
      <trkpt lat="40.2752300" lon="-3.6026240">
        <ele>614.0</ele>
        <time>2021-04-04T07:47:44Z</time>
      </trkpt>
      <trkpt lat="40.2752460" lon="-3.6026060">
        <ele>614.0</ele>
        <time>2021-04-04T07:47:45Z</time>
      </trkpt>
      <trkpt lat="40.2752610" lon="-3.6025880">
        <ele>614.2</ele>
        <time>2021-04-04T07:47:46Z</time>
      </trkpt>
      <trkpt lat="40.2752720" lon="-3.6025700">
        <ele>614.2</ele>
        <time>2021-04-04T07:47:47Z</time>
      </trkpt>
      <trkpt lat="40.2752760" lon="-3.6025520">
        <ele>614.4</ele>
        <time>2021-04-04T07:47:48Z</time>
      </trkpt>
      <trkpt lat="40.2752800" lon="-3.6025350">
        <ele>614.6</ele>
        <time>2021-04-04T07:47:49Z</time>
      </trkpt>
      <trkpt lat="40.2752800" lon="-3.6025170">
        <ele>614.8</ele>
        <time>2021-04-04T07:47:50Z</time>
      </trkpt>
      <trkpt lat="40.2752720" lon="-3.6025010">
        <ele>614.8</ele>
        <time>2021-04-04T07:47:51Z</time>
      </trkpt>
      <trkpt lat="40.2752610" lon="-3.6024850">
        <ele>615.0</ele>
        <time>2021-04-04T07:47:52Z</time>
      </trkpt>
      <trkpt lat="40.2752420" lon="-3.6024740">
        <ele>615.0</ele>
        <time>2021-04-04T07:47:53Z</time>
      </trkpt>
      <trkpt lat="40.2752190" lon="-3.6024680">
        <ele>615.2</ele>
        <time>2021-04-04T07:47:54Z</time>
      </trkpt>
      <trkpt lat="40.2751880" lon="-3.6024690">
        <ele>615.2</ele>
        <time>2021-04-04T07:47:55Z</time>
      </trkpt>
      <trkpt lat="40.2751620" lon="-3.6024740">
        <ele>615.4</ele>
        <time>2021-04-04T07:47:56Z</time>
      </trkpt>
      <trkpt lat="40.2751390" lon="-3.6024770">
        <ele>615.4</ele>
        <time>2021-04-04T07:47:57Z</time>
      </trkpt>
      <trkpt lat="40.2751120" lon="-3.6024750">
        <ele>615.6</ele>
        <time>2021-04-04T07:47:58Z</time>
      </trkpt>
      <trkpt lat="40.2750890" lon="-3.6024700">
        <ele>615.8</ele>
        <time>2021-04-04T07:47:59Z</time>
      </trkpt>
      <trkpt lat="40.2750590" lon="-3.6024670">
        <ele>616.0</ele>
        <time>2021-04-04T07:48:00Z</time>
      </trkpt>
      <trkpt lat="40.2750360" lon="-3.6024690">
        <ele>616.0</ele>
        <time>2021-04-04T07:48:01Z</time>
      </trkpt>
      <trkpt lat="40.2750130" lon="-3.6024710">
        <ele>616.2</ele>
        <time>2021-04-04T07:48:02Z</time>
      </trkpt>
      <trkpt lat="40.2749860" lon="-3.6024740">
        <ele>616.2</ele>
        <time>2021-04-04T07:48:03Z</time>
      </trkpt>
      <trkpt lat="40.2749600" lon="-3.6024760">
        <ele>616.4</ele>
        <time>2021-04-04T07:48:04Z</time>
      </trkpt>
      <trkpt lat="40.2749370" lon="-3.6024790">
        <ele>616.4</ele>
        <time>2021-04-04T07:48:05Z</time>
      </trkpt>
      <trkpt lat="40.2749140" lon="-3.6024810">
        <ele>616.6</ele>
        <time>2021-04-04T07:48:06Z</time>
      </trkpt>
      <trkpt lat="40.2748870" lon="-3.6024820">
        <ele>616.8</ele>
        <time>2021-04-04T07:48:07Z</time>
      </trkpt>
      <trkpt lat="40.2748640" lon="-3.6024830">
        <ele>616.8</ele>
        <time>2021-04-04T07:48:08Z</time>
      </trkpt>
      <trkpt lat="40.2748410" lon="-3.6024850">
        <ele>616.8</ele>
        <time>2021-04-04T07:48:09Z</time>
      </trkpt>
      <trkpt lat="40.2748180" lon="-3.6024880">
        <ele>617.0</ele>
        <time>2021-04-04T07:48:10Z</time>
      </trkpt>
      <trkpt lat="40.2747920" lon="-3.6024910">
        <ele>617.2</ele>
        <time>2021-04-04T07:48:11Z</time>
      </trkpt>
      <trkpt lat="40.2747690" lon="-3.6024930">
        <ele>617.2</ele>
        <time>2021-04-04T07:48:12Z</time>
      </trkpt>
      <trkpt lat="40.2747420" lon="-3.6024940">
        <ele>617.4</ele>
        <time>2021-04-04T07:48:13Z</time>
      </trkpt>
      <trkpt lat="40.2747190" lon="-3.6024950">
        <ele>617.4</ele>
        <time>2021-04-04T07:48:14Z</time>
      </trkpt>
      <trkpt lat="40.2746960" lon="-3.6024950">
        <ele>617.6</ele>
        <time>2021-04-04T07:48:15Z</time>
      </trkpt>
      <trkpt lat="40.2746660" lon="-3.6024940">
        <ele>617.6</ele>
        <time>2021-04-04T07:48:16Z</time>
      </trkpt>
      <trkpt lat="40.2746390" lon="-3.6024930">
        <ele>617.6</ele>
        <time>2021-04-04T07:48:17Z</time>
      </trkpt>
      <trkpt lat="40.2746120" lon="-3.6024910">
        <ele>617.8</ele>
        <time>2021-04-04T07:48:18Z</time>
      </trkpt>
      <trkpt lat="40.2745900" lon="-3.6024890">
        <ele>617.8</ele>
        <time>2021-04-04T07:48:19Z</time>
      </trkpt>
      <trkpt lat="40.2745630" lon="-3.6024870">
        <ele>617.8</ele>
        <time>2021-04-04T07:48:20Z</time>
      </trkpt>
      <trkpt lat="40.2745320" lon="-3.6024830">
        <ele>618.0</ele>
        <time>2021-04-04T07:48:21Z</time>
      </trkpt>
      <trkpt lat="40.2745060" lon="-3.6024780">
        <ele>618.0</ele>
        <time>2021-04-04T07:48:22Z</time>
      </trkpt>
      <trkpt lat="40.2744790" lon="-3.6024740">
        <ele>618.0</ele>
        <time>2021-04-04T07:48:23Z</time>
      </trkpt>
      <trkpt lat="40.2744480" lon="-3.6024690">
        <ele>618.2</ele>
        <time>2021-04-04T07:48:24Z</time>
      </trkpt>
      <trkpt lat="40.2744220" lon="-3.6024610">
        <ele>618.2</ele>
        <time>2021-04-04T07:48:25Z</time>
      </trkpt>
      <trkpt lat="40.2743950" lon="-3.6024530">
        <ele>618.2</ele>
        <time>2021-04-04T07:48:26Z</time>
      </trkpt>
      <trkpt lat="40.2743640" lon="-3.6024450">
        <ele>618.2</ele>
        <time>2021-04-04T07:48:27Z</time>
      </trkpt>
      <trkpt lat="40.2743340" lon="-3.6024370">
        <ele>618.2</ele>
        <time>2021-04-04T07:48:28Z</time>
      </trkpt>
      <trkpt lat="40.2743110" lon="-3.6024300">
        <ele>618.2</ele>
        <time>2021-04-04T07:48:29Z</time>
      </trkpt>
      <trkpt lat="40.2742840" lon="-3.6024200">
        <ele>618.4</ele>
        <time>2021-04-04T07:48:30Z</time>
      </trkpt>
      <trkpt lat="40.2742610" lon="-3.6024120">
        <ele>618.4</ele>
        <time>2021-04-04T07:48:31Z</time>
      </trkpt>
      <trkpt lat="40.2742420" lon="-3.6024050">
        <ele>618.4</ele>
        <time>2021-04-04T07:48:32Z</time>
      </trkpt>
      <trkpt lat="40.2742230" lon="-3.6023970">
        <ele>618.6</ele>
        <time>2021-04-04T07:48:33Z</time>
      </trkpt>
      <trkpt lat="40.2742040" lon="-3.6023870">
        <ele>618.6</ele>
        <time>2021-04-04T07:48:34Z</time>
      </trkpt>
      <trkpt lat="40.2741850" lon="-3.6023770">
        <ele>618.6</ele>
        <time>2021-04-04T07:48:35Z</time>
      </trkpt>
      <trkpt lat="40.2741660" lon="-3.6023640">
        <ele>618.4</ele>
        <time>2021-04-04T07:48:36Z</time>
      </trkpt>
      <trkpt lat="40.2741430" lon="-3.6023490">
        <ele>618.4</ele>
        <time>2021-04-04T07:48:37Z</time>
      </trkpt>
      <trkpt lat="40.2741200" lon="-3.6023310">
        <ele>618.4</ele>
        <time>2021-04-04T07:48:38Z</time>
      </trkpt>
      <trkpt lat="40.2740940" lon="-3.6023100">
        <ele>618.2</ele>
        <time>2021-04-04T07:48:39Z</time>
      </trkpt>
      <trkpt lat="40.2740670" lon="-3.6022830">
        <ele>618.0</ele>
        <time>2021-04-04T07:48:40Z</time>
      </trkpt>
      <trkpt lat="40.2740360" lon="-3.6022470">
        <ele>617.6</ele>
        <time>2021-04-04T07:48:41Z</time>
      </trkpt>
      <trkpt lat="40.2740020" lon="-3.6022050">
        <ele>617.4</ele>
        <time>2021-04-04T07:48:42Z</time>
      </trkpt>
      <trkpt lat="40.2739720" lon="-3.6021620">
        <ele>617.2</ele>
        <time>2021-04-04T07:48:43Z</time>
      </trkpt>
      <trkpt lat="40.2739450" lon="-3.6021180">
        <ele>617.0</ele>
        <time>2021-04-04T07:48:44Z</time>
      </trkpt>
      <trkpt lat="40.2739220" lon="-3.6020760">
        <ele>617.0</ele>
        <time>2021-04-04T07:48:45Z</time>
      </trkpt>
      <trkpt lat="40.2738990" lon="-3.6020340">
        <ele>617.0</ele>
        <time>2021-04-04T07:48:46Z</time>
      </trkpt>
      <trkpt lat="40.2738800" lon="-3.6019920">
        <ele>617.0</ele>
        <time>2021-04-04T07:48:47Z</time>
      </trkpt>
      <trkpt lat="40.2738610" lon="-3.6019510">
        <ele>617.2</ele>
        <time>2021-04-04T07:48:48Z</time>
      </trkpt>
      <trkpt lat="40.2738490" lon="-3.6019110">
        <ele>617.2</ele>
        <time>2021-04-04T07:48:49Z</time>
      </trkpt>
      <trkpt lat="40.2738340" lon="-3.6018710">
        <ele>617.2</ele>
        <time>2021-04-04T07:48:50Z</time>
      </trkpt>
      <trkpt lat="40.2738230" lon="-3.6018300">
        <ele>617.4</ele>
        <time>2021-04-04T07:48:51Z</time>
      </trkpt>
      <trkpt lat="40.2738110" lon="-3.6017900">
        <ele>617.4</ele>
        <time>2021-04-04T07:48:52Z</time>
      </trkpt>
      <trkpt lat="40.2737960" lon="-3.6017490">
        <ele>617.4</ele>
        <time>2021-04-04T07:48:53Z</time>
      </trkpt>
      <trkpt lat="40.2737850" lon="-3.6017070">
        <ele>617.4</ele>
        <time>2021-04-04T07:48:54Z</time>
      </trkpt>
      <trkpt lat="40.2737730" lon="-3.6016660">
        <ele>617.6</ele>
        <time>2021-04-04T07:48:55Z</time>
      </trkpt>
      <trkpt lat="40.2737660" lon="-3.6016250">
        <ele>617.6</ele>
        <time>2021-04-04T07:48:56Z</time>
      </trkpt>
      <trkpt lat="40.2737540" lon="-3.6015870">
        <ele>617.6</ele>
        <time>2021-04-04T07:48:57Z</time>
      </trkpt>
      <trkpt lat="40.2737430" lon="-3.6015500">
        <ele>617.8</ele>
        <time>2021-04-04T07:48:58Z</time>
      </trkpt>
      <trkpt lat="40.2737350" lon="-3.6015160">
        <ele>617.8</ele>
        <time>2021-04-04T07:48:59Z</time>
      </trkpt>
      <trkpt lat="40.2737240" lon="-3.6014830">
        <ele>618.0</ele>
        <time>2021-04-04T07:49:00Z</time>
      </trkpt>
      <trkpt lat="40.2737160" lon="-3.6014510">
        <ele>618.2</ele>
        <time>2021-04-04T07:49:01Z</time>
      </trkpt>
      <trkpt lat="40.2737050" lon="-3.6014200">
        <ele>618.2</ele>
        <time>2021-04-04T07:49:02Z</time>
      </trkpt>
      <trkpt lat="40.2736970" lon="-3.6013890">
        <ele>618.4</ele>
        <time>2021-04-04T07:49:03Z</time>
      </trkpt>
      <trkpt lat="40.2736850" lon="-3.6013580">
        <ele>618.6</ele>
        <time>2021-04-04T07:49:04Z</time>
      </trkpt>
      <trkpt lat="40.2736780" lon="-3.6013270">
        <ele>618.8</ele>
        <time>2021-04-04T07:49:05Z</time>
      </trkpt>
      <trkpt lat="40.2736700" lon="-3.6012970">
        <ele>618.8</ele>
        <time>2021-04-04T07:49:06Z</time>
      </trkpt>
      <trkpt lat="40.2736590" lon="-3.6012670">
        <ele>619.0</ele>
        <time>2021-04-04T07:49:07Z</time>
      </trkpt>
      <trkpt lat="40.2736510" lon="-3.6012360">
        <ele>619.0</ele>
        <time>2021-04-04T07:49:08Z</time>
      </trkpt>
      <trkpt lat="40.2736400" lon="-3.6012040">
        <ele>619.2</ele>
        <time>2021-04-04T07:49:09Z</time>
      </trkpt>
      <trkpt lat="40.2736280" lon="-3.6011710">
        <ele>619.2</ele>
        <time>2021-04-04T07:49:10Z</time>
      </trkpt>
      <trkpt lat="40.2736130" lon="-3.6011380">
        <ele>619.2</ele>
        <time>2021-04-04T07:49:11Z</time>
      </trkpt>
      <trkpt lat="40.2736020" lon="-3.6011030">
        <ele>619.2</ele>
        <time>2021-04-04T07:49:12Z</time>
      </trkpt>
      <trkpt lat="40.2735860" lon="-3.6010670">
        <ele>619.2</ele>
        <time>2021-04-04T07:49:13Z</time>
      </trkpt>
      <trkpt lat="40.2735750" lon="-3.6010320">
        <ele>619.2</ele>
        <time>2021-04-04T07:49:14Z</time>
      </trkpt>
      <trkpt lat="40.2735630" lon="-3.6009970">
        <ele>619.2</ele>
        <time>2021-04-04T07:49:15Z</time>
      </trkpt>
      <trkpt lat="40.2735480" lon="-3.6009610">
        <ele>619.2</ele>
        <time>2021-04-04T07:49:16Z</time>
      </trkpt>
      <trkpt lat="40.2735290" lon="-3.6009230">
        <ele>619.2</ele>
        <time>2021-04-04T07:49:17Z</time>
      </trkpt>
      <trkpt lat="40.2735140" lon="-3.6008830">
        <ele>619.2</ele>
        <time>2021-04-04T07:49:18Z</time>
      </trkpt>
      <trkpt lat="40.2734990" lon="-3.6008440">
        <ele>619.2</ele>
        <time>2021-04-04T07:49:19Z</time>
      </trkpt>
      <trkpt lat="40.2734800" lon="-3.6008060">
        <ele>619.2</ele>
        <time>2021-04-04T07:49:20Z</time>
      </trkpt>
      <trkpt lat="40.2734600" lon="-3.6007690">
        <ele>619.2</ele>
        <time>2021-04-04T07:49:21Z</time>
      </trkpt>
      <trkpt lat="40.2734410" lon="-3.6007330">
        <ele>619.2</ele>
        <time>2021-04-04T07:49:22Z</time>
      </trkpt>
      <trkpt lat="40.2734220" lon="-3.6006990">
        <ele>619.2</ele>
        <time>2021-04-04T07:49:23Z</time>
      </trkpt>
      <trkpt lat="40.2734070" lon="-3.6006690">
        <ele>619.2</ele>
        <time>2021-04-04T07:49:24Z</time>
      </trkpt>
      <trkpt lat="40.2733880" lon="-3.6006400">
        <ele>619.2</ele>
        <time>2021-04-04T07:49:25Z</time>
      </trkpt>
      <trkpt lat="40.2733690" lon="-3.6006110">
        <ele>619.2</ele>
        <time>2021-04-04T07:49:26Z</time>
      </trkpt>
      <trkpt lat="40.2733460" lon="-3.6005850">
        <ele>619.2</ele>
        <time>2021-04-04T07:49:27Z</time>
      </trkpt>
      <trkpt lat="40.2733190" lon="-3.6005580">
        <ele>619.2</ele>
        <time>2021-04-04T07:49:28Z</time>
      </trkpt>
      <trkpt lat="40.2732930" lon="-3.6005310">
        <ele>619.0</ele>
        <time>2021-04-04T07:49:29Z</time>
      </trkpt>
      <trkpt lat="40.2732620" lon="-3.6005040">
        <ele>619.0</ele>
        <time>2021-04-04T07:49:30Z</time>
      </trkpt>
      <trkpt lat="40.2732280" lon="-3.6004770">
        <ele>618.6</ele>
        <time>2021-04-04T07:49:31Z</time>
      </trkpt>
      <trkpt lat="40.2731900" lon="-3.6004490">
        <ele>618.4</ele>
        <time>2021-04-04T07:49:32Z</time>
      </trkpt>
      <trkpt lat="40.2731480" lon="-3.6004200">
        <ele>618.2</ele>
        <time>2021-04-04T07:49:33Z</time>
      </trkpt>
      <trkpt lat="40.2731060" lon="-3.6003930">
        <ele>618.0</ele>
        <time>2021-04-04T07:49:34Z</time>
      </trkpt>
      <trkpt lat="40.2730600" lon="-3.6003690">
        <ele>617.8</ele>
        <time>2021-04-04T07:49:35Z</time>
      </trkpt>
      <trkpt lat="40.2730180" lon="-3.6003470">
        <ele>617.6</ele>
        <time>2021-04-04T07:49:36Z</time>
      </trkpt>
      <trkpt lat="40.2729800" lon="-3.6003260">
        <ele>617.6</ele>
        <time>2021-04-04T07:49:37Z</time>
      </trkpt>
      <trkpt lat="40.2729380" lon="-3.6003080">
        <ele>617.6</ele>
        <time>2021-04-04T07:49:38Z</time>
      </trkpt>
      <trkpt lat="40.2729000" lon="-3.6002900">
        <ele>617.6</ele>
        <time>2021-04-04T07:49:39Z</time>
      </trkpt>
      <trkpt lat="40.2728650" lon="-3.6002740">
        <ele>617.6</ele>
        <time>2021-04-04T07:49:40Z</time>
      </trkpt>
      <trkpt lat="40.2728310" lon="-3.6002580">
        <ele>617.6</ele>
        <time>2021-04-04T07:49:41Z</time>
      </trkpt>
      <trkpt lat="40.2728000" lon="-3.6002410">
        <ele>617.8</ele>
        <time>2021-04-04T07:49:42Z</time>
      </trkpt>
      <trkpt lat="40.2727660" lon="-3.6002260">
        <ele>618.0</ele>
        <time>2021-04-04T07:49:43Z</time>
      </trkpt>
      <trkpt lat="40.2727360" lon="-3.6002110">
        <ele>618.0</ele>
        <time>2021-04-04T07:49:44Z</time>
      </trkpt>
      <trkpt lat="40.2727050" lon="-3.6001990">
        <ele>618.2</ele>
        <time>2021-04-04T07:49:45Z</time>
      </trkpt>
      <trkpt lat="40.2726710" lon="-3.6001870">
        <ele>618.4</ele>
        <time>2021-04-04T07:49:46Z</time>
      </trkpt>
      <trkpt lat="40.2726440" lon="-3.6001740">
        <ele>618.6</ele>
        <time>2021-04-04T07:49:47Z</time>
      </trkpt>
      <trkpt lat="40.2726130" lon="-3.6001620">
        <ele>618.8</ele>
        <time>2021-04-04T07:49:48Z</time>
      </trkpt>
      <trkpt lat="40.2725870" lon="-3.6001510">
        <ele>619.2</ele>
        <time>2021-04-04T07:49:49Z</time>
      </trkpt>
      <trkpt lat="40.2725600" lon="-3.6001410">
        <ele>619.4</ele>
        <time>2021-04-04T07:49:50Z</time>
      </trkpt>
      <trkpt lat="40.2725330" lon="-3.6001320">
        <ele>619.6</ele>
        <time>2021-04-04T07:49:51Z</time>
      </trkpt>
      <trkpt lat="40.2725030" lon="-3.6001220">
        <ele>620.0</ele>
        <time>2021-04-04T07:49:52Z</time>
      </trkpt>
      <trkpt lat="40.2724760" lon="-3.6001110">
        <ele>620.4</ele>
        <time>2021-04-04T07:49:53Z</time>
      </trkpt>
      <trkpt lat="40.2724500" lon="-3.6000990">
        <ele>620.6</ele>
        <time>2021-04-04T07:49:54Z</time>
      </trkpt>
      <trkpt lat="40.2724230" lon="-3.6000890">
        <ele>621.0</ele>
        <time>2021-04-04T07:49:55Z</time>
      </trkpt>
      <trkpt lat="40.2723920" lon="-3.6000790">
        <ele>621.2</ele>
        <time>2021-04-04T07:49:56Z</time>
      </trkpt>
      <trkpt lat="40.2723660" lon="-3.6000680">
        <ele>621.4</ele>
        <time>2021-04-04T07:49:57Z</time>
      </trkpt>
      <trkpt lat="40.2723390" lon="-3.6000580">
        <ele>621.6</ele>
        <time>2021-04-04T07:49:58Z</time>
      </trkpt>
      <trkpt lat="40.2723080" lon="-3.6000500">
        <ele>621.8</ele>
        <time>2021-04-04T07:49:59Z</time>
      </trkpt>
      <trkpt lat="40.2722820" lon="-3.6000410">
        <ele>622.0</ele>
        <time>2021-04-04T07:50:00Z</time>
      </trkpt>
      <trkpt lat="40.2722510" lon="-3.6000300">
        <ele>622.0</ele>
        <time>2021-04-04T07:50:01Z</time>
      </trkpt>
      <trkpt lat="40.2722240" lon="-3.6000150">
        <ele>622.2</ele>
        <time>2021-04-04T07:50:02Z</time>
      </trkpt>
      <trkpt lat="40.2721980" lon="-3.5999990">
        <ele>622.2</ele>
        <time>2021-04-04T07:50:03Z</time>
      </trkpt>
      <trkpt lat="40.2721670" lon="-3.5999840">
        <ele>622.2</ele>
        <time>2021-04-04T07:50:04Z</time>
      </trkpt>
      <trkpt lat="40.2721370" lon="-3.5999680">
        <ele>622.2</ele>
        <time>2021-04-04T07:50:05Z</time>
      </trkpt>
      <trkpt lat="40.2721060" lon="-3.5999500">
        <ele>622.0</ele>
        <time>2021-04-04T07:50:06Z</time>
      </trkpt>
      <trkpt lat="40.2720760" lon="-3.5999350">
        <ele>622.0</ele>
        <time>2021-04-04T07:50:07Z</time>
      </trkpt>
      <trkpt lat="40.2720410" lon="-3.5999230">
        <ele>622.0</ele>
        <time>2021-04-04T07:50:08Z</time>
      </trkpt>
      <trkpt lat="40.2720070" lon="-3.5999190">
        <ele>621.8</ele>
        <time>2021-04-04T07:50:09Z</time>
      </trkpt>
      <trkpt lat="40.2719730" lon="-3.5999260">
        <ele>621.6</ele>
        <time>2021-04-04T07:50:10Z</time>
      </trkpt>
      <trkpt lat="40.2719380" lon="-3.5999470">
        <ele>621.4</ele>
        <time>2021-04-04T07:50:11Z</time>
      </trkpt>
      <trkpt lat="40.2719120" lon="-3.5999790">
        <ele>621.2</ele>
        <time>2021-04-04T07:50:12Z</time>
      </trkpt>
      <trkpt lat="40.2718850" lon="-3.6000150">
        <ele>621.0</ele>
        <time>2021-04-04T07:50:13Z</time>
      </trkpt>
      <trkpt lat="40.2718510" lon="-3.6000470">
        <ele>620.8</ele>
        <time>2021-04-04T07:50:14Z</time>
      </trkpt>
      <trkpt lat="40.2718120" lon="-3.6000660">
        <ele>620.6</ele>
        <time>2021-04-04T07:50:15Z</time>
      </trkpt>
      <trkpt lat="40.2717740" lon="-3.6000640">
        <ele>620.4</ele>
        <time>2021-04-04T07:50:16Z</time>
      </trkpt>
      <trkpt lat="40.2717400" lon="-3.6000450">
        <ele>620.2</ele>
        <time>2021-04-04T07:50:17Z</time>
      </trkpt>
      <trkpt lat="40.2717090" lon="-3.6000200">
        <ele>620.0</ele>
        <time>2021-04-04T07:50:18Z</time>
      </trkpt>
      <trkpt lat="40.2716750" lon="-3.5999940">
        <ele>620.0</ele>
        <time>2021-04-04T07:50:19Z</time>
      </trkpt>
      <trkpt lat="40.2716480" lon="-3.5999710">
        <ele>620.0</ele>
        <time>2021-04-04T07:50:20Z</time>
      </trkpt>
      <trkpt lat="40.2716140" lon="-3.5999510">
        <ele>620.0</ele>
        <time>2021-04-04T07:50:21Z</time>
      </trkpt>
      <trkpt lat="40.2715840" lon="-3.5999320">
        <ele>620.0</ele>
        <time>2021-04-04T07:50:22Z</time>
      </trkpt>
      <trkpt lat="40.2715530" lon="-3.5999150">
        <ele>620.2</ele>
        <time>2021-04-04T07:50:23Z</time>
      </trkpt>
      <trkpt lat="40.2715220" lon="-3.5998990">
        <ele>620.2</ele>
        <time>2021-04-04T07:50:24Z</time>
      </trkpt>
      <trkpt lat="40.2714920" lon="-3.5998830">
        <ele>620.2</ele>
        <time>2021-04-04T07:50:25Z</time>
      </trkpt>
      <trkpt lat="40.2714610" lon="-3.5998690">
        <ele>620.4</ele>
        <time>2021-04-04T07:50:26Z</time>
      </trkpt>
      <trkpt lat="40.2714270" lon="-3.5998540">
        <ele>620.6</ele>
        <time>2021-04-04T07:50:27Z</time>
      </trkpt>
      <trkpt lat="40.2714000" lon="-3.5998400">
        <ele>620.6</ele>
        <time>2021-04-04T07:50:28Z</time>
      </trkpt>
      <trkpt lat="40.2713740" lon="-3.5998260">
        <ele>620.8</ele>
        <time>2021-04-04T07:50:29Z</time>
      </trkpt>
      <trkpt lat="40.2713430" lon="-3.5998130">
        <ele>621.2</ele>
        <time>2021-04-04T07:50:30Z</time>
      </trkpt>
      <trkpt lat="40.2713170" lon="-3.5997980">
        <ele>621.4</ele>
        <time>2021-04-04T07:50:31Z</time>
      </trkpt>
      <trkpt lat="40.2712940" lon="-3.5997830">
        <ele>621.6</ele>
        <time>2021-04-04T07:50:32Z</time>
      </trkpt>
      <trkpt lat="40.2712670" lon="-3.5997680">
        <ele>622.0</ele>
        <time>2021-04-04T07:50:33Z</time>
      </trkpt>
      <trkpt lat="40.2712400" lon="-3.5997540">
        <ele>622.2</ele>
        <time>2021-04-04T07:50:34Z</time>
      </trkpt>
      <trkpt lat="40.2712100" lon="-3.5997400">
        <ele>622.6</ele>
        <time>2021-04-04T07:50:35Z</time>
      </trkpt>
      <trkpt lat="40.2711830" lon="-3.5997270">
        <ele>622.8</ele>
        <time>2021-04-04T07:50:36Z</time>
      </trkpt>
      <trkpt lat="40.2711560" lon="-3.5997150">
        <ele>623.0</ele>
        <time>2021-04-04T07:50:37Z</time>
      </trkpt>
      <trkpt lat="40.2711300" lon="-3.5997010">
        <ele>623.4</ele>
        <time>2021-04-04T07:50:38Z</time>
      </trkpt>
      <trkpt lat="40.2711070" lon="-3.5996850">
        <ele>623.6</ele>
        <time>2021-04-04T07:50:39Z</time>
      </trkpt>
      <trkpt lat="40.2710800" lon="-3.5996670">
        <ele>623.8</ele>
        <time>2021-04-04T07:50:40Z</time>
      </trkpt>
      <trkpt lat="40.2710500" lon="-3.5996500">
        <ele>623.8</ele>
        <time>2021-04-04T07:50:41Z</time>
      </trkpt>
      <trkpt lat="40.2710230" lon="-3.5996330">
        <ele>624.0</ele>
        <time>2021-04-04T07:50:42Z</time>
      </trkpt>
      <trkpt lat="40.2709920" lon="-3.5996150">
        <ele>624.0</ele>
        <time>2021-04-04T07:50:43Z</time>
      </trkpt>
      <trkpt lat="40.2709620" lon="-3.5995970">
        <ele>624.0</ele>
        <time>2021-04-04T07:50:44Z</time>
      </trkpt>
      <trkpt lat="40.2709310" lon="-3.5995800">
        <ele>624.0</ele>
        <time>2021-04-04T07:50:45Z</time>
      </trkpt>
      <trkpt lat="40.2708970" lon="-3.5995620">
        <ele>624.0</ele>
        <time>2021-04-04T07:50:46Z</time>
      </trkpt>
      <trkpt lat="40.2708660" lon="-3.5995420">
        <ele>624.0</ele>
        <time>2021-04-04T07:50:47Z</time>
      </trkpt>
      <trkpt lat="40.2708320" lon="-3.5995190">
        <ele>624.0</ele>
        <time>2021-04-04T07:50:48Z</time>
      </trkpt>
      <trkpt lat="40.2707980" lon="-3.5994970">
        <ele>624.0</ele>
        <time>2021-04-04T07:50:49Z</time>
      </trkpt>
      <trkpt lat="40.2707630" lon="-3.5994750">
        <ele>624.0</ele>
        <time>2021-04-04T07:50:50Z</time>
      </trkpt>
      <trkpt lat="40.2707290" lon="-3.5994540">
        <ele>623.8</ele>
        <time>2021-04-04T07:50:51Z</time>
      </trkpt>
      <trkpt lat="40.2706950" lon="-3.5994310">
        <ele>623.8</ele>
        <time>2021-04-04T07:50:52Z</time>
      </trkpt>
      <trkpt lat="40.2706570" lon="-3.5994050">
        <ele>623.6</ele>
        <time>2021-04-04T07:50:53Z</time>
      </trkpt>
      <trkpt lat="40.2706180" lon="-3.5993790">
        <ele>623.6</ele>
        <time>2021-04-04T07:50:54Z</time>
      </trkpt>
      <trkpt lat="40.2705840" lon="-3.5993550">
        <ele>623.4</ele>
        <time>2021-04-04T07:50:55Z</time>
      </trkpt>
      <trkpt lat="40.2705460" lon="-3.5993300">
        <ele>623.4</ele>
        <time>2021-04-04T07:50:56Z</time>
      </trkpt>
      <trkpt lat="40.2705080" lon="-3.5993050">
        <ele>623.4</ele>
        <time>2021-04-04T07:50:57Z</time>
      </trkpt>
      <trkpt lat="40.2704740" lon="-3.5992790">
        <ele>623.2</ele>
        <time>2021-04-04T07:50:58Z</time>
      </trkpt>
      <trkpt lat="40.2704390" lon="-3.5992530">
        <ele>623.2</ele>
        <time>2021-04-04T07:50:59Z</time>
      </trkpt>
      <trkpt lat="40.2704010" lon="-3.5992250">
        <ele>623.2</ele>
        <time>2021-04-04T07:51:00Z</time>
      </trkpt>
      <trkpt lat="40.2703670" lon="-3.5991960">
        <ele>623.2</ele>
        <time>2021-04-04T07:51:01Z</time>
      </trkpt>
      <trkpt lat="40.2703360" lon="-3.5991680">
        <ele>623.2</ele>
        <time>2021-04-04T07:51:02Z</time>
      </trkpt>
      <trkpt lat="40.2703020" lon="-3.5991420">
        <ele>623.2</ele>
        <time>2021-04-04T07:51:03Z</time>
      </trkpt>
      <trkpt lat="40.2702670" lon="-3.5991170">
        <ele>623.2</ele>
        <time>2021-04-04T07:51:04Z</time>
      </trkpt>
      <trkpt lat="40.2702330" lon="-3.5990920">
        <ele>623.2</ele>
        <time>2021-04-04T07:51:05Z</time>
      </trkpt>
      <trkpt lat="40.2701990" lon="-3.5990640">
        <ele>623.2</ele>
        <time>2021-04-04T07:51:06Z</time>
      </trkpt>
      <trkpt lat="40.2701680" lon="-3.5990370">
        <ele>623.0</ele>
        <time>2021-04-04T07:51:07Z</time>
      </trkpt>
      <trkpt lat="40.2701340" lon="-3.5990100">
        <ele>623.0</ele>
        <time>2021-04-04T07:51:08Z</time>
      </trkpt>
      <trkpt lat="40.2701030" lon="-3.5989830">
        <ele>623.2</ele>
        <time>2021-04-04T07:51:09Z</time>
      </trkpt>
      <trkpt lat="40.2700690" lon="-3.5989580">
        <ele>623.2</ele>
        <time>2021-04-04T07:51:10Z</time>
      </trkpt>
      <trkpt lat="40.2700390" lon="-3.5989340">
        <ele>623.2</ele>
        <time>2021-04-04T07:51:11Z</time>
      </trkpt>
      <trkpt lat="40.2700080" lon="-3.5989130">
        <ele>623.2</ele>
        <time>2021-04-04T07:51:12Z</time>
      </trkpt>
      <trkpt lat="40.2699810" lon="-3.5988960">
        <ele>623.4</ele>
        <time>2021-04-04T07:51:13Z</time>
      </trkpt>
      <trkpt lat="40.2699550" lon="-3.5988790">
        <ele>623.4</ele>
        <time>2021-04-04T07:51:14Z</time>
      </trkpt>
      <trkpt lat="40.2699280" lon="-3.5988650">
        <ele>623.4</ele>
        <time>2021-04-04T07:51:15Z</time>
      </trkpt>
      <trkpt lat="40.2698940" lon="-3.5988550">
        <ele>623.4</ele>
        <time>2021-04-04T07:51:16Z</time>
      </trkpt>
      <trkpt lat="40.2698630" lon="-3.5988490">
        <ele>623.2</ele>
        <time>2021-04-04T07:51:17Z</time>
      </trkpt>
      <trkpt lat="40.2698290" lon="-3.5988450">
        <ele>623.2</ele>
        <time>2021-04-04T07:51:18Z</time>
      </trkpt>
      <trkpt lat="40.2697980" lon="-3.5988390">
        <ele>623.2</ele>
        <time>2021-04-04T07:51:19Z</time>
      </trkpt>
      <trkpt lat="40.2697720" lon="-3.5988310">
        <ele>623.2</ele>
        <time>2021-04-04T07:51:20Z</time>
      </trkpt>
      <trkpt lat="40.2697490" lon="-3.5988190">
        <ele>623.2</ele>
        <time>2021-04-04T07:51:21Z</time>
      </trkpt>
      <trkpt lat="40.2697370" lon="-3.5988000">
        <ele>623.4</ele>
        <time>2021-04-04T07:51:22Z</time>
      </trkpt>
      <trkpt lat="40.2697260" lon="-3.5987770">
        <ele>623.4</ele>
        <time>2021-04-04T07:51:23Z</time>
      </trkpt>
      <trkpt lat="40.2697110" lon="-3.5987520">
        <ele>623.4</ele>
        <time>2021-04-04T07:51:24Z</time>
      </trkpt>
      <trkpt lat="40.2696950" lon="-3.5987270">
        <ele>623.4</ele>
        <time>2021-04-04T07:51:25Z</time>
      </trkpt>
      <trkpt lat="40.2696760" lon="-3.5987020">
        <ele>623.2</ele>
        <time>2021-04-04T07:51:26Z</time>
      </trkpt>
      <trkpt lat="40.2696530" lon="-3.5986760">
        <ele>623.2</ele>
        <time>2021-04-04T07:51:27Z</time>
      </trkpt>
      <trkpt lat="40.2696270" lon="-3.5986500">
        <ele>623.0</ele>
        <time>2021-04-04T07:51:28Z</time>
      </trkpt>
      <trkpt lat="40.2695960" lon="-3.5986250">
        <ele>622.8</ele>
        <time>2021-04-04T07:51:29Z</time>
      </trkpt>
      <trkpt lat="40.2695580" lon="-3.5986060">
        <ele>622.6</ele>
        <time>2021-04-04T07:51:30Z</time>
      </trkpt>
      <trkpt lat="40.2695240" lon="-3.5985870">
        <ele>622.4</ele>
        <time>2021-04-04T07:51:31Z</time>
      </trkpt>
      <trkpt lat="40.2694890" lon="-3.5985670">
        <ele>622.2</ele>
        <time>2021-04-04T07:51:32Z</time>
      </trkpt>
      <trkpt lat="40.2694510" lon="-3.5985450">
        <ele>622.0</ele>
        <time>2021-04-04T07:51:33Z</time>
      </trkpt>
      <trkpt lat="40.2694130" lon="-3.5985230">
        <ele>621.8</ele>
        <time>2021-04-04T07:51:34Z</time>
      </trkpt>
      <trkpt lat="40.2693750" lon="-3.5985030">
        <ele>621.4</ele>
        <time>2021-04-04T07:51:35Z</time>
      </trkpt>
      <trkpt lat="40.2693290" lon="-3.5984780">
        <ele>621.4</ele>
        <time>2021-04-04T07:51:36Z</time>
      </trkpt>
      <trkpt lat="40.2692870" lon="-3.5984510">
        <ele>621.2</ele>
        <time>2021-04-04T07:51:37Z</time>
      </trkpt>
      <trkpt lat="40.2692450" lon="-3.5984240">
        <ele>621.0</ele>
        <time>2021-04-04T07:51:38Z</time>
      </trkpt>
      <trkpt lat="40.2692070" lon="-3.5983990">
        <ele>620.8</ele>
        <time>2021-04-04T07:51:39Z</time>
      </trkpt>
      <trkpt lat="40.2691650" lon="-3.5983770">
        <ele>620.6</ele>
        <time>2021-04-04T07:51:40Z</time>
      </trkpt>
      <trkpt lat="40.2691310" lon="-3.5983530">
        <ele>620.6</ele>
        <time>2021-04-04T07:51:41Z</time>
      </trkpt>
      <trkpt lat="40.2690930" lon="-3.5983250">
        <ele>620.4</ele>
        <time>2021-04-04T07:51:42Z</time>
      </trkpt>
      <trkpt lat="40.2690540" lon="-3.5982950">
        <ele>620.2</ele>
        <time>2021-04-04T07:51:43Z</time>
      </trkpt>
      <trkpt lat="40.2690160" lon="-3.5982660">
        <ele>620.0</ele>
        <time>2021-04-04T07:51:44Z</time>
      </trkpt>
      <trkpt lat="40.2689780" lon="-3.5982380">
        <ele>619.8</ele>
        <time>2021-04-04T07:51:45Z</time>
      </trkpt>
      <trkpt lat="40.2689440" lon="-3.5982110">
        <ele>619.8</ele>
        <time>2021-04-04T07:51:46Z</time>
      </trkpt>
      <trkpt lat="40.2689090" lon="-3.5981830">
        <ele>619.6</ele>
        <time>2021-04-04T07:51:47Z</time>
      </trkpt>
      <trkpt lat="40.2688750" lon="-3.5981550">
        <ele>619.6</ele>
        <time>2021-04-04T07:51:48Z</time>
      </trkpt>
      <trkpt lat="40.2688370" lon="-3.5981290">
        <ele>619.6</ele>
        <time>2021-04-04T07:51:49Z</time>
      </trkpt>
      <trkpt lat="40.2687990" lon="-3.5981040">
        <ele>619.6</ele>
        <time>2021-04-04T07:51:50Z</time>
      </trkpt>
      <trkpt lat="40.2687650" lon="-3.5980800">
        <ele>619.6</ele>
        <time>2021-04-04T07:51:51Z</time>
      </trkpt>
      <trkpt lat="40.2687260" lon="-3.5980590">
        <ele>619.4</ele>
        <time>2021-04-04T07:51:52Z</time>
      </trkpt>
      <trkpt lat="40.2686960" lon="-3.5980410">
        <ele>619.4</ele>
        <time>2021-04-04T07:51:53Z</time>
      </trkpt>
      <trkpt lat="40.2686580" lon="-3.5980220">
        <ele>619.4</ele>
        <time>2021-04-04T07:51:54Z</time>
      </trkpt>
      <trkpt lat="40.2686230" lon="-3.5980060">
        <ele>619.4</ele>
        <time>2021-04-04T07:51:55Z</time>
      </trkpt>
      <trkpt lat="40.2685890" lon="-3.5979900">
        <ele>619.2</ele>
        <time>2021-04-04T07:51:56Z</time>
      </trkpt>
      <trkpt lat="40.2685510" lon="-3.5979740">
        <ele>619.0</ele>
        <time>2021-04-04T07:51:57Z</time>
      </trkpt>
      <trkpt lat="40.2685090" lon="-3.5979570">
        <ele>618.8</ele>
        <time>2021-04-04T07:51:58Z</time>
      </trkpt>
      <trkpt lat="40.2684630" lon="-3.5979410">
        <ele>618.4</ele>
        <time>2021-04-04T07:51:59Z</time>
      </trkpt>
      <trkpt lat="40.2684100" lon="-3.5979250">
        <ele>618.0</ele>
        <time>2021-04-04T07:52:00Z</time>
      </trkpt>
      <trkpt lat="40.2683530" lon="-3.5979090">
        <ele>617.6</ele>
        <time>2021-04-04T07:52:01Z</time>
      </trkpt>
      <trkpt lat="40.2682950" lon="-3.5978910">
        <ele>617.0</ele>
        <time>2021-04-04T07:52:02Z</time>
      </trkpt>
      <trkpt lat="40.2682300" lon="-3.5978700">
        <ele>616.4</ele>
        <time>2021-04-04T07:52:03Z</time>
      </trkpt>
      <trkpt lat="40.2681690" lon="-3.5978490">
        <ele>616.0</ele>
        <time>2021-04-04T07:52:04Z</time>
      </trkpt>
      <trkpt lat="40.2681050" lon="-3.5978360">
        <ele>615.6</ele>
        <time>2021-04-04T07:52:05Z</time>
      </trkpt>
      <trkpt lat="40.2680510" lon="-3.5978330">
        <ele>615.2</ele>
        <time>2021-04-04T07:52:06Z</time>
      </trkpt>
      <trkpt lat="40.2680090" lon="-3.5978260">
        <ele>615.0</ele>
        <time>2021-04-04T07:52:07Z</time>
      </trkpt>
      <trkpt lat="40.2679750" lon="-3.5978090">
        <ele>614.6</ele>
        <time>2021-04-04T07:52:08Z</time>
      </trkpt>
      <trkpt lat="40.2679400" lon="-3.5977830">
        <ele>614.4</ele>
        <time>2021-04-04T07:52:09Z</time>
      </trkpt>
      <trkpt lat="40.2679060" lon="-3.5977520">
        <ele>614.2</ele>
        <time>2021-04-04T07:52:10Z</time>
      </trkpt>
      <trkpt lat="40.2678680" lon="-3.5977210">
        <ele>614.2</ele>
        <time>2021-04-04T07:52:11Z</time>
      </trkpt>
      <trkpt lat="40.2678300" lon="-3.5976960">
        <ele>614.0</ele>
        <time>2021-04-04T07:52:12Z</time>
      </trkpt>
      <trkpt lat="40.2677840" lon="-3.5976810">
        <ele>613.8</ele>
        <time>2021-04-04T07:52:13Z</time>
      </trkpt>
      <trkpt lat="40.2677380" lon="-3.5976690">
        <ele>613.6</ele>
        <time>2021-04-04T07:52:14Z</time>
      </trkpt>
      <trkpt lat="40.2676890" lon="-3.5976580">
        <ele>613.6</ele>
        <time>2021-04-04T07:52:15Z</time>
      </trkpt>
      <trkpt lat="40.2676390" lon="-3.5976500">
        <ele>613.6</ele>
        <time>2021-04-04T07:52:16Z</time>
      </trkpt>
      <trkpt lat="40.2675970" lon="-3.5976510">
        <ele>613.6</ele>
        <time>2021-04-04T07:52:17Z</time>
      </trkpt>
      <trkpt lat="40.2675550" lon="-3.5976600">
        <ele>613.6</ele>
        <time>2021-04-04T07:52:18Z</time>
      </trkpt>
      <trkpt lat="40.2675130" lon="-3.5976740">
        <ele>613.6</ele>
        <time>2021-04-04T07:52:19Z</time>
      </trkpt>
      <trkpt lat="40.2674710" lon="-3.5976940">
        <ele>613.4</ele>
        <time>2021-04-04T07:52:20Z</time>
      </trkpt>
      <trkpt lat="40.2674370" lon="-3.5977160">
        <ele>613.4</ele>
        <time>2021-04-04T07:52:21Z</time>
      </trkpt>
      <trkpt lat="40.2674030" lon="-3.5977360">
        <ele>613.4</ele>
        <time>2021-04-04T07:52:22Z</time>
      </trkpt>
      <trkpt lat="40.2673680" lon="-3.5977580">
        <ele>613.4</ele>
        <time>2021-04-04T07:52:23Z</time>
      </trkpt>
      <trkpt lat="40.2673380" lon="-3.5977820">
        <ele>613.6</ele>
        <time>2021-04-04T07:52:24Z</time>
      </trkpt>
      <trkpt lat="40.2673070" lon="-3.5978080">
        <ele>613.6</ele>
        <time>2021-04-04T07:52:25Z</time>
      </trkpt>
      <trkpt lat="40.2672810" lon="-3.5978310">
        <ele>613.6</ele>
        <time>2021-04-04T07:52:26Z</time>
      </trkpt>
      <trkpt lat="40.2672540" lon="-3.5978500">
        <ele>613.8</ele>
        <time>2021-04-04T07:52:27Z</time>
      </trkpt>
      <trkpt lat="40.2672270" lon="-3.5978690">
        <ele>613.8</ele>
        <time>2021-04-04T07:52:28Z</time>
      </trkpt>
      <trkpt lat="40.2671970" lon="-3.5978900">
        <ele>613.8</ele>
        <time>2021-04-04T07:52:29Z</time>
      </trkpt>
      <trkpt lat="40.2671620" lon="-3.5979130">
        <ele>613.8</ele>
        <time>2021-04-04T07:52:30Z</time>
      </trkpt>
      <trkpt lat="40.2671320" lon="-3.5979400">
        <ele>613.8</ele>
        <time>2021-04-04T07:52:31Z</time>
      </trkpt>
      <trkpt lat="40.2671050" lon="-3.5979640">
        <ele>613.8</ele>
        <time>2021-04-04T07:52:32Z</time>
      </trkpt>
      <trkpt lat="40.2670750" lon="-3.5979840">
        <ele>613.8</ele>
        <time>2021-04-04T07:52:33Z</time>
      </trkpt>
      <trkpt lat="40.2670480" lon="-3.5980050">
        <ele>613.8</ele>
        <time>2021-04-04T07:52:34Z</time>
      </trkpt>
      <trkpt lat="40.2670170" lon="-3.5980290">
        <ele>613.6</ele>
        <time>2021-04-04T07:52:35Z</time>
      </trkpt>
      <trkpt lat="40.2669910" lon="-3.5980530">
        <ele>613.6</ele>
        <time>2021-04-04T07:52:36Z</time>
      </trkpt>
      <trkpt lat="40.2669640" lon="-3.5980760">
        <ele>613.6</ele>
        <time>2021-04-04T07:52:37Z</time>
      </trkpt>
      <trkpt lat="40.2669370" lon="-3.5980990">
        <ele>613.6</ele>
        <time>2021-04-04T07:52:38Z</time>
      </trkpt>
      <trkpt lat="40.2669110" lon="-3.5981210">
        <ele>613.4</ele>
        <time>2021-04-04T07:52:39Z</time>
      </trkpt>
      <trkpt lat="40.2668840" lon="-3.5981430">
        <ele>613.4</ele>
        <time>2021-04-04T07:52:40Z</time>
      </trkpt>
      <trkpt lat="40.2668530" lon="-3.5981620">
        <ele>613.4</ele>
        <time>2021-04-04T07:52:41Z</time>
      </trkpt>
      <trkpt lat="40.2668230" lon="-3.5981750">
        <ele>613.2</ele>
        <time>2021-04-04T07:52:42Z</time>
      </trkpt>
      <trkpt lat="40.2667880" lon="-3.5981860">
        <ele>613.2</ele>
        <time>2021-04-04T07:52:43Z</time>
      </trkpt>
      <trkpt lat="40.2667580" lon="-3.5981990">
        <ele>613.2</ele>
        <time>2021-04-04T07:52:44Z</time>
      </trkpt>
      <trkpt lat="40.2667200" lon="-3.5982070">
        <ele>613.0</ele>
        <time>2021-04-04T07:52:45Z</time>
      </trkpt>
      <trkpt lat="40.2666780" lon="-3.5982170">
        <ele>613.0</ele>
        <time>2021-04-04T07:52:46Z</time>
      </trkpt>
      <trkpt lat="40.2666400" lon="-3.5982250">
        <ele>612.8</ele>
        <time>2021-04-04T07:52:47Z</time>
      </trkpt>
      <trkpt lat="40.2666050" lon="-3.5982310">
        <ele>612.8</ele>
        <time>2021-04-04T07:52:48Z</time>
      </trkpt>
      <trkpt lat="40.2665750" lon="-3.5982320">
        <ele>612.8</ele>
        <time>2021-04-04T07:52:49Z</time>
      </trkpt>
      <trkpt lat="40.2665480" lon="-3.5982320">
        <ele>612.6</ele>
        <time>2021-04-04T07:52:50Z</time>
      </trkpt>
      <trkpt lat="40.2665250" lon="-3.5982340">
        <ele>612.6</ele>
        <time>2021-04-04T07:52:51Z</time>
      </trkpt>
      <trkpt lat="40.2664990" lon="-3.5982400">
        <ele>612.6</ele>
        <time>2021-04-04T07:52:52Z</time>
      </trkpt>
      <trkpt lat="40.2664720" lon="-3.5982470">
        <ele>612.6</ele>
        <time>2021-04-04T07:52:53Z</time>
      </trkpt>
      <trkpt lat="40.2664450" lon="-3.5982530">
        <ele>612.6</ele>
        <time>2021-04-04T07:52:54Z</time>
      </trkpt>
      <trkpt lat="40.2664110" lon="-3.5982620">
        <ele>612.8</ele>
        <time>2021-04-04T07:52:55Z</time>
      </trkpt>
      <trkpt lat="40.2663770" lon="-3.5982740">
        <ele>612.8</ele>
        <time>2021-04-04T07:52:56Z</time>
      </trkpt>
      <trkpt lat="40.2663380" lon="-3.5982930">
        <ele>612.8</ele>
        <time>2021-04-04T07:52:57Z</time>
      </trkpt>
      <trkpt lat="40.2663000" lon="-3.5983130">
        <ele>612.8</ele>
        <time>2021-04-04T07:52:58Z</time>
      </trkpt>
      <trkpt lat="40.2662620" lon="-3.5983360">
        <ele>613.0</ele>
        <time>2021-04-04T07:52:59Z</time>
      </trkpt>
      <trkpt lat="40.2662240" lon="-3.5983620">
        <ele>613.0</ele>
        <time>2021-04-04T07:53:00Z</time>
      </trkpt>
      <trkpt lat="40.2661860" lon="-3.5983910">
        <ele>613.2</ele>
        <time>2021-04-04T07:53:01Z</time>
      </trkpt>
      <trkpt lat="40.2661480" lon="-3.5984190">
        <ele>613.2</ele>
        <time>2021-04-04T07:53:02Z</time>
      </trkpt>
      <trkpt lat="40.2661090" lon="-3.5984410">
        <ele>613.4</ele>
        <time>2021-04-04T07:53:03Z</time>
      </trkpt>
      <trkpt lat="40.2660750" lon="-3.5984580">
        <ele>613.4</ele>
        <time>2021-04-04T07:53:04Z</time>
      </trkpt>
      <trkpt lat="40.2660410" lon="-3.5984720">
        <ele>613.6</ele>
        <time>2021-04-04T07:53:05Z</time>
      </trkpt>
      <trkpt lat="40.2660100" lon="-3.5984850">
        <ele>613.8</ele>
        <time>2021-04-04T07:53:06Z</time>
      </trkpt>
      <trkpt lat="40.2659800" lon="-3.5984940">
        <ele>614.0</ele>
        <time>2021-04-04T07:53:07Z</time>
      </trkpt>
      <trkpt lat="40.2659530" lon="-3.5985000">
        <ele>614.2</ele>
        <time>2021-04-04T07:53:08Z</time>
      </trkpt>
      <trkpt lat="40.2659230" lon="-3.5985090">
        <ele>614.4</ele>
        <time>2021-04-04T07:53:09Z</time>
      </trkpt>
      <trkpt lat="40.2658880" lon="-3.5985210">
        <ele>614.6</ele>
        <time>2021-04-04T07:53:10Z</time>
      </trkpt>
      <trkpt lat="40.2658500" lon="-3.5985280">
        <ele>614.8</ele>
        <time>2021-04-04T07:53:11Z</time>
      </trkpt>
      <trkpt lat="40.2658200" lon="-3.5985310">
        <ele>615.0</ele>
        <time>2021-04-04T07:53:12Z</time>
      </trkpt>
      <trkpt lat="40.2657890" lon="-3.5985380">
        <ele>615.0</ele>
        <time>2021-04-04T07:53:13Z</time>
      </trkpt>
      <trkpt lat="40.2657550" lon="-3.5985500">
        <ele>615.2</ele>
        <time>2021-04-04T07:53:14Z</time>
      </trkpt>
      <trkpt lat="40.2657200" lon="-3.5985650">
        <ele>615.4</ele>
        <time>2021-04-04T07:53:15Z</time>
      </trkpt>
      <trkpt lat="40.2656860" lon="-3.5985820">
        <ele>615.6</ele>
        <time>2021-04-04T07:53:16Z</time>
      </trkpt>
      <trkpt lat="40.2656550" lon="-3.5986000">
        <ele>615.8</ele>
        <time>2021-04-04T07:53:17Z</time>
      </trkpt>
      <trkpt lat="40.2656210" lon="-3.5986180">
        <ele>615.8</ele>
        <time>2021-04-04T07:53:18Z</time>
      </trkpt>
      <trkpt lat="40.2655910" lon="-3.5986370">
        <ele>616.0</ele>
        <time>2021-04-04T07:53:19Z</time>
      </trkpt>
      <trkpt lat="40.2655600" lon="-3.5986550">
        <ele>616.2</ele>
        <time>2021-04-04T07:53:20Z</time>
      </trkpt>
      <trkpt lat="40.2655370" lon="-3.5986730">
        <ele>616.4</ele>
        <time>2021-04-04T07:53:21Z</time>
      </trkpt>
      <trkpt lat="40.2655110" lon="-3.5986910">
        <ele>616.4</ele>
        <time>2021-04-04T07:53:22Z</time>
      </trkpt>
      <trkpt lat="40.2654880" lon="-3.5987140">
        <ele>616.6</ele>
        <time>2021-04-04T07:53:23Z</time>
      </trkpt>
      <trkpt lat="40.2654690" lon="-3.5987380">
        <ele>616.8</ele>
        <time>2021-04-04T07:53:24Z</time>
      </trkpt>
      <trkpt lat="40.2654460" lon="-3.5987620">
        <ele>616.8</ele>
        <time>2021-04-04T07:53:25Z</time>
      </trkpt>
      <trkpt lat="40.2654270" lon="-3.5987920">
        <ele>617.0</ele>
        <time>2021-04-04T07:53:26Z</time>
      </trkpt>
      <trkpt lat="40.2654040" lon="-3.5988190">
        <ele>617.2</ele>
        <time>2021-04-04T07:53:27Z</time>
      </trkpt>
      <trkpt lat="40.2653810" lon="-3.5988410">
        <ele>617.2</ele>
        <time>2021-04-04T07:53:28Z</time>
      </trkpt>
      <trkpt lat="40.2653580" lon="-3.5988590">
        <ele>617.4</ele>
        <time>2021-04-04T07:53:29Z</time>
      </trkpt>
      <trkpt lat="40.2653350" lon="-3.5988740">
        <ele>617.4</ele>
        <time>2021-04-04T07:53:30Z</time>
      </trkpt>
      <trkpt lat="40.2653080" lon="-3.5988840">
        <ele>617.4</ele>
        <time>2021-04-04T07:53:31Z</time>
      </trkpt>
      <trkpt lat="40.2652820" lon="-3.5988900">
        <ele>617.4</ele>
        <time>2021-04-04T07:53:32Z</time>
      </trkpt>
      <trkpt lat="40.2652510" lon="-3.5988950">
        <ele>617.4</ele>
        <time>2021-04-04T07:53:33Z</time>
      </trkpt>
      <trkpt lat="40.2652170" lon="-3.5988970">
        <ele>617.4</ele>
        <time>2021-04-04T07:53:34Z</time>
      </trkpt>
      <trkpt lat="40.2651860" lon="-3.5988950">
        <ele>617.4</ele>
        <time>2021-04-04T07:53:35Z</time>
      </trkpt>
      <trkpt lat="40.2651600" lon="-3.5988900">
        <ele>617.4</ele>
        <time>2021-04-04T07:53:36Z</time>
      </trkpt>
      <trkpt lat="40.2651250" lon="-3.5988850">
        <ele>617.4</ele>
        <time>2021-04-04T07:53:37Z</time>
      </trkpt>
      <trkpt lat="40.2650990" lon="-3.5988800">
        <ele>617.4</ele>
        <time>2021-04-04T07:53:38Z</time>
      </trkpt>
      <trkpt lat="40.2650680" lon="-3.5988760">
        <ele>617.4</ele>
        <time>2021-04-04T07:53:39Z</time>
      </trkpt>
      <trkpt lat="40.2650340" lon="-3.5988740">
        <ele>617.4</ele>
        <time>2021-04-04T07:53:40Z</time>
      </trkpt>
      <trkpt lat="40.2649990" lon="-3.5988700">
        <ele>617.4</ele>
        <time>2021-04-04T07:53:41Z</time>
      </trkpt>
      <trkpt lat="40.2649650" lon="-3.5988680">
        <ele>617.4</ele>
        <time>2021-04-04T07:53:42Z</time>
      </trkpt>
      <trkpt lat="40.2649310" lon="-3.5988680">
        <ele>617.4</ele>
        <time>2021-04-04T07:53:43Z</time>
      </trkpt>
      <trkpt lat="40.2648960" lon="-3.5988660">
        <ele>617.2</ele>
        <time>2021-04-04T07:53:44Z</time>
      </trkpt>
      <trkpt lat="40.2648580" lon="-3.5988600">
        <ele>617.2</ele>
        <time>2021-04-04T07:53:45Z</time>
      </trkpt>
      <trkpt lat="40.2648200" lon="-3.5988540">
        <ele>617.0</ele>
        <time>2021-04-04T07:53:46Z</time>
      </trkpt>
      <trkpt lat="40.2647820" lon="-3.5988500">
        <ele>616.8</ele>
        <time>2021-04-04T07:53:47Z</time>
      </trkpt>
      <trkpt lat="40.2647480" lon="-3.5988450">
        <ele>616.8</ele>
        <time>2021-04-04T07:53:48Z</time>
      </trkpt>
      <trkpt lat="40.2647090" lon="-3.5988440">
        <ele>616.6</ele>
        <time>2021-04-04T07:53:49Z</time>
      </trkpt>
      <trkpt lat="40.2646640" lon="-3.5988440">
        <ele>616.4</ele>
        <time>2021-04-04T07:53:50Z</time>
      </trkpt>
      <trkpt lat="40.2646100" lon="-3.5988440">
        <ele>616.2</ele>
        <time>2021-04-04T07:53:51Z</time>
      </trkpt>
      <trkpt lat="40.2645530" lon="-3.5988500">
        <ele>616.0</ele>
        <time>2021-04-04T07:53:52Z</time>
      </trkpt>
      <trkpt lat="40.2645000" lon="-3.5988650">
        <ele>615.8</ele>
        <time>2021-04-04T07:53:53Z</time>
      </trkpt>
      <trkpt lat="40.2644540" lon="-3.5988920">
        <ele>615.4</ele>
        <time>2021-04-04T07:53:54Z</time>
      </trkpt>
      <trkpt lat="40.2644080" lon="-3.5989310">
        <ele>615.2</ele>
        <time>2021-04-04T07:53:55Z</time>
      </trkpt>
      <trkpt lat="40.2643660" lon="-3.5989770">
        <ele>615.0</ele>
        <time>2021-04-04T07:53:56Z</time>
      </trkpt>
      <trkpt lat="40.2643200" lon="-3.5990240">
        <ele>614.6</ele>
        <time>2021-04-04T07:53:57Z</time>
      </trkpt>
      <trkpt lat="40.2642670" lon="-3.5990660">
        <ele>614.4</ele>
        <time>2021-04-04T07:53:58Z</time>
      </trkpt>
      <trkpt lat="40.2642140" lon="-3.5991100">
        <ele>614.2</ele>
        <time>2021-04-04T07:53:59Z</time>
      </trkpt>
      <trkpt lat="40.2641600" lon="-3.5991550">
        <ele>614.0</ele>
        <time>2021-04-04T07:54:00Z</time>
      </trkpt>
      <trkpt lat="40.2641070" lon="-3.5991980">
        <ele>613.8</ele>
        <time>2021-04-04T07:54:01Z</time>
      </trkpt>
      <trkpt lat="40.2640570" lon="-3.5992380">
        <ele>613.6</ele>
        <time>2021-04-04T07:54:02Z</time>
      </trkpt>
      <trkpt lat="40.2640150" lon="-3.5992760">
        <ele>613.4</ele>
        <time>2021-04-04T07:54:03Z</time>
      </trkpt>
      <trkpt lat="40.2639730" lon="-3.5993150">
        <ele>613.4</ele>
        <time>2021-04-04T07:54:04Z</time>
      </trkpt>
      <trkpt lat="40.2639310" lon="-3.5993570">
        <ele>613.4</ele>
        <time>2021-04-04T07:54:05Z</time>
      </trkpt>
      <trkpt lat="40.2638930" lon="-3.5994020">
        <ele>613.4</ele>
        <time>2021-04-04T07:54:06Z</time>
      </trkpt>
      <trkpt lat="40.2638590" lon="-3.5994520">
        <ele>613.2</ele>
        <time>2021-04-04T07:54:07Z</time>
      </trkpt>
      <trkpt lat="40.2638280" lon="-3.5995050">
        <ele>613.0</ele>
        <time>2021-04-04T07:54:08Z</time>
      </trkpt>
      <trkpt lat="40.2637940" lon="-3.5995580">
        <ele>613.0</ele>
        <time>2021-04-04T07:54:09Z</time>
      </trkpt>
      <trkpt lat="40.2637630" lon="-3.5996110">
        <ele>612.8</ele>
        <time>2021-04-04T07:54:10Z</time>
      </trkpt>
      <trkpt lat="40.2637290" lon="-3.5996620">
        <ele>612.6</ele>
        <time>2021-04-04T07:54:11Z</time>
      </trkpt>
      <trkpt lat="40.2636950" lon="-3.5997120">
        <ele>612.6</ele>
        <time>2021-04-04T07:54:12Z</time>
      </trkpt>
      <trkpt lat="40.2636600" lon="-3.5997610">
        <ele>612.4</ele>
        <time>2021-04-04T07:54:13Z</time>
      </trkpt>
      <trkpt lat="40.2636260" lon="-3.5998070">
        <ele>612.4</ele>
        <time>2021-04-04T07:54:14Z</time>
      </trkpt>
      <trkpt lat="40.2635920" lon="-3.5998490">
        <ele>612.2</ele>
        <time>2021-04-04T07:54:15Z</time>
      </trkpt>
      <trkpt lat="40.2635570" lon="-3.5998870">
        <ele>612.2</ele>
        <time>2021-04-04T07:54:16Z</time>
      </trkpt>
      <trkpt lat="40.2635230" lon="-3.5999210">
        <ele>612.0</ele>
        <time>2021-04-04T07:54:17Z</time>
      </trkpt>
      <trkpt lat="40.2634850" lon="-3.5999540">
        <ele>612.0</ele>
        <time>2021-04-04T07:54:18Z</time>
      </trkpt>
      <trkpt lat="40.2634470" lon="-3.5999820">
        <ele>612.0</ele>
        <time>2021-04-04T07:54:19Z</time>
      </trkpt>
      <trkpt lat="40.2634090" lon="-3.6000050">
        <ele>612.0</ele>
        <time>2021-04-04T07:54:20Z</time>
      </trkpt>
      <trkpt lat="40.2633630" lon="-3.6000180">
        <ele>612.0</ele>
        <time>2021-04-04T07:54:21Z</time>
      </trkpt>
      <trkpt lat="40.2633210" lon="-3.6000150">
        <ele>611.8</ele>
        <time>2021-04-04T07:54:22Z</time>
      </trkpt>
      <trkpt lat="40.2632830" lon="-3.5999980">
        <ele>611.8</ele>
        <time>2021-04-04T07:54:23Z</time>
      </trkpt>
      <trkpt lat="40.2632480" lon="-3.5999680">
        <ele>611.8</ele>
        <time>2021-04-04T07:54:24Z</time>
      </trkpt>
      <trkpt lat="40.2632220" lon="-3.5999290">
        <ele>611.8</ele>
        <time>2021-04-04T07:54:25Z</time>
      </trkpt>
      <trkpt lat="40.2631990" lon="-3.5998870">
        <ele>612.0</ele>
        <time>2021-04-04T07:54:26Z</time>
      </trkpt>
      <trkpt lat="40.2631800" lon="-3.5998440">
        <ele>612.0</ele>
        <time>2021-04-04T07:54:27Z</time>
      </trkpt>
      <trkpt lat="40.2631680" lon="-3.5997980">
        <ele>612.0</ele>
        <time>2021-04-04T07:54:28Z</time>
      </trkpt>
      <trkpt lat="40.2631570" lon="-3.5997530">
        <ele>612.0</ele>
        <time>2021-04-04T07:54:29Z</time>
      </trkpt>
      <trkpt lat="40.2631490" lon="-3.5997080">
        <ele>612.0</ele>
        <time>2021-04-04T07:54:30Z</time>
      </trkpt>
      <trkpt lat="40.2631380" lon="-3.5996630">
        <ele>612.0</ele>
        <time>2021-04-04T07:54:31Z</time>
      </trkpt>
      <trkpt lat="40.2631260" lon="-3.5996200">
        <ele>611.8</ele>
        <time>2021-04-04T07:54:32Z</time>
      </trkpt>
      <trkpt lat="40.2631190" lon="-3.5995760">
        <ele>611.8</ele>
        <time>2021-04-04T07:54:33Z</time>
      </trkpt>
      <trkpt lat="40.2631070" lon="-3.5995340">
        <ele>611.8</ele>
        <time>2021-04-04T07:54:34Z</time>
      </trkpt>
      <trkpt lat="40.2631000" lon="-3.5994920">
        <ele>611.8</ele>
        <time>2021-04-04T07:54:35Z</time>
      </trkpt>
      <trkpt lat="40.2630840" lon="-3.5994450">
        <ele>611.8</ele>
        <time>2021-04-04T07:54:36Z</time>
      </trkpt>
      <trkpt lat="40.2630730" lon="-3.5993990">
        <ele>611.8</ele>
        <time>2021-04-04T07:54:37Z</time>
      </trkpt>
      <trkpt lat="40.2630620" lon="-3.5993570">
        <ele>611.6</ele>
        <time>2021-04-04T07:54:38Z</time>
      </trkpt>
      <trkpt lat="40.2630460" lon="-3.5993160">
        <ele>611.8</ele>
        <time>2021-04-04T07:54:39Z</time>
      </trkpt>
      <trkpt lat="40.2630350" lon="-3.5992760">
        <ele>611.8</ele>
        <time>2021-04-04T07:54:40Z</time>
      </trkpt>
      <trkpt lat="40.2630230" lon="-3.5992380">
        <ele>612.0</ele>
        <time>2021-04-04T07:54:41Z</time>
      </trkpt>
      <trkpt lat="40.2630160" lon="-3.5992010">
        <ele>612.2</ele>
        <time>2021-04-04T07:54:42Z</time>
      </trkpt>
      <trkpt lat="40.2630040" lon="-3.5991640">
        <ele>612.2</ele>
        <time>2021-04-04T07:54:43Z</time>
      </trkpt>
      <trkpt lat="40.2629890" lon="-3.5991280">
        <ele>612.4</ele>
        <time>2021-04-04T07:54:44Z</time>
      </trkpt>
      <trkpt lat="40.2629740" lon="-3.5990950">
        <ele>612.6</ele>
        <time>2021-04-04T07:54:45Z</time>
      </trkpt>
      <trkpt lat="40.2629590" lon="-3.5990590">
        <ele>612.6</ele>
        <time>2021-04-04T07:54:46Z</time>
      </trkpt>
      <trkpt lat="40.2629430" lon="-3.5990220">
        <ele>612.8</ele>
        <time>2021-04-04T07:54:47Z</time>
      </trkpt>
      <trkpt lat="40.2629240" lon="-3.5989830">
        <ele>612.8</ele>
        <time>2021-04-04T07:54:48Z</time>
      </trkpt>
      <trkpt lat="40.2629050" lon="-3.5989430">
        <ele>612.8</ele>
        <time>2021-04-04T07:54:49Z</time>
      </trkpt>
      <trkpt lat="40.2628820" lon="-3.5989060">
        <ele>612.8</ele>
        <time>2021-04-04T07:54:50Z</time>
      </trkpt>
      <trkpt lat="40.2628560" lon="-3.5988690">
        <ele>612.8</ele>
        <time>2021-04-04T07:54:51Z</time>
      </trkpt>
      <trkpt lat="40.2628330" lon="-3.5988320">
        <ele>612.6</ele>
        <time>2021-04-04T07:54:52Z</time>
      </trkpt>
      <trkpt lat="40.2628060" lon="-3.5987960">
        <ele>612.6</ele>
        <time>2021-04-04T07:54:53Z</time>
      </trkpt>
      <trkpt lat="40.2627790" lon="-3.5987600">
        <ele>612.6</ele>
        <time>2021-04-04T07:54:54Z</time>
      </trkpt>
      <trkpt lat="40.2627490" lon="-3.5987240">
        <ele>612.6</ele>
        <time>2021-04-04T07:54:55Z</time>
      </trkpt>
      <trkpt lat="40.2627180" lon="-3.5986850">
        <ele>612.4</ele>
        <time>2021-04-04T07:54:56Z</time>
      </trkpt>
      <trkpt lat="40.2626880" lon="-3.5986430">
        <ele>612.2</ele>
        <time>2021-04-04T07:54:57Z</time>
      </trkpt>
      <trkpt lat="40.2626570" lon="-3.5985980">
        <ele>612.2</ele>
        <time>2021-04-04T07:54:58Z</time>
      </trkpt>
      <trkpt lat="40.2626300" lon="-3.5985530">
        <ele>612.2</ele>
        <time>2021-04-04T07:54:59Z</time>
      </trkpt>
      <trkpt lat="40.2626080" lon="-3.5985100">
        <ele>612.2</ele>
        <time>2021-04-04T07:55:00Z</time>
      </trkpt>
      <trkpt lat="40.2625850" lon="-3.5984680">
        <ele>612.2</ele>
        <time>2021-04-04T07:55:01Z</time>
      </trkpt>
      <trkpt lat="40.2625660" lon="-3.5984270">
        <ele>612.4</ele>
        <time>2021-04-04T07:55:02Z</time>
      </trkpt>
      <trkpt lat="40.2625470" lon="-3.5983900">
        <ele>612.6</ele>
        <time>2021-04-04T07:55:03Z</time>
      </trkpt>
      <trkpt lat="40.2625270" lon="-3.5983580">
        <ele>612.8</ele>
        <time>2021-04-04T07:55:04Z</time>
      </trkpt>
      <trkpt lat="40.2625120" lon="-3.5983270">
        <ele>613.0</ele>
        <time>2021-04-04T07:55:05Z</time>
      </trkpt>
      <trkpt lat="40.2624930" lon="-3.5982980">
        <ele>613.2</ele>
        <time>2021-04-04T07:55:06Z</time>
      </trkpt>
      <trkpt lat="40.2624740" lon="-3.5982730">
        <ele>613.6</ele>
        <time>2021-04-04T07:55:07Z</time>
      </trkpt>
      <trkpt lat="40.2624470" lon="-3.5982520">
        <ele>613.8</ele>
        <time>2021-04-04T07:55:08Z</time>
      </trkpt>
      <trkpt lat="40.2624170" lon="-3.5982370">
        <ele>614.0</ele>
        <time>2021-04-04T07:55:09Z</time>
      </trkpt>
      <trkpt lat="40.2623900" lon="-3.5982250">
        <ele>614.0</ele>
        <time>2021-04-04T07:55:10Z</time>
      </trkpt>
      <trkpt lat="40.2623600" lon="-3.5982150">
        <ele>614.2</ele>
        <time>2021-04-04T07:55:11Z</time>
      </trkpt>
      <trkpt lat="40.2623250" lon="-3.5982080">
        <ele>614.2</ele>
        <time>2021-04-04T07:55:12Z</time>
      </trkpt>
      <trkpt lat="40.2622870" lon="-3.5982040">
        <ele>614.2</ele>
        <time>2021-04-04T07:55:13Z</time>
      </trkpt>
      <trkpt lat="40.2622490" lon="-3.5982010">
        <ele>614.2</ele>
        <time>2021-04-04T07:55:14Z</time>
      </trkpt>
      <trkpt lat="40.2622110" lon="-3.5981980">
        <ele>614.2</ele>
        <time>2021-04-04T07:55:15Z</time>
      </trkpt>
      <trkpt lat="40.2621730" lon="-3.5981920">
        <ele>614.2</ele>
        <time>2021-04-04T07:55:16Z</time>
      </trkpt>
      <trkpt lat="40.2621350" lon="-3.5981860">
        <ele>614.2</ele>
        <time>2021-04-04T07:55:17Z</time>
      </trkpt>
      <trkpt lat="40.2620960" lon="-3.5981790">
        <ele>614.2</ele>
        <time>2021-04-04T07:55:18Z</time>
      </trkpt>
      <trkpt lat="40.2620620" lon="-3.5981680">
        <ele>614.2</ele>
        <time>2021-04-04T07:55:19Z</time>
      </trkpt>
      <trkpt lat="40.2620280" lon="-3.5981510">
        <ele>614.2</ele>
        <time>2021-04-04T07:55:20Z</time>
      </trkpt>
      <trkpt lat="40.2619930" lon="-3.5981310">
        <ele>614.2</ele>
        <time>2021-04-04T07:55:21Z</time>
      </trkpt>
      <trkpt lat="40.2619550" lon="-3.5981070">
        <ele>614.2</ele>
        <time>2021-04-04T07:55:22Z</time>
      </trkpt>
      <trkpt lat="40.2619210" lon="-3.5980820">
        <ele>614.2</ele>
        <time>2021-04-04T07:55:23Z</time>
      </trkpt>
      <trkpt lat="40.2618870" lon="-3.5980570">
        <ele>614.4</ele>
        <time>2021-04-04T07:55:24Z</time>
      </trkpt>
      <trkpt lat="40.2618520" lon="-3.5980320">
        <ele>614.4</ele>
        <time>2021-04-04T07:55:25Z</time>
      </trkpt>
      <trkpt lat="40.2618180" lon="-3.5980070">
        <ele>614.4</ele>
        <time>2021-04-04T07:55:26Z</time>
      </trkpt>
      <trkpt lat="40.2617840" lon="-3.5979830">
        <ele>614.6</ele>
        <time>2021-04-04T07:55:27Z</time>
      </trkpt>
      <trkpt lat="40.2617530" lon="-3.5979610">
        <ele>614.6</ele>
        <time>2021-04-04T07:55:28Z</time>
      </trkpt>
      <trkpt lat="40.2617190" lon="-3.5979410">
        <ele>614.8</ele>
        <time>2021-04-04T07:55:29Z</time>
      </trkpt>
      <trkpt lat="40.2616840" lon="-3.5979220">
        <ele>614.8</ele>
        <time>2021-04-04T07:55:30Z</time>
      </trkpt>
      <trkpt lat="40.2616500" lon="-3.5979080">
        <ele>615.0</ele>
        <time>2021-04-04T07:55:31Z</time>
      </trkpt>
      <trkpt lat="40.2616160" lon="-3.5979010">
        <ele>615.2</ele>
        <time>2021-04-04T07:55:32Z</time>
      </trkpt>
      <trkpt lat="40.2615850" lon="-3.5978980">
        <ele>615.4</ele>
        <time>2021-04-04T07:55:33Z</time>
      </trkpt>
      <trkpt lat="40.2615510" lon="-3.5978960">
        <ele>615.6</ele>
        <time>2021-04-04T07:55:34Z</time>
      </trkpt>
      <trkpt lat="40.2615200" lon="-3.5978960">
        <ele>615.6</ele>
        <time>2021-04-04T07:55:35Z</time>
      </trkpt>
      <trkpt lat="40.2614900" lon="-3.5978980">
        <ele>615.8</ele>
        <time>2021-04-04T07:55:36Z</time>
      </trkpt>
      <trkpt lat="40.2614550" lon="-3.5979050">
        <ele>615.8</ele>
        <time>2021-04-04T07:55:37Z</time>
      </trkpt>
      <trkpt lat="40.2614210" lon="-3.5979140">
        <ele>616.0</ele>
        <time>2021-04-04T07:55:38Z</time>
      </trkpt>
      <trkpt lat="40.2613870" lon="-3.5979240">
        <ele>616.0</ele>
        <time>2021-04-04T07:55:39Z</time>
      </trkpt>
      <trkpt lat="40.2613530" lon="-3.5979340">
        <ele>616.0</ele>
        <time>2021-04-04T07:55:40Z</time>
      </trkpt>
      <trkpt lat="40.2613220" lon="-3.5979430">
        <ele>616.0</ele>
        <time>2021-04-04T07:55:41Z</time>
      </trkpt>
      <trkpt lat="40.2612880" lon="-3.5979500">
        <ele>616.0</ele>
        <time>2021-04-04T07:55:42Z</time>
      </trkpt>
      <trkpt lat="40.2612500" lon="-3.5979510">
        <ele>616.0</ele>
        <time>2021-04-04T07:55:43Z</time>
      </trkpt>
      <trkpt lat="40.2612080" lon="-3.5979480">
        <ele>615.6</ele>
        <time>2021-04-04T07:55:44Z</time>
      </trkpt>
      <trkpt lat="40.2611620" lon="-3.5979390">
        <ele>615.4</ele>
        <time>2021-04-04T07:55:45Z</time>
      </trkpt>
      <trkpt lat="40.2611120" lon="-3.5979240">
        <ele>615.0</ele>
        <time>2021-04-04T07:55:46Z</time>
      </trkpt>
      <trkpt lat="40.2610630" lon="-3.5979030">
        <ele>614.6</ele>
        <time>2021-04-04T07:55:47Z</time>
      </trkpt>
      <trkpt lat="40.2610090" lon="-3.5978750">
        <ele>614.4</ele>
        <time>2021-04-04T07:55:48Z</time>
      </trkpt>
      <trkpt lat="40.2609560" lon="-3.5978450">
        <ele>614.0</ele>
        <time>2021-04-04T07:55:49Z</time>
      </trkpt>
      <trkpt lat="40.2609020" lon="-3.5978110">
        <ele>613.8</ele>
        <time>2021-04-04T07:55:50Z</time>
      </trkpt>
      <trkpt lat="40.2608530" lon="-3.5977760">
        <ele>613.8</ele>
        <time>2021-04-04T07:55:51Z</time>
      </trkpt>
      <trkpt lat="40.2608070" lon="-3.5977410">
        <ele>613.6</ele>
        <time>2021-04-04T07:55:52Z</time>
      </trkpt>
      <trkpt lat="40.2607610" lon="-3.5977050">
        <ele>613.4</ele>
        <time>2021-04-04T07:55:53Z</time>
      </trkpt>
      <trkpt lat="40.2607150" lon="-3.5976670">
        <ele>613.2</ele>
        <time>2021-04-04T07:55:54Z</time>
      </trkpt>
      <trkpt lat="40.2606660" lon="-3.5976300">
        <ele>613.0</ele>
        <time>2021-04-04T07:55:55Z</time>
      </trkpt>
      <trkpt lat="40.2606160" lon="-3.5975930">
        <ele>612.8</ele>
        <time>2021-04-04T07:55:56Z</time>
      </trkpt>
      <trkpt lat="40.2605670" lon="-3.5975600">
        <ele>612.6</ele>
        <time>2021-04-04T07:55:57Z</time>
      </trkpt>
      <trkpt lat="40.2605170" lon="-3.5975320">
        <ele>612.6</ele>
        <time>2021-04-04T07:55:58Z</time>
      </trkpt>
      <trkpt lat="40.2604710" lon="-3.5975100">
        <ele>612.4</ele>
        <time>2021-04-04T07:55:59Z</time>
      </trkpt>
      <trkpt lat="40.2604290" lon="-3.5974980">
        <ele>612.4</ele>
        <time>2021-04-04T07:56:00Z</time>
      </trkpt>
      <trkpt lat="40.2603840" lon="-3.5974950">
        <ele>612.6</ele>
        <time>2021-04-04T07:56:01Z</time>
      </trkpt>
      <trkpt lat="40.2603420" lon="-3.5975020">
        <ele>612.6</ele>
        <time>2021-04-04T07:56:02Z</time>
      </trkpt>
      <trkpt lat="40.2602960" lon="-3.5975090">
        <ele>612.6</ele>
        <time>2021-04-04T07:56:03Z</time>
      </trkpt>
      <trkpt lat="40.2602500" lon="-3.5975170">
        <ele>612.6</ele>
        <time>2021-04-04T07:56:04Z</time>
      </trkpt>
      <trkpt lat="40.2602040" lon="-3.5975250">
        <ele>612.6</ele>
        <time>2021-04-04T07:56:05Z</time>
      </trkpt>
      <trkpt lat="40.2601510" lon="-3.5975330">
        <ele>612.4</ele>
        <time>2021-04-04T07:56:06Z</time>
      </trkpt>
      <trkpt lat="40.2601050" lon="-3.5975390">
        <ele>612.4</ele>
        <time>2021-04-04T07:56:07Z</time>
      </trkpt>
      <trkpt lat="40.2600560" lon="-3.5975450">
        <ele>612.2</ele>
        <time>2021-04-04T07:56:08Z</time>
      </trkpt>
      <trkpt lat="40.2600020" lon="-3.5975470">
        <ele>612.0</ele>
        <time>2021-04-04T07:56:09Z</time>
      </trkpt>
      <trkpt lat="40.2599530" lon="-3.5975400">
        <ele>612.0</ele>
        <time>2021-04-04T07:56:10Z</time>
      </trkpt>
      <trkpt lat="40.2599070" lon="-3.5975240">
        <ele>612.0</ele>
        <time>2021-04-04T07:56:11Z</time>
      </trkpt>
      <trkpt lat="40.2598650" lon="-3.5975020">
        <ele>611.8</ele>
        <time>2021-04-04T07:56:12Z</time>
      </trkpt>
      <trkpt lat="40.2598270" lon="-3.5974760">
        <ele>612.0</ele>
        <time>2021-04-04T07:56:13Z</time>
      </trkpt>
      <trkpt lat="40.2597920" lon="-3.5974450">
        <ele>612.0</ele>
        <time>2021-04-04T07:56:14Z</time>
      </trkpt>
      <trkpt lat="40.2597620" lon="-3.5974070">
        <ele>611.8</ele>
        <time>2021-04-04T07:56:15Z</time>
      </trkpt>
      <trkpt lat="40.2597310" lon="-3.5973590">
        <ele>611.8</ele>
        <time>2021-04-04T07:56:16Z</time>
      </trkpt>
      <trkpt lat="40.2597010" lon="-3.5973070">
        <ele>611.6</ele>
        <time>2021-04-04T07:56:17Z</time>
      </trkpt>
      <trkpt lat="40.2596700" lon="-3.5972500">
        <ele>611.4</ele>
        <time>2021-04-04T07:56:18Z</time>
      </trkpt>
      <trkpt lat="40.2596440" lon="-3.5971890">
        <ele>611.0</ele>
        <time>2021-04-04T07:56:19Z</time>
      </trkpt>
      <trkpt lat="40.2596210" lon="-3.5971220">
        <ele>610.8</ele>
        <time>2021-04-04T07:56:20Z</time>
      </trkpt>
      <trkpt lat="40.2595980" lon="-3.5970520">
        <ele>610.4</ele>
        <time>2021-04-04T07:56:21Z</time>
      </trkpt>
      <trkpt lat="40.2595830" lon="-3.5969780">
        <ele>610.0</ele>
        <time>2021-04-04T07:56:22Z</time>
      </trkpt>
      <trkpt lat="40.2595710" lon="-3.5969000">
        <ele>609.4</ele>
        <time>2021-04-04T07:56:23Z</time>
      </trkpt>
      <trkpt lat="40.2595670" lon="-3.5968180">
        <ele>609.0</ele>
        <time>2021-04-04T07:56:24Z</time>
      </trkpt>
      <trkpt lat="40.2595630" lon="-3.5967340">
        <ele>608.6</ele>
        <time>2021-04-04T07:56:25Z</time>
      </trkpt>
      <trkpt lat="40.2595630" lon="-3.5966480">
        <ele>608.2</ele>
        <time>2021-04-04T07:56:26Z</time>
      </trkpt>
      <trkpt lat="40.2595670" lon="-3.5965580">
        <ele>608.0</ele>
        <time>2021-04-04T07:56:27Z</time>
      </trkpt>
      <trkpt lat="40.2595600" lon="-3.5964680">
        <ele>607.6</ele>
        <time>2021-04-04T07:56:28Z</time>
      </trkpt>
      <trkpt lat="40.2595480" lon="-3.5963810">
        <ele>607.4</ele>
        <time>2021-04-04T07:56:29Z</time>
      </trkpt>
      <trkpt lat="40.2595250" lon="-3.5962940">
        <ele>607.0</ele>
        <time>2021-04-04T07:56:30Z</time>
      </trkpt>
      <trkpt lat="40.2594950" lon="-3.5962140">
        <ele>606.8</ele>
        <time>2021-04-04T07:56:31Z</time>
      </trkpt>
      <trkpt lat="40.2594570" lon="-3.5961390">
        <ele>606.6</ele>
        <time>2021-04-04T07:56:32Z</time>
      </trkpt>
      <trkpt lat="40.2594110" lon="-3.5960710">
        <ele>606.4</ele>
        <time>2021-04-04T07:56:33Z</time>
      </trkpt>
      <trkpt lat="40.2593650" lon="-3.5960080">
        <ele>606.2</ele>
        <time>2021-04-04T07:56:34Z</time>
      </trkpt>
      <trkpt lat="40.2593190" lon="-3.5959500">
        <ele>606.2</ele>
        <time>2021-04-04T07:56:35Z</time>
      </trkpt>
      <trkpt lat="40.2592660" lon="-3.5959020">
        <ele>606.2</ele>
        <time>2021-04-04T07:56:36Z</time>
      </trkpt>
      <trkpt lat="40.2592090" lon="-3.5958760">
        <ele>606.0</ele>
        <time>2021-04-04T07:56:37Z</time>
      </trkpt>
      <trkpt lat="40.2591510" lon="-3.5958710">
        <ele>605.6</ele>
        <time>2021-04-04T07:56:38Z</time>
      </trkpt>
      <trkpt lat="40.2590870" lon="-3.5958760">
        <ele>605.4</ele>
        <time>2021-04-04T07:56:39Z</time>
      </trkpt>
      <trkpt lat="40.2590180" lon="-3.5958860">
        <ele>604.8</ele>
        <time>2021-04-04T07:56:40Z</time>
      </trkpt>
      <trkpt lat="40.2589490" lon="-3.5958980">
        <ele>604.4</ele>
        <time>2021-04-04T07:56:41Z</time>
      </trkpt>
      <trkpt lat="40.2588770" lon="-3.5959100">
        <ele>603.8</ele>
        <time>2021-04-04T07:56:42Z</time>
      </trkpt>
      <trkpt lat="40.2588040" lon="-3.5959210">
        <ele>603.4</ele>
        <time>2021-04-04T07:56:43Z</time>
      </trkpt>
      <trkpt lat="40.2587320" lon="-3.5959340">
        <ele>603.0</ele>
        <time>2021-04-04T07:56:44Z</time>
      </trkpt>
      <trkpt lat="40.2586520" lon="-3.5959490">
        <ele>602.6</ele>
        <time>2021-04-04T07:56:45Z</time>
      </trkpt>
      <trkpt lat="40.2585750" lon="-3.5959650">
        <ele>602.0</ele>
        <time>2021-04-04T07:56:46Z</time>
      </trkpt>
      <trkpt lat="40.2584950" lon="-3.5959860">
        <ele>601.6</ele>
        <time>2021-04-04T07:56:47Z</time>
      </trkpt>
      <trkpt lat="40.2584150" lon="-3.5960150">
        <ele>601.0</ele>
        <time>2021-04-04T07:56:48Z</time>
      </trkpt>
      <trkpt lat="40.2583430" lon="-3.5960490">
        <ele>600.6</ele>
        <time>2021-04-04T07:56:49Z</time>
      </trkpt>
      <trkpt lat="40.2582660" lon="-3.5960890">
        <ele>600.2</ele>
        <time>2021-04-04T07:56:50Z</time>
      </trkpt>
      <trkpt lat="40.2581940" lon="-3.5961310">
        <ele>600.0</ele>
        <time>2021-04-04T07:56:51Z</time>
      </trkpt>
      <trkpt lat="40.2581220" lon="-3.5961730">
        <ele>599.6</ele>
        <time>2021-04-04T07:56:52Z</time>
      </trkpt>
      <trkpt lat="40.2580490" lon="-3.5962150">
        <ele>599.2</ele>
        <time>2021-04-04T07:56:53Z</time>
      </trkpt>
      <trkpt lat="40.2579800" lon="-3.5962570">
        <ele>599.0</ele>
        <time>2021-04-04T07:56:54Z</time>
      </trkpt>
      <trkpt lat="40.2579150" lon="-3.5963020">
        <ele>598.6</ele>
        <time>2021-04-04T07:56:55Z</time>
      </trkpt>
      <trkpt lat="40.2578470" lon="-3.5963480">
        <ele>598.4</ele>
        <time>2021-04-04T07:56:56Z</time>
      </trkpt>
      <trkpt lat="40.2577820" lon="-3.5963880">
        <ele>598.0</ele>
        <time>2021-04-04T07:56:57Z</time>
      </trkpt>
      <trkpt lat="40.2577130" lon="-3.5964180">
        <ele>597.6</ele>
        <time>2021-04-04T07:56:58Z</time>
      </trkpt>
      <trkpt lat="40.2576370" lon="-3.5964420">
        <ele>597.4</ele>
        <time>2021-04-04T07:56:59Z</time>
      </trkpt>
      <trkpt lat="40.2575610" lon="-3.5964650">
        <ele>597.0</ele>
        <time>2021-04-04T07:57:00Z</time>
      </trkpt>
      <trkpt lat="40.2574840" lon="-3.5964840">
        <ele>596.6</ele>
        <time>2021-04-04T07:57:01Z</time>
      </trkpt>
      <trkpt lat="40.2574160" lon="-3.5965020">
        <ele>596.2</ele>
        <time>2021-04-04T07:57:02Z</time>
      </trkpt>
      <trkpt lat="40.2573430" lon="-3.5965200">
        <ele>595.8</ele>
        <time>2021-04-04T07:57:03Z</time>
      </trkpt>
      <trkpt lat="40.2572750" lon="-3.5965410">
        <ele>595.6</ele>
        <time>2021-04-04T07:57:04Z</time>
      </trkpt>
      <trkpt lat="40.2572020" lon="-3.5965670">
        <ele>595.2</ele>
        <time>2021-04-04T07:57:05Z</time>
      </trkpt>
      <trkpt lat="40.2571330" lon="-3.5965940">
        <ele>594.8</ele>
        <time>2021-04-04T07:57:06Z</time>
      </trkpt>
      <trkpt lat="40.2570610" lon="-3.5966230">
        <ele>594.4</ele>
        <time>2021-04-04T07:57:07Z</time>
      </trkpt>
      <trkpt lat="40.2569890" lon="-3.5966500">
        <ele>594.2</ele>
        <time>2021-04-04T07:57:08Z</time>
      </trkpt>
      <trkpt lat="40.2569200" lon="-3.5966690">
        <ele>593.8</ele>
        <time>2021-04-04T07:57:09Z</time>
      </trkpt>
      <trkpt lat="40.2568510" lon="-3.5966730">
        <ele>593.4</ele>
        <time>2021-04-04T07:57:10Z</time>
      </trkpt>
      <trkpt lat="40.2567860" lon="-3.5966540">
        <ele>593.0</ele>
        <time>2021-04-04T07:57:11Z</time>
      </trkpt>
      <trkpt lat="40.2567330" lon="-3.5966180">
        <ele>593.0</ele>
        <time>2021-04-04T07:57:12Z</time>
      </trkpt>
      <trkpt lat="40.2566830" lon="-3.5965760">
        <ele>593.0</ele>
        <time>2021-04-04T07:57:13Z</time>
      </trkpt>
      <trkpt lat="40.2566380" lon="-3.5965400">
        <ele>593.2</ele>
        <time>2021-04-04T07:57:14Z</time>
      </trkpt>
      <trkpt lat="40.2565960" lon="-3.5965090">
        <ele>593.4</ele>
        <time>2021-04-04T07:57:15Z</time>
      </trkpt>
      <trkpt lat="40.2565610" lon="-3.5964830">
        <ele>593.8</ele>
        <time>2021-04-04T07:57:16Z</time>
      </trkpt>
      <trkpt lat="40.2565270" lon="-3.5964620">
        <ele>594.2</ele>
        <time>2021-04-04T07:57:17Z</time>
      </trkpt>
      <trkpt lat="40.2564930" lon="-3.5964420">
        <ele>594.6</ele>
        <time>2021-04-04T07:57:18Z</time>
      </trkpt>
      <trkpt lat="40.2564700" lon="-3.5964240">
        <ele>595.0</ele>
        <time>2021-04-04T07:57:19Z</time>
      </trkpt>
      <trkpt lat="40.2564510" lon="-3.5964040">
        <ele>595.4</ele>
        <time>2021-04-04T07:57:20Z</time>
      </trkpt>
      <trkpt lat="40.2564350" lon="-3.5963810">
        <ele>595.6</ele>
        <time>2021-04-04T07:57:21Z</time>
      </trkpt>
      <trkpt lat="40.2564160" lon="-3.5963590">
        <ele>596.0</ele>
        <time>2021-04-04T07:57:22Z</time>
      </trkpt>
      <trkpt lat="40.2563930" lon="-3.5963390">
        <ele>596.2</ele>
        <time>2021-04-04T07:57:23Z</time>
      </trkpt>
      <trkpt lat="40.2563670" lon="-3.5963210">
        <ele>596.4</ele>
        <time>2021-04-04T07:57:24Z</time>
      </trkpt>
      <trkpt lat="40.2563400" lon="-3.5963020">
        <ele>596.4</ele>
        <time>2021-04-04T07:57:25Z</time>
      </trkpt>
      <trkpt lat="40.2563100" lon="-3.5962800">
        <ele>596.4</ele>
        <time>2021-04-04T07:57:26Z</time>
      </trkpt>
      <trkpt lat="40.2562830" lon="-3.5962580">
        <ele>596.4</ele>
        <time>2021-04-04T07:57:27Z</time>
      </trkpt>
      <trkpt lat="40.2562520" lon="-3.5962340">
        <ele>596.4</ele>
        <time>2021-04-04T07:57:28Z</time>
      </trkpt>
      <trkpt lat="40.2562220" lon="-3.5962120">
        <ele>596.2</ele>
        <time>2021-04-04T07:57:29Z</time>
      </trkpt>
      <trkpt lat="40.2561910" lon="-3.5961930">
        <ele>596.0</ele>
        <time>2021-04-04T07:57:30Z</time>
      </trkpt>
      <trkpt lat="40.2561530" lon="-3.5961730">
        <ele>595.8</ele>
        <time>2021-04-04T07:57:31Z</time>
      </trkpt>
      <trkpt lat="40.2561070" lon="-3.5961520">
        <ele>595.4</ele>
        <time>2021-04-04T07:57:32Z</time>
      </trkpt>
      <trkpt lat="40.2560500" lon="-3.5961350">
        <ele>594.8</ele>
        <time>2021-04-04T07:57:33Z</time>
      </trkpt>
      <trkpt lat="40.2559850" lon="-3.5961260">
        <ele>594.4</ele>
        <time>2021-04-04T07:57:34Z</time>
      </trkpt>
      <trkpt lat="40.2559240" lon="-3.5961240">
        <ele>594.0</ele>
        <time>2021-04-04T07:57:35Z</time>
      </trkpt>
      <trkpt lat="40.2558630" lon="-3.5961270">
        <ele>593.8</ele>
        <time>2021-04-04T07:57:36Z</time>
      </trkpt>
      <trkpt lat="40.2558100" lon="-3.5961360">
        <ele>593.8</ele>
        <time>2021-04-04T07:57:37Z</time>
      </trkpt>
      <trkpt lat="40.2557600" lon="-3.5961480">
        <ele>594.0</ele>
        <time>2021-04-04T07:57:38Z</time>
      </trkpt>
      <trkpt lat="40.2557140" lon="-3.5961600">
        <ele>594.4</ele>
        <time>2021-04-04T07:57:39Z</time>
      </trkpt>
      <trkpt lat="40.2556800" lon="-3.5961730">
        <ele>594.8</ele>
        <time>2021-04-04T07:57:40Z</time>
      </trkpt>
      <trkpt lat="40.2556500" lon="-3.5961830">
        <ele>595.4</ele>
        <time>2021-04-04T07:57:41Z</time>
      </trkpt>
      <trkpt lat="40.2556230" lon="-3.5961910">
        <ele>595.8</ele>
        <time>2021-04-04T07:57:42Z</time>
      </trkpt>
      <trkpt lat="40.2556000" lon="-3.5961990">
        <ele>596.4</ele>
        <time>2021-04-04T07:57:43Z</time>
      </trkpt>
      <trkpt lat="40.2555770" lon="-3.5962120">
        <ele>596.8</ele>
        <time>2021-04-04T07:57:44Z</time>
      </trkpt>
      <trkpt lat="40.2555540" lon="-3.5962270">
        <ele>597.4</ele>
        <time>2021-04-04T07:57:45Z</time>
      </trkpt>
      <trkpt lat="40.2555310" lon="-3.5962410">
        <ele>597.8</ele>
        <time>2021-04-04T07:57:46Z</time>
      </trkpt>
      <trkpt lat="40.2555080" lon="-3.5962570">
        <ele>598.2</ele>
        <time>2021-04-04T07:57:47Z</time>
      </trkpt>
      <trkpt lat="40.2554820" lon="-3.5962720">
        <ele>598.6</ele>
        <time>2021-04-04T07:57:48Z</time>
      </trkpt>
      <trkpt lat="40.2554550" lon="-3.5962850">
        <ele>598.8</ele>
        <time>2021-04-04T07:57:49Z</time>
      </trkpt>
      <trkpt lat="40.2554280" lon="-3.5962990">
        <ele>599.2</ele>
        <time>2021-04-04T07:57:50Z</time>
      </trkpt>
      <trkpt lat="40.2553980" lon="-3.5963130">
        <ele>599.4</ele>
        <time>2021-04-04T07:57:51Z</time>
      </trkpt>
      <trkpt lat="40.2553710" lon="-3.5963270">
        <ele>599.6</ele>
        <time>2021-04-04T07:57:52Z</time>
      </trkpt>
      <trkpt lat="40.2553440" lon="-3.5963410">
        <ele>599.6</ele>
        <time>2021-04-04T07:57:53Z</time>
      </trkpt>
      <trkpt lat="40.2553140" lon="-3.5963520">
        <ele>599.8</ele>
        <time>2021-04-04T07:57:54Z</time>
      </trkpt>
      <trkpt lat="40.2552830" lon="-3.5963620">
        <ele>599.8</ele>
        <time>2021-04-04T07:57:55Z</time>
      </trkpt>
      <trkpt lat="40.2552570" lon="-3.5963710">
        <ele>599.8</ele>
        <time>2021-04-04T07:57:56Z</time>
      </trkpt>
      <trkpt lat="40.2552220" lon="-3.5963780">
        <ele>599.8</ele>
        <time>2021-04-04T07:57:57Z</time>
      </trkpt>
      <trkpt lat="40.2551920" lon="-3.5963840">
        <ele>599.8</ele>
        <time>2021-04-04T07:57:58Z</time>
      </trkpt>
      <trkpt lat="40.2551580" lon="-3.5963850">
        <ele>600.0</ele>
        <time>2021-04-04T07:57:59Z</time>
      </trkpt>
      <trkpt lat="40.2551230" lon="-3.5963840">
        <ele>600.0</ele>
        <time>2021-04-04T07:58:00Z</time>
      </trkpt>
      <trkpt lat="40.2550930" lon="-3.5963800">
        <ele>600.0</ele>
        <time>2021-04-04T07:58:01Z</time>
      </trkpt>
      <trkpt lat="40.2550620" lon="-3.5963730">
        <ele>600.0</ele>
        <time>2021-04-04T07:58:02Z</time>
      </trkpt>
      <trkpt lat="40.2550320" lon="-3.5963630">
        <ele>600.2</ele>
        <time>2021-04-04T07:58:03Z</time>
      </trkpt>
      <trkpt lat="40.2550010" lon="-3.5963510">
        <ele>600.2</ele>
        <time>2021-04-04T07:58:04Z</time>
      </trkpt>
      <trkpt lat="40.2549710" lon="-3.5963390">
        <ele>600.4</ele>
        <time>2021-04-04T07:58:05Z</time>
      </trkpt>
      <trkpt lat="40.2549440" lon="-3.5963270">
        <ele>600.6</ele>
        <time>2021-04-04T07:58:06Z</time>
      </trkpt>
      <trkpt lat="40.2549090" lon="-3.5963140">
        <ele>600.6</ele>
        <time>2021-04-04T07:58:07Z</time>
      </trkpt>
      <trkpt lat="40.2548750" lon="-3.5963020">
        <ele>600.8</ele>
        <time>2021-04-04T07:58:08Z</time>
      </trkpt>
      <trkpt lat="40.2548450" lon="-3.5962880">
        <ele>601.2</ele>
        <time>2021-04-04T07:58:09Z</time>
      </trkpt>
      <trkpt lat="40.2548140" lon="-3.5962760">
        <ele>601.4</ele>
        <time>2021-04-04T07:58:10Z</time>
      </trkpt>
      <trkpt lat="40.2547870" lon="-3.5962660">
        <ele>601.6</ele>
        <time>2021-04-04T07:58:11Z</time>
      </trkpt>
      <trkpt lat="40.2547570" lon="-3.5962600">
        <ele>601.8</ele>
        <time>2021-04-04T07:58:12Z</time>
      </trkpt>
      <trkpt lat="40.2547260" lon="-3.5962580">
        <ele>602.0</ele>
        <time>2021-04-04T07:58:13Z</time>
      </trkpt>
      <trkpt lat="40.2546920" lon="-3.5962580">
        <ele>602.2</ele>
        <time>2021-04-04T07:58:14Z</time>
      </trkpt>
      <trkpt lat="40.2546620" lon="-3.5962630">
        <ele>602.4</ele>
        <time>2021-04-04T07:58:15Z</time>
      </trkpt>
      <trkpt lat="40.2546270" lon="-3.5962700">
        <ele>602.4</ele>
        <time>2021-04-04T07:58:16Z</time>
      </trkpt>
      <trkpt lat="40.2545930" lon="-3.5962770">
        <ele>602.6</ele>
        <time>2021-04-04T07:58:17Z</time>
      </trkpt>
      <trkpt lat="40.2545620" lon="-3.5962860">
        <ele>602.6</ele>
        <time>2021-04-04T07:58:18Z</time>
      </trkpt>
      <trkpt lat="40.2545320" lon="-3.5962960">
        <ele>602.8</ele>
        <time>2021-04-04T07:58:19Z</time>
      </trkpt>
      <trkpt lat="40.2544980" lon="-3.5963070">
        <ele>602.8</ele>
        <time>2021-04-04T07:58:20Z</time>
      </trkpt>
      <trkpt lat="40.2544670" lon="-3.5963180">
        <ele>602.8</ele>
        <time>2021-04-04T07:58:21Z</time>
      </trkpt>
      <trkpt lat="40.2544400" lon="-3.5963270">
        <ele>602.8</ele>
        <time>2021-04-04T07:58:22Z</time>
      </trkpt>
      <trkpt lat="40.2544100" lon="-3.5963380">
        <ele>603.0</ele>
        <time>2021-04-04T07:58:23Z</time>
      </trkpt>
      <trkpt lat="40.2543750" lon="-3.5963490">
        <ele>603.0</ele>
        <time>2021-04-04T07:58:24Z</time>
      </trkpt>
      <trkpt lat="40.2543450" lon="-3.5963600">
        <ele>603.0</ele>
        <time>2021-04-04T07:58:25Z</time>
      </trkpt>
      <trkpt lat="40.2543110" lon="-3.5963720">
        <ele>603.2</ele>
        <time>2021-04-04T07:58:26Z</time>
      </trkpt>
      <trkpt lat="40.2542800" lon="-3.5963840">
        <ele>603.2</ele>
        <time>2021-04-04T07:58:27Z</time>
      </trkpt>
      <trkpt lat="40.2542500" lon="-3.5963960">
        <ele>603.4</ele>
        <time>2021-04-04T07:58:28Z</time>
      </trkpt>
      <trkpt lat="40.2542150" lon="-3.5964060">
        <ele>603.4</ele>
        <time>2021-04-04T07:58:29Z</time>
      </trkpt>
      <trkpt lat="40.2541850" lon="-3.5964130">
        <ele>603.4</ele>
        <time>2021-04-04T07:58:30Z</time>
      </trkpt>
      <trkpt lat="40.2541500" lon="-3.5964190">
        <ele>603.6</ele>
        <time>2021-04-04T07:58:31Z</time>
      </trkpt>
      <trkpt lat="40.2541160" lon="-3.5964250">
        <ele>603.6</ele>
        <time>2021-04-04T07:58:32Z</time>
      </trkpt>
      <trkpt lat="40.2540820" lon="-3.5964300">
        <ele>603.6</ele>
        <time>2021-04-04T07:58:33Z</time>
      </trkpt>
      <trkpt lat="40.2540550" lon="-3.5964330">
        <ele>603.8</ele>
        <time>2021-04-04T07:58:34Z</time>
      </trkpt>
      <trkpt lat="40.2540210" lon="-3.5964360">
        <ele>603.8</ele>
        <time>2021-04-04T07:58:35Z</time>
      </trkpt>
      <trkpt lat="40.2539860" lon="-3.5964390">
        <ele>603.8</ele>
        <time>2021-04-04T07:58:36Z</time>
      </trkpt>
      <trkpt lat="40.2539520" lon="-3.5964440">
        <ele>603.8</ele>
        <time>2021-04-04T07:58:37Z</time>
      </trkpt>
      <trkpt lat="40.2539140" lon="-3.5964520">
        <ele>603.8</ele>
        <time>2021-04-04T07:58:38Z</time>
      </trkpt>
      <trkpt lat="40.2538760" lon="-3.5964590">
        <ele>603.8</ele>
        <time>2021-04-04T07:58:39Z</time>
      </trkpt>
      <trkpt lat="40.2538410" lon="-3.5964640">
        <ele>603.8</ele>
        <time>2021-04-04T07:58:40Z</time>
      </trkpt>
      <trkpt lat="40.2538030" lon="-3.5964680">
        <ele>603.8</ele>
        <time>2021-04-04T07:58:41Z</time>
      </trkpt>
      <trkpt lat="40.2537650" lon="-3.5964740">
        <ele>603.8</ele>
        <time>2021-04-04T07:58:42Z</time>
      </trkpt>
      <trkpt lat="40.2537270" lon="-3.5964800">
        <ele>603.8</ele>
        <time>2021-04-04T07:58:43Z</time>
      </trkpt>
      <trkpt lat="40.2536890" lon="-3.5964860">
        <ele>603.6</ele>
        <time>2021-04-04T07:58:44Z</time>
      </trkpt>
      <trkpt lat="40.2536470" lon="-3.5964940">
        <ele>603.6</ele>
        <time>2021-04-04T07:58:45Z</time>
      </trkpt>
      <trkpt lat="40.2536050" lon="-3.5965040">
        <ele>603.6</ele>
        <time>2021-04-04T07:58:46Z</time>
      </trkpt>
      <trkpt lat="40.2535670" lon="-3.5965140">
        <ele>603.6</ele>
        <time>2021-04-04T07:58:47Z</time>
      </trkpt>
      <trkpt lat="40.2535250" lon="-3.5965230">
        <ele>603.6</ele>
        <time>2021-04-04T07:58:48Z</time>
      </trkpt>
      <trkpt lat="40.2534830" lon="-3.5965310">
        <ele>603.6</ele>
        <time>2021-04-04T07:58:49Z</time>
      </trkpt>
      <trkpt lat="40.2534450" lon="-3.5965390">
        <ele>603.6</ele>
        <time>2021-04-04T07:58:50Z</time>
      </trkpt>
      <trkpt lat="40.2534030" lon="-3.5965440">
        <ele>603.6</ele>
        <time>2021-04-04T07:58:51Z</time>
      </trkpt>
      <trkpt lat="40.2533610" lon="-3.5965470">
        <ele>603.6</ele>
        <time>2021-04-04T07:58:52Z</time>
      </trkpt>
      <trkpt lat="40.2533260" lon="-3.5965470">
        <ele>603.6</ele>
        <time>2021-04-04T07:58:53Z</time>
      </trkpt>
      <trkpt lat="40.2532920" lon="-3.5965420">
        <ele>603.6</ele>
        <time>2021-04-04T07:58:54Z</time>
      </trkpt>
      <trkpt lat="40.2532620" lon="-3.5965340">
        <ele>603.6</ele>
        <time>2021-04-04T07:58:55Z</time>
      </trkpt>
      <trkpt lat="40.2532350" lon="-3.5965210">
        <ele>603.8</ele>
        <time>2021-04-04T07:58:56Z</time>
      </trkpt>
      <trkpt lat="40.2532080" lon="-3.5965070">
        <ele>603.8</ele>
        <time>2021-04-04T07:58:57Z</time>
      </trkpt>
      <trkpt lat="40.2531780" lon="-3.5964950">
        <ele>603.8</ele>
        <time>2021-04-04T07:58:58Z</time>
      </trkpt>
      <trkpt lat="40.2531550" lon="-3.5964780">
        <ele>603.8</ele>
        <time>2021-04-04T07:58:59Z</time>
      </trkpt>
      <trkpt lat="40.2531320" lon="-3.5964560">
        <ele>603.8</ele>
        <time>2021-04-04T07:59:00Z</time>
      </trkpt>
      <trkpt lat="40.2531050" lon="-3.5964320">
        <ele>603.8</ele>
        <time>2021-04-04T07:59:01Z</time>
      </trkpt>
      <trkpt lat="40.2530820" lon="-3.5964080">
        <ele>603.6</ele>
        <time>2021-04-04T07:59:02Z</time>
      </trkpt>
      <trkpt lat="40.2530560" lon="-3.5963810">
        <ele>603.6</ele>
        <time>2021-04-04T07:59:03Z</time>
      </trkpt>
      <trkpt lat="40.2530290" lon="-3.5963550">
        <ele>603.6</ele>
        <time>2021-04-04T07:59:04Z</time>
      </trkpt>
      <trkpt lat="40.2530020" lon="-3.5963310">
        <ele>603.4</ele>
        <time>2021-04-04T07:59:05Z</time>
      </trkpt>
      <trkpt lat="40.2529720" lon="-3.5963110">
        <ele>603.4</ele>
        <time>2021-04-04T07:59:06Z</time>
      </trkpt>
      <trkpt lat="40.2529410" lon="-3.5962930">
        <ele>603.2</ele>
        <time>2021-04-04T07:59:07Z</time>
      </trkpt>
      <trkpt lat="40.2529070" lon="-3.5962750">
        <ele>603.0</ele>
        <time>2021-04-04T07:59:08Z</time>
      </trkpt>
      <trkpt lat="40.2528720" lon="-3.5962560">
        <ele>602.8</ele>
        <time>2021-04-04T07:59:09Z</time>
      </trkpt>
      <trkpt lat="40.2528340" lon="-3.5962370">
        <ele>602.6</ele>
        <time>2021-04-04T07:59:10Z</time>
      </trkpt>
      <trkpt lat="40.2527920" lon="-3.5962170">
        <ele>602.2</ele>
        <time>2021-04-04T07:59:11Z</time>
      </trkpt>
      <trkpt lat="40.2527540" lon="-3.5961970">
        <ele>602.0</ele>
        <time>2021-04-04T07:59:12Z</time>
      </trkpt>
      <trkpt lat="40.2527080" lon="-3.5961740">
        <ele>601.8</ele>
        <time>2021-04-04T07:59:13Z</time>
      </trkpt>
      <trkpt lat="40.2526630" lon="-3.5961530">
        <ele>601.6</ele>
        <time>2021-04-04T07:59:14Z</time>
      </trkpt>
      <trkpt lat="40.2526170" lon="-3.5961350">
        <ele>601.4</ele>
        <time>2021-04-04T07:59:15Z</time>
      </trkpt>
      <trkpt lat="40.2525710" lon="-3.5961160">
        <ele>601.0</ele>
        <time>2021-04-04T07:59:16Z</time>
      </trkpt>
      <trkpt lat="40.2525180" lon="-3.5960980">
        <ele>600.6</ele>
        <time>2021-04-04T07:59:17Z</time>
      </trkpt>
      <trkpt lat="40.2524720" lon="-3.5960790">
        <ele>600.0</ele>
        <time>2021-04-04T07:59:18Z</time>
      </trkpt>
      <trkpt lat="40.2524260" lon="-3.5960540">
        <ele>599.4</ele>
        <time>2021-04-04T07:59:19Z</time>
      </trkpt>
      <trkpt lat="40.2523690" lon="-3.5960250">
        <ele>598.6</ele>
        <time>2021-04-04T07:59:20Z</time>
      </trkpt>
      <trkpt lat="40.2523120" lon="-3.5959930">
        <ele>597.8</ele>
        <time>2021-04-04T07:59:21Z</time>
      </trkpt>
      <trkpt lat="40.2522430" lon="-3.5959570">
        <ele>597.2</ele>
        <time>2021-04-04T07:59:22Z</time>
      </trkpt>
      <trkpt lat="40.2521740" lon="-3.5959200">
        <ele>596.4</ele>
        <time>2021-04-04T07:59:23Z</time>
      </trkpt>
      <trkpt lat="40.2521100" lon="-3.5958830">
        <ele>595.8</ele>
        <time>2021-04-04T07:59:24Z</time>
      </trkpt>
      <trkpt lat="40.2520410" lon="-3.5958440">
        <ele>595.0</ele>
        <time>2021-04-04T07:59:25Z</time>
      </trkpt>
      <trkpt lat="40.2519720" lon="-3.5958040">
        <ele>594.4</ele>
        <time>2021-04-04T07:59:26Z</time>
      </trkpt>
      <trkpt lat="40.2519110" lon="-3.5957600">
        <ele>594.0</ele>
        <time>2021-04-04T07:59:27Z</time>
      </trkpt>
      <trkpt lat="40.2518460" lon="-3.5957110">
        <ele>593.4</ele>
        <time>2021-04-04T07:59:28Z</time>
      </trkpt>
      <trkpt lat="40.2517850" lon="-3.5956620">
        <ele>593.2</ele>
        <time>2021-04-04T07:59:29Z</time>
      </trkpt>
      <trkpt lat="40.2517280" lon="-3.5956120">
        <ele>592.8</ele>
        <time>2021-04-04T07:59:30Z</time>
      </trkpt>
      <trkpt lat="40.2516710" lon="-3.5955620">
        <ele>592.6</ele>
        <time>2021-04-04T07:59:31Z</time>
      </trkpt>
      <trkpt lat="40.2516170" lon="-3.5955160">
        <ele>592.2</ele>
        <time>2021-04-04T07:59:32Z</time>
      </trkpt>
      <trkpt lat="40.2515560" lon="-3.5954730">
        <ele>592.0</ele>
        <time>2021-04-04T07:59:33Z</time>
      </trkpt>
      <trkpt lat="40.2515030" lon="-3.5954330">
        <ele>591.8</ele>
        <time>2021-04-04T07:59:34Z</time>
      </trkpt>
      <trkpt lat="40.2514460" lon="-3.5953960">
        <ele>591.6</ele>
        <time>2021-04-04T07:59:35Z</time>
      </trkpt>
      <trkpt lat="40.2513850" lon="-3.5953600">
        <ele>591.6</ele>
        <time>2021-04-04T07:59:36Z</time>
      </trkpt>
      <trkpt lat="40.2513240" lon="-3.5953250">
        <ele>591.4</ele>
        <time>2021-04-04T07:59:37Z</time>
      </trkpt>
      <trkpt lat="40.2512630" lon="-3.5952880">
        <ele>591.4</ele>
        <time>2021-04-04T07:59:38Z</time>
      </trkpt>
      <trkpt lat="40.2512020" lon="-3.5952490">
        <ele>591.2</ele>
        <time>2021-04-04T07:59:39Z</time>
      </trkpt>
      <trkpt lat="40.2511440" lon="-3.5952060">
        <ele>591.2</ele>
        <time>2021-04-04T07:59:40Z</time>
      </trkpt>
      <trkpt lat="40.2510870" lon="-3.5951640">
        <ele>591.2</ele>
        <time>2021-04-04T07:59:41Z</time>
      </trkpt>
      <trkpt lat="40.2510340" lon="-3.5951210">
        <ele>591.2</ele>
        <time>2021-04-04T07:59:42Z</time>
      </trkpt>
      <trkpt lat="40.2509800" lon="-3.5950730">
        <ele>591.0</ele>
        <time>2021-04-04T07:59:43Z</time>
      </trkpt>
      <trkpt lat="40.2509310" lon="-3.5950210">
        <ele>590.6</ele>
        <time>2021-04-04T07:59:44Z</time>
      </trkpt>
      <trkpt lat="40.2508770" lon="-3.5949740">
        <ele>590.4</ele>
        <time>2021-04-04T07:59:45Z</time>
      </trkpt>
      <trkpt lat="40.2508160" lon="-3.5949270">
        <ele>590.0</ele>
        <time>2021-04-04T07:59:46Z</time>
      </trkpt>
      <trkpt lat="40.2507550" lon="-3.5948810">
        <ele>589.8</ele>
        <time>2021-04-04T07:59:47Z</time>
      </trkpt>
      <trkpt lat="40.2506980" lon="-3.5948380">
        <ele>589.6</ele>
        <time>2021-04-04T07:59:48Z</time>
      </trkpt>
      <trkpt lat="40.2506330" lon="-3.5947990">
        <ele>589.2</ele>
        <time>2021-04-04T07:59:49Z</time>
      </trkpt>
      <trkpt lat="40.2505610" lon="-3.5947640">
        <ele>588.8</ele>
        <time>2021-04-04T07:59:50Z</time>
      </trkpt>
      <trkpt lat="40.2504920" lon="-3.5947390">
        <ele>588.4</ele>
        <time>2021-04-04T07:59:51Z</time>
      </trkpt>
      <trkpt lat="40.2504200" lon="-3.5947210">
        <ele>588.0</ele>
        <time>2021-04-04T07:59:52Z</time>
      </trkpt>
      <trkpt lat="40.2503360" lon="-3.5947040">
        <ele>587.4</ele>
        <time>2021-04-04T07:59:53Z</time>
      </trkpt>
      <trkpt lat="40.2502560" lon="-3.5946880">
        <ele>586.8</ele>
        <time>2021-04-04T07:59:54Z</time>
      </trkpt>
      <trkpt lat="40.2501790" lon="-3.5946680">
        <ele>586.2</ele>
        <time>2021-04-04T07:59:55Z</time>
      </trkpt>
      <trkpt lat="40.2501030" lon="-3.5946440">
        <ele>585.8</ele>
        <time>2021-04-04T07:59:56Z</time>
      </trkpt>
      <trkpt lat="40.2500230" lon="-3.5946150">
        <ele>585.2</ele>
        <time>2021-04-04T07:59:57Z</time>
      </trkpt>
      <trkpt lat="40.2499500" lon="-3.5945770">
        <ele>584.6</ele>
        <time>2021-04-04T07:59:58Z</time>
      </trkpt>
      <trkpt lat="40.2498860" lon="-3.5945250">
        <ele>584.2</ele>
        <time>2021-04-04T07:59:59Z</time>
      </trkpt>
      <trkpt lat="40.2498250" lon="-3.5944630">
        <ele>584.0</ele>
        <time>2021-04-04T08:00:00Z</time>
      </trkpt>
      <trkpt lat="40.2497670" lon="-3.5943980">
        <ele>583.6</ele>
        <time>2021-04-04T08:00:01Z</time>
      </trkpt>
      <trkpt lat="40.2497100" lon="-3.5943330">
        <ele>583.2</ele>
        <time>2021-04-04T08:00:02Z</time>
      </trkpt>
      <trkpt lat="40.2496530" lon="-3.5942690">
        <ele>583.0</ele>
        <time>2021-04-04T08:00:03Z</time>
      </trkpt>
      <trkpt lat="40.2495960" lon="-3.5942110">
        <ele>582.8</ele>
        <time>2021-04-04T08:00:04Z</time>
      </trkpt>
      <trkpt lat="40.2495380" lon="-3.5941610">
        <ele>582.4</ele>
        <time>2021-04-04T08:00:05Z</time>
      </trkpt>
      <trkpt lat="40.2494700" lon="-3.5941160">
        <ele>582.2</ele>
        <time>2021-04-04T08:00:06Z</time>
      </trkpt>
      <trkpt lat="40.2494010" lon="-3.5940790">
        <ele>582.0</ele>
        <time>2021-04-04T08:00:07Z</time>
      </trkpt>
      <trkpt lat="40.2493320" lon="-3.5940490">
        <ele>581.6</ele>
        <time>2021-04-04T08:00:08Z</time>
      </trkpt>
      <trkpt lat="40.2492680" lon="-3.5940230">
        <ele>581.6</ele>
        <time>2021-04-04T08:00:09Z</time>
      </trkpt>
      <trkpt lat="40.2491990" lon="-3.5940010">
        <ele>581.4</ele>
        <time>2021-04-04T08:00:10Z</time>
      </trkpt>
      <trkpt lat="40.2491380" lon="-3.5939810">
        <ele>581.4</ele>
        <time>2021-04-04T08:00:11Z</time>
      </trkpt>
      <trkpt lat="40.2490840" lon="-3.5939630">
        <ele>581.6</ele>
        <time>2021-04-04T08:00:12Z</time>
      </trkpt>
      <trkpt lat="40.2490350" lon="-3.5939480">
        <ele>581.8</ele>
        <time>2021-04-04T08:00:13Z</time>
      </trkpt>
      <trkpt lat="40.2489890" lon="-3.5939340">
        <ele>582.0</ele>
        <time>2021-04-04T08:00:14Z</time>
      </trkpt>
      <trkpt lat="40.2489430" lon="-3.5939150">
        <ele>582.0</ele>
        <time>2021-04-04T08:00:15Z</time>
      </trkpt>
      <trkpt lat="40.2489010" lon="-3.5938940">
        <ele>582.0</ele>
        <time>2021-04-04T08:00:16Z</time>
      </trkpt>
      <trkpt lat="40.2488520" lon="-3.5938730">
        <ele>582.0</ele>
        <time>2021-04-04T08:00:17Z</time>
      </trkpt>
      <trkpt lat="40.2488060" lon="-3.5938540">
        <ele>582.0</ele>
        <time>2021-04-04T08:00:18Z</time>
      </trkpt>
      <trkpt lat="40.2487640" lon="-3.5938420">
        <ele>582.2</ele>
        <time>2021-04-04T08:00:19Z</time>
      </trkpt>
      <trkpt lat="40.2487220" lon="-3.5938330">
        <ele>582.6</ele>
        <time>2021-04-04T08:00:20Z</time>
      </trkpt>
      <trkpt lat="40.2486800" lon="-3.5938240">
        <ele>582.8</ele>
        <time>2021-04-04T08:00:21Z</time>
      </trkpt>
      <trkpt lat="40.2486460" lon="-3.5938190">
        <ele>583.2</ele>
        <time>2021-04-04T08:00:22Z</time>
      </trkpt>
      <trkpt lat="40.2486150" lon="-3.5938160">
        <ele>583.6</ele>
        <time>2021-04-04T08:00:23Z</time>
      </trkpt>
      <trkpt lat="40.2485850" lon="-3.5938120">
        <ele>583.8</ele>
        <time>2021-04-04T08:00:24Z</time>
      </trkpt>
      <trkpt lat="40.2485500" lon="-3.5938100">
        <ele>584.2</ele>
        <time>2021-04-04T08:00:25Z</time>
      </trkpt>
      <trkpt lat="40.2485160" lon="-3.5938090">
        <ele>584.6</ele>
        <time>2021-04-04T08:00:26Z</time>
      </trkpt>
      <trkpt lat="40.2484860" lon="-3.5938060">
        <ele>585.0</ele>
        <time>2021-04-04T08:00:27Z</time>
      </trkpt>
      <trkpt lat="40.2484590" lon="-3.5937980">
        <ele>585.4</ele>
        <time>2021-04-04T08:00:28Z</time>
      </trkpt>
      <trkpt lat="40.2484320" lon="-3.5937860">
        <ele>585.6</ele>
        <time>2021-04-04T08:00:29Z</time>
      </trkpt>
      <trkpt lat="40.2484050" lon="-3.5937730">
        <ele>586.0</ele>
        <time>2021-04-04T08:00:30Z</time>
      </trkpt>
      <trkpt lat="40.2483750" lon="-3.5937570">
        <ele>586.2</ele>
        <time>2021-04-04T08:00:31Z</time>
      </trkpt>
      <trkpt lat="40.2483480" lon="-3.5937380">
        <ele>586.4</ele>
        <time>2021-04-04T08:00:32Z</time>
      </trkpt>
      <trkpt lat="40.2483220" lon="-3.5937170">
        <ele>586.8</ele>
        <time>2021-04-04T08:00:33Z</time>
      </trkpt>
      <trkpt lat="40.2482950" lon="-3.5936960">
        <ele>587.0</ele>
        <time>2021-04-04T08:00:34Z</time>
      </trkpt>
      <trkpt lat="40.2482680" lon="-3.5936710">
        <ele>587.2</ele>
        <time>2021-04-04T08:00:35Z</time>
      </trkpt>
      <trkpt lat="40.2482410" lon="-3.5936410">
        <ele>587.2</ele>
        <time>2021-04-04T08:00:36Z</time>
      </trkpt>
      <trkpt lat="40.2482190" lon="-3.5936080">
        <ele>587.4</ele>
        <time>2021-04-04T08:00:37Z</time>
      </trkpt>
      <trkpt lat="40.2481920" lon="-3.5935770">
        <ele>587.4</ele>
        <time>2021-04-04T08:00:38Z</time>
      </trkpt>
      <trkpt lat="40.2481610" lon="-3.5935470">
        <ele>587.6</ele>
        <time>2021-04-04T08:00:39Z</time>
      </trkpt>
      <trkpt lat="40.2481350" lon="-3.5935170">
        <ele>587.8</ele>
        <time>2021-04-04T08:00:40Z</time>
      </trkpt>
      <trkpt lat="40.2481080" lon="-3.5934870">
        <ele>587.8</ele>
        <time>2021-04-04T08:00:41Z</time>
      </trkpt>
      <trkpt lat="40.2480850" lon="-3.5934600">
        <ele>588.0</ele>
        <time>2021-04-04T08:00:42Z</time>
      </trkpt>
      <trkpt lat="40.2480580" lon="-3.5934320">
        <ele>588.2</ele>
        <time>2021-04-04T08:00:43Z</time>
      </trkpt>
      <trkpt lat="40.2480320" lon="-3.5934030">
        <ele>588.2</ele>
        <time>2021-04-04T08:00:44Z</time>
      </trkpt>
      <trkpt lat="40.2480050" lon="-3.5933740">
        <ele>588.4</ele>
        <time>2021-04-04T08:00:45Z</time>
      </trkpt>
      <trkpt lat="40.2479740" lon="-3.5933460">
        <ele>588.4</ele>
        <time>2021-04-04T08:00:46Z</time>
      </trkpt>
      <trkpt lat="40.2479480" lon="-3.5933180">
        <ele>588.4</ele>
        <time>2021-04-04T08:00:47Z</time>
      </trkpt>
      <trkpt lat="40.2479250" lon="-3.5932860">
        <ele>588.4</ele>
        <time>2021-04-04T08:00:48Z</time>
      </trkpt>
      <trkpt lat="40.2478980" lon="-3.5932520">
        <ele>588.4</ele>
        <time>2021-04-04T08:00:49Z</time>
      </trkpt>
      <trkpt lat="40.2478710" lon="-3.5932190">
        <ele>588.6</ele>
        <time>2021-04-04T08:00:50Z</time>
      </trkpt>
      <trkpt lat="40.2478480" lon="-3.5931860">
        <ele>588.4</ele>
        <time>2021-04-04T08:00:51Z</time>
      </trkpt>
      <trkpt lat="40.2478260" lon="-3.5931510">
        <ele>588.4</ele>
        <time>2021-04-04T08:00:52Z</time>
      </trkpt>
      <trkpt lat="40.2477990" lon="-3.5931150">
        <ele>588.4</ele>
        <time>2021-04-04T08:00:53Z</time>
      </trkpt>
      <trkpt lat="40.2477720" lon="-3.5930810">
        <ele>588.4</ele>
        <time>2021-04-04T08:00:54Z</time>
      </trkpt>
      <trkpt lat="40.2477420" lon="-3.5930490">
        <ele>588.2</ele>
        <time>2021-04-04T08:00:55Z</time>
      </trkpt>
      <trkpt lat="40.2477190" lon="-3.5930160">
        <ele>588.2</ele>
        <time>2021-04-04T08:00:56Z</time>
      </trkpt>
      <trkpt lat="40.2476920" lon="-3.5929860">
        <ele>588.2</ele>
        <time>2021-04-04T08:00:57Z</time>
      </trkpt>
      <trkpt lat="40.2476620" lon="-3.5929590">
        <ele>588.2</ele>
        <time>2021-04-04T08:00:58Z</time>
      </trkpt>
      <trkpt lat="40.2476310" lon="-3.5929320">
        <ele>588.0</ele>
        <time>2021-04-04T08:00:59Z</time>
      </trkpt>
      <trkpt lat="40.2476010" lon="-3.5929060">
        <ele>588.0</ele>
        <time>2021-04-04T08:01:00Z</time>
      </trkpt>
      <trkpt lat="40.2475740" lon="-3.5928830">
        <ele>587.8</ele>
        <time>2021-04-04T08:01:01Z</time>
      </trkpt>
      <trkpt lat="40.2475400" lon="-3.5928590">
        <ele>587.8</ele>
        <time>2021-04-04T08:01:02Z</time>
      </trkpt>
      <trkpt lat="40.2475010" lon="-3.5928360">
        <ele>587.6</ele>
        <time>2021-04-04T08:01:03Z</time>
      </trkpt>
      <trkpt lat="40.2474590" lon="-3.5928160">
        <ele>587.6</ele>
        <time>2021-04-04T08:01:04Z</time>
      </trkpt>
      <trkpt lat="40.2474210" lon="-3.5927970">
        <ele>587.4</ele>
        <time>2021-04-04T08:01:05Z</time>
      </trkpt>
      <trkpt lat="40.2473830" lon="-3.5927780">
        <ele>587.4</ele>
        <time>2021-04-04T08:01:06Z</time>
      </trkpt>
      <trkpt lat="40.2473450" lon="-3.5927610">
        <ele>587.4</ele>
        <time>2021-04-04T08:01:07Z</time>
      </trkpt>
      <trkpt lat="40.2473030" lon="-3.5927390">
        <ele>587.2</ele>
        <time>2021-04-04T08:01:08Z</time>
      </trkpt>
      <trkpt lat="40.2472720" lon="-3.5927140">
        <ele>587.2</ele>
        <time>2021-04-04T08:01:09Z</time>
      </trkpt>
      <trkpt lat="40.2472420" lon="-3.5926920">
        <ele>587.2</ele>
        <time>2021-04-04T08:01:10Z</time>
      </trkpt>
      <trkpt lat="40.2472110" lon="-3.5926720">
        <ele>587.2</ele>
        <time>2021-04-04T08:01:11Z</time>
      </trkpt>
      <trkpt lat="40.2471810" lon="-3.5926490">
        <ele>587.2</ele>
        <time>2021-04-04T08:01:12Z</time>
      </trkpt>
      <trkpt lat="40.2471500" lon="-3.5926270">
        <ele>587.4</ele>
        <time>2021-04-04T08:01:13Z</time>
      </trkpt>
      <trkpt lat="40.2471240" lon="-3.5926060">
        <ele>587.4</ele>
        <time>2021-04-04T08:01:14Z</time>
      </trkpt>
      <trkpt lat="40.2470930" lon="-3.5925840">
        <ele>587.4</ele>
        <time>2021-04-04T08:01:15Z</time>
      </trkpt>
      <trkpt lat="40.2470630" lon="-3.5925570">
        <ele>587.4</ele>
        <time>2021-04-04T08:01:16Z</time>
      </trkpt>
      <trkpt lat="40.2470320" lon="-3.5925280">
        <ele>587.4</ele>
        <time>2021-04-04T08:01:17Z</time>
      </trkpt>
      <trkpt lat="40.2469980" lon="-3.5924960">
        <ele>587.4</ele>
        <time>2021-04-04T08:01:18Z</time>
      </trkpt>
      <trkpt lat="40.2469640" lon="-3.5924630">
        <ele>587.4</ele>
        <time>2021-04-04T08:01:19Z</time>
      </trkpt>
      <trkpt lat="40.2469330" lon="-3.5924290">
        <ele>587.4</ele>
        <time>2021-04-04T08:01:20Z</time>
      </trkpt>
      <trkpt lat="40.2469020" lon="-3.5923920">
        <ele>587.2</ele>
        <time>2021-04-04T08:01:21Z</time>
      </trkpt>
      <trkpt lat="40.2468640" lon="-3.5923560">
        <ele>587.2</ele>
        <time>2021-04-04T08:01:22Z</time>
      </trkpt>
      <trkpt lat="40.2468340" lon="-3.5923190">
        <ele>587.2</ele>
        <time>2021-04-04T08:01:23Z</time>
      </trkpt>
      <trkpt lat="40.2468070" lon="-3.5922780">
        <ele>587.0</ele>
        <time>2021-04-04T08:01:24Z</time>
      </trkpt>
      <trkpt lat="40.2467840" lon="-3.5922320">
        <ele>587.0</ele>
        <time>2021-04-04T08:01:25Z</time>
      </trkpt>
      <trkpt lat="40.2467690" lon="-3.5921840">
        <ele>587.0</ele>
        <time>2021-04-04T08:01:26Z</time>
      </trkpt>
      <trkpt lat="40.2467540" lon="-3.5921350">
        <ele>587.0</ele>
        <time>2021-04-04T08:01:27Z</time>
      </trkpt>
      <trkpt lat="40.2467350" lon="-3.5920870">
        <ele>587.0</ele>
        <time>2021-04-04T08:01:28Z</time>
      </trkpt>
      <trkpt lat="40.2467230" lon="-3.5920400">
        <ele>586.8</ele>
        <time>2021-04-04T08:01:29Z</time>
      </trkpt>
      <trkpt lat="40.2467160" lon="-3.5919940">
        <ele>586.8</ele>
        <time>2021-04-04T08:01:30Z</time>
      </trkpt>
      <trkpt lat="40.2467120" lon="-3.5919480">
        <ele>586.8</ele>
        <time>2021-04-04T08:01:31Z</time>
      </trkpt>
      <trkpt lat="40.2467120" lon="-3.5919050">
        <ele>586.8</ele>
        <time>2021-04-04T08:01:32Z</time>
      </trkpt>
      <trkpt lat="40.2467080" lon="-3.5918620">
        <ele>586.6</ele>
        <time>2021-04-04T08:01:33Z</time>
      </trkpt>
      <trkpt lat="40.2467040" lon="-3.5918200">
        <ele>586.6</ele>
        <time>2021-04-04T08:01:34Z</time>
      </trkpt>
      <trkpt lat="40.2467040" lon="-3.5917790">
        <ele>586.6</ele>
        <time>2021-04-04T08:01:35Z</time>
      </trkpt>
      <trkpt lat="40.2467000" lon="-3.5917350">
        <ele>586.6</ele>
        <time>2021-04-04T08:01:36Z</time>
      </trkpt>
      <trkpt lat="40.2466930" lon="-3.5916930">
        <ele>586.4</ele>
        <time>2021-04-04T08:01:37Z</time>
      </trkpt>
      <trkpt lat="40.2466810" lon="-3.5916510">
        <ele>586.4</ele>
        <time>2021-04-04T08:01:38Z</time>
      </trkpt>
      <trkpt lat="40.2466620" lon="-3.5916080">
        <ele>586.4</ele>
        <time>2021-04-04T08:01:39Z</time>
      </trkpt>
      <trkpt lat="40.2466470" lon="-3.5915710">
        <ele>586.2</ele>
        <time>2021-04-04T08:01:40Z</time>
      </trkpt>
      <trkpt lat="40.2466200" lon="-3.5915370">
        <ele>586.2</ele>
        <time>2021-04-04T08:01:41Z</time>
      </trkpt>
      <trkpt lat="40.2465930" lon="-3.5915050">
        <ele>586.2</ele>
        <time>2021-04-04T08:01:42Z</time>
      </trkpt>
      <trkpt lat="40.2465670" lon="-3.5914730">
        <ele>586.0</ele>
        <time>2021-04-04T08:01:43Z</time>
      </trkpt>
      <trkpt lat="40.2465360" lon="-3.5914370">
        <ele>586.0</ele>
        <time>2021-04-04T08:01:44Z</time>
      </trkpt>
      <trkpt lat="40.2465100" lon="-3.5913970">
        <ele>586.0</ele>
        <time>2021-04-04T08:01:45Z</time>
      </trkpt>
      <trkpt lat="40.2464830" lon="-3.5913570">
        <ele>585.8</ele>
        <time>2021-04-04T08:01:46Z</time>
      </trkpt>
      <trkpt lat="40.2464560" lon="-3.5913180">
        <ele>585.8</ele>
        <time>2021-04-04T08:01:47Z</time>
      </trkpt>
      <trkpt lat="40.2464330" lon="-3.5912790">
        <ele>585.6</ele>
        <time>2021-04-04T08:01:48Z</time>
      </trkpt>
      <trkpt lat="40.2464100" lon="-3.5912400">
        <ele>585.6</ele>
        <time>2021-04-04T08:01:49Z</time>
      </trkpt>
      <trkpt lat="40.2463840" lon="-3.5912010">
        <ele>585.4</ele>
        <time>2021-04-04T08:01:50Z</time>
      </trkpt>
      <trkpt lat="40.2463570" lon="-3.5911620">
        <ele>585.2</ele>
        <time>2021-04-04T08:01:51Z</time>
      </trkpt>
      <trkpt lat="40.2463300" lon="-3.5911250">
        <ele>585.0</ele>
        <time>2021-04-04T08:01:52Z</time>
      </trkpt>
      <trkpt lat="40.2463040" lon="-3.5910900">
        <ele>584.8</ele>
        <time>2021-04-04T08:01:53Z</time>
      </trkpt>
      <trkpt lat="40.2462690" lon="-3.5910530">
        <ele>584.6</ele>
        <time>2021-04-04T08:01:54Z</time>
      </trkpt>
      <trkpt lat="40.2462390" lon="-3.5910170">
        <ele>584.4</ele>
        <time>2021-04-04T08:01:55Z</time>
      </trkpt>
      <trkpt lat="40.2462010" lon="-3.5909830">
        <ele>584.4</ele>
        <time>2021-04-04T08:01:56Z</time>
      </trkpt>
      <trkpt lat="40.2461700" lon="-3.5909530">
        <ele>584.2</ele>
        <time>2021-04-04T08:01:57Z</time>
      </trkpt>
      <trkpt lat="40.2461390" lon="-3.5909260">
        <ele>584.2</ele>
        <time>2021-04-04T08:01:58Z</time>
      </trkpt>
      <trkpt lat="40.2461050" lon="-3.5908990">
        <ele>584.2</ele>
        <time>2021-04-04T08:01:59Z</time>
      </trkpt>
      <trkpt lat="40.2460710" lon="-3.5908730">
        <ele>584.2</ele>
        <time>2021-04-04T08:02:00Z</time>
      </trkpt>
      <trkpt lat="40.2460370" lon="-3.5908540">
        <ele>584.2</ele>
        <time>2021-04-04T08:02:01Z</time>
      </trkpt>
      <trkpt lat="40.2460140" lon="-3.5908390">
        <ele>584.0</ele>
        <time>2021-04-04T08:02:02Z</time>
      </trkpt>
      <trkpt lat="40.2459980" lon="-3.5908220">
        <ele>584.0</ele>
        <time>2021-04-04T08:02:03Z</time>
      </trkpt>
      <trkpt lat="40.2458800" lon="-3.5907190">
        <ele>583.6</ele>
        <time>2021-04-04T08:14:19Z</time>
      </trkpt>
      <trkpt lat="40.2458650" lon="-3.5907080">
        <ele>583.6</ele>
        <time>2021-04-04T08:14:20Z</time>
      </trkpt>
      <trkpt lat="40.2458500" lon="-3.5906950">
        <ele>583.6</ele>
        <time>2021-04-04T08:14:21Z</time>
      </trkpt>
      <trkpt lat="40.2458340" lon="-3.5906800">
        <ele>583.6</ele>
        <time>2021-04-04T08:14:22Z</time>
      </trkpt>
      <trkpt lat="40.2458190" lon="-3.5906630">
        <ele>583.6</ele>
        <time>2021-04-04T08:14:23Z</time>
      </trkpt>
      <trkpt lat="40.2457960" lon="-3.5906460">
        <ele>583.6</ele>
        <time>2021-04-04T08:14:24Z</time>
      </trkpt>
      <trkpt lat="40.2457770" lon="-3.5906300">
        <ele>583.6</ele>
        <time>2021-04-04T08:14:25Z</time>
      </trkpt>
      <trkpt lat="40.2457540" lon="-3.5906130">
        <ele>583.6</ele>
        <time>2021-04-04T08:14:26Z</time>
      </trkpt>
      <trkpt lat="40.2457350" lon="-3.5905940">
        <ele>583.6</ele>
        <time>2021-04-04T08:14:27Z</time>
      </trkpt>
      <trkpt lat="40.2457160" lon="-3.5905740">
        <ele>583.6</ele>
        <time>2021-04-04T08:14:28Z</time>
      </trkpt>
      <trkpt lat="40.2457010" lon="-3.5905530">
        <ele>583.6</ele>
        <time>2021-04-04T08:14:29Z</time>
      </trkpt>
      <trkpt lat="40.2456780" lon="-3.5905340">
        <ele>583.6</ele>
        <time>2021-04-04T08:14:30Z</time>
      </trkpt>
      <trkpt lat="40.2456590" lon="-3.5905130">
        <ele>583.6</ele>
        <time>2021-04-04T08:14:31Z</time>
      </trkpt>
      <trkpt lat="40.2456360" lon="-3.5904920">
        <ele>583.6</ele>
        <time>2021-04-04T08:14:32Z</time>
      </trkpt>
      <trkpt lat="40.2456210" lon="-3.5904710">
        <ele>583.6</ele>
        <time>2021-04-04T08:14:33Z</time>
      </trkpt>
      <trkpt lat="40.2456020" lon="-3.5904500">
        <ele>583.6</ele>
        <time>2021-04-04T08:14:34Z</time>
      </trkpt>
      <trkpt lat="40.2455860" lon="-3.5904300">
        <ele>583.6</ele>
        <time>2021-04-04T08:14:35Z</time>
      </trkpt>
      <trkpt lat="40.2455670" lon="-3.5904130">
        <ele>583.6</ele>
        <time>2021-04-04T08:14:36Z</time>
      </trkpt>
      <trkpt lat="40.2455480" lon="-3.5903980">
        <ele>583.6</ele>
        <time>2021-04-04T08:14:37Z</time>
      </trkpt>
      <trkpt lat="40.2455290" lon="-3.5903830">
        <ele>583.6</ele>
        <time>2021-04-04T08:14:38Z</time>
      </trkpt>
      <trkpt lat="40.2455140" lon="-3.5903640">
        <ele>583.4</ele>
        <time>2021-04-04T08:14:39Z</time>
      </trkpt>
      <trkpt lat="40.2454950" lon="-3.5903430">
        <ele>583.4</ele>
        <time>2021-04-04T08:14:40Z</time>
      </trkpt>
      <trkpt lat="40.2454720" lon="-3.5903230">
        <ele>583.4</ele>
        <time>2021-04-04T08:14:41Z</time>
      </trkpt>
      <trkpt lat="40.2454490" lon="-3.5903050">
        <ele>583.4</ele>
        <time>2021-04-04T08:14:42Z</time>
      </trkpt>
      <trkpt lat="40.2454260" lon="-3.5902890">
        <ele>583.4</ele>
        <time>2021-04-04T08:14:43Z</time>
      </trkpt>
      <trkpt lat="40.2454030" lon="-3.5902740">
        <ele>583.4</ele>
        <time>2021-04-04T08:14:44Z</time>
      </trkpt>
      <trkpt lat="40.2453800" lon="-3.5902560">
        <ele>583.2</ele>
        <time>2021-04-04T08:14:45Z</time>
      </trkpt>
      <trkpt lat="40.2453540" lon="-3.5902360">
        <ele>583.2</ele>
        <time>2021-04-04T08:14:46Z</time>
      </trkpt>
      <trkpt lat="40.2453270" lon="-3.5902130">
        <ele>583.0</ele>
        <time>2021-04-04T08:14:47Z</time>
      </trkpt>
      <trkpt lat="40.2453040" lon="-3.5901920">
        <ele>583.0</ele>
        <time>2021-04-04T08:14:48Z</time>
      </trkpt>
      <trkpt lat="40.2452810" lon="-3.5901730">
        <ele>583.0</ele>
        <time>2021-04-04T08:14:49Z</time>
      </trkpt>
      <trkpt lat="40.2452620" lon="-3.5901550">
        <ele>583.0</ele>
        <time>2021-04-04T08:14:50Z</time>
      </trkpt>
      <trkpt lat="40.2452390" lon="-3.5901380">
        <ele>583.0</ele>
        <time>2021-04-04T08:14:51Z</time>
      </trkpt>
      <trkpt lat="40.2452240" lon="-3.5901230">
        <ele>583.0</ele>
        <time>2021-04-04T08:14:52Z</time>
      </trkpt>
      <trkpt lat="40.2452050" lon="-3.5901070">
        <ele>583.0</ele>
        <time>2021-04-04T08:14:53Z</time>
      </trkpt>
      <trkpt lat="40.2451860" lon="-3.5900900">
        <ele>583.0</ele>
        <time>2021-04-04T08:14:54Z</time>
      </trkpt>
      <trkpt lat="40.2451630" lon="-3.5900710">
        <ele>583.0</ele>
        <time>2021-04-04T08:14:55Z</time>
      </trkpt>
      <trkpt lat="40.2451400" lon="-3.5900500">
        <ele>583.0</ele>
        <time>2021-04-04T08:14:56Z</time>
      </trkpt>
      <trkpt lat="40.2451130" lon="-3.5900280">
        <ele>583.0</ele>
        <time>2021-04-04T08:14:57Z</time>
      </trkpt>
      <trkpt lat="40.2450900" lon="-3.5900050">
        <ele>583.0</ele>
        <time>2021-04-04T08:14:58Z</time>
      </trkpt>
      <trkpt lat="40.2450680" lon="-3.5899820">
        <ele>582.8</ele>
        <time>2021-04-04T08:14:59Z</time>
      </trkpt>
      <trkpt lat="40.2450450" lon="-3.5899540">
        <ele>582.8</ele>
        <time>2021-04-04T08:15:00Z</time>
      </trkpt>
      <trkpt lat="40.2450220" lon="-3.5899260">
        <ele>582.8</ele>
        <time>2021-04-04T08:15:01Z</time>
      </trkpt>
      <trkpt lat="40.2449950" lon="-3.5898970">
        <ele>582.6</ele>
        <time>2021-04-04T08:15:02Z</time>
      </trkpt>
      <trkpt lat="40.2449720" lon="-3.5898660">
        <ele>582.4</ele>
        <time>2021-04-04T08:15:03Z</time>
      </trkpt>
      <trkpt lat="40.2449450" lon="-3.5898340">
        <ele>582.2</ele>
        <time>2021-04-04T08:15:04Z</time>
      </trkpt>
      <trkpt lat="40.2449150" lon="-3.5897970">
        <ele>582.0</ele>
        <time>2021-04-04T08:15:05Z</time>
      </trkpt>
      <trkpt lat="40.2448840" lon="-3.5897600">
        <ele>582.0</ele>
        <time>2021-04-04T08:15:06Z</time>
      </trkpt>
      <trkpt lat="40.2448540" lon="-3.5897200">
        <ele>581.8</ele>
        <time>2021-04-04T08:15:07Z</time>
      </trkpt>
      <trkpt lat="40.2448230" lon="-3.5896790">
        <ele>581.6</ele>
        <time>2021-04-04T08:15:08Z</time>
      </trkpt>
      <trkpt lat="40.2447930" lon="-3.5896350">
        <ele>581.4</ele>
        <time>2021-04-04T08:15:09Z</time>
      </trkpt>
      <trkpt lat="40.2447620" lon="-3.5895900">
        <ele>581.2</ele>
        <time>2021-04-04T08:15:10Z</time>
      </trkpt>
      <trkpt lat="40.2447320" lon="-3.5895440">
        <ele>581.2</ele>
        <time>2021-04-04T08:15:11Z</time>
      </trkpt>
      <trkpt lat="40.2447010" lon="-3.5894970">
        <ele>581.0</ele>
        <time>2021-04-04T08:15:12Z</time>
      </trkpt>
      <trkpt lat="40.2446710" lon="-3.5894510">
        <ele>580.8</ele>
        <time>2021-04-04T08:15:13Z</time>
      </trkpt>
      <trkpt lat="40.2446400" lon="-3.5894040">
        <ele>580.6</ele>
        <time>2021-04-04T08:15:14Z</time>
      </trkpt>
      <trkpt lat="40.2446100" lon="-3.5893540">
        <ele>580.6</ele>
        <time>2021-04-04T08:15:15Z</time>
      </trkpt>
      <trkpt lat="40.2445870" lon="-3.5893040">
        <ele>580.4</ele>
        <time>2021-04-04T08:15:16Z</time>
      </trkpt>
      <trkpt lat="40.2445600" lon="-3.5892530">
        <ele>580.4</ele>
        <time>2021-04-04T08:15:17Z</time>
      </trkpt>
      <trkpt lat="40.2445370" lon="-3.5892000">
        <ele>580.2</ele>
        <time>2021-04-04T08:15:18Z</time>
      </trkpt>
      <trkpt lat="40.2445180" lon="-3.5891490">
        <ele>580.2</ele>
        <time>2021-04-04T08:15:19Z</time>
      </trkpt>
      <trkpt lat="40.2445070" lon="-3.5891010">
        <ele>580.2</ele>
        <time>2021-04-04T08:15:20Z</time>
      </trkpt>
      <trkpt lat="40.2444920" lon="-3.5890540">
        <ele>580.4</ele>
        <time>2021-04-04T08:15:21Z</time>
      </trkpt>
      <trkpt lat="40.2444760" lon="-3.5890070">
        <ele>580.4</ele>
        <time>2021-04-04T08:15:22Z</time>
      </trkpt>
      <trkpt lat="40.2444610" lon="-3.5889630">
        <ele>580.6</ele>
        <time>2021-04-04T08:15:23Z</time>
      </trkpt>
      <trkpt lat="40.2444500" lon="-3.5889180">
        <ele>580.6</ele>
        <time>2021-04-04T08:15:24Z</time>
      </trkpt>
      <trkpt lat="40.2444380" lon="-3.5888720">
        <ele>580.8</ele>
        <time>2021-04-04T08:15:25Z</time>
      </trkpt>
      <trkpt lat="40.2444230" lon="-3.5888270">
        <ele>580.8</ele>
        <time>2021-04-04T08:15:26Z</time>
      </trkpt>
      <trkpt lat="40.2444110" lon="-3.5887840">
        <ele>580.8</ele>
        <time>2021-04-04T08:15:27Z</time>
      </trkpt>
      <trkpt lat="40.2444000" lon="-3.5887390">
        <ele>580.8</ele>
        <time>2021-04-04T08:15:28Z</time>
      </trkpt>
      <trkpt lat="40.2443890" lon="-3.5886960">
        <ele>580.8</ele>
        <time>2021-04-04T08:15:29Z</time>
      </trkpt>
      <trkpt lat="40.2443770" lon="-3.5886550">
        <ele>580.8</ele>
        <time>2021-04-04T08:15:30Z</time>
      </trkpt>
      <trkpt lat="40.2443620" lon="-3.5886170">
        <ele>580.8</ele>
        <time>2021-04-04T08:15:31Z</time>
      </trkpt>
      <trkpt lat="40.2443430" lon="-3.5885800">
        <ele>580.8</ele>
        <time>2021-04-04T08:15:32Z</time>
      </trkpt>
      <trkpt lat="40.2443240" lon="-3.5885490">
        <ele>580.8</ele>
        <time>2021-04-04T08:15:33Z</time>
      </trkpt>
      <trkpt lat="40.2443010" lon="-3.5885200">
        <ele>580.6</ele>
        <time>2021-04-04T08:15:34Z</time>
      </trkpt>
      <trkpt lat="40.2442780" lon="-3.5884870">
        <ele>580.6</ele>
        <time>2021-04-04T08:15:35Z</time>
      </trkpt>
      <trkpt lat="40.2442510" lon="-3.5884530">
        <ele>580.4</ele>
        <time>2021-04-04T08:15:36Z</time>
      </trkpt>
      <trkpt lat="40.2442250" lon="-3.5884170">
        <ele>580.4</ele>
        <time>2021-04-04T08:15:37Z</time>
      </trkpt>
      <trkpt lat="40.2441940" lon="-3.5883760">
        <ele>580.2</ele>
        <time>2021-04-04T08:15:38Z</time>
      </trkpt>
      <trkpt lat="40.2441710" lon="-3.5883340">
        <ele>580.2</ele>
        <time>2021-04-04T08:15:39Z</time>
      </trkpt>
      <trkpt lat="40.2441520" lon="-3.5882910">
        <ele>580.2</ele>
        <time>2021-04-04T08:15:40Z</time>
      </trkpt>
      <trkpt lat="40.2441330" lon="-3.5882480">
        <ele>580.2</ele>
        <time>2021-04-04T08:15:41Z</time>
      </trkpt>
      <trkpt lat="40.2441180" lon="-3.5882080">
        <ele>580.4</ele>
        <time>2021-04-04T08:15:42Z</time>
      </trkpt>
      <trkpt lat="40.2441020" lon="-3.5881690">
        <ele>580.4</ele>
        <time>2021-04-04T08:15:43Z</time>
      </trkpt>
      <trkpt lat="40.2440910" lon="-3.5881310">
        <ele>580.4</ele>
        <time>2021-04-04T08:15:44Z</time>
      </trkpt>
      <trkpt lat="40.2440870" lon="-3.5880950">
        <ele>580.4</ele>
        <time>2021-04-04T08:15:45Z</time>
      </trkpt>
      <trkpt lat="40.2440800" lon="-3.5880600">
        <ele>580.4</ele>
        <time>2021-04-04T08:15:46Z</time>
      </trkpt>
      <trkpt lat="40.2440680" lon="-3.5880230">
        <ele>580.4</ele>
        <time>2021-04-04T08:15:47Z</time>
      </trkpt>
      <trkpt lat="40.2440610" lon="-3.5879830">
        <ele>580.4</ele>
        <time>2021-04-04T08:15:48Z</time>
      </trkpt>
      <trkpt lat="40.2440490" lon="-3.5879400">
        <ele>580.2</ele>
        <time>2021-04-04T08:15:49Z</time>
      </trkpt>
      <trkpt lat="40.2440340" lon="-3.5878940">
        <ele>580.0</ele>
        <time>2021-04-04T08:15:50Z</time>
      </trkpt>
      <trkpt lat="40.2440150" lon="-3.5878440">
        <ele>579.8</ele>
        <time>2021-04-04T08:15:51Z</time>
      </trkpt>
      <trkpt lat="40.2439920" lon="-3.5877920">
        <ele>579.4</ele>
        <time>2021-04-04T08:15:52Z</time>
      </trkpt>
      <trkpt lat="40.2439650" lon="-3.5877440">
        <ele>579.0</ele>
        <time>2021-04-04T08:15:53Z</time>
      </trkpt>
      <trkpt lat="40.2439270" lon="-3.5877000">
        <ele>578.6</ele>
        <time>2021-04-04T08:15:54Z</time>
      </trkpt>
      <trkpt lat="40.2438810" lon="-3.5876620">
        <ele>578.0</ele>
        <time>2021-04-04T08:15:55Z</time>
      </trkpt>
      <trkpt lat="40.2438200" lon="-3.5876310">
        <ele>577.4</ele>
        <time>2021-04-04T08:15:56Z</time>
      </trkpt>
      <trkpt lat="40.2437550" lon="-3.5876040">
        <ele>576.6</ele>
        <time>2021-04-04T08:15:57Z</time>
      </trkpt>
      <trkpt lat="40.2436830" lon="-3.5875690">
        <ele>575.6</ele>
        <time>2021-04-04T08:15:58Z</time>
      </trkpt>
      <trkpt lat="40.2436100" lon="-3.5875190">
        <ele>575.0</ele>
        <time>2021-04-04T08:15:59Z</time>
      </trkpt>
      <trkpt lat="40.2435380" lon="-3.5874600">
        <ele>574.2</ele>
        <time>2021-04-04T08:16:00Z</time>
      </trkpt>
      <trkpt lat="40.2434690" lon="-3.5873830">
        <ele>573.0</ele>
        <time>2021-04-04T08:16:01Z</time>
      </trkpt>
      <trkpt lat="40.2434120" lon="-3.5872750">
        <ele>571.8</ele>
        <time>2021-04-04T08:16:02Z</time>
      </trkpt>
      <trkpt lat="40.2433590" lon="-3.5871440">
        <ele>570.8</ele>
        <time>2021-04-04T08:16:03Z</time>
      </trkpt>
      <trkpt lat="40.2433200" lon="-3.5870070">
        <ele>570.0</ele>
        <time>2021-04-04T08:16:04Z</time>
      </trkpt>
      <trkpt lat="40.2433050" lon="-3.5868820">
        <ele>569.6</ele>
        <time>2021-04-04T08:16:05Z</time>
      </trkpt>
      <trkpt lat="40.2433130" lon="-3.5867740">
        <ele>569.4</ele>
        <time>2021-04-04T08:16:06Z</time>
      </trkpt>
      <trkpt lat="40.2433200" lon="-3.5866800">
        <ele>569.4</ele>
        <time>2021-04-04T08:16:07Z</time>
      </trkpt>
      <trkpt lat="40.2433360" lon="-3.5865970">
        <ele>569.6</ele>
        <time>2021-04-04T08:16:08Z</time>
      </trkpt>
      <trkpt lat="40.2433550" lon="-3.5865170">
        <ele>569.8</ele>
        <time>2021-04-04T08:16:09Z</time>
      </trkpt>
      <trkpt lat="40.2433740" lon="-3.5864420">
        <ele>569.8</ele>
        <time>2021-04-04T08:16:10Z</time>
      </trkpt>
      <trkpt lat="40.2433890" lon="-3.5863730">
        <ele>570.0</ele>
        <time>2021-04-04T08:16:11Z</time>
      </trkpt>
      <trkpt lat="40.2434040" lon="-3.5863070">
        <ele>570.2</ele>
        <time>2021-04-04T08:16:12Z</time>
      </trkpt>
      <trkpt lat="40.2434160" lon="-3.5862430">
        <ele>570.2</ele>
        <time>2021-04-04T08:16:13Z</time>
      </trkpt>
      <trkpt lat="40.2434270" lon="-3.5861810">
        <ele>570.4</ele>
        <time>2021-04-04T08:16:14Z</time>
      </trkpt>
      <trkpt lat="40.2434310" lon="-3.5861230">
        <ele>570.6</ele>
        <time>2021-04-04T08:16:15Z</time>
      </trkpt>
      <trkpt lat="40.2434350" lon="-3.5860680">
        <ele>571.0</ele>
        <time>2021-04-04T08:16:16Z</time>
      </trkpt>
      <trkpt lat="40.2434270" lon="-3.5860170">
        <ele>571.2</ele>
        <time>2021-04-04T08:16:17Z</time>
      </trkpt>
      <trkpt lat="40.2434160" lon="-3.5859650">
        <ele>571.6</ele>
        <time>2021-04-04T08:16:18Z</time>
      </trkpt>
      <trkpt lat="40.2434010" lon="-3.5859160">
        <ele>571.8</ele>
        <time>2021-04-04T08:16:19Z</time>
      </trkpt>
      <trkpt lat="40.2433850" lon="-3.5858730">
        <ele>572.0</ele>
        <time>2021-04-04T08:16:20Z</time>
      </trkpt>
      <trkpt lat="40.2433620" lon="-3.5858320">
        <ele>572.2</ele>
        <time>2021-04-04T08:16:21Z</time>
      </trkpt>
      <trkpt lat="40.2433430" lon="-3.5857960">
        <ele>572.4</ele>
        <time>2021-04-04T08:16:22Z</time>
      </trkpt>
      <trkpt lat="40.2433200" lon="-3.5857660">
        <ele>572.8</ele>
        <time>2021-04-04T08:16:23Z</time>
      </trkpt>
      <trkpt lat="40.2433010" lon="-3.5857380">
        <ele>573.0</ele>
        <time>2021-04-04T08:16:24Z</time>
      </trkpt>
      <trkpt lat="40.2432780" lon="-3.5857110">
        <ele>573.2</ele>
        <time>2021-04-04T08:16:25Z</time>
      </trkpt>
      <trkpt lat="40.2432560" lon="-3.5856890">
        <ele>573.6</ele>
        <time>2021-04-04T08:16:26Z</time>
      </trkpt>
      <trkpt lat="40.2432290" lon="-3.5856720">
        <ele>573.8</ele>
        <time>2021-04-04T08:16:27Z</time>
      </trkpt>
      <trkpt lat="40.2432020" lon="-3.5856580">
        <ele>574.0</ele>
        <time>2021-04-04T08:16:28Z</time>
      </trkpt>
      <trkpt lat="40.2431750" lon="-3.5856510">
        <ele>574.4</ele>
        <time>2021-04-04T08:16:29Z</time>
      </trkpt>
      <trkpt lat="40.2431490" lon="-3.5856480">
        <ele>574.6</ele>
        <time>2021-04-04T08:16:30Z</time>
      </trkpt>
      <trkpt lat="40.2431220" lon="-3.5856490">
        <ele>574.8</ele>
        <time>2021-04-04T08:16:31Z</time>
      </trkpt>
      <trkpt lat="40.2430880" lon="-3.5856560">
        <ele>575.0</ele>
        <time>2021-04-04T08:16:32Z</time>
      </trkpt>
      <trkpt lat="40.2430530" lon="-3.5856680">
        <ele>575.0</ele>
        <time>2021-04-04T08:16:33Z</time>
      </trkpt>
      <trkpt lat="40.2430230" lon="-3.5856840">
        <ele>575.2</ele>
        <time>2021-04-04T08:16:34Z</time>
      </trkpt>
      <trkpt lat="40.2429920" lon="-3.5857030">
        <ele>575.4</ele>
        <time>2021-04-04T08:16:35Z</time>
      </trkpt>
      <trkpt lat="40.2429620" lon="-3.5857230">
        <ele>575.4</ele>
        <time>2021-04-04T08:16:36Z</time>
      </trkpt>
      <trkpt lat="40.2429350" lon="-3.5857420">
        <ele>575.6</ele>
        <time>2021-04-04T08:16:37Z</time>
      </trkpt>
      <trkpt lat="40.2429050" lon="-3.5857600">
        <ele>575.8</ele>
        <time>2021-04-04T08:16:38Z</time>
      </trkpt>
      <trkpt lat="40.2428780" lon="-3.5857800">
        <ele>576.0</ele>
        <time>2021-04-04T08:16:39Z</time>
      </trkpt>
      <trkpt lat="40.2428470" lon="-3.5857990">
        <ele>576.2</ele>
        <time>2021-04-04T08:16:40Z</time>
      </trkpt>
      <trkpt lat="40.2428210" lon="-3.5858160">
        <ele>576.2</ele>
        <time>2021-04-04T08:16:41Z</time>
      </trkpt>
      <trkpt lat="40.2427900" lon="-3.5858310">
        <ele>576.4</ele>
        <time>2021-04-04T08:16:42Z</time>
      </trkpt>
      <trkpt lat="40.2427640" lon="-3.5858500">
        <ele>576.6</ele>
        <time>2021-04-04T08:16:43Z</time>
      </trkpt>
      <trkpt lat="40.2427410" lon="-3.5858690">
        <ele>576.8</ele>
        <time>2021-04-04T08:16:44Z</time>
      </trkpt>
      <trkpt lat="40.2427180" lon="-3.5858900">
        <ele>577.0</ele>
        <time>2021-04-04T08:16:45Z</time>
      </trkpt>
      <trkpt lat="40.2426910" lon="-3.5859100">
        <ele>577.2</ele>
        <time>2021-04-04T08:16:46Z</time>
      </trkpt>
      <trkpt lat="40.2426680" lon="-3.5859290">
        <ele>577.4</ele>
        <time>2021-04-04T08:16:47Z</time>
      </trkpt>
      <trkpt lat="40.2426410" lon="-3.5859490">
        <ele>577.6</ele>
        <time>2021-04-04T08:16:48Z</time>
      </trkpt>
      <trkpt lat="40.2426110" lon="-3.5859690">
        <ele>577.8</ele>
        <time>2021-04-04T08:16:49Z</time>
      </trkpt>
      <trkpt lat="40.2425880" lon="-3.5859890">
        <ele>578.0</ele>
        <time>2021-04-04T08:16:50Z</time>
      </trkpt>
      <trkpt lat="40.2425610" lon="-3.5860100">
        <ele>578.2</ele>
        <time>2021-04-04T08:16:51Z</time>
      </trkpt>
      <trkpt lat="40.2425380" lon="-3.5860300">
        <ele>578.4</ele>
        <time>2021-04-04T08:16:52Z</time>
      </trkpt>
      <trkpt lat="40.2425160" lon="-3.5860490">
        <ele>578.6</ele>
        <time>2021-04-04T08:16:53Z</time>
      </trkpt>
      <trkpt lat="40.2424930" lon="-3.5860700">
        <ele>578.8</ele>
        <time>2021-04-04T08:16:54Z</time>
      </trkpt>
      <trkpt lat="40.2424660" lon="-3.5860920">
        <ele>578.8</ele>
        <time>2021-04-04T08:16:55Z</time>
      </trkpt>
      <trkpt lat="40.2424390" lon="-3.5861150">
        <ele>579.0</ele>
        <time>2021-04-04T08:16:56Z</time>
      </trkpt>
      <trkpt lat="40.2424090" lon="-3.5861350">
        <ele>579.2</ele>
        <time>2021-04-04T08:16:57Z</time>
      </trkpt>
      <trkpt lat="40.2423820" lon="-3.5861480">
        <ele>579.2</ele>
        <time>2021-04-04T08:16:58Z</time>
      </trkpt>
      <trkpt lat="40.2423480" lon="-3.5861500">
        <ele>579.2</ele>
        <time>2021-04-04T08:16:59Z</time>
      </trkpt>
      <trkpt lat="40.2423130" lon="-3.5861420">
        <ele>579.4</ele>
        <time>2021-04-04T08:17:00Z</time>
      </trkpt>
      <trkpt lat="40.2422870" lon="-3.5861260">
        <ele>579.4</ele>
        <time>2021-04-04T08:17:01Z</time>
      </trkpt>
      <trkpt lat="40.2422600" lon="-3.5861060">
        <ele>579.4</ele>
        <time>2021-04-04T08:17:02Z</time>
      </trkpt>
      <trkpt lat="40.2422330" lon="-3.5860860">
        <ele>579.4</ele>
        <time>2021-04-04T08:17:03Z</time>
      </trkpt>
      <trkpt lat="40.2422070" lon="-3.5860660">
        <ele>579.4</ele>
        <time>2021-04-04T08:17:04Z</time>
      </trkpt>
      <trkpt lat="40.2421800" lon="-3.5860450">
        <ele>579.4</ele>
        <time>2021-04-04T08:17:05Z</time>
      </trkpt>
      <trkpt lat="40.2421530" lon="-3.5860190">
        <ele>579.2</ele>
        <time>2021-04-04T08:17:06Z</time>
      </trkpt>
      <trkpt lat="40.2421230" lon="-3.5859850">
        <ele>579.2</ele>
        <time>2021-04-04T08:17:07Z</time>
      </trkpt>
      <trkpt lat="40.2420880" lon="-3.5859430">
        <ele>578.8</ele>
        <time>2021-04-04T08:17:08Z</time>
      </trkpt>
      <trkpt lat="40.2420620" lon="-3.5858950">
        <ele>578.6</ele>
        <time>2021-04-04T08:17:09Z</time>
      </trkpt>
      <trkpt lat="40.2420390" lon="-3.5858410">
        <ele>578.4</ele>
        <time>2021-04-04T08:17:10Z</time>
      </trkpt>
      <trkpt lat="40.2420230" lon="-3.5857830">
        <ele>578.4</ele>
        <time>2021-04-04T08:17:11Z</time>
      </trkpt>
      <trkpt lat="40.2420200" lon="-3.5857270">
        <ele>578.2</ele>
        <time>2021-04-04T08:17:12Z</time>
      </trkpt>
      <trkpt lat="40.2420200" lon="-3.5856780">
        <ele>578.2</ele>
        <time>2021-04-04T08:17:13Z</time>
      </trkpt>
      <trkpt lat="40.2420200" lon="-3.5856350">
        <ele>578.4</ele>
        <time>2021-04-04T08:17:14Z</time>
      </trkpt>
      <trkpt lat="40.2420230" lon="-3.5855970">
        <ele>578.4</ele>
        <time>2021-04-04T08:17:15Z</time>
      </trkpt>
      <trkpt lat="40.2420230" lon="-3.5855590">
        <ele>578.6</ele>
        <time>2021-04-04T08:17:16Z</time>
      </trkpt>
      <trkpt lat="40.2420270" lon="-3.5855210">
        <ele>578.6</ele>
        <time>2021-04-04T08:17:17Z</time>
      </trkpt>
      <trkpt lat="40.2420350" lon="-3.5854840">
        <ele>578.8</ele>
        <time>2021-04-04T08:17:18Z</time>
      </trkpt>
      <trkpt lat="40.2420390" lon="-3.5854480">
        <ele>578.8</ele>
        <time>2021-04-04T08:17:19Z</time>
      </trkpt>
      <trkpt lat="40.2420460" lon="-3.5854120">
        <ele>578.8</ele>
        <time>2021-04-04T08:17:20Z</time>
      </trkpt>
      <trkpt lat="40.2420500" lon="-3.5853770">
        <ele>578.8</ele>
        <time>2021-04-04T08:17:21Z</time>
      </trkpt>
      <trkpt lat="40.2420580" lon="-3.5853430">
        <ele>578.8</ele>
        <time>2021-04-04T08:17:22Z</time>
      </trkpt>
      <trkpt lat="40.2420650" lon="-3.5853070">
        <ele>578.8</ele>
        <time>2021-04-04T08:17:23Z</time>
      </trkpt>
      <trkpt lat="40.2420730" lon="-3.5852680">
        <ele>578.8</ele>
        <time>2021-04-04T08:17:24Z</time>
      </trkpt>
      <trkpt lat="40.2420770" lon="-3.5852240">
        <ele>578.6</ele>
        <time>2021-04-04T08:17:25Z</time>
      </trkpt>
      <trkpt lat="40.2420770" lon="-3.5851780">
        <ele>578.4</ele>
        <time>2021-04-04T08:17:26Z</time>
      </trkpt>
      <trkpt lat="40.2420690" lon="-3.5851330">
        <ele>578.4</ele>
        <time>2021-04-04T08:17:27Z</time>
      </trkpt>
      <trkpt lat="40.2420540" lon="-3.5850880">
        <ele>578.2</ele>
        <time>2021-04-04T08:17:28Z</time>
      </trkpt>
      <trkpt lat="40.2420270" lon="-3.5850440">
        <ele>577.8</ele>
        <time>2021-04-04T08:17:29Z</time>
      </trkpt>
      <trkpt lat="40.2420010" lon="-3.5850070">
        <ele>577.6</ele>
        <time>2021-04-04T08:17:30Z</time>
      </trkpt>
      <trkpt lat="40.2419660" lon="-3.5849860">
        <ele>577.4</ele>
        <time>2021-04-04T08:17:31Z</time>
      </trkpt>
      <trkpt lat="40.2419240" lon="-3.5849790">
        <ele>577.2</ele>
        <time>2021-04-04T08:17:32Z</time>
      </trkpt>
      <trkpt lat="40.2418780" lon="-3.5849830">
        <ele>577.0</ele>
        <time>2021-04-04T08:17:33Z</time>
      </trkpt>
      <trkpt lat="40.2418330" lon="-3.5849880">
        <ele>576.8</ele>
        <time>2021-04-04T08:17:34Z</time>
      </trkpt>
      <trkpt lat="40.2417830" lon="-3.5849870">
        <ele>576.6</ele>
        <time>2021-04-04T08:17:35Z</time>
      </trkpt>
      <trkpt lat="40.2417410" lon="-3.5849750">
        <ele>576.6</ele>
        <time>2021-04-04T08:17:36Z</time>
      </trkpt>
      <trkpt lat="40.2417070" lon="-3.5849530">
        <ele>576.4</ele>
        <time>2021-04-04T08:17:37Z</time>
      </trkpt>
      <trkpt lat="40.2416730" lon="-3.5849230">
        <ele>576.4</ele>
        <time>2021-04-04T08:17:38Z</time>
      </trkpt>
      <trkpt lat="40.2416460" lon="-3.5848910">
        <ele>576.4</ele>
        <time>2021-04-04T08:17:39Z</time>
      </trkpt>
      <trkpt lat="40.2416230" lon="-3.5848560">
        <ele>576.4</ele>
        <time>2021-04-04T08:17:40Z</time>
      </trkpt>
      <trkpt lat="40.2416000" lon="-3.5848140">
        <ele>576.4</ele>
        <time>2021-04-04T08:17:41Z</time>
      </trkpt>
      <trkpt lat="40.2415890" lon="-3.5847690">
        <ele>576.6</ele>
        <time>2021-04-04T08:17:42Z</time>
      </trkpt>
      <trkpt lat="40.2415850" lon="-3.5847240">
        <ele>576.6</ele>
        <time>2021-04-04T08:17:43Z</time>
      </trkpt>
      <trkpt lat="40.2415810" lon="-3.5846810">
        <ele>576.6</ele>
        <time>2021-04-04T08:17:44Z</time>
      </trkpt>
      <trkpt lat="40.2415770" lon="-3.5846380">
        <ele>576.6</ele>
        <time>2021-04-04T08:17:45Z</time>
      </trkpt>
      <trkpt lat="40.2415700" lon="-3.5845920">
        <ele>576.6</ele>
        <time>2021-04-04T08:17:46Z</time>
      </trkpt>
      <trkpt lat="40.2415620" lon="-3.5845460">
        <ele>576.6</ele>
        <time>2021-04-04T08:17:47Z</time>
      </trkpt>
      <trkpt lat="40.2415470" lon="-3.5845000">
        <ele>576.6</ele>
        <time>2021-04-04T08:17:48Z</time>
      </trkpt>
      <trkpt lat="40.2415310" lon="-3.5844520">
        <ele>576.4</ele>
        <time>2021-04-04T08:17:49Z</time>
      </trkpt>
      <trkpt lat="40.2415120" lon="-3.5844040">
        <ele>576.4</ele>
        <time>2021-04-04T08:17:50Z</time>
      </trkpt>
      <trkpt lat="40.2414970" lon="-3.5843520">
        <ele>576.4</ele>
        <time>2021-04-04T08:17:51Z</time>
      </trkpt>
      <trkpt lat="40.2414780" lon="-3.5843000">
        <ele>576.2</ele>
        <time>2021-04-04T08:17:52Z</time>
      </trkpt>
      <trkpt lat="40.2414660" lon="-3.5842460">
        <ele>576.2</ele>
        <time>2021-04-04T08:17:53Z</time>
      </trkpt>
      <trkpt lat="40.2414550" lon="-3.5841910">
        <ele>576.2</ele>
        <time>2021-04-04T08:17:54Z</time>
      </trkpt>
      <trkpt lat="40.2414440" lon="-3.5841390">
        <ele>576.2</ele>
        <time>2021-04-04T08:17:55Z</time>
      </trkpt>
      <trkpt lat="40.2414280" lon="-3.5840890">
        <ele>576.2</ele>
        <time>2021-04-04T08:17:56Z</time>
      </trkpt>
      <trkpt lat="40.2414170" lon="-3.5840390">
        <ele>576.2</ele>
        <time>2021-04-04T08:17:57Z</time>
      </trkpt>
      <trkpt lat="40.2413980" lon="-3.5839900">
        <ele>576.2</ele>
        <time>2021-04-04T08:17:58Z</time>
      </trkpt>
      <trkpt lat="40.2413830" lon="-3.5839430">
        <ele>576.2</ele>
        <time>2021-04-04T08:17:59Z</time>
      </trkpt>
      <trkpt lat="40.2413670" lon="-3.5838980">
        <ele>576.2</ele>
        <time>2021-04-04T08:18:00Z</time>
      </trkpt>
      <trkpt lat="40.2413520" lon="-3.5838520">
        <ele>576.2</ele>
        <time>2021-04-04T08:18:01Z</time>
      </trkpt>
      <trkpt lat="40.2413370" lon="-3.5838060">
        <ele>576.4</ele>
        <time>2021-04-04T08:18:02Z</time>
      </trkpt>
      <trkpt lat="40.2413180" lon="-3.5837600">
        <ele>576.4</ele>
        <time>2021-04-04T08:18:03Z</time>
      </trkpt>
      <trkpt lat="40.2413020" lon="-3.5837140">
        <ele>576.4</ele>
        <time>2021-04-04T08:18:04Z</time>
      </trkpt>
      <trkpt lat="40.2412910" lon="-3.5836680">
        <ele>576.6</ele>
        <time>2021-04-04T08:18:05Z</time>
      </trkpt>
      <trkpt lat="40.2412830" lon="-3.5836250">
        <ele>576.6</ele>
        <time>2021-04-04T08:18:06Z</time>
      </trkpt>
      <trkpt lat="40.2412760" lon="-3.5835810">
        <ele>576.6</ele>
        <time>2021-04-04T08:18:07Z</time>
      </trkpt>
      <trkpt lat="40.2412640" lon="-3.5835340">
        <ele>576.8</ele>
        <time>2021-04-04T08:18:08Z</time>
      </trkpt>
      <trkpt lat="40.2412570" lon="-3.5834860">
        <ele>576.8</ele>
        <time>2021-04-04T08:18:09Z</time>
      </trkpt>
      <trkpt lat="40.2412490" lon="-3.5834400">
        <ele>577.0</ele>
        <time>2021-04-04T08:18:10Z</time>
      </trkpt>
      <trkpt lat="40.2412380" lon="-3.5833960">
        <ele>577.0</ele>
        <time>2021-04-04T08:18:11Z</time>
      </trkpt>
      <trkpt lat="40.2412300" lon="-3.5833500">
        <ele>577.0</ele>
        <time>2021-04-04T08:18:12Z</time>
      </trkpt>
      <trkpt lat="40.2412220" lon="-3.5833050">
        <ele>577.0</ele>
        <time>2021-04-04T08:18:13Z</time>
      </trkpt>
      <trkpt lat="40.2412150" lon="-3.5832610">
        <ele>577.0</ele>
        <time>2021-04-04T08:18:14Z</time>
      </trkpt>
      <trkpt lat="40.2412030" lon="-3.5832160">
        <ele>577.0</ele>
        <time>2021-04-04T08:18:15Z</time>
      </trkpt>
      <trkpt lat="40.2411920" lon="-3.5831720">
        <ele>577.2</ele>
        <time>2021-04-04T08:18:16Z</time>
      </trkpt>
      <trkpt lat="40.2411800" lon="-3.5831290">
        <ele>577.2</ele>
        <time>2021-04-04T08:18:17Z</time>
      </trkpt>
      <trkpt lat="40.2411690" lon="-3.5830880">
        <ele>577.2</ele>
        <time>2021-04-04T08:18:18Z</time>
      </trkpt>
      <trkpt lat="40.2411650" lon="-3.5830470">
        <ele>577.2</ele>
        <time>2021-04-04T08:18:19Z</time>
      </trkpt>
      <trkpt lat="40.2411580" lon="-3.5830050">
        <ele>577.2</ele>
        <time>2021-04-04T08:18:20Z</time>
      </trkpt>
      <trkpt lat="40.2411500" lon="-3.5829600">
        <ele>577.2</ele>
        <time>2021-04-04T08:18:21Z</time>
      </trkpt>
      <trkpt lat="40.2411380" lon="-3.5829140">
        <ele>577.2</ele>
        <time>2021-04-04T08:18:22Z</time>
      </trkpt>
      <trkpt lat="40.2411310" lon="-3.5828700">
        <ele>577.2</ele>
        <time>2021-04-04T08:18:23Z</time>
      </trkpt>
      <trkpt lat="40.2411270" lon="-3.5828230">
        <ele>577.2</ele>
        <time>2021-04-04T08:18:24Z</time>
      </trkpt>
      <trkpt lat="40.2411190" lon="-3.5827730">
        <ele>577.2</ele>
        <time>2021-04-04T08:18:25Z</time>
      </trkpt>
      <trkpt lat="40.2411120" lon="-3.5827200">
        <ele>577.2</ele>
        <time>2021-04-04T08:18:26Z</time>
      </trkpt>
      <trkpt lat="40.2410970" lon="-3.5826690">
        <ele>577.0</ele>
        <time>2021-04-04T08:18:27Z</time>
      </trkpt>
      <trkpt lat="40.2410770" lon="-3.5826200">
        <ele>577.0</ele>
        <time>2021-04-04T08:18:28Z</time>
      </trkpt>
      <trkpt lat="40.2410510" lon="-3.5825780">
        <ele>577.0</ele>
        <time>2021-04-04T08:18:29Z</time>
      </trkpt>
      <trkpt lat="40.2410160" lon="-3.5825480">
        <ele>576.8</ele>
        <time>2021-04-04T08:18:30Z</time>
      </trkpt>
      <trkpt lat="40.2409740" lon="-3.5825260">
        <ele>576.8</ele>
        <time>2021-04-04T08:18:31Z</time>
      </trkpt>
      <trkpt lat="40.2409320" lon="-3.5825110">
        <ele>576.6</ele>
        <time>2021-04-04T08:18:32Z</time>
      </trkpt>
      <trkpt lat="40.2408870" lon="-3.5825010">
        <ele>576.6</ele>
        <time>2021-04-04T08:18:33Z</time>
      </trkpt>
      <trkpt lat="40.2408370" lon="-3.5824950">
        <ele>576.4</ele>
        <time>2021-04-04T08:18:34Z</time>
      </trkpt>
      <trkpt lat="40.2407910" lon="-3.5824940">
        <ele>576.4</ele>
        <time>2021-04-04T08:18:35Z</time>
      </trkpt>
      <trkpt lat="40.2407420" lon="-3.5824960">
        <ele>576.4</ele>
        <time>2021-04-04T08:18:36Z</time>
      </trkpt>
      <trkpt lat="40.2407000" lon="-3.5824970">
        <ele>576.4</ele>
        <time>2021-04-04T08:18:37Z</time>
      </trkpt>
      <trkpt lat="40.2406540" lon="-3.5824980">
        <ele>576.2</ele>
        <time>2021-04-04T08:18:38Z</time>
      </trkpt>
      <trkpt lat="40.2406080" lon="-3.5824970">
        <ele>576.2</ele>
        <time>2021-04-04T08:18:39Z</time>
      </trkpt>
      <trkpt lat="40.2405590" lon="-3.5824960">
        <ele>576.0</ele>
        <time>2021-04-04T08:18:40Z</time>
      </trkpt>
      <trkpt lat="40.2405090" lon="-3.5824920">
        <ele>575.8</ele>
        <time>2021-04-04T08:18:41Z</time>
      </trkpt>
      <trkpt lat="40.2404560" lon="-3.5824830">
        <ele>575.4</ele>
        <time>2021-04-04T08:18:42Z</time>
      </trkpt>
      <trkpt lat="40.2404020" lon="-3.5824730">
        <ele>575.0</ele>
        <time>2021-04-04T08:18:43Z</time>
      </trkpt>
      <trkpt lat="40.2403450" lon="-3.5824630">
        <ele>574.8</ele>
        <time>2021-04-04T08:18:44Z</time>
      </trkpt>
      <trkpt lat="40.2402880" lon="-3.5824530">
        <ele>574.4</ele>
        <time>2021-04-04T08:18:45Z</time>
      </trkpt>
      <trkpt lat="40.2402310" lon="-3.5824450">
        <ele>574.2</ele>
        <time>2021-04-04T08:18:46Z</time>
      </trkpt>
      <trkpt lat="40.2401730" lon="-3.5824340">
        <ele>573.8</ele>
        <time>2021-04-04T08:18:47Z</time>
      </trkpt>
      <trkpt lat="40.2401160" lon="-3.5824150">
        <ele>573.6</ele>
        <time>2021-04-04T08:18:48Z</time>
      </trkpt>
      <trkpt lat="40.2400670" lon="-3.5823870">
        <ele>573.4</ele>
        <time>2021-04-04T08:18:49Z</time>
      </trkpt>
      <trkpt lat="40.2400280" lon="-3.5823470">
        <ele>573.2</ele>
        <time>2021-04-04T08:18:50Z</time>
      </trkpt>
      <trkpt lat="40.2400020" lon="-3.5822920">
        <ele>573.0</ele>
        <time>2021-04-04T08:18:51Z</time>
      </trkpt>
      <trkpt lat="40.2399830" lon="-3.5822280">
        <ele>573.0</ele>
        <time>2021-04-04T08:18:52Z</time>
      </trkpt>
      <trkpt lat="40.2399710" lon="-3.5821630">
        <ele>572.8</ele>
        <time>2021-04-04T08:18:53Z</time>
      </trkpt>
      <trkpt lat="40.2399640" lon="-3.5820980">
        <ele>572.6</ele>
        <time>2021-04-04T08:18:54Z</time>
      </trkpt>
      <trkpt lat="40.2399670" lon="-3.5820310">
        <ele>572.2</ele>
        <time>2021-04-04T08:18:55Z</time>
      </trkpt>
      <trkpt lat="40.2399830" lon="-3.5819600">
        <ele>572.0</ele>
        <time>2021-04-04T08:18:56Z</time>
      </trkpt>
      <trkpt lat="40.2399980" lon="-3.5818840">
        <ele>571.6</ele>
        <time>2021-04-04T08:18:57Z</time>
      </trkpt>
      <trkpt lat="40.2400170" lon="-3.5818010">
        <ele>571.2</ele>
        <time>2021-04-04T08:18:58Z</time>
      </trkpt>
      <trkpt lat="40.2400170" lon="-3.5817210">
        <ele>570.8</ele>
        <time>2021-04-04T08:18:59Z</time>
      </trkpt>
      <trkpt lat="40.2400060" lon="-3.5816470">
        <ele>570.4</ele>
        <time>2021-04-04T08:19:00Z</time>
      </trkpt>
      <trkpt lat="40.2399710" lon="-3.5815840">
        <ele>569.8</ele>
        <time>2021-04-04T08:19:01Z</time>
      </trkpt>
      <trkpt lat="40.2399250" lon="-3.5815330">
        <ele>569.4</ele>
        <time>2021-04-04T08:19:02Z</time>
      </trkpt>
      <trkpt lat="40.2398680" lon="-3.5814870">
        <ele>568.8</ele>
        <time>2021-04-04T08:19:03Z</time>
      </trkpt>
      <trkpt lat="40.2398070" lon="-3.5814400">
        <ele>568.2</ele>
        <time>2021-04-04T08:19:04Z</time>
      </trkpt>
      <trkpt lat="40.2397500" lon="-3.5813900">
        <ele>567.6</ele>
        <time>2021-04-04T08:19:05Z</time>
      </trkpt>
      <trkpt lat="40.2396890" lon="-3.5813310">
        <ele>567.0</ele>
        <time>2021-04-04T08:19:06Z</time>
      </trkpt>
      <trkpt lat="40.2396320" lon="-3.5812660">
        <ele>566.4</ele>
        <time>2021-04-04T08:19:07Z</time>
      </trkpt>
      <trkpt lat="40.2395710" lon="-3.5811970">
        <ele>565.6</ele>
        <time>2021-04-04T08:19:08Z</time>
      </trkpt>
      <trkpt lat="40.2395020" lon="-3.5811250">
        <ele>564.8</ele>
        <time>2021-04-04T08:19:09Z</time>
      </trkpt>
      <trkpt lat="40.2394330" lon="-3.5810520">
        <ele>564.0</ele>
        <time>2021-04-04T08:19:10Z</time>
      </trkpt>
      <trkpt lat="40.2393570" lon="-3.5809700">
        <ele>563.2</ele>
        <time>2021-04-04T08:19:11Z</time>
      </trkpt>
      <trkpt lat="40.2392730" lon="-3.5808740">
        <ele>562.4</ele>
        <time>2021-04-04T08:19:12Z</time>
      </trkpt>
      <trkpt lat="40.2391890" lon="-3.5807750">
        <ele>561.4</ele>
        <time>2021-04-04T08:19:13Z</time>
      </trkpt>
      <trkpt lat="40.2390980" lon="-3.5806790">
        <ele>560.4</ele>
        <time>2021-04-04T08:19:14Z</time>
      </trkpt>
      <trkpt lat="40.2390140" lon="-3.5805920">
        <ele>559.4</ele>
        <time>2021-04-04T08:19:15Z</time>
      </trkpt>
      <trkpt lat="40.2389300" lon="-3.5805160">
        <ele>558.6</ele>
        <time>2021-04-04T08:19:16Z</time>
      </trkpt>
      <trkpt lat="40.2388500" lon="-3.5804510">
        <ele>557.6</ele>
        <time>2021-04-04T08:19:17Z</time>
      </trkpt>
      <trkpt lat="40.2387730" lon="-3.5803920">
        <ele>556.8</ele>
        <time>2021-04-04T08:19:18Z</time>
      </trkpt>
      <trkpt lat="40.2386930" lon="-3.5803450">
        <ele>555.8</ele>
        <time>2021-04-04T08:19:19Z</time>
      </trkpt>
      <trkpt lat="40.2386060" lon="-3.5803160">
        <ele>555.0</ele>
        <time>2021-04-04T08:19:20Z</time>
      </trkpt>
      <trkpt lat="40.2385250" lon="-3.5803110">
        <ele>554.2</ele>
        <time>2021-04-04T08:19:21Z</time>
      </trkpt>
      <trkpt lat="40.2384490" lon="-3.5803280">
        <ele>553.6</ele>
        <time>2021-04-04T08:19:22Z</time>
      </trkpt>
      <trkpt lat="40.2383800" lon="-3.5803620">
        <ele>553.0</ele>
        <time>2021-04-04T08:19:23Z</time>
      </trkpt>
      <trkpt lat="40.2383160" lon="-3.5804080">
        <ele>552.4</ele>
        <time>2021-04-04T08:19:24Z</time>
      </trkpt>
      <trkpt lat="40.2382550" lon="-3.5804520">
        <ele>552.0</ele>
        <time>2021-04-04T08:19:25Z</time>
      </trkpt>
      <trkpt lat="40.2382010" lon="-3.5804930">
        <ele>551.6</ele>
        <time>2021-04-04T08:19:26Z</time>
      </trkpt>
      <trkpt lat="40.2381480" lon="-3.5805400">
        <ele>551.2</ele>
        <time>2021-04-04T08:19:27Z</time>
      </trkpt>
      <trkpt lat="40.2381020" lon="-3.5805990">
        <ele>551.0</ele>
        <time>2021-04-04T08:19:28Z</time>
      </trkpt>
      <trkpt lat="40.2380640" lon="-3.5806660">
        <ele>550.6</ele>
        <time>2021-04-04T08:19:29Z</time>
      </trkpt>
      <trkpt lat="40.2380330" lon="-3.5807390">
        <ele>550.4</ele>
        <time>2021-04-04T08:19:30Z</time>
      </trkpt>
      <trkpt lat="40.2380030" lon="-3.5808110">
        <ele>550.0</ele>
        <time>2021-04-04T08:19:31Z</time>
      </trkpt>
      <trkpt lat="40.2379720" lon="-3.5808650">
        <ele>549.6</ele>
        <time>2021-04-04T08:19:32Z</time>
      </trkpt>
      <trkpt lat="40.2379340" lon="-3.5808930">
        <ele>549.2</ele>
        <time>2021-04-04T08:19:33Z</time>
      </trkpt>
      <trkpt lat="40.2379000" lon="-3.5808890">
        <ele>548.6</ele>
        <time>2021-04-04T08:19:34Z</time>
      </trkpt>
      <trkpt lat="40.2378810" lon="-3.5808570">
        <ele>548.0</ele>
        <time>2021-04-04T08:19:35Z</time>
      </trkpt>
      <trkpt lat="40.2378770" lon="-3.5808090">
        <ele>547.4</ele>
        <time>2021-04-04T08:19:36Z</time>
      </trkpt>
      <trkpt lat="40.2378730" lon="-3.5807540">
        <ele>547.0</ele>
        <time>2021-04-04T08:19:37Z</time>
      </trkpt>
      <trkpt lat="40.2378770" lon="-3.5806950">
        <ele>546.6</ele>
        <time>2021-04-04T08:19:38Z</time>
      </trkpt>
      <trkpt lat="40.2378810" lon="-3.5806330">
        <ele>546.2</ele>
        <time>2021-04-04T08:19:39Z</time>
      </trkpt>
      <trkpt lat="40.2378770" lon="-3.5805720">
        <ele>545.6</ele>
        <time>2021-04-04T08:19:40Z</time>
      </trkpt>
      <trkpt lat="40.2378730" lon="-3.5805090">
        <ele>545.2</ele>
        <time>2021-04-04T08:19:41Z</time>
      </trkpt>
      <trkpt lat="40.2378690" lon="-3.5804320">
        <ele>544.8</ele>
        <time>2021-04-04T08:19:42Z</time>
      </trkpt>
      <trkpt lat="40.2378770" lon="-3.5803650">
        <ele>544.4</ele>
        <time>2021-04-04T08:19:43Z</time>
      </trkpt>
      <trkpt lat="40.2378880" lon="-3.5803040">
        <ele>543.8</ele>
        <time>2021-04-04T08:19:44Z</time>
      </trkpt>
      <trkpt lat="40.2379040" lon="-3.5802540">
        <ele>543.4</ele>
        <time>2021-04-04T08:19:45Z</time>
      </trkpt>
      <trkpt lat="40.2379300" lon="-3.5802100">
        <ele>543.0</ele>
        <time>2021-04-04T08:19:46Z</time>
      </trkpt>
      <trkpt lat="40.2379530" lon="-3.5801620">
        <ele>542.6</ele>
        <time>2021-04-04T08:19:47Z</time>
      </trkpt>
      <trkpt lat="40.2379760" lon="-3.5801060">
        <ele>542.0</ele>
        <time>2021-04-04T08:19:48Z</time>
      </trkpt>
      <trkpt lat="40.2379910" lon="-3.5800500">
        <ele>541.4</ele>
        <time>2021-04-04T08:19:49Z</time>
      </trkpt>
      <trkpt lat="40.2380030" lon="-3.5800010">
        <ele>541.0</ele>
        <time>2021-04-04T08:19:50Z</time>
      </trkpt>
      <trkpt lat="40.2379910" lon="-3.5799640">
        <ele>540.4</ele>
        <time>2021-04-04T08:19:51Z</time>
      </trkpt>
      <trkpt lat="40.2379720" lon="-3.5799410">
        <ele>540.0</ele>
        <time>2021-04-04T08:19:52Z</time>
      </trkpt>
      <trkpt lat="40.2379380" lon="-3.5799310">
        <ele>539.4</ele>
        <time>2021-04-04T08:19:53Z</time>
      </trkpt>
      <trkpt lat="40.2378960" lon="-3.5799360">
        <ele>538.8</ele>
        <time>2021-04-04T08:19:54Z</time>
      </trkpt>
      <trkpt lat="40.2378500" lon="-3.5799560">
        <ele>538.2</ele>
        <time>2021-04-04T08:19:55Z</time>
      </trkpt>
      <trkpt lat="40.2377970" lon="-3.5799800">
        <ele>537.6</ele>
        <time>2021-04-04T08:19:56Z</time>
      </trkpt>
      <trkpt lat="40.2377430" lon="-3.5800020">
        <ele>537.2</ele>
        <time>2021-04-04T08:19:57Z</time>
      </trkpt>
      <trkpt lat="40.2376860" lon="-3.5800140">
        <ele>536.6</ele>
        <time>2021-04-04T08:19:58Z</time>
      </trkpt>
      <trkpt lat="40.2376250" lon="-3.5800190">
        <ele>536.0</ele>
        <time>2021-04-04T08:19:59Z</time>
      </trkpt>
      <trkpt lat="40.2375640" lon="-3.5800190">
        <ele>535.4</ele>
        <time>2021-04-04T08:20:00Z</time>
      </trkpt>
      <trkpt lat="40.2375030" lon="-3.5800150">
        <ele>534.8</ele>
        <time>2021-04-04T08:20:01Z</time>
      </trkpt>
      <trkpt lat="40.2374380" lon="-3.5800120">
        <ele>534.0</ele>
        <time>2021-04-04T08:20:02Z</time>
      </trkpt>
      <trkpt lat="40.2373700" lon="-3.5800090">
        <ele>533.4</ele>
        <time>2021-04-04T08:20:03Z</time>
      </trkpt>
      <trkpt lat="40.2373050" lon="-3.5800080">
        <ele>532.8</ele>
        <time>2021-04-04T08:20:04Z</time>
      </trkpt>
      <trkpt lat="40.2372440" lon="-3.5800060">
        <ele>532.0</ele>
        <time>2021-04-04T08:20:05Z</time>
      </trkpt>
      <trkpt lat="40.2371830" lon="-3.5800040">
        <ele>531.4</ele>
        <time>2021-04-04T08:20:06Z</time>
      </trkpt>
      <trkpt lat="40.2371290" lon="-3.5800040">
        <ele>531.0</ele>
        <time>2021-04-04T08:20:07Z</time>
      </trkpt>
      <trkpt lat="40.2370800" lon="-3.5800100">
        <ele>530.4</ele>
        <time>2021-04-04T08:20:08Z</time>
      </trkpt>
      <trkpt lat="40.2370380" lon="-3.5800240">
        <ele>529.8</ele>
        <time>2021-04-04T08:20:09Z</time>
      </trkpt>
      <trkpt lat="40.2370000" lon="-3.5800430">
        <ele>529.2</ele>
        <time>2021-04-04T08:20:10Z</time>
      </trkpt>
      <trkpt lat="40.2369690" lon="-3.5800650">
        <ele>528.8</ele>
        <time>2021-04-04T08:20:11Z</time>
      </trkpt>
      <trkpt lat="40.2369460" lon="-3.5800870">
        <ele>528.4</ele>
        <time>2021-04-04T08:20:12Z</time>
      </trkpt>
      <trkpt lat="40.2369270" lon="-3.5801040">
        <ele>527.8</ele>
        <time>2021-04-04T08:20:13Z</time>
      </trkpt>
      <trkpt lat="40.2369120" lon="-3.5801180">
        <ele>527.4</ele>
        <time>2021-04-04T08:20:14Z</time>
      </trkpt>
      <trkpt lat="40.2368930" lon="-3.5801300">
        <ele>527.0</ele>
        <time>2021-04-04T08:20:15Z</time>
      </trkpt>
      <trkpt lat="40.2368700" lon="-3.5801390">
        <ele>526.6</ele>
        <time>2021-04-04T08:20:16Z</time>
      </trkpt>
      <trkpt lat="40.2368430" lon="-3.5801420">
        <ele>526.2</ele>
        <time>2021-04-04T08:20:17Z</time>
      </trkpt>
      <trkpt lat="40.2368200" lon="-3.5801340">
        <ele>525.8</ele>
        <time>2021-04-04T08:20:18Z</time>
      </trkpt>
      <trkpt lat="40.2368010" lon="-3.5801140">
        <ele>525.6</ele>
        <time>2021-04-04T08:20:19Z</time>
      </trkpt>
      <trkpt lat="40.2367820" lon="-3.5800850">
        <ele>525.4</ele>
        <time>2021-04-04T08:20:20Z</time>
      </trkpt>
      <trkpt lat="40.2367670" lon="-3.5800520">
        <ele>525.2</ele>
        <time>2021-04-04T08:20:21Z</time>
      </trkpt>
      <trkpt lat="40.2367520" lon="-3.5800230">
        <ele>525.0</ele>
        <time>2021-04-04T08:20:22Z</time>
      </trkpt>
      <trkpt lat="40.2367360" lon="-3.5800030">
        <ele>524.8</ele>
        <time>2021-04-04T08:20:23Z</time>
      </trkpt>
      <trkpt lat="40.2367210" lon="-3.5799890">
        <ele>524.8</ele>
        <time>2021-04-04T08:20:24Z</time>
      </trkpt>
      <trkpt lat="40.2367060" lon="-3.5799830">
        <ele>524.8</ele>
        <time>2021-04-04T08:20:25Z</time>
      </trkpt>
      <trkpt lat="40.2366900" lon="-3.5799880">
        <ele>524.8</ele>
        <time>2021-04-04T08:20:26Z</time>
      </trkpt>
      <trkpt lat="40.2366830" lon="-3.5800030">
        <ele>524.8</ele>
        <time>2021-04-04T08:20:27Z</time>
      </trkpt>
      <trkpt lat="40.2366790" lon="-3.5800250">
        <ele>524.6</ele>
        <time>2021-04-04T08:20:28Z</time>
      </trkpt>
      <trkpt lat="40.2366750" lon="-3.5800510">
        <ele>524.6</ele>
        <time>2021-04-04T08:20:29Z</time>
      </trkpt>
      <trkpt lat="40.2366710" lon="-3.5800790">
        <ele>524.6</ele>
        <time>2021-04-04T08:20:30Z</time>
      </trkpt>
      <trkpt lat="40.2366680" lon="-3.5801050">
        <ele>524.6</ele>
        <time>2021-04-04T08:20:31Z</time>
      </trkpt>
      <trkpt lat="40.2366640" lon="-3.5801330">
        <ele>524.6</ele>
        <time>2021-04-04T08:20:32Z</time>
      </trkpt>
      <trkpt lat="40.2366560" lon="-3.5801620">
        <ele>524.6</ele>
        <time>2021-04-04T08:20:33Z</time>
      </trkpt>
      <trkpt lat="40.2366490" lon="-3.5801900">
        <ele>524.4</ele>
        <time>2021-04-04T08:20:34Z</time>
      </trkpt>
      <trkpt lat="40.2366330" lon="-3.5802170">
        <ele>524.4</ele>
        <time>2021-04-04T08:20:35Z</time>
      </trkpt>
      <trkpt lat="40.2366140" lon="-3.5802380">
        <ele>524.4</ele>
        <time>2021-04-04T08:20:36Z</time>
      </trkpt>
      <trkpt lat="40.2365910" lon="-3.5802510">
        <ele>524.4</ele>
        <time>2021-04-04T08:20:37Z</time>
      </trkpt>
      <trkpt lat="40.2365720" lon="-3.5802590">
        <ele>524.4</ele>
        <time>2021-04-04T08:20:38Z</time>
      </trkpt>
      <trkpt lat="40.2365650" lon="-3.5802650">
        <ele>524.6</ele>
        <time>2021-04-04T08:20:39Z</time>
      </trkpt>
      <trkpt lat="40.2365650" lon="-3.5802680">
        <ele>524.6</ele>
        <time>2021-04-04T08:20:40Z</time>
      </trkpt>
      <trkpt lat="40.2365650" lon="-3.5802700">
        <ele>524.6</ele>
        <time>2021-04-04T08:20:41Z</time>
      </trkpt>
      <trkpt lat="40.2365650" lon="-3.5802700">
        <ele>524.6</ele>
        <time>2021-04-04T08:20:42Z</time>
      </trkpt>
      <trkpt lat="40.2365650" lon="-3.5802700">
        <ele>524.6</ele>
        <time>2021-04-04T08:20:43Z</time>
      </trkpt>
      <trkpt lat="40.2365650" lon="-3.5802700">
        <ele>524.6</ele>
        <time>2021-04-04T08:20:44Z</time>
      </trkpt>
      <trkpt lat="40.2365650" lon="-3.5802700">
        <ele>524.8</ele>
        <time>2021-04-04T08:20:45Z</time>
      </trkpt>
      <trkpt lat="40.2365650" lon="-3.5802700">
        <ele>524.8</ele>
        <time>2021-04-04T08:20:46Z</time>
      </trkpt>
      <trkpt lat="40.2365650" lon="-3.5802700">
        <ele>524.8</ele>
        <time>2021-04-04T08:20:47Z</time>
      </trkpt>
      <trkpt lat="40.2365650" lon="-3.5802700">
        <ele>524.8</ele>
        <time>2021-04-04T08:20:48Z</time>
      </trkpt>
      <trkpt lat="40.2365420" lon="-3.5800660">
        <ele>524.6</ele>
        <time>2021-04-04T08:24:54Z</time>
      </trkpt>
      <trkpt lat="40.2365380" lon="-3.5800430">
        <ele>524.8</ele>
        <time>2021-04-04T08:24:55Z</time>
      </trkpt>
      <trkpt lat="40.2365380" lon="-3.5800200">
        <ele>524.8</ele>
        <time>2021-04-04T08:24:56Z</time>
      </trkpt>
      <trkpt lat="40.2365380" lon="-3.5799950">
        <ele>524.8</ele>
        <time>2021-04-04T08:24:57Z</time>
      </trkpt>
      <trkpt lat="40.2365380" lon="-3.5799720">
        <ele>524.8</ele>
        <time>2021-04-04T08:24:58Z</time>
      </trkpt>
      <trkpt lat="40.2365380" lon="-3.5799490">
        <ele>524.8</ele>
        <time>2021-04-04T08:24:59Z</time>
      </trkpt>
      <trkpt lat="40.2365380" lon="-3.5799260">
        <ele>524.8</ele>
        <time>2021-04-04T08:25:00Z</time>
      </trkpt>
      <trkpt lat="40.2365340" lon="-3.5799010">
        <ele>524.8</ele>
        <time>2021-04-04T08:25:01Z</time>
      </trkpt>
      <trkpt lat="40.2365300" lon="-3.5798750">
        <ele>524.8</ele>
        <time>2021-04-04T08:25:02Z</time>
      </trkpt>
      <trkpt lat="40.2365260" lon="-3.5798500">
        <ele>524.8</ele>
        <time>2021-04-04T08:25:03Z</time>
      </trkpt>
      <trkpt lat="40.2365260" lon="-3.5798250">
        <ele>524.8</ele>
        <time>2021-04-04T08:25:04Z</time>
      </trkpt>
      <trkpt lat="40.2365190" lon="-3.5797980">
        <ele>524.8</ele>
        <time>2021-04-04T08:25:05Z</time>
      </trkpt>
      <trkpt lat="40.2365150" lon="-3.5797730">
        <ele>524.8</ele>
        <time>2021-04-04T08:25:06Z</time>
      </trkpt>
      <trkpt lat="40.2365110" lon="-3.5797460">
        <ele>524.8</ele>
        <time>2021-04-04T08:25:07Z</time>
      </trkpt>
      <trkpt lat="40.2365070" lon="-3.5797200">
        <ele>524.8</ele>
        <time>2021-04-04T08:25:08Z</time>
      </trkpt>
      <trkpt lat="40.2365000" lon="-3.5796920">
        <ele>524.8</ele>
        <time>2021-04-04T08:25:09Z</time>
      </trkpt>
      <trkpt lat="40.2364920" lon="-3.5796610">
        <ele>524.8</ele>
        <time>2021-04-04T08:25:10Z</time>
      </trkpt>
      <trkpt lat="40.2364880" lon="-3.5796300">
        <ele>524.8</ele>
        <time>2021-04-04T08:25:11Z</time>
      </trkpt>
      <trkpt lat="40.2364810" lon="-3.5795980">
        <ele>524.8</ele>
        <time>2021-04-04T08:25:12Z</time>
      </trkpt>
      <trkpt lat="40.2364770" lon="-3.5795670">
        <ele>524.8</ele>
        <time>2021-04-04T08:25:13Z</time>
      </trkpt>
      <trkpt lat="40.2364690" lon="-3.5795370">
        <ele>524.8</ele>
        <time>2021-04-04T08:25:14Z</time>
      </trkpt>
      <trkpt lat="40.2364580" lon="-3.5795060">
        <ele>524.8</ele>
        <time>2021-04-04T08:25:15Z</time>
      </trkpt>
      <trkpt lat="40.2364540" lon="-3.5794750">
        <ele>524.6</ele>
        <time>2021-04-04T08:25:16Z</time>
      </trkpt>
      <trkpt lat="40.2364460" lon="-3.5794450">
        <ele>524.6</ele>
        <time>2021-04-04T08:25:17Z</time>
      </trkpt>
      <trkpt lat="40.2364350" lon="-3.5794140">
        <ele>524.6</ele>
        <time>2021-04-04T08:25:18Z</time>
      </trkpt>
      <trkpt lat="40.2364270" lon="-3.5793830">
        <ele>524.6</ele>
        <time>2021-04-04T08:25:19Z</time>
      </trkpt>
      <trkpt lat="40.2364200" lon="-3.5793550">
        <ele>524.6</ele>
        <time>2021-04-04T08:25:20Z</time>
      </trkpt>
      <trkpt lat="40.2364120" lon="-3.5793270">
        <ele>524.6</ele>
        <time>2021-04-04T08:25:21Z</time>
      </trkpt>
      <trkpt lat="40.2364040" lon="-3.5792950">
        <ele>524.6</ele>
        <time>2021-04-04T08:25:22Z</time>
      </trkpt>
      <trkpt lat="40.2363930" lon="-3.5792630">
        <ele>524.6</ele>
        <time>2021-04-04T08:25:23Z</time>
      </trkpt>
      <trkpt lat="40.2363850" lon="-3.5792320">
        <ele>524.6</ele>
        <time>2021-04-04T08:25:24Z</time>
      </trkpt>
      <trkpt lat="40.2363740" lon="-3.5791990">
        <ele>524.6</ele>
        <time>2021-04-04T08:25:25Z</time>
      </trkpt>
      <trkpt lat="40.2363660" lon="-3.5791660">
        <ele>524.6</ele>
        <time>2021-04-04T08:25:26Z</time>
      </trkpt>
      <trkpt lat="40.2363590" lon="-3.5791300">
        <ele>524.6</ele>
        <time>2021-04-04T08:25:27Z</time>
      </trkpt>
      <trkpt lat="40.2363510" lon="-3.5790950">
        <ele>524.4</ele>
        <time>2021-04-04T08:25:28Z</time>
      </trkpt>
      <trkpt lat="40.2363400" lon="-3.5790620">
        <ele>524.4</ele>
        <time>2021-04-04T08:25:29Z</time>
      </trkpt>
      <trkpt lat="40.2363320" lon="-3.5790290">
        <ele>524.4</ele>
        <time>2021-04-04T08:25:30Z</time>
      </trkpt>
      <trkpt lat="40.2363240" lon="-3.5789950">
        <ele>524.4</ele>
        <time>2021-04-04T08:25:31Z</time>
      </trkpt>
      <trkpt lat="40.2363170" lon="-3.5789620">
        <ele>524.4</ele>
        <time>2021-04-04T08:25:32Z</time>
      </trkpt>
      <trkpt lat="40.2363090" lon="-3.5789290">
        <ele>524.4</ele>
        <time>2021-04-04T08:25:33Z</time>
      </trkpt>
      <trkpt lat="40.2363010" lon="-3.5788980">
        <ele>524.4</ele>
        <time>2021-04-04T08:25:34Z</time>
      </trkpt>
      <trkpt lat="40.2362900" lon="-3.5788640">
        <ele>524.4</ele>
        <time>2021-04-04T08:25:35Z</time>
      </trkpt>
      <trkpt lat="40.2362750" lon="-3.5788230">
        <ele>524.4</ele>
        <time>2021-04-04T08:25:36Z</time>
      </trkpt>
      <trkpt lat="40.2362590" lon="-3.5787820">
        <ele>524.4</ele>
        <time>2021-04-04T08:25:37Z</time>
      </trkpt>
      <trkpt lat="40.2362400" lon="-3.5787410">
        <ele>524.2</ele>
        <time>2021-04-04T08:25:38Z</time>
      </trkpt>
      <trkpt lat="40.2362440" lon="-3.5786990">
        <ele>524.2</ele>
        <time>2021-04-04T08:25:39Z</time>
      </trkpt>
      <trkpt lat="40.2362370" lon="-3.5786770">
        <ele>524.2</ele>
        <time>2021-04-04T08:25:40Z</time>
      </trkpt>
      <trkpt lat="40.2362370" lon="-3.5786620">
        <ele>524.2</ele>
        <time>2021-04-04T08:25:41Z</time>
      </trkpt>
      <trkpt lat="40.2362400" lon="-3.5786510">
        <ele>524.2</ele>
        <time>2021-04-04T08:25:42Z</time>
      </trkpt>
      <trkpt lat="40.2362330" lon="-3.5786250">
        <ele>524.2</ele>
        <time>2021-04-04T08:25:43Z</time>
      </trkpt>
      <trkpt lat="40.2362210" lon="-3.5785960">
        <ele>524.2</ele>
        <time>2021-04-04T08:25:44Z</time>
      </trkpt>
      <trkpt lat="40.2362100" lon="-3.5785700">
        <ele>524.2</ele>
        <time>2021-04-04T08:25:45Z</time>
      </trkpt>
      <trkpt lat="40.2361950" lon="-3.5785500">
        <ele>524.2</ele>
        <time>2021-04-04T08:25:46Z</time>
      </trkpt>
      <trkpt lat="40.2361790" lon="-3.5785350">
        <ele>524.2</ele>
        <time>2021-04-04T08:25:47Z</time>
      </trkpt>
      <trkpt lat="40.2361560" lon="-3.5785290">
        <ele>524.2</ele>
        <time>2021-04-04T08:25:48Z</time>
      </trkpt>
      <trkpt lat="40.2361300" lon="-3.5785300">
        <ele>524.2</ele>
        <time>2021-04-04T08:25:49Z</time>
      </trkpt>
      <trkpt lat="40.2361070" lon="-3.5785370">
        <ele>524.0</ele>
        <time>2021-04-04T08:25:50Z</time>
      </trkpt>
      <trkpt lat="40.2360840" lon="-3.5785460">
        <ele>524.0</ele>
        <time>2021-04-04T08:25:51Z</time>
      </trkpt>
      <trkpt lat="40.2360570" lon="-3.5785580">
        <ele>523.8</ele>
        <time>2021-04-04T08:25:52Z</time>
      </trkpt>
      <trkpt lat="40.2360310" lon="-3.5785680">
        <ele>523.8</ele>
        <time>2021-04-04T08:25:53Z</time>
      </trkpt>
      <trkpt lat="40.2360040" lon="-3.5785760">
        <ele>523.8</ele>
        <time>2021-04-04T08:25:54Z</time>
      </trkpt>
      <trkpt lat="40.2359770" lon="-3.5785820">
        <ele>523.6</ele>
        <time>2021-04-04T08:25:55Z</time>
      </trkpt>
      <trkpt lat="40.2359470" lon="-3.5785890">
        <ele>523.4</ele>
        <time>2021-04-04T08:25:56Z</time>
      </trkpt>
      <trkpt lat="40.2359200" lon="-3.5785930">
        <ele>523.4</ele>
        <time>2021-04-04T08:25:57Z</time>
      </trkpt>
      <trkpt lat="40.2358890" lon="-3.5785860">
        <ele>523.2</ele>
        <time>2021-04-04T08:25:58Z</time>
      </trkpt>
      <trkpt lat="40.2358630" lon="-3.5785660">
        <ele>523.2</ele>
        <time>2021-04-04T08:25:59Z</time>
      </trkpt>
      <trkpt lat="40.2358400" lon="-3.5785340">
        <ele>523.0</ele>
        <time>2021-04-04T08:26:00Z</time>
      </trkpt>
      <trkpt lat="40.2358280" lon="-3.5784950">
        <ele>523.0</ele>
        <time>2021-04-04T08:26:01Z</time>
      </trkpt>
      <trkpt lat="40.2358130" lon="-3.5784560">
        <ele>523.0</ele>
        <time>2021-04-04T08:26:02Z</time>
      </trkpt>
      <trkpt lat="40.2358020" lon="-3.5784200">
        <ele>523.0</ele>
        <time>2021-04-04T08:26:03Z</time>
      </trkpt>
      <trkpt lat="40.2357900" lon="-3.5783860">
        <ele>523.0</ele>
        <time>2021-04-04T08:26:04Z</time>
      </trkpt>
      <trkpt lat="40.2357830" lon="-3.5783520">
        <ele>523.0</ele>
        <time>2021-04-04T08:26:05Z</time>
      </trkpt>
      <trkpt lat="40.2357750" lon="-3.5783190">
        <ele>523.0</ele>
        <time>2021-04-04T08:26:06Z</time>
      </trkpt>
      <trkpt lat="40.2357670" lon="-3.5782850">
        <ele>523.0</ele>
        <time>2021-04-04T08:26:07Z</time>
      </trkpt>
      <trkpt lat="40.2357640" lon="-3.5782510">
        <ele>523.0</ele>
        <time>2021-04-04T08:26:08Z</time>
      </trkpt>
      <trkpt lat="40.2357560" lon="-3.5782160">
        <ele>523.0</ele>
        <time>2021-04-04T08:26:09Z</time>
      </trkpt>
      <trkpt lat="40.2357480" lon="-3.5781800">
        <ele>523.0</ele>
        <time>2021-04-04T08:26:10Z</time>
      </trkpt>
      <trkpt lat="40.2357410" lon="-3.5781440">
        <ele>523.0</ele>
        <time>2021-04-04T08:26:11Z</time>
      </trkpt>
      <trkpt lat="40.2357330" lon="-3.5781120">
        <ele>523.0</ele>
        <time>2021-04-04T08:26:12Z</time>
      </trkpt>
      <trkpt lat="40.2357220" lon="-3.5780840">
        <ele>523.0</ele>
        <time>2021-04-04T08:26:13Z</time>
      </trkpt>
      <trkpt lat="40.2357140" lon="-3.5780620">
        <ele>523.0</ele>
        <time>2021-04-04T08:26:14Z</time>
      </trkpt>
      <trkpt lat="40.2357100" lon="-3.5780470">
        <ele>523.0</ele>
        <time>2021-04-04T08:26:15Z</time>
      </trkpt>
      <trkpt lat="40.2357060" lon="-3.5780370">
        <ele>523.0</ele>
        <time>2021-04-04T08:26:16Z</time>
      </trkpt>
      <trkpt lat="40.2356950" lon="-3.5780080">
        <ele>523.0</ele>
        <time>2021-04-04T08:26:20Z</time>
      </trkpt>
      <trkpt lat="40.2356870" lon="-3.5779890">
        <ele>523.0</ele>
        <time>2021-04-04T08:26:21Z</time>
      </trkpt>
      <trkpt lat="40.2356680" lon="-3.5779650">
        <ele>523.0</ele>
        <time>2021-04-04T08:26:22Z</time>
      </trkpt>
      <trkpt lat="40.2356530" lon="-3.5779390">
        <ele>523.0</ele>
        <time>2021-04-04T08:26:23Z</time>
      </trkpt>
      <trkpt lat="40.2356340" lon="-3.5779120">
        <ele>523.0</ele>
        <time>2021-04-04T08:26:24Z</time>
      </trkpt>
      <trkpt lat="40.2356110" lon="-3.5778880">
        <ele>523.0</ele>
        <time>2021-04-04T08:26:25Z</time>
      </trkpt>
      <trkpt lat="40.2355880" lon="-3.5778610">
        <ele>523.0</ele>
        <time>2021-04-04T08:26:26Z</time>
      </trkpt>
      <trkpt lat="40.2355650" lon="-3.5778300">
        <ele>523.0</ele>
        <time>2021-04-04T08:26:27Z</time>
      </trkpt>
      <trkpt lat="40.2355420" lon="-3.5777920">
        <ele>523.0</ele>
        <time>2021-04-04T08:26:28Z</time>
      </trkpt>
      <trkpt lat="40.2355310" lon="-3.5777490">
        <ele>523.0</ele>
        <time>2021-04-04T08:26:29Z</time>
      </trkpt>
      <trkpt lat="40.2355190" lon="-3.5777040">
        <ele>522.8</ele>
        <time>2021-04-04T08:26:30Z</time>
      </trkpt>
      <trkpt lat="40.2355160" lon="-3.5776570">
        <ele>522.8</ele>
        <time>2021-04-04T08:26:31Z</time>
      </trkpt>
      <trkpt lat="40.2355190" lon="-3.5776080">
        <ele>522.8</ele>
        <time>2021-04-04T08:26:32Z</time>
      </trkpt>
      <trkpt lat="40.2355310" lon="-3.5775630">
        <ele>522.8</ele>
        <time>2021-04-04T08:26:33Z</time>
      </trkpt>
      <trkpt lat="40.2355460" lon="-3.5775210">
        <ele>522.8</ele>
        <time>2021-04-04T08:26:34Z</time>
      </trkpt>
      <trkpt lat="40.2355690" lon="-3.5774820">
        <ele>523.0</ele>
        <time>2021-04-04T08:26:35Z</time>
      </trkpt>
      <trkpt lat="40.2355960" lon="-3.5774500">
        <ele>523.0</ele>
        <time>2021-04-04T08:26:36Z</time>
      </trkpt>
      <trkpt lat="40.2356260" lon="-3.5774220">
        <ele>523.0</ele>
        <time>2021-04-04T08:26:37Z</time>
      </trkpt>
      <trkpt lat="40.2356570" lon="-3.5773990">
        <ele>523.2</ele>
        <time>2021-04-04T08:26:38Z</time>
      </trkpt>
      <trkpt lat="40.2356870" lon="-3.5773800">
        <ele>523.2</ele>
        <time>2021-04-04T08:26:39Z</time>
      </trkpt>
      <trkpt lat="40.2357140" lon="-3.5773570">
        <ele>523.2</ele>
        <time>2021-04-04T08:26:40Z</time>
      </trkpt>
      <trkpt lat="40.2357410" lon="-3.5773300">
        <ele>523.4</ele>
        <time>2021-04-04T08:26:41Z</time>
      </trkpt>
      <trkpt lat="40.2357670" lon="-3.5773000">
        <ele>523.4</ele>
        <time>2021-04-04T08:26:42Z</time>
      </trkpt>
      <trkpt lat="40.2357940" lon="-3.5772720">
        <ele>523.4</ele>
        <time>2021-04-04T08:26:43Z</time>
      </trkpt>
      <trkpt lat="40.2358210" lon="-3.5772520">
        <ele>523.4</ele>
        <time>2021-04-04T08:26:44Z</time>
      </trkpt>
      <trkpt lat="40.2358550" lon="-3.5772410">
        <ele>523.6</ele>
        <time>2021-04-04T08:26:45Z</time>
      </trkpt>
      <trkpt lat="40.2358890" lon="-3.5772380">
        <ele>523.6</ele>
        <time>2021-04-04T08:26:46Z</time>
      </trkpt>
      <trkpt lat="40.2359240" lon="-3.5772390">
        <ele>523.8</ele>
        <time>2021-04-04T08:26:47Z</time>
      </trkpt>
      <trkpt lat="40.2359580" lon="-3.5772420">
        <ele>523.8</ele>
        <time>2021-04-04T08:26:48Z</time>
      </trkpt>
      <trkpt lat="40.2359920" lon="-3.5772460">
        <ele>524.0</ele>
        <time>2021-04-04T08:26:49Z</time>
      </trkpt>
      <trkpt lat="40.2360230" lon="-3.5772480">
        <ele>524.0</ele>
        <time>2021-04-04T08:26:50Z</time>
      </trkpt>
      <trkpt lat="40.2360570" lon="-3.5772430">
        <ele>524.2</ele>
        <time>2021-04-04T08:26:51Z</time>
      </trkpt>
      <trkpt lat="40.2360920" lon="-3.5772310">
        <ele>524.2</ele>
        <time>2021-04-04T08:26:52Z</time>
      </trkpt>
      <trkpt lat="40.2361220" lon="-3.5772130">
        <ele>524.2</ele>
        <time>2021-04-04T08:26:53Z</time>
      </trkpt>
      <trkpt lat="40.2361450" lon="-3.5771870">
        <ele>524.4</ele>
        <time>2021-04-04T08:26:54Z</time>
      </trkpt>
      <trkpt lat="40.2361680" lon="-3.5771540">
        <ele>524.4</ele>
        <time>2021-04-04T08:26:55Z</time>
      </trkpt>
      <trkpt lat="40.2361830" lon="-3.5771130">
        <ele>524.4</ele>
        <time>2021-04-04T08:26:56Z</time>
      </trkpt>
      <trkpt lat="40.2361950" lon="-3.5770700">
        <ele>524.4</ele>
        <time>2021-04-04T08:26:57Z</time>
      </trkpt>
      <trkpt lat="40.2362020" lon="-3.5770280">
        <ele>524.6</ele>
        <time>2021-04-04T08:26:58Z</time>
      </trkpt>
      <trkpt lat="40.2362100" lon="-3.5769850">
        <ele>524.6</ele>
        <time>2021-04-04T08:26:59Z</time>
      </trkpt>
      <trkpt lat="40.2362180" lon="-3.5769410">
        <ele>524.6</ele>
        <time>2021-04-04T08:27:00Z</time>
      </trkpt>
      <trkpt lat="40.2362250" lon="-3.5768990">
        <ele>524.6</ele>
        <time>2021-04-04T08:27:01Z</time>
      </trkpt>
      <trkpt lat="40.2362370" lon="-3.5768570">
        <ele>524.8</ele>
        <time>2021-04-04T08:27:02Z</time>
      </trkpt>
      <trkpt lat="40.2362440" lon="-3.5768140">
        <ele>524.8</ele>
        <time>2021-04-04T08:27:03Z</time>
      </trkpt>
      <trkpt lat="40.2362520" lon="-3.5767710">
        <ele>524.8</ele>
        <time>2021-04-04T08:27:04Z</time>
      </trkpt>
      <trkpt lat="40.2362590" lon="-3.5767260">
        <ele>524.8</ele>
        <time>2021-04-04T08:27:05Z</time>
      </trkpt>
      <trkpt lat="40.2362630" lon="-3.5766810">
        <ele>524.8</ele>
        <time>2021-04-04T08:27:06Z</time>
      </trkpt>
      <trkpt lat="40.2362710" lon="-3.5766370">
        <ele>524.8</ele>
        <time>2021-04-04T08:27:07Z</time>
      </trkpt>
      <trkpt lat="40.2362790" lon="-3.5765900">
        <ele>524.8</ele>
        <time>2021-04-04T08:27:08Z</time>
      </trkpt>
      <trkpt lat="40.2362820" lon="-3.5765440">
        <ele>524.8</ele>
        <time>2021-04-04T08:27:09Z</time>
      </trkpt>
      <trkpt lat="40.2362860" lon="-3.5764970">
        <ele>524.8</ele>
        <time>2021-04-04T08:27:10Z</time>
      </trkpt>
      <trkpt lat="40.2362940" lon="-3.5764510">
        <ele>525.0</ele>
        <time>2021-04-04T08:27:11Z</time>
      </trkpt>
      <trkpt lat="40.2363010" lon="-3.5764060">
        <ele>525.0</ele>
        <time>2021-04-04T08:27:12Z</time>
      </trkpt>
      <trkpt lat="40.2363090" lon="-3.5763620">
        <ele>525.0</ele>
        <time>2021-04-04T08:27:13Z</time>
      </trkpt>
      <trkpt lat="40.2363130" lon="-3.5763190">
        <ele>525.0</ele>
        <time>2021-04-04T08:27:14Z</time>
      </trkpt>
      <trkpt lat="40.2363170" lon="-3.5762740">
        <ele>525.2</ele>
        <time>2021-04-04T08:27:15Z</time>
      </trkpt>
      <trkpt lat="40.2363240" lon="-3.5762290">
        <ele>525.2</ele>
        <time>2021-04-04T08:27:16Z</time>
      </trkpt>
      <trkpt lat="40.2363320" lon="-3.5761840">
        <ele>525.2</ele>
        <time>2021-04-04T08:27:17Z</time>
      </trkpt>
      <trkpt lat="40.2363400" lon="-3.5761400">
        <ele>525.2</ele>
        <time>2021-04-04T08:27:18Z</time>
      </trkpt>
      <trkpt lat="40.2363470" lon="-3.5760990">
        <ele>525.4</ele>
        <time>2021-04-04T08:27:19Z</time>
      </trkpt>
      <trkpt lat="40.2363550" lon="-3.5760570">
        <ele>525.4</ele>
        <time>2021-04-04T08:27:20Z</time>
      </trkpt>
      <trkpt lat="40.2363660" lon="-3.5760150">
        <ele>525.4</ele>
        <time>2021-04-04T08:27:21Z</time>
      </trkpt>
      <trkpt lat="40.2363740" lon="-3.5759740">
        <ele>525.6</ele>
        <time>2021-04-04T08:27:22Z</time>
      </trkpt>
      <trkpt lat="40.2363850" lon="-3.5759320">
        <ele>525.6</ele>
        <time>2021-04-04T08:27:23Z</time>
      </trkpt>
      <trkpt lat="40.2363890" lon="-3.5758900">
        <ele>525.6</ele>
        <time>2021-04-04T08:27:24Z</time>
      </trkpt>
      <trkpt lat="40.2363970" lon="-3.5758490">
        <ele>525.6</ele>
        <time>2021-04-04T08:27:25Z</time>
      </trkpt>
      <trkpt lat="40.2364040" lon="-3.5758050">
        <ele>525.8</ele>
        <time>2021-04-04T08:27:26Z</time>
      </trkpt>
      <trkpt lat="40.2364120" lon="-3.5757630">
        <ele>525.8</ele>
        <time>2021-04-04T08:27:27Z</time>
      </trkpt>
      <trkpt lat="40.2364160" lon="-3.5757220">
        <ele>525.8</ele>
        <time>2021-04-04T08:27:28Z</time>
      </trkpt>
      <trkpt lat="40.2364200" lon="-3.5756830">
        <ele>526.0</ele>
        <time>2021-04-04T08:27:29Z</time>
      </trkpt>
      <trkpt lat="40.2364270" lon="-3.5756410">
        <ele>526.0</ele>
        <time>2021-04-04T08:27:30Z</time>
      </trkpt>
      <trkpt lat="40.2364430" lon="-3.5755980">
        <ele>526.0</ele>
        <time>2021-04-04T08:27:31Z</time>
      </trkpt>
      <trkpt lat="40.2364540" lon="-3.5755560">
        <ele>526.0</ele>
        <time>2021-04-04T08:27:32Z</time>
      </trkpt>
      <trkpt lat="40.2364620" lon="-3.5755120">
        <ele>526.0</ele>
        <time>2021-04-04T08:27:33Z</time>
      </trkpt>
      <trkpt lat="40.2364690" lon="-3.5754690">
        <ele>526.0</ele>
        <time>2021-04-04T08:27:34Z</time>
      </trkpt>
      <trkpt lat="40.2364810" lon="-3.5754260">
        <ele>526.2</ele>
        <time>2021-04-04T08:27:35Z</time>
      </trkpt>
      <trkpt lat="40.2364920" lon="-3.5753830">
        <ele>526.2</ele>
        <time>2021-04-04T08:27:36Z</time>
      </trkpt>
      <trkpt lat="40.2365040" lon="-3.5753420">
        <ele>526.2</ele>
        <time>2021-04-04T08:27:37Z</time>
      </trkpt>
      <trkpt lat="40.2365190" lon="-3.5753010">
        <ele>526.2</ele>
        <time>2021-04-04T08:27:38Z</time>
      </trkpt>
      <trkpt lat="40.2365380" lon="-3.5752580">
        <ele>526.4</ele>
        <time>2021-04-04T08:27:39Z</time>
      </trkpt>
      <trkpt lat="40.2365490" lon="-3.5752150">
        <ele>526.4</ele>
        <time>2021-04-04T08:27:40Z</time>
      </trkpt>
      <trkpt lat="40.2365570" lon="-3.5751730">
        <ele>526.4</ele>
        <time>2021-04-04T08:27:41Z</time>
      </trkpt>
      <trkpt lat="40.2365680" lon="-3.5751310">
        <ele>526.4</ele>
        <time>2021-04-04T08:27:42Z</time>
      </trkpt>
      <trkpt lat="40.2365800" lon="-3.5750900">
        <ele>526.4</ele>
        <time>2021-04-04T08:27:43Z</time>
      </trkpt>
      <trkpt lat="40.2365880" lon="-3.5750510">
        <ele>526.4</ele>
        <time>2021-04-04T08:27:44Z</time>
      </trkpt>
      <trkpt lat="40.2365990" lon="-3.5750070">
        <ele>526.4</ele>
        <time>2021-04-04T08:27:45Z</time>
      </trkpt>
      <trkpt lat="40.2366070" lon="-3.5749580">
        <ele>526.4</ele>
        <time>2021-04-04T08:27:46Z</time>
      </trkpt>
      <trkpt lat="40.2366140" lon="-3.5749060">
        <ele>526.4</ele>
        <time>2021-04-04T08:27:47Z</time>
      </trkpt>
      <trkpt lat="40.2366220" lon="-3.5748510">
        <ele>526.4</ele>
        <time>2021-04-04T08:27:48Z</time>
      </trkpt>
      <trkpt lat="40.2366260" lon="-3.5747940">
        <ele>526.4</ele>
        <time>2021-04-04T08:27:49Z</time>
      </trkpt>
      <trkpt lat="40.2366260" lon="-3.5747400">
        <ele>526.4</ele>
        <time>2021-04-04T08:27:50Z</time>
      </trkpt>
      <trkpt lat="40.2366330" lon="-3.5746890">
        <ele>526.4</ele>
        <time>2021-04-04T08:27:51Z</time>
      </trkpt>
      <trkpt lat="40.2366450" lon="-3.5746380">
        <ele>526.4</ele>
        <time>2021-04-04T08:27:52Z</time>
      </trkpt>
      <trkpt lat="40.2366560" lon="-3.5745860">
        <ele>526.4</ele>
        <time>2021-04-04T08:27:53Z</time>
      </trkpt>
      <trkpt lat="40.2366680" lon="-3.5745320">
        <ele>526.4</ele>
        <time>2021-04-04T08:27:54Z</time>
      </trkpt>
      <trkpt lat="40.2366790" lon="-3.5744760">
        <ele>526.4</ele>
        <time>2021-04-04T08:27:55Z</time>
      </trkpt>
      <trkpt lat="40.2366900" lon="-3.5744220">
        <ele>526.4</ele>
        <time>2021-04-04T08:27:56Z</time>
      </trkpt>
      <trkpt lat="40.2367020" lon="-3.5743710">
        <ele>526.2</ele>
        <time>2021-04-04T08:27:57Z</time>
      </trkpt>
      <trkpt lat="40.2367170" lon="-3.5743190">
        <ele>526.2</ele>
        <time>2021-04-04T08:27:58Z</time>
      </trkpt>
      <trkpt lat="40.2367320" lon="-3.5742650">
        <ele>526.2</ele>
        <time>2021-04-04T08:27:59Z</time>
      </trkpt>
      <trkpt lat="40.2367440" lon="-3.5742150">
        <ele>526.2</ele>
        <time>2021-04-04T08:28:00Z</time>
      </trkpt>
      <trkpt lat="40.2367590" lon="-3.5741630">
        <ele>526.2</ele>
        <time>2021-04-04T08:28:01Z</time>
      </trkpt>
      <trkpt lat="40.2367740" lon="-3.5741120">
        <ele>526.2</ele>
        <time>2021-04-04T08:28:02Z</time>
      </trkpt>
      <trkpt lat="40.2367900" lon="-3.5740610">
        <ele>526.2</ele>
        <time>2021-04-04T08:28:03Z</time>
      </trkpt>
      <trkpt lat="40.2368050" lon="-3.5740100">
        <ele>526.0</ele>
        <time>2021-04-04T08:28:04Z</time>
      </trkpt>
      <trkpt lat="40.2368240" lon="-3.5739600">
        <ele>526.0</ele>
        <time>2021-04-04T08:28:05Z</time>
      </trkpt>
      <trkpt lat="40.2368350" lon="-3.5739110">
        <ele>526.0</ele>
        <time>2021-04-04T08:28:06Z</time>
      </trkpt>
      <trkpt lat="40.2368510" lon="-3.5738630">
        <ele>526.0</ele>
        <time>2021-04-04T08:28:07Z</time>
      </trkpt>
      <trkpt lat="40.2368620" lon="-3.5738140">
        <ele>526.0</ele>
        <time>2021-04-04T08:28:08Z</time>
      </trkpt>
      <trkpt lat="40.2368770" lon="-3.5737630">
        <ele>526.0</ele>
        <time>2021-04-04T08:28:09Z</time>
      </trkpt>
      <trkpt lat="40.2368890" lon="-3.5737110">
        <ele>525.8</ele>
        <time>2021-04-04T08:28:10Z</time>
      </trkpt>
      <trkpt lat="40.2369000" lon="-3.5736580">
        <ele>525.8</ele>
        <time>2021-04-04T08:28:11Z</time>
      </trkpt>
      <trkpt lat="40.2369160" lon="-3.5736050">
        <ele>525.8</ele>
        <time>2021-04-04T08:28:12Z</time>
      </trkpt>
      <trkpt lat="40.2369270" lon="-3.5735530">
        <ele>525.8</ele>
        <time>2021-04-04T08:28:13Z</time>
      </trkpt>
      <trkpt lat="40.2369420" lon="-3.5735020">
        <ele>525.8</ele>
        <time>2021-04-04T08:28:14Z</time>
      </trkpt>
      <trkpt lat="40.2369540" lon="-3.5734540">
        <ele>525.6</ele>
        <time>2021-04-04T08:28:15Z</time>
      </trkpt>
      <trkpt lat="40.2369690" lon="-3.5734050">
        <ele>525.6</ele>
        <time>2021-04-04T08:28:16Z</time>
      </trkpt>
      <trkpt lat="40.2369770" lon="-3.5733530">
        <ele>525.6</ele>
        <time>2021-04-04T08:28:17Z</time>
      </trkpt>
      <trkpt lat="40.2369840" lon="-3.5733010">
        <ele>525.4</ele>
        <time>2021-04-04T08:28:18Z</time>
      </trkpt>
      <trkpt lat="40.2369960" lon="-3.5732480">
        <ele>525.4</ele>
        <time>2021-04-04T08:28:19Z</time>
      </trkpt>
      <trkpt lat="40.2370030" lon="-3.5731960">
        <ele>525.2</ele>
        <time>2021-04-04T08:28:20Z</time>
      </trkpt>
      <trkpt lat="40.2370110" lon="-3.5731430">
        <ele>525.2</ele>
        <time>2021-04-04T08:28:21Z</time>
      </trkpt>
      <trkpt lat="40.2370220" lon="-3.5730910">
        <ele>525.2</ele>
        <time>2021-04-04T08:28:22Z</time>
      </trkpt>
      <trkpt lat="40.2370340" lon="-3.5730380">
        <ele>525.0</ele>
        <time>2021-04-04T08:28:23Z</time>
      </trkpt>
      <trkpt lat="40.2370450" lon="-3.5729850">
        <ele>525.0</ele>
        <time>2021-04-04T08:28:24Z</time>
      </trkpt>
      <trkpt lat="40.2370530" lon="-3.5729290">
        <ele>525.0</ele>
        <time>2021-04-04T08:28:25Z</time>
      </trkpt>
      <trkpt lat="40.2370640" lon="-3.5728740">
        <ele>525.0</ele>
        <time>2021-04-04T08:28:26Z</time>
      </trkpt>
      <trkpt lat="40.2370830" lon="-3.5728190">
        <ele>525.0</ele>
        <time>2021-04-04T08:28:27Z</time>
      </trkpt>
      <trkpt lat="40.2370990" lon="-3.5727660">
        <ele>524.8</ele>
        <time>2021-04-04T08:28:28Z</time>
      </trkpt>
      <trkpt lat="40.2371100" lon="-3.5727120">
        <ele>524.8</ele>
        <time>2021-04-04T08:28:29Z</time>
      </trkpt>
      <trkpt lat="40.2371250" lon="-3.5726560">
        <ele>524.8</ele>
        <time>2021-04-04T08:28:30Z</time>
      </trkpt>
      <trkpt lat="40.2371410" lon="-3.5726020">
        <ele>524.8</ele>
        <time>2021-04-04T08:28:31Z</time>
      </trkpt>
      <trkpt lat="40.2371520" lon="-3.5725490">
        <ele>524.6</ele>
        <time>2021-04-04T08:28:32Z</time>
      </trkpt>
      <trkpt lat="40.2371670" lon="-3.5724970">
        <ele>524.6</ele>
        <time>2021-04-04T08:28:33Z</time>
      </trkpt>
      <trkpt lat="40.2371790" lon="-3.5724440">
        <ele>524.6</ele>
        <time>2021-04-04T08:28:34Z</time>
      </trkpt>
      <trkpt lat="40.2371940" lon="-3.5723920">
        <ele>524.4</ele>
        <time>2021-04-04T08:28:35Z</time>
      </trkpt>
      <trkpt lat="40.2372090" lon="-3.5723390">
        <ele>524.4</ele>
        <time>2021-04-04T08:28:36Z</time>
      </trkpt>
      <trkpt lat="40.2372280" lon="-3.5722860">
        <ele>524.2</ele>
        <time>2021-04-04T08:28:37Z</time>
      </trkpt>
      <trkpt lat="40.2372440" lon="-3.5722350">
        <ele>524.2</ele>
        <time>2021-04-04T08:28:38Z</time>
      </trkpt>
      <trkpt lat="40.2372630" lon="-3.5721860">
        <ele>524.0</ele>
        <time>2021-04-04T08:28:39Z</time>
      </trkpt>
      <trkpt lat="40.2372780" lon="-3.5721370">
        <ele>524.0</ele>
        <time>2021-04-04T08:28:40Z</time>
      </trkpt>
      <trkpt lat="40.2372890" lon="-3.5720870">
        <ele>523.8</ele>
        <time>2021-04-04T08:28:41Z</time>
      </trkpt>
      <trkpt lat="40.2373010" lon="-3.5720340">
        <ele>523.8</ele>
        <time>2021-04-04T08:28:42Z</time>
      </trkpt>
      <trkpt lat="40.2373120" lon="-3.5719800">
        <ele>523.6</ele>
        <time>2021-04-04T08:28:43Z</time>
      </trkpt>
      <trkpt lat="40.2373240" lon="-3.5719240">
        <ele>523.6</ele>
        <time>2021-04-04T08:28:44Z</time>
      </trkpt>
      <trkpt lat="40.2373350" lon="-3.5718690">
        <ele>523.4</ele>
        <time>2021-04-04T08:28:45Z</time>
      </trkpt>
      <trkpt lat="40.2373430" lon="-3.5718150">
        <ele>523.4</ele>
        <time>2021-04-04T08:28:46Z</time>
      </trkpt>
      <trkpt lat="40.2373500" lon="-3.5717620">
        <ele>523.2</ele>
        <time>2021-04-04T08:28:47Z</time>
      </trkpt>
      <trkpt lat="40.2373620" lon="-3.5717100">
        <ele>523.2</ele>
        <time>2021-04-04T08:28:48Z</time>
      </trkpt>
      <trkpt lat="40.2373660" lon="-3.5716590">
        <ele>523.2</ele>
        <time>2021-04-04T08:28:49Z</time>
      </trkpt>
      <trkpt lat="40.2373700" lon="-3.5716060">
        <ele>523.0</ele>
        <time>2021-04-04T08:28:50Z</time>
      </trkpt>
      <trkpt lat="40.2373700" lon="-3.5715500">
        <ele>523.0</ele>
        <time>2021-04-04T08:28:51Z</time>
      </trkpt>
      <trkpt lat="40.2373660" lon="-3.5714920">
        <ele>522.8</ele>
        <time>2021-04-04T08:28:52Z</time>
      </trkpt>
      <trkpt lat="40.2373620" lon="-3.5714340">
        <ele>522.6</ele>
        <time>2021-04-04T08:28:53Z</time>
      </trkpt>
      <trkpt lat="40.2373580" lon="-3.5713760">
        <ele>522.6</ele>
        <time>2021-04-04T08:28:54Z</time>
      </trkpt>
      <trkpt lat="40.2373500" lon="-3.5713170">
        <ele>522.4</ele>
        <time>2021-04-04T08:28:55Z</time>
      </trkpt>
      <trkpt lat="40.2373470" lon="-3.5712590">
        <ele>522.4</ele>
        <time>2021-04-04T08:28:56Z</time>
      </trkpt>
      <trkpt lat="40.2373470" lon="-3.5712020">
        <ele>522.2</ele>
        <time>2021-04-04T08:28:57Z</time>
      </trkpt>
      <trkpt lat="40.2373470" lon="-3.5711450">
        <ele>522.2</ele>
        <time>2021-04-04T08:28:58Z</time>
      </trkpt>
      <trkpt lat="40.2373430" lon="-3.5710850">
        <ele>522.0</ele>
        <time>2021-04-04T08:28:59Z</time>
      </trkpt>
      <trkpt lat="40.2373390" lon="-3.5710240">
        <ele>521.8</ele>
        <time>2021-04-04T08:29:00Z</time>
      </trkpt>
      <trkpt lat="40.2373350" lon="-3.5709630">
        <ele>521.6</ele>
        <time>2021-04-04T08:29:01Z</time>
      </trkpt>
      <trkpt lat="40.2373310" lon="-3.5709040">
        <ele>521.6</ele>
        <time>2021-04-04T08:29:02Z</time>
      </trkpt>
      <trkpt lat="40.2373240" lon="-3.5708450">
        <ele>521.4</ele>
        <time>2021-04-04T08:29:03Z</time>
      </trkpt>
      <trkpt lat="40.2373160" lon="-3.5707880">
        <ele>521.2</ele>
        <time>2021-04-04T08:29:04Z</time>
      </trkpt>
      <trkpt lat="40.2373120" lon="-3.5707300">
        <ele>521.2</ele>
        <time>2021-04-04T08:29:05Z</time>
      </trkpt>
      <trkpt lat="40.2373050" lon="-3.5706710">
        <ele>521.2</ele>
        <time>2021-04-04T08:29:06Z</time>
      </trkpt>
      <trkpt lat="40.2372930" lon="-3.5706090">
        <ele>521.0</ele>
        <time>2021-04-04T08:29:07Z</time>
      </trkpt>
      <trkpt lat="40.2372820" lon="-3.5705480">
        <ele>521.0</ele>
        <time>2021-04-04T08:29:08Z</time>
      </trkpt>
      <trkpt lat="40.2372700" lon="-3.5704870">
        <ele>520.8</ele>
        <time>2021-04-04T08:29:09Z</time>
      </trkpt>
      <trkpt lat="40.2372590" lon="-3.5704270">
        <ele>520.8</ele>
        <time>2021-04-04T08:29:10Z</time>
      </trkpt>
      <trkpt lat="40.2372440" lon="-3.5703670">
        <ele>520.6</ele>
        <time>2021-04-04T08:29:11Z</time>
      </trkpt>
      <trkpt lat="40.2372320" lon="-3.5703080">
        <ele>520.6</ele>
        <time>2021-04-04T08:29:12Z</time>
      </trkpt>
      <trkpt lat="40.2372210" lon="-3.5702500">
        <ele>520.6</ele>
        <time>2021-04-04T08:29:13Z</time>
      </trkpt>
      <trkpt lat="40.2372050" lon="-3.5701920">
        <ele>520.4</ele>
        <time>2021-04-04T08:29:14Z</time>
      </trkpt>
      <trkpt lat="40.2371940" lon="-3.5701350">
        <ele>520.4</ele>
        <time>2021-04-04T08:29:15Z</time>
      </trkpt>
      <trkpt lat="40.2371790" lon="-3.5700800">
        <ele>520.4</ele>
        <time>2021-04-04T08:29:16Z</time>
      </trkpt>
      <trkpt lat="40.2371670" lon="-3.5700240">
        <ele>520.4</ele>
        <time>2021-04-04T08:29:17Z</time>
      </trkpt>
      <trkpt lat="40.2371560" lon="-3.5699720">
        <ele>520.2</ele>
        <time>2021-04-04T08:29:18Z</time>
      </trkpt>
      <trkpt lat="40.2371410" lon="-3.5699190">
        <ele>520.2</ele>
        <time>2021-04-04T08:29:19Z</time>
      </trkpt>
      <trkpt lat="40.2371250" lon="-3.5698640">
        <ele>520.2</ele>
        <time>2021-04-04T08:29:20Z</time>
      </trkpt>
      <trkpt lat="40.2371140" lon="-3.5698090">
        <ele>520.0</ele>
        <time>2021-04-04T08:29:21Z</time>
      </trkpt>
      <trkpt lat="40.2371030" lon="-3.5697550">
        <ele>520.0</ele>
        <time>2021-04-04T08:29:22Z</time>
      </trkpt>
      <trkpt lat="40.2370910" lon="-3.5697000">
        <ele>519.8</ele>
        <time>2021-04-04T08:29:23Z</time>
      </trkpt>
      <trkpt lat="40.2370760" lon="-3.5696440">
        <ele>519.8</ele>
        <time>2021-04-04T08:29:24Z</time>
      </trkpt>
      <trkpt lat="40.2370640" lon="-3.5695870">
        <ele>519.6</ele>
        <time>2021-04-04T08:29:25Z</time>
      </trkpt>
      <trkpt lat="40.2370490" lon="-3.5695290">
        <ele>519.6</ele>
        <time>2021-04-04T08:29:26Z</time>
      </trkpt>
      <trkpt lat="40.2370380" lon="-3.5694690">
        <ele>519.4</ele>
        <time>2021-04-04T08:29:27Z</time>
      </trkpt>
      <trkpt lat="40.2370260" lon="-3.5694090">
        <ele>519.4</ele>
        <time>2021-04-04T08:29:28Z</time>
      </trkpt>
      <trkpt lat="40.2370110" lon="-3.5693460">
        <ele>519.2</ele>
        <time>2021-04-04T08:29:29Z</time>
      </trkpt>
      <trkpt lat="40.2370000" lon="-3.5692850">
        <ele>519.2</ele>
        <time>2021-04-04T08:29:30Z</time>
      </trkpt>
      <trkpt lat="40.2369880" lon="-3.5692230">
        <ele>519.2</ele>
        <time>2021-04-04T08:29:31Z</time>
      </trkpt>
      <trkpt lat="40.2369730" lon="-3.5691570">
        <ele>519.0</ele>
        <time>2021-04-04T08:29:32Z</time>
      </trkpt>
      <trkpt lat="40.2369610" lon="-3.5690950">
        <ele>519.0</ele>
        <time>2021-04-04T08:29:33Z</time>
      </trkpt>
      <trkpt lat="40.2369500" lon="-3.5690380">
        <ele>519.0</ele>
        <time>2021-04-04T08:29:34Z</time>
      </trkpt>
      <trkpt lat="40.2369350" lon="-3.5689770">
        <ele>518.8</ele>
        <time>2021-04-04T08:29:35Z</time>
      </trkpt>
      <trkpt lat="40.2369160" lon="-3.5689070">
        <ele>518.8</ele>
        <time>2021-04-04T08:29:36Z</time>
      </trkpt>
      <trkpt lat="40.2369040" lon="-3.5688460">
        <ele>518.8</ele>
        <time>2021-04-04T08:29:37Z</time>
      </trkpt>
      <trkpt lat="40.2368930" lon="-3.5687850">
        <ele>518.8</ele>
        <time>2021-04-04T08:29:38Z</time>
      </trkpt>
      <trkpt lat="40.2368810" lon="-3.5687250">
        <ele>518.6</ele>
        <time>2021-04-04T08:29:39Z</time>
      </trkpt>
      <trkpt lat="40.2368700" lon="-3.5686650">
        <ele>518.6</ele>
        <time>2021-04-04T08:29:40Z</time>
      </trkpt>
      <trkpt lat="40.2368580" lon="-3.5686050">
        <ele>518.4</ele>
        <time>2021-04-04T08:29:41Z</time>
      </trkpt>
      <trkpt lat="40.2368470" lon="-3.5685450">
        <ele>518.4</ele>
        <time>2021-04-04T08:29:42Z</time>
      </trkpt>
      <trkpt lat="40.2368390" lon="-3.5684850">
        <ele>518.4</ele>
        <time>2021-04-04T08:29:43Z</time>
      </trkpt>
      <trkpt lat="40.2368240" lon="-3.5684240">
        <ele>518.2</ele>
        <time>2021-04-04T08:29:44Z</time>
      </trkpt>
      <trkpt lat="40.2368130" lon="-3.5683660">
        <ele>518.2</ele>
        <time>2021-04-04T08:29:45Z</time>
      </trkpt>
      <trkpt lat="40.2368010" lon="-3.5683070">
        <ele>518.2</ele>
        <time>2021-04-04T08:29:46Z</time>
      </trkpt>
      <trkpt lat="40.2367900" lon="-3.5682490">
        <ele>518.0</ele>
        <time>2021-04-04T08:29:47Z</time>
      </trkpt>
      <trkpt lat="40.2367780" lon="-3.5681930">
        <ele>518.0</ele>
        <time>2021-04-04T08:29:48Z</time>
      </trkpt>
      <trkpt lat="40.2367670" lon="-3.5681400">
        <ele>518.0</ele>
        <time>2021-04-04T08:29:49Z</time>
      </trkpt>
      <trkpt lat="40.2367590" lon="-3.5680860">
        <ele>517.8</ele>
        <time>2021-04-04T08:29:50Z</time>
      </trkpt>
      <trkpt lat="40.2367520" lon="-3.5680330">
        <ele>517.8</ele>
        <time>2021-04-04T08:29:51Z</time>
      </trkpt>
      <trkpt lat="40.2367440" lon="-3.5679820">
        <ele>517.8</ele>
        <time>2021-04-04T08:29:52Z</time>
      </trkpt>
      <trkpt lat="40.2367360" lon="-3.5679340">
        <ele>517.6</ele>
        <time>2021-04-04T08:29:53Z</time>
      </trkpt>
      <trkpt lat="40.2367290" lon="-3.5678850">
        <ele>517.6</ele>
        <time>2021-04-04T08:29:54Z</time>
      </trkpt>
      <trkpt lat="40.2367210" lon="-3.5678360">
        <ele>517.6</ele>
        <time>2021-04-04T08:29:55Z</time>
      </trkpt>
      <trkpt lat="40.2367100" lon="-3.5677850">
        <ele>517.6</ele>
        <time>2021-04-04T08:29:56Z</time>
      </trkpt>
      <trkpt lat="40.2366940" lon="-3.5677330">
        <ele>517.6</ele>
        <time>2021-04-04T08:29:57Z</time>
      </trkpt>
      <trkpt lat="40.2366830" lon="-3.5676810">
        <ele>517.4</ele>
        <time>2021-04-04T08:29:58Z</time>
      </trkpt>
      <trkpt lat="40.2366680" lon="-3.5676300">
        <ele>517.4</ele>
        <time>2021-04-04T08:29:59Z</time>
      </trkpt>
      <trkpt lat="40.2366560" lon="-3.5675770">
        <ele>517.4</ele>
        <time>2021-04-04T08:30:00Z</time>
      </trkpt>
      <trkpt lat="40.2366450" lon="-3.5675250">
        <ele>517.4</ele>
        <time>2021-04-04T08:30:01Z</time>
      </trkpt>
      <trkpt lat="40.2366330" lon="-3.5674760">
        <ele>517.4</ele>
        <time>2021-04-04T08:30:02Z</time>
      </trkpt>
      <trkpt lat="40.2366220" lon="-3.5674260">
        <ele>517.4</ele>
        <time>2021-04-04T08:30:03Z</time>
      </trkpt>
      <trkpt lat="40.2366140" lon="-3.5673760">
        <ele>517.4</ele>
        <time>2021-04-04T08:30:04Z</time>
      </trkpt>
      <trkpt lat="40.2366070" lon="-3.5673240">
        <ele>517.4</ele>
        <time>2021-04-04T08:30:05Z</time>
      </trkpt>
      <trkpt lat="40.2365990" lon="-3.5672710">
        <ele>517.4</ele>
        <time>2021-04-04T08:30:06Z</time>
      </trkpt>
      <trkpt lat="40.2365840" lon="-3.5672160">
        <ele>517.4</ele>
        <time>2021-04-04T08:30:07Z</time>
      </trkpt>
      <trkpt lat="40.2365610" lon="-3.5671610">
        <ele>517.4</ele>
        <time>2021-04-04T08:30:08Z</time>
      </trkpt>
      <trkpt lat="40.2365460" lon="-3.5671080">
        <ele>517.4</ele>
        <time>2021-04-04T08:30:09Z</time>
      </trkpt>
      <trkpt lat="40.2365340" lon="-3.5670570">
        <ele>517.4</ele>
        <time>2021-04-04T08:30:10Z</time>
      </trkpt>
      <trkpt lat="40.2365190" lon="-3.5670060">
        <ele>517.4</ele>
        <time>2021-04-04T08:30:11Z</time>
      </trkpt>
      <trkpt lat="40.2365040" lon="-3.5669530">
        <ele>517.4</ele>
        <time>2021-04-04T08:30:12Z</time>
      </trkpt>
      <trkpt lat="40.2364880" lon="-3.5669010">
        <ele>517.4</ele>
        <time>2021-04-04T08:30:13Z</time>
      </trkpt>
      <trkpt lat="40.2364810" lon="-3.5668470">
        <ele>517.2</ele>
        <time>2021-04-04T08:30:14Z</time>
      </trkpt>
      <trkpt lat="40.2364730" lon="-3.5667920">
        <ele>517.2</ele>
        <time>2021-04-04T08:30:15Z</time>
      </trkpt>
      <trkpt lat="40.2364650" lon="-3.5667380">
        <ele>517.4</ele>
        <time>2021-04-04T08:30:16Z</time>
      </trkpt>
      <trkpt lat="40.2364540" lon="-3.5666850">
        <ele>517.4</ele>
        <time>2021-04-04T08:30:17Z</time>
      </trkpt>
      <trkpt lat="40.2364430" lon="-3.5666330">
        <ele>517.4</ele>
        <time>2021-04-04T08:30:18Z</time>
      </trkpt>
      <trkpt lat="40.2364270" lon="-3.5665790">
        <ele>517.4</ele>
        <time>2021-04-04T08:30:19Z</time>
      </trkpt>
      <trkpt lat="40.2364120" lon="-3.5665270">
        <ele>517.4</ele>
        <time>2021-04-04T08:30:20Z</time>
      </trkpt>
      <trkpt lat="40.2364010" lon="-3.5664730">
        <ele>517.4</ele>
        <time>2021-04-04T08:30:21Z</time>
      </trkpt>
      <trkpt lat="40.2363820" lon="-3.5664190">
        <ele>517.2</ele>
        <time>2021-04-04T08:30:22Z</time>
      </trkpt>
      <trkpt lat="40.2363660" lon="-3.5663640">
        <ele>517.2</ele>
        <time>2021-04-04T08:30:23Z</time>
      </trkpt>
      <trkpt lat="40.2363550" lon="-3.5663090">
        <ele>517.2</ele>
        <time>2021-04-04T08:30:24Z</time>
      </trkpt>
      <trkpt lat="40.2363400" lon="-3.5662540">
        <ele>517.2</ele>
        <time>2021-04-04T08:30:25Z</time>
      </trkpt>
      <trkpt lat="40.2363280" lon="-3.5662000">
        <ele>517.0</ele>
        <time>2021-04-04T08:30:26Z</time>
      </trkpt>
      <trkpt lat="40.2363170" lon="-3.5661460">
        <ele>517.0</ele>
        <time>2021-04-04T08:30:27Z</time>
      </trkpt>
      <trkpt lat="40.2363050" lon="-3.5660900">
        <ele>517.0</ele>
        <time>2021-04-04T08:30:28Z</time>
      </trkpt>
      <trkpt lat="40.2362900" lon="-3.5660360">
        <ele>517.0</ele>
        <time>2021-04-04T08:30:29Z</time>
      </trkpt>
      <trkpt lat="40.2362790" lon="-3.5659800">
        <ele>517.0</ele>
        <time>2021-04-04T08:30:30Z</time>
      </trkpt>
      <trkpt lat="40.2362670" lon="-3.5659230">
        <ele>517.0</ele>
        <time>2021-04-04T08:30:31Z</time>
      </trkpt>
      <trkpt lat="40.2362520" lon="-3.5658630">
        <ele>517.0</ele>
        <time>2021-04-04T08:30:32Z</time>
      </trkpt>
      <trkpt lat="40.2362400" lon="-3.5658050">
        <ele>517.0</ele>
        <time>2021-04-04T08:30:33Z</time>
      </trkpt>
      <trkpt lat="40.2362290" lon="-3.5657450">
        <ele>516.8</ele>
        <time>2021-04-04T08:30:34Z</time>
      </trkpt>
      <trkpt lat="40.2362180" lon="-3.5656860">
        <ele>516.8</ele>
        <time>2021-04-04T08:30:35Z</time>
      </trkpt>
      <trkpt lat="40.2362060" lon="-3.5656260">
        <ele>516.8</ele>
        <time>2021-04-04T08:30:36Z</time>
      </trkpt>
      <trkpt lat="40.2361910" lon="-3.5655660">
        <ele>516.8</ele>
        <time>2021-04-04T08:30:37Z</time>
      </trkpt>
      <trkpt lat="40.2361760" lon="-3.5655070">
        <ele>516.6</ele>
        <time>2021-04-04T08:30:38Z</time>
      </trkpt>
      <trkpt lat="40.2361640" lon="-3.5654500">
        <ele>516.4</ele>
        <time>2021-04-04T08:30:39Z</time>
      </trkpt>
      <trkpt lat="40.2361530" lon="-3.5653920">
        <ele>516.4</ele>
        <time>2021-04-04T08:30:40Z</time>
      </trkpt>
      <trkpt lat="40.2361410" lon="-3.5653350">
        <ele>516.2</ele>
        <time>2021-04-04T08:30:41Z</time>
      </trkpt>
      <trkpt lat="40.2361260" lon="-3.5652770">
        <ele>516.2</ele>
        <time>2021-04-04T08:30:42Z</time>
      </trkpt>
      <trkpt lat="40.2361110" lon="-3.5652170">
        <ele>516.2</ele>
        <time>2021-04-04T08:30:43Z</time>
      </trkpt>
      <trkpt lat="40.2360990" lon="-3.5651570">
        <ele>516.2</ele>
        <time>2021-04-04T08:30:44Z</time>
      </trkpt>
      <trkpt lat="40.2360840" lon="-3.5650940">
        <ele>516.2</ele>
        <time>2021-04-04T08:30:45Z</time>
      </trkpt>
      <trkpt lat="40.2360730" lon="-3.5650310">
        <ele>516.2</ele>
        <time>2021-04-04T08:30:46Z</time>
      </trkpt>
      <trkpt lat="40.2360570" lon="-3.5649670">
        <ele>516.2</ele>
        <time>2021-04-04T08:30:47Z</time>
      </trkpt>
      <trkpt lat="40.2360420" lon="-3.5649020">
        <ele>516.4</ele>
        <time>2021-04-04T08:30:48Z</time>
      </trkpt>
      <trkpt lat="40.2360230" lon="-3.5648380">
        <ele>516.2</ele>
        <time>2021-04-04T08:30:49Z</time>
      </trkpt>
      <trkpt lat="40.2360080" lon="-3.5647730">
        <ele>516.2</ele>
        <time>2021-04-04T08:30:50Z</time>
      </trkpt>
      <trkpt lat="40.2359920" lon="-3.5647080">
        <ele>516.0</ele>
        <time>2021-04-04T08:30:51Z</time>
      </trkpt>
      <trkpt lat="40.2359770" lon="-3.5646420">
        <ele>516.0</ele>
        <time>2021-04-04T08:30:52Z</time>
      </trkpt>
      <trkpt lat="40.2359620" lon="-3.5645760">
        <ele>516.2</ele>
        <time>2021-04-04T08:30:53Z</time>
      </trkpt>
      <trkpt lat="40.2359470" lon="-3.5645120">
        <ele>516.2</ele>
        <time>2021-04-04T08:30:54Z</time>
      </trkpt>
      <trkpt lat="40.2359310" lon="-3.5644460">
        <ele>516.2</ele>
        <time>2021-04-04T08:30:55Z</time>
      </trkpt>
      <trkpt lat="40.2359160" lon="-3.5643790">
        <ele>516.2</ele>
        <time>2021-04-04T08:30:56Z</time>
      </trkpt>
      <trkpt lat="40.2359050" lon="-3.5643110">
        <ele>516.2</ele>
        <time>2021-04-04T08:30:57Z</time>
      </trkpt>
      <trkpt lat="40.2358860" lon="-3.5642390">
        <ele>516.0</ele>
        <time>2021-04-04T08:30:58Z</time>
      </trkpt>
      <trkpt lat="40.2358700" lon="-3.5641670">
        <ele>516.0</ele>
        <time>2021-04-04T08:30:59Z</time>
      </trkpt>
      <trkpt lat="40.2358510" lon="-3.5640950">
        <ele>516.0</ele>
        <time>2021-04-04T08:31:00Z</time>
      </trkpt>
      <trkpt lat="40.2358320" lon="-3.5640230">
        <ele>516.0</ele>
        <time>2021-04-04T08:31:01Z</time>
      </trkpt>
      <trkpt lat="40.2358210" lon="-3.5639490">
        <ele>515.8</ele>
        <time>2021-04-04T08:31:02Z</time>
      </trkpt>
      <trkpt lat="40.2358020" lon="-3.5638730">
        <ele>515.8</ele>
        <time>2021-04-04T08:31:03Z</time>
      </trkpt>
      <trkpt lat="40.2357860" lon="-3.5637990">
        <ele>515.6</ele>
        <time>2021-04-04T08:31:04Z</time>
      </trkpt>
      <trkpt lat="40.2357670" lon="-3.5637230">
        <ele>515.6</ele>
        <time>2021-04-04T08:31:05Z</time>
      </trkpt>
      <trkpt lat="40.2357480" lon="-3.5636480">
        <ele>515.6</ele>
        <time>2021-04-04T08:31:06Z</time>
      </trkpt>
      <trkpt lat="40.2357290" lon="-3.5635720">
        <ele>515.4</ele>
        <time>2021-04-04T08:31:07Z</time>
      </trkpt>
      <trkpt lat="40.2357060" lon="-3.5634950">
        <ele>515.4</ele>
        <time>2021-04-04T08:31:08Z</time>
      </trkpt>
      <trkpt lat="40.2356870" lon="-3.5634160">
        <ele>515.4</ele>
        <time>2021-04-04T08:31:09Z</time>
      </trkpt>
      <trkpt lat="40.2356680" lon="-3.5633360">
        <ele>515.2</ele>
        <time>2021-04-04T08:31:10Z</time>
      </trkpt>
      <trkpt lat="40.2356610" lon="-3.5632500">
        <ele>515.2</ele>
        <time>2021-04-04T08:31:11Z</time>
      </trkpt>
      <trkpt lat="40.2356570" lon="-3.5631590">
        <ele>515.2</ele>
        <time>2021-04-04T08:31:12Z</time>
      </trkpt>
      <trkpt lat="40.2356450" lon="-3.5630650">
        <ele>515.0</ele>
        <time>2021-04-04T08:31:13Z</time>
      </trkpt>
      <trkpt lat="40.2356300" lon="-3.5629690">
        <ele>514.8</ele>
        <time>2021-04-04T08:31:14Z</time>
      </trkpt>
      <trkpt lat="40.2356070" lon="-3.5628710">
        <ele>514.8</ele>
        <time>2021-04-04T08:31:15Z</time>
      </trkpt>
      <trkpt lat="40.2355800" lon="-3.5627690">
        <ele>514.8</ele>
        <time>2021-04-04T08:31:16Z</time>
      </trkpt>
      <trkpt lat="40.2355540" lon="-3.5626660">
        <ele>514.6</ele>
        <time>2021-04-04T08:31:17Z</time>
      </trkpt>
      <trkpt lat="40.2355310" lon="-3.5625640">
        <ele>514.6</ele>
        <time>2021-04-04T08:31:18Z</time>
      </trkpt>
      <trkpt lat="40.2355040" lon="-3.5624640">
        <ele>514.4</ele>
        <time>2021-04-04T08:31:19Z</time>
      </trkpt>
      <trkpt lat="40.2354810" lon="-3.5623650">
        <ele>514.2</ele>
        <time>2021-04-04T08:31:20Z</time>
      </trkpt>
      <trkpt lat="40.2354620" lon="-3.5622650">
        <ele>514.0</ele>
        <time>2021-04-04T08:31:21Z</time>
      </trkpt>
      <trkpt lat="40.2354390" lon="-3.5621610">
        <ele>513.8</ele>
        <time>2021-04-04T08:31:22Z</time>
      </trkpt>
      <trkpt lat="40.2354130" lon="-3.5620560">
        <ele>513.4</ele>
        <time>2021-04-04T08:31:23Z</time>
      </trkpt>
      <trkpt lat="40.2353860" lon="-3.5619500">
        <ele>513.4</ele>
        <time>2021-04-04T08:31:24Z</time>
      </trkpt>
      <trkpt lat="40.2353590" lon="-3.5618440">
        <ele>513.2</ele>
        <time>2021-04-04T08:31:25Z</time>
      </trkpt>
      <trkpt lat="40.2353290" lon="-3.5617400">
        <ele>513.0</ele>
        <time>2021-04-04T08:31:26Z</time>
      </trkpt>
      <trkpt lat="40.2352980" lon="-3.5616400">
        <ele>512.8</ele>
        <time>2021-04-04T08:31:27Z</time>
      </trkpt>
      <trkpt lat="40.2352710" lon="-3.5615420">
        <ele>512.8</ele>
        <time>2021-04-04T08:31:28Z</time>
      </trkpt>
      <trkpt lat="40.2352490" lon="-3.5614460">
        <ele>512.8</ele>
        <time>2021-04-04T08:31:29Z</time>
      </trkpt>
      <trkpt lat="40.2352260" lon="-3.5613500">
        <ele>512.6</ele>
        <time>2021-04-04T08:31:30Z</time>
      </trkpt>
      <trkpt lat="40.2351990" lon="-3.5612730">
        <ele>512.6</ele>
        <time>2021-04-04T08:31:31Z</time>
      </trkpt>
      <trkpt lat="40.2351760" lon="-3.5612160">
        <ele>512.6</ele>
        <time>2021-04-04T08:31:32Z</time>
      </trkpt>
      <trkpt lat="40.2351530" lon="-3.5611730">
        <ele>512.8</ele>
        <time>2021-04-04T08:31:33Z</time>
      </trkpt>
      <trkpt lat="40.2351300" lon="-3.5611300">
        <ele>512.6</ele>
        <time>2021-04-04T08:31:34Z</time>
      </trkpt>
      <trkpt lat="40.2351070" lon="-3.5610800">
        <ele>512.6</ele>
        <time>2021-04-04T08:31:35Z</time>
      </trkpt>
      <trkpt lat="40.2350850" lon="-3.5610220">
        <ele>512.2</ele>
        <time>2021-04-04T08:31:36Z</time>
      </trkpt>
      <trkpt lat="40.2350580" lon="-3.5609570">
        <ele>511.8</ele>
        <time>2021-04-04T08:31:37Z</time>
      </trkpt>
      <trkpt lat="40.2350350" lon="-3.5608850">
        <ele>511.4</ele>
        <time>2021-04-04T08:31:38Z</time>
      </trkpt>
      <trkpt lat="40.2350160" lon="-3.5608030">
        <ele>511.0</ele>
        <time>2021-04-04T08:31:39Z</time>
      </trkpt>
      <trkpt lat="40.2350010" lon="-3.5607200">
        <ele>510.6</ele>
        <time>2021-04-04T08:31:40Z</time>
      </trkpt>
      <trkpt lat="40.2349850" lon="-3.5606340">
        <ele>510.4</ele>
        <time>2021-04-04T08:31:41Z</time>
      </trkpt>
      <trkpt lat="40.2349700" lon="-3.5605420">
        <ele>510.0</ele>
        <time>2021-04-04T08:31:42Z</time>
      </trkpt>
      <trkpt lat="40.2349590" lon="-3.5604460">
        <ele>509.6</ele>
        <time>2021-04-04T08:31:43Z</time>
      </trkpt>
      <trkpt lat="40.2349430" lon="-3.5603470">
        <ele>509.4</ele>
        <time>2021-04-04T08:31:44Z</time>
      </trkpt>
      <trkpt lat="40.2349320" lon="-3.5602450">
        <ele>509.2</ele>
        <time>2021-04-04T08:31:45Z</time>
      </trkpt>
      <trkpt lat="40.2349170" lon="-3.5601420">
        <ele>508.8</ele>
        <time>2021-04-04T08:31:46Z</time>
      </trkpt>
      <trkpt lat="40.2349010" lon="-3.5600360">
        <ele>508.6</ele>
        <time>2021-04-04T08:31:47Z</time>
      </trkpt>
      <trkpt lat="40.2348860" lon="-3.5599280">
        <ele>508.4</ele>
        <time>2021-04-04T08:31:48Z</time>
      </trkpt>
      <trkpt lat="40.2348750" lon="-3.5598180">
        <ele>508.4</ele>
        <time>2021-04-04T08:31:49Z</time>
      </trkpt>
      <trkpt lat="40.2348590" lon="-3.5597080">
        <ele>508.4</ele>
        <time>2021-04-04T08:31:50Z</time>
      </trkpt>
      <trkpt lat="40.2348480" lon="-3.5595990">
        <ele>508.2</ele>
        <time>2021-04-04T08:31:51Z</time>
      </trkpt>
      <trkpt lat="40.2348330" lon="-3.5594900">
        <ele>508.2</ele>
        <time>2021-04-04T08:31:52Z</time>
      </trkpt>
      <trkpt lat="40.2348210" lon="-3.5593850">
        <ele>508.0</ele>
        <time>2021-04-04T08:31:53Z</time>
      </trkpt>
      <trkpt lat="40.2348020" lon="-3.5592780">
        <ele>508.0</ele>
        <time>2021-04-04T08:31:54Z</time>
      </trkpt>
      <trkpt lat="40.2347830" lon="-3.5591710">
        <ele>508.0</ele>
        <time>2021-04-04T08:31:55Z</time>
      </trkpt>
      <trkpt lat="40.2347640" lon="-3.5590650">
        <ele>508.0</ele>
        <time>2021-04-04T08:31:56Z</time>
      </trkpt>
      <trkpt lat="40.2347530" lon="-3.5589590">
        <ele>508.0</ele>
        <time>2021-04-04T08:31:57Z</time>
      </trkpt>
      <trkpt lat="40.2347370" lon="-3.5588550">
        <ele>508.0</ele>
        <time>2021-04-04T08:31:58Z</time>
      </trkpt>
      <trkpt lat="40.2347260" lon="-3.5587510">
        <ele>508.0</ele>
        <time>2021-04-04T08:31:59Z</time>
      </trkpt>
      <trkpt lat="40.2347070" lon="-3.5586450">
        <ele>508.0</ele>
        <time>2021-04-04T08:32:00Z</time>
      </trkpt>
      <trkpt lat="40.2346920" lon="-3.5585400">
        <ele>508.0</ele>
        <time>2021-04-04T08:32:01Z</time>
      </trkpt>
      <trkpt lat="40.2346800" lon="-3.5584320">
        <ele>508.0</ele>
        <time>2021-04-04T08:32:02Z</time>
      </trkpt>
      <trkpt lat="40.2346730" lon="-3.5583260">
        <ele>508.2</ele>
        <time>2021-04-04T08:32:03Z</time>
      </trkpt>
      <trkpt lat="40.2346650" lon="-3.5582220">
        <ele>508.2</ele>
        <time>2021-04-04T08:32:04Z</time>
      </trkpt>
      <trkpt lat="40.2346610" lon="-3.5581190">
        <ele>508.2</ele>
        <time>2021-04-04T08:32:05Z</time>
      </trkpt>
      <trkpt lat="40.2346570" lon="-3.5580180">
        <ele>508.2</ele>
        <time>2021-04-04T08:32:06Z</time>
      </trkpt>
      <trkpt lat="40.2346500" lon="-3.5579190">
        <ele>508.2</ele>
        <time>2021-04-04T08:32:07Z</time>
      </trkpt>
      <trkpt lat="40.2346460" lon="-3.5578210">
        <ele>508.0</ele>
        <time>2021-04-04T08:32:08Z</time>
      </trkpt>
      <trkpt lat="40.2346460" lon="-3.5577240">
        <ele>508.0</ele>
        <time>2021-04-04T08:32:09Z</time>
      </trkpt>
      <trkpt lat="40.2346420" lon="-3.5576280">
        <ele>508.0</ele>
        <time>2021-04-04T08:32:10Z</time>
      </trkpt>
      <trkpt lat="40.2346380" lon="-3.5575290">
        <ele>507.8</ele>
        <time>2021-04-04T08:32:11Z</time>
      </trkpt>
      <trkpt lat="40.2346310" lon="-3.5574350">
        <ele>507.8</ele>
        <time>2021-04-04T08:32:12Z</time>
      </trkpt>
      <trkpt lat="40.2346270" lon="-3.5573410">
        <ele>507.8</ele>
        <time>2021-04-04T08:32:13Z</time>
      </trkpt>
      <trkpt lat="40.2346190" lon="-3.5572460">
        <ele>507.8</ele>
        <time>2021-04-04T08:32:14Z</time>
      </trkpt>
      <trkpt lat="40.2346150" lon="-3.5571510">
        <ele>507.6</ele>
        <time>2021-04-04T08:32:15Z</time>
      </trkpt>
      <trkpt lat="40.2346120" lon="-3.5570520">
        <ele>507.6</ele>
        <time>2021-04-04T08:32:16Z</time>
      </trkpt>
      <trkpt lat="40.2346040" lon="-3.5569550">
        <ele>507.6</ele>
        <time>2021-04-04T08:32:17Z</time>
      </trkpt>
      <trkpt lat="40.2345960" lon="-3.5568610">
        <ele>507.6</ele>
        <time>2021-04-04T08:32:18Z</time>
      </trkpt>
      <trkpt lat="40.2345890" lon="-3.5567710">
        <ele>507.6</ele>
        <time>2021-04-04T08:32:19Z</time>
      </trkpt>
      <trkpt lat="40.2345810" lon="-3.5566820">
        <ele>507.4</ele>
        <time>2021-04-04T08:32:20Z</time>
      </trkpt>
      <trkpt lat="40.2345700" lon="-3.5565910">
        <ele>507.6</ele>
        <time>2021-04-04T08:32:21Z</time>
      </trkpt>
      <trkpt lat="40.2345580" lon="-3.5565020">
        <ele>507.4</ele>
        <time>2021-04-04T08:32:22Z</time>
      </trkpt>
      <trkpt lat="40.2345510" lon="-3.5564120">
        <ele>507.4</ele>
        <time>2021-04-04T08:32:23Z</time>
      </trkpt>
      <trkpt lat="40.2345430" lon="-3.5563230">
        <ele>507.4</ele>
        <time>2021-04-04T08:32:24Z</time>
      </trkpt>
      <trkpt lat="40.2345350" lon="-3.5562350">
        <ele>507.4</ele>
        <time>2021-04-04T08:32:25Z</time>
      </trkpt>
      <trkpt lat="40.2345280" lon="-3.5561480">
        <ele>507.4</ele>
        <time>2021-04-04T08:32:26Z</time>
      </trkpt>
      <trkpt lat="40.2345160" lon="-3.5560610">
        <ele>507.4</ele>
        <time>2021-04-04T08:32:27Z</time>
      </trkpt>
      <trkpt lat="40.2345090" lon="-3.5559750">
        <ele>507.4</ele>
        <time>2021-04-04T08:32:28Z</time>
      </trkpt>
      <trkpt lat="40.2345010" lon="-3.5558880">
        <ele>507.4</ele>
        <time>2021-04-04T08:32:29Z</time>
      </trkpt>
      <trkpt lat="40.2344930" lon="-3.5558010">
        <ele>507.4</ele>
        <time>2021-04-04T08:32:30Z</time>
      </trkpt>
      <trkpt lat="40.2344860" lon="-3.5557160">
        <ele>507.4</ele>
        <time>2021-04-04T08:32:31Z</time>
      </trkpt>
      <trkpt lat="40.2344820" lon="-3.5556310">
        <ele>507.4</ele>
        <time>2021-04-04T08:32:32Z</time>
      </trkpt>
      <trkpt lat="40.2344780" lon="-3.5555460">
        <ele>507.4</ele>
        <time>2021-04-04T08:32:33Z</time>
      </trkpt>
      <trkpt lat="40.2344700" lon="-3.5554620">
        <ele>507.4</ele>
        <time>2021-04-04T08:32:34Z</time>
      </trkpt>
      <trkpt lat="40.2344670" lon="-3.5553790">
        <ele>507.4</ele>
        <time>2021-04-04T08:32:35Z</time>
      </trkpt>
      <trkpt lat="40.2344630" lon="-3.5552950">
        <ele>507.4</ele>
        <time>2021-04-04T08:32:36Z</time>
      </trkpt>
      <trkpt lat="40.2344630" lon="-3.5552100">
        <ele>507.4</ele>
        <time>2021-04-04T08:32:37Z</time>
      </trkpt>
      <trkpt lat="40.2344740" lon="-3.5551270">
        <ele>507.2</ele>
        <time>2021-04-04T08:32:38Z</time>
      </trkpt>
      <trkpt lat="40.2344890" lon="-3.5550470">
        <ele>507.2</ele>
        <time>2021-04-04T08:32:39Z</time>
      </trkpt>
      <trkpt lat="40.2345090" lon="-3.5549730">
        <ele>507.2</ele>
        <time>2021-04-04T08:32:40Z</time>
      </trkpt>
      <trkpt lat="40.2345390" lon="-3.5549030">
        <ele>507.0</ele>
        <time>2021-04-04T08:32:41Z</time>
      </trkpt>
      <trkpt lat="40.2345770" lon="-3.5548400">
        <ele>507.0</ele>
        <time>2021-04-04T08:32:42Z</time>
      </trkpt>
      <trkpt lat="40.2346230" lon="-3.5547850">
        <ele>507.0</ele>
        <time>2021-04-04T08:32:43Z</time>
      </trkpt>
      <trkpt lat="40.2346730" lon="-3.5547350">
        <ele>507.0</ele>
        <time>2021-04-04T08:32:44Z</time>
      </trkpt>
      <trkpt lat="40.2347220" lon="-3.5546870">
        <ele>507.0</ele>
        <time>2021-04-04T08:32:45Z</time>
      </trkpt>
      <trkpt lat="40.2347680" lon="-3.5546390">
        <ele>507.0</ele>
        <time>2021-04-04T08:32:46Z</time>
      </trkpt>
      <trkpt lat="40.2348170" lon="-3.5545900">
        <ele>507.0</ele>
        <time>2021-04-04T08:32:47Z</time>
      </trkpt>
      <trkpt lat="40.2348710" lon="-3.5545420">
        <ele>507.0</ele>
        <time>2021-04-04T08:32:48Z</time>
      </trkpt>
      <trkpt lat="40.2349170" lon="-3.5544930">
        <ele>507.0</ele>
        <time>2021-04-04T08:32:49Z</time>
      </trkpt>
      <trkpt lat="40.2349660" lon="-3.5544450">
        <ele>507.0</ele>
        <time>2021-04-04T08:32:50Z</time>
      </trkpt>
      <trkpt lat="40.2350160" lon="-3.5543940">
        <ele>507.0</ele>
        <time>2021-04-04T08:32:51Z</time>
      </trkpt>
      <trkpt lat="40.2350580" lon="-3.5543390">
        <ele>506.8</ele>
        <time>2021-04-04T08:32:52Z</time>
      </trkpt>
      <trkpt lat="40.2351000" lon="-3.5542800">
        <ele>506.8</ele>
        <time>2021-04-04T08:32:53Z</time>
      </trkpt>
      <trkpt lat="40.2351420" lon="-3.5542170">
        <ele>506.8</ele>
        <time>2021-04-04T08:32:54Z</time>
      </trkpt>
      <trkpt lat="40.2351760" lon="-3.5541530">
        <ele>506.8</ele>
        <time>2021-04-04T08:32:55Z</time>
      </trkpt>
      <trkpt lat="40.2352100" lon="-3.5540870">
        <ele>506.8</ele>
        <time>2021-04-04T08:32:56Z</time>
      </trkpt>
      <trkpt lat="40.2352450" lon="-3.5540190">
        <ele>506.8</ele>
        <time>2021-04-04T08:32:57Z</time>
      </trkpt>
      <trkpt lat="40.2352750" lon="-3.5539500">
        <ele>507.0</ele>
        <time>2021-04-04T08:32:58Z</time>
      </trkpt>
      <trkpt lat="40.2353100" lon="-3.5538830">
        <ele>507.0</ele>
        <time>2021-04-04T08:32:59Z</time>
      </trkpt>
      <trkpt lat="40.2353440" lon="-3.5538150">
        <ele>507.0</ele>
        <time>2021-04-04T08:33:00Z</time>
      </trkpt>
      <trkpt lat="40.2353780" lon="-3.5537480">
        <ele>506.8</ele>
        <time>2021-04-04T08:33:01Z</time>
      </trkpt>
      <trkpt lat="40.2354090" lon="-3.5536810">
        <ele>506.8</ele>
        <time>2021-04-04T08:33:02Z</time>
      </trkpt>
      <trkpt lat="40.2354430" lon="-3.5536110">
        <ele>506.8</ele>
        <time>2021-04-04T08:33:03Z</time>
      </trkpt>
      <trkpt lat="40.2354770" lon="-3.5535410">
        <ele>506.8</ele>
        <time>2021-04-04T08:33:04Z</time>
      </trkpt>
      <trkpt lat="40.2355080" lon="-3.5534690">
        <ele>506.8</ele>
        <time>2021-04-04T08:33:05Z</time>
      </trkpt>
      <trkpt lat="40.2355420" lon="-3.5533970">
        <ele>506.8</ele>
        <time>2021-04-04T08:33:06Z</time>
      </trkpt>
      <trkpt lat="40.2355770" lon="-3.5533240">
        <ele>506.6</ele>
        <time>2021-04-04T08:33:07Z</time>
      </trkpt>
      <trkpt lat="40.2356030" lon="-3.5532510">
        <ele>506.6</ele>
        <time>2021-04-04T08:33:08Z</time>
      </trkpt>
      <trkpt lat="40.2356300" lon="-3.5531740">
        <ele>506.6</ele>
        <time>2021-04-04T08:33:09Z</time>
      </trkpt>
      <trkpt lat="40.2356530" lon="-3.5530970">
        <ele>506.6</ele>
        <time>2021-04-04T08:33:10Z</time>
      </trkpt>
      <trkpt lat="40.2356760" lon="-3.5530210">
        <ele>506.6</ele>
        <time>2021-04-04T08:33:11Z</time>
      </trkpt>
      <trkpt lat="40.2356990" lon="-3.5529430">
        <ele>506.6</ele>
        <time>2021-04-04T08:33:12Z</time>
      </trkpt>
      <trkpt lat="40.2357140" lon="-3.5528660">
        <ele>506.6</ele>
        <time>2021-04-04T08:33:13Z</time>
      </trkpt>
      <trkpt lat="40.2357250" lon="-3.5527860">
        <ele>506.6</ele>
        <time>2021-04-04T08:33:14Z</time>
      </trkpt>
      <trkpt lat="40.2357330" lon="-3.5527070">
        <ele>506.6</ele>
        <time>2021-04-04T08:33:15Z</time>
      </trkpt>
      <trkpt lat="40.2357370" lon="-3.5526250">
        <ele>506.6</ele>
        <time>2021-04-04T08:33:16Z</time>
      </trkpt>
      <trkpt lat="40.2357290" lon="-3.5525460">
        <ele>506.6</ele>
        <time>2021-04-04T08:33:17Z</time>
      </trkpt>
      <trkpt lat="40.2357220" lon="-3.5524690">
        <ele>506.8</ele>
        <time>2021-04-04T08:33:18Z</time>
      </trkpt>
      <trkpt lat="40.2357100" lon="-3.5523920">
        <ele>506.8</ele>
        <time>2021-04-04T08:33:19Z</time>
      </trkpt>
      <trkpt lat="40.2356990" lon="-3.5523190">
        <ele>507.0</ele>
        <time>2021-04-04T08:33:20Z</time>
      </trkpt>
      <trkpt lat="40.2356870" lon="-3.5522480">
        <ele>506.8</ele>
        <time>2021-04-04T08:33:21Z</time>
      </trkpt>
      <trkpt lat="40.2356760" lon="-3.5521760">
        <ele>506.8</ele>
        <time>2021-04-04T08:33:22Z</time>
      </trkpt>
      <trkpt lat="40.2356610" lon="-3.5521040">
        <ele>506.8</ele>
        <time>2021-04-04T08:33:23Z</time>
      </trkpt>
      <trkpt lat="40.2356490" lon="-3.5520340">
        <ele>506.8</ele>
        <time>2021-04-04T08:33:24Z</time>
      </trkpt>
      <trkpt lat="40.2356380" lon="-3.5519630">
        <ele>506.8</ele>
        <time>2021-04-04T08:33:25Z</time>
      </trkpt>
      <trkpt lat="40.2356260" lon="-3.5518920">
        <ele>507.0</ele>
        <time>2021-04-04T08:33:26Z</time>
      </trkpt>
      <trkpt lat="40.2356110" lon="-3.5518220">
        <ele>507.0</ele>
        <time>2021-04-04T08:33:27Z</time>
      </trkpt>
      <trkpt lat="40.2356000" lon="-3.5517540">
        <ele>507.0</ele>
        <time>2021-04-04T08:33:28Z</time>
      </trkpt>
      <trkpt lat="40.2355880" lon="-3.5516850">
        <ele>507.0</ele>
        <time>2021-04-04T08:33:29Z</time>
      </trkpt>
      <trkpt lat="40.2355730" lon="-3.5516150">
        <ele>507.0</ele>
        <time>2021-04-04T08:33:30Z</time>
      </trkpt>
      <trkpt lat="40.2355610" lon="-3.5515440">
        <ele>507.0</ele>
        <time>2021-04-04T08:33:31Z</time>
      </trkpt>
      <trkpt lat="40.2355500" lon="-3.5514720">
        <ele>507.0</ele>
        <time>2021-04-04T08:33:32Z</time>
      </trkpt>
      <trkpt lat="40.2355380" lon="-3.5514010">
        <ele>507.0</ele>
        <time>2021-04-04T08:33:33Z</time>
      </trkpt>
      <trkpt lat="40.2355270" lon="-3.5513290">
        <ele>507.0</ele>
        <time>2021-04-04T08:33:34Z</time>
      </trkpt>
      <trkpt lat="40.2355190" lon="-3.5512550">
        <ele>507.0</ele>
        <time>2021-04-04T08:33:35Z</time>
      </trkpt>
      <trkpt lat="40.2355080" lon="-3.5511840">
        <ele>507.0</ele>
        <time>2021-04-04T08:33:36Z</time>
      </trkpt>
      <trkpt lat="40.2354960" lon="-3.5511110">
        <ele>506.8</ele>
        <time>2021-04-04T08:33:37Z</time>
      </trkpt>
      <trkpt lat="40.2354890" lon="-3.5510380">
        <ele>506.8</ele>
        <time>2021-04-04T08:33:38Z</time>
      </trkpt>
      <trkpt lat="40.2354740" lon="-3.5509720">
        <ele>506.8</ele>
        <time>2021-04-04T08:33:39Z</time>
      </trkpt>
      <trkpt lat="40.2354470" lon="-3.5509150">
        <ele>506.8</ele>
        <time>2021-04-04T08:33:40Z</time>
      </trkpt>
      <trkpt lat="40.2354160" lon="-3.5508700">
        <ele>506.8</ele>
        <time>2021-04-04T08:33:41Z</time>
      </trkpt>
      <trkpt lat="40.2353710" lon="-3.5508380">
        <ele>506.8</ele>
        <time>2021-04-04T08:33:42Z</time>
      </trkpt>
      <trkpt lat="40.2353210" lon="-3.5508110">
        <ele>506.8</ele>
        <time>2021-04-04T08:33:43Z</time>
      </trkpt>
      <trkpt lat="40.2352710" lon="-3.5507820">
        <ele>506.8</ele>
        <time>2021-04-04T08:33:44Z</time>
      </trkpt>
      <trkpt lat="40.2352260" lon="-3.5507540">
        <ele>506.8</ele>
        <time>2021-04-04T08:33:45Z</time>
      </trkpt>
      <trkpt lat="40.2351800" lon="-3.5507280">
        <ele>506.8</ele>
        <time>2021-04-04T08:33:46Z</time>
      </trkpt>
      <trkpt lat="40.2351340" lon="-3.5507010">
        <ele>506.8</ele>
        <time>2021-04-04T08:33:47Z</time>
      </trkpt>
      <trkpt lat="40.2350880" lon="-3.5506720">
        <ele>506.8</ele>
        <time>2021-04-04T08:33:48Z</time>
      </trkpt>
      <trkpt lat="40.2350460" lon="-3.5506410">
        <ele>506.8</ele>
        <time>2021-04-04T08:33:49Z</time>
      </trkpt>
      <trkpt lat="40.2350010" lon="-3.5506070">
        <ele>506.8</ele>
        <time>2021-04-04T08:33:50Z</time>
      </trkpt>
      <trkpt lat="40.2349510" lon="-3.5505710">
        <ele>506.8</ele>
        <time>2021-04-04T08:33:51Z</time>
      </trkpt>
      <trkpt lat="40.2349050" lon="-3.5505340">
        <ele>506.8</ele>
        <time>2021-04-04T08:33:52Z</time>
      </trkpt>
      <trkpt lat="40.2348630" lon="-3.5504960">
        <ele>506.8</ele>
        <time>2021-04-04T08:33:53Z</time>
      </trkpt>
      <trkpt lat="40.2348210" lon="-3.5504560">
        <ele>506.8</ele>
        <time>2021-04-04T08:33:54Z</time>
      </trkpt>
      <trkpt lat="40.2347830" lon="-3.5504140">
        <ele>506.8</ele>
        <time>2021-04-04T08:33:55Z</time>
      </trkpt>
      <trkpt lat="40.2347410" lon="-3.5503700">
        <ele>506.8</ele>
        <time>2021-04-04T08:33:56Z</time>
      </trkpt>
      <trkpt lat="40.2347030" lon="-3.5503240">
        <ele>506.8</ele>
        <time>2021-04-04T08:33:57Z</time>
      </trkpt>
      <trkpt lat="40.2346650" lon="-3.5502770">
        <ele>506.8</ele>
        <time>2021-04-04T08:33:58Z</time>
      </trkpt>
      <trkpt lat="40.2346270" lon="-3.5502310">
        <ele>506.8</ele>
        <time>2021-04-04T08:33:59Z</time>
      </trkpt>
      <trkpt lat="40.2345850" lon="-3.5501870">
        <ele>506.8</ele>
        <time>2021-04-04T08:34:00Z</time>
      </trkpt>
      <trkpt lat="40.2345430" lon="-3.5501430">
        <ele>506.8</ele>
        <time>2021-04-04T08:34:01Z</time>
      </trkpt>
      <trkpt lat="40.2345050" lon="-3.5500990">
        <ele>506.8</ele>
        <time>2021-04-04T08:34:02Z</time>
      </trkpt>
      <trkpt lat="40.2344630" lon="-3.5500510">
        <ele>506.8</ele>
        <time>2021-04-04T08:34:03Z</time>
      </trkpt>
      <trkpt lat="40.2344250" lon="-3.5500030">
        <ele>506.8</ele>
        <time>2021-04-04T08:34:04Z</time>
      </trkpt>
      <trkpt lat="40.2343860" lon="-3.5499550">
        <ele>506.8</ele>
        <time>2021-04-04T08:34:05Z</time>
      </trkpt>
      <trkpt lat="40.2343440" lon="-3.5499070">
        <ele>506.8</ele>
        <time>2021-04-04T08:34:06Z</time>
      </trkpt>
      <trkpt lat="40.2343060" lon="-3.5498580">
        <ele>506.8</ele>
        <time>2021-04-04T08:34:07Z</time>
      </trkpt>
      <trkpt lat="40.2342680" lon="-3.5498080">
        <ele>506.8</ele>
        <time>2021-04-04T08:34:08Z</time>
      </trkpt>
      <trkpt lat="40.2342260" lon="-3.5497570">
        <ele>506.8</ele>
        <time>2021-04-04T08:34:09Z</time>
      </trkpt>
      <trkpt lat="40.2341880" lon="-3.5497100">
        <ele>506.8</ele>
        <time>2021-04-04T08:34:10Z</time>
      </trkpt>
      <trkpt lat="40.2341500" lon="-3.5496630">
        <ele>506.8</ele>
        <time>2021-04-04T08:34:11Z</time>
      </trkpt>
      <trkpt lat="40.2341080" lon="-3.5496140">
        <ele>506.8</ele>
        <time>2021-04-04T08:34:12Z</time>
      </trkpt>
      <trkpt lat="40.2340660" lon="-3.5495690">
        <ele>506.8</ele>
        <time>2021-04-04T08:34:13Z</time>
      </trkpt>
      <trkpt lat="40.2340240" lon="-3.5495220">
        <ele>506.8</ele>
        <time>2021-04-04T08:34:14Z</time>
      </trkpt>
      <trkpt lat="40.2339820" lon="-3.5494750">
        <ele>506.8</ele>
        <time>2021-04-04T08:34:15Z</time>
      </trkpt>
      <trkpt lat="40.2339400" lon="-3.5494280">
        <ele>506.8</ele>
        <time>2021-04-04T08:34:16Z</time>
      </trkpt>
      <trkpt lat="40.2339020" lon="-3.5493800">
        <ele>507.0</ele>
        <time>2021-04-04T08:34:17Z</time>
      </trkpt>
      <trkpt lat="40.2338600" lon="-3.5493340">
        <ele>506.8</ele>
        <time>2021-04-04T08:34:18Z</time>
      </trkpt>
      <trkpt lat="40.2338180" lon="-3.5492890">
        <ele>506.8</ele>
        <time>2021-04-04T08:34:19Z</time>
      </trkpt>
      <trkpt lat="40.2337720" lon="-3.5492460">
        <ele>506.8</ele>
        <time>2021-04-04T08:34:20Z</time>
      </trkpt>
      <trkpt lat="40.2337260" lon="-3.5492050">
        <ele>506.8</ele>
        <time>2021-04-04T08:34:21Z</time>
      </trkpt>
      <trkpt lat="40.2336810" lon="-3.5491650">
        <ele>506.8</ele>
        <time>2021-04-04T08:34:22Z</time>
      </trkpt>
      <trkpt lat="40.2336350" lon="-3.5491300">
        <ele>507.0</ele>
        <time>2021-04-04T08:34:23Z</time>
      </trkpt>
      <trkpt lat="40.2335890" lon="-3.5491020">
        <ele>507.0</ele>
        <time>2021-04-04T08:34:24Z</time>
      </trkpt>
      <trkpt lat="40.2335360" lon="-3.5490740">
        <ele>507.0</ele>
        <time>2021-04-04T08:34:25Z</time>
      </trkpt>
      <trkpt lat="40.2334860" lon="-3.5490450">
        <ele>507.0</ele>
        <time>2021-04-04T08:34:26Z</time>
      </trkpt>
      <trkpt lat="40.2334370" lon="-3.5490150">
        <ele>506.8</ele>
        <time>2021-04-04T08:34:27Z</time>
      </trkpt>
      <trkpt lat="40.2333830" lon="-3.5489850">
        <ele>506.8</ele>
        <time>2021-04-04T08:34:28Z</time>
      </trkpt>
      <trkpt lat="40.2333300" lon="-3.5489560">
        <ele>506.8</ele>
        <time>2021-04-04T08:34:29Z</time>
      </trkpt>
      <trkpt lat="40.2332800" lon="-3.5489280">
        <ele>506.8</ele>
        <time>2021-04-04T08:34:30Z</time>
      </trkpt>
      <trkpt lat="40.2332310" lon="-3.5489010">
        <ele>506.8</ele>
        <time>2021-04-04T08:34:31Z</time>
      </trkpt>
      <trkpt lat="40.2331850" lon="-3.5488730">
        <ele>506.8</ele>
        <time>2021-04-04T08:34:32Z</time>
      </trkpt>
      <trkpt lat="40.2331350" lon="-3.5488430">
        <ele>506.8</ele>
        <time>2021-04-04T08:34:33Z</time>
      </trkpt>
      <trkpt lat="40.2330860" lon="-3.5488160">
        <ele>506.6</ele>
        <time>2021-04-04T08:34:34Z</time>
      </trkpt>
      <trkpt lat="40.2330360" lon="-3.5487910">
        <ele>506.6</ele>
        <time>2021-04-04T08:34:35Z</time>
      </trkpt>
      <trkpt lat="40.2329900" lon="-3.5487640">
        <ele>506.6</ele>
        <time>2021-04-04T08:34:36Z</time>
      </trkpt>
      <trkpt lat="40.2329410" lon="-3.5487370">
        <ele>506.6</ele>
        <time>2021-04-04T08:34:37Z</time>
      </trkpt>
      <trkpt lat="40.2328910" lon="-3.5487100">
        <ele>506.6</ele>
        <time>2021-04-04T08:34:38Z</time>
      </trkpt>
      <trkpt lat="40.2328420" lon="-3.5486830">
        <ele>506.6</ele>
        <time>2021-04-04T08:34:39Z</time>
      </trkpt>
      <trkpt lat="40.2327960" lon="-3.5486560">
        <ele>506.6</ele>
        <time>2021-04-04T08:34:40Z</time>
      </trkpt>
      <trkpt lat="40.2327460" lon="-3.5486300">
        <ele>506.6</ele>
        <time>2021-04-04T08:34:41Z</time>
      </trkpt>
      <trkpt lat="40.2327000" lon="-3.5486030">
        <ele>506.4</ele>
        <time>2021-04-04T08:34:42Z</time>
      </trkpt>
      <trkpt lat="40.2326550" lon="-3.5485790">
        <ele>506.4</ele>
        <time>2021-04-04T08:34:43Z</time>
      </trkpt>
      <trkpt lat="40.2326130" lon="-3.5485600">
        <ele>506.4</ele>
        <time>2021-04-04T08:34:44Z</time>
      </trkpt>
      <trkpt lat="40.2325740" lon="-3.5485460">
        <ele>506.4</ele>
        <time>2021-04-04T08:34:45Z</time>
      </trkpt>
      <trkpt lat="40.2325360" lon="-3.5485260">
        <ele>506.4</ele>
        <time>2021-04-04T08:34:46Z</time>
      </trkpt>
      <trkpt lat="40.2325060" lon="-3.5484970">
        <ele>506.4</ele>
        <time>2021-04-04T08:34:47Z</time>
      </trkpt>
      <trkpt lat="40.2324680" lon="-3.5484630">
        <ele>506.4</ele>
        <time>2021-04-04T08:34:48Z</time>
      </trkpt>
      <trkpt lat="40.2324220" lon="-3.5484280">
        <ele>506.4</ele>
        <time>2021-04-04T08:34:49Z</time>
      </trkpt>
      <trkpt lat="40.2323800" lon="-3.5483910">
        <ele>506.2</ele>
        <time>2021-04-04T08:34:50Z</time>
      </trkpt>
      <trkpt lat="40.2323340" lon="-3.5483530">
        <ele>506.4</ele>
        <time>2021-04-04T08:34:51Z</time>
      </trkpt>
      <trkpt lat="40.2322880" lon="-3.5483050">
        <ele>506.2</ele>
        <time>2021-04-04T08:34:52Z</time>
      </trkpt>
      <trkpt lat="40.2322460" lon="-3.5482540">
        <ele>506.2</ele>
        <time>2021-04-04T08:34:53Z</time>
      </trkpt>
      <trkpt lat="40.2322010" lon="-3.5482050">
        <ele>506.2</ele>
        <time>2021-04-04T08:34:54Z</time>
      </trkpt>
      <trkpt lat="40.2321550" lon="-3.5481550">
        <ele>506.2</ele>
        <time>2021-04-04T08:34:55Z</time>
      </trkpt>
      <trkpt lat="40.2321050" lon="-3.5481060">
        <ele>506.2</ele>
        <time>2021-04-04T08:34:56Z</time>
      </trkpt>
      <trkpt lat="40.2320590" lon="-3.5480590">
        <ele>506.2</ele>
        <time>2021-04-04T08:34:57Z</time>
      </trkpt>
      <trkpt lat="40.2320140" lon="-3.5480160">
        <ele>506.2</ele>
        <time>2021-04-04T08:34:58Z</time>
      </trkpt>
      <trkpt lat="40.2319720" lon="-3.5479750">
        <ele>506.2</ele>
        <time>2021-04-04T08:34:59Z</time>
      </trkpt>
      <trkpt lat="40.2319300" lon="-3.5479350">
        <ele>506.2</ele>
        <time>2021-04-04T08:35:00Z</time>
      </trkpt>
      <trkpt lat="40.2318920" lon="-3.5478950">
        <ele>506.2</ele>
        <time>2021-04-04T08:35:01Z</time>
      </trkpt>
      <trkpt lat="40.2318530" lon="-3.5478540">
        <ele>506.2</ele>
        <time>2021-04-04T08:35:02Z</time>
      </trkpt>
      <trkpt lat="40.2318150" lon="-3.5478130">
        <ele>506.2</ele>
        <time>2021-04-04T08:35:03Z</time>
      </trkpt>
      <trkpt lat="40.2317770" lon="-3.5477740">
        <ele>506.2</ele>
        <time>2021-04-04T08:35:04Z</time>
      </trkpt>
      <trkpt lat="40.2317350" lon="-3.5477330">
        <ele>506.2</ele>
        <time>2021-04-04T08:35:05Z</time>
      </trkpt>
      <trkpt lat="40.2316970" lon="-3.5476930">
        <ele>506.4</ele>
        <time>2021-04-04T08:35:06Z</time>
      </trkpt>
      <trkpt lat="40.2316630" lon="-3.5476560">
        <ele>506.4</ele>
        <time>2021-04-04T08:35:07Z</time>
      </trkpt>
      <trkpt lat="40.2316250" lon="-3.5476200">
        <ele>506.4</ele>
        <time>2021-04-04T08:35:08Z</time>
      </trkpt>
      <trkpt lat="40.2315900" lon="-3.5475850">
        <ele>506.4</ele>
        <time>2021-04-04T08:35:09Z</time>
      </trkpt>
      <trkpt lat="40.2315600" lon="-3.5475480">
        <ele>506.4</ele>
        <time>2021-04-04T08:35:10Z</time>
      </trkpt>
      <trkpt lat="40.2315250" lon="-3.5475180">
        <ele>506.4</ele>
        <time>2021-04-04T08:35:11Z</time>
      </trkpt>
      <trkpt lat="40.2314910" lon="-3.5474960">
        <ele>506.4</ele>
        <time>2021-04-04T08:35:12Z</time>
      </trkpt>
      <trkpt lat="40.2314570" lon="-3.5474760">
        <ele>506.4</ele>
        <time>2021-04-04T08:35:13Z</time>
      </trkpt>
      <trkpt lat="40.2314340" lon="-3.5474510">
        <ele>506.4</ele>
        <time>2021-04-04T08:35:14Z</time>
      </trkpt>
      <trkpt lat="40.2314110" lon="-3.5474230">
        <ele>506.4</ele>
        <time>2021-04-04T08:35:15Z</time>
      </trkpt>
      <trkpt lat="40.2313960" lon="-3.5473960">
        <ele>506.6</ele>
        <time>2021-04-04T08:35:16Z</time>
      </trkpt>
      <trkpt lat="40.2313770" lon="-3.5473690">
        <ele>506.6</ele>
        <time>2021-04-04T08:35:17Z</time>
      </trkpt>
      <trkpt lat="40.2313500" lon="-3.5473420">
        <ele>506.6</ele>
        <time>2021-04-04T08:35:18Z</time>
      </trkpt>
      <trkpt lat="40.2313230" lon="-3.5473150">
        <ele>506.6</ele>
        <time>2021-04-04T08:35:19Z</time>
      </trkpt>
      <trkpt lat="40.2312970" lon="-3.5472850">
        <ele>506.6</ele>
        <time>2021-04-04T08:35:20Z</time>
      </trkpt>
      <trkpt lat="40.2312660" lon="-3.5472550">
        <ele>506.6</ele>
        <time>2021-04-04T08:35:21Z</time>
      </trkpt>
      <trkpt lat="40.2312280" lon="-3.5472230">
        <ele>506.6</ele>
        <time>2021-04-04T08:35:22Z</time>
      </trkpt>
      <trkpt lat="40.2311900" lon="-3.5471910">
        <ele>506.6</ele>
        <time>2021-04-04T08:35:23Z</time>
      </trkpt>
      <trkpt lat="40.2311550" lon="-3.5471590">
        <ele>506.6</ele>
        <time>2021-04-04T08:35:24Z</time>
      </trkpt>
      <trkpt lat="40.2311170" lon="-3.5471250">
        <ele>506.6</ele>
        <time>2021-04-04T08:35:25Z</time>
      </trkpt>
      <trkpt lat="40.2310830" lon="-3.5470910">
        <ele>506.6</ele>
        <time>2021-04-04T08:35:26Z</time>
      </trkpt>
      <trkpt lat="40.2310450" lon="-3.5470560">
        <ele>506.6</ele>
        <time>2021-04-04T08:35:27Z</time>
      </trkpt>
      <trkpt lat="40.2310070" lon="-3.5470250">
        <ele>506.6</ele>
        <time>2021-04-04T08:35:28Z</time>
      </trkpt>
      <trkpt lat="40.2309720" lon="-3.5469950">
        <ele>506.6</ele>
        <time>2021-04-04T08:35:29Z</time>
      </trkpt>
      <trkpt lat="40.2309380" lon="-3.5469630">
        <ele>506.8</ele>
        <time>2021-04-04T08:35:30Z</time>
      </trkpt>
      <trkpt lat="40.2309070" lon="-3.5469280">
        <ele>506.8</ele>
        <time>2021-04-04T08:35:31Z</time>
      </trkpt>
      <trkpt lat="40.2308810" lon="-3.5468920">
        <ele>506.8</ele>
        <time>2021-04-04T08:35:32Z</time>
      </trkpt>
      <trkpt lat="40.2308540" lon="-3.5468560">
        <ele>506.8</ele>
        <time>2021-04-04T08:35:33Z</time>
      </trkpt>
      <trkpt lat="40.2308270" lon="-3.5468200">
        <ele>507.0</ele>
        <time>2021-04-04T08:35:34Z</time>
      </trkpt>
      <trkpt lat="40.2308040" lon="-3.5467830">
        <ele>507.0</ele>
        <time>2021-04-04T08:35:35Z</time>
      </trkpt>
      <trkpt lat="40.2307780" lon="-3.5467510">
        <ele>507.2</ele>
        <time>2021-04-04T08:35:36Z</time>
      </trkpt>
      <trkpt lat="40.2307550" lon="-3.5467240">
        <ele>507.2</ele>
        <time>2021-04-04T08:35:37Z</time>
      </trkpt>
      <trkpt lat="40.2307320" lon="-3.5467010">
        <ele>507.4</ele>
        <time>2021-04-04T08:35:38Z</time>
      </trkpt>
      <trkpt lat="40.2307200" lon="-3.5466800">
        <ele>507.6</ele>
        <time>2021-04-04T08:35:39Z</time>
      </trkpt>
      <trkpt lat="40.2307170" lon="-3.5466570">
        <ele>507.6</ele>
        <time>2021-04-04T08:35:40Z</time>
      </trkpt>
      <trkpt lat="40.2307090" lon="-3.5466300">
        <ele>507.8</ele>
        <time>2021-04-04T08:35:41Z</time>
      </trkpt>
      <trkpt lat="40.2307010" lon="-3.5465970">
        <ele>507.8</ele>
        <time>2021-04-04T08:35:42Z</time>
      </trkpt>
      <trkpt lat="40.2307010" lon="-3.5465550">
        <ele>508.0</ele>
        <time>2021-04-04T08:35:43Z</time>
      </trkpt>
      <trkpt lat="40.2307130" lon="-3.5465060">
        <ele>508.0</ele>
        <time>2021-04-04T08:35:44Z</time>
      </trkpt>
      <trkpt lat="40.2307280" lon="-3.5464590">
        <ele>508.0</ele>
        <time>2021-04-04T08:35:45Z</time>
      </trkpt>
      <trkpt lat="40.2307550" lon="-3.5464120">
        <ele>508.0</ele>
        <time>2021-04-04T08:35:46Z</time>
      </trkpt>
      <trkpt lat="40.2307820" lon="-3.5463650">
        <ele>508.0</ele>
        <time>2021-04-04T08:35:47Z</time>
      </trkpt>
      <trkpt lat="40.2308080" lon="-3.5463160">
        <ele>508.0</ele>
        <time>2021-04-04T08:35:48Z</time>
      </trkpt>
      <trkpt lat="40.2308350" lon="-3.5462660">
        <ele>508.0</ele>
        <time>2021-04-04T08:35:49Z</time>
      </trkpt>
      <trkpt lat="40.2308580" lon="-3.5462160">
        <ele>508.2</ele>
        <time>2021-04-04T08:35:50Z</time>
      </trkpt>
      <trkpt lat="40.2308850" lon="-3.5461670">
        <ele>508.2</ele>
        <time>2021-04-04T08:35:51Z</time>
      </trkpt>
      <trkpt lat="40.2309110" lon="-3.5461170">
        <ele>508.2</ele>
        <time>2021-04-04T08:35:52Z</time>
      </trkpt>
      <trkpt lat="40.2309380" lon="-3.5460650">
        <ele>508.2</ele>
        <time>2021-04-04T08:35:53Z</time>
      </trkpt>
      <trkpt lat="40.2309650" lon="-3.5460140">
        <ele>508.2</ele>
        <time>2021-04-04T08:35:54Z</time>
      </trkpt>
      <trkpt lat="40.2309910" lon="-3.5459620">
        <ele>508.2</ele>
        <time>2021-04-04T08:35:55Z</time>
      </trkpt>
      <trkpt lat="40.2310180" lon="-3.5459080">
        <ele>508.2</ele>
        <time>2021-04-04T08:35:56Z</time>
      </trkpt>
      <trkpt lat="40.2310450" lon="-3.5458520">
        <ele>508.2</ele>
        <time>2021-04-04T08:35:57Z</time>
      </trkpt>
      <trkpt lat="40.2310750" lon="-3.5457980">
        <ele>508.4</ele>
        <time>2021-04-04T08:35:58Z</time>
      </trkpt>
      <trkpt lat="40.2311060" lon="-3.5457430">
        <ele>508.4</ele>
        <time>2021-04-04T08:35:59Z</time>
      </trkpt>
      <trkpt lat="40.2311360" lon="-3.5456850">
        <ele>508.4</ele>
        <time>2021-04-04T08:36:00Z</time>
      </trkpt>
      <trkpt lat="40.2311670" lon="-3.5456260">
        <ele>508.4</ele>
        <time>2021-04-04T08:36:01Z</time>
      </trkpt>
      <trkpt lat="40.2311970" lon="-3.5455680">
        <ele>508.4</ele>
        <time>2021-04-04T08:36:02Z</time>
      </trkpt>
      <trkpt lat="40.2312280" lon="-3.5455100">
        <ele>508.4</ele>
        <time>2021-04-04T08:36:03Z</time>
      </trkpt>
      <trkpt lat="40.2312550" lon="-3.5454520">
        <ele>508.2</ele>
        <time>2021-04-04T08:36:04Z</time>
      </trkpt>
      <trkpt lat="40.2312850" lon="-3.5453940">
        <ele>508.2</ele>
        <time>2021-04-04T08:36:05Z</time>
      </trkpt>
      <trkpt lat="40.2313160" lon="-3.5453360">
        <ele>508.2</ele>
        <time>2021-04-04T08:36:06Z</time>
      </trkpt>
      <trkpt lat="40.2313460" lon="-3.5452780">
        <ele>508.2</ele>
        <time>2021-04-04T08:36:07Z</time>
      </trkpt>
      <trkpt lat="40.2313770" lon="-3.5452200">
        <ele>508.0</ele>
        <time>2021-04-04T08:36:08Z</time>
      </trkpt>
      <trkpt lat="40.2314030" lon="-3.5451600">
        <ele>508.0</ele>
        <time>2021-04-04T08:36:09Z</time>
      </trkpt>
      <trkpt lat="40.2314340" lon="-3.5451020">
        <ele>508.2</ele>
        <time>2021-04-04T08:36:10Z</time>
      </trkpt>
      <trkpt lat="40.2314640" lon="-3.5450450">
        <ele>508.2</ele>
        <time>2021-04-04T08:36:11Z</time>
      </trkpt>
      <trkpt lat="40.2314910" lon="-3.5449840">
        <ele>508.2</ele>
        <time>2021-04-04T08:36:12Z</time>
      </trkpt>
      <trkpt lat="40.2315220" lon="-3.5449250">
        <ele>508.2</ele>
        <time>2021-04-04T08:36:13Z</time>
      </trkpt>
      <trkpt lat="40.2315520" lon="-3.5448670">
        <ele>508.2</ele>
        <time>2021-04-04T08:36:14Z</time>
      </trkpt>
      <trkpt lat="40.2315830" lon="-3.5448100">
        <ele>508.2</ele>
        <time>2021-04-04T08:36:15Z</time>
      </trkpt>
      <trkpt lat="40.2316130" lon="-3.5447510">
        <ele>508.4</ele>
        <time>2021-04-04T08:36:16Z</time>
      </trkpt>
      <trkpt lat="40.2316400" lon="-3.5446900">
        <ele>508.4</ele>
        <time>2021-04-04T08:36:17Z</time>
      </trkpt>
      <trkpt lat="40.2316700" lon="-3.5446300">
        <ele>508.4</ele>
        <time>2021-04-04T08:36:18Z</time>
      </trkpt>
      <trkpt lat="40.2316970" lon="-3.5445720">
        <ele>508.4</ele>
        <time>2021-04-04T08:36:19Z</time>
      </trkpt>
      <trkpt lat="40.2317280" lon="-3.5445140">
        <ele>508.4</ele>
        <time>2021-04-04T08:36:20Z</time>
      </trkpt>
      <trkpt lat="40.2317580" lon="-3.5444540">
        <ele>508.4</ele>
        <time>2021-04-04T08:36:21Z</time>
      </trkpt>
      <trkpt lat="40.2317890" lon="-3.5443960">
        <ele>508.4</ele>
        <time>2021-04-04T08:36:22Z</time>
      </trkpt>
      <trkpt lat="40.2318190" lon="-3.5443380">
        <ele>508.4</ele>
        <time>2021-04-04T08:36:23Z</time>
      </trkpt>
      <trkpt lat="40.2318500" lon="-3.5442810">
        <ele>508.4</ele>
        <time>2021-04-04T08:36:24Z</time>
      </trkpt>
      <trkpt lat="40.2318800" lon="-3.5442250">
        <ele>508.2</ele>
        <time>2021-04-04T08:36:25Z</time>
      </trkpt>
      <trkpt lat="40.2319070" lon="-3.5441660">
        <ele>508.2</ele>
        <time>2021-04-04T08:36:26Z</time>
      </trkpt>
      <trkpt lat="40.2319370" lon="-3.5441060">
        <ele>508.2</ele>
        <time>2021-04-04T08:36:27Z</time>
      </trkpt>
      <trkpt lat="40.2319680" lon="-3.5440470">
        <ele>508.2</ele>
        <time>2021-04-04T08:36:28Z</time>
      </trkpt>
      <trkpt lat="40.2319950" lon="-3.5439890">
        <ele>508.2</ele>
        <time>2021-04-04T08:36:29Z</time>
      </trkpt>
      <trkpt lat="40.2320210" lon="-3.5439310">
        <ele>508.2</ele>
        <time>2021-04-04T08:36:30Z</time>
      </trkpt>
      <trkpt lat="40.2320480" lon="-3.5438740">
        <ele>508.0</ele>
        <time>2021-04-04T08:36:31Z</time>
      </trkpt>
      <trkpt lat="40.2320790" lon="-3.5438180">
        <ele>508.0</ele>
        <time>2021-04-04T08:36:32Z</time>
      </trkpt>
      <trkpt lat="40.2321050" lon="-3.5437600">
        <ele>508.2</ele>
        <time>2021-04-04T08:36:33Z</time>
      </trkpt>
      <trkpt lat="40.2321360" lon="-3.5437020">
        <ele>508.2</ele>
        <time>2021-04-04T08:36:34Z</time>
      </trkpt>
      <trkpt lat="40.2321630" lon="-3.5436450">
        <ele>508.2</ele>
        <time>2021-04-04T08:36:35Z</time>
      </trkpt>
      <trkpt lat="40.2321890" lon="-3.5435870">
        <ele>508.2</ele>
        <time>2021-04-04T08:36:36Z</time>
      </trkpt>
      <trkpt lat="40.2322200" lon="-3.5435270">
        <ele>508.2</ele>
        <time>2021-04-04T08:36:37Z</time>
      </trkpt>
      <trkpt lat="40.2322460" lon="-3.5434700">
        <ele>508.2</ele>
        <time>2021-04-04T08:36:38Z</time>
      </trkpt>
      <trkpt lat="40.2322770" lon="-3.5434120">
        <ele>508.2</ele>
        <time>2021-04-04T08:36:39Z</time>
      </trkpt>
      <trkpt lat="40.2323070" lon="-3.5433540">
        <ele>508.2</ele>
        <time>2021-04-04T08:36:40Z</time>
      </trkpt>
      <trkpt lat="40.2323340" lon="-3.5432970">
        <ele>508.2</ele>
        <time>2021-04-04T08:36:41Z</time>
      </trkpt>
      <trkpt lat="40.2323650" lon="-3.5432390">
        <ele>508.4</ele>
        <time>2021-04-04T08:36:42Z</time>
      </trkpt>
      <trkpt lat="40.2323950" lon="-3.5431810">
        <ele>508.4</ele>
        <time>2021-04-04T08:36:43Z</time>
      </trkpt>
      <trkpt lat="40.2324220" lon="-3.5431230">
        <ele>508.4</ele>
        <time>2021-04-04T08:36:44Z</time>
      </trkpt>
      <trkpt lat="40.2324520" lon="-3.5430670">
        <ele>508.4</ele>
        <time>2021-04-04T08:36:45Z</time>
      </trkpt>
      <trkpt lat="40.2324750" lon="-3.5430100">
        <ele>508.4</ele>
        <time>2021-04-04T08:36:46Z</time>
      </trkpt>
      <trkpt lat="40.2325060" lon="-3.5429500">
        <ele>508.4</ele>
        <time>2021-04-04T08:36:47Z</time>
      </trkpt>
      <trkpt lat="40.2325360" lon="-3.5428920">
        <ele>508.4</ele>
        <time>2021-04-04T08:36:48Z</time>
      </trkpt>
      <trkpt lat="40.2325630" lon="-3.5428340">
        <ele>508.4</ele>
        <time>2021-04-04T08:36:49Z</time>
      </trkpt>
      <trkpt lat="40.2325940" lon="-3.5427750">
        <ele>508.4</ele>
        <time>2021-04-04T08:36:50Z</time>
      </trkpt>
      <trkpt lat="40.2326240" lon="-3.5427150">
        <ele>508.4</ele>
        <time>2021-04-04T08:36:51Z</time>
      </trkpt>
      <trkpt lat="40.2326510" lon="-3.5426550">
        <ele>508.2</ele>
        <time>2021-04-04T08:36:52Z</time>
      </trkpt>
      <trkpt lat="40.2326810" lon="-3.5425950">
        <ele>508.4</ele>
        <time>2021-04-04T08:36:53Z</time>
      </trkpt>
      <trkpt lat="40.2327080" lon="-3.5425360">
        <ele>508.4</ele>
        <time>2021-04-04T08:36:54Z</time>
      </trkpt>
      <trkpt lat="40.2327390" lon="-3.5424770">
        <ele>508.4</ele>
        <time>2021-04-04T08:36:55Z</time>
      </trkpt>
      <trkpt lat="40.2327690" lon="-3.5424170">
        <ele>508.4</ele>
        <time>2021-04-04T08:36:56Z</time>
      </trkpt>
      <trkpt lat="40.2328000" lon="-3.5423580">
        <ele>508.4</ele>
        <time>2021-04-04T08:36:57Z</time>
      </trkpt>
      <trkpt lat="40.2328260" lon="-3.5422990">
        <ele>508.4</ele>
        <time>2021-04-04T08:36:58Z</time>
      </trkpt>
      <trkpt lat="40.2328570" lon="-3.5422410">
        <ele>508.4</ele>
        <time>2021-04-04T08:36:59Z</time>
      </trkpt>
      <trkpt lat="40.2328870" lon="-3.5421830">
        <ele>508.4</ele>
        <time>2021-04-04T08:37:00Z</time>
      </trkpt>
      <trkpt lat="40.2329140" lon="-3.5421250">
        <ele>508.4</ele>
        <time>2021-04-04T08:37:01Z</time>
      </trkpt>
      <trkpt lat="40.2329440" lon="-3.5420660">
        <ele>508.6</ele>
        <time>2021-04-04T08:37:02Z</time>
      </trkpt>
      <trkpt lat="40.2329750" lon="-3.5420070">
        <ele>508.4</ele>
        <time>2021-04-04T08:37:03Z</time>
      </trkpt>
      <trkpt lat="40.2330020" lon="-3.5419470">
        <ele>508.6</ele>
        <time>2021-04-04T08:37:04Z</time>
      </trkpt>
      <trkpt lat="40.2330280" lon="-3.5418890">
        <ele>508.6</ele>
        <time>2021-04-04T08:37:05Z</time>
      </trkpt>
      <trkpt lat="40.2330590" lon="-3.5418310">
        <ele>508.6</ele>
        <time>2021-04-04T08:37:06Z</time>
      </trkpt>
      <trkpt lat="40.2330890" lon="-3.5417730">
        <ele>508.6</ele>
        <time>2021-04-04T08:37:07Z</time>
      </trkpt>
      <trkpt lat="40.2331160" lon="-3.5417170">
        <ele>508.6</ele>
        <time>2021-04-04T08:37:08Z</time>
      </trkpt>
      <trkpt lat="40.2331470" lon="-3.5416590">
        <ele>508.6</ele>
        <time>2021-04-04T08:37:09Z</time>
      </trkpt>
      <trkpt lat="40.2331730" lon="-3.5416010">
        <ele>508.8</ele>
        <time>2021-04-04T08:37:10Z</time>
      </trkpt>
      <trkpt lat="40.2332000" lon="-3.5415450">
        <ele>508.8</ele>
        <time>2021-04-04T08:37:11Z</time>
      </trkpt>
      <trkpt lat="40.2332310" lon="-3.5414880">
        <ele>508.8</ele>
        <time>2021-04-04T08:37:12Z</time>
      </trkpt>
      <trkpt lat="40.2332570" lon="-3.5414300">
        <ele>508.8</ele>
        <time>2021-04-04T08:37:13Z</time>
      </trkpt>
      <trkpt lat="40.2332840" lon="-3.5413730">
        <ele>508.8</ele>
        <time>2021-04-04T08:37:14Z</time>
      </trkpt>
      <trkpt lat="40.2333150" lon="-3.5413170">
        <ele>508.8</ele>
        <time>2021-04-04T08:37:15Z</time>
      </trkpt>
      <trkpt lat="40.2333410" lon="-3.5412610">
        <ele>509.0</ele>
        <time>2021-04-04T08:37:16Z</time>
      </trkpt>
      <trkpt lat="40.2333680" lon="-3.5412040">
        <ele>509.0</ele>
        <time>2021-04-04T08:37:17Z</time>
      </trkpt>
      <trkpt lat="40.2333950" lon="-3.5411470">
        <ele>509.0</ele>
        <time>2021-04-04T08:37:18Z</time>
      </trkpt>
      <trkpt lat="40.2334210" lon="-3.5410900">
        <ele>509.0</ele>
        <time>2021-04-04T08:37:19Z</time>
      </trkpt>
      <trkpt lat="40.2334520" lon="-3.5410340">
        <ele>509.2</ele>
        <time>2021-04-04T08:37:20Z</time>
      </trkpt>
      <trkpt lat="40.2334790" lon="-3.5409790">
        <ele>509.4</ele>
        <time>2021-04-04T08:37:21Z</time>
      </trkpt>
      <trkpt lat="40.2335090" lon="-3.5409220">
        <ele>509.4</ele>
        <time>2021-04-04T08:37:22Z</time>
      </trkpt>
      <trkpt lat="40.2335360" lon="-3.5408640">
        <ele>509.6</ele>
        <time>2021-04-04T08:37:23Z</time>
      </trkpt>
      <trkpt lat="40.2335660" lon="-3.5408070">
        <ele>509.6</ele>
        <time>2021-04-04T08:37:24Z</time>
      </trkpt>
      <trkpt lat="40.2335930" lon="-3.5407500">
        <ele>509.8</ele>
        <time>2021-04-04T08:37:25Z</time>
      </trkpt>
      <trkpt lat="40.2336200" lon="-3.5406950">
        <ele>509.8</ele>
        <time>2021-04-04T08:37:26Z</time>
      </trkpt>
      <trkpt lat="40.2336460" lon="-3.5406390">
        <ele>509.8</ele>
        <time>2021-04-04T08:37:27Z</time>
      </trkpt>
      <trkpt lat="40.2336730" lon="-3.5405850">
        <ele>509.8</ele>
        <time>2021-04-04T08:37:28Z</time>
      </trkpt>
      <trkpt lat="40.2337040" lon="-3.5405300">
        <ele>510.0</ele>
        <time>2021-04-04T08:37:29Z</time>
      </trkpt>
      <trkpt lat="40.2337300" lon="-3.5404750">
        <ele>510.0</ele>
        <time>2021-04-04T08:37:30Z</time>
      </trkpt>
      <trkpt lat="40.2337570" lon="-3.5404200">
        <ele>510.0</ele>
        <time>2021-04-04T08:37:31Z</time>
      </trkpt>
      <trkpt lat="40.2337840" lon="-3.5403640">
        <ele>510.2</ele>
        <time>2021-04-04T08:37:32Z</time>
      </trkpt>
      <trkpt lat="40.2338100" lon="-3.5403070">
        <ele>510.2</ele>
        <time>2021-04-04T08:37:33Z</time>
      </trkpt>
      <trkpt lat="40.2338370" lon="-3.5402520">
        <ele>510.2</ele>
        <time>2021-04-04T08:37:34Z</time>
      </trkpt>
      <trkpt lat="40.2338640" lon="-3.5401970">
        <ele>510.4</ele>
        <time>2021-04-04T08:37:35Z</time>
      </trkpt>
      <trkpt lat="40.2338910" lon="-3.5401440">
        <ele>510.4</ele>
        <time>2021-04-04T08:37:36Z</time>
      </trkpt>
      <trkpt lat="40.2339170" lon="-3.5400910">
        <ele>510.4</ele>
        <time>2021-04-04T08:37:37Z</time>
      </trkpt>
      <trkpt lat="40.2339480" lon="-3.5400340">
        <ele>510.4</ele>
        <time>2021-04-04T08:37:38Z</time>
      </trkpt>
      <trkpt lat="40.2339740" lon="-3.5399810">
        <ele>510.4</ele>
        <time>2021-04-04T08:37:39Z</time>
      </trkpt>
      <trkpt lat="40.2340010" lon="-3.5399290">
        <ele>510.6</ele>
        <time>2021-04-04T08:37:40Z</time>
      </trkpt>
      <trkpt lat="40.2340320" lon="-3.5398760">
        <ele>510.6</ele>
        <time>2021-04-04T08:37:41Z</time>
      </trkpt>
      <trkpt lat="40.2340580" lon="-3.5398230">
        <ele>510.8</ele>
        <time>2021-04-04T08:37:42Z</time>
      </trkpt>
      <trkpt lat="40.2340850" lon="-3.5397700">
        <ele>510.8</ele>
        <time>2021-04-04T08:37:43Z</time>
      </trkpt>
      <trkpt lat="40.2341160" lon="-3.5397180">
        <ele>510.8</ele>
        <time>2021-04-04T08:37:44Z</time>
      </trkpt>
      <trkpt lat="40.2341420" lon="-3.5396640">
        <ele>511.0</ele>
        <time>2021-04-04T08:37:45Z</time>
      </trkpt>
      <trkpt lat="40.2341690" lon="-3.5396100">
        <ele>511.0</ele>
        <time>2021-04-04T08:37:46Z</time>
      </trkpt>
      <trkpt lat="40.2341960" lon="-3.5395570">
        <ele>511.2</ele>
        <time>2021-04-04T08:37:47Z</time>
      </trkpt>
      <trkpt lat="40.2342220" lon="-3.5395020">
        <ele>511.2</ele>
        <time>2021-04-04T08:37:48Z</time>
      </trkpt>
      <trkpt lat="40.2342490" lon="-3.5394470">
        <ele>511.4</ele>
        <time>2021-04-04T08:37:49Z</time>
      </trkpt>
      <trkpt lat="40.2342760" lon="-3.5393920">
        <ele>511.4</ele>
        <time>2021-04-04T08:37:50Z</time>
      </trkpt>
      <trkpt lat="40.2343020" lon="-3.5393370">
        <ele>511.6</ele>
        <time>2021-04-04T08:37:51Z</time>
      </trkpt>
      <trkpt lat="40.2343330" lon="-3.5392820">
        <ele>511.6</ele>
        <time>2021-04-04T08:37:52Z</time>
      </trkpt>
      <trkpt lat="40.2343600" lon="-3.5392250">
        <ele>511.6</ele>
        <time>2021-04-04T08:37:53Z</time>
      </trkpt>
      <trkpt lat="40.2343860" lon="-3.5391700">
        <ele>511.8</ele>
        <time>2021-04-04T08:37:54Z</time>
      </trkpt>
      <trkpt lat="40.2344130" lon="-3.5391150">
        <ele>511.8</ele>
        <time>2021-04-04T08:37:55Z</time>
      </trkpt>
      <trkpt lat="40.2344400" lon="-3.5390580">
        <ele>512.0</ele>
        <time>2021-04-04T08:37:56Z</time>
      </trkpt>
      <trkpt lat="40.2344670" lon="-3.5390020">
        <ele>512.0</ele>
        <time>2021-04-04T08:37:57Z</time>
      </trkpt>
      <trkpt lat="40.2344930" lon="-3.5389460">
        <ele>512.2</ele>
        <time>2021-04-04T08:37:58Z</time>
      </trkpt>
      <trkpt lat="40.2345200" lon="-3.5388900">
        <ele>512.2</ele>
        <time>2021-04-04T08:37:59Z</time>
      </trkpt>
      <trkpt lat="40.2345470" lon="-3.5388350">
        <ele>512.2</ele>
        <time>2021-04-04T08:38:00Z</time>
      </trkpt>
      <trkpt lat="40.2345730" lon="-3.5387800">
        <ele>512.4</ele>
        <time>2021-04-04T08:38:01Z</time>
      </trkpt>
      <trkpt lat="40.2346000" lon="-3.5387250">
        <ele>512.4</ele>
        <time>2021-04-04T08:38:02Z</time>
      </trkpt>
      <trkpt lat="40.2346270" lon="-3.5386700">
        <ele>512.4</ele>
        <time>2021-04-04T08:38:03Z</time>
      </trkpt>
      <trkpt lat="40.2346530" lon="-3.5386150">
        <ele>512.6</ele>
        <time>2021-04-04T08:38:04Z</time>
      </trkpt>
      <trkpt lat="40.2346800" lon="-3.5385600">
        <ele>512.6</ele>
        <time>2021-04-04T08:38:05Z</time>
      </trkpt>
      <trkpt lat="40.2347070" lon="-3.5385060">
        <ele>512.8</ele>
        <time>2021-04-04T08:38:06Z</time>
      </trkpt>
      <trkpt lat="40.2347340" lon="-3.5384510">
        <ele>512.8</ele>
        <time>2021-04-04T08:38:07Z</time>
      </trkpt>
      <trkpt lat="40.2347600" lon="-3.5383960">
        <ele>512.8</ele>
        <time>2021-04-04T08:38:08Z</time>
      </trkpt>
      <trkpt lat="40.2347870" lon="-3.5383410">
        <ele>513.0</ele>
        <time>2021-04-04T08:38:09Z</time>
      </trkpt>
      <trkpt lat="40.2348140" lon="-3.5382880">
        <ele>513.0</ele>
        <time>2021-04-04T08:38:10Z</time>
      </trkpt>
      <trkpt lat="40.2348400" lon="-3.5382340">
        <ele>513.2</ele>
        <time>2021-04-04T08:38:11Z</time>
      </trkpt>
      <trkpt lat="40.2348670" lon="-3.5381800">
        <ele>513.2</ele>
        <time>2021-04-04T08:38:12Z</time>
      </trkpt>
      <trkpt lat="40.2348940" lon="-3.5381260">
        <ele>513.2</ele>
        <time>2021-04-04T08:38:13Z</time>
      </trkpt>
      <trkpt lat="40.2349200" lon="-3.5380710">
        <ele>513.4</ele>
        <time>2021-04-04T08:38:14Z</time>
      </trkpt>
      <trkpt lat="40.2349470" lon="-3.5380180">
        <ele>513.4</ele>
        <time>2021-04-04T08:38:15Z</time>
      </trkpt>
      <trkpt lat="40.2349780" lon="-3.5379640">
        <ele>513.6</ele>
        <time>2021-04-04T08:38:16Z</time>
      </trkpt>
      <trkpt lat="40.2350010" lon="-3.5379090">
        <ele>513.6</ele>
        <time>2021-04-04T08:38:17Z</time>
      </trkpt>
      <trkpt lat="40.2350270" lon="-3.5378550">
        <ele>513.8</ele>
        <time>2021-04-04T08:38:18Z</time>
      </trkpt>
      <trkpt lat="40.2350580" lon="-3.5377990">
        <ele>513.8</ele>
        <time>2021-04-04T08:38:19Z</time>
      </trkpt>
      <trkpt lat="40.2350850" lon="-3.5377420">
        <ele>514.0</ele>
        <time>2021-04-04T08:38:20Z</time>
      </trkpt>
      <trkpt lat="40.2351110" lon="-3.5376860">
        <ele>514.0</ele>
        <time>2021-04-04T08:38:21Z</time>
      </trkpt>
      <trkpt lat="40.2351380" lon="-3.5376300">
        <ele>514.0</ele>
        <time>2021-04-04T08:38:22Z</time>
      </trkpt>
      <trkpt lat="40.2351650" lon="-3.5375750">
        <ele>514.2</ele>
        <time>2021-04-04T08:38:23Z</time>
      </trkpt>
      <trkpt lat="40.2351910" lon="-3.5375210">
        <ele>514.2</ele>
        <time>2021-04-04T08:38:24Z</time>
      </trkpt>
      <trkpt lat="40.2352180" lon="-3.5374690">
        <ele>514.2</ele>
        <time>2021-04-04T08:38:25Z</time>
      </trkpt>
      <trkpt lat="40.2352450" lon="-3.5374170">
        <ele>514.4</ele>
        <time>2021-04-04T08:38:26Z</time>
      </trkpt>
      <trkpt lat="40.2352680" lon="-3.5373640">
        <ele>514.4</ele>
        <time>2021-04-04T08:38:27Z</time>
      </trkpt>
      <trkpt lat="40.2352940" lon="-3.5373120">
        <ele>514.6</ele>
        <time>2021-04-04T08:38:28Z</time>
      </trkpt>
      <trkpt lat="40.2353170" lon="-3.5372590">
        <ele>514.6</ele>
        <time>2021-04-04T08:38:29Z</time>
      </trkpt>
      <trkpt lat="40.2353440" lon="-3.5372070">
        <ele>514.8</ele>
        <time>2021-04-04T08:38:30Z</time>
      </trkpt>
      <trkpt lat="40.2353670" lon="-3.5371550">
        <ele>514.8</ele>
        <time>2021-04-04T08:38:31Z</time>
      </trkpt>
      <trkpt lat="40.2353900" lon="-3.5371030">
        <ele>515.0</ele>
        <time>2021-04-04T08:38:32Z</time>
      </trkpt>
      <trkpt lat="40.2354160" lon="-3.5370540">
        <ele>515.0</ele>
        <time>2021-04-04T08:38:33Z</time>
      </trkpt>
      <trkpt lat="40.2354430" lon="-3.5370080">
        <ele>515.2</ele>
        <time>2021-04-04T08:38:34Z</time>
      </trkpt>
      <trkpt lat="40.2354660" lon="-3.5369590">
        <ele>515.2</ele>
        <time>2021-04-04T08:38:35Z</time>
      </trkpt>
      <trkpt lat="40.2354890" lon="-3.5369100">
        <ele>515.4</ele>
        <time>2021-04-04T08:38:36Z</time>
      </trkpt>
      <trkpt lat="40.2355080" lon="-3.5368610">
        <ele>515.6</ele>
        <time>2021-04-04T08:38:37Z</time>
      </trkpt>
      <trkpt lat="40.2355310" lon="-3.5368140">
        <ele>515.6</ele>
        <time>2021-04-04T08:38:38Z</time>
      </trkpt>
      <trkpt lat="40.2355540" lon="-3.5367660">
        <ele>515.8</ele>
        <time>2021-04-04T08:38:39Z</time>
      </trkpt>
      <trkpt lat="40.2355730" lon="-3.5367180">
        <ele>516.0</ele>
        <time>2021-04-04T08:38:40Z</time>
      </trkpt>
      <trkpt lat="40.2355920" lon="-3.5366690">
        <ele>516.2</ele>
        <time>2021-04-04T08:38:41Z</time>
      </trkpt>
      <trkpt lat="40.2356110" lon="-3.5366200">
        <ele>516.4</ele>
        <time>2021-04-04T08:38:42Z</time>
      </trkpt>
      <trkpt lat="40.2356300" lon="-3.5365710">
        <ele>516.4</ele>
        <time>2021-04-04T08:38:43Z</time>
      </trkpt>
      <trkpt lat="40.2356450" lon="-3.5365210">
        <ele>516.6</ele>
        <time>2021-04-04T08:38:44Z</time>
      </trkpt>
      <trkpt lat="40.2356610" lon="-3.5364710">
        <ele>516.8</ele>
        <time>2021-04-04T08:38:45Z</time>
      </trkpt>
      <trkpt lat="40.2356760" lon="-3.5364200">
        <ele>517.0</ele>
        <time>2021-04-04T08:38:46Z</time>
      </trkpt>
      <trkpt lat="40.2356910" lon="-3.5363690">
        <ele>517.2</ele>
        <time>2021-04-04T08:38:47Z</time>
      </trkpt>
      <trkpt lat="40.2357030" lon="-3.5363170">
        <ele>517.4</ele>
        <time>2021-04-04T08:38:48Z</time>
      </trkpt>
      <trkpt lat="40.2357140" lon="-3.5362660">
        <ele>517.6</ele>
        <time>2021-04-04T08:38:49Z</time>
      </trkpt>
      <trkpt lat="40.2357250" lon="-3.5362130">
        <ele>517.8</ele>
        <time>2021-04-04T08:38:50Z</time>
      </trkpt>
      <trkpt lat="40.2357370" lon="-3.5361620">
        <ele>518.0</ele>
        <time>2021-04-04T08:38:51Z</time>
      </trkpt>
      <trkpt lat="40.2357450" lon="-3.5361130">
        <ele>518.2</ele>
        <time>2021-04-04T08:38:52Z</time>
      </trkpt>
      <trkpt lat="40.2357480" lon="-3.5360650">
        <ele>518.4</ele>
        <time>2021-04-04T08:38:53Z</time>
      </trkpt>
      <trkpt lat="40.2357520" lon="-3.5360190">
        <ele>518.6</ele>
        <time>2021-04-04T08:38:54Z</time>
      </trkpt>
      <trkpt lat="40.2357410" lon="-3.5359740">
        <ele>518.8</ele>
        <time>2021-04-04T08:38:55Z</time>
      </trkpt>
      <trkpt lat="40.2357220" lon="-3.5359370">
        <ele>519.0</ele>
        <time>2021-04-04T08:38:56Z</time>
      </trkpt>
      <trkpt lat="40.2356870" lon="-3.5359120">
        <ele>519.0</ele>
        <time>2021-04-04T08:38:57Z</time>
      </trkpt>
      <trkpt lat="40.2356450" lon="-3.5358940">
        <ele>519.0</ele>
        <time>2021-04-04T08:38:58Z</time>
      </trkpt>
      <trkpt lat="40.2356030" lon="-3.5358790">
        <ele>518.8</ele>
        <time>2021-04-04T08:38:59Z</time>
      </trkpt>
      <trkpt lat="40.2355580" lon="-3.5358640">
        <ele>518.6</ele>
        <time>2021-04-04T08:39:00Z</time>
      </trkpt>
      <trkpt lat="40.2355080" lon="-3.5358480">
        <ele>518.2</ele>
        <time>2021-04-04T08:39:01Z</time>
      </trkpt>
      <trkpt lat="40.2354580" lon="-3.5358330">
        <ele>518.0</ele>
        <time>2021-04-04T08:39:02Z</time>
      </trkpt>
      <trkpt lat="40.2354050" lon="-3.5358180">
        <ele>517.6</ele>
        <time>2021-04-04T08:39:03Z</time>
      </trkpt>
      <trkpt lat="40.2353520" lon="-3.5358030">
        <ele>517.2</ele>
        <time>2021-04-04T08:39:04Z</time>
      </trkpt>
      <trkpt lat="40.2352910" lon="-3.5357860">
        <ele>516.8</ele>
        <time>2021-04-04T08:39:05Z</time>
      </trkpt>
      <trkpt lat="40.2352300" lon="-3.5357660">
        <ele>516.4</ele>
        <time>2021-04-04T08:39:06Z</time>
      </trkpt>
      <trkpt lat="40.2351680" lon="-3.5357450">
        <ele>516.2</ele>
        <time>2021-04-04T08:39:07Z</time>
      </trkpt>
      <trkpt lat="40.2351070" lon="-3.5357240">
        <ele>515.8</ele>
        <time>2021-04-04T08:39:08Z</time>
      </trkpt>
      <trkpt lat="40.2350460" lon="-3.5357040">
        <ele>515.6</ele>
        <time>2021-04-04T08:39:09Z</time>
      </trkpt>
      <trkpt lat="40.2349850" lon="-3.5356840">
        <ele>515.4</ele>
        <time>2021-04-04T08:39:10Z</time>
      </trkpt>
      <trkpt lat="40.2349170" lon="-3.5356620">
        <ele>515.2</ele>
        <time>2021-04-04T08:39:11Z</time>
      </trkpt>
      <trkpt lat="40.2348520" lon="-3.5356400">
        <ele>515.0</ele>
        <time>2021-04-04T08:39:12Z</time>
      </trkpt>
      <trkpt lat="40.2347910" lon="-3.5356180">
        <ele>514.8</ele>
        <time>2021-04-04T08:39:13Z</time>
      </trkpt>
      <trkpt lat="40.2347300" lon="-3.5355970">
        <ele>514.6</ele>
        <time>2021-04-04T08:39:14Z</time>
      </trkpt>
      <trkpt lat="40.2346650" lon="-3.5355780">
        <ele>514.4</ele>
        <time>2021-04-04T08:39:15Z</time>
      </trkpt>
      <trkpt lat="40.2346000" lon="-3.5355570">
        <ele>514.2</ele>
        <time>2021-04-04T08:39:16Z</time>
      </trkpt>
      <trkpt lat="40.2345390" lon="-3.5355370">
        <ele>514.0</ele>
        <time>2021-04-04T08:39:17Z</time>
      </trkpt>
      <trkpt lat="40.2344820" lon="-3.5355160">
        <ele>513.8</ele>
        <time>2021-04-04T08:39:18Z</time>
      </trkpt>
      <trkpt lat="40.2344210" lon="-3.5354960">
        <ele>513.6</ele>
        <time>2021-04-04T08:39:19Z</time>
      </trkpt>
      <trkpt lat="40.2343640" lon="-3.5354750">
        <ele>513.6</ele>
        <time>2021-04-04T08:39:20Z</time>
      </trkpt>
      <trkpt lat="40.2343020" lon="-3.5354530">
        <ele>513.4</ele>
        <time>2021-04-04T08:39:21Z</time>
      </trkpt>
      <trkpt lat="40.2342450" lon="-3.5354300">
        <ele>513.4</ele>
        <time>2021-04-04T08:39:22Z</time>
      </trkpt>
      <trkpt lat="40.2341840" lon="-3.5354090">
        <ele>513.2</ele>
        <time>2021-04-04T08:39:23Z</time>
      </trkpt>
      <trkpt lat="40.2341270" lon="-3.5353890">
        <ele>513.2</ele>
        <time>2021-04-04T08:39:24Z</time>
      </trkpt>
      <trkpt lat="40.2340660" lon="-3.5353700">
        <ele>513.0</ele>
        <time>2021-04-04T08:39:25Z</time>
      </trkpt>
      <trkpt lat="40.2340050" lon="-3.5353530">
        <ele>513.0</ele>
        <time>2021-04-04T08:39:26Z</time>
      </trkpt>
      <trkpt lat="40.2339440" lon="-3.5353350">
        <ele>512.8</ele>
        <time>2021-04-04T08:39:27Z</time>
      </trkpt>
      <trkpt lat="40.2338830" lon="-3.5353190">
        <ele>512.8</ele>
        <time>2021-04-04T08:39:28Z</time>
      </trkpt>
      <trkpt lat="40.2338220" lon="-3.5353060">
        <ele>512.8</ele>
        <time>2021-04-04T08:39:29Z</time>
      </trkpt>
      <trkpt lat="40.2337610" lon="-3.5352950">
        <ele>512.6</ele>
        <time>2021-04-04T08:39:30Z</time>
      </trkpt>
      <trkpt lat="40.2337000" lon="-3.5352850">
        <ele>512.8</ele>
        <time>2021-04-04T08:39:31Z</time>
      </trkpt>
      <trkpt lat="40.2336430" lon="-3.5352780">
        <ele>512.8</ele>
        <time>2021-04-04T08:39:32Z</time>
      </trkpt>
      <trkpt lat="40.2335820" lon="-3.5352740">
        <ele>512.8</ele>
        <time>2021-04-04T08:39:33Z</time>
      </trkpt>
      <trkpt lat="40.2335210" lon="-3.5352730">
        <ele>512.8</ele>
        <time>2021-04-04T08:39:34Z</time>
      </trkpt>
      <trkpt lat="40.2334630" lon="-3.5352720">
        <ele>512.8</ele>
        <time>2021-04-04T08:39:35Z</time>
      </trkpt>
      <trkpt lat="40.2334020" lon="-3.5352720">
        <ele>512.8</ele>
        <time>2021-04-04T08:39:36Z</time>
      </trkpt>
      <trkpt lat="40.2333450" lon="-3.5352730">
        <ele>512.6</ele>
        <time>2021-04-04T08:39:37Z</time>
      </trkpt>
      <trkpt lat="40.2332840" lon="-3.5352730">
        <ele>512.6</ele>
        <time>2021-04-04T08:39:38Z</time>
      </trkpt>
      <trkpt lat="40.2332270" lon="-3.5352690">
        <ele>512.6</ele>
        <time>2021-04-04T08:39:39Z</time>
      </trkpt>
      <trkpt lat="40.2331700" lon="-3.5352640">
        <ele>512.4</ele>
        <time>2021-04-04T08:39:40Z</time>
      </trkpt>
      <trkpt lat="40.2331120" lon="-3.5352620">
        <ele>512.4</ele>
        <time>2021-04-04T08:39:41Z</time>
      </trkpt>
      <trkpt lat="40.2330510" lon="-3.5352620">
        <ele>512.4</ele>
        <time>2021-04-04T08:39:42Z</time>
      </trkpt>
      <trkpt lat="40.2329940" lon="-3.5352630">
        <ele>512.2</ele>
        <time>2021-04-04T08:39:43Z</time>
      </trkpt>
      <trkpt lat="40.2329330" lon="-3.5352660">
        <ele>512.2</ele>
        <time>2021-04-04T08:39:44Z</time>
      </trkpt>
      <trkpt lat="40.2328760" lon="-3.5352700">
        <ele>512.2</ele>
        <time>2021-04-04T08:39:45Z</time>
      </trkpt>
      <trkpt lat="40.2328150" lon="-3.5352760">
        <ele>512.2</ele>
        <time>2021-04-04T08:39:46Z</time>
      </trkpt>
      <trkpt lat="40.2327580" lon="-3.5352830">
        <ele>512.2</ele>
        <time>2021-04-04T08:39:47Z</time>
      </trkpt>
      <trkpt lat="40.2327000" lon="-3.5352910">
        <ele>512.2</ele>
        <time>2021-04-04T08:39:48Z</time>
      </trkpt>
      <trkpt lat="40.2326470" lon="-3.5352960">
        <ele>512.0</ele>
        <time>2021-04-04T08:39:49Z</time>
      </trkpt>
      <trkpt lat="40.2325940" lon="-3.5352970">
        <ele>512.0</ele>
        <time>2021-04-04T08:39:50Z</time>
      </trkpt>
      <trkpt lat="40.2325400" lon="-3.5352940">
        <ele>512.0</ele>
        <time>2021-04-04T08:39:51Z</time>
      </trkpt>
      <trkpt lat="40.2324830" lon="-3.5352860">
        <ele>512.0</ele>
        <time>2021-04-04T08:39:52Z</time>
      </trkpt>
      <trkpt lat="40.2324290" lon="-3.5352760">
        <ele>512.0</ele>
        <time>2021-04-04T08:39:53Z</time>
      </trkpt>
      <trkpt lat="40.2323720" lon="-3.5352670">
        <ele>512.0</ele>
        <time>2021-04-04T08:39:54Z</time>
      </trkpt>
      <trkpt lat="40.2323150" lon="-3.5352590">
        <ele>511.8</ele>
        <time>2021-04-04T08:39:55Z</time>
      </trkpt>
      <trkpt lat="40.2322580" lon="-3.5352510">
        <ele>511.8</ele>
        <time>2021-04-04T08:39:56Z</time>
      </trkpt>
      <trkpt lat="40.2321930" lon="-3.5352410">
        <ele>512.0</ele>
        <time>2021-04-04T08:39:57Z</time>
      </trkpt>
      <trkpt lat="40.2321320" lon="-3.5352310">
        <ele>512.0</ele>
        <time>2021-04-04T08:39:58Z</time>
      </trkpt>
      <trkpt lat="40.2320710" lon="-3.5352180">
        <ele>512.0</ele>
        <time>2021-04-04T08:39:59Z</time>
      </trkpt>
      <trkpt lat="40.2320060" lon="-3.5352040">
        <ele>512.0</ele>
        <time>2021-04-04T08:40:00Z</time>
      </trkpt>
      <trkpt lat="40.2319410" lon="-3.5351880">
        <ele>512.2</ele>
        <time>2021-04-04T08:40:01Z</time>
      </trkpt>
      <trkpt lat="40.2318800" lon="-3.5351700">
        <ele>512.2</ele>
        <time>2021-04-04T08:40:02Z</time>
      </trkpt>
      <trkpt lat="40.2318150" lon="-3.5351480">
        <ele>512.0</ele>
        <time>2021-04-04T08:40:03Z</time>
      </trkpt>
      <trkpt lat="40.2317540" lon="-3.5351240">
        <ele>512.0</ele>
        <time>2021-04-04T08:40:04Z</time>
      </trkpt>
      <trkpt lat="40.2316930" lon="-3.5350970">
        <ele>511.8</ele>
        <time>2021-04-04T08:40:05Z</time>
      </trkpt>
      <trkpt lat="40.2316320" lon="-3.5350660">
        <ele>511.6</ele>
        <time>2021-04-04T08:40:06Z</time>
      </trkpt>
      <trkpt lat="40.2315670" lon="-3.5350330">
        <ele>511.4</ele>
        <time>2021-04-04T08:40:07Z</time>
      </trkpt>
      <trkpt lat="40.2315030" lon="-3.5349980">
        <ele>511.2</ele>
        <time>2021-04-04T08:40:08Z</time>
      </trkpt>
      <trkpt lat="40.2314410" lon="-3.5349600">
        <ele>511.0</ele>
        <time>2021-04-04T08:40:09Z</time>
      </trkpt>
      <trkpt lat="40.2313800" lon="-3.5349210">
        <ele>510.6</ele>
        <time>2021-04-04T08:40:10Z</time>
      </trkpt>
      <trkpt lat="40.2313160" lon="-3.5348800">
        <ele>510.4</ele>
        <time>2021-04-04T08:40:11Z</time>
      </trkpt>
      <trkpt lat="40.2312550" lon="-3.5348350">
        <ele>510.2</ele>
        <time>2021-04-04T08:40:12Z</time>
      </trkpt>
      <trkpt lat="40.2311900" lon="-3.5347890">
        <ele>510.0</ele>
        <time>2021-04-04T08:40:13Z</time>
      </trkpt>
      <trkpt lat="40.2311250" lon="-3.5347450">
        <ele>509.8</ele>
        <time>2021-04-04T08:40:14Z</time>
      </trkpt>
      <trkpt lat="40.2310600" lon="-3.5347010">
        <ele>509.6</ele>
        <time>2021-04-04T08:40:15Z</time>
      </trkpt>
      <trkpt lat="40.2309950" lon="-3.5346560">
        <ele>509.4</ele>
        <time>2021-04-04T08:40:16Z</time>
      </trkpt>
      <trkpt lat="40.2309270" lon="-3.5346090">
        <ele>509.2</ele>
        <time>2021-04-04T08:40:17Z</time>
      </trkpt>
      <trkpt lat="40.2308620" lon="-3.5345650">
        <ele>509.0</ele>
        <time>2021-04-04T08:40:18Z</time>
      </trkpt>
      <trkpt lat="40.2307890" lon="-3.5345270">
        <ele>508.8</ele>
        <time>2021-04-04T08:40:19Z</time>
      </trkpt>
      <trkpt lat="40.2307200" lon="-3.5344980">
        <ele>508.6</ele>
        <time>2021-04-04T08:40:20Z</time>
      </trkpt>
      <trkpt lat="40.2306480" lon="-3.5344810">
        <ele>508.4</ele>
        <time>2021-04-04T08:40:21Z</time>
      </trkpt>
      <trkpt lat="40.2305680" lon="-3.5344780">
        <ele>508.2</ele>
        <time>2021-04-04T08:40:22Z</time>
      </trkpt>
      <trkpt lat="40.2304880" lon="-3.5344900">
        <ele>508.2</ele>
        <time>2021-04-04T08:40:23Z</time>
      </trkpt>
      <trkpt lat="40.2304120" lon="-3.5345150">
        <ele>508.2</ele>
        <time>2021-04-04T08:40:24Z</time>
      </trkpt>
      <trkpt lat="40.2303390" lon="-3.5345490">
        <ele>508.2</ele>
        <time>2021-04-04T08:40:25Z</time>
      </trkpt>
      <trkpt lat="40.2302700" lon="-3.5345880">
        <ele>508.4</ele>
        <time>2021-04-04T08:40:26Z</time>
      </trkpt>
      <trkpt lat="40.2302020" lon="-3.5346330">
        <ele>508.4</ele>
        <time>2021-04-04T08:40:27Z</time>
      </trkpt>
      <trkpt lat="40.2301410" lon="-3.5346790">
        <ele>508.6</ele>
        <time>2021-04-04T08:40:28Z</time>
      </trkpt>
      <trkpt lat="40.2300830" lon="-3.5347230">
        <ele>508.8</ele>
        <time>2021-04-04T08:40:29Z</time>
      </trkpt>
      <trkpt lat="40.2300300" lon="-3.5347630">
        <ele>509.2</ele>
        <time>2021-04-04T08:40:30Z</time>
      </trkpt>
      <trkpt lat="40.2299800" lon="-3.5347990">
        <ele>509.4</ele>
        <time>2021-04-04T08:40:31Z</time>
      </trkpt>
      <trkpt lat="40.2299350" lon="-3.5348370">
        <ele>509.6</ele>
        <time>2021-04-04T08:40:32Z</time>
      </trkpt>
      <trkpt lat="40.2298890" lon="-3.5348780">
        <ele>509.8</ele>
        <time>2021-04-04T08:40:33Z</time>
      </trkpt>
      <trkpt lat="40.2298470" lon="-3.5349170">
        <ele>510.0</ele>
        <time>2021-04-04T08:40:34Z</time>
      </trkpt>
      <trkpt lat="40.2298050" lon="-3.5349530">
        <ele>510.2</ele>
        <time>2021-04-04T08:40:35Z</time>
      </trkpt>
      <trkpt lat="40.2297590" lon="-3.5349870">
        <ele>510.4</ele>
        <time>2021-04-04T08:40:36Z</time>
      </trkpt>
      <trkpt lat="40.2297130" lon="-3.5350210">
        <ele>510.6</ele>
        <time>2021-04-04T08:40:37Z</time>
      </trkpt>
      <trkpt lat="40.2296680" lon="-3.5350540">
        <ele>510.6</ele>
        <time>2021-04-04T08:40:38Z</time>
      </trkpt>
      <trkpt lat="40.2296260" lon="-3.5350860">
        <ele>510.8</ele>
        <time>2021-04-04T08:40:39Z</time>
      </trkpt>
      <trkpt lat="40.2295800" lon="-3.5351190">
        <ele>510.8</ele>
        <time>2021-04-04T08:40:40Z</time>
      </trkpt>
      <trkpt lat="40.2295380" lon="-3.5351520">
        <ele>510.8</ele>
        <time>2021-04-04T08:40:41Z</time>
      </trkpt>
      <trkpt lat="40.2294960" lon="-3.5351860">
        <ele>510.8</ele>
        <time>2021-04-04T08:40:42Z</time>
      </trkpt>
      <trkpt lat="40.2294500" lon="-3.5352210">
        <ele>510.8</ele>
        <time>2021-04-04T08:40:43Z</time>
      </trkpt>
      <trkpt lat="40.2294080" lon="-3.5352580">
        <ele>511.0</ele>
        <time>2021-04-04T08:40:44Z</time>
      </trkpt>
      <trkpt lat="40.2293660" lon="-3.5352960">
        <ele>511.0</ele>
        <time>2021-04-04T08:40:45Z</time>
      </trkpt>
      <trkpt lat="40.2293210" lon="-3.5353340">
        <ele>511.0</ele>
        <time>2021-04-04T08:40:46Z</time>
      </trkpt>
      <trkpt lat="40.2292790" lon="-3.5353740">
        <ele>511.2</ele>
        <time>2021-04-04T08:40:47Z</time>
      </trkpt>
      <trkpt lat="40.2292370" lon="-3.5354110">
        <ele>511.2</ele>
        <time>2021-04-04T08:40:48Z</time>
      </trkpt>
      <trkpt lat="40.2291910" lon="-3.5354470">
        <ele>511.2</ele>
        <time>2021-04-04T08:40:49Z</time>
      </trkpt>
      <trkpt lat="40.2291450" lon="-3.5354830">
        <ele>511.4</ele>
        <time>2021-04-04T08:40:50Z</time>
      </trkpt>
      <trkpt lat="40.2291030" lon="-3.5355190">
        <ele>511.4</ele>
        <time>2021-04-04T08:40:51Z</time>
      </trkpt>
      <trkpt lat="40.2290570" lon="-3.5355560">
        <ele>511.6</ele>
        <time>2021-04-04T08:40:52Z</time>
      </trkpt>
      <trkpt lat="40.2290080" lon="-3.5355960">
        <ele>511.6</ele>
        <time>2021-04-04T08:40:53Z</time>
      </trkpt>
      <trkpt lat="40.2289620" lon="-3.5356350">
        <ele>511.6</ele>
        <time>2021-04-04T08:40:54Z</time>
      </trkpt>
      <trkpt lat="40.2289120" lon="-3.5356730">
        <ele>511.8</ele>
        <time>2021-04-04T08:40:55Z</time>
      </trkpt>
      <trkpt lat="40.2288700" lon="-3.5357090">
        <ele>512.0</ele>
        <time>2021-04-04T08:40:56Z</time>
      </trkpt>
      <trkpt lat="40.2288280" lon="-3.5357460">
        <ele>512.0</ele>
        <time>2021-04-04T08:40:57Z</time>
      </trkpt>
      <trkpt lat="40.2287790" lon="-3.5357840">
        <ele>512.2</ele>
        <time>2021-04-04T08:40:58Z</time>
      </trkpt>
      <trkpt lat="40.2287370" lon="-3.5358190">
        <ele>512.2</ele>
        <time>2021-04-04T08:40:59Z</time>
      </trkpt>
      <trkpt lat="40.2286910" lon="-3.5358500">
        <ele>512.4</ele>
        <time>2021-04-04T08:41:00Z</time>
      </trkpt>
      <trkpt lat="40.2286490" lon="-3.5358780">
        <ele>512.4</ele>
        <time>2021-04-04T08:41:01Z</time>
      </trkpt>
      <trkpt lat="40.2286070" lon="-3.5359030">
        <ele>512.6</ele>
        <time>2021-04-04T08:41:02Z</time>
      </trkpt>
      <trkpt lat="40.2285610" lon="-3.5359280">
        <ele>512.8</ele>
        <time>2021-04-04T08:41:03Z</time>
      </trkpt>
      <trkpt lat="40.2285160" lon="-3.5359540">
        <ele>513.0</ele>
        <time>2021-04-04T08:41:04Z</time>
      </trkpt>
      <trkpt lat="40.2284740" lon="-3.5359810">
        <ele>513.0</ele>
        <time>2021-04-04T08:41:05Z</time>
      </trkpt>
      <trkpt lat="40.2284320" lon="-3.5360090">
        <ele>513.2</ele>
        <time>2021-04-04T08:41:06Z</time>
      </trkpt>
      <trkpt lat="40.2283900" lon="-3.5360380">
        <ele>513.4</ele>
        <time>2021-04-04T08:41:07Z</time>
      </trkpt>
      <trkpt lat="40.2283440" lon="-3.5360650">
        <ele>513.4</ele>
        <time>2021-04-04T08:41:08Z</time>
      </trkpt>
      <trkpt lat="40.2283020" lon="-3.5360940">
        <ele>513.6</ele>
        <time>2021-04-04T08:41:09Z</time>
      </trkpt>
      <trkpt lat="40.2282640" lon="-3.5361250">
        <ele>513.8</ele>
        <time>2021-04-04T08:41:10Z</time>
      </trkpt>
      <trkpt lat="40.2282220" lon="-3.5361550">
        <ele>514.0</ele>
        <time>2021-04-04T08:41:11Z</time>
      </trkpt>
      <trkpt lat="40.2281800" lon="-3.5361860">
        <ele>514.0</ele>
        <time>2021-04-04T08:41:12Z</time>
      </trkpt>
      <trkpt lat="40.2281380" lon="-3.5362200">
        <ele>514.2</ele>
        <time>2021-04-04T08:41:13Z</time>
      </trkpt>
      <trkpt lat="40.2281000" lon="-3.5362520">
        <ele>514.4</ele>
        <time>2021-04-04T08:41:14Z</time>
      </trkpt>
      <trkpt lat="40.2280580" lon="-3.5362830">
        <ele>514.6</ele>
        <time>2021-04-04T08:41:15Z</time>
      </trkpt>
      <trkpt lat="40.2280160" lon="-3.5363150">
        <ele>514.8</ele>
        <time>2021-04-04T08:41:16Z</time>
      </trkpt>
      <trkpt lat="40.2279740" lon="-3.5363470">
        <ele>514.8</ele>
        <time>2021-04-04T08:41:17Z</time>
      </trkpt>
      <trkpt lat="40.2279360" lon="-3.5363790">
        <ele>515.0</ele>
        <time>2021-04-04T08:41:18Z</time>
      </trkpt>
      <trkpt lat="40.2278940" lon="-3.5364150">
        <ele>515.2</ele>
        <time>2021-04-04T08:41:19Z</time>
      </trkpt>
      <trkpt lat="40.2278520" lon="-3.5364480">
        <ele>515.2</ele>
        <time>2021-04-04T08:41:20Z</time>
      </trkpt>
      <trkpt lat="40.2278140" lon="-3.5364810">
        <ele>515.4</ele>
        <time>2021-04-04T08:41:21Z</time>
      </trkpt>
      <trkpt lat="40.2277720" lon="-3.5365160">
        <ele>515.4</ele>
        <time>2021-04-04T08:41:22Z</time>
      </trkpt>
      <trkpt lat="40.2277300" lon="-3.5365510">
        <ele>515.4</ele>
        <time>2021-04-04T08:41:23Z</time>
      </trkpt>
      <trkpt lat="40.2276880" lon="-3.5365820">
        <ele>515.6</ele>
        <time>2021-04-04T08:41:24Z</time>
      </trkpt>
      <trkpt lat="40.2276460" lon="-3.5366150">
        <ele>515.6</ele>
        <time>2021-04-04T08:41:25Z</time>
      </trkpt>
      <trkpt lat="40.2276040" lon="-3.5366490">
        <ele>515.6</ele>
        <time>2021-04-04T08:41:26Z</time>
      </trkpt>
      <trkpt lat="40.2275580" lon="-3.5366800">
        <ele>515.8</ele>
        <time>2021-04-04T08:41:27Z</time>
      </trkpt>
      <trkpt lat="40.2275120" lon="-3.5367090">
        <ele>515.8</ele>
        <time>2021-04-04T08:41:28Z</time>
      </trkpt>
      <trkpt lat="40.2274670" lon="-3.5367330">
        <ele>515.8</ele>
        <time>2021-04-04T08:41:29Z</time>
      </trkpt>
      <trkpt lat="40.2274210" lon="-3.5367550">
        <ele>515.8</ele>
        <time>2021-04-04T08:41:30Z</time>
      </trkpt>
      <trkpt lat="40.2273750" lon="-3.5367740">
        <ele>515.8</ele>
        <time>2021-04-04T08:41:31Z</time>
      </trkpt>
      <trkpt lat="40.2273330" lon="-3.5367930">
        <ele>515.8</ele>
        <time>2021-04-04T08:41:32Z</time>
      </trkpt>
      <trkpt lat="40.2272910" lon="-3.5368110">
        <ele>515.8</ele>
        <time>2021-04-04T08:41:33Z</time>
      </trkpt>
      <trkpt lat="40.2272410" lon="-3.5368270">
        <ele>515.6</ele>
        <time>2021-04-04T08:41:34Z</time>
      </trkpt>
      <trkpt lat="40.2272000" lon="-3.5368420">
        <ele>515.6</ele>
        <time>2021-04-04T08:41:35Z</time>
      </trkpt>
      <trkpt lat="40.2271540" lon="-3.5368550">
        <ele>515.4</ele>
        <time>2021-04-04T08:41:36Z</time>
      </trkpt>
      <trkpt lat="40.2271080" lon="-3.5368700">
        <ele>515.2</ele>
        <time>2021-04-04T08:41:37Z</time>
      </trkpt>
      <trkpt lat="40.2270620" lon="-3.5368870">
        <ele>514.8</ele>
        <time>2021-04-04T08:41:38Z</time>
      </trkpt>
      <trkpt lat="40.2270130" lon="-3.5369070">
        <ele>514.6</ele>
        <time>2021-04-04T08:41:39Z</time>
      </trkpt>
      <trkpt lat="40.2269590" lon="-3.5369310">
        <ele>514.2</ele>
        <time>2021-04-04T08:41:40Z</time>
      </trkpt>
      <trkpt lat="40.2269060" lon="-3.5369560">
        <ele>514.0</ele>
        <time>2021-04-04T08:41:41Z</time>
      </trkpt>
      <trkpt lat="40.2268520" lon="-3.5369860">
        <ele>513.6</ele>
        <time>2021-04-04T08:41:42Z</time>
      </trkpt>
      <trkpt lat="40.2267990" lon="-3.5370210">
        <ele>513.4</ele>
        <time>2021-04-04T08:41:43Z</time>
      </trkpt>
      <trkpt lat="40.2267460" lon="-3.5370620">
        <ele>513.2</ele>
        <time>2021-04-04T08:41:44Z</time>
      </trkpt>
      <trkpt lat="40.2266920" lon="-3.5371090">
        <ele>512.8</ele>
        <time>2021-04-04T08:41:45Z</time>
      </trkpt>
      <trkpt lat="40.2266430" lon="-3.5371550">
        <ele>512.6</ele>
        <time>2021-04-04T08:41:46Z</time>
      </trkpt>
      <trkpt lat="40.2265930" lon="-3.5372010">
        <ele>512.4</ele>
        <time>2021-04-04T08:41:47Z</time>
      </trkpt>
      <trkpt lat="40.2265470" lon="-3.5372480">
        <ele>512.2</ele>
        <time>2021-04-04T08:41:48Z</time>
      </trkpt>
      <trkpt lat="40.2265050" lon="-3.5372920">
        <ele>512.0</ele>
        <time>2021-04-04T08:41:49Z</time>
      </trkpt>
      <trkpt lat="40.2264560" lon="-3.5373340">
        <ele>511.8</ele>
        <time>2021-04-04T08:41:50Z</time>
      </trkpt>
      <trkpt lat="40.2264100" lon="-3.5373750">
        <ele>511.8</ele>
        <time>2021-04-04T08:41:51Z</time>
      </trkpt>
      <trkpt lat="40.2263640" lon="-3.5374150">
        <ele>511.6</ele>
        <time>2021-04-04T08:41:52Z</time>
      </trkpt>
      <trkpt lat="40.2263180" lon="-3.5374510">
        <ele>511.4</ele>
        <time>2021-04-04T08:41:53Z</time>
      </trkpt>
      <trkpt lat="40.2262690" lon="-3.5374870">
        <ele>511.4</ele>
        <time>2021-04-04T08:41:54Z</time>
      </trkpt>
      <trkpt lat="40.2262190" lon="-3.5375280">
        <ele>511.2</ele>
        <time>2021-04-04T08:41:55Z</time>
      </trkpt>
      <trkpt lat="40.2261730" lon="-3.5375720">
        <ele>511.2</ele>
        <time>2021-04-04T08:41:56Z</time>
      </trkpt>
      <trkpt lat="40.2261240" lon="-3.5376160">
        <ele>511.0</ele>
        <time>2021-04-04T08:41:57Z</time>
      </trkpt>
      <trkpt lat="40.2260740" lon="-3.5376620">
        <ele>511.0</ele>
        <time>2021-04-04T08:41:58Z</time>
      </trkpt>
      <trkpt lat="40.2260250" lon="-3.5377090">
        <ele>510.8</ele>
        <time>2021-04-04T08:41:59Z</time>
      </trkpt>
      <trkpt lat="40.2259750" lon="-3.5377580">
        <ele>510.8</ele>
        <time>2021-04-04T08:42:00Z</time>
      </trkpt>
      <trkpt lat="40.2259250" lon="-3.5378080">
        <ele>510.8</ele>
        <time>2021-04-04T08:42:01Z</time>
      </trkpt>
      <trkpt lat="40.2258760" lon="-3.5378590">
        <ele>510.8</ele>
        <time>2021-04-04T08:42:02Z</time>
      </trkpt>
      <trkpt lat="40.2258300" lon="-3.5379090">
        <ele>510.8</ele>
        <time>2021-04-04T08:42:03Z</time>
      </trkpt>
      <trkpt lat="40.2257880" lon="-3.5379560">
        <ele>511.0</ele>
        <time>2021-04-04T08:42:04Z</time>
      </trkpt>
      <trkpt lat="40.2257420" lon="-3.5380020">
        <ele>511.0</ele>
        <time>2021-04-04T08:42:05Z</time>
      </trkpt>
      <trkpt lat="40.2257000" lon="-3.5380490">
        <ele>511.2</ele>
        <time>2021-04-04T08:42:06Z</time>
      </trkpt>
      <trkpt lat="40.2256580" lon="-3.5380970">
        <ele>511.2</ele>
        <time>2021-04-04T08:42:07Z</time>
      </trkpt>
      <trkpt lat="40.2256200" lon="-3.5381440">
        <ele>511.4</ele>
        <time>2021-04-04T08:42:08Z</time>
      </trkpt>
      <trkpt lat="40.2255780" lon="-3.5381870">
        <ele>511.6</ele>
        <time>2021-04-04T08:42:09Z</time>
      </trkpt>
      <trkpt lat="40.2255360" lon="-3.5382280">
        <ele>511.8</ele>
        <time>2021-04-04T08:42:10Z</time>
      </trkpt>
      <trkpt lat="40.2254980" lon="-3.5382670">
        <ele>512.0</ele>
        <time>2021-04-04T08:42:11Z</time>
      </trkpt>
      <trkpt lat="40.2254600" lon="-3.5383030">
        <ele>512.2</ele>
        <time>2021-04-04T08:42:12Z</time>
      </trkpt>
      <trkpt lat="40.2254220" lon="-3.5383360">
        <ele>512.4</ele>
        <time>2021-04-04T08:42:13Z</time>
      </trkpt>
      <trkpt lat="40.2253840" lon="-3.5383680">
        <ele>512.6</ele>
        <time>2021-04-04T08:42:14Z</time>
      </trkpt>
      <trkpt lat="40.2253460" lon="-3.5383940">
        <ele>512.8</ele>
        <time>2021-04-04T08:42:15Z</time>
      </trkpt>
      <trkpt lat="40.2253040" lon="-3.5384200">
        <ele>513.0</ele>
        <time>2021-04-04T08:42:16Z</time>
      </trkpt>
      <trkpt lat="40.2252620" lon="-3.5384440">
        <ele>513.2</ele>
        <time>2021-04-04T08:42:17Z</time>
      </trkpt>
      <trkpt lat="40.2252200" lon="-3.5384670">
        <ele>513.4</ele>
        <time>2021-04-04T08:42:18Z</time>
      </trkpt>
      <trkpt lat="40.2251740" lon="-3.5384880">
        <ele>513.4</ele>
        <time>2021-04-04T08:42:19Z</time>
      </trkpt>
      <trkpt lat="40.2251280" lon="-3.5385100">
        <ele>513.6</ele>
        <time>2021-04-04T08:42:20Z</time>
      </trkpt>
      <trkpt lat="40.2250820" lon="-3.5385310">
        <ele>513.6</ele>
        <time>2021-04-04T08:42:21Z</time>
      </trkpt>
      <trkpt lat="40.2250370" lon="-3.5385500">
        <ele>513.8</ele>
        <time>2021-04-04T08:42:22Z</time>
      </trkpt>
      <trkpt lat="40.2249910" lon="-3.5385680">
        <ele>513.8</ele>
        <time>2021-04-04T08:42:23Z</time>
      </trkpt>
      <trkpt lat="40.2249450" lon="-3.5385790">
        <ele>513.8</ele>
        <time>2021-04-04T08:42:24Z</time>
      </trkpt>
      <trkpt lat="40.2248950" lon="-3.5385840">
        <ele>513.8</ele>
        <time>2021-04-04T08:42:25Z</time>
      </trkpt>
      <trkpt lat="40.2248460" lon="-3.5385890">
        <ele>513.8</ele>
        <time>2021-04-04T08:42:26Z</time>
      </trkpt>
      <trkpt lat="40.2247890" lon="-3.5385930">
        <ele>513.6</ele>
        <time>2021-04-04T08:42:27Z</time>
      </trkpt>
      <trkpt lat="40.2247310" lon="-3.5385940">
        <ele>513.4</ele>
        <time>2021-04-04T08:42:28Z</time>
      </trkpt>
      <trkpt lat="40.2246700" lon="-3.5385910">
        <ele>513.4</ele>
        <time>2021-04-04T08:42:29Z</time>
      </trkpt>
      <trkpt lat="40.2246130" lon="-3.5385910">
        <ele>513.2</ele>
        <time>2021-04-04T08:42:30Z</time>
      </trkpt>
      <trkpt lat="40.2245520" lon="-3.5385920">
        <ele>513.0</ele>
        <time>2021-04-04T08:42:31Z</time>
      </trkpt>
      <trkpt lat="40.2244910" lon="-3.5385920">
        <ele>513.0</ele>
        <time>2021-04-04T08:42:32Z</time>
      </trkpt>
      <trkpt lat="40.2244340" lon="-3.5385930">
        <ele>512.8</ele>
        <time>2021-04-04T08:42:33Z</time>
      </trkpt>
      <trkpt lat="40.2243730" lon="-3.5385950">
        <ele>512.6</ele>
        <time>2021-04-04T08:42:34Z</time>
      </trkpt>
      <trkpt lat="40.2243160" lon="-3.5385990">
        <ele>512.6</ele>
        <time>2021-04-04T08:42:35Z</time>
      </trkpt>
      <trkpt lat="40.2242550" lon="-3.5386040">
        <ele>512.4</ele>
        <time>2021-04-04T08:42:36Z</time>
      </trkpt>
      <trkpt lat="40.2241970" lon="-3.5386100">
        <ele>512.4</ele>
        <time>2021-04-04T08:42:37Z</time>
      </trkpt>
      <trkpt lat="40.2241440" lon="-3.5386180">
        <ele>512.4</ele>
        <time>2021-04-04T08:42:38Z</time>
      </trkpt>
      <trkpt lat="40.2240910" lon="-3.5386270">
        <ele>512.4</ele>
        <time>2021-04-04T08:42:39Z</time>
      </trkpt>
      <trkpt lat="40.2240410" lon="-3.5386380">
        <ele>512.6</ele>
        <time>2021-04-04T08:42:40Z</time>
      </trkpt>
      <trkpt lat="40.2239910" lon="-3.5386520">
        <ele>512.6</ele>
        <time>2021-04-04T08:42:41Z</time>
      </trkpt>
      <trkpt lat="40.2239420" lon="-3.5386660">
        <ele>512.8</ele>
        <time>2021-04-04T08:42:42Z</time>
      </trkpt>
      <trkpt lat="40.2238960" lon="-3.5386770">
        <ele>512.8</ele>
        <time>2021-04-04T08:42:43Z</time>
      </trkpt>
      <trkpt lat="40.2238460" lon="-3.5386880">
        <ele>513.0</ele>
        <time>2021-04-04T08:42:44Z</time>
      </trkpt>
      <trkpt lat="40.2238010" lon="-3.5387000">
        <ele>513.2</ele>
        <time>2021-04-04T08:42:45Z</time>
      </trkpt>
      <trkpt lat="40.2237550" lon="-3.5387130">
        <ele>513.2</ele>
        <time>2021-04-04T08:42:46Z</time>
      </trkpt>
      <trkpt lat="40.2237050" lon="-3.5387240">
        <ele>513.4</ele>
        <time>2021-04-04T08:42:47Z</time>
      </trkpt>
      <trkpt lat="40.2236590" lon="-3.5387360">
        <ele>513.4</ele>
        <time>2021-04-04T08:42:48Z</time>
      </trkpt>
      <trkpt lat="40.2236100" lon="-3.5387480">
        <ele>513.6</ele>
        <time>2021-04-04T08:42:49Z</time>
      </trkpt>
      <trkpt lat="40.2235640" lon="-3.5387600">
        <ele>513.8</ele>
        <time>2021-04-04T08:42:50Z</time>
      </trkpt>
      <trkpt lat="40.2235150" lon="-3.5387730">
        <ele>513.8</ele>
        <time>2021-04-04T08:42:51Z</time>
      </trkpt>
      <trkpt lat="40.2234690" lon="-3.5387860">
        <ele>514.0</ele>
        <time>2021-04-04T08:42:52Z</time>
      </trkpt>
      <trkpt lat="40.2234270" lon="-3.5388040">
        <ele>514.2</ele>
        <time>2021-04-04T08:42:53Z</time>
      </trkpt>
      <trkpt lat="40.2233810" lon="-3.5388220">
        <ele>514.2</ele>
        <time>2021-04-04T08:42:54Z</time>
      </trkpt>
      <trkpt lat="40.2233390" lon="-3.5388410">
        <ele>514.4</ele>
        <time>2021-04-04T08:42:55Z</time>
      </trkpt>
      <trkpt lat="40.2232970" lon="-3.5388610">
        <ele>514.6</ele>
        <time>2021-04-04T08:42:56Z</time>
      </trkpt>
      <trkpt lat="40.2232550" lon="-3.5388820">
        <ele>514.8</ele>
        <time>2021-04-04T08:42:57Z</time>
      </trkpt>
      <trkpt lat="40.2232170" lon="-3.5389030">
        <ele>515.0</ele>
        <time>2021-04-04T08:42:58Z</time>
      </trkpt>
      <trkpt lat="40.2231750" lon="-3.5389240">
        <ele>515.2</ele>
        <time>2021-04-04T08:42:59Z</time>
      </trkpt>
      <trkpt lat="40.2231410" lon="-3.5389470">
        <ele>515.4</ele>
        <time>2021-04-04T08:43:00Z</time>
      </trkpt>
      <trkpt lat="40.2231030" lon="-3.5389700">
        <ele>515.6</ele>
        <time>2021-04-04T08:43:01Z</time>
      </trkpt>
      <trkpt lat="40.2230680" lon="-3.5389940">
        <ele>515.8</ele>
        <time>2021-04-04T08:43:02Z</time>
      </trkpt>
      <trkpt lat="40.2230300" lon="-3.5390190">
        <ele>516.0</ele>
        <time>2021-04-04T08:43:03Z</time>
      </trkpt>
      <trkpt lat="40.2229960" lon="-3.5390400">
        <ele>516.2</ele>
        <time>2021-04-04T08:43:04Z</time>
      </trkpt>
      <trkpt lat="40.2229580" lon="-3.5390620">
        <ele>516.4</ele>
        <time>2021-04-04T08:43:05Z</time>
      </trkpt>
      <trkpt lat="40.2229190" lon="-3.5390830">
        <ele>516.4</ele>
        <time>2021-04-04T08:43:06Z</time>
      </trkpt>
      <trkpt lat="40.2228810" lon="-3.5391050">
        <ele>516.4</ele>
        <time>2021-04-04T08:43:07Z</time>
      </trkpt>
      <trkpt lat="40.2228390" lon="-3.5391250">
        <ele>516.4</ele>
        <time>2021-04-04T08:43:08Z</time>
      </trkpt>
      <trkpt lat="40.2227940" lon="-3.5391430">
        <ele>516.4</ele>
        <time>2021-04-04T08:43:09Z</time>
      </trkpt>
      <trkpt lat="40.2227480" lon="-3.5391600">
        <ele>516.4</ele>
        <time>2021-04-04T08:43:10Z</time>
      </trkpt>
      <trkpt lat="40.2226980" lon="-3.5391750">
        <ele>516.2</ele>
        <time>2021-04-04T08:43:11Z</time>
      </trkpt>
      <trkpt lat="40.2226490" lon="-3.5391860">
        <ele>516.2</ele>
        <time>2021-04-04T08:43:12Z</time>
      </trkpt>
      <trkpt lat="40.2225990" lon="-3.5391950">
        <ele>516.0</ele>
        <time>2021-04-04T08:43:13Z</time>
      </trkpt>
      <trkpt lat="40.2225460" lon="-3.5392040">
        <ele>515.8</ele>
        <time>2021-04-04T08:43:14Z</time>
      </trkpt>
      <trkpt lat="40.2224920" lon="-3.5392140">
        <ele>515.6</ele>
        <time>2021-04-04T08:43:15Z</time>
      </trkpt>
      <trkpt lat="40.2224430" lon="-3.5392250">
        <ele>515.4</ele>
        <time>2021-04-04T08:43:16Z</time>
      </trkpt>
      <trkpt lat="40.2223890" lon="-3.5392360">
        <ele>515.2</ele>
        <time>2021-04-04T08:43:17Z</time>
      </trkpt>
      <trkpt lat="40.2223320" lon="-3.5392470">
        <ele>515.0</ele>
        <time>2021-04-04T08:43:18Z</time>
      </trkpt>
      <trkpt lat="40.2222790" lon="-3.5392600">
        <ele>514.8</ele>
        <time>2021-04-04T08:43:19Z</time>
      </trkpt>
      <trkpt lat="40.2222250" lon="-3.5392750">
        <ele>514.8</ele>
        <time>2021-04-04T08:43:20Z</time>
      </trkpt>
      <trkpt lat="40.2221720" lon="-3.5392920">
        <ele>514.6</ele>
        <time>2021-04-04T08:43:21Z</time>
      </trkpt>
      <trkpt lat="40.2221180" lon="-3.5393120">
        <ele>514.4</ele>
        <time>2021-04-04T08:43:22Z</time>
      </trkpt>
      <trkpt lat="40.2220650" lon="-3.5393380">
        <ele>514.2</ele>
        <time>2021-04-04T08:43:23Z</time>
      </trkpt>
      <trkpt lat="40.2220120" lon="-3.5393720">
        <ele>514.2</ele>
        <time>2021-04-04T08:43:24Z</time>
      </trkpt>
      <trkpt lat="40.2219620" lon="-3.5394130">
        <ele>514.0</ele>
        <time>2021-04-04T08:43:25Z</time>
      </trkpt>
      <trkpt lat="40.2219240" lon="-3.5394650">
        <ele>513.8</ele>
        <time>2021-04-04T08:43:26Z</time>
      </trkpt>
      <trkpt lat="40.2218890" lon="-3.5395240">
        <ele>513.6</ele>
        <time>2021-04-04T08:43:27Z</time>
      </trkpt>
      <trkpt lat="40.2218590" lon="-3.5395880">
        <ele>513.6</ele>
        <time>2021-04-04T08:43:28Z</time>
      </trkpt>
      <trkpt lat="40.2218360" lon="-3.5396570">
        <ele>513.4</ele>
        <time>2021-04-04T08:43:29Z</time>
      </trkpt>
      <trkpt lat="40.2218170" lon="-3.5397260">
        <ele>513.2</ele>
        <time>2021-04-04T08:43:30Z</time>
      </trkpt>
      <trkpt lat="40.2217900" lon="-3.5397940">
        <ele>513.2</ele>
        <time>2021-04-04T08:43:31Z</time>
      </trkpt>
      <trkpt lat="40.2217670" lon="-3.5398630">
        <ele>513.0</ele>
        <time>2021-04-04T08:43:32Z</time>
      </trkpt>
      <trkpt lat="40.2217450" lon="-3.5399370">
        <ele>512.8</ele>
        <time>2021-04-04T08:43:33Z</time>
      </trkpt>
      <trkpt lat="40.2217220" lon="-3.5400140">
        <ele>512.4</ele>
        <time>2021-04-04T08:43:34Z</time>
      </trkpt>
      <trkpt lat="40.2216950" lon="-3.5400940">
        <ele>512.0</ele>
        <time>2021-04-04T08:43:35Z</time>
      </trkpt>
      <trkpt lat="40.2216640" lon="-3.5401750">
        <ele>511.6</ele>
        <time>2021-04-04T08:43:36Z</time>
      </trkpt>
      <trkpt lat="40.2216260" lon="-3.5402560">
        <ele>511.2</ele>
        <time>2021-04-04T08:43:37Z</time>
      </trkpt>
      <trkpt lat="40.2215840" lon="-3.5403330">
        <ele>510.8</ele>
        <time>2021-04-04T08:43:38Z</time>
      </trkpt>
      <trkpt lat="40.2215350" lon="-3.5404020">
        <ele>510.4</ele>
        <time>2021-04-04T08:43:39Z</time>
      </trkpt>
      <trkpt lat="40.2214780" lon="-3.5404610">
        <ele>510.0</ele>
        <time>2021-04-04T08:43:40Z</time>
      </trkpt>
      <trkpt lat="40.2214200" lon="-3.5405100">
        <ele>509.6</ele>
        <time>2021-04-04T08:43:41Z</time>
      </trkpt>
      <trkpt lat="40.2213550" lon="-3.5405520">
        <ele>509.2</ele>
        <time>2021-04-04T08:43:42Z</time>
      </trkpt>
      <trkpt lat="40.2212870" lon="-3.5405880">
        <ele>509.0</ele>
        <time>2021-04-04T08:43:43Z</time>
      </trkpt>
      <trkpt lat="40.2212260" lon="-3.5406210">
        <ele>508.6</ele>
        <time>2021-04-04T08:43:44Z</time>
      </trkpt>
      <trkpt lat="40.2211570" lon="-3.5406520">
        <ele>508.4</ele>
        <time>2021-04-04T08:43:45Z</time>
      </trkpt>
      <trkpt lat="40.2210960" lon="-3.5406800">
        <ele>508.2</ele>
        <time>2021-04-04T08:43:46Z</time>
      </trkpt>
      <trkpt lat="40.2210350" lon="-3.5407060">
        <ele>508.0</ele>
        <time>2021-04-04T08:43:47Z</time>
      </trkpt>
      <trkpt lat="40.2209700" lon="-3.5407310">
        <ele>507.8</ele>
        <time>2021-04-04T08:43:48Z</time>
      </trkpt>
      <trkpt lat="40.2209090" lon="-3.5407560">
        <ele>507.8</ele>
        <time>2021-04-04T08:43:49Z</time>
      </trkpt>
      <trkpt lat="40.2208480" lon="-3.5407830">
        <ele>507.6</ele>
        <time>2021-04-04T08:43:50Z</time>
      </trkpt>
      <trkpt lat="40.2207910" lon="-3.5408120">
        <ele>507.4</ele>
        <time>2021-04-04T08:43:51Z</time>
      </trkpt>
      <trkpt lat="40.2207340" lon="-3.5408450">
        <ele>507.4</ele>
        <time>2021-04-04T08:43:52Z</time>
      </trkpt>
      <trkpt lat="40.2206800" lon="-3.5408820">
        <ele>507.2</ele>
        <time>2021-04-04T08:43:53Z</time>
      </trkpt>
      <trkpt lat="40.2206270" lon="-3.5409220">
        <ele>507.2</ele>
        <time>2021-04-04T08:43:54Z</time>
      </trkpt>
      <trkpt lat="40.2205770" lon="-3.5409640">
        <ele>507.2</ele>
        <time>2021-04-04T08:43:55Z</time>
      </trkpt>
      <trkpt lat="40.2205280" lon="-3.5410100">
        <ele>507.2</ele>
        <time>2021-04-04T08:43:56Z</time>
      </trkpt>
      <trkpt lat="40.2204860" lon="-3.5410580">
        <ele>507.2</ele>
        <time>2021-04-04T08:43:57Z</time>
      </trkpt>
      <trkpt lat="40.2204440" lon="-3.5411090">
        <ele>507.2</ele>
        <time>2021-04-04T08:43:58Z</time>
      </trkpt>
      <trkpt lat="40.2204090" lon="-3.5411630">
        <ele>507.2</ele>
        <time>2021-04-04T08:43:59Z</time>
      </trkpt>
      <trkpt lat="40.2203750" lon="-3.5412190">
        <ele>507.2</ele>
        <time>2021-04-04T08:44:00Z</time>
      </trkpt>
      <trkpt lat="40.2203450" lon="-3.5412780">
        <ele>507.2</ele>
        <time>2021-04-04T08:44:01Z</time>
      </trkpt>
      <trkpt lat="40.2203140" lon="-3.5413380">
        <ele>507.4</ele>
        <time>2021-04-04T08:44:02Z</time>
      </trkpt>
      <trkpt lat="40.2202840" lon="-3.5413950">
        <ele>507.4</ele>
        <time>2021-04-04T08:44:03Z</time>
      </trkpt>
      <trkpt lat="40.2202570" lon="-3.5414510">
        <ele>507.4</ele>
        <time>2021-04-04T08:44:04Z</time>
      </trkpt>
      <trkpt lat="40.2202220" lon="-3.5415090">
        <ele>507.4</ele>
        <time>2021-04-04T08:44:05Z</time>
      </trkpt>
      <trkpt lat="40.2201920" lon="-3.5415680">
        <ele>507.4</ele>
        <time>2021-04-04T08:44:06Z</time>
      </trkpt>
      <trkpt lat="40.2201580" lon="-3.5416270">
        <ele>507.4</ele>
        <time>2021-04-04T08:44:07Z</time>
      </trkpt>
      <trkpt lat="40.2201270" lon="-3.5416880">
        <ele>507.4</ele>
        <time>2021-04-04T08:44:08Z</time>
      </trkpt>
      <trkpt lat="40.2200930" lon="-3.5417490">
        <ele>507.2</ele>
        <time>2021-04-04T08:44:09Z</time>
      </trkpt>
      <trkpt lat="40.2200580" lon="-3.5418120">
        <ele>507.2</ele>
        <time>2021-04-04T08:44:10Z</time>
      </trkpt>
      <trkpt lat="40.2200240" lon="-3.5418730">
        <ele>507.2</ele>
        <time>2021-04-04T08:44:11Z</time>
      </trkpt>
      <trkpt lat="40.2199900" lon="-3.5419350">
        <ele>507.0</ele>
        <time>2021-04-04T08:44:12Z</time>
      </trkpt>
      <trkpt lat="40.2199550" lon="-3.5419970">
        <ele>507.0</ele>
        <time>2021-04-04T08:44:13Z</time>
      </trkpt>
      <trkpt lat="40.2199210" lon="-3.5420520">
        <ele>507.0</ele>
        <time>2021-04-04T08:44:14Z</time>
      </trkpt>
      <trkpt lat="40.2198870" lon="-3.5421050">
        <ele>507.0</ele>
        <time>2021-04-04T08:44:15Z</time>
      </trkpt>
      <trkpt lat="40.2198560" lon="-3.5421520">
        <ele>507.0</ele>
        <time>2021-04-04T08:44:16Z</time>
      </trkpt>
      <trkpt lat="40.2198220" lon="-3.5421960">
        <ele>507.0</ele>
        <time>2021-04-04T08:44:17Z</time>
      </trkpt>
      <trkpt lat="40.2197880" lon="-3.5422380">
        <ele>507.0</ele>
        <time>2021-04-04T08:44:18Z</time>
      </trkpt>
      <trkpt lat="40.2197530" lon="-3.5422800">
        <ele>507.0</ele>
        <time>2021-04-04T08:44:19Z</time>
      </trkpt>
      <trkpt lat="40.2197190" lon="-3.5423230">
        <ele>507.0</ele>
        <time>2021-04-04T08:44:20Z</time>
      </trkpt>
      <trkpt lat="40.2196880" lon="-3.5423630">
        <ele>507.0</ele>
        <time>2021-04-04T08:44:21Z</time>
      </trkpt>
      <trkpt lat="40.2196620" lon="-3.5424010">
        <ele>507.0</ele>
        <time>2021-04-04T08:44:22Z</time>
      </trkpt>
      <trkpt lat="40.2196310" lon="-3.5424370">
        <ele>507.0</ele>
        <time>2021-04-04T08:44:23Z</time>
      </trkpt>
      <trkpt lat="40.2196040" lon="-3.5424700">
        <ele>507.0</ele>
        <time>2021-04-04T08:44:24Z</time>
      </trkpt>
      <trkpt lat="40.2195780" lon="-3.5425010">
        <ele>507.0</ele>
        <time>2021-04-04T08:44:25Z</time>
      </trkpt>
      <trkpt lat="40.2195550" lon="-3.5425310">
        <ele>507.0</ele>
        <time>2021-04-04T08:44:26Z</time>
      </trkpt>
      <trkpt lat="40.2195320" lon="-3.5425590">
        <ele>507.0</ele>
        <time>2021-04-04T08:44:27Z</time>
      </trkpt>
      <trkpt lat="40.2195050" lon="-3.5425860">
        <ele>507.0</ele>
        <time>2021-04-04T08:44:28Z</time>
      </trkpt>
      <trkpt lat="40.2194790" lon="-3.5426140">
        <ele>506.8</ele>
        <time>2021-04-04T08:44:29Z</time>
      </trkpt>
      <trkpt lat="40.2194520" lon="-3.5426430">
        <ele>506.8</ele>
        <time>2021-04-04T08:44:30Z</time>
      </trkpt>
      <trkpt lat="40.2194250" lon="-3.5426740">
        <ele>506.8</ele>
        <time>2021-04-04T08:44:31Z</time>
      </trkpt>
      <trkpt lat="40.2193910" lon="-3.5427060">
        <ele>506.8</ele>
        <time>2021-04-04T08:44:32Z</time>
      </trkpt>
      <trkpt lat="40.2193600" lon="-3.5427380">
        <ele>506.8</ele>
        <time>2021-04-04T08:44:33Z</time>
      </trkpt>
      <trkpt lat="40.2193340" lon="-3.5427680">
        <ele>506.8</ele>
        <time>2021-04-04T08:44:34Z</time>
      </trkpt>
      <trkpt lat="40.2193070" lon="-3.5428000">
        <ele>506.8</ele>
        <time>2021-04-04T08:44:35Z</time>
      </trkpt>
      <trkpt lat="40.2192760" lon="-3.5428330">
        <ele>506.8</ele>
        <time>2021-04-04T08:44:36Z</time>
      </trkpt>
      <trkpt lat="40.2192420" lon="-3.5428660">
        <ele>506.8</ele>
        <time>2021-04-04T08:44:37Z</time>
      </trkpt>
      <trkpt lat="40.2192120" lon="-3.5428980">
        <ele>506.8</ele>
        <time>2021-04-04T08:44:38Z</time>
      </trkpt>
      <trkpt lat="40.2191810" lon="-3.5429340">
        <ele>506.8</ele>
        <time>2021-04-04T08:44:39Z</time>
      </trkpt>
      <trkpt lat="40.2191430" lon="-3.5429710">
        <ele>506.8</ele>
        <time>2021-04-04T08:44:40Z</time>
      </trkpt>
      <trkpt lat="40.2191050" lon="-3.5430100">
        <ele>506.6</ele>
        <time>2021-04-04T08:44:41Z</time>
      </trkpt>
      <trkpt lat="40.2190700" lon="-3.5430510">
        <ele>506.6</ele>
        <time>2021-04-04T08:44:42Z</time>
      </trkpt>
      <trkpt lat="40.2190320" lon="-3.5430920">
        <ele>506.6</ele>
        <time>2021-04-04T08:44:43Z</time>
      </trkpt>
      <trkpt lat="40.2189940" lon="-3.5431350">
        <ele>506.6</ele>
        <time>2021-04-04T08:44:44Z</time>
      </trkpt>
      <trkpt lat="40.2189560" lon="-3.5431780">
        <ele>506.6</ele>
        <time>2021-04-04T08:44:45Z</time>
      </trkpt>
      <trkpt lat="40.2189140" lon="-3.5432220">
        <ele>506.6</ele>
        <time>2021-04-04T08:44:46Z</time>
      </trkpt>
      <trkpt lat="40.2188760" lon="-3.5432670">
        <ele>506.4</ele>
        <time>2021-04-04T08:44:47Z</time>
      </trkpt>
      <trkpt lat="40.2188380" lon="-3.5433120">
        <ele>506.4</ele>
        <time>2021-04-04T08:44:48Z</time>
      </trkpt>
      <trkpt lat="40.2188000" lon="-3.5433580">
        <ele>506.4</ele>
        <time>2021-04-04T08:44:49Z</time>
      </trkpt>
      <trkpt lat="40.2187610" lon="-3.5434040">
        <ele>506.4</ele>
        <time>2021-04-04T08:44:50Z</time>
      </trkpt>
      <trkpt lat="40.2187200" lon="-3.5434490">
        <ele>506.4</ele>
        <time>2021-04-04T08:44:51Z</time>
      </trkpt>
      <trkpt lat="40.2186780" lon="-3.5434950">
        <ele>506.4</ele>
        <time>2021-04-04T08:44:52Z</time>
      </trkpt>
      <trkpt lat="40.2186390" lon="-3.5435410">
        <ele>506.4</ele>
        <time>2021-04-04T08:44:53Z</time>
      </trkpt>
      <trkpt lat="40.2185970" lon="-3.5435870">
        <ele>506.4</ele>
        <time>2021-04-04T08:44:54Z</time>
      </trkpt>
      <trkpt lat="40.2185550" lon="-3.5436330">
        <ele>506.4</ele>
        <time>2021-04-04T08:44:55Z</time>
      </trkpt>
      <trkpt lat="40.2185170" lon="-3.5436800">
        <ele>506.4</ele>
        <time>2021-04-04T08:44:56Z</time>
      </trkpt>
      <trkpt lat="40.2184750" lon="-3.5437250">
        <ele>506.4</ele>
        <time>2021-04-04T08:44:57Z</time>
      </trkpt>
      <trkpt lat="40.2184330" lon="-3.5437710">
        <ele>506.4</ele>
        <time>2021-04-04T08:44:58Z</time>
      </trkpt>
      <trkpt lat="40.2183910" lon="-3.5438180">
        <ele>506.4</ele>
        <time>2021-04-04T08:44:59Z</time>
      </trkpt>
      <trkpt lat="40.2183530" lon="-3.5438640">
        <ele>506.4</ele>
        <time>2021-04-04T08:45:00Z</time>
      </trkpt>
      <trkpt lat="40.2183110" lon="-3.5439090">
        <ele>506.6</ele>
        <time>2021-04-04T08:45:01Z</time>
      </trkpt>
      <trkpt lat="40.2182730" lon="-3.5439540">
        <ele>506.6</ele>
        <time>2021-04-04T08:45:02Z</time>
      </trkpt>
      <trkpt lat="40.2182310" lon="-3.5440000">
        <ele>506.6</ele>
        <time>2021-04-04T08:45:03Z</time>
      </trkpt>
      <trkpt lat="40.2181890" lon="-3.5440450">
        <ele>506.6</ele>
        <time>2021-04-04T08:45:04Z</time>
      </trkpt>
      <trkpt lat="40.2181510" lon="-3.5440880">
        <ele>506.6</ele>
        <time>2021-04-04T08:45:05Z</time>
      </trkpt>
      <trkpt lat="40.2181130" lon="-3.5441290">
        <ele>506.6</ele>
        <time>2021-04-04T08:45:06Z</time>
      </trkpt>
      <trkpt lat="40.2180750" lon="-3.5441710">
        <ele>506.6</ele>
        <time>2021-04-04T08:45:07Z</time>
      </trkpt>
      <trkpt lat="40.2180330" lon="-3.5442120">
        <ele>506.6</ele>
        <time>2021-04-04T08:45:08Z</time>
      </trkpt>
      <trkpt lat="40.2179950" lon="-3.5442530">
        <ele>506.4</ele>
        <time>2021-04-04T08:45:09Z</time>
      </trkpt>
      <trkpt lat="40.2179530" lon="-3.5442940">
        <ele>506.4</ele>
        <time>2021-04-04T08:45:10Z</time>
      </trkpt>
      <trkpt lat="40.2179180" lon="-3.5443320">
        <ele>506.4</ele>
        <time>2021-04-04T08:45:11Z</time>
      </trkpt>
      <trkpt lat="40.2178840" lon="-3.5443670">
        <ele>506.4</ele>
        <time>2021-04-04T08:45:12Z</time>
      </trkpt>
      <trkpt lat="40.2178540" lon="-3.5443970">
        <ele>506.4</ele>
        <time>2021-04-04T08:45:13Z</time>
      </trkpt>
      <trkpt lat="40.2178310" lon="-3.5444220">
        <ele>506.4</ele>
        <time>2021-04-04T08:45:14Z</time>
      </trkpt>
      <trkpt lat="40.2178080" lon="-3.5444450">
        <ele>506.4</ele>
        <time>2021-04-04T08:45:15Z</time>
      </trkpt>
      <trkpt lat="40.2177890" lon="-3.5444590">
        <ele>506.4</ele>
        <time>2021-04-04T08:45:16Z</time>
      </trkpt>
      <trkpt lat="40.2177730" lon="-3.5444680">
        <ele>506.4</ele>
        <time>2021-04-04T08:45:17Z</time>
      </trkpt>
      <trkpt lat="40.2177540" lon="-3.5444740">
        <ele>506.4</ele>
        <time>2021-04-04T08:45:18Z</time>
      </trkpt>
      <trkpt lat="40.2177430" lon="-3.5444800">
        <ele>506.4</ele>
        <time>2021-04-04T08:45:19Z</time>
      </trkpt>
      <trkpt lat="40.2177310" lon="-3.5444890">
        <ele>506.4</ele>
        <time>2021-04-04T08:45:20Z</time>
      </trkpt>
      <trkpt lat="40.2177200" lon="-3.5445000">
        <ele>506.4</ele>
        <time>2021-04-04T08:45:21Z</time>
      </trkpt>
      <trkpt lat="40.2177090" lon="-3.5445120">
        <ele>506.4</ele>
        <time>2021-04-04T08:45:22Z</time>
      </trkpt>
      <trkpt lat="40.2176970" lon="-3.5445260">
        <ele>506.4</ele>
        <time>2021-04-04T08:45:23Z</time>
      </trkpt>
      <trkpt lat="40.2176860" lon="-3.5445440">
        <ele>506.4</ele>
        <time>2021-04-04T08:45:24Z</time>
      </trkpt>
      <trkpt lat="40.2176700" lon="-3.5445600">
        <ele>506.4</ele>
        <time>2021-04-04T08:45:25Z</time>
      </trkpt>
      <trkpt lat="40.2176510" lon="-3.5445730">
        <ele>506.4</ele>
        <time>2021-04-04T08:45:26Z</time>
      </trkpt>
      <trkpt lat="40.2176320" lon="-3.5445850">
        <ele>506.4</ele>
        <time>2021-04-04T08:45:27Z</time>
      </trkpt>
      <trkpt lat="40.2176210" lon="-3.5445980">
        <ele>506.4</ele>
        <time>2021-04-04T08:45:28Z</time>
      </trkpt>
      <trkpt lat="40.2176090" lon="-3.5446100">
        <ele>506.4</ele>
        <time>2021-04-04T08:45:29Z</time>
      </trkpt>
      <trkpt lat="40.2175980" lon="-3.5446250">
        <ele>506.4</ele>
        <time>2021-04-04T08:45:30Z</time>
      </trkpt>
      <trkpt lat="40.2175870" lon="-3.5446430">
        <ele>506.4</ele>
        <time>2021-04-04T08:45:31Z</time>
      </trkpt>
      <trkpt lat="40.2175710" lon="-3.5446620">
        <ele>506.4</ele>
        <time>2021-04-04T08:45:32Z</time>
      </trkpt>
      <trkpt lat="40.2175560" lon="-3.5446770">
        <ele>506.2</ele>
        <time>2021-04-04T08:45:33Z</time>
      </trkpt>
      <trkpt lat="40.2175450" lon="-3.5446880">
        <ele>506.2</ele>
        <time>2021-04-04T08:45:34Z</time>
      </trkpt>
      <trkpt lat="40.2175290" lon="-3.5446960">
        <ele>506.2</ele>
        <time>2021-04-04T08:45:35Z</time>
      </trkpt>
      <trkpt lat="40.2175180" lon="-3.5447040">
        <ele>506.2</ele>
        <time>2021-04-04T08:45:36Z</time>
      </trkpt>
      <trkpt lat="40.2175060" lon="-3.5447140">
        <ele>506.2</ele>
        <time>2021-04-04T08:45:37Z</time>
      </trkpt>
      <trkpt lat="40.2174990" lon="-3.5447270">
        <ele>506.2</ele>
        <time>2021-04-04T08:45:38Z</time>
      </trkpt>
      <trkpt lat="40.2174910" lon="-3.5447400">
        <ele>506.2</ele>
        <time>2021-04-04T08:45:39Z</time>
      </trkpt>
      <trkpt lat="40.2174800" lon="-3.5447530">
        <ele>506.2</ele>
        <time>2021-04-04T08:45:40Z</time>
      </trkpt>
      <trkpt lat="40.2174680" lon="-3.5447660">
        <ele>506.2</ele>
        <time>2021-04-04T08:45:41Z</time>
      </trkpt>
      <trkpt lat="40.2174570" lon="-3.5447810">
        <ele>506.2</ele>
        <time>2021-04-04T08:45:42Z</time>
      </trkpt>
      <trkpt lat="40.2174420" lon="-3.5447950">
        <ele>506.2</ele>
        <time>2021-04-04T08:45:43Z</time>
      </trkpt>
      <trkpt lat="40.2174230" lon="-3.5448100">
        <ele>506.2</ele>
        <time>2021-04-04T08:45:44Z</time>
      </trkpt>
      <trkpt lat="40.2174070" lon="-3.5448280">
        <ele>506.2</ele>
        <time>2021-04-04T08:45:45Z</time>
      </trkpt>
      <trkpt lat="40.2173960" lon="-3.5448510">
        <ele>506.2</ele>
        <time>2021-04-04T08:45:46Z</time>
      </trkpt>
      <trkpt lat="40.2173810" lon="-3.5448730">
        <ele>506.2</ele>
        <time>2021-04-04T08:45:47Z</time>
      </trkpt>
      <trkpt lat="40.2173650" lon="-3.5448930">
        <ele>506.2</ele>
        <time>2021-04-04T08:45:48Z</time>
      </trkpt>
      <trkpt lat="40.2173460" lon="-3.5449130">
        <ele>506.2</ele>
        <time>2021-04-04T08:45:49Z</time>
      </trkpt>
      <trkpt lat="40.2173310" lon="-3.5449330">
        <ele>506.0</ele>
        <time>2021-04-04T08:45:50Z</time>
      </trkpt>
      <trkpt lat="40.2173080" lon="-3.5449530">
        <ele>506.0</ele>
        <time>2021-04-04T08:45:51Z</time>
      </trkpt>
      <trkpt lat="40.2172850" lon="-3.5449750">
        <ele>506.2</ele>
        <time>2021-04-04T08:45:52Z</time>
      </trkpt>
      <trkpt lat="40.2172620" lon="-3.5449970">
        <ele>506.2</ele>
        <time>2021-04-04T08:45:53Z</time>
      </trkpt>
      <trkpt lat="40.2172390" lon="-3.5450210">
        <ele>506.0</ele>
        <time>2021-04-04T08:45:54Z</time>
      </trkpt>
      <trkpt lat="40.2172160" lon="-3.5450460">
        <ele>506.0</ele>
        <time>2021-04-04T08:45:55Z</time>
      </trkpt>
      <trkpt lat="40.2171940" lon="-3.5450700">
        <ele>506.0</ele>
        <time>2021-04-04T08:45:56Z</time>
      </trkpt>
      <trkpt lat="40.2171670" lon="-3.5450950">
        <ele>506.0</ele>
        <time>2021-04-04T08:45:57Z</time>
      </trkpt>
      <trkpt lat="40.2171440" lon="-3.5451220">
        <ele>506.0</ele>
        <time>2021-04-04T08:45:58Z</time>
      </trkpt>
      <trkpt lat="40.2171210" lon="-3.5451500">
        <ele>506.0</ele>
        <time>2021-04-04T08:45:59Z</time>
      </trkpt>
      <trkpt lat="40.2170980" lon="-3.5451820">
        <ele>506.0</ele>
        <time>2021-04-04T08:46:00Z</time>
      </trkpt>
      <trkpt lat="40.2170750" lon="-3.5452160">
        <ele>506.0</ele>
        <time>2021-04-04T08:46:01Z</time>
      </trkpt>
      <trkpt lat="40.2170490" lon="-3.5452470">
        <ele>506.0</ele>
        <time>2021-04-04T08:46:02Z</time>
      </trkpt>
      <trkpt lat="40.2170220" lon="-3.5452760">
        <ele>506.0</ele>
        <time>2021-04-04T08:46:03Z</time>
      </trkpt>
      <trkpt lat="40.2169950" lon="-3.5453050">
        <ele>506.0</ele>
        <time>2021-04-04T08:46:04Z</time>
      </trkpt>
      <trkpt lat="40.2169690" lon="-3.5453350">
        <ele>506.0</ele>
        <time>2021-04-04T08:46:05Z</time>
      </trkpt>
      <trkpt lat="40.2169420" lon="-3.5453640">
        <ele>505.8</ele>
        <time>2021-04-04T08:46:06Z</time>
      </trkpt>
      <trkpt lat="40.2169110" lon="-3.5453930">
        <ele>505.8</ele>
        <time>2021-04-04T08:46:07Z</time>
      </trkpt>
      <trkpt lat="40.2168810" lon="-3.5454230">
        <ele>505.8</ele>
        <time>2021-04-04T08:46:08Z</time>
      </trkpt>
      <trkpt lat="40.2168500" lon="-3.5454550">
        <ele>505.8</ele>
        <time>2021-04-04T08:46:09Z</time>
      </trkpt>
      <trkpt lat="40.2168240" lon="-3.5454870">
        <ele>505.8</ele>
        <time>2021-04-04T08:46:10Z</time>
      </trkpt>
      <trkpt lat="40.2167930" lon="-3.5455200">
        <ele>505.8</ele>
        <time>2021-04-04T08:46:11Z</time>
      </trkpt>
      <trkpt lat="40.2167660" lon="-3.5455550">
        <ele>505.8</ele>
        <time>2021-04-04T08:46:12Z</time>
      </trkpt>
      <trkpt lat="40.2167400" lon="-3.5455900">
        <ele>505.8</ele>
        <time>2021-04-04T08:46:13Z</time>
      </trkpt>
      <trkpt lat="40.2167130" lon="-3.5456250">
        <ele>505.8</ele>
        <time>2021-04-04T08:46:14Z</time>
      </trkpt>
      <trkpt lat="40.2166820" lon="-3.5456600">
        <ele>505.8</ele>
        <time>2021-04-04T08:46:15Z</time>
      </trkpt>
      <trkpt lat="40.2166560" lon="-3.5456950">
        <ele>505.8</ele>
        <time>2021-04-04T08:46:16Z</time>
      </trkpt>
      <trkpt lat="40.2166250" lon="-3.5457310">
        <ele>505.6</ele>
        <time>2021-04-04T08:46:17Z</time>
      </trkpt>
      <trkpt lat="40.2165910" lon="-3.5457670">
        <ele>505.6</ele>
        <time>2021-04-04T08:46:18Z</time>
      </trkpt>
      <trkpt lat="40.2165600" lon="-3.5458020">
        <ele>505.6</ele>
        <time>2021-04-04T08:46:19Z</time>
      </trkpt>
      <trkpt lat="40.2165260" lon="-3.5458400">
        <ele>505.6</ele>
        <time>2021-04-04T08:46:20Z</time>
      </trkpt>
      <trkpt lat="40.2164960" lon="-3.5458790">
        <ele>505.6</ele>
        <time>2021-04-04T08:46:21Z</time>
      </trkpt>
      <trkpt lat="40.2164690" lon="-3.5459190">
        <ele>505.6</ele>
        <time>2021-04-04T08:46:22Z</time>
      </trkpt>
      <trkpt lat="40.2164380" lon="-3.5459570">
        <ele>505.6</ele>
        <time>2021-04-04T08:46:23Z</time>
      </trkpt>
      <trkpt lat="40.2164080" lon="-3.5459940">
        <ele>505.6</ele>
        <time>2021-04-04T08:46:24Z</time>
      </trkpt>
      <trkpt lat="40.2163810" lon="-3.5460310">
        <ele>505.6</ele>
        <time>2021-04-04T08:46:25Z</time>
      </trkpt>
      <trkpt lat="40.2163540" lon="-3.5460670">
        <ele>505.6</ele>
        <time>2021-04-04T08:46:26Z</time>
      </trkpt>
      <trkpt lat="40.2163240" lon="-3.5461040">
        <ele>505.4</ele>
        <time>2021-04-04T08:46:27Z</time>
      </trkpt>
      <trkpt lat="40.2162970" lon="-3.5461410">
        <ele>505.4</ele>
        <time>2021-04-04T08:46:28Z</time>
      </trkpt>
      <trkpt lat="40.2162670" lon="-3.5461770">
        <ele>505.4</ele>
        <time>2021-04-04T08:46:29Z</time>
      </trkpt>
      <trkpt lat="40.2162400" lon="-3.5462150">
        <ele>505.4</ele>
        <time>2021-04-04T08:46:30Z</time>
      </trkpt>
      <trkpt lat="40.2162090" lon="-3.5462540">
        <ele>505.4</ele>
        <time>2021-04-04T08:46:31Z</time>
      </trkpt>
      <trkpt lat="40.2161830" lon="-3.5462930">
        <ele>505.4</ele>
        <time>2021-04-04T08:46:32Z</time>
      </trkpt>
      <trkpt lat="40.2161520" lon="-3.5463340">
        <ele>505.4</ele>
        <time>2021-04-04T08:46:33Z</time>
      </trkpt>
      <trkpt lat="40.2161250" lon="-3.5463750">
        <ele>505.4</ele>
        <time>2021-04-04T08:46:34Z</time>
      </trkpt>
      <trkpt lat="40.2160950" lon="-3.5464130">
        <ele>505.4</ele>
        <time>2021-04-04T08:46:35Z</time>
      </trkpt>
      <trkpt lat="40.2160610" lon="-3.5464530">
        <ele>505.4</ele>
        <time>2021-04-04T08:46:36Z</time>
      </trkpt>
      <trkpt lat="40.2160300" lon="-3.5464940">
        <ele>505.4</ele>
        <time>2021-04-04T08:46:37Z</time>
      </trkpt>
      <trkpt lat="40.2160030" lon="-3.5465320">
        <ele>505.4</ele>
        <time>2021-04-04T08:46:38Z</time>
      </trkpt>
      <trkpt lat="40.2159730" lon="-3.5465700">
        <ele>505.4</ele>
        <time>2021-04-04T08:46:39Z</time>
      </trkpt>
      <trkpt lat="40.2159420" lon="-3.5466080">
        <ele>505.4</ele>
        <time>2021-04-04T08:46:40Z</time>
      </trkpt>
      <trkpt lat="40.2159160" lon="-3.5466440">
        <ele>505.4</ele>
        <time>2021-04-04T08:46:41Z</time>
      </trkpt>
      <trkpt lat="40.2158890" lon="-3.5466810">
        <ele>505.4</ele>
        <time>2021-04-04T08:46:42Z</time>
      </trkpt>
      <trkpt lat="40.2158620" lon="-3.5467200">
        <ele>505.4</ele>
        <time>2021-04-04T08:46:43Z</time>
      </trkpt>
      <trkpt lat="40.2158320" lon="-3.5467580">
        <ele>505.4</ele>
        <time>2021-04-04T08:46:44Z</time>
      </trkpt>
      <trkpt lat="40.2158050" lon="-3.5467970">
        <ele>505.4</ele>
        <time>2021-04-04T08:46:45Z</time>
      </trkpt>
      <trkpt lat="40.2157750" lon="-3.5468360">
        <ele>505.4</ele>
        <time>2021-04-04T08:46:46Z</time>
      </trkpt>
      <trkpt lat="40.2157480" lon="-3.5468740">
        <ele>505.4</ele>
        <time>2021-04-04T08:46:47Z</time>
      </trkpt>
      <trkpt lat="40.2157170" lon="-3.5469160">
        <ele>505.4</ele>
        <time>2021-04-04T08:46:48Z</time>
      </trkpt>
      <trkpt lat="40.2156870" lon="-3.5469600">
        <ele>505.4</ele>
        <time>2021-04-04T08:46:49Z</time>
      </trkpt>
      <trkpt lat="40.2156530" lon="-3.5470010">
        <ele>505.2</ele>
        <time>2021-04-04T08:46:50Z</time>
      </trkpt>
      <trkpt lat="40.2156220" lon="-3.5470420">
        <ele>505.2</ele>
        <time>2021-04-04T08:46:51Z</time>
      </trkpt>
      <trkpt lat="40.2155910" lon="-3.5470840">
        <ele>505.2</ele>
        <time>2021-04-04T08:46:52Z</time>
      </trkpt>
      <trkpt lat="40.2155570" lon="-3.5471270">
        <ele>505.2</ele>
        <time>2021-04-04T08:46:53Z</time>
      </trkpt>
      <trkpt lat="40.2155300" lon="-3.5471700">
        <ele>505.2</ele>
        <time>2021-04-04T08:46:54Z</time>
      </trkpt>
      <trkpt lat="40.2154920" lon="-3.5472120">
        <ele>505.2</ele>
        <time>2021-04-04T08:46:55Z</time>
      </trkpt>
      <trkpt lat="40.2154620" lon="-3.5472490">
        <ele>505.2</ele>
        <time>2021-04-04T08:46:56Z</time>
      </trkpt>
      <trkpt lat="40.2154310" lon="-3.5472850">
        <ele>505.2</ele>
        <time>2021-04-04T08:46:57Z</time>
      </trkpt>
      <trkpt lat="40.2154010" lon="-3.5473250">
        <ele>505.2</ele>
        <time>2021-04-04T08:46:58Z</time>
      </trkpt>
      <trkpt lat="40.2153700" lon="-3.5473680">
        <ele>505.2</ele>
        <time>2021-04-04T08:46:59Z</time>
      </trkpt>
      <trkpt lat="40.2153400" lon="-3.5474110">
        <ele>505.2</ele>
        <time>2021-04-04T08:47:00Z</time>
      </trkpt>
      <trkpt lat="40.2153020" lon="-3.5474480">
        <ele>505.2</ele>
        <time>2021-04-04T08:47:01Z</time>
      </trkpt>
      <trkpt lat="40.2152630" lon="-3.5474790">
        <ele>505.2</ele>
        <time>2021-04-04T08:47:02Z</time>
      </trkpt>
      <trkpt lat="40.2152210" lon="-3.5475050">
        <ele>505.2</ele>
        <time>2021-04-04T08:47:03Z</time>
      </trkpt>
      <trkpt lat="40.2151790" lon="-3.5475280">
        <ele>505.4</ele>
        <time>2021-04-04T08:47:04Z</time>
      </trkpt>
      <trkpt lat="40.2151340" lon="-3.5475470">
        <ele>505.4</ele>
        <time>2021-04-04T08:47:05Z</time>
      </trkpt>
      <trkpt lat="40.2150880" lon="-3.5475650">
        <ele>505.4</ele>
        <time>2021-04-04T08:47:06Z</time>
      </trkpt>
      <trkpt lat="40.2150420" lon="-3.5475790">
        <ele>505.4</ele>
        <time>2021-04-04T08:47:07Z</time>
      </trkpt>
      <trkpt lat="40.2149960" lon="-3.5475900">
        <ele>505.2</ele>
        <time>2021-04-04T08:47:08Z</time>
      </trkpt>
      <trkpt lat="40.2149510" lon="-3.5475990">
        <ele>505.2</ele>
        <time>2021-04-04T08:47:09Z</time>
      </trkpt>
      <trkpt lat="40.2149010" lon="-3.5476020">
        <ele>505.4</ele>
        <time>2021-04-04T08:47:10Z</time>
      </trkpt>
      <trkpt lat="40.2148510" lon="-3.5476040">
        <ele>505.4</ele>
        <time>2021-04-04T08:47:11Z</time>
      </trkpt>
      <trkpt lat="40.2148020" lon="-3.5476040">
        <ele>505.2</ele>
        <time>2021-04-04T08:47:12Z</time>
      </trkpt>
      <trkpt lat="40.2147560" lon="-3.5475990">
        <ele>505.2</ele>
        <time>2021-04-04T08:47:13Z</time>
      </trkpt>
      <trkpt lat="40.2147030" lon="-3.5475910">
        <ele>505.2</ele>
        <time>2021-04-04T08:47:14Z</time>
      </trkpt>
      <trkpt lat="40.2146570" lon="-3.5475800">
        <ele>505.2</ele>
        <time>2021-04-04T08:47:15Z</time>
      </trkpt>
      <trkpt lat="40.2146110" lon="-3.5475650">
        <ele>505.2</ele>
        <time>2021-04-04T08:47:16Z</time>
      </trkpt>
      <trkpt lat="40.2145610" lon="-3.5475470">
        <ele>505.2</ele>
        <time>2021-04-04T08:47:17Z</time>
      </trkpt>
      <trkpt lat="40.2145160" lon="-3.5475270">
        <ele>505.2</ele>
        <time>2021-04-04T08:47:18Z</time>
      </trkpt>
      <trkpt lat="40.2144700" lon="-3.5475070">
        <ele>505.2</ele>
        <time>2021-04-04T08:47:19Z</time>
      </trkpt>
      <trkpt lat="40.2144240" lon="-3.5474900">
        <ele>505.2</ele>
        <time>2021-04-04T08:47:20Z</time>
      </trkpt>
      <trkpt lat="40.2143750" lon="-3.5474740">
        <ele>505.2</ele>
        <time>2021-04-04T08:47:21Z</time>
      </trkpt>
      <trkpt lat="40.2143290" lon="-3.5474570">
        <ele>505.2</ele>
        <time>2021-04-04T08:47:22Z</time>
      </trkpt>
      <trkpt lat="40.2142830" lon="-3.5474370">
        <ele>505.2</ele>
        <time>2021-04-04T08:47:23Z</time>
      </trkpt>
      <trkpt lat="40.2142370" lon="-3.5474170">
        <ele>505.2</ele>
        <time>2021-04-04T08:47:24Z</time>
      </trkpt>
      <trkpt lat="40.2141880" lon="-3.5473990">
        <ele>505.2</ele>
        <time>2021-04-04T08:47:25Z</time>
      </trkpt>
      <trkpt lat="40.2141420" lon="-3.5473820">
        <ele>505.2</ele>
        <time>2021-04-04T08:47:26Z</time>
      </trkpt>
      <trkpt lat="40.2140920" lon="-3.5473660">
        <ele>505.2</ele>
        <time>2021-04-04T08:47:27Z</time>
      </trkpt>
      <trkpt lat="40.2140430" lon="-3.5473530">
        <ele>505.0</ele>
        <time>2021-04-04T08:47:28Z</time>
      </trkpt>
      <trkpt lat="40.2139930" lon="-3.5473430">
        <ele>505.0</ele>
        <time>2021-04-04T08:47:29Z</time>
      </trkpt>
      <trkpt lat="40.2139440" lon="-3.5473340">
        <ele>505.0</ele>
        <time>2021-04-04T08:47:30Z</time>
      </trkpt>
      <trkpt lat="40.2138900" lon="-3.5473230">
        <ele>505.2</ele>
        <time>2021-04-04T08:47:31Z</time>
      </trkpt>
      <trkpt lat="40.2138410" lon="-3.5473090">
        <ele>505.2</ele>
        <time>2021-04-04T08:47:32Z</time>
      </trkpt>
      <trkpt lat="40.2137910" lon="-3.5472950">
        <ele>505.2</ele>
        <time>2021-04-04T08:47:33Z</time>
      </trkpt>
      <trkpt lat="40.2137370" lon="-3.5472810">
        <ele>505.2</ele>
        <time>2021-04-04T08:47:34Z</time>
      </trkpt>
      <trkpt lat="40.2136880" lon="-3.5472670">
        <ele>505.0</ele>
        <time>2021-04-04T08:47:35Z</time>
      </trkpt>
      <trkpt lat="40.2136380" lon="-3.5472540">
        <ele>505.0</ele>
        <time>2021-04-04T08:47:36Z</time>
      </trkpt>
      <trkpt lat="40.2135850" lon="-3.5472420">
        <ele>505.0</ele>
        <time>2021-04-04T08:47:37Z</time>
      </trkpt>
      <trkpt lat="40.2135310" lon="-3.5472300">
        <ele>505.0</ele>
        <time>2021-04-04T08:47:38Z</time>
      </trkpt>
      <trkpt lat="40.2134780" lon="-3.5472160">
        <ele>505.0</ele>
        <time>2021-04-04T08:47:39Z</time>
      </trkpt>
      <trkpt lat="40.2134250" lon="-3.5472010">
        <ele>505.0</ele>
        <time>2021-04-04T08:47:40Z</time>
      </trkpt>
      <trkpt lat="40.2133750" lon="-3.5471850">
        <ele>505.0</ele>
        <time>2021-04-04T08:47:41Z</time>
      </trkpt>
      <trkpt lat="40.2133260" lon="-3.5471690">
        <ele>505.0</ele>
        <time>2021-04-04T08:47:42Z</time>
      </trkpt>
      <trkpt lat="40.2132760" lon="-3.5471510">
        <ele>505.0</ele>
        <time>2021-04-04T08:47:43Z</time>
      </trkpt>
      <trkpt lat="40.2132260" lon="-3.5471310">
        <ele>505.0</ele>
        <time>2021-04-04T08:47:44Z</time>
      </trkpt>
      <trkpt lat="40.2131770" lon="-3.5471120">
        <ele>505.0</ele>
        <time>2021-04-04T08:47:45Z</time>
      </trkpt>
      <trkpt lat="40.2131310" lon="-3.5470960">
        <ele>505.0</ele>
        <time>2021-04-04T08:47:46Z</time>
      </trkpt>
      <trkpt lat="40.2130810" lon="-3.5470830">
        <ele>505.0</ele>
        <time>2021-04-04T08:47:47Z</time>
      </trkpt>
      <trkpt lat="40.2130280" lon="-3.5470750">
        <ele>505.2</ele>
        <time>2021-04-04T08:47:48Z</time>
      </trkpt>
      <trkpt lat="40.2129780" lon="-3.5470730">
        <ele>505.2</ele>
        <time>2021-04-04T08:47:49Z</time>
      </trkpt>
      <trkpt lat="40.2129250" lon="-3.5470740">
        <ele>505.2</ele>
        <time>2021-04-04T08:47:50Z</time>
      </trkpt>
      <trkpt lat="40.2128750" lon="-3.5470760">
        <ele>505.2</ele>
        <time>2021-04-04T08:47:51Z</time>
      </trkpt>
      <trkpt lat="40.2128220" lon="-3.5470800">
        <ele>505.4</ele>
        <time>2021-04-04T08:47:52Z</time>
      </trkpt>
      <trkpt lat="40.2127720" lon="-3.5470800">
        <ele>505.4</ele>
        <time>2021-04-04T08:47:53Z</time>
      </trkpt>
      <trkpt lat="40.2127190" lon="-3.5470730">
        <ele>505.6</ele>
        <time>2021-04-04T08:47:54Z</time>
      </trkpt>
      <trkpt lat="40.2126690" lon="-3.5470640">
        <ele>505.6</ele>
        <time>2021-04-04T08:47:55Z</time>
      </trkpt>
      <trkpt lat="40.2126200" lon="-3.5470530">
        <ele>505.6</ele>
        <time>2021-04-04T08:47:56Z</time>
      </trkpt>
      <trkpt lat="40.2125700" lon="-3.5470440">
        <ele>505.8</ele>
        <time>2021-04-04T08:47:57Z</time>
      </trkpt>
      <trkpt lat="40.2125170" lon="-3.5470350">
        <ele>505.8</ele>
        <time>2021-04-04T08:47:58Z</time>
      </trkpt>
      <trkpt lat="40.2124670" lon="-3.5470250">
        <ele>506.0</ele>
        <time>2021-04-04T08:47:59Z</time>
      </trkpt>
      <trkpt lat="40.2124180" lon="-3.5470140">
        <ele>506.0</ele>
        <time>2021-04-04T08:48:00Z</time>
      </trkpt>
      <trkpt lat="40.2123680" lon="-3.5470030">
        <ele>506.2</ele>
        <time>2021-04-04T08:48:01Z</time>
      </trkpt>
      <trkpt lat="40.2123220" lon="-3.5469900">
        <ele>506.2</ele>
        <time>2021-04-04T08:48:02Z</time>
      </trkpt>
      <trkpt lat="40.2122800" lon="-3.5469760">
        <ele>506.4</ele>
        <time>2021-04-04T08:48:03Z</time>
      </trkpt>
      <trkpt lat="40.2122380" lon="-3.5469640">
        <ele>506.6</ele>
        <time>2021-04-04T08:48:04Z</time>
      </trkpt>
      <trkpt lat="40.2122000" lon="-3.5469540">
        <ele>506.6</ele>
        <time>2021-04-04T08:48:05Z</time>
      </trkpt>
      <trkpt lat="40.2121620" lon="-3.5469460">
        <ele>506.8</ele>
        <time>2021-04-04T08:48:06Z</time>
      </trkpt>
      <trkpt lat="40.2121160" lon="-3.5469400">
        <ele>506.8</ele>
        <time>2021-04-04T08:48:07Z</time>
      </trkpt>
      <trkpt lat="40.2120700" lon="-3.5469350">
        <ele>506.8</ele>
        <time>2021-04-04T08:48:08Z</time>
      </trkpt>
      <trkpt lat="40.2120210" lon="-3.5469330">
        <ele>506.6</ele>
        <time>2021-04-04T08:48:09Z</time>
      </trkpt>
      <trkpt lat="40.2119750" lon="-3.5469320">
        <ele>506.6</ele>
        <time>2021-04-04T08:48:10Z</time>
      </trkpt>
      <trkpt lat="40.2119220" lon="-3.5469330">
        <ele>506.4</ele>
        <time>2021-04-04T08:48:11Z</time>
      </trkpt>
      <trkpt lat="40.2118640" lon="-3.5469360">
        <ele>506.4</ele>
        <time>2021-04-04T08:48:12Z</time>
      </trkpt>
      <trkpt lat="40.2118110" lon="-3.5469410">
        <ele>506.4</ele>
        <time>2021-04-04T08:48:13Z</time>
      </trkpt>
      <trkpt lat="40.2117580" lon="-3.5469460">
        <ele>506.4</ele>
        <time>2021-04-04T08:48:14Z</time>
      </trkpt>
      <trkpt lat="40.2117040" lon="-3.5469460">
        <ele>506.2</ele>
        <time>2021-04-04T08:48:15Z</time>
      </trkpt>
      <trkpt lat="40.2116580" lon="-3.5469430">
        <ele>506.2</ele>
        <time>2021-04-04T08:48:16Z</time>
      </trkpt>
      <trkpt lat="40.2116090" lon="-3.5469410">
        <ele>506.4</ele>
        <time>2021-04-04T08:48:17Z</time>
      </trkpt>
      <trkpt lat="40.2115560" lon="-3.5469390">
        <ele>506.4</ele>
        <time>2021-04-04T08:48:18Z</time>
      </trkpt>
      <trkpt lat="40.2115060" lon="-3.5469380">
        <ele>506.4</ele>
        <time>2021-04-04T08:48:19Z</time>
      </trkpt>
      <trkpt lat="40.2114560" lon="-3.5469400">
        <ele>506.4</ele>
        <time>2021-04-04T08:48:20Z</time>
      </trkpt>
      <trkpt lat="40.2114030" lon="-3.5469430">
        <ele>506.4</ele>
        <time>2021-04-04T08:48:21Z</time>
      </trkpt>
      <trkpt lat="40.2113530" lon="-3.5469480">
        <ele>506.4</ele>
        <time>2021-04-04T08:48:22Z</time>
      </trkpt>
      <trkpt lat="40.2113040" lon="-3.5469570">
        <ele>506.4</ele>
        <time>2021-04-04T08:48:23Z</time>
      </trkpt>
      <trkpt lat="40.2112460" lon="-3.5469720">
        <ele>506.4</ele>
        <time>2021-04-04T08:48:24Z</time>
      </trkpt>
      <trkpt lat="40.2111930" lon="-3.5469980">
        <ele>506.4</ele>
        <time>2021-04-04T08:48:25Z</time>
      </trkpt>
      <trkpt lat="40.2111360" lon="-3.5470300">
        <ele>506.6</ele>
        <time>2021-04-04T08:48:26Z</time>
      </trkpt>
      <trkpt lat="40.2110820" lon="-3.5470650">
        <ele>506.6</ele>
        <time>2021-04-04T08:48:27Z</time>
      </trkpt>
      <trkpt lat="40.2110290" lon="-3.5470950">
        <ele>506.6</ele>
        <time>2021-04-04T08:48:28Z</time>
      </trkpt>
      <trkpt lat="40.2109720" lon="-3.5471200">
        <ele>506.8</ele>
        <time>2021-04-04T08:48:29Z</time>
      </trkpt>
      <trkpt lat="40.2109180" lon="-3.5471500">
        <ele>506.8</ele>
        <time>2021-04-04T08:48:30Z</time>
      </trkpt>
      <trkpt lat="40.2108610" lon="-3.5471830">
        <ele>506.8</ele>
        <time>2021-04-04T08:48:31Z</time>
      </trkpt>
      <trkpt lat="40.2108080" lon="-3.5472150">
        <ele>506.8</ele>
        <time>2021-04-04T08:48:32Z</time>
      </trkpt>
      <trkpt lat="40.2107540" lon="-3.5472480">
        <ele>506.8</ele>
        <time>2021-04-04T08:48:33Z</time>
      </trkpt>
      <trkpt lat="40.2107010" lon="-3.5472790">
        <ele>507.0</ele>
        <time>2021-04-04T08:48:34Z</time>
      </trkpt>
      <trkpt lat="40.2106480" lon="-3.5473090">
        <ele>507.0</ele>
        <time>2021-04-04T08:48:35Z</time>
      </trkpt>
      <trkpt lat="40.2105940" lon="-3.5473380">
        <ele>507.0</ele>
        <time>2021-04-04T08:48:36Z</time>
      </trkpt>
      <trkpt lat="40.2105410" lon="-3.5473660">
        <ele>507.2</ele>
        <time>2021-04-04T08:48:37Z</time>
      </trkpt>
      <trkpt lat="40.2104950" lon="-3.5473920">
        <ele>507.2</ele>
        <time>2021-04-04T08:48:38Z</time>
      </trkpt>
      <trkpt lat="40.2104450" lon="-3.5474130">
        <ele>507.4</ele>
        <time>2021-04-04T08:48:39Z</time>
      </trkpt>
      <trkpt lat="40.2104000" lon="-3.5474360">
        <ele>507.8</ele>
        <time>2021-04-04T08:48:40Z</time>
      </trkpt>
      <trkpt lat="40.2103540" lon="-3.5474580">
        <ele>508.0</ele>
        <time>2021-04-04T08:48:41Z</time>
      </trkpt>
      <trkpt lat="40.2103120" lon="-3.5474790">
        <ele>508.2</ele>
        <time>2021-04-04T08:48:42Z</time>
      </trkpt>
      <trkpt lat="40.2102700" lon="-3.5474970">
        <ele>508.4</ele>
        <time>2021-04-04T08:48:43Z</time>
      </trkpt>
      <trkpt lat="40.2102280" lon="-3.5475150">
        <ele>508.6</ele>
        <time>2021-04-04T08:48:44Z</time>
      </trkpt>
      <trkpt lat="40.2101900" lon="-3.5475330">
        <ele>509.0</ele>
        <time>2021-04-04T08:48:45Z</time>
      </trkpt>
      <trkpt lat="40.2101550" lon="-3.5475480">
        <ele>509.2</ele>
        <time>2021-04-04T08:48:46Z</time>
      </trkpt>
      <trkpt lat="40.2101210" lon="-3.5475600">
        <ele>509.4</ele>
        <time>2021-04-04T08:48:47Z</time>
      </trkpt>
      <trkpt lat="40.2100830" lon="-3.5475700">
        <ele>509.6</ele>
        <time>2021-04-04T08:48:48Z</time>
      </trkpt>
      <trkpt lat="40.2100490" lon="-3.5475770">
        <ele>509.8</ele>
        <time>2021-04-04T08:48:49Z</time>
      </trkpt>
      <trkpt lat="40.2100180" lon="-3.5475840">
        <ele>510.0</ele>
        <time>2021-04-04T08:48:50Z</time>
      </trkpt>
      <trkpt lat="40.2099840" lon="-3.5475920">
        <ele>510.2</ele>
        <time>2021-04-04T08:48:51Z</time>
      </trkpt>
      <trkpt lat="40.2099460" lon="-3.5476030">
        <ele>510.2</ele>
        <time>2021-04-04T08:48:52Z</time>
      </trkpt>
      <trkpt lat="40.2099080" lon="-3.5476150">
        <ele>510.4</ele>
        <time>2021-04-04T08:48:53Z</time>
      </trkpt>
      <trkpt lat="40.2098690" lon="-3.5476270">
        <ele>510.4</ele>
        <time>2021-04-04T08:48:54Z</time>
      </trkpt>
      <trkpt lat="40.2098310" lon="-3.5476400">
        <ele>510.4</ele>
        <time>2021-04-04T08:48:55Z</time>
      </trkpt>
      <trkpt lat="40.2097890" lon="-3.5476550">
        <ele>510.4</ele>
        <time>2021-04-04T08:48:56Z</time>
      </trkpt>
      <trkpt lat="40.2097470" lon="-3.5476700">
        <ele>510.2</ele>
        <time>2021-04-04T08:48:57Z</time>
      </trkpt>
      <trkpt lat="40.2097050" lon="-3.5476840">
        <ele>510.2</ele>
        <time>2021-04-04T08:48:58Z</time>
      </trkpt>
      <trkpt lat="40.2096600" lon="-3.5476980">
        <ele>510.0</ele>
        <time>2021-04-04T08:48:59Z</time>
      </trkpt>
      <trkpt lat="40.2096140" lon="-3.5477110">
        <ele>510.0</ele>
        <time>2021-04-04T08:49:00Z</time>
      </trkpt>
      <trkpt lat="40.2095680" lon="-3.5477250">
        <ele>509.8</ele>
        <time>2021-04-04T08:49:01Z</time>
      </trkpt>
      <trkpt lat="40.2095220" lon="-3.5477390">
        <ele>509.8</ele>
        <time>2021-04-04T08:49:02Z</time>
      </trkpt>
      <trkpt lat="40.2094730" lon="-3.5477540">
        <ele>509.6</ele>
        <time>2021-04-04T08:49:03Z</time>
      </trkpt>
      <trkpt lat="40.2094270" lon="-3.5477710">
        <ele>509.6</ele>
        <time>2021-04-04T08:49:04Z</time>
      </trkpt>
      <trkpt lat="40.2093810" lon="-3.5477880">
        <ele>509.4</ele>
        <time>2021-04-04T08:49:05Z</time>
      </trkpt>
      <trkpt lat="40.2093320" lon="-3.5478040">
        <ele>509.4</ele>
        <time>2021-04-04T08:49:06Z</time>
      </trkpt>
      <trkpt lat="40.2092860" lon="-3.5478190">
        <ele>509.2</ele>
        <time>2021-04-04T08:49:07Z</time>
      </trkpt>
      <trkpt lat="40.2092360" lon="-3.5478340">
        <ele>509.2</ele>
        <time>2021-04-04T08:49:08Z</time>
      </trkpt>
      <trkpt lat="40.2091870" lon="-3.5478480">
        <ele>509.0</ele>
        <time>2021-04-04T08:49:09Z</time>
      </trkpt>
      <trkpt lat="40.2091370" lon="-3.5478620">
        <ele>509.0</ele>
        <time>2021-04-04T08:49:10Z</time>
      </trkpt>
      <trkpt lat="40.2090870" lon="-3.5478770">
        <ele>508.8</ele>
        <time>2021-04-04T08:49:11Z</time>
      </trkpt>
      <trkpt lat="40.2090380" lon="-3.5478900">
        <ele>508.8</ele>
        <time>2021-04-04T08:49:12Z</time>
      </trkpt>
      <trkpt lat="40.2089840" lon="-3.5479040">
        <ele>508.8</ele>
        <time>2021-04-04T08:49:13Z</time>
      </trkpt>
      <trkpt lat="40.2089350" lon="-3.5479170">
        <ele>508.6</ele>
        <time>2021-04-04T08:49:14Z</time>
      </trkpt>
      <trkpt lat="40.2088850" lon="-3.5479320">
        <ele>508.6</ele>
        <time>2021-04-04T08:49:15Z</time>
      </trkpt>
      <trkpt lat="40.2088430" lon="-3.5479460">
        <ele>508.6</ele>
        <time>2021-04-04T08:49:16Z</time>
      </trkpt>
      <trkpt lat="40.2087940" lon="-3.5479570">
        <ele>508.6</ele>
        <time>2021-04-04T08:49:17Z</time>
      </trkpt>
      <trkpt lat="40.2087440" lon="-3.5479670">
        <ele>508.6</ele>
        <time>2021-04-04T08:49:18Z</time>
      </trkpt>
      <trkpt lat="40.2086980" lon="-3.5479800">
        <ele>508.6</ele>
        <time>2021-04-04T08:49:19Z</time>
      </trkpt>
      <trkpt lat="40.2086560" lon="-3.5479960">
        <ele>508.6</ele>
        <time>2021-04-04T08:49:20Z</time>
      </trkpt>
      <trkpt lat="40.2086110" lon="-3.5480130">
        <ele>508.6</ele>
        <time>2021-04-04T08:49:21Z</time>
      </trkpt>
      <trkpt lat="40.2085650" lon="-3.5480280">
        <ele>508.6</ele>
        <time>2021-04-04T08:49:22Z</time>
      </trkpt>
      <trkpt lat="40.2085190" lon="-3.5480390">
        <ele>508.6</ele>
        <time>2021-04-04T08:49:23Z</time>
      </trkpt>
      <trkpt lat="40.2084730" lon="-3.5480520">
        <ele>508.6</ele>
        <time>2021-04-04T08:49:24Z</time>
      </trkpt>
      <trkpt lat="40.2084310" lon="-3.5480670">
        <ele>508.6</ele>
        <time>2021-04-04T08:49:25Z</time>
      </trkpt>
      <trkpt lat="40.2083850" lon="-3.5480790">
        <ele>508.6</ele>
        <time>2021-04-04T08:49:26Z</time>
      </trkpt>
      <trkpt lat="40.2083400" lon="-3.5480910">
        <ele>508.6</ele>
        <time>2021-04-04T08:49:27Z</time>
      </trkpt>
      <trkpt lat="40.2082940" lon="-3.5481030">
        <ele>508.8</ele>
        <time>2021-04-04T08:49:28Z</time>
      </trkpt>
      <trkpt lat="40.2082480" lon="-3.5481150">
        <ele>508.8</ele>
        <time>2021-04-04T08:49:29Z</time>
      </trkpt>
      <trkpt lat="40.2082060" lon="-3.5481260">
        <ele>508.8</ele>
        <time>2021-04-04T08:49:30Z</time>
      </trkpt>
      <trkpt lat="40.2081680" lon="-3.5481380">
        <ele>509.0</ele>
        <time>2021-04-04T08:49:31Z</time>
      </trkpt>
      <trkpt lat="40.2081260" lon="-3.5481500">
        <ele>509.0</ele>
        <time>2021-04-04T08:49:32Z</time>
      </trkpt>
      <trkpt lat="40.2080840" lon="-3.5481600">
        <ele>509.0</ele>
        <time>2021-04-04T08:49:33Z</time>
      </trkpt>
      <trkpt lat="40.2080420" lon="-3.5481690">
        <ele>509.2</ele>
        <time>2021-04-04T08:49:34Z</time>
      </trkpt>
      <trkpt lat="40.2080000" lon="-3.5481790">
        <ele>509.2</ele>
        <time>2021-04-04T08:49:35Z</time>
      </trkpt>
      <trkpt lat="40.2079620" lon="-3.5481890">
        <ele>509.4</ele>
        <time>2021-04-04T08:49:36Z</time>
      </trkpt>
      <trkpt lat="40.2079200" lon="-3.5482000">
        <ele>509.4</ele>
        <time>2021-04-04T08:49:37Z</time>
      </trkpt>
      <trkpt lat="40.2078780" lon="-3.5482080">
        <ele>509.6</ele>
        <time>2021-04-04T08:49:38Z</time>
      </trkpt>
      <trkpt lat="40.2078400" lon="-3.5482150">
        <ele>509.6</ele>
        <time>2021-04-04T08:49:39Z</time>
      </trkpt>
      <trkpt lat="40.2077940" lon="-3.5482230">
        <ele>509.8</ele>
        <time>2021-04-04T08:49:40Z</time>
      </trkpt>
      <trkpt lat="40.2077520" lon="-3.5482310">
        <ele>509.8</ele>
        <time>2021-04-04T08:49:41Z</time>
      </trkpt>
      <trkpt lat="40.2077060" lon="-3.5482400">
        <ele>509.8</ele>
        <time>2021-04-04T08:49:42Z</time>
      </trkpt>
      <trkpt lat="40.2076610" lon="-3.5482500">
        <ele>509.8</ele>
        <time>2021-04-04T08:49:43Z</time>
      </trkpt>
      <trkpt lat="40.2076150" lon="-3.5482580">
        <ele>509.8</ele>
        <time>2021-04-04T08:49:44Z</time>
      </trkpt>
      <trkpt lat="40.2075650" lon="-3.5482660">
        <ele>509.6</ele>
        <time>2021-04-04T08:49:45Z</time>
      </trkpt>
      <trkpt lat="40.2075160" lon="-3.5482750">
        <ele>509.6</ele>
        <time>2021-04-04T08:49:46Z</time>
      </trkpt>
      <trkpt lat="40.2074660" lon="-3.5482830">
        <ele>509.6</ele>
        <time>2021-04-04T08:49:47Z</time>
      </trkpt>
      <trkpt lat="40.2074170" lon="-3.5482900">
        <ele>509.6</ele>
        <time>2021-04-04T08:49:48Z</time>
      </trkpt>
      <trkpt lat="40.2073670" lon="-3.5482930">
        <ele>509.4</ele>
        <time>2021-04-04T08:49:49Z</time>
      </trkpt>
      <trkpt lat="40.2073140" lon="-3.5482960">
        <ele>509.4</ele>
        <time>2021-04-04T08:49:50Z</time>
      </trkpt>
      <trkpt lat="40.2072640" lon="-3.5482960">
        <ele>509.4</ele>
        <time>2021-04-04T08:49:51Z</time>
      </trkpt>
      <trkpt lat="40.2072140" lon="-3.5482950">
        <ele>509.4</ele>
        <time>2021-04-04T08:49:52Z</time>
      </trkpt>
      <trkpt lat="40.2071610" lon="-3.5482940">
        <ele>509.4</ele>
        <time>2021-04-04T08:49:53Z</time>
      </trkpt>
      <trkpt lat="40.2071080" lon="-3.5482890">
        <ele>509.4</ele>
        <time>2021-04-04T08:49:54Z</time>
      </trkpt>
      <trkpt lat="40.2070580" lon="-3.5482820">
        <ele>509.4</ele>
        <time>2021-04-04T08:49:55Z</time>
      </trkpt>
      <trkpt lat="40.2070080" lon="-3.5482740">
        <ele>509.4</ele>
        <time>2021-04-04T08:49:56Z</time>
      </trkpt>
      <trkpt lat="40.2069590" lon="-3.5482610">
        <ele>509.4</ele>
        <time>2021-04-04T08:49:57Z</time>
      </trkpt>
      <trkpt lat="40.2069090" lon="-3.5482450">
        <ele>509.4</ele>
        <time>2021-04-04T08:49:58Z</time>
      </trkpt>
      <trkpt lat="40.2068600" lon="-3.5482260">
        <ele>509.4</ele>
        <time>2021-04-04T08:49:59Z</time>
      </trkpt>
      <trkpt lat="40.2068180" lon="-3.5482070">
        <ele>509.6</ele>
        <time>2021-04-04T08:50:00Z</time>
      </trkpt>
      <trkpt lat="40.2067720" lon="-3.5481840">
        <ele>509.6</ele>
        <time>2021-04-04T08:50:01Z</time>
      </trkpt>
      <trkpt lat="40.2067300" lon="-3.5481620">
        <ele>509.6</ele>
        <time>2021-04-04T08:50:02Z</time>
      </trkpt>
      <trkpt lat="40.2066840" lon="-3.5481400">
        <ele>509.6</ele>
        <time>2021-04-04T08:50:03Z</time>
      </trkpt>
      <trkpt lat="40.2066380" lon="-3.5481160">
        <ele>509.8</ele>
        <time>2021-04-04T08:50:04Z</time>
      </trkpt>
      <trkpt lat="40.2065960" lon="-3.5480920">
        <ele>509.8</ele>
        <time>2021-04-04T08:50:05Z</time>
      </trkpt>
      <trkpt lat="40.2065510" lon="-3.5480680">
        <ele>509.8</ele>
        <time>2021-04-04T08:50:06Z</time>
      </trkpt>
      <trkpt lat="40.2065010" lon="-3.5480460">
        <ele>509.8</ele>
        <time>2021-04-04T08:50:07Z</time>
      </trkpt>
      <trkpt lat="40.2064550" lon="-3.5480260">
        <ele>509.8</ele>
        <time>2021-04-04T08:50:08Z</time>
      </trkpt>
      <trkpt lat="40.2064090" lon="-3.5480070">
        <ele>509.8</ele>
        <time>2021-04-04T08:50:09Z</time>
      </trkpt>
      <trkpt lat="40.2063600" lon="-3.5479880">
        <ele>509.8</ele>
        <time>2021-04-04T08:50:10Z</time>
      </trkpt>
      <trkpt lat="40.2063100" lon="-3.5479710">
        <ele>509.8</ele>
        <time>2021-04-04T08:50:11Z</time>
      </trkpt>
      <trkpt lat="40.2062610" lon="-3.5479540">
        <ele>509.8</ele>
        <time>2021-04-04T08:50:12Z</time>
      </trkpt>
      <trkpt lat="40.2062110" lon="-3.5479380">
        <ele>510.0</ele>
        <time>2021-04-04T08:50:13Z</time>
      </trkpt>
      <trkpt lat="40.2061620" lon="-3.5479240">
        <ele>510.0</ele>
        <time>2021-04-04T08:50:14Z</time>
      </trkpt>
      <trkpt lat="40.2061120" lon="-3.5479130">
        <ele>510.0</ele>
        <time>2021-04-04T08:50:15Z</time>
      </trkpt>
      <trkpt lat="40.2060580" lon="-3.5479030">
        <ele>510.0</ele>
        <time>2021-04-04T08:50:16Z</time>
      </trkpt>
      <trkpt lat="40.2060130" lon="-3.5478950">
        <ele>510.0</ele>
        <time>2021-04-04T08:50:17Z</time>
      </trkpt>
      <trkpt lat="40.2059590" lon="-3.5478930">
        <ele>510.0</ele>
        <time>2021-04-04T08:50:18Z</time>
      </trkpt>
      <trkpt lat="40.2059100" lon="-3.5478980">
        <ele>510.0</ele>
        <time>2021-04-04T08:50:19Z</time>
      </trkpt>
      <trkpt lat="40.2058600" lon="-3.5479090">
        <ele>510.2</ele>
        <time>2021-04-04T08:50:20Z</time>
      </trkpt>
      <trkpt lat="40.2058140" lon="-3.5479250">
        <ele>510.2</ele>
        <time>2021-04-04T08:50:21Z</time>
      </trkpt>
      <trkpt lat="40.2057650" lon="-3.5479460">
        <ele>510.2</ele>
        <time>2021-04-04T08:50:22Z</time>
      </trkpt>
      <trkpt lat="40.2057190" lon="-3.5479700">
        <ele>510.2</ele>
        <time>2021-04-04T08:50:23Z</time>
      </trkpt>
      <trkpt lat="40.2056730" lon="-3.5479960">
        <ele>510.4</ele>
        <time>2021-04-04T08:50:24Z</time>
      </trkpt>
      <trkpt lat="40.2056270" lon="-3.5480250">
        <ele>510.4</ele>
        <time>2021-04-04T08:50:25Z</time>
      </trkpt>
      <trkpt lat="40.2055860" lon="-3.5480550">
        <ele>510.4</ele>
        <time>2021-04-04T08:50:26Z</time>
      </trkpt>
      <trkpt lat="40.2055440" lon="-3.5480880">
        <ele>510.6</ele>
        <time>2021-04-04T08:50:27Z</time>
      </trkpt>
      <trkpt lat="40.2055020" lon="-3.5481190">
        <ele>510.6</ele>
        <time>2021-04-04T08:50:28Z</time>
      </trkpt>
      <trkpt lat="40.2054600" lon="-3.5481480">
        <ele>510.6</ele>
        <time>2021-04-04T08:50:29Z</time>
      </trkpt>
      <trkpt lat="40.2054140" lon="-3.5481760">
        <ele>510.6</ele>
        <time>2021-04-04T08:50:30Z</time>
      </trkpt>
      <trkpt lat="40.2053680" lon="-3.5482020">
        <ele>510.6</ele>
        <time>2021-04-04T08:50:31Z</time>
      </trkpt>
      <trkpt lat="40.2053220" lon="-3.5482250">
        <ele>510.6</ele>
        <time>2021-04-04T08:50:32Z</time>
      </trkpt>
      <trkpt lat="40.2052760" lon="-3.5482470">
        <ele>510.8</ele>
        <time>2021-04-04T08:50:33Z</time>
      </trkpt>
      <trkpt lat="40.2052350" lon="-3.5482710">
        <ele>510.8</ele>
        <time>2021-04-04T08:50:34Z</time>
      </trkpt>
      <trkpt lat="40.2051930" lon="-3.5482930">
        <ele>510.8</ele>
        <time>2021-04-04T08:50:35Z</time>
      </trkpt>
      <trkpt lat="40.2051510" lon="-3.5483140">
        <ele>510.8</ele>
        <time>2021-04-04T08:50:36Z</time>
      </trkpt>
      <trkpt lat="40.2051050" lon="-3.5483340">
        <ele>510.8</ele>
        <time>2021-04-04T08:50:37Z</time>
      </trkpt>
      <trkpt lat="40.2050590" lon="-3.5483520">
        <ele>510.8</ele>
        <time>2021-04-04T08:50:38Z</time>
      </trkpt>
      <trkpt lat="40.2050130" lon="-3.5483670">
        <ele>510.8</ele>
        <time>2021-04-04T08:50:39Z</time>
      </trkpt>
      <trkpt lat="40.2049680" lon="-3.5483810">
        <ele>510.8</ele>
        <time>2021-04-04T08:50:40Z</time>
      </trkpt>
      <trkpt lat="40.2049220" lon="-3.5483940">
        <ele>511.0</ele>
        <time>2021-04-04T08:50:41Z</time>
      </trkpt>
      <trkpt lat="40.2048720" lon="-3.5484100">
        <ele>511.0</ele>
        <time>2021-04-04T08:50:42Z</time>
      </trkpt>
      <trkpt lat="40.2048260" lon="-3.5484260">
        <ele>510.8</ele>
        <time>2021-04-04T08:50:43Z</time>
      </trkpt>
      <trkpt lat="40.2047810" lon="-3.5484400">
        <ele>510.8</ele>
        <time>2021-04-04T08:50:44Z</time>
      </trkpt>
      <trkpt lat="40.2047350" lon="-3.5484540">
        <ele>510.8</ele>
        <time>2021-04-04T08:50:45Z</time>
      </trkpt>
      <trkpt lat="40.2046890" lon="-3.5484660">
        <ele>510.8</ele>
        <time>2021-04-04T08:50:46Z</time>
      </trkpt>
      <trkpt lat="40.2046430" lon="-3.5484780">
        <ele>510.8</ele>
        <time>2021-04-04T08:50:47Z</time>
      </trkpt>
      <trkpt lat="40.2045970" lon="-3.5484900">
        <ele>510.8</ele>
        <time>2021-04-04T08:50:48Z</time>
      </trkpt>
      <trkpt lat="40.2045520" lon="-3.5485040">
        <ele>510.8</ele>
        <time>2021-04-04T08:50:49Z</time>
      </trkpt>
      <trkpt lat="40.2045100" lon="-3.5485180">
        <ele>510.8</ele>
        <time>2021-04-04T08:50:50Z</time>
      </trkpt>
      <trkpt lat="40.2044640" lon="-3.5485300">
        <ele>510.8</ele>
        <time>2021-04-04T08:50:51Z</time>
      </trkpt>
      <trkpt lat="40.2044180" lon="-3.5485450">
        <ele>510.8</ele>
        <time>2021-04-04T08:50:52Z</time>
      </trkpt>
      <trkpt lat="40.2043720" lon="-3.5485610">
        <ele>511.0</ele>
        <time>2021-04-04T08:50:53Z</time>
      </trkpt>
      <trkpt lat="40.2043270" lon="-3.5485760">
        <ele>511.0</ele>
        <time>2021-04-04T08:50:54Z</time>
      </trkpt>
      <trkpt lat="40.2042850" lon="-3.5485940">
        <ele>511.0</ele>
        <time>2021-04-04T08:50:55Z</time>
      </trkpt>
      <trkpt lat="40.2042430" lon="-3.5486140">
        <ele>511.0</ele>
        <time>2021-04-04T08:50:56Z</time>
      </trkpt>
      <trkpt lat="40.2042010" lon="-3.5486310">
        <ele>511.0</ele>
        <time>2021-04-04T08:50:57Z</time>
      </trkpt>
      <trkpt lat="40.2041550" lon="-3.5486480">
        <ele>511.0</ele>
        <time>2021-04-04T08:50:58Z</time>
      </trkpt>
      <trkpt lat="40.2041090" lon="-3.5486660">
        <ele>511.2</ele>
        <time>2021-04-04T08:50:59Z</time>
      </trkpt>
      <trkpt lat="40.2040630" lon="-3.5486860">
        <ele>511.2</ele>
        <time>2021-04-04T08:51:00Z</time>
      </trkpt>
      <trkpt lat="40.2040210" lon="-3.5487080">
        <ele>511.2</ele>
        <time>2021-04-04T08:51:01Z</time>
      </trkpt>
      <trkpt lat="40.2039800" lon="-3.5487340">
        <ele>511.2</ele>
        <time>2021-04-04T08:51:02Z</time>
      </trkpt>
      <trkpt lat="40.2039340" lon="-3.5487650">
        <ele>511.0</ele>
        <time>2021-04-04T08:51:03Z</time>
      </trkpt>
      <trkpt lat="40.2038880" lon="-3.5487960">
        <ele>511.0</ele>
        <time>2021-04-04T08:51:04Z</time>
      </trkpt>
      <trkpt lat="40.2038420" lon="-3.5488260">
        <ele>511.0</ele>
        <time>2021-04-04T08:51:05Z</time>
      </trkpt>
      <trkpt lat="40.2038000" lon="-3.5488550">
        <ele>511.0</ele>
        <time>2021-04-04T08:51:06Z</time>
      </trkpt>
      <trkpt lat="40.2037540" lon="-3.5488850">
        <ele>511.0</ele>
        <time>2021-04-04T08:51:07Z</time>
      </trkpt>
      <trkpt lat="40.2037090" lon="-3.5489170">
        <ele>510.8</ele>
        <time>2021-04-04T08:51:08Z</time>
      </trkpt>
      <trkpt lat="40.2036590" lon="-3.5489490">
        <ele>510.8</ele>
        <time>2021-04-04T08:51:09Z</time>
      </trkpt>
      <trkpt lat="40.2036090" lon="-3.5489790">
        <ele>510.8</ele>
        <time>2021-04-04T08:51:10Z</time>
      </trkpt>
      <trkpt lat="40.2035600" lon="-3.5490090">
        <ele>510.6</ele>
        <time>2021-04-04T08:51:11Z</time>
      </trkpt>
      <trkpt lat="40.2035060" lon="-3.5490400">
        <ele>510.4</ele>
        <time>2021-04-04T08:51:12Z</time>
      </trkpt>
      <trkpt lat="40.2034570" lon="-3.5490700">
        <ele>510.4</ele>
        <time>2021-04-04T08:51:13Z</time>
      </trkpt>
      <trkpt lat="40.2034000" lon="-3.5490990">
        <ele>510.2</ele>
        <time>2021-04-04T08:51:14Z</time>
      </trkpt>
      <trkpt lat="40.2033420" lon="-3.5491280">
        <ele>510.0</ele>
        <time>2021-04-04T08:51:15Z</time>
      </trkpt>
      <trkpt lat="40.2032890" lon="-3.5491560">
        <ele>510.0</ele>
        <time>2021-04-04T08:51:16Z</time>
      </trkpt>
      <trkpt lat="40.2032320" lon="-3.5491830">
        <ele>509.8</ele>
        <time>2021-04-04T08:51:17Z</time>
      </trkpt>
      <trkpt lat="40.2031750" lon="-3.5492100">
        <ele>509.8</ele>
        <time>2021-04-04T08:51:18Z</time>
      </trkpt>
      <trkpt lat="40.2031170" lon="-3.5492380">
        <ele>509.6</ele>
        <time>2021-04-04T08:51:19Z</time>
      </trkpt>
      <trkpt lat="40.2030600" lon="-3.5492650">
        <ele>509.6</ele>
        <time>2021-04-04T08:51:20Z</time>
      </trkpt>
      <trkpt lat="40.2030030" lon="-3.5492910">
        <ele>509.4</ele>
        <time>2021-04-04T08:51:21Z</time>
      </trkpt>
      <trkpt lat="40.2029420" lon="-3.5493170">
        <ele>509.2</ele>
        <time>2021-04-04T08:51:22Z</time>
      </trkpt>
      <trkpt lat="40.2028850" lon="-3.5493430">
        <ele>509.2</ele>
        <time>2021-04-04T08:51:23Z</time>
      </trkpt>
      <trkpt lat="40.2028240" lon="-3.5493670">
        <ele>509.0</ele>
        <time>2021-04-04T08:51:24Z</time>
      </trkpt>
      <trkpt lat="40.2027660" lon="-3.5493900">
        <ele>508.8</ele>
        <time>2021-04-04T08:51:25Z</time>
      </trkpt>
      <trkpt lat="40.2027090" lon="-3.5494100">
        <ele>508.6</ele>
        <time>2021-04-04T08:51:26Z</time>
      </trkpt>
      <trkpt lat="40.2026520" lon="-3.5494280">
        <ele>508.6</ele>
        <time>2021-04-04T08:51:27Z</time>
      </trkpt>
      <trkpt lat="40.2025910" lon="-3.5494460">
        <ele>508.4</ele>
        <time>2021-04-04T08:51:28Z</time>
      </trkpt>
      <trkpt lat="40.2025340" lon="-3.5494610">
        <ele>508.4</ele>
        <time>2021-04-04T08:51:29Z</time>
      </trkpt>
      <trkpt lat="40.2024760" lon="-3.5494770">
        <ele>508.2</ele>
        <time>2021-04-04T08:51:30Z</time>
      </trkpt>
      <trkpt lat="40.2024190" lon="-3.5494890">
        <ele>508.2</ele>
        <time>2021-04-04T08:51:31Z</time>
      </trkpt>
      <trkpt lat="40.2023660" lon="-3.5494990">
        <ele>508.0</ele>
        <time>2021-04-04T08:51:32Z</time>
      </trkpt>
      <trkpt lat="40.2023090" lon="-3.5495080">
        <ele>508.0</ele>
        <time>2021-04-04T08:51:33Z</time>
      </trkpt>
      <trkpt lat="40.2022510" lon="-3.5495170">
        <ele>507.8</ele>
        <time>2021-04-04T08:51:34Z</time>
      </trkpt>
      <trkpt lat="40.2021940" lon="-3.5495290">
        <ele>507.6</ele>
        <time>2021-04-04T08:51:35Z</time>
      </trkpt>
      <trkpt lat="40.2021330" lon="-3.5495410">
        <ele>507.4</ele>
        <time>2021-04-04T08:51:36Z</time>
      </trkpt>
      <trkpt lat="40.2020760" lon="-3.5495520">
        <ele>507.2</ele>
        <time>2021-04-04T08:51:37Z</time>
      </trkpt>
      <trkpt lat="40.2020110" lon="-3.5495630">
        <ele>506.8</ele>
        <time>2021-04-04T08:51:38Z</time>
      </trkpt>
      <trkpt lat="40.2019420" lon="-3.5495790">
        <ele>506.6</ele>
        <time>2021-04-04T08:51:39Z</time>
      </trkpt>
      <trkpt lat="40.2018780" lon="-3.5495990">
        <ele>506.2</ele>
        <time>2021-04-04T08:51:40Z</time>
      </trkpt>
      <trkpt lat="40.2018130" lon="-3.5496220">
        <ele>506.0</ele>
        <time>2021-04-04T08:51:41Z</time>
      </trkpt>
      <trkpt lat="40.2017520" lon="-3.5496460">
        <ele>505.8</ele>
        <time>2021-04-04T08:51:42Z</time>
      </trkpt>
      <trkpt lat="40.2016940" lon="-3.5496720">
        <ele>505.8</ele>
        <time>2021-04-04T08:51:43Z</time>
      </trkpt>
      <trkpt lat="40.2016410" lon="-3.5496990">
        <ele>505.6</ele>
        <time>2021-04-04T08:51:44Z</time>
      </trkpt>
      <trkpt lat="40.2015840" lon="-3.5497280">
        <ele>505.6</ele>
        <time>2021-04-04T08:51:45Z</time>
      </trkpt>
      <trkpt lat="40.2015300" lon="-3.5497550">
        <ele>505.4</ele>
        <time>2021-04-04T08:51:46Z</time>
      </trkpt>
      <trkpt lat="40.2014770" lon="-3.5497840">
        <ele>505.2</ele>
        <time>2021-04-04T08:51:47Z</time>
      </trkpt>
      <trkpt lat="40.2014200" lon="-3.5498140">
        <ele>505.2</ele>
        <time>2021-04-04T08:51:48Z</time>
      </trkpt>
      <trkpt lat="40.2013660" lon="-3.5498420">
        <ele>505.0</ele>
        <time>2021-04-04T08:51:49Z</time>
      </trkpt>
      <trkpt lat="40.2013090" lon="-3.5498670">
        <ele>504.8</ele>
        <time>2021-04-04T08:51:50Z</time>
      </trkpt>
      <trkpt lat="40.2012520" lon="-3.5498890">
        <ele>504.6</ele>
        <time>2021-04-04T08:51:51Z</time>
      </trkpt>
      <trkpt lat="40.2011950" lon="-3.5499040">
        <ele>504.6</ele>
        <time>2021-04-04T08:51:52Z</time>
      </trkpt>
      <trkpt lat="40.2011300" lon="-3.5499160">
        <ele>504.4</ele>
        <time>2021-04-04T08:51:53Z</time>
      </trkpt>
      <trkpt lat="40.2010690" lon="-3.5499290">
        <ele>504.2</ele>
        <time>2021-04-04T08:51:54Z</time>
      </trkpt>
      <trkpt lat="40.2010080" lon="-3.5499430">
        <ele>504.0</ele>
        <time>2021-04-04T08:51:55Z</time>
      </trkpt>
      <trkpt lat="40.2009510" lon="-3.5499570">
        <ele>504.0</ele>
        <time>2021-04-04T08:51:56Z</time>
      </trkpt>
      <trkpt lat="40.2008900" lon="-3.5499730">
        <ele>503.8</ele>
        <time>2021-04-04T08:51:57Z</time>
      </trkpt>
      <trkpt lat="40.2008320" lon="-3.5499910">
        <ele>503.8</ele>
        <time>2021-04-04T08:51:58Z</time>
      </trkpt>
      <trkpt lat="40.2007750" lon="-3.5500080">
        <ele>503.6</ele>
        <time>2021-04-04T08:51:59Z</time>
      </trkpt>
      <trkpt lat="40.2007180" lon="-3.5500240">
        <ele>503.6</ele>
        <time>2021-04-04T08:52:00Z</time>
      </trkpt>
      <trkpt lat="40.2006640" lon="-3.5500390">
        <ele>503.6</ele>
        <time>2021-04-04T08:52:01Z</time>
      </trkpt>
      <trkpt lat="40.2006110" lon="-3.5500540">
        <ele>503.6</ele>
        <time>2021-04-04T08:52:02Z</time>
      </trkpt>
      <trkpt lat="40.2005620" lon="-3.5500690">
        <ele>503.4</ele>
        <time>2021-04-04T08:52:03Z</time>
      </trkpt>
      <trkpt lat="40.2005080" lon="-3.5500830">
        <ele>503.4</ele>
        <time>2021-04-04T08:52:04Z</time>
      </trkpt>
      <trkpt lat="40.2004550" lon="-3.5500950">
        <ele>503.4</ele>
        <time>2021-04-04T08:52:05Z</time>
      </trkpt>
      <trkpt lat="40.2004050" lon="-3.5501070">
        <ele>503.2</ele>
        <time>2021-04-04T08:52:06Z</time>
      </trkpt>
      <trkpt lat="40.2003560" lon="-3.5501180">
        <ele>503.2</ele>
        <time>2021-04-04T08:52:07Z</time>
      </trkpt>
      <trkpt lat="40.2003060" lon="-3.5501330">
        <ele>503.2</ele>
        <time>2021-04-04T08:52:08Z</time>
      </trkpt>
      <trkpt lat="40.2002600" lon="-3.5501490">
        <ele>503.2</ele>
        <time>2021-04-04T08:52:09Z</time>
      </trkpt>
      <trkpt lat="40.2002140" lon="-3.5501670">
        <ele>503.0</ele>
        <time>2021-04-04T08:52:10Z</time>
      </trkpt>
      <trkpt lat="40.2001650" lon="-3.5501850">
        <ele>503.0</ele>
        <time>2021-04-04T08:52:11Z</time>
      </trkpt>
      <trkpt lat="40.2001190" lon="-3.5502060">
        <ele>503.0</ele>
        <time>2021-04-04T08:52:12Z</time>
      </trkpt>
      <trkpt lat="40.2000730" lon="-3.5502320">
        <ele>503.0</ele>
        <time>2021-04-04T08:52:13Z</time>
      </trkpt>
      <trkpt lat="40.2000270" lon="-3.5502600">
        <ele>503.0</ele>
        <time>2021-04-04T08:52:14Z</time>
      </trkpt>
      <trkpt lat="40.1999850" lon="-3.5502920">
        <ele>503.0</ele>
        <time>2021-04-04T08:52:15Z</time>
      </trkpt>
      <trkpt lat="40.1999440" lon="-3.5503250">
        <ele>503.0</ele>
        <time>2021-04-04T08:52:16Z</time>
      </trkpt>
      <trkpt lat="40.1999020" lon="-3.5503570">
        <ele>503.0</ele>
        <time>2021-04-04T08:52:17Z</time>
      </trkpt>
      <trkpt lat="40.1998600" lon="-3.5503910">
        <ele>503.0</ele>
        <time>2021-04-04T08:52:18Z</time>
      </trkpt>
      <trkpt lat="40.1998210" lon="-3.5504270">
        <ele>502.8</ele>
        <time>2021-04-04T08:52:19Z</time>
      </trkpt>
      <trkpt lat="40.1997800" lon="-3.5504630">
        <ele>502.8</ele>
        <time>2021-04-04T08:52:20Z</time>
      </trkpt>
      <trkpt lat="40.1997340" lon="-3.5504970">
        <ele>502.6</ele>
        <time>2021-04-04T08:52:21Z</time>
      </trkpt>
      <trkpt lat="40.1996880" lon="-3.5505280">
        <ele>502.6</ele>
        <time>2021-04-04T08:52:22Z</time>
      </trkpt>
      <trkpt lat="40.1996420" lon="-3.5505550">
        <ele>502.6</ele>
        <time>2021-04-04T08:52:23Z</time>
      </trkpt>
      <trkpt lat="40.1995960" lon="-3.5505800">
        <ele>502.4</ele>
        <time>2021-04-04T08:52:24Z</time>
      </trkpt>
      <trkpt lat="40.1995470" lon="-3.5506030">
        <ele>502.4</ele>
        <time>2021-04-04T08:52:25Z</time>
      </trkpt>
      <trkpt lat="40.1994970" lon="-3.5506220">
        <ele>502.2</ele>
        <time>2021-04-04T08:52:26Z</time>
      </trkpt>
      <trkpt lat="40.1994480" lon="-3.5506410">
        <ele>502.2</ele>
        <time>2021-04-04T08:52:27Z</time>
      </trkpt>
      <trkpt lat="40.1993980" lon="-3.5506610">
        <ele>502.2</ele>
        <time>2021-04-04T08:52:28Z</time>
      </trkpt>
      <trkpt lat="40.1993520" lon="-3.5506790">
        <ele>502.2</ele>
        <time>2021-04-04T08:52:29Z</time>
      </trkpt>
      <trkpt lat="40.1993030" lon="-3.5506940">
        <ele>502.0</ele>
        <time>2021-04-04T08:52:30Z</time>
      </trkpt>
      <trkpt lat="40.1992490" lon="-3.5507000">
        <ele>502.0</ele>
        <time>2021-04-04T08:52:31Z</time>
      </trkpt>
      <trkpt lat="40.1992000" lon="-3.5507010">
        <ele>502.0</ele>
        <time>2021-04-04T08:52:32Z</time>
      </trkpt>
      <trkpt lat="40.1991500" lon="-3.5507050">
        <ele>502.0</ele>
        <time>2021-04-04T08:52:33Z</time>
      </trkpt>
      <trkpt lat="40.1991010" lon="-3.5507160">
        <ele>502.0</ele>
        <time>2021-04-04T08:52:34Z</time>
      </trkpt>
      <trkpt lat="40.1990510" lon="-3.5507300">
        <ele>502.0</ele>
        <time>2021-04-04T08:52:35Z</time>
      </trkpt>
      <trkpt lat="40.1990010" lon="-3.5507460">
        <ele>502.0</ele>
        <time>2021-04-04T08:52:36Z</time>
      </trkpt>
      <trkpt lat="40.1989550" lon="-3.5507620">
        <ele>502.0</ele>
        <time>2021-04-04T08:52:37Z</time>
      </trkpt>
      <trkpt lat="40.1989060" lon="-3.5507750">
        <ele>501.8</ele>
        <time>2021-04-04T08:52:38Z</time>
      </trkpt>
      <trkpt lat="40.1988530" lon="-3.5507870">
        <ele>501.8</ele>
        <time>2021-04-04T08:52:39Z</time>
      </trkpt>
      <trkpt lat="40.1988030" lon="-3.5507970">
        <ele>501.8</ele>
        <time>2021-04-04T08:52:40Z</time>
      </trkpt>
      <trkpt lat="40.1987530" lon="-3.5508070">
        <ele>501.6</ele>
        <time>2021-04-04T08:52:41Z</time>
      </trkpt>
      <trkpt lat="40.1987040" lon="-3.5508180">
        <ele>501.6</ele>
        <time>2021-04-04T08:52:42Z</time>
      </trkpt>
      <trkpt lat="40.1986540" lon="-3.5508330">
        <ele>501.6</ele>
        <time>2021-04-04T08:52:43Z</time>
      </trkpt>
      <trkpt lat="40.1986080" lon="-3.5508510">
        <ele>501.6</ele>
        <time>2021-04-04T08:52:44Z</time>
      </trkpt>
      <trkpt lat="40.1985630" lon="-3.5508710">
        <ele>501.6</ele>
        <time>2021-04-04T08:52:45Z</time>
      </trkpt>
      <trkpt lat="40.1985130" lon="-3.5508910">
        <ele>501.4</ele>
        <time>2021-04-04T08:52:46Z</time>
      </trkpt>
      <trkpt lat="40.1984630" lon="-3.5509100">
        <ele>501.4</ele>
        <time>2021-04-04T08:52:47Z</time>
      </trkpt>
      <trkpt lat="40.1984140" lon="-3.5509290">
        <ele>501.6</ele>
        <time>2021-04-04T08:52:48Z</time>
      </trkpt>
      <trkpt lat="40.1983680" lon="-3.5509480">
        <ele>501.6</ele>
        <time>2021-04-04T08:52:49Z</time>
      </trkpt>
      <trkpt lat="40.1983260" lon="-3.5509670">
        <ele>501.6</ele>
        <time>2021-04-04T08:52:50Z</time>
      </trkpt>
      <trkpt lat="40.1982840" lon="-3.5509850">
        <ele>501.8</ele>
        <time>2021-04-04T08:52:51Z</time>
      </trkpt>
      <trkpt lat="40.1982380" lon="-3.5510010">
        <ele>501.8</ele>
        <time>2021-04-04T08:52:52Z</time>
      </trkpt>
      <trkpt lat="40.1981960" lon="-3.5510190">
        <ele>501.8</ele>
        <time>2021-04-04T08:52:53Z</time>
      </trkpt>
      <trkpt lat="40.1981510" lon="-3.5510390">
        <ele>502.0</ele>
        <time>2021-04-04T08:52:54Z</time>
      </trkpt>
      <trkpt lat="40.1981050" lon="-3.5510560">
        <ele>502.0</ele>
        <time>2021-04-04T08:52:55Z</time>
      </trkpt>
      <trkpt lat="40.1980590" lon="-3.5510730">
        <ele>502.0</ele>
        <time>2021-04-04T08:52:56Z</time>
      </trkpt>
      <trkpt lat="40.1980100" lon="-3.5510910">
        <ele>502.0</ele>
        <time>2021-04-04T08:52:57Z</time>
      </trkpt>
      <trkpt lat="40.1979600" lon="-3.5511110">
        <ele>501.8</ele>
        <time>2021-04-04T08:52:58Z</time>
      </trkpt>
      <trkpt lat="40.1979100" lon="-3.5511300">
        <ele>501.8</ele>
        <time>2021-04-04T08:52:59Z</time>
      </trkpt>
      <trkpt lat="40.1978610" lon="-3.5511460">
        <ele>501.8</ele>
        <time>2021-04-04T08:53:00Z</time>
      </trkpt>
      <trkpt lat="40.1978110" lon="-3.5511630">
        <ele>501.6</ele>
        <time>2021-04-04T08:53:01Z</time>
      </trkpt>
      <trkpt lat="40.1977580" lon="-3.5511840">
        <ele>501.6</ele>
        <time>2021-04-04T08:53:02Z</time>
      </trkpt>
      <trkpt lat="40.1977080" lon="-3.5512100">
        <ele>501.6</ele>
        <time>2021-04-04T08:53:03Z</time>
      </trkpt>
      <trkpt lat="40.1976620" lon="-3.5512350">
        <ele>501.6</ele>
        <time>2021-04-04T08:53:04Z</time>
      </trkpt>
      <trkpt lat="40.1976130" lon="-3.5512600">
        <ele>501.6</ele>
        <time>2021-04-04T08:53:05Z</time>
      </trkpt>
      <trkpt lat="40.1975630" lon="-3.5512800">
        <ele>501.6</ele>
        <time>2021-04-04T08:53:06Z</time>
      </trkpt>
      <trkpt lat="40.1975140" lon="-3.5513010">
        <ele>501.6</ele>
        <time>2021-04-04T08:53:07Z</time>
      </trkpt>
      <trkpt lat="40.1974640" lon="-3.5513240">
        <ele>501.6</ele>
        <time>2021-04-04T08:53:08Z</time>
      </trkpt>
      <trkpt lat="40.1974140" lon="-3.5513460">
        <ele>501.6</ele>
        <time>2021-04-04T08:53:09Z</time>
      </trkpt>
      <trkpt lat="40.1973610" lon="-3.5513670">
        <ele>501.6</ele>
        <time>2021-04-04T08:53:10Z</time>
      </trkpt>
      <trkpt lat="40.1973150" lon="-3.5513900">
        <ele>501.6</ele>
        <time>2021-04-04T08:53:11Z</time>
      </trkpt>
      <trkpt lat="40.1972660" lon="-3.5514180">
        <ele>501.6</ele>
        <time>2021-04-04T08:53:12Z</time>
      </trkpt>
      <trkpt lat="40.1972200" lon="-3.5514490">
        <ele>501.6</ele>
        <time>2021-04-04T08:53:13Z</time>
      </trkpt>
      <trkpt lat="40.1971740" lon="-3.5514800">
        <ele>501.6</ele>
        <time>2021-04-04T08:53:14Z</time>
      </trkpt>
      <trkpt lat="40.1971280" lon="-3.5515090">
        <ele>501.8</ele>
        <time>2021-04-04T08:53:15Z</time>
      </trkpt>
      <trkpt lat="40.1970860" lon="-3.5515370">
        <ele>501.8</ele>
        <time>2021-04-04T08:53:16Z</time>
      </trkpt>
      <trkpt lat="40.1970370" lon="-3.5515660">
        <ele>502.0</ele>
        <time>2021-04-04T08:53:17Z</time>
      </trkpt>
      <trkpt lat="40.1969950" lon="-3.5515930">
        <ele>502.0</ele>
        <time>2021-04-04T08:53:18Z</time>
      </trkpt>
      <trkpt lat="40.1969490" lon="-3.5516180">
        <ele>502.2</ele>
        <time>2021-04-04T08:53:19Z</time>
      </trkpt>
      <trkpt lat="40.1968990" lon="-3.5516410">
        <ele>502.0</ele>
        <time>2021-04-04T08:53:20Z</time>
      </trkpt>
      <trkpt lat="40.1968460" lon="-3.5516610">
        <ele>502.0</ele>
        <time>2021-04-04T08:53:21Z</time>
      </trkpt>
      <trkpt lat="40.1967930" lon="-3.5516810">
        <ele>501.8</ele>
        <time>2021-04-04T08:53:22Z</time>
      </trkpt>
      <trkpt lat="40.1967350" lon="-3.5517010">
        <ele>501.6</ele>
        <time>2021-04-04T08:53:23Z</time>
      </trkpt>
      <trkpt lat="40.1966780" lon="-3.5517210">
        <ele>501.4</ele>
        <time>2021-04-04T08:53:24Z</time>
      </trkpt>
      <trkpt lat="40.1966210" lon="-3.5517390">
        <ele>501.4</ele>
        <time>2021-04-04T08:53:25Z</time>
      </trkpt>
      <trkpt lat="40.1965640" lon="-3.5517560">
        <ele>501.2</ele>
        <time>2021-04-04T08:53:26Z</time>
      </trkpt>
      <trkpt lat="40.1965060" lon="-3.5517740">
        <ele>501.0</ele>
        <time>2021-04-04T08:53:27Z</time>
      </trkpt>
      <trkpt lat="40.1964490" lon="-3.5517940">
        <ele>501.0</ele>
        <time>2021-04-04T08:53:28Z</time>
      </trkpt>
      <trkpt lat="40.1963960" lon="-3.5518190">
        <ele>501.0</ele>
        <time>2021-04-04T08:53:29Z</time>
      </trkpt>
      <trkpt lat="40.1963420" lon="-3.5518450">
        <ele>500.8</ele>
        <time>2021-04-04T08:53:30Z</time>
      </trkpt>
      <trkpt lat="40.1962890" lon="-3.5518680">
        <ele>500.8</ele>
        <time>2021-04-04T08:53:31Z</time>
      </trkpt>
      <trkpt lat="40.1962320" lon="-3.5518890">
        <ele>500.8</ele>
        <time>2021-04-04T08:53:32Z</time>
      </trkpt>
      <trkpt lat="40.1961780" lon="-3.5519090">
        <ele>500.8</ele>
        <time>2021-04-04T08:53:33Z</time>
      </trkpt>
      <trkpt lat="40.1961290" lon="-3.5519330">
        <ele>500.8</ele>
        <time>2021-04-04T08:53:34Z</time>
      </trkpt>
      <trkpt lat="40.1960790" lon="-3.5519590">
        <ele>500.8</ele>
        <time>2021-04-04T08:53:35Z</time>
      </trkpt>
      <trkpt lat="40.1960260" lon="-3.5519850">
        <ele>500.8</ele>
        <time>2021-04-04T08:53:36Z</time>
      </trkpt>
      <trkpt lat="40.1959720" lon="-3.5520120">
        <ele>500.8</ele>
        <time>2021-04-04T08:53:37Z</time>
      </trkpt>
      <trkpt lat="40.1959190" lon="-3.5520360">
        <ele>500.8</ele>
        <time>2021-04-04T08:53:38Z</time>
      </trkpt>
      <trkpt lat="40.1958690" lon="-3.5520590">
        <ele>501.0</ele>
        <time>2021-04-04T08:53:39Z</time>
      </trkpt>
      <trkpt lat="40.1958160" lon="-3.5520820">
        <ele>501.0</ele>
        <time>2021-04-04T08:53:40Z</time>
      </trkpt>
      <trkpt lat="40.1957660" lon="-3.5521020">
        <ele>501.0</ele>
        <time>2021-04-04T08:53:41Z</time>
      </trkpt>
      <trkpt lat="40.1957210" lon="-3.5521200">
        <ele>501.2</ele>
        <time>2021-04-04T08:53:42Z</time>
      </trkpt>
      <trkpt lat="40.1956710" lon="-3.5521390">
        <ele>501.2</ele>
        <time>2021-04-04T08:53:43Z</time>
      </trkpt>
      <trkpt lat="40.1956180" lon="-3.5521600">
        <ele>501.2</ele>
        <time>2021-04-04T08:53:44Z</time>
      </trkpt>
      <trkpt lat="40.1955680" lon="-3.5521830">
        <ele>501.2</ele>
        <time>2021-04-04T08:53:45Z</time>
      </trkpt>
      <trkpt lat="40.1955150" lon="-3.5522090">
        <ele>501.2</ele>
        <time>2021-04-04T08:53:46Z</time>
      </trkpt>
      <trkpt lat="40.1954650" lon="-3.5522400">
        <ele>501.2</ele>
        <time>2021-04-04T08:53:47Z</time>
      </trkpt>
      <trkpt lat="40.1954150" lon="-3.5522720">
        <ele>501.2</ele>
        <time>2021-04-04T08:53:48Z</time>
      </trkpt>
      <trkpt lat="40.1953660" lon="-3.5523050">
        <ele>501.4</ele>
        <time>2021-04-04T08:53:49Z</time>
      </trkpt>
      <trkpt lat="40.1953200" lon="-3.5523360">
        <ele>501.4</ele>
        <time>2021-04-04T08:53:50Z</time>
      </trkpt>
      <trkpt lat="40.1952670" lon="-3.5523620">
        <ele>501.4</ele>
        <time>2021-04-04T08:53:51Z</time>
      </trkpt>
      <trkpt lat="40.1952170" lon="-3.5523870">
        <ele>501.4</ele>
        <time>2021-04-04T08:53:52Z</time>
      </trkpt>
      <trkpt lat="40.1951640" lon="-3.5524120">
        <ele>501.2</ele>
        <time>2021-04-04T08:53:53Z</time>
      </trkpt>
      <trkpt lat="40.1951140" lon="-3.5524370">
        <ele>501.2</ele>
        <time>2021-04-04T08:53:54Z</time>
      </trkpt>
      <trkpt lat="40.1950570" lon="-3.5524580">
        <ele>501.2</ele>
        <time>2021-04-04T08:53:55Z</time>
      </trkpt>
      <trkpt lat="40.1950040" lon="-3.5524780">
        <ele>501.2</ele>
        <time>2021-04-04T08:53:56Z</time>
      </trkpt>
      <trkpt lat="40.1949460" lon="-3.5524960">
        <ele>501.0</ele>
        <time>2021-04-04T08:53:57Z</time>
      </trkpt>
      <trkpt lat="40.1948930" lon="-3.5525170">
        <ele>501.0</ele>
        <time>2021-04-04T08:53:58Z</time>
      </trkpt>
      <trkpt lat="40.1948390" lon="-3.5525400">
        <ele>501.0</ele>
        <time>2021-04-04T08:53:59Z</time>
      </trkpt>
      <trkpt lat="40.1947860" lon="-3.5525600">
        <ele>501.2</ele>
        <time>2021-04-04T08:54:00Z</time>
      </trkpt>
      <trkpt lat="40.1947330" lon="-3.5525800">
        <ele>501.2</ele>
        <time>2021-04-04T08:54:01Z</time>
      </trkpt>
      <trkpt lat="40.1946870" lon="-3.5526030">
        <ele>501.2</ele>
        <time>2021-04-04T08:54:02Z</time>
      </trkpt>
      <trkpt lat="40.1946370" lon="-3.5526270">
        <ele>501.2</ele>
        <time>2021-04-04T08:54:03Z</time>
      </trkpt>
      <trkpt lat="40.1945920" lon="-3.5526490">
        <ele>501.4</ele>
        <time>2021-04-04T08:54:04Z</time>
      </trkpt>
      <trkpt lat="40.1945460" lon="-3.5526710">
        <ele>501.4</ele>
        <time>2021-04-04T08:54:05Z</time>
      </trkpt>
      <trkpt lat="40.1945000" lon="-3.5526900">
        <ele>501.4</ele>
        <time>2021-04-04T08:54:06Z</time>
      </trkpt>
      <trkpt lat="40.1944540" lon="-3.5527100">
        <ele>501.4</ele>
        <time>2021-04-04T08:54:07Z</time>
      </trkpt>
      <trkpt lat="40.1944050" lon="-3.5527320">
        <ele>501.4</ele>
        <time>2021-04-04T08:54:08Z</time>
      </trkpt>
      <trkpt lat="40.1943590" lon="-3.5527530">
        <ele>501.4</ele>
        <time>2021-04-04T08:54:09Z</time>
      </trkpt>
      <trkpt lat="40.1943130" lon="-3.5527740">
        <ele>501.4</ele>
        <time>2021-04-04T08:54:10Z</time>
      </trkpt>
      <trkpt lat="40.1942670" lon="-3.5527940">
        <ele>501.6</ele>
        <time>2021-04-04T08:54:11Z</time>
      </trkpt>
      <trkpt lat="40.1942210" lon="-3.5528130">
        <ele>501.6</ele>
        <time>2021-04-04T08:54:12Z</time>
      </trkpt>
      <trkpt lat="40.1941720" lon="-3.5528340">
        <ele>501.6</ele>
        <time>2021-04-04T08:54:13Z</time>
      </trkpt>
      <trkpt lat="40.1941260" lon="-3.5528550">
        <ele>501.6</ele>
        <time>2021-04-04T08:54:14Z</time>
      </trkpt>
      <trkpt lat="40.1940800" lon="-3.5528770">
        <ele>501.8</ele>
        <time>2021-04-04T08:54:15Z</time>
      </trkpt>
      <trkpt lat="40.1940380" lon="-3.5529010">
        <ele>501.8</ele>
        <time>2021-04-04T08:54:16Z</time>
      </trkpt>
      <trkpt lat="40.1939960" lon="-3.5529230">
        <ele>501.8</ele>
        <time>2021-04-04T08:54:17Z</time>
      </trkpt>
      <trkpt lat="40.1939580" lon="-3.5529420">
        <ele>501.8</ele>
        <time>2021-04-04T08:54:18Z</time>
      </trkpt>
      <trkpt lat="40.1939160" lon="-3.5529550">
        <ele>501.8</ele>
        <time>2021-04-04T08:54:19Z</time>
      </trkpt>
      <trkpt lat="40.1938780" lon="-3.5529620">
        <ele>501.8</ele>
        <time>2021-04-04T08:54:20Z</time>
      </trkpt>
      <trkpt lat="40.1938440" lon="-3.5529670">
        <ele>502.0</ele>
        <time>2021-04-04T08:54:21Z</time>
      </trkpt>
      <trkpt lat="40.1938100" lon="-3.5529690">
        <ele>502.0</ele>
        <time>2021-04-04T08:54:22Z</time>
      </trkpt>
      <trkpt lat="40.1937750" lon="-3.5529630">
        <ele>502.0</ele>
        <time>2021-04-04T08:54:23Z</time>
      </trkpt>
      <trkpt lat="40.1937410" lon="-3.5529520">
        <ele>502.0</ele>
        <time>2021-04-04T08:54:24Z</time>
      </trkpt>
      <trkpt lat="40.1937030" lon="-3.5529390">
        <ele>502.0</ele>
        <time>2021-04-04T08:54:25Z</time>
      </trkpt>
      <trkpt lat="40.1936680" lon="-3.5529260">
        <ele>502.0</ele>
        <time>2021-04-04T08:54:26Z</time>
      </trkpt>
      <trkpt lat="40.1936300" lon="-3.5529110">
        <ele>502.2</ele>
        <time>2021-04-04T08:54:27Z</time>
      </trkpt>
      <trkpt lat="40.1935960" lon="-3.5528930">
        <ele>502.2</ele>
        <time>2021-04-04T08:54:28Z</time>
      </trkpt>
      <trkpt lat="40.1935620" lon="-3.5528760">
        <ele>502.4</ele>
        <time>2021-04-04T08:54:29Z</time>
      </trkpt>
      <trkpt lat="40.1935270" lon="-3.5528650">
        <ele>502.4</ele>
        <time>2021-04-04T08:54:30Z</time>
      </trkpt>
      <trkpt lat="40.1934930" lon="-3.5528550">
        <ele>502.6</ele>
        <time>2021-04-04T08:54:31Z</time>
      </trkpt>
      <trkpt lat="40.1934590" lon="-3.5528440">
        <ele>502.8</ele>
        <time>2021-04-04T08:54:32Z</time>
      </trkpt>
      <trkpt lat="40.1934240" lon="-3.5528310">
        <ele>503.0</ele>
        <time>2021-04-04T08:54:33Z</time>
      </trkpt>
      <trkpt lat="40.1933940" lon="-3.5528140">
        <ele>503.0</ele>
        <time>2021-04-04T08:54:34Z</time>
      </trkpt>
      <trkpt lat="40.1933630" lon="-3.5527980">
        <ele>503.2</ele>
        <time>2021-04-04T08:54:35Z</time>
      </trkpt>
      <trkpt lat="40.1933330" lon="-3.5527820">
        <ele>503.4</ele>
        <time>2021-04-04T08:54:36Z</time>
      </trkpt>
      <trkpt lat="40.1933020" lon="-3.5527680">
        <ele>503.6</ele>
        <time>2021-04-04T08:54:37Z</time>
      </trkpt>
      <trkpt lat="40.1932750" lon="-3.5527590">
        <ele>503.8</ele>
        <time>2021-04-04T08:54:38Z</time>
      </trkpt>
      <trkpt lat="40.1932490" lon="-3.5527520">
        <ele>504.0</ele>
        <time>2021-04-04T08:54:39Z</time>
      </trkpt>
      <trkpt lat="40.1932220" lon="-3.5527510">
        <ele>504.2</ele>
        <time>2021-04-04T08:54:40Z</time>
      </trkpt>
      <trkpt lat="40.1931950" lon="-3.5527540">
        <ele>504.4</ele>
        <time>2021-04-04T08:54:41Z</time>
      </trkpt>
      <trkpt lat="40.1931690" lon="-3.5527570">
        <ele>504.6</ele>
        <time>2021-04-04T08:54:42Z</time>
      </trkpt>
      <trkpt lat="40.1931420" lon="-3.5527550">
        <ele>504.8</ele>
        <time>2021-04-04T08:54:43Z</time>
      </trkpt>
      <trkpt lat="40.1931150" lon="-3.5527500">
        <ele>505.0</ele>
        <time>2021-04-04T08:54:44Z</time>
      </trkpt>
      <trkpt lat="40.1930850" lon="-3.5527430">
        <ele>505.2</ele>
        <time>2021-04-04T08:54:45Z</time>
      </trkpt>
      <trkpt lat="40.1930540" lon="-3.5527350">
        <ele>505.4</ele>
        <time>2021-04-04T08:54:46Z</time>
      </trkpt>
      <trkpt lat="40.1930240" lon="-3.5527260">
        <ele>505.4</ele>
        <time>2021-04-04T08:54:47Z</time>
      </trkpt>
      <trkpt lat="40.1929930" lon="-3.5527130">
        <ele>505.6</ele>
        <time>2021-04-04T08:54:48Z</time>
      </trkpt>
      <trkpt lat="40.1929630" lon="-3.5526990">
        <ele>505.8</ele>
        <time>2021-04-04T08:54:49Z</time>
      </trkpt>
      <trkpt lat="40.1929320" lon="-3.5526820">
        <ele>505.8</ele>
        <time>2021-04-04T08:54:50Z</time>
      </trkpt>
      <trkpt lat="40.1929050" lon="-3.5526630">
        <ele>506.0</ele>
        <time>2021-04-04T08:54:51Z</time>
      </trkpt>
      <trkpt lat="40.1928790" lon="-3.5526430">
        <ele>506.2</ele>
        <time>2021-04-04T08:54:52Z</time>
      </trkpt>
      <trkpt lat="40.1928520" lon="-3.5526230">
        <ele>506.4</ele>
        <time>2021-04-04T08:54:53Z</time>
      </trkpt>
      <trkpt lat="40.1928290" lon="-3.5526030">
        <ele>506.4</ele>
        <time>2021-04-04T08:54:54Z</time>
      </trkpt>
      <trkpt lat="40.1928060" lon="-3.5525790">
        <ele>506.6</ele>
        <time>2021-04-04T08:54:55Z</time>
      </trkpt>
      <trkpt lat="40.1927870" lon="-3.5525560">
        <ele>506.8</ele>
        <time>2021-04-04T08:54:56Z</time>
      </trkpt>
      <trkpt lat="40.1927680" lon="-3.5525310">
        <ele>507.0</ele>
        <time>2021-04-04T08:54:57Z</time>
      </trkpt>
      <trkpt lat="40.1927530" lon="-3.5525050">
        <ele>507.2</ele>
        <time>2021-04-04T08:54:58Z</time>
      </trkpt>
      <trkpt lat="40.1927410" lon="-3.5524800">
        <ele>507.4</ele>
        <time>2021-04-04T08:54:59Z</time>
      </trkpt>
      <trkpt lat="40.1927300" lon="-3.5524550">
        <ele>507.6</ele>
        <time>2021-04-04T08:55:00Z</time>
      </trkpt>
      <trkpt lat="40.1927190" lon="-3.5524290">
        <ele>507.8</ele>
        <time>2021-04-04T08:55:01Z</time>
      </trkpt>
      <trkpt lat="40.1927070" lon="-3.5524030">
        <ele>508.0</ele>
        <time>2021-04-04T08:55:02Z</time>
      </trkpt>
      <trkpt lat="40.1926990" lon="-3.5523770">
        <ele>508.0</ele>
        <time>2021-04-04T08:55:03Z</time>
      </trkpt>
      <trkpt lat="40.1926880" lon="-3.5523530">
        <ele>508.2</ele>
        <time>2021-04-04T08:55:04Z</time>
      </trkpt>
      <trkpt lat="40.1926770" lon="-3.5523270">
        <ele>508.4</ele>
        <time>2021-04-04T08:55:05Z</time>
      </trkpt>
      <trkpt lat="40.1926690" lon="-3.5523030">
        <ele>508.8</ele>
        <time>2021-04-04T08:55:06Z</time>
      </trkpt>
      <trkpt lat="40.1926610" lon="-3.5522790">
        <ele>509.0</ele>
        <time>2021-04-04T08:55:07Z</time>
      </trkpt>
      <trkpt lat="40.1926540" lon="-3.5522550">
        <ele>509.2</ele>
        <time>2021-04-04T08:55:08Z</time>
      </trkpt>
      <trkpt lat="40.1926500" lon="-3.5522290">
        <ele>509.4</ele>
        <time>2021-04-04T08:55:09Z</time>
      </trkpt>
      <trkpt lat="40.1926420" lon="-3.5522020">
        <ele>509.6</ele>
        <time>2021-04-04T08:55:10Z</time>
      </trkpt>
      <trkpt lat="40.1926380" lon="-3.5521780">
        <ele>509.8</ele>
        <time>2021-04-04T08:55:11Z</time>
      </trkpt>
      <trkpt lat="40.1926380" lon="-3.5521540">
        <ele>510.0</ele>
        <time>2021-04-04T08:55:12Z</time>
      </trkpt>
      <trkpt lat="40.1926350" lon="-3.5521310">
        <ele>510.2</ele>
        <time>2021-04-04T08:55:13Z</time>
      </trkpt>
      <trkpt lat="40.1926270" lon="-3.5521080">
        <ele>510.4</ele>
        <time>2021-04-04T08:55:14Z</time>
      </trkpt>
      <trkpt lat="40.1926230" lon="-3.5520850">
        <ele>510.8</ele>
        <time>2021-04-04T08:55:15Z</time>
      </trkpt>
      <trkpt lat="40.1926190" lon="-3.5520610">
        <ele>511.0</ele>
        <time>2021-04-04T08:55:16Z</time>
      </trkpt>
      <trkpt lat="40.1926120" lon="-3.5520370">
        <ele>511.2</ele>
        <time>2021-04-04T08:55:17Z</time>
      </trkpt>
      <trkpt lat="40.1926040" lon="-3.5520120">
        <ele>511.4</ele>
        <time>2021-04-04T08:55:18Z</time>
      </trkpt>
      <trkpt lat="40.1925960" lon="-3.5519880">
        <ele>511.6</ele>
        <time>2021-04-04T08:55:19Z</time>
      </trkpt>
      <trkpt lat="40.1925890" lon="-3.5519640">
        <ele>512.0</ele>
        <time>2021-04-04T08:55:20Z</time>
      </trkpt>
      <trkpt lat="40.1925810" lon="-3.5519400">
        <ele>512.2</ele>
        <time>2021-04-04T08:55:21Z</time>
      </trkpt>
      <trkpt lat="40.1925770" lon="-3.5519150">
        <ele>512.4</ele>
        <time>2021-04-04T08:55:22Z</time>
      </trkpt>
      <trkpt lat="40.1925700" lon="-3.5518890">
        <ele>512.6</ele>
        <time>2021-04-04T08:55:23Z</time>
      </trkpt>
      <trkpt lat="40.1925620" lon="-3.5518660">
        <ele>513.0</ele>
        <time>2021-04-04T08:55:24Z</time>
      </trkpt>
      <trkpt lat="40.1925540" lon="-3.5518420">
        <ele>513.2</ele>
        <time>2021-04-04T08:55:25Z</time>
      </trkpt>
      <trkpt lat="40.1925430" lon="-3.5518220">
        <ele>513.4</ele>
        <time>2021-04-04T08:55:26Z</time>
      </trkpt>
      <trkpt lat="40.1925350" lon="-3.5518020">
        <ele>513.8</ele>
        <time>2021-04-04T08:55:27Z</time>
      </trkpt>
      <trkpt lat="40.1925320" lon="-3.5517790">
        <ele>514.0</ele>
        <time>2021-04-04T08:55:28Z</time>
      </trkpt>
      <trkpt lat="40.1925240" lon="-3.5517540">
        <ele>514.2</ele>
        <time>2021-04-04T08:55:29Z</time>
      </trkpt>
      <trkpt lat="40.1925160" lon="-3.5517300">
        <ele>514.4</ele>
        <time>2021-04-04T08:55:30Z</time>
      </trkpt>
      <trkpt lat="40.1925050" lon="-3.5517060">
        <ele>514.8</ele>
        <time>2021-04-04T08:55:31Z</time>
      </trkpt>
      <trkpt lat="40.1924930" lon="-3.5516830">
        <ele>515.0</ele>
        <time>2021-04-04T08:55:32Z</time>
      </trkpt>
      <trkpt lat="40.1924860" lon="-3.5516600">
        <ele>515.2</ele>
        <time>2021-04-04T08:55:33Z</time>
      </trkpt>
      <trkpt lat="40.1924780" lon="-3.5516360">
        <ele>515.6</ele>
        <time>2021-04-04T08:55:34Z</time>
      </trkpt>
      <trkpt lat="40.1924710" lon="-3.5516130">
        <ele>515.8</ele>
        <time>2021-04-04T08:55:35Z</time>
      </trkpt>
      <trkpt lat="40.1924590" lon="-3.5515920">
        <ele>516.0</ele>
        <time>2021-04-04T08:55:36Z</time>
      </trkpt>
      <trkpt lat="40.1924480" lon="-3.5515710">
        <ele>516.2</ele>
        <time>2021-04-04T08:55:37Z</time>
      </trkpt>
      <trkpt lat="40.1924400" lon="-3.5515500">
        <ele>516.6</ele>
        <time>2021-04-04T08:55:38Z</time>
      </trkpt>
      <trkpt lat="40.1924320" lon="-3.5515280">
        <ele>516.8</ele>
        <time>2021-04-04T08:55:39Z</time>
      </trkpt>
      <trkpt lat="40.1924210" lon="-3.5515070">
        <ele>517.0</ele>
        <time>2021-04-04T08:55:40Z</time>
      </trkpt>
      <trkpt lat="40.1924130" lon="-3.5514850">
        <ele>517.2</ele>
        <time>2021-04-04T08:55:41Z</time>
      </trkpt>
      <trkpt lat="40.1924060" lon="-3.5514640">
        <ele>517.4</ele>
        <time>2021-04-04T08:55:42Z</time>
      </trkpt>
      <trkpt lat="40.1923980" lon="-3.5514440">
        <ele>517.6</ele>
        <time>2021-04-04T08:55:43Z</time>
      </trkpt>
      <trkpt lat="40.1923870" lon="-3.5514240">
        <ele>517.8</ele>
        <time>2021-04-04T08:55:44Z</time>
      </trkpt>
      <trkpt lat="40.1923830" lon="-3.5514020">
        <ele>518.0</ele>
        <time>2021-04-04T08:55:45Z</time>
      </trkpt>
      <trkpt lat="40.1923790" lon="-3.5513800">
        <ele>518.2</ele>
        <time>2021-04-04T08:55:46Z</time>
      </trkpt>
      <trkpt lat="40.1923790" lon="-3.5513570">
        <ele>518.2</ele>
        <time>2021-04-04T08:55:47Z</time>
      </trkpt>
      <trkpt lat="40.1923750" lon="-3.5513330">
        <ele>518.4</ele>
        <time>2021-04-04T08:55:48Z</time>
      </trkpt>
      <trkpt lat="40.1923680" lon="-3.5513110">
        <ele>518.4</ele>
        <time>2021-04-04T08:55:49Z</time>
      </trkpt>
      <trkpt lat="40.1923600" lon="-3.5512910">
        <ele>518.6</ele>
        <time>2021-04-04T08:55:50Z</time>
      </trkpt>
      <trkpt lat="40.1923480" lon="-3.5512710">
        <ele>518.8</ele>
        <time>2021-04-04T08:55:51Z</time>
      </trkpt>
      <trkpt lat="40.1923410" lon="-3.5512500">
        <ele>519.0</ele>
        <time>2021-04-04T08:55:52Z</time>
      </trkpt>
      <trkpt lat="40.1923370" lon="-3.5512280">
        <ele>519.0</ele>
        <time>2021-04-04T08:55:53Z</time>
      </trkpt>
      <trkpt lat="40.1923290" lon="-3.5512040">
        <ele>519.2</ele>
        <time>2021-04-04T08:55:54Z</time>
      </trkpt>
      <trkpt lat="40.1923260" lon="-3.5511780">
        <ele>519.2</ele>
        <time>2021-04-04T08:55:55Z</time>
      </trkpt>
      <trkpt lat="40.1923220" lon="-3.5511530">
        <ele>519.4</ele>
        <time>2021-04-04T08:55:56Z</time>
      </trkpt>
      <trkpt lat="40.1923180" lon="-3.5511300">
        <ele>519.6</ele>
        <time>2021-04-04T08:55:57Z</time>
      </trkpt>
      <trkpt lat="40.1923140" lon="-3.5511060">
        <ele>519.6</ele>
        <time>2021-04-04T08:55:58Z</time>
      </trkpt>
      <trkpt lat="40.1923100" lon="-3.5510800">
        <ele>519.8</ele>
        <time>2021-04-04T08:55:59Z</time>
      </trkpt>
      <trkpt lat="40.1923030" lon="-3.5510560">
        <ele>520.0</ele>
        <time>2021-04-04T08:56:00Z</time>
      </trkpt>
      <trkpt lat="40.1922990" lon="-3.5510330">
        <ele>520.0</ele>
        <time>2021-04-04T08:56:01Z</time>
      </trkpt>
      <trkpt lat="40.1922910" lon="-3.5510090">
        <ele>520.2</ele>
        <time>2021-04-04T08:56:02Z</time>
      </trkpt>
      <trkpt lat="40.1922800" lon="-3.5509850">
        <ele>520.4</ele>
        <time>2021-04-04T08:56:03Z</time>
      </trkpt>
      <trkpt lat="40.1922720" lon="-3.5509630">
        <ele>520.6</ele>
        <time>2021-04-04T08:56:04Z</time>
      </trkpt>
      <trkpt lat="40.1922650" lon="-3.5509420">
        <ele>520.8</ele>
        <time>2021-04-04T08:56:05Z</time>
      </trkpt>
      <trkpt lat="40.1922570" lon="-3.5509200">
        <ele>521.0</ele>
        <time>2021-04-04T08:56:06Z</time>
      </trkpt>
      <trkpt lat="40.1922490" lon="-3.5508980">
        <ele>521.2</ele>
        <time>2021-04-04T08:56:07Z</time>
      </trkpt>
      <trkpt lat="40.1922420" lon="-3.5508750">
        <ele>521.4</ele>
        <time>2021-04-04T08:56:08Z</time>
      </trkpt>
      <trkpt lat="40.1922340" lon="-3.5508520">
        <ele>521.6</ele>
        <time>2021-04-04T08:56:09Z</time>
      </trkpt>
      <trkpt lat="40.1922260" lon="-3.5508290">
        <ele>521.8</ele>
        <time>2021-04-04T08:56:10Z</time>
      </trkpt>
      <trkpt lat="40.1922190" lon="-3.5508070">
        <ele>522.0</ele>
        <time>2021-04-04T08:56:11Z</time>
      </trkpt>
      <trkpt lat="40.1922150" lon="-3.5507850">
        <ele>522.4</ele>
        <time>2021-04-04T08:56:12Z</time>
      </trkpt>
      <trkpt lat="40.1922150" lon="-3.5507610">
        <ele>522.6</ele>
        <time>2021-04-04T08:56:13Z</time>
      </trkpt>
      <trkpt lat="40.1922070" lon="-3.5507360">
        <ele>522.8</ele>
        <time>2021-04-04T08:56:14Z</time>
      </trkpt>
      <trkpt lat="40.1922040" lon="-3.5507130">
        <ele>523.0</ele>
        <time>2021-04-04T08:56:15Z</time>
      </trkpt>
      <trkpt lat="40.1921960" lon="-3.5506910">
        <ele>523.2</ele>
        <time>2021-04-04T08:56:16Z</time>
      </trkpt>
      <trkpt lat="40.1921880" lon="-3.5506670">
        <ele>523.6</ele>
        <time>2021-04-04T08:56:17Z</time>
      </trkpt>
      <trkpt lat="40.1921840" lon="-3.5506440">
        <ele>523.8</ele>
        <time>2021-04-04T08:56:18Z</time>
      </trkpt>
      <trkpt lat="40.1921810" lon="-3.5506210">
        <ele>524.0</ele>
        <time>2021-04-04T08:56:19Z</time>
      </trkpt>
      <trkpt lat="40.1921730" lon="-3.5505960">
        <ele>524.4</ele>
        <time>2021-04-04T08:56:20Z</time>
      </trkpt>
      <trkpt lat="40.1921650" lon="-3.5505730">
        <ele>524.6</ele>
        <time>2021-04-04T08:56:21Z</time>
      </trkpt>
      <trkpt lat="40.1921580" lon="-3.5505500">
        <ele>524.8</ele>
        <time>2021-04-04T08:56:22Z</time>
      </trkpt>
      <trkpt lat="40.1921500" lon="-3.5505260">
        <ele>525.0</ele>
        <time>2021-04-04T08:56:23Z</time>
      </trkpt>
      <trkpt lat="40.1921430" lon="-3.5505030">
        <ele>525.4</ele>
        <time>2021-04-04T08:56:24Z</time>
      </trkpt>
      <trkpt lat="40.1921390" lon="-3.5504800">
        <ele>525.6</ele>
        <time>2021-04-04T08:56:25Z</time>
      </trkpt>
      <trkpt lat="40.1921310" lon="-3.5504560">
        <ele>525.8</ele>
        <time>2021-04-04T08:56:26Z</time>
      </trkpt>
      <trkpt lat="40.1921270" lon="-3.5504340">
        <ele>526.2</ele>
        <time>2021-04-04T08:56:27Z</time>
      </trkpt>
      <trkpt lat="40.1921230" lon="-3.5504120">
        <ele>526.4</ele>
        <time>2021-04-04T08:56:28Z</time>
      </trkpt>
      <trkpt lat="40.1921200" lon="-3.5503900">
        <ele>526.8</ele>
        <time>2021-04-04T08:56:29Z</time>
      </trkpt>
      <trkpt lat="40.1921160" lon="-3.5503660">
        <ele>527.0</ele>
        <time>2021-04-04T08:56:30Z</time>
      </trkpt>
      <trkpt lat="40.1921120" lon="-3.5503400">
        <ele>527.2</ele>
        <time>2021-04-04T08:56:31Z</time>
      </trkpt>
      <trkpt lat="40.1921120" lon="-3.5503140">
        <ele>527.6</ele>
        <time>2021-04-04T08:56:32Z</time>
      </trkpt>
      <trkpt lat="40.1921080" lon="-3.5502880">
        <ele>527.8</ele>
        <time>2021-04-04T08:56:33Z</time>
      </trkpt>
      <trkpt lat="40.1921080" lon="-3.5502620">
        <ele>528.0</ele>
        <time>2021-04-04T08:56:34Z</time>
      </trkpt>
      <trkpt lat="40.1921080" lon="-3.5502350">
        <ele>528.2</ele>
        <time>2021-04-04T08:56:35Z</time>
      </trkpt>
      <trkpt lat="40.1921080" lon="-3.5502080">
        <ele>528.6</ele>
        <time>2021-04-04T08:56:36Z</time>
      </trkpt>
      <trkpt lat="40.1921120" lon="-3.5501810">
        <ele>528.8</ele>
        <time>2021-04-04T08:56:37Z</time>
      </trkpt>
      <trkpt lat="40.1921160" lon="-3.5501560">
        <ele>529.0</ele>
        <time>2021-04-04T08:56:38Z</time>
      </trkpt>
      <trkpt lat="40.1921200" lon="-3.5501330">
        <ele>529.2</ele>
        <time>2021-04-04T08:56:39Z</time>
      </trkpt>
      <trkpt lat="40.1921270" lon="-3.5501090">
        <ele>529.4</ele>
        <time>2021-04-04T08:56:40Z</time>
      </trkpt>
      <trkpt lat="40.1921350" lon="-3.5500820">
        <ele>529.6</ele>
        <time>2021-04-04T08:56:41Z</time>
      </trkpt>
      <trkpt lat="40.1921390" lon="-3.5500540">
        <ele>529.8</ele>
        <time>2021-04-04T08:56:42Z</time>
      </trkpt>
      <trkpt lat="40.1921460" lon="-3.5500260">
        <ele>529.8</ele>
        <time>2021-04-04T08:56:43Z</time>
      </trkpt>
      <trkpt lat="40.1921500" lon="-3.5499960">
        <ele>530.0</ele>
        <time>2021-04-04T08:56:44Z</time>
      </trkpt>
      <trkpt lat="40.1921540" lon="-3.5499660">
        <ele>530.0</ele>
        <time>2021-04-04T08:56:45Z</time>
      </trkpt>
      <trkpt lat="40.1921620" lon="-3.5499350">
        <ele>530.2</ele>
        <time>2021-04-04T08:56:46Z</time>
      </trkpt>
      <trkpt lat="40.1921690" lon="-3.5499020">
        <ele>530.2</ele>
        <time>2021-04-04T08:56:47Z</time>
      </trkpt>
      <trkpt lat="40.1921770" lon="-3.5498680">
        <ele>530.4</ele>
        <time>2021-04-04T08:56:48Z</time>
      </trkpt>
      <trkpt lat="40.1921840" lon="-3.5498330">
        <ele>530.4</ele>
        <time>2021-04-04T08:56:49Z</time>
      </trkpt>
      <trkpt lat="40.1921920" lon="-3.5497960">
        <ele>530.4</ele>
        <time>2021-04-04T08:56:50Z</time>
      </trkpt>
      <trkpt lat="40.1922040" lon="-3.5497590">
        <ele>530.4</ele>
        <time>2021-04-04T08:56:51Z</time>
      </trkpt>
      <trkpt lat="40.1922110" lon="-3.5497220">
        <ele>530.4</ele>
        <time>2021-04-04T08:56:52Z</time>
      </trkpt>
      <trkpt lat="40.1922150" lon="-3.5496850">
        <ele>530.4</ele>
        <time>2021-04-04T08:56:53Z</time>
      </trkpt>
      <trkpt lat="40.1922190" lon="-3.5496470">
        <ele>530.4</ele>
        <time>2021-04-04T08:56:54Z</time>
      </trkpt>
      <trkpt lat="40.1922190" lon="-3.5496080">
        <ele>530.2</ele>
        <time>2021-04-04T08:56:55Z</time>
      </trkpt>
      <trkpt lat="40.1922190" lon="-3.5495730">
        <ele>530.2</ele>
        <time>2021-04-04T08:56:56Z</time>
      </trkpt>
      <trkpt lat="40.1922190" lon="-3.5495410">
        <ele>530.2</ele>
        <time>2021-04-04T08:56:57Z</time>
      </trkpt>
      <trkpt lat="40.1922190" lon="-3.5495070">
        <ele>530.2</ele>
        <time>2021-04-04T08:56:58Z</time>
      </trkpt>
      <trkpt lat="40.1922150" lon="-3.5494710">
        <ele>530.2</ele>
        <time>2021-04-04T08:56:59Z</time>
      </trkpt>
      <trkpt lat="40.1922110" lon="-3.5494350">
        <ele>530.2</ele>
        <time>2021-04-04T08:57:00Z</time>
      </trkpt>
      <trkpt lat="40.1922040" lon="-3.5494010">
        <ele>530.2</ele>
        <time>2021-04-04T08:57:01Z</time>
      </trkpt>
      <trkpt lat="40.1921960" lon="-3.5493650">
        <ele>530.4</ele>
        <time>2021-04-04T08:57:02Z</time>
      </trkpt>
      <trkpt lat="40.1921840" lon="-3.5493300">
        <ele>530.4</ele>
        <time>2021-04-04T08:57:03Z</time>
      </trkpt>
      <trkpt lat="40.1921730" lon="-3.5492950">
        <ele>530.4</ele>
        <time>2021-04-04T08:57:04Z</time>
      </trkpt>
      <trkpt lat="40.1921620" lon="-3.5492610">
        <ele>530.4</ele>
        <time>2021-04-04T08:57:05Z</time>
      </trkpt>
      <trkpt lat="40.1921460" lon="-3.5492300">
        <ele>530.6</ele>
        <time>2021-04-04T08:57:06Z</time>
      </trkpt>
      <trkpt lat="40.1921310" lon="-3.5491990">
        <ele>530.6</ele>
        <time>2021-04-04T08:57:07Z</time>
      </trkpt>
      <trkpt lat="40.1921200" lon="-3.5491700">
        <ele>530.8</ele>
        <time>2021-04-04T08:57:08Z</time>
      </trkpt>
      <trkpt lat="40.1921080" lon="-3.5491420">
        <ele>531.0</ele>
        <time>2021-04-04T08:57:09Z</time>
      </trkpt>
      <trkpt lat="40.1920970" lon="-3.5491160">
        <ele>531.0</ele>
        <time>2021-04-04T08:57:10Z</time>
      </trkpt>
      <trkpt lat="40.1920810" lon="-3.5490880">
        <ele>531.2</ele>
        <time>2021-04-04T08:57:11Z</time>
      </trkpt>
      <trkpt lat="40.1920700" lon="-3.5490630">
        <ele>531.4</ele>
        <time>2021-04-04T08:57:12Z</time>
      </trkpt>
      <trkpt lat="40.1920550" lon="-3.5490370">
        <ele>531.4</ele>
        <time>2021-04-04T08:57:13Z</time>
      </trkpt>
      <trkpt lat="40.1920430" lon="-3.5490090">
        <ele>531.6</ele>
        <time>2021-04-04T08:57:14Z</time>
      </trkpt>
      <trkpt lat="40.1920280" lon="-3.5489830">
        <ele>531.8</ele>
        <time>2021-04-04T08:57:15Z</time>
      </trkpt>
      <trkpt lat="40.1920130" lon="-3.5489570">
        <ele>532.0</ele>
        <time>2021-04-04T08:57:16Z</time>
      </trkpt>
      <trkpt lat="40.1919980" lon="-3.5489310">
        <ele>532.0</ele>
        <time>2021-04-04T08:57:17Z</time>
      </trkpt>
      <trkpt lat="40.1919860" lon="-3.5489090">
        <ele>532.2</ele>
        <time>2021-04-04T08:57:18Z</time>
      </trkpt>
      <trkpt lat="40.1919710" lon="-3.5488890">
        <ele>532.4</ele>
        <time>2021-04-04T08:57:19Z</time>
      </trkpt>
      <trkpt lat="40.1919560" lon="-3.5488670">
        <ele>532.4</ele>
        <time>2021-04-04T08:57:20Z</time>
      </trkpt>
      <trkpt lat="40.1919480" lon="-3.5488480">
        <ele>532.6</ele>
        <time>2021-04-04T08:57:21Z</time>
      </trkpt>
      <trkpt lat="40.1919290" lon="-3.5488200">
        <ele>532.8</ele>
        <time>2021-04-04T08:57:22Z</time>
      </trkpt>
      <trkpt lat="40.1919100" lon="-3.5487940">
        <ele>533.0</ele>
        <time>2021-04-04T08:57:23Z</time>
      </trkpt>
      <trkpt lat="40.1918940" lon="-3.5487710">
        <ele>533.0</ele>
        <time>2021-04-04T08:57:24Z</time>
      </trkpt>
      <trkpt lat="40.1918790" lon="-3.5487480">
        <ele>533.2</ele>
        <time>2021-04-04T08:57:25Z</time>
      </trkpt>
      <trkpt lat="40.1918640" lon="-3.5487240">
        <ele>533.4</ele>
        <time>2021-04-04T08:57:26Z</time>
      </trkpt>
      <trkpt lat="40.1918490" lon="-3.5487010">
        <ele>533.6</ele>
        <time>2021-04-04T08:57:27Z</time>
      </trkpt>
      <trkpt lat="40.1918330" lon="-3.5486780">
        <ele>533.6</ele>
        <time>2021-04-04T08:57:28Z</time>
      </trkpt>
      <trkpt lat="40.1918220" lon="-3.5486540">
        <ele>533.8</ele>
        <time>2021-04-04T08:57:29Z</time>
      </trkpt>
      <trkpt lat="40.1918070" lon="-3.5486290">
        <ele>533.8</ele>
        <time>2021-04-04T08:57:30Z</time>
      </trkpt>
      <trkpt lat="40.1917920" lon="-3.5486040">
        <ele>534.0</ele>
        <time>2021-04-04T08:57:31Z</time>
      </trkpt>
      <trkpt lat="40.1917720" lon="-3.5485820">
        <ele>534.0</ele>
        <time>2021-04-04T08:57:32Z</time>
      </trkpt>
      <trkpt lat="40.1917530" lon="-3.5485600">
        <ele>534.2</ele>
        <time>2021-04-04T08:57:33Z</time>
      </trkpt>
      <trkpt lat="40.1917300" lon="-3.5485380">
        <ele>534.2</ele>
        <time>2021-04-04T08:57:34Z</time>
      </trkpt>
      <trkpt lat="40.1917110" lon="-3.5485160">
        <ele>534.2</ele>
        <time>2021-04-04T08:57:35Z</time>
      </trkpt>
      <trkpt lat="40.1916920" lon="-3.5484910">
        <ele>534.2</ele>
        <time>2021-04-04T08:57:36Z</time>
      </trkpt>
      <trkpt lat="40.1916730" lon="-3.5484650">
        <ele>534.2</ele>
        <time>2021-04-04T08:57:37Z</time>
      </trkpt>
      <trkpt lat="40.1916540" lon="-3.5484390">
        <ele>534.2</ele>
        <time>2021-04-04T08:57:38Z</time>
      </trkpt>
      <trkpt lat="40.1916350" lon="-3.5484140">
        <ele>534.4</ele>
        <time>2021-04-04T08:57:39Z</time>
      </trkpt>
      <trkpt lat="40.1916160" lon="-3.5483920">
        <ele>534.4</ele>
        <time>2021-04-04T08:57:40Z</time>
      </trkpt>
      <trkpt lat="40.1915970" lon="-3.5483670">
        <ele>534.4</ele>
        <time>2021-04-04T08:57:41Z</time>
      </trkpt>
      <trkpt lat="40.1915780" lon="-3.5483370">
        <ele>534.6</ele>
        <time>2021-04-04T08:57:42Z</time>
      </trkpt>
      <trkpt lat="40.1915630" lon="-3.5483080">
        <ele>534.6</ele>
        <time>2021-04-04T08:57:43Z</time>
      </trkpt>
      <trkpt lat="40.1915470" lon="-3.5482790">
        <ele>534.6</ele>
        <time>2021-04-04T08:57:44Z</time>
      </trkpt>
      <trkpt lat="40.1915320" lon="-3.5482480">
        <ele>534.8</ele>
        <time>2021-04-04T08:57:45Z</time>
      </trkpt>
      <trkpt lat="40.1915210" lon="-3.5482170">
        <ele>534.8</ele>
        <time>2021-04-04T08:57:46Z</time>
      </trkpt>
      <trkpt lat="40.1915020" lon="-3.5481870">
        <ele>535.0</ele>
        <time>2021-04-04T08:57:47Z</time>
      </trkpt>
      <trkpt lat="40.1914900" lon="-3.5481560">
        <ele>535.0</ele>
        <time>2021-04-04T08:57:48Z</time>
      </trkpt>
      <trkpt lat="40.1914790" lon="-3.5481240">
        <ele>535.2</ele>
        <time>2021-04-04T08:57:49Z</time>
      </trkpt>
      <trkpt lat="40.1914670" lon="-3.5480930">
        <ele>535.4</ele>
        <time>2021-04-04T08:57:50Z</time>
      </trkpt>
      <trkpt lat="40.1914560" lon="-3.5480610">
        <ele>535.6</ele>
        <time>2021-04-04T08:57:51Z</time>
      </trkpt>
      <trkpt lat="40.1914480" lon="-3.5480290">
        <ele>535.6</ele>
        <time>2021-04-04T08:57:52Z</time>
      </trkpt>
      <trkpt lat="40.1914410" lon="-3.5479960">
        <ele>535.8</ele>
        <time>2021-04-04T08:57:53Z</time>
      </trkpt>
      <trkpt lat="40.1914330" lon="-3.5479630">
        <ele>536.0</ele>
        <time>2021-04-04T08:57:54Z</time>
      </trkpt>
      <trkpt lat="40.1914250" lon="-3.5479280">
        <ele>536.0</ele>
        <time>2021-04-04T08:57:55Z</time>
      </trkpt>
      <trkpt lat="40.1914220" lon="-3.5478930">
        <ele>536.2</ele>
        <time>2021-04-04T08:57:56Z</time>
      </trkpt>
      <trkpt lat="40.1914140" lon="-3.5478570">
        <ele>536.2</ele>
        <time>2021-04-04T08:57:57Z</time>
      </trkpt>
      <trkpt lat="40.1914060" lon="-3.5478210">
        <ele>536.4</ele>
        <time>2021-04-04T08:57:58Z</time>
      </trkpt>
      <trkpt lat="40.1914020" lon="-3.5477830">
        <ele>536.4</ele>
        <time>2021-04-04T08:57:59Z</time>
      </trkpt>
      <trkpt lat="40.1913950" lon="-3.5477450">
        <ele>536.6</ele>
        <time>2021-04-04T08:58:00Z</time>
      </trkpt>
      <trkpt lat="40.1913870" lon="-3.5477080">
        <ele>536.6</ele>
        <time>2021-04-04T08:58:01Z</time>
      </trkpt>
      <trkpt lat="40.1913800" lon="-3.5476740">
        <ele>536.8</ele>
        <time>2021-04-04T08:58:02Z</time>
      </trkpt>
      <trkpt lat="40.1913720" lon="-3.5476410">
        <ele>537.0</ele>
        <time>2021-04-04T08:58:03Z</time>
      </trkpt>
      <trkpt lat="40.1913600" lon="-3.5476100">
        <ele>537.0</ele>
        <time>2021-04-04T08:58:04Z</time>
      </trkpt>
      <trkpt lat="40.1913490" lon="-3.5475790">
        <ele>537.2</ele>
        <time>2021-04-04T08:58:05Z</time>
      </trkpt>
      <trkpt lat="40.1913380" lon="-3.5475470">
        <ele>537.4</ele>
        <time>2021-04-04T08:58:06Z</time>
      </trkpt>
      <trkpt lat="40.1913260" lon="-3.5475170">
        <ele>537.6</ele>
        <time>2021-04-04T08:58:07Z</time>
      </trkpt>
      <trkpt lat="40.1913110" lon="-3.5474890">
        <ele>537.8</ele>
        <time>2021-04-04T08:58:08Z</time>
      </trkpt>
      <trkpt lat="40.1912990" lon="-3.5474600">
        <ele>538.0</ele>
        <time>2021-04-04T08:58:09Z</time>
      </trkpt>
      <trkpt lat="40.1912840" lon="-3.5474310">
        <ele>538.2</ele>
        <time>2021-04-04T08:58:10Z</time>
      </trkpt>
      <trkpt lat="40.1912730" lon="-3.5474030">
        <ele>538.4</ele>
        <time>2021-04-04T08:58:11Z</time>
      </trkpt>
      <trkpt lat="40.1912610" lon="-3.5473740">
        <ele>538.6</ele>
        <time>2021-04-04T08:58:12Z</time>
      </trkpt>
      <trkpt lat="40.1912460" lon="-3.5473430">
        <ele>539.0</ele>
        <time>2021-04-04T08:58:13Z</time>
      </trkpt>
      <trkpt lat="40.1912350" lon="-3.5473130">
        <ele>539.2</ele>
        <time>2021-04-04T08:58:14Z</time>
      </trkpt>
      <trkpt lat="40.1912230" lon="-3.5472820">
        <ele>539.4</ele>
        <time>2021-04-04T08:58:15Z</time>
      </trkpt>
      <trkpt lat="40.1912120" lon="-3.5472500">
        <ele>539.6</ele>
        <time>2021-04-04T08:58:16Z</time>
      </trkpt>
      <trkpt lat="40.1912000" lon="-3.5472180">
        <ele>539.8</ele>
        <time>2021-04-04T08:58:17Z</time>
      </trkpt>
      <trkpt lat="40.1911890" lon="-3.5471850">
        <ele>540.0</ele>
        <time>2021-04-04T08:58:18Z</time>
      </trkpt>
      <trkpt lat="40.1911770" lon="-3.5471520">
        <ele>540.2</ele>
        <time>2021-04-04T08:58:19Z</time>
      </trkpt>
      <trkpt lat="40.1911700" lon="-3.5471190">
        <ele>540.4</ele>
        <time>2021-04-04T08:58:20Z</time>
      </trkpt>
      <trkpt lat="40.1911580" lon="-3.5470860">
        <ele>540.6</ele>
        <time>2021-04-04T08:58:21Z</time>
      </trkpt>
      <trkpt lat="40.1911510" lon="-3.5470550">
        <ele>540.8</ele>
        <time>2021-04-04T08:58:22Z</time>
      </trkpt>
      <trkpt lat="40.1911430" lon="-3.5470230">
        <ele>541.0</ele>
        <time>2021-04-04T08:58:23Z</time>
      </trkpt>
      <trkpt lat="40.1911350" lon="-3.5469920">
        <ele>541.4</ele>
        <time>2021-04-04T08:58:24Z</time>
      </trkpt>
      <trkpt lat="40.1911320" lon="-3.5469610">
        <ele>541.6</ele>
        <time>2021-04-04T08:58:25Z</time>
      </trkpt>
      <trkpt lat="40.1911240" lon="-3.5469300">
        <ele>541.8</ele>
        <time>2021-04-04T08:58:26Z</time>
      </trkpt>
      <trkpt lat="40.1911200" lon="-3.5469010">
        <ele>542.0</ele>
        <time>2021-04-04T08:58:27Z</time>
      </trkpt>
      <trkpt lat="40.1911160" lon="-3.5468720">
        <ele>542.4</ele>
        <time>2021-04-04T08:58:28Z</time>
      </trkpt>
      <trkpt lat="40.1911090" lon="-3.5468410">
        <ele>542.6</ele>
        <time>2021-04-04T08:58:29Z</time>
      </trkpt>
      <trkpt lat="40.1911050" lon="-3.5468110">
        <ele>542.8</ele>
        <time>2021-04-04T08:58:30Z</time>
      </trkpt>
      <trkpt lat="40.1910970" lon="-3.5467830">
        <ele>543.2</ele>
        <time>2021-04-04T08:58:31Z</time>
      </trkpt>
      <trkpt lat="40.1910930" lon="-3.5467540">
        <ele>543.4</ele>
        <time>2021-04-04T08:58:32Z</time>
      </trkpt>
      <trkpt lat="40.1910860" lon="-3.5467240">
        <ele>543.8</ele>
        <time>2021-04-04T08:58:33Z</time>
      </trkpt>
      <trkpt lat="40.1910740" lon="-3.5466950">
        <ele>544.0</ele>
        <time>2021-04-04T08:58:34Z</time>
      </trkpt>
      <trkpt lat="40.1910630" lon="-3.5466680">
        <ele>544.4</ele>
        <time>2021-04-04T08:58:35Z</time>
      </trkpt>
      <trkpt lat="40.1910510" lon="-3.5466410">
        <ele>544.6</ele>
        <time>2021-04-04T08:58:36Z</time>
      </trkpt>
      <trkpt lat="40.1910400" lon="-3.5466130">
        <ele>544.8</ele>
        <time>2021-04-04T08:58:37Z</time>
      </trkpt>
      <trkpt lat="40.1910250" lon="-3.5465860">
        <ele>545.2</ele>
        <time>2021-04-04T08:58:38Z</time>
      </trkpt>
      <trkpt lat="40.1910100" lon="-3.5465610">
        <ele>545.4</ele>
        <time>2021-04-04T08:58:39Z</time>
      </trkpt>
      <trkpt lat="40.1909940" lon="-3.5465350">
        <ele>545.6</ele>
        <time>2021-04-04T08:58:40Z</time>
      </trkpt>
      <trkpt lat="40.1909790" lon="-3.5465100">
        <ele>546.0</ele>
        <time>2021-04-04T08:58:41Z</time>
      </trkpt>
      <trkpt lat="40.1909680" lon="-3.5464860">
        <ele>546.2</ele>
        <time>2021-04-04T08:58:42Z</time>
      </trkpt>
      <trkpt lat="40.1909490" lon="-3.5464600">
        <ele>546.4</ele>
        <time>2021-04-04T08:58:43Z</time>
      </trkpt>
      <trkpt lat="40.1909330" lon="-3.5464350">
        <ele>546.6</ele>
        <time>2021-04-04T08:58:44Z</time>
      </trkpt>
      <trkpt lat="40.1909180" lon="-3.5464110">
        <ele>546.8</ele>
        <time>2021-04-04T08:58:45Z</time>
      </trkpt>
      <trkpt lat="40.1909030" lon="-3.5463880">
        <ele>547.0</ele>
        <time>2021-04-04T08:58:46Z</time>
      </trkpt>
      <trkpt lat="40.1908840" lon="-3.5463640">
        <ele>547.2</ele>
        <time>2021-04-04T08:58:47Z</time>
      </trkpt>
      <trkpt lat="40.1908720" lon="-3.5463390">
        <ele>547.4</ele>
        <time>2021-04-04T08:58:48Z</time>
      </trkpt>
      <trkpt lat="40.1908570" lon="-3.5463130">
        <ele>547.6</ele>
        <time>2021-04-04T08:58:49Z</time>
      </trkpt>
      <trkpt lat="40.1908420" lon="-3.5462870">
        <ele>547.6</ele>
        <time>2021-04-04T08:58:50Z</time>
      </trkpt>
      <trkpt lat="40.1908260" lon="-3.5462600">
        <ele>547.8</ele>
        <time>2021-04-04T08:58:51Z</time>
      </trkpt>
      <trkpt lat="40.1908150" lon="-3.5462320">
        <ele>548.0</ele>
        <time>2021-04-04T08:58:52Z</time>
      </trkpt>
      <trkpt lat="40.1908040" lon="-3.5462060">
        <ele>548.2</ele>
        <time>2021-04-04T08:58:53Z</time>
      </trkpt>
      <trkpt lat="40.1907880" lon="-3.5461800">
        <ele>548.2</ele>
        <time>2021-04-04T08:58:54Z</time>
      </trkpt>
      <trkpt lat="40.1907770" lon="-3.5461540">
        <ele>548.4</ele>
        <time>2021-04-04T08:58:55Z</time>
      </trkpt>
      <trkpt lat="40.1907650" lon="-3.5461260">
        <ele>548.4</ele>
        <time>2021-04-04T08:58:56Z</time>
      </trkpt>
      <trkpt lat="40.1907540" lon="-3.5460970">
        <ele>548.6</ele>
        <time>2021-04-04T08:58:57Z</time>
      </trkpt>
      <trkpt lat="40.1907420" lon="-3.5460660">
        <ele>548.8</ele>
        <time>2021-04-04T08:58:58Z</time>
      </trkpt>
      <trkpt lat="40.1907310" lon="-3.5460350">
        <ele>548.8</ele>
        <time>2021-04-04T08:58:59Z</time>
      </trkpt>
      <trkpt lat="40.1907200" lon="-3.5460030">
        <ele>549.0</ele>
        <time>2021-04-04T08:59:00Z</time>
      </trkpt>
      <trkpt lat="40.1907120" lon="-3.5459710">
        <ele>549.0</ele>
        <time>2021-04-04T08:59:01Z</time>
      </trkpt>
      <trkpt lat="40.1907040" lon="-3.5459400">
        <ele>549.2</ele>
        <time>2021-04-04T08:59:02Z</time>
      </trkpt>
      <trkpt lat="40.1907000" lon="-3.5459070">
        <ele>549.2</ele>
        <time>2021-04-04T08:59:03Z</time>
      </trkpt>
      <trkpt lat="40.1906930" lon="-3.5458750">
        <ele>549.4</ele>
        <time>2021-04-04T08:59:04Z</time>
      </trkpt>
      <trkpt lat="40.1906890" lon="-3.5458410">
        <ele>549.4</ele>
        <time>2021-04-04T08:59:05Z</time>
      </trkpt>
      <trkpt lat="40.1906850" lon="-3.5458050">
        <ele>549.6</ele>
        <time>2021-04-04T08:59:06Z</time>
      </trkpt>
      <trkpt lat="40.1906810" lon="-3.5457680">
        <ele>549.6</ele>
        <time>2021-04-04T08:59:07Z</time>
      </trkpt>
      <trkpt lat="40.1906810" lon="-3.5457320">
        <ele>549.8</ele>
        <time>2021-04-04T08:59:08Z</time>
      </trkpt>
      <trkpt lat="40.1906740" lon="-3.5456980">
        <ele>549.8</ele>
        <time>2021-04-04T08:59:09Z</time>
      </trkpt>
      <trkpt lat="40.1906660" lon="-3.5456630">
        <ele>549.8</ele>
        <time>2021-04-04T08:59:10Z</time>
      </trkpt>
      <trkpt lat="40.1906620" lon="-3.5456290">
        <ele>550.0</ele>
        <time>2021-04-04T08:59:11Z</time>
      </trkpt>
      <trkpt lat="40.1906590" lon="-3.5455950">
        <ele>550.0</ele>
        <time>2021-04-04T08:59:12Z</time>
      </trkpt>
      <trkpt lat="40.1906510" lon="-3.5455610">
        <ele>550.0</ele>
        <time>2021-04-04T08:59:13Z</time>
      </trkpt>
      <trkpt lat="40.1906430" lon="-3.5455270">
        <ele>550.2</ele>
        <time>2021-04-04T08:59:14Z</time>
      </trkpt>
      <trkpt lat="40.1906360" lon="-3.5454910">
        <ele>550.2</ele>
        <time>2021-04-04T08:59:15Z</time>
      </trkpt>
      <trkpt lat="40.1906320" lon="-3.5454560">
        <ele>550.4</ele>
        <time>2021-04-04T08:59:16Z</time>
      </trkpt>
      <trkpt lat="40.1906240" lon="-3.5454200">
        <ele>550.4</ele>
        <time>2021-04-04T08:59:17Z</time>
      </trkpt>
      <trkpt lat="40.1906200" lon="-3.5453850">
        <ele>550.6</ele>
        <time>2021-04-04T08:59:18Z</time>
      </trkpt>
      <trkpt lat="40.1906170" lon="-3.5453500">
        <ele>550.6</ele>
        <time>2021-04-04T08:59:19Z</time>
      </trkpt>
      <trkpt lat="40.1906130" lon="-3.5453150">
        <ele>550.8</ele>
        <time>2021-04-04T08:59:20Z</time>
      </trkpt>
      <trkpt lat="40.1906090" lon="-3.5452800">
        <ele>550.8</ele>
        <time>2021-04-04T08:59:21Z</time>
      </trkpt>
      <trkpt lat="40.1906050" lon="-3.5452460">
        <ele>551.0</ele>
        <time>2021-04-04T08:59:22Z</time>
      </trkpt>
      <trkpt lat="40.1906010" lon="-3.5452120">
        <ele>551.2</ele>
        <time>2021-04-04T08:59:23Z</time>
      </trkpt>
      <trkpt lat="40.1905980" lon="-3.5451760">
        <ele>551.2</ele>
        <time>2021-04-04T08:59:24Z</time>
      </trkpt>
      <trkpt lat="40.1905940" lon="-3.5451420">
        <ele>551.4</ele>
        <time>2021-04-04T08:59:25Z</time>
      </trkpt>
      <trkpt lat="40.1905940" lon="-3.5451100">
        <ele>551.6</ele>
        <time>2021-04-04T08:59:26Z</time>
      </trkpt>
      <trkpt lat="40.1905940" lon="-3.5450800">
        <ele>551.8</ele>
        <time>2021-04-04T08:59:27Z</time>
      </trkpt>
      <trkpt lat="40.1905940" lon="-3.5450500">
        <ele>551.8</ele>
        <time>2021-04-04T08:59:28Z</time>
      </trkpt>
      <trkpt lat="40.1905860" lon="-3.5450210">
        <ele>552.0</ele>
        <time>2021-04-04T08:59:29Z</time>
      </trkpt>
      <trkpt lat="40.1905780" lon="-3.5449960">
        <ele>552.2</ele>
        <time>2021-04-04T08:59:30Z</time>
      </trkpt>
      <trkpt lat="40.1905750" lon="-3.5449690">
        <ele>552.4</ele>
        <time>2021-04-04T08:59:31Z</time>
      </trkpt>
      <trkpt lat="40.1905670" lon="-3.5449410">
        <ele>552.6</ele>
        <time>2021-04-04T08:59:32Z</time>
      </trkpt>
      <trkpt lat="40.1905630" lon="-3.5449140">
        <ele>552.6</ele>
        <time>2021-04-04T08:59:33Z</time>
      </trkpt>
      <trkpt lat="40.1905560" lon="-3.5448870">
        <ele>552.8</ele>
        <time>2021-04-04T08:59:34Z</time>
      </trkpt>
      <trkpt lat="40.1905480" lon="-3.5448600">
        <ele>553.0</ele>
        <time>2021-04-04T08:59:35Z</time>
      </trkpt>
      <trkpt lat="40.1905400" lon="-3.5448340">
        <ele>553.0</ele>
        <time>2021-04-04T08:59:36Z</time>
      </trkpt>
      <trkpt lat="40.1905330" lon="-3.5448090">
        <ele>553.2</ele>
        <time>2021-04-04T08:59:37Z</time>
      </trkpt>
      <trkpt lat="40.1905210" lon="-3.5447860">
        <ele>553.2</ele>
        <time>2021-04-04T08:59:38Z</time>
      </trkpt>
      <trkpt lat="40.1905020" lon="-3.5447640">
        <ele>553.4</ele>
        <time>2021-04-04T08:59:39Z</time>
      </trkpt>
      <trkpt lat="40.1904830" lon="-3.5447440">
        <ele>553.4</ele>
        <time>2021-04-04T08:59:40Z</time>
      </trkpt>
      <trkpt lat="40.1904640" lon="-3.5447260">
        <ele>553.6</ele>
        <time>2021-04-04T08:59:41Z</time>
      </trkpt>
      <trkpt lat="40.1904490" lon="-3.5447060">
        <ele>553.6</ele>
        <time>2021-04-04T08:59:42Z</time>
      </trkpt>
      <trkpt lat="40.1904340" lon="-3.5446850">
        <ele>553.8</ele>
        <time>2021-04-04T08:59:43Z</time>
      </trkpt>
      <trkpt lat="40.1904220" lon="-3.5446640">
        <ele>554.0</ele>
        <time>2021-04-04T08:59:44Z</time>
      </trkpt>
      <trkpt lat="40.1904110" lon="-3.5446430">
        <ele>554.0</ele>
        <time>2021-04-04T08:59:45Z</time>
      </trkpt>
      <trkpt lat="40.1904030" lon="-3.5446170">
        <ele>554.2</ele>
        <time>2021-04-04T08:59:46Z</time>
      </trkpt>
      <trkpt lat="40.1903920" lon="-3.5445880">
        <ele>554.2</ele>
        <time>2021-04-04T08:59:47Z</time>
      </trkpt>
      <trkpt lat="40.1903800" lon="-3.5445600">
        <ele>554.4</ele>
        <time>2021-04-04T08:59:48Z</time>
      </trkpt>
      <trkpt lat="40.1903610" lon="-3.5445410">
        <ele>554.4</ele>
        <time>2021-04-04T08:59:49Z</time>
      </trkpt>
      <trkpt lat="40.1903460" lon="-3.5445270">
        <ele>554.6</ele>
        <time>2021-04-04T08:59:50Z</time>
      </trkpt>
      <trkpt lat="40.1903230" lon="-3.5445160">
        <ele>554.6</ele>
        <time>2021-04-04T08:59:51Z</time>
      </trkpt>
      <trkpt lat="40.1903000" lon="-3.5445060">
        <ele>554.8</ele>
        <time>2021-04-04T08:59:52Z</time>
      </trkpt>
      <trkpt lat="40.1902850" lon="-3.5444920">
        <ele>554.8</ele>
        <time>2021-04-04T08:59:53Z</time>
      </trkpt>
      <trkpt lat="40.1902700" lon="-3.5444730">
        <ele>555.0</ele>
        <time>2021-04-04T08:59:54Z</time>
      </trkpt>
      <trkpt lat="40.1902500" lon="-3.5444550">
        <ele>555.0</ele>
        <time>2021-04-04T08:59:55Z</time>
      </trkpt>
      <trkpt lat="40.1902280" lon="-3.5444360">
        <ele>555.2</ele>
        <time>2021-04-04T08:59:56Z</time>
      </trkpt>
      <trkpt lat="40.1902080" lon="-3.5444180">
        <ele>555.4</ele>
        <time>2021-04-04T08:59:57Z</time>
      </trkpt>
      <trkpt lat="40.1901890" lon="-3.5444000">
        <ele>555.4</ele>
        <time>2021-04-04T08:59:58Z</time>
      </trkpt>
      <trkpt lat="40.1901700" lon="-3.5443830">
        <ele>555.6</ele>
        <time>2021-04-04T08:59:59Z</time>
      </trkpt>
      <trkpt lat="40.1901510" lon="-3.5443640">
        <ele>555.6</ele>
        <time>2021-04-04T09:00:00Z</time>
      </trkpt>
      <trkpt lat="40.1901320" lon="-3.5443460">
        <ele>555.8</ele>
        <time>2021-04-04T09:00:01Z</time>
      </trkpt>
      <trkpt lat="40.1901090" lon="-3.5443280">
        <ele>555.8</ele>
        <time>2021-04-04T09:00:02Z</time>
      </trkpt>
      <trkpt lat="40.1900900" lon="-3.5443100">
        <ele>556.0</ele>
        <time>2021-04-04T09:00:03Z</time>
      </trkpt>
      <trkpt lat="40.1900710" lon="-3.5442920">
        <ele>556.0</ele>
        <time>2021-04-04T09:00:04Z</time>
      </trkpt>
      <trkpt lat="40.1900520" lon="-3.5442750">
        <ele>556.2</ele>
        <time>2021-04-04T09:00:05Z</time>
      </trkpt>
      <trkpt lat="40.1900330" lon="-3.5442560">
        <ele>556.2</ele>
        <time>2021-04-04T09:00:06Z</time>
      </trkpt>
      <trkpt lat="40.1900210" lon="-3.5442370">
        <ele>556.4</ele>
        <time>2021-04-04T09:00:07Z</time>
      </trkpt>
      <trkpt lat="40.1900020" lon="-3.5442180">
        <ele>556.4</ele>
        <time>2021-04-04T09:00:08Z</time>
      </trkpt>
      <trkpt lat="40.1899800" lon="-3.5441980">
        <ele>556.6</ele>
        <time>2021-04-04T09:00:09Z</time>
      </trkpt>
      <trkpt lat="40.1899600" lon="-3.5441790">
        <ele>556.6</ele>
        <time>2021-04-04T09:00:10Z</time>
      </trkpt>
      <trkpt lat="40.1899380" lon="-3.5441620">
        <ele>556.8</ele>
        <time>2021-04-04T09:00:11Z</time>
      </trkpt>
      <trkpt lat="40.1899190" lon="-3.5441460">
        <ele>557.0</ele>
        <time>2021-04-04T09:00:12Z</time>
      </trkpt>
      <trkpt lat="40.1898990" lon="-3.5441300">
        <ele>557.0</ele>
        <time>2021-04-04T09:00:13Z</time>
      </trkpt>
      <trkpt lat="40.1898800" lon="-3.5441140">
        <ele>557.2</ele>
        <time>2021-04-04T09:00:14Z</time>
      </trkpt>
      <trkpt lat="40.1898570" lon="-3.5440990">
        <ele>557.4</ele>
        <time>2021-04-04T09:00:15Z</time>
      </trkpt>
      <trkpt lat="40.1898350" lon="-3.5440840">
        <ele>557.4</ele>
        <time>2021-04-04T09:00:16Z</time>
      </trkpt>
      <trkpt lat="40.1898120" lon="-3.5440690">
        <ele>557.6</ele>
        <time>2021-04-04T09:00:17Z</time>
      </trkpt>
      <trkpt lat="40.1897930" lon="-3.5440550">
        <ele>557.6</ele>
        <time>2021-04-04T09:00:18Z</time>
      </trkpt>
      <trkpt lat="40.1897740" lon="-3.5440420">
        <ele>557.8</ele>
        <time>2021-04-04T09:00:19Z</time>
      </trkpt>
      <trkpt lat="40.1897580" lon="-3.5440320">
        <ele>558.0</ele>
        <time>2021-04-04T09:00:20Z</time>
      </trkpt>
      <trkpt lat="40.1897390" lon="-3.5440250">
        <ele>558.2</ele>
        <time>2021-04-04T09:00:21Z</time>
      </trkpt>
      <trkpt lat="40.1897200" lon="-3.5440150">
        <ele>558.2</ele>
        <time>2021-04-04T09:00:22Z</time>
      </trkpt>
      <trkpt lat="40.1896970" lon="-3.5440020">
        <ele>558.4</ele>
        <time>2021-04-04T09:00:23Z</time>
      </trkpt>
      <trkpt lat="40.1896780" lon="-3.5439900">
        <ele>558.6</ele>
        <time>2021-04-04T09:00:24Z</time>
      </trkpt>
      <trkpt lat="40.1896550" lon="-3.5439770">
        <ele>558.6</ele>
        <time>2021-04-04T09:00:25Z</time>
      </trkpt>
      <trkpt lat="40.1896320" lon="-3.5439670">
        <ele>558.8</ele>
        <time>2021-04-04T09:00:26Z</time>
      </trkpt>
      <trkpt lat="40.1896100" lon="-3.5439580">
        <ele>559.0</ele>
        <time>2021-04-04T09:00:27Z</time>
      </trkpt>
      <trkpt lat="40.1895900" lon="-3.5439460">
        <ele>559.2</ele>
        <time>2021-04-04T09:00:28Z</time>
      </trkpt>
      <trkpt lat="40.1895680" lon="-3.5439340">
        <ele>559.4</ele>
        <time>2021-04-04T09:00:29Z</time>
      </trkpt>
      <trkpt lat="40.1895450" lon="-3.5439230">
        <ele>559.6</ele>
        <time>2021-04-04T09:00:30Z</time>
      </trkpt>
      <trkpt lat="40.1895220" lon="-3.5439120">
        <ele>559.8</ele>
        <time>2021-04-04T09:00:31Z</time>
      </trkpt>
      <trkpt lat="40.1894990" lon="-3.5439000">
        <ele>559.8</ele>
        <time>2021-04-04T09:00:32Z</time>
      </trkpt>
      <trkpt lat="40.1894760" lon="-3.5438850">
        <ele>560.0</ele>
        <time>2021-04-04T09:00:33Z</time>
      </trkpt>
      <trkpt lat="40.1894570" lon="-3.5438700">
        <ele>560.2</ele>
        <time>2021-04-04T09:00:34Z</time>
      </trkpt>
      <trkpt lat="40.1894380" lon="-3.5438560">
        <ele>560.4</ele>
        <time>2021-04-04T09:00:35Z</time>
      </trkpt>
      <trkpt lat="40.1894150" lon="-3.5438410">
        <ele>560.6</ele>
        <time>2021-04-04T09:00:36Z</time>
      </trkpt>
      <trkpt lat="40.1893960" lon="-3.5438260">
        <ele>560.6</ele>
        <time>2021-04-04T09:00:37Z</time>
      </trkpt>
      <trkpt lat="40.1893730" lon="-3.5438110">
        <ele>560.8</ele>
        <time>2021-04-04T09:00:38Z</time>
      </trkpt>
      <trkpt lat="40.1893540" lon="-3.5437960">
        <ele>561.0</ele>
        <time>2021-04-04T09:00:39Z</time>
      </trkpt>
      <trkpt lat="40.1893310" lon="-3.5437790">
        <ele>561.0</ele>
        <time>2021-04-04T09:00:40Z</time>
      </trkpt>
      <trkpt lat="40.1893080" lon="-3.5437660">
        <ele>561.2</ele>
        <time>2021-04-04T09:00:41Z</time>
      </trkpt>
      <trkpt lat="40.1892850" lon="-3.5437550">
        <ele>561.4</ele>
        <time>2021-04-04T09:00:42Z</time>
      </trkpt>
      <trkpt lat="40.1892620" lon="-3.5437420">
        <ele>561.4</ele>
        <time>2021-04-04T09:00:43Z</time>
      </trkpt>
      <trkpt lat="40.1892400" lon="-3.5437270">
        <ele>561.6</ele>
        <time>2021-04-04T09:00:44Z</time>
      </trkpt>
      <trkpt lat="40.1892200" lon="-3.5437110">
        <ele>561.6</ele>
        <time>2021-04-04T09:00:45Z</time>
      </trkpt>
      <trkpt lat="40.1892010" lon="-3.5436930">
        <ele>561.8</ele>
        <time>2021-04-04T09:00:46Z</time>
      </trkpt>
      <trkpt lat="40.1891820" lon="-3.5436770">
        <ele>561.8</ele>
        <time>2021-04-04T09:00:47Z</time>
      </trkpt>
      <trkpt lat="40.1891590" lon="-3.5436630">
        <ele>562.0</ele>
        <time>2021-04-04T09:00:48Z</time>
      </trkpt>
      <trkpt lat="40.1891400" lon="-3.5436490">
        <ele>562.2</ele>
        <time>2021-04-04T09:00:49Z</time>
      </trkpt>
      <trkpt lat="40.1891210" lon="-3.5436340">
        <ele>562.4</ele>
        <time>2021-04-04T09:00:50Z</time>
      </trkpt>
      <trkpt lat="40.1891020" lon="-3.5436200">
        <ele>562.4</ele>
        <time>2021-04-04T09:00:51Z</time>
      </trkpt>
      <trkpt lat="40.1890830" lon="-3.5436070">
        <ele>562.6</ele>
        <time>2021-04-04T09:00:52Z</time>
      </trkpt>
      <trkpt lat="40.1890640" lon="-3.5435970">
        <ele>562.6</ele>
        <time>2021-04-04T09:00:53Z</time>
      </trkpt>
      <trkpt lat="40.1890410" lon="-3.5435890">
        <ele>562.8</ele>
        <time>2021-04-04T09:00:54Z</time>
      </trkpt>
      <trkpt lat="40.1890220" lon="-3.5435800">
        <ele>563.0</ele>
        <time>2021-04-04T09:00:55Z</time>
      </trkpt>
      <trkpt lat="40.1889990" lon="-3.5435690">
        <ele>563.2</ele>
        <time>2021-04-04T09:00:56Z</time>
      </trkpt>
      <trkpt lat="40.1889800" lon="-3.5435580">
        <ele>563.2</ele>
        <time>2021-04-04T09:00:57Z</time>
      </trkpt>
      <trkpt lat="40.1889570" lon="-3.5435490">
        <ele>563.4</ele>
        <time>2021-04-04T09:00:58Z</time>
      </trkpt>
      <trkpt lat="40.1889340" lon="-3.5435420">
        <ele>563.6</ele>
        <time>2021-04-04T09:00:59Z</time>
      </trkpt>
      <trkpt lat="40.1889150" lon="-3.5435380">
        <ele>563.8</ele>
        <time>2021-04-04T09:01:00Z</time>
      </trkpt>
      <trkpt lat="40.1888960" lon="-3.5435320">
        <ele>564.0</ele>
        <time>2021-04-04T09:01:01Z</time>
      </trkpt>
      <trkpt lat="40.1888770" lon="-3.5435260">
        <ele>564.4</ele>
        <time>2021-04-04T09:01:02Z</time>
      </trkpt>
      <trkpt lat="40.1888540" lon="-3.5435210">
        <ele>564.6</ele>
        <time>2021-04-04T09:01:03Z</time>
      </trkpt>
      <trkpt lat="40.1888350" lon="-3.5435160">
        <ele>564.8</ele>
        <time>2021-04-04T09:01:04Z</time>
      </trkpt>
      <trkpt lat="40.1888120" lon="-3.5435080">
        <ele>565.0</ele>
        <time>2021-04-04T09:01:05Z</time>
      </trkpt>
      <trkpt lat="40.1887930" lon="-3.5434950">
        <ele>565.2</ele>
        <time>2021-04-04T09:01:06Z</time>
      </trkpt>
      <trkpt lat="40.1887740" lon="-3.5434780">
        <ele>565.4</ele>
        <time>2021-04-04T09:01:07Z</time>
      </trkpt>
      <trkpt lat="40.1887590" lon="-3.5434600">
        <ele>565.6</ele>
        <time>2021-04-04T09:01:08Z</time>
      </trkpt>
      <trkpt lat="40.1887440" lon="-3.5434410">
        <ele>565.8</ele>
        <time>2021-04-04T09:01:09Z</time>
      </trkpt>
      <trkpt lat="40.1887320" lon="-3.5434210">
        <ele>566.0</ele>
        <time>2021-04-04T09:01:10Z</time>
      </trkpt>
      <trkpt lat="40.1887170" lon="-3.5434020">
        <ele>566.0</ele>
        <time>2021-04-04T09:01:11Z</time>
      </trkpt>
      <trkpt lat="40.1887020" lon="-3.5433800">
        <ele>566.2</ele>
        <time>2021-04-04T09:01:12Z</time>
      </trkpt>
      <trkpt lat="40.1886900" lon="-3.5433580">
        <ele>566.4</ele>
        <time>2021-04-04T09:01:13Z</time>
      </trkpt>
      <trkpt lat="40.1886790" lon="-3.5433360">
        <ele>566.6</ele>
        <time>2021-04-04T09:01:14Z</time>
      </trkpt>
      <trkpt lat="40.1886670" lon="-3.5433110">
        <ele>566.8</ele>
        <time>2021-04-04T09:01:15Z</time>
      </trkpt>
      <trkpt lat="40.1886600" lon="-3.5432870">
        <ele>566.8</ele>
        <time>2021-04-04T09:01:16Z</time>
      </trkpt>
      <trkpt lat="40.1886440" lon="-3.5432630">
        <ele>567.0</ele>
        <time>2021-04-04T09:01:17Z</time>
      </trkpt>
      <trkpt lat="40.1886370" lon="-3.5432400">
        <ele>567.2</ele>
        <time>2021-04-04T09:01:18Z</time>
      </trkpt>
      <trkpt lat="40.1886250" lon="-3.5432170">
        <ele>567.4</ele>
        <time>2021-04-04T09:01:19Z</time>
      </trkpt>
      <trkpt lat="40.1886100" lon="-3.5431960">
        <ele>567.6</ele>
        <time>2021-04-04T09:01:20Z</time>
      </trkpt>
      <trkpt lat="40.1885950" lon="-3.5431750">
        <ele>567.8</ele>
        <time>2021-04-04T09:01:21Z</time>
      </trkpt>
      <trkpt lat="40.1885800" lon="-3.5431540">
        <ele>568.2</ele>
        <time>2021-04-04T09:01:22Z</time>
      </trkpt>
      <trkpt lat="40.1885640" lon="-3.5431350">
        <ele>568.4</ele>
        <time>2021-04-04T09:01:23Z</time>
      </trkpt>
      <trkpt lat="40.1885530" lon="-3.5431170">
        <ele>568.6</ele>
        <time>2021-04-04T09:01:24Z</time>
      </trkpt>
      <trkpt lat="40.1885410" lon="-3.5431000">
        <ele>568.8</ele>
        <time>2021-04-04T09:01:25Z</time>
      </trkpt>
      <trkpt lat="40.1885220" lon="-3.5430840">
        <ele>569.0</ele>
        <time>2021-04-04T09:01:26Z</time>
      </trkpt>
      <trkpt lat="40.1885030" lon="-3.5430670">
        <ele>569.4</ele>
        <time>2021-04-04T09:01:27Z</time>
      </trkpt>
      <trkpt lat="40.1884880" lon="-3.5430510">
        <ele>569.6</ele>
        <time>2021-04-04T09:01:28Z</time>
      </trkpt>
      <trkpt lat="40.1884730" lon="-3.5430350">
        <ele>569.8</ele>
        <time>2021-04-04T09:01:29Z</time>
      </trkpt>
      <trkpt lat="40.1884610" lon="-3.5430190">
        <ele>570.0</ele>
        <time>2021-04-04T09:01:30Z</time>
      </trkpt>
      <trkpt lat="40.1884460" lon="-3.5430030">
        <ele>570.4</ele>
        <time>2021-04-04T09:01:31Z</time>
      </trkpt>
      <trkpt lat="40.1884270" lon="-3.5429850">
        <ele>570.6</ele>
        <time>2021-04-04T09:01:32Z</time>
      </trkpt>
      <trkpt lat="40.1884120" lon="-3.5429680">
        <ele>570.8</ele>
        <time>2021-04-04T09:01:33Z</time>
      </trkpt>
      <trkpt lat="40.1884000" lon="-3.5429490">
        <ele>571.0</ele>
        <time>2021-04-04T09:01:34Z</time>
      </trkpt>
      <trkpt lat="40.1883890" lon="-3.5429320">
        <ele>571.4</ele>
        <time>2021-04-04T09:01:35Z</time>
      </trkpt>
      <trkpt lat="40.1883770" lon="-3.5429140">
        <ele>571.6</ele>
        <time>2021-04-04T09:01:36Z</time>
      </trkpt>
      <trkpt lat="40.1883660" lon="-3.5428980">
        <ele>572.0</ele>
        <time>2021-04-04T09:01:37Z</time>
      </trkpt>
      <trkpt lat="40.1883510" lon="-3.5428830">
        <ele>572.2</ele>
        <time>2021-04-04T09:01:38Z</time>
      </trkpt>
      <trkpt lat="40.1883390" lon="-3.5428680">
        <ele>572.4</ele>
        <time>2021-04-04T09:01:39Z</time>
      </trkpt>
      <trkpt lat="40.1883280" lon="-3.5428530">
        <ele>572.6</ele>
        <time>2021-04-04T09:01:40Z</time>
      </trkpt>
      <trkpt lat="40.1883160" lon="-3.5428380">
        <ele>573.0</ele>
        <time>2021-04-04T09:01:41Z</time>
      </trkpt>
      <trkpt lat="40.1883050" lon="-3.5428240">
        <ele>573.2</ele>
        <time>2021-04-04T09:01:42Z</time>
      </trkpt>
      <trkpt lat="40.1882930" lon="-3.5428080">
        <ele>573.4</ele>
        <time>2021-04-04T09:01:43Z</time>
      </trkpt>
      <trkpt lat="40.1882860" lon="-3.5427950">
        <ele>573.6</ele>
        <time>2021-04-04T09:01:44Z</time>
      </trkpt>
      <trkpt lat="40.1882740" lon="-3.5427820">
        <ele>574.0</ele>
        <time>2021-04-04T09:01:45Z</time>
      </trkpt>
      <trkpt lat="40.1882670" lon="-3.5427690">
        <ele>574.2</ele>
        <time>2021-04-04T09:01:46Z</time>
      </trkpt>
      <trkpt lat="40.1882550" lon="-3.5427570">
        <ele>574.4</ele>
        <time>2021-04-04T09:01:47Z</time>
      </trkpt>
      <trkpt lat="40.1882440" lon="-3.5427420">
        <ele>574.6</ele>
        <time>2021-04-04T09:01:48Z</time>
      </trkpt>
      <trkpt lat="40.1882360" lon="-3.5427260">
        <ele>575.0</ele>
        <time>2021-04-04T09:01:49Z</time>
      </trkpt>
      <trkpt lat="40.1882250" lon="-3.5427120">
        <ele>575.2</ele>
        <time>2021-04-04T09:01:50Z</time>
      </trkpt>
      <trkpt lat="40.1882130" lon="-3.5426980">
        <ele>575.4</ele>
        <time>2021-04-04T09:01:51Z</time>
      </trkpt>
      <trkpt lat="40.1882020" lon="-3.5426850">
        <ele>575.6</ele>
        <time>2021-04-04T09:01:52Z</time>
      </trkpt>
      <trkpt lat="40.1881900" lon="-3.5426730">
        <ele>575.8</ele>
        <time>2021-04-04T09:01:53Z</time>
      </trkpt>
      <trkpt lat="40.1881830" lon="-3.5426570">
        <ele>576.0</ele>
        <time>2021-04-04T09:01:54Z</time>
      </trkpt>
      <trkpt lat="40.1881710" lon="-3.5426430">
        <ele>576.2</ele>
        <time>2021-04-04T09:01:55Z</time>
      </trkpt>
      <trkpt lat="40.1881600" lon="-3.5426290">
        <ele>576.6</ele>
        <time>2021-04-04T09:01:56Z</time>
      </trkpt>
      <trkpt lat="40.1881520" lon="-3.5426170">
        <ele>576.8</ele>
        <time>2021-04-04T09:01:57Z</time>
      </trkpt>
      <trkpt lat="40.1881410" lon="-3.5426060">
        <ele>577.0</ele>
        <time>2021-04-04T09:01:58Z</time>
      </trkpt>
      <trkpt lat="40.1881260" lon="-3.5425980">
        <ele>577.2</ele>
        <time>2021-04-04T09:01:59Z</time>
      </trkpt>
      <trkpt lat="40.1881100" lon="-3.5425940">
        <ele>577.4</ele>
        <time>2021-04-04T09:02:00Z</time>
      </trkpt>
      <trkpt lat="40.1880950" lon="-3.5425890">
        <ele>577.6</ele>
        <time>2021-04-04T09:02:01Z</time>
      </trkpt>
      <trkpt lat="40.1880840" lon="-3.5425790">
        <ele>577.8</ele>
        <time>2021-04-04T09:02:02Z</time>
      </trkpt>
      <trkpt lat="40.1880680" lon="-3.5425670">
        <ele>578.0</ele>
        <time>2021-04-04T09:02:03Z</time>
      </trkpt>
      <trkpt lat="40.1880570" lon="-3.5425550">
        <ele>578.2</ele>
        <time>2021-04-04T09:02:04Z</time>
      </trkpt>
      <trkpt lat="40.1880420" lon="-3.5425420">
        <ele>578.4</ele>
        <time>2021-04-04T09:02:05Z</time>
      </trkpt>
      <trkpt lat="40.1880300" lon="-3.5425310">
        <ele>578.8</ele>
        <time>2021-04-04T09:02:06Z</time>
      </trkpt>
      <trkpt lat="40.1880150" lon="-3.5425200">
        <ele>579.0</ele>
        <time>2021-04-04T09:02:07Z</time>
      </trkpt>
      <trkpt lat="40.1880040" lon="-3.5425100">
        <ele>579.2</ele>
        <time>2021-04-04T09:02:08Z</time>
      </trkpt>
      <trkpt lat="40.1879920" lon="-3.5424990">
        <ele>579.4</ele>
        <time>2021-04-04T09:02:09Z</time>
      </trkpt>
      <trkpt lat="40.1879770" lon="-3.5424890">
        <ele>579.8</ele>
        <time>2021-04-04T09:02:10Z</time>
      </trkpt>
      <trkpt lat="40.1879650" lon="-3.5424810">
        <ele>580.0</ele>
        <time>2021-04-04T09:02:11Z</time>
      </trkpt>
      <trkpt lat="40.1879540" lon="-3.5424720">
        <ele>580.2</ele>
        <time>2021-04-04T09:02:12Z</time>
      </trkpt>
      <trkpt lat="40.1879390" lon="-3.5424610">
        <ele>580.4</ele>
        <time>2021-04-04T09:02:13Z</time>
      </trkpt>
      <trkpt lat="40.1879270" lon="-3.5424510">
        <ele>580.8</ele>
        <time>2021-04-04T09:02:14Z</time>
      </trkpt>
      <trkpt lat="40.1879120" lon="-3.5424410">
        <ele>581.0</ele>
        <time>2021-04-04T09:02:15Z</time>
      </trkpt>
      <trkpt lat="40.1879010" lon="-3.5424320">
        <ele>581.2</ele>
        <time>2021-04-04T09:02:16Z</time>
      </trkpt>
      <trkpt lat="40.1878890" lon="-3.5424240">
        <ele>581.6</ele>
        <time>2021-04-04T09:02:17Z</time>
      </trkpt>
      <trkpt lat="40.1878740" lon="-3.5424170">
        <ele>581.8</ele>
        <time>2021-04-04T09:02:18Z</time>
      </trkpt>
      <trkpt lat="40.1878590" lon="-3.5424120">
        <ele>582.0</ele>
        <time>2021-04-04T09:02:19Z</time>
      </trkpt>
      <trkpt lat="40.1878430" lon="-3.5424070">
        <ele>582.2</ele>
        <time>2021-04-04T09:02:20Z</time>
      </trkpt>
      <trkpt lat="40.1878320" lon="-3.5424000">
        <ele>582.6</ele>
        <time>2021-04-04T09:02:21Z</time>
      </trkpt>
      <trkpt lat="40.1878200" lon="-3.5423910">
        <ele>582.8</ele>
        <time>2021-04-04T09:02:22Z</time>
      </trkpt>
      <trkpt lat="40.1878050" lon="-3.5423850">
        <ele>583.0</ele>
        <time>2021-04-04T09:02:23Z</time>
      </trkpt>
      <trkpt lat="40.1877900" lon="-3.5423800">
        <ele>583.4</ele>
        <time>2021-04-04T09:02:24Z</time>
      </trkpt>
      <trkpt lat="40.1877750" lon="-3.5423730">
        <ele>583.6</ele>
        <time>2021-04-04T09:02:25Z</time>
      </trkpt>
      <trkpt lat="40.1877630" lon="-3.5423660">
        <ele>584.0</ele>
        <time>2021-04-04T09:02:26Z</time>
      </trkpt>
      <trkpt lat="40.1877560" lon="-3.5423610">
        <ele>584.2</ele>
        <time>2021-04-04T09:02:27Z</time>
      </trkpt>
      <trkpt lat="40.1877440" lon="-3.5423600">
        <ele>584.4</ele>
        <time>2021-04-04T09:02:28Z</time>
      </trkpt>
      <trkpt lat="40.1877330" lon="-3.5423620">
        <ele>584.8</ele>
        <time>2021-04-04T09:02:29Z</time>
      </trkpt>
      <trkpt lat="40.1877210" lon="-3.5423600">
        <ele>585.0</ele>
        <time>2021-04-04T09:02:30Z</time>
      </trkpt>
      <trkpt lat="40.1877140" lon="-3.5423540">
        <ele>585.2</ele>
        <time>2021-04-04T09:02:31Z</time>
      </trkpt>
      <trkpt lat="40.1877020" lon="-3.5423480">
        <ele>585.4</ele>
        <time>2021-04-04T09:02:32Z</time>
      </trkpt>
      <trkpt lat="40.1876910" lon="-3.5423450">
        <ele>585.8</ele>
        <time>2021-04-04T09:02:33Z</time>
      </trkpt>
      <trkpt lat="40.1876790" lon="-3.5423450">
        <ele>586.0</ele>
        <time>2021-04-04T09:02:34Z</time>
      </trkpt>
      <trkpt lat="40.1876720" lon="-3.5423420">
        <ele>586.2</ele>
        <time>2021-04-04T09:02:35Z</time>
      </trkpt>
      <trkpt lat="40.1876600" lon="-3.5423330">
        <ele>586.6</ele>
        <time>2021-04-04T09:02:36Z</time>
      </trkpt>
      <trkpt lat="40.1876530" lon="-3.5423210">
        <ele>586.8</ele>
        <time>2021-04-04T09:02:37Z</time>
      </trkpt>
      <trkpt lat="40.1876410" lon="-3.5423090">
        <ele>587.0</ele>
        <time>2021-04-04T09:02:38Z</time>
      </trkpt>
      <trkpt lat="40.1876300" lon="-3.5422960">
        <ele>587.4</ele>
        <time>2021-04-04T09:02:39Z</time>
      </trkpt>
      <trkpt lat="40.1876180" lon="-3.5422850">
        <ele>587.6</ele>
        <time>2021-04-04T09:02:40Z</time>
      </trkpt>
      <trkpt lat="40.1876070" lon="-3.5422770">
        <ele>588.0</ele>
        <time>2021-04-04T09:02:41Z</time>
      </trkpt>
      <trkpt lat="40.1875990" lon="-3.5422730">
        <ele>588.2</ele>
        <time>2021-04-04T09:02:42Z</time>
      </trkpt>
      <trkpt lat="40.1875880" lon="-3.5422720">
        <ele>588.4</ele>
        <time>2021-04-04T09:02:43Z</time>
      </trkpt>
      <trkpt lat="40.1875800" lon="-3.5422720">
        <ele>588.8</ele>
        <time>2021-04-04T09:02:44Z</time>
      </trkpt>
      <trkpt lat="40.1875800" lon="-3.5422720">
        <ele>589.0</ele>
        <time>2021-04-04T09:02:45Z</time>
      </trkpt>
      <trkpt lat="40.1875720" lon="-3.5422620">
        <ele>589.4</ele>
        <time>2021-04-04T09:02:46Z</time>
      </trkpt>
      <trkpt lat="40.1875570" lon="-3.5422420">
        <ele>589.6</ele>
        <time>2021-04-04T09:02:47Z</time>
      </trkpt>
      <trkpt lat="40.1875530" lon="-3.5422280">
        <ele>589.8</ele>
        <time>2021-04-04T09:02:48Z</time>
      </trkpt>
      <trkpt lat="40.1875460" lon="-3.5422120">
        <ele>590.0</ele>
        <time>2021-04-04T09:02:49Z</time>
      </trkpt>
      <trkpt lat="40.1875380" lon="-3.5421950">
        <ele>590.4</ele>
        <time>2021-04-04T09:02:50Z</time>
      </trkpt>
      <trkpt lat="40.1875310" lon="-3.5421780">
        <ele>590.6</ele>
        <time>2021-04-04T09:02:51Z</time>
      </trkpt>
      <trkpt lat="40.1875230" lon="-3.5421620">
        <ele>590.8</ele>
        <time>2021-04-04T09:02:52Z</time>
      </trkpt>
      <trkpt lat="40.1875150" lon="-3.5421450">
        <ele>591.0</ele>
        <time>2021-04-04T09:02:53Z</time>
      </trkpt>
      <trkpt lat="40.1875080" lon="-3.5421270">
        <ele>591.4</ele>
        <time>2021-04-04T09:02:54Z</time>
      </trkpt>
      <trkpt lat="40.1875000" lon="-3.5421100">
        <ele>591.6</ele>
        <time>2021-04-04T09:02:55Z</time>
      </trkpt>
      <trkpt lat="40.1874920" lon="-3.5420920">
        <ele>592.0</ele>
        <time>2021-04-04T09:02:56Z</time>
      </trkpt>
      <trkpt lat="40.1874890" lon="-3.5420760">
        <ele>592.2</ele>
        <time>2021-04-04T09:02:57Z</time>
      </trkpt>
      <trkpt lat="40.1874890" lon="-3.5420630">
        <ele>592.4</ele>
        <time>2021-04-04T09:02:58Z</time>
      </trkpt>
      <trkpt lat="40.1874850" lon="-3.5420510">
        <ele>592.8</ele>
        <time>2021-04-04T09:02:59Z</time>
      </trkpt>
      <trkpt lat="40.1874810" lon="-3.5420390">
        <ele>593.0</ele>
        <time>2021-04-04T09:03:00Z</time>
      </trkpt>
      <trkpt lat="40.1874770" lon="-3.5420230">
        <ele>593.4</ele>
        <time>2021-04-04T09:03:01Z</time>
      </trkpt>
      <trkpt lat="40.1874730" lon="-3.5420050">
        <ele>593.6</ele>
        <time>2021-04-04T09:03:02Z</time>
      </trkpt>
      <trkpt lat="40.1874690" lon="-3.5419870">
        <ele>594.0</ele>
        <time>2021-04-04T09:03:03Z</time>
      </trkpt>
      <trkpt lat="40.1874660" lon="-3.5419680">
        <ele>594.2</ele>
        <time>2021-04-04T09:03:04Z</time>
      </trkpt>
      <trkpt lat="40.1874620" lon="-3.5419500">
        <ele>594.6</ele>
        <time>2021-04-04T09:03:05Z</time>
      </trkpt>
      <trkpt lat="40.1874580" lon="-3.5419310">
        <ele>594.8</ele>
        <time>2021-04-04T09:03:06Z</time>
      </trkpt>
      <trkpt lat="40.1874540" lon="-3.5419110">
        <ele>595.2</ele>
        <time>2021-04-04T09:03:07Z</time>
      </trkpt>
      <trkpt lat="40.1874500" lon="-3.5418910">
        <ele>595.4</ele>
        <time>2021-04-04T09:03:08Z</time>
      </trkpt>
      <trkpt lat="40.1874430" lon="-3.5418730">
        <ele>595.8</ele>
        <time>2021-04-04T09:03:09Z</time>
      </trkpt>
      <trkpt lat="40.1874390" lon="-3.5418550">
        <ele>596.0</ele>
        <time>2021-04-04T09:03:10Z</time>
      </trkpt>
      <trkpt lat="40.1874310" lon="-3.5418360">
        <ele>596.4</ele>
        <time>2021-04-04T09:03:11Z</time>
      </trkpt>
      <trkpt lat="40.1874280" lon="-3.5418190">
        <ele>596.8</ele>
        <time>2021-04-04T09:03:12Z</time>
      </trkpt>
      <trkpt lat="40.1874200" lon="-3.5418030">
        <ele>597.0</ele>
        <time>2021-04-04T09:03:13Z</time>
      </trkpt>
      <trkpt lat="40.1874120" lon="-3.5417880">
        <ele>597.4</ele>
        <time>2021-04-04T09:03:14Z</time>
      </trkpt>
      <trkpt lat="40.1874050" lon="-3.5417720">
        <ele>597.8</ele>
        <time>2021-04-04T09:03:15Z</time>
      </trkpt>
      <trkpt lat="40.1873970" lon="-3.5417560">
        <ele>598.0</ele>
        <time>2021-04-04T09:03:16Z</time>
      </trkpt>
      <trkpt lat="40.1873890" lon="-3.5417430">
        <ele>598.4</ele>
        <time>2021-04-04T09:03:17Z</time>
      </trkpt>
      <trkpt lat="40.1873820" lon="-3.5417280">
        <ele>598.6</ele>
        <time>2021-04-04T09:03:18Z</time>
      </trkpt>
      <trkpt lat="40.1873740" lon="-3.5417150">
        <ele>599.0</ele>
        <time>2021-04-04T09:03:19Z</time>
      </trkpt>
      <trkpt lat="40.1873700" lon="-3.5417060">
        <ele>599.2</ele>
        <time>2021-04-04T09:03:20Z</time>
      </trkpt>
      <trkpt lat="40.1873630" lon="-3.5416990">
        <ele>599.6</ele>
        <time>2021-04-04T09:03:21Z</time>
      </trkpt>
      <trkpt lat="40.1873590" lon="-3.5416930">
        <ele>599.8</ele>
        <time>2021-04-04T09:03:22Z</time>
      </trkpt>
      <trkpt lat="40.1873590" lon="-3.5416930">
        <ele>600.0</ele>
        <time>2021-04-04T09:03:23Z</time>
      </trkpt>
      <trkpt lat="40.1873590" lon="-3.5416930">
        <ele>600.0</ele>
        <time>2021-04-04T09:03:24Z</time>
      </trkpt>
      <trkpt lat="40.1873590" lon="-3.5416930">
        <ele>600.2</ele>
        <time>2021-04-04T09:03:25Z</time>
      </trkpt>
      <trkpt lat="40.1873590" lon="-3.5416930">
        <ele>600.2</ele>
        <time>2021-04-04T09:03:26Z</time>
      </trkpt>
      <trkpt lat="40.1873590" lon="-3.5416930">
        <ele>600.2</ele>
        <time>2021-04-04T09:03:27Z</time>
      </trkpt>
      <trkpt lat="40.1873590" lon="-3.5416930">
        <ele>600.4</ele>
        <time>2021-04-04T09:03:28Z</time>
      </trkpt>
      <trkpt lat="40.1873590" lon="-3.5416930">
        <ele>600.4</ele>
        <time>2021-04-04T09:03:29Z</time>
      </trkpt>
      <trkpt lat="40.1873590" lon="-3.5416930">
        <ele>600.6</ele>
        <time>2021-04-04T09:03:30Z</time>
      </trkpt>
      <trkpt lat="40.1872830" lon="-3.5416220">
        <ele>601.4</ele>
        <time>2021-04-04T09:03:46Z</time>
      </trkpt>
      <trkpt lat="40.1872790" lon="-3.5416150">
        <ele>601.4</ele>
        <time>2021-04-04T09:03:47Z</time>
      </trkpt>
      <trkpt lat="40.1872750" lon="-3.5416090">
        <ele>601.4</ele>
        <time>2021-04-04T09:03:48Z</time>
      </trkpt>
      <trkpt lat="40.1872710" lon="-3.5416070">
        <ele>601.4</ele>
        <time>2021-04-04T09:03:49Z</time>
      </trkpt>
      <trkpt lat="40.1872710" lon="-3.5416070">
        <ele>601.4</ele>
        <time>2021-04-04T09:03:50Z</time>
      </trkpt>
      <trkpt lat="40.1872710" lon="-3.5416070">
        <ele>601.4</ele>
        <time>2021-04-04T09:03:51Z</time>
      </trkpt>
      <trkpt lat="40.1872710" lon="-3.5416070">
        <ele>601.4</ele>
        <time>2021-04-04T09:03:52Z</time>
      </trkpt>
      <trkpt lat="40.1872710" lon="-3.5416070">
        <ele>601.4</ele>
        <time>2021-04-04T09:03:53Z</time>
      </trkpt>
      <trkpt lat="40.1872330" lon="-3.5415490">
        <ele>601.6</ele>
        <time>2021-04-04T09:04:07Z</time>
      </trkpt>
      <trkpt lat="40.1872250" lon="-3.5415400">
        <ele>601.6</ele>
        <time>2021-04-04T09:04:08Z</time>
      </trkpt>
      <trkpt lat="40.1872180" lon="-3.5415300">
        <ele>601.6</ele>
        <time>2021-04-04T09:04:09Z</time>
      </trkpt>
      <trkpt lat="40.1872060" lon="-3.5415200">
        <ele>601.8</ele>
        <time>2021-04-04T09:04:10Z</time>
      </trkpt>
      <trkpt lat="40.1871950" lon="-3.5415100">
        <ele>602.0</ele>
        <time>2021-04-04T09:04:11Z</time>
      </trkpt>
      <trkpt lat="40.1871870" lon="-3.5414980">
        <ele>602.2</ele>
        <time>2021-04-04T09:04:12Z</time>
      </trkpt>
      <trkpt lat="40.1871800" lon="-3.5414830">
        <ele>602.4</ele>
        <time>2021-04-04T09:04:13Z</time>
      </trkpt>
      <trkpt lat="40.1871680" lon="-3.5414690">
        <ele>602.6</ele>
        <time>2021-04-04T09:04:14Z</time>
      </trkpt>
      <trkpt lat="40.1871570" lon="-3.5414560">
        <ele>602.8</ele>
        <time>2021-04-04T09:04:15Z</time>
      </trkpt>
      <trkpt lat="40.1871450" lon="-3.5414430">
        <ele>603.0</ele>
        <time>2021-04-04T09:04:16Z</time>
      </trkpt>
      <trkpt lat="40.1871340" lon="-3.5414270">
        <ele>603.2</ele>
        <time>2021-04-04T09:04:17Z</time>
      </trkpt>
      <trkpt lat="40.1871260" lon="-3.5414100">
        <ele>603.4</ele>
        <time>2021-04-04T09:04:18Z</time>
      </trkpt>
      <trkpt lat="40.1871150" lon="-3.5413950">
        <ele>603.6</ele>
        <time>2021-04-04T09:04:19Z</time>
      </trkpt>
      <trkpt lat="40.1871030" lon="-3.5413810">
        <ele>603.8</ele>
        <time>2021-04-04T09:04:20Z</time>
      </trkpt>
      <trkpt lat="40.1870920" lon="-3.5413650">
        <ele>604.0</ele>
        <time>2021-04-04T09:04:21Z</time>
      </trkpt>
      <trkpt lat="40.1870840" lon="-3.5413490">
        <ele>604.2</ele>
        <time>2021-04-04T09:04:22Z</time>
      </trkpt>
      <trkpt lat="40.1870730" lon="-3.5413320">
        <ele>604.4</ele>
        <time>2021-04-04T09:04:23Z</time>
      </trkpt>
      <trkpt lat="40.1870650" lon="-3.5413150">
        <ele>604.6</ele>
        <time>2021-04-04T09:04:24Z</time>
      </trkpt>
      <trkpt lat="40.1870570" lon="-3.5412950">
        <ele>604.8</ele>
        <time>2021-04-04T09:04:25Z</time>
      </trkpt>
      <trkpt lat="40.1870460" lon="-3.5412740">
        <ele>605.0</ele>
        <time>2021-04-04T09:04:26Z</time>
      </trkpt>
      <trkpt lat="40.1870380" lon="-3.5412540">
        <ele>605.0</ele>
        <time>2021-04-04T09:04:27Z</time>
      </trkpt>
      <trkpt lat="40.1870270" lon="-3.5412340">
        <ele>605.2</ele>
        <time>2021-04-04T09:04:28Z</time>
      </trkpt>
      <trkpt lat="40.1870190" lon="-3.5412150">
        <ele>605.2</ele>
        <time>2021-04-04T09:04:29Z</time>
      </trkpt>
      <trkpt lat="40.1870160" lon="-3.5411990">
        <ele>605.4</ele>
        <time>2021-04-04T09:04:30Z</time>
      </trkpt>
      <trkpt lat="40.1870120" lon="-3.5411830">
        <ele>605.6</ele>
        <time>2021-04-04T09:04:31Z</time>
      </trkpt>
      <trkpt lat="40.1870080" lon="-3.5411660">
        <ele>605.8</ele>
        <time>2021-04-04T09:04:32Z</time>
      </trkpt>
      <trkpt lat="40.1870040" lon="-3.5411460">
        <ele>606.0</ele>
        <time>2021-04-04T09:04:33Z</time>
      </trkpt>
      <trkpt lat="40.1869960" lon="-3.5411260">
        <ele>606.2</ele>
        <time>2021-04-04T09:04:34Z</time>
      </trkpt>
      <trkpt lat="40.1869810" lon="-3.5411080">
        <ele>606.4</ele>
        <time>2021-04-04T09:04:35Z</time>
      </trkpt>
      <trkpt lat="40.1869700" lon="-3.5410930">
        <ele>606.6</ele>
        <time>2021-04-04T09:04:36Z</time>
      </trkpt>
      <trkpt lat="40.1869580" lon="-3.5410810">
        <ele>606.6</ele>
        <time>2021-04-04T09:04:37Z</time>
      </trkpt>
      <trkpt lat="40.1869470" lon="-3.5410680">
        <ele>606.8</ele>
        <time>2021-04-04T09:04:38Z</time>
      </trkpt>
      <trkpt lat="40.1869350" lon="-3.5410500">
        <ele>607.0</ele>
        <time>2021-04-04T09:04:39Z</time>
      </trkpt>
      <trkpt lat="40.1869280" lon="-3.5410290">
        <ele>607.2</ele>
        <time>2021-04-04T09:04:40Z</time>
      </trkpt>
      <trkpt lat="40.1869200" lon="-3.5410100">
        <ele>607.4</ele>
        <time>2021-04-04T09:04:41Z</time>
      </trkpt>
      <trkpt lat="40.1869090" lon="-3.5409930">
        <ele>607.4</ele>
        <time>2021-04-04T09:04:42Z</time>
      </trkpt>
      <trkpt lat="40.1869010" lon="-3.5409750">
        <ele>607.6</ele>
        <time>2021-04-04T09:04:43Z</time>
      </trkpt>
      <trkpt lat="40.1868900" lon="-3.5409570">
        <ele>607.8</ele>
        <time>2021-04-04T09:04:44Z</time>
      </trkpt>
      <trkpt lat="40.1868780" lon="-3.5409390">
        <ele>608.0</ele>
        <time>2021-04-04T09:04:45Z</time>
      </trkpt>
      <trkpt lat="40.1868670" lon="-3.5409230">
        <ele>608.4</ele>
        <time>2021-04-04T09:04:46Z</time>
      </trkpt>
      <trkpt lat="40.1868550" lon="-3.5409080">
        <ele>608.6</ele>
        <time>2021-04-04T09:04:47Z</time>
      </trkpt>
      <trkpt lat="40.1868440" lon="-3.5408930">
        <ele>608.8</ele>
        <time>2021-04-04T09:04:48Z</time>
      </trkpt>
      <trkpt lat="40.1868290" lon="-3.5408790">
        <ele>609.0</ele>
        <time>2021-04-04T09:04:49Z</time>
      </trkpt>
      <trkpt lat="40.1868170" lon="-3.5408660">
        <ele>609.2</ele>
        <time>2021-04-04T09:04:50Z</time>
      </trkpt>
      <trkpt lat="40.1868020" lon="-3.5408520">
        <ele>609.4</ele>
        <time>2021-04-04T09:04:51Z</time>
      </trkpt>
      <trkpt lat="40.1867910" lon="-3.5408390">
        <ele>609.6</ele>
        <time>2021-04-04T09:04:52Z</time>
      </trkpt>
      <trkpt lat="40.1867750" lon="-3.5408310">
        <ele>609.8</ele>
        <time>2021-04-04T09:04:53Z</time>
      </trkpt>
      <trkpt lat="40.1867600" lon="-3.5408250">
        <ele>609.8</ele>
        <time>2021-04-04T09:04:54Z</time>
      </trkpt>
      <trkpt lat="40.1867410" lon="-3.5408180">
        <ele>610.2</ele>
        <time>2021-04-04T09:04:55Z</time>
      </trkpt>
      <trkpt lat="40.1867290" lon="-3.5408070">
        <ele>610.4</ele>
        <time>2021-04-04T09:04:56Z</time>
      </trkpt>
      <trkpt lat="40.1867220" lon="-3.5407930">
        <ele>610.6</ele>
        <time>2021-04-04T09:04:57Z</time>
      </trkpt>
      <trkpt lat="40.1867140" lon="-3.5407800">
        <ele>611.0</ele>
        <time>2021-04-04T09:04:58Z</time>
      </trkpt>
      <trkpt lat="40.1867030" lon="-3.5407660">
        <ele>611.2</ele>
        <time>2021-04-04T09:04:59Z</time>
      </trkpt>
      <trkpt lat="40.1866910" lon="-3.5407520">
        <ele>611.4</ele>
        <time>2021-04-04T09:05:00Z</time>
      </trkpt>
      <trkpt lat="40.1866800" lon="-3.5407400">
        <ele>611.6</ele>
        <time>2021-04-04T09:05:01Z</time>
      </trkpt>
      <trkpt lat="40.1866680" lon="-3.5407260">
        <ele>611.8</ele>
        <time>2021-04-04T09:05:02Z</time>
      </trkpt>
      <trkpt lat="40.1866570" lon="-3.5407130">
        <ele>612.0</ele>
        <time>2021-04-04T09:05:03Z</time>
      </trkpt>
      <trkpt lat="40.1866530" lon="-3.5407020">
        <ele>612.2</ele>
        <time>2021-04-04T09:05:04Z</time>
      </trkpt>
      <trkpt lat="40.1866230" lon="-3.5406590">
        <ele>613.0</ele>
        <time>2021-04-04T09:05:15Z</time>
      </trkpt>
      <trkpt lat="40.1866110" lon="-3.5406490">
        <ele>613.0</ele>
        <time>2021-04-04T09:05:16Z</time>
      </trkpt>
      <trkpt lat="40.1866000" lon="-3.5406390">
        <ele>613.0</ele>
        <time>2021-04-04T09:05:17Z</time>
      </trkpt>
      <trkpt lat="40.1865920" lon="-3.5406280">
        <ele>613.0</ele>
        <time>2021-04-04T09:05:18Z</time>
      </trkpt>
      <trkpt lat="40.1865840" lon="-3.5406160">
        <ele>613.2</ele>
        <time>2021-04-04T09:05:19Z</time>
      </trkpt>
      <trkpt lat="40.1865730" lon="-3.5406030">
        <ele>613.2</ele>
        <time>2021-04-04T09:05:20Z</time>
      </trkpt>
      <trkpt lat="40.1865620" lon="-3.5405880">
        <ele>613.4</ele>
        <time>2021-04-04T09:05:21Z</time>
      </trkpt>
      <trkpt lat="40.1865540" lon="-3.5405750">
        <ele>613.4</ele>
        <time>2021-04-04T09:05:22Z</time>
      </trkpt>
      <trkpt lat="40.1865460" lon="-3.5405610">
        <ele>613.4</ele>
        <time>2021-04-04T09:05:23Z</time>
      </trkpt>
      <trkpt lat="40.1865350" lon="-3.5405460">
        <ele>613.6</ele>
        <time>2021-04-04T09:05:24Z</time>
      </trkpt>
      <trkpt lat="40.1865270" lon="-3.5405320">
        <ele>613.6</ele>
        <time>2021-04-04T09:05:25Z</time>
      </trkpt>
      <trkpt lat="40.1865160" lon="-3.5405200">
        <ele>613.8</ele>
        <time>2021-04-04T09:05:26Z</time>
      </trkpt>
      <trkpt lat="40.1865040" lon="-3.5405060">
        <ele>613.8</ele>
        <time>2021-04-04T09:05:27Z</time>
      </trkpt>
      <trkpt lat="40.1864930" lon="-3.5404930">
        <ele>614.0</ele>
        <time>2021-04-04T09:05:28Z</time>
      </trkpt>
      <trkpt lat="40.1864810" lon="-3.5404780">
        <ele>614.0</ele>
        <time>2021-04-04T09:05:29Z</time>
      </trkpt>
      <trkpt lat="40.1864700" lon="-3.5404640">
        <ele>614.2</ele>
        <time>2021-04-04T09:05:30Z</time>
      </trkpt>
      <trkpt lat="40.1864590" lon="-3.5404500">
        <ele>614.2</ele>
        <time>2021-04-04T09:05:31Z</time>
      </trkpt>
      <trkpt lat="40.1864470" lon="-3.5404360">
        <ele>614.4</ele>
        <time>2021-04-04T09:05:32Z</time>
      </trkpt>
      <trkpt lat="40.1864390" lon="-3.5404200">
        <ele>614.4</ele>
        <time>2021-04-04T09:05:33Z</time>
      </trkpt>
      <trkpt lat="40.1864320" lon="-3.5404030">
        <ele>614.6</ele>
        <time>2021-04-04T09:05:34Z</time>
      </trkpt>
      <trkpt lat="40.1864240" lon="-3.5403880">
        <ele>614.6</ele>
        <time>2021-04-04T09:05:35Z</time>
      </trkpt>
      <trkpt lat="40.1864130" lon="-3.5403740">
        <ele>614.6</ele>
        <time>2021-04-04T09:05:36Z</time>
      </trkpt>
      <trkpt lat="40.1864010" lon="-3.5403610">
        <ele>614.8</ele>
        <time>2021-04-04T09:05:37Z</time>
      </trkpt>
      <trkpt lat="40.1863860" lon="-3.5403490">
        <ele>614.8</ele>
        <time>2021-04-04T09:05:38Z</time>
      </trkpt>
      <trkpt lat="40.1863750" lon="-3.5403380">
        <ele>615.0</ele>
        <time>2021-04-04T09:05:39Z</time>
      </trkpt>
      <trkpt lat="40.1863590" lon="-3.5403300">
        <ele>615.0</ele>
        <time>2021-04-04T09:05:40Z</time>
      </trkpt>
      <trkpt lat="40.1863480" lon="-3.5403210">
        <ele>615.2</ele>
        <time>2021-04-04T09:05:41Z</time>
      </trkpt>
      <trkpt lat="40.1863330" lon="-3.5403090">
        <ele>615.2</ele>
        <time>2021-04-04T09:05:42Z</time>
      </trkpt>
      <trkpt lat="40.1863170" lon="-3.5402980">
        <ele>615.4</ele>
        <time>2021-04-04T09:05:43Z</time>
      </trkpt>
      <trkpt lat="40.1863060" lon="-3.5402880">
        <ele>615.4</ele>
        <time>2021-04-04T09:05:44Z</time>
      </trkpt>
      <trkpt lat="40.1862870" lon="-3.5402820">
        <ele>615.6</ele>
        <time>2021-04-04T09:05:45Z</time>
      </trkpt>
      <trkpt lat="40.1862720" lon="-3.5402760">
        <ele>615.6</ele>
        <time>2021-04-04T09:05:46Z</time>
      </trkpt>
      <trkpt lat="40.1862560" lon="-3.5402690">
        <ele>615.8</ele>
        <time>2021-04-04T09:05:47Z</time>
      </trkpt>
      <trkpt lat="40.1862410" lon="-3.5402600">
        <ele>615.8</ele>
        <time>2021-04-04T09:05:48Z</time>
      </trkpt>
      <trkpt lat="40.1862260" lon="-3.5402520">
        <ele>616.0</ele>
        <time>2021-04-04T09:05:49Z</time>
      </trkpt>
      <trkpt lat="40.1862140" lon="-3.5402440">
        <ele>616.0</ele>
        <time>2021-04-04T09:05:50Z</time>
      </trkpt>
      <trkpt lat="40.1861990" lon="-3.5402370">
        <ele>616.2</ele>
        <time>2021-04-04T09:05:51Z</time>
      </trkpt>
      <trkpt lat="40.1861800" lon="-3.5402340">
        <ele>616.2</ele>
        <time>2021-04-04T09:05:52Z</time>
      </trkpt>
      <trkpt lat="40.1861610" lon="-3.5402310">
        <ele>616.4</ele>
        <time>2021-04-04T09:05:53Z</time>
      </trkpt>
      <trkpt lat="40.1861460" lon="-3.5402290">
        <ele>616.4</ele>
        <time>2021-04-04T09:05:54Z</time>
      </trkpt>
      <trkpt lat="40.1861340" lon="-3.5402250">
        <ele>616.6</ele>
        <time>2021-04-04T09:05:55Z</time>
      </trkpt>
      <trkpt lat="40.1861190" lon="-3.5402220">
        <ele>616.6</ele>
        <time>2021-04-04T09:05:56Z</time>
      </trkpt>
      <trkpt lat="40.1861040" lon="-3.5402190">
        <ele>616.8</ele>
        <time>2021-04-04T09:05:57Z</time>
      </trkpt>
      <trkpt lat="40.1860890" lon="-3.5402170">
        <ele>616.8</ele>
        <time>2021-04-04T09:05:58Z</time>
      </trkpt>
      <trkpt lat="40.1860730" lon="-3.5402140">
        <ele>617.0</ele>
        <time>2021-04-04T09:05:59Z</time>
      </trkpt>
      <trkpt lat="40.1860580" lon="-3.5402120">
        <ele>617.0</ele>
        <time>2021-04-04T09:06:00Z</time>
      </trkpt>
      <trkpt lat="40.1860430" lon="-3.5402130">
        <ele>617.2</ele>
        <time>2021-04-04T09:06:01Z</time>
      </trkpt>
      <trkpt lat="40.1860280" lon="-3.5402180">
        <ele>617.2</ele>
        <time>2021-04-04T09:06:02Z</time>
      </trkpt>
      <trkpt lat="40.1860080" lon="-3.5402240">
        <ele>617.4</ele>
        <time>2021-04-04T09:06:03Z</time>
      </trkpt>
      <trkpt lat="40.1859930" lon="-3.5402270">
        <ele>617.4</ele>
        <time>2021-04-04T09:06:04Z</time>
      </trkpt>
      <trkpt lat="40.1859740" lon="-3.5402250">
        <ele>617.6</ele>
        <time>2021-04-04T09:06:05Z</time>
      </trkpt>
      <trkpt lat="40.1859630" lon="-3.5402210">
        <ele>617.6</ele>
        <time>2021-04-04T09:06:06Z</time>
      </trkpt>
      <trkpt lat="40.1859470" lon="-3.5402160">
        <ele>617.8</ele>
        <time>2021-04-04T09:06:07Z</time>
      </trkpt>
      <trkpt lat="40.1859360" lon="-3.5402100">
        <ele>617.8</ele>
        <time>2021-04-04T09:06:08Z</time>
      </trkpt>
      <trkpt lat="40.1859240" lon="-3.5402000">
        <ele>618.0</ele>
        <time>2021-04-04T09:06:09Z</time>
      </trkpt>
      <trkpt lat="40.1859090" lon="-3.5401900">
        <ele>618.0</ele>
        <time>2021-04-04T09:06:10Z</time>
      </trkpt>
      <trkpt lat="40.1858980" lon="-3.5401780">
        <ele>618.2</ele>
        <time>2021-04-04T09:06:11Z</time>
      </trkpt>
      <trkpt lat="40.1858830" lon="-3.5401650">
        <ele>618.2</ele>
        <time>2021-04-04T09:06:12Z</time>
      </trkpt>
      <trkpt lat="40.1858710" lon="-3.5401540">
        <ele>618.4</ele>
        <time>2021-04-04T09:06:13Z</time>
      </trkpt>
      <trkpt lat="40.1858560" lon="-3.5401440">
        <ele>618.4</ele>
        <time>2021-04-04T09:06:14Z</time>
      </trkpt>
      <trkpt lat="40.1858410" lon="-3.5401350">
        <ele>618.6</ele>
        <time>2021-04-04T09:06:15Z</time>
      </trkpt>
      <trkpt lat="40.1858290" lon="-3.5401260">
        <ele>618.8</ele>
        <time>2021-04-04T09:06:16Z</time>
      </trkpt>
      <trkpt lat="40.1858140" lon="-3.5401180">
        <ele>618.8</ele>
        <time>2021-04-04T09:06:17Z</time>
      </trkpt>
      <trkpt lat="40.1858020" lon="-3.5401100">
        <ele>619.0</ele>
        <time>2021-04-04T09:06:18Z</time>
      </trkpt>
      <trkpt lat="40.1857910" lon="-3.5401010">
        <ele>619.2</ele>
        <time>2021-04-04T09:06:19Z</time>
      </trkpt>
      <trkpt lat="40.1857800" lon="-3.5400920">
        <ele>619.4</ele>
        <time>2021-04-04T09:06:20Z</time>
      </trkpt>
      <trkpt lat="40.1857640" lon="-3.5400840">
        <ele>619.4</ele>
        <time>2021-04-04T09:06:21Z</time>
      </trkpt>
      <trkpt lat="40.1857530" lon="-3.5400780">
        <ele>619.6</ele>
        <time>2021-04-04T09:06:22Z</time>
      </trkpt>
      <trkpt lat="40.1857410" lon="-3.5400740">
        <ele>619.8</ele>
        <time>2021-04-04T09:06:23Z</time>
      </trkpt>
      <trkpt lat="40.1857260" lon="-3.5400730">
        <ele>619.8</ele>
        <time>2021-04-04T09:06:24Z</time>
      </trkpt>
      <trkpt lat="40.1857150" lon="-3.5400710">
        <ele>620.0</ele>
        <time>2021-04-04T09:06:25Z</time>
      </trkpt>
      <trkpt lat="40.1857030" lon="-3.5400670">
        <ele>620.0</ele>
        <time>2021-04-04T09:06:26Z</time>
      </trkpt>
      <trkpt lat="40.1856920" lon="-3.5400600">
        <ele>620.2</ele>
        <time>2021-04-04T09:06:27Z</time>
      </trkpt>
      <trkpt lat="40.1856770" lon="-3.5400520">
        <ele>620.4</ele>
        <time>2021-04-04T09:06:28Z</time>
      </trkpt>
      <trkpt lat="40.1856650" lon="-3.5400450">
        <ele>620.6</ele>
        <time>2021-04-04T09:06:29Z</time>
      </trkpt>
      <trkpt lat="40.1856540" lon="-3.5400360">
        <ele>620.8</ele>
        <time>2021-04-04T09:06:30Z</time>
      </trkpt>
      <trkpt lat="40.1856420" lon="-3.5400250">
        <ele>620.8</ele>
        <time>2021-04-04T09:06:31Z</time>
      </trkpt>
      <trkpt lat="40.1856310" lon="-3.5400140">
        <ele>621.0</ele>
        <time>2021-04-04T09:06:32Z</time>
      </trkpt>
      <trkpt lat="40.1856160" lon="-3.5400050">
        <ele>621.2</ele>
        <time>2021-04-04T09:06:33Z</time>
      </trkpt>
      <trkpt lat="40.1856040" lon="-3.5399940">
        <ele>621.4</ele>
        <time>2021-04-04T09:06:34Z</time>
      </trkpt>
      <trkpt lat="40.1855930" lon="-3.5399830">
        <ele>621.4</ele>
        <time>2021-04-04T09:06:35Z</time>
      </trkpt>
      <trkpt lat="40.1855810" lon="-3.5399730">
        <ele>621.6</ele>
        <time>2021-04-04T09:06:36Z</time>
      </trkpt>
      <trkpt lat="40.1855660" lon="-3.5399630">
        <ele>621.8</ele>
        <time>2021-04-04T09:06:37Z</time>
      </trkpt>
      <trkpt lat="40.1855510" lon="-3.5399550">
        <ele>622.0</ele>
        <time>2021-04-04T09:06:38Z</time>
      </trkpt>
      <trkpt lat="40.1855390" lon="-3.5399460">
        <ele>622.0</ele>
        <time>2021-04-04T09:06:39Z</time>
      </trkpt>
      <trkpt lat="40.1855280" lon="-3.5399360">
        <ele>622.2</ele>
        <time>2021-04-04T09:06:40Z</time>
      </trkpt>
      <trkpt lat="40.1855160" lon="-3.5399270">
        <ele>622.4</ele>
        <time>2021-04-04T09:06:41Z</time>
      </trkpt>
      <trkpt lat="40.1855010" lon="-3.5399170">
        <ele>622.6</ele>
        <time>2021-04-04T09:06:42Z</time>
      </trkpt>
      <trkpt lat="40.1854900" lon="-3.5399090">
        <ele>622.6</ele>
        <time>2021-04-04T09:06:43Z</time>
      </trkpt>
      <trkpt lat="40.1854740" lon="-3.5399000">
        <ele>622.8</ele>
        <time>2021-04-04T09:06:44Z</time>
      </trkpt>
      <trkpt lat="40.1854630" lon="-3.5398920">
        <ele>623.0</ele>
        <time>2021-04-04T09:06:45Z</time>
      </trkpt>
      <trkpt lat="40.1854510" lon="-3.5398830">
        <ele>623.0</ele>
        <time>2021-04-04T09:06:46Z</time>
      </trkpt>
      <trkpt lat="40.1854400" lon="-3.5398750">
        <ele>623.2</ele>
        <time>2021-04-04T09:06:47Z</time>
      </trkpt>
      <trkpt lat="40.1854320" lon="-3.5398650">
        <ele>623.4</ele>
        <time>2021-04-04T09:06:48Z</time>
      </trkpt>
      <trkpt lat="40.1854210" lon="-3.5398560">
        <ele>623.6</ele>
        <time>2021-04-04T09:06:49Z</time>
      </trkpt>
      <trkpt lat="40.1854060" lon="-3.5398500">
        <ele>623.6</ele>
        <time>2021-04-04T09:06:50Z</time>
      </trkpt>
      <trkpt lat="40.1853940" lon="-3.5398460">
        <ele>623.8</ele>
        <time>2021-04-04T09:06:51Z</time>
      </trkpt>
      <trkpt lat="40.1853830" lon="-3.5398390">
        <ele>624.0</ele>
        <time>2021-04-04T09:06:52Z</time>
      </trkpt>
      <trkpt lat="40.1853750" lon="-3.5398300">
        <ele>624.2</ele>
        <time>2021-04-04T09:06:53Z</time>
      </trkpt>
      <trkpt lat="40.1853640" lon="-3.5398190">
        <ele>624.2</ele>
        <time>2021-04-04T09:06:54Z</time>
      </trkpt>
      <trkpt lat="40.1853520" lon="-3.5398090">
        <ele>624.4</ele>
        <time>2021-04-04T09:06:55Z</time>
      </trkpt>
      <trkpt lat="40.1853410" lon="-3.5398010">
        <ele>624.6</ele>
        <time>2021-04-04T09:06:56Z</time>
      </trkpt>
      <trkpt lat="40.1853290" lon="-3.5397950">
        <ele>624.8</ele>
        <time>2021-04-04T09:06:57Z</time>
      </trkpt>
      <trkpt lat="40.1853180" lon="-3.5397930">
        <ele>625.0</ele>
        <time>2021-04-04T09:06:58Z</time>
      </trkpt>
      <trkpt lat="40.1853100" lon="-3.5397910">
        <ele>625.0</ele>
        <time>2021-04-04T09:06:59Z</time>
      </trkpt>
      <trkpt lat="40.1853030" lon="-3.5397870">
        <ele>625.2</ele>
        <time>2021-04-04T09:07:00Z</time>
      </trkpt>
      <trkpt lat="40.1852910" lon="-3.5397780">
        <ele>625.4</ele>
        <time>2021-04-04T09:07:01Z</time>
      </trkpt>
      <trkpt lat="40.1852800" lon="-3.5397640">
        <ele>625.6</ele>
        <time>2021-04-04T09:07:02Z</time>
      </trkpt>
      <trkpt lat="40.1852720" lon="-3.5397500">
        <ele>625.6</ele>
        <time>2021-04-04T09:07:03Z</time>
      </trkpt>
      <trkpt lat="40.1852610" lon="-3.5397390">
        <ele>625.8</ele>
        <time>2021-04-04T09:07:04Z</time>
      </trkpt>
      <trkpt lat="40.1852490" lon="-3.5397310">
        <ele>626.0</ele>
        <time>2021-04-04T09:07:05Z</time>
      </trkpt>
      <trkpt lat="40.1852420" lon="-3.5397190">
        <ele>626.0</ele>
        <time>2021-04-04T09:07:06Z</time>
      </trkpt>
      <trkpt lat="40.1852340" lon="-3.5397080">
        <ele>626.2</ele>
        <time>2021-04-04T09:07:07Z</time>
      </trkpt>
      <trkpt lat="40.1852230" lon="-3.5397000">
        <ele>626.4</ele>
        <time>2021-04-04T09:07:08Z</time>
      </trkpt>
      <trkpt lat="40.1852110" lon="-3.5396930">
        <ele>626.6</ele>
        <time>2021-04-04T09:07:09Z</time>
      </trkpt>
      <trkpt lat="40.1852000" lon="-3.5396840">
        <ele>626.8</ele>
        <time>2021-04-04T09:07:10Z</time>
      </trkpt>
      <trkpt lat="40.1851880" lon="-3.5396720">
        <ele>627.0</ele>
        <time>2021-04-04T09:07:11Z</time>
      </trkpt>
      <trkpt lat="40.1851770" lon="-3.5396600">
        <ele>627.2</ele>
        <time>2021-04-04T09:07:12Z</time>
      </trkpt>
      <trkpt lat="40.1851690" lon="-3.5396460">
        <ele>627.4</ele>
        <time>2021-04-04T09:07:13Z</time>
      </trkpt>
      <trkpt lat="40.1851580" lon="-3.5396330">
        <ele>627.6</ele>
        <time>2021-04-04T09:07:14Z</time>
      </trkpt>
      <trkpt lat="40.1851500" lon="-3.5396210">
        <ele>627.8</ele>
        <time>2021-04-04T09:07:15Z</time>
      </trkpt>
      <trkpt lat="40.1851430" lon="-3.5396080">
        <ele>628.0</ele>
        <time>2021-04-04T09:07:16Z</time>
      </trkpt>
      <trkpt lat="40.1851310" lon="-3.5395940">
        <ele>628.2</ele>
        <time>2021-04-04T09:07:17Z</time>
      </trkpt>
      <trkpt lat="40.1851230" lon="-3.5395810">
        <ele>628.6</ele>
        <time>2021-04-04T09:07:18Z</time>
      </trkpt>
      <trkpt lat="40.1851120" lon="-3.5395660">
        <ele>628.8</ele>
        <time>2021-04-04T09:07:19Z</time>
      </trkpt>
      <trkpt lat="40.1851010" lon="-3.5395510">
        <ele>629.0</ele>
        <time>2021-04-04T09:07:20Z</time>
      </trkpt>
      <trkpt lat="40.1850890" lon="-3.5395350">
        <ele>629.2</ele>
        <time>2021-04-04T09:07:21Z</time>
      </trkpt>
      <trkpt lat="40.1850820" lon="-3.5395190">
        <ele>629.4</ele>
        <time>2021-04-04T09:07:22Z</time>
      </trkpt>
      <trkpt lat="40.1850700" lon="-3.5395030">
        <ele>629.6</ele>
        <time>2021-04-04T09:07:23Z</time>
      </trkpt>
      <trkpt lat="40.1850590" lon="-3.5394870">
        <ele>629.8</ele>
        <time>2021-04-04T09:07:24Z</time>
      </trkpt>
      <trkpt lat="40.1850510" lon="-3.5394720">
        <ele>630.0</ele>
        <time>2021-04-04T09:07:25Z</time>
      </trkpt>
      <trkpt lat="40.1850400" lon="-3.5394590">
        <ele>630.2</ele>
        <time>2021-04-04T09:07:26Z</time>
      </trkpt>
      <trkpt lat="40.1850280" lon="-3.5394460">
        <ele>630.4</ele>
        <time>2021-04-04T09:07:27Z</time>
      </trkpt>
      <trkpt lat="40.1850170" lon="-3.5394330">
        <ele>630.6</ele>
        <time>2021-04-04T09:07:28Z</time>
      </trkpt>
      <trkpt lat="40.1850090" lon="-3.5394190">
        <ele>630.8</ele>
        <time>2021-04-04T09:07:29Z</time>
      </trkpt>
      <trkpt lat="40.1849980" lon="-3.5394020">
        <ele>631.2</ele>
        <time>2021-04-04T09:07:30Z</time>
      </trkpt>
      <trkpt lat="40.1849860" lon="-3.5393870">
        <ele>631.4</ele>
        <time>2021-04-04T09:07:31Z</time>
      </trkpt>
      <trkpt lat="40.1849790" lon="-3.5393720">
        <ele>631.6</ele>
        <time>2021-04-04T09:07:32Z</time>
      </trkpt>
      <trkpt lat="40.1849670" lon="-3.5393570">
        <ele>631.8</ele>
        <time>2021-04-04T09:07:33Z</time>
      </trkpt>
      <trkpt lat="40.1849590" lon="-3.5393400">
        <ele>632.2</ele>
        <time>2021-04-04T09:07:34Z</time>
      </trkpt>
      <trkpt lat="40.1849480" lon="-3.5393250">
        <ele>632.4</ele>
        <time>2021-04-04T09:07:35Z</time>
      </trkpt>
      <trkpt lat="40.1849400" lon="-3.5393110">
        <ele>632.6</ele>
        <time>2021-04-04T09:07:36Z</time>
      </trkpt>
      <trkpt lat="40.1849290" lon="-3.5392960">
        <ele>633.0</ele>
        <time>2021-04-04T09:07:37Z</time>
      </trkpt>
      <trkpt lat="40.1849170" lon="-3.5392810">
        <ele>633.2</ele>
        <time>2021-04-04T09:07:38Z</time>
      </trkpt>
      <trkpt lat="40.1849060" lon="-3.5392660">
        <ele>633.4</ele>
        <time>2021-04-04T09:07:39Z</time>
      </trkpt>
      <trkpt lat="40.1848950" lon="-3.5392530">
        <ele>633.8</ele>
        <time>2021-04-04T09:07:40Z</time>
      </trkpt>
      <trkpt lat="40.1848830" lon="-3.5392380">
        <ele>634.0</ele>
        <time>2021-04-04T09:07:41Z</time>
      </trkpt>
      <trkpt lat="40.1848750" lon="-3.5392220">
        <ele>634.2</ele>
        <time>2021-04-04T09:07:42Z</time>
      </trkpt>
      <trkpt lat="40.1848680" lon="-3.5392030">
        <ele>634.6</ele>
        <time>2021-04-04T09:07:43Z</time>
      </trkpt>
      <trkpt lat="40.1848600" lon="-3.5391840">
        <ele>634.8</ele>
        <time>2021-04-04T09:07:44Z</time>
      </trkpt>
      <trkpt lat="40.1848560" lon="-3.5391640">
        <ele>635.0</ele>
        <time>2021-04-04T09:07:45Z</time>
      </trkpt>
      <trkpt lat="40.1848530" lon="-3.5391450">
        <ele>635.2</ele>
        <time>2021-04-04T09:07:46Z</time>
      </trkpt>
      <trkpt lat="40.1848490" lon="-3.5391260">
        <ele>635.4</ele>
        <time>2021-04-04T09:07:47Z</time>
      </trkpt>
      <trkpt lat="40.1848450" lon="-3.5391040">
        <ele>635.6</ele>
        <time>2021-04-04T09:07:48Z</time>
      </trkpt>
      <trkpt lat="40.1848370" lon="-3.5390820">
        <ele>636.0</ele>
        <time>2021-04-04T09:07:49Z</time>
      </trkpt>
      <trkpt lat="40.1848340" lon="-3.5390610">
        <ele>636.2</ele>
        <time>2021-04-04T09:07:50Z</time>
      </trkpt>
      <trkpt lat="40.1848300" lon="-3.5390410">
        <ele>636.2</ele>
        <time>2021-04-04T09:07:51Z</time>
      </trkpt>
      <trkpt lat="40.1848260" lon="-3.5390180">
        <ele>636.4</ele>
        <time>2021-04-04T09:07:52Z</time>
      </trkpt>
      <trkpt lat="40.1848220" lon="-3.5389970">
        <ele>636.6</ele>
        <time>2021-04-04T09:07:53Z</time>
      </trkpt>
      <trkpt lat="40.1848180" lon="-3.5389760">
        <ele>636.8</ele>
        <time>2021-04-04T09:07:54Z</time>
      </trkpt>
      <trkpt lat="40.1848140" lon="-3.5389540">
        <ele>637.2</ele>
        <time>2021-04-04T09:07:55Z</time>
      </trkpt>
      <trkpt lat="40.1848110" lon="-3.5389320">
        <ele>637.2</ele>
        <time>2021-04-04T09:07:56Z</time>
      </trkpt>
      <trkpt lat="40.1848030" lon="-3.5389070">
        <ele>637.4</ele>
        <time>2021-04-04T09:07:57Z</time>
      </trkpt>
      <trkpt lat="40.1847950" lon="-3.5388850">
        <ele>637.6</ele>
        <time>2021-04-04T09:07:58Z</time>
      </trkpt>
      <trkpt lat="40.1847880" lon="-3.5388640">
        <ele>637.8</ele>
        <time>2021-04-04T09:07:59Z</time>
      </trkpt>
      <trkpt lat="40.1847760" lon="-3.5388430">
        <ele>638.0</ele>
        <time>2021-04-04T09:08:00Z</time>
      </trkpt>
      <trkpt lat="40.1847690" lon="-3.5388210">
        <ele>638.2</ele>
        <time>2021-04-04T09:08:01Z</time>
      </trkpt>
      <trkpt lat="40.1847570" lon="-3.5387980">
        <ele>638.2</ele>
        <time>2021-04-04T09:08:02Z</time>
      </trkpt>
      <trkpt lat="40.1847500" lon="-3.5387740">
        <ele>638.4</ele>
        <time>2021-04-04T09:08:03Z</time>
      </trkpt>
      <trkpt lat="40.1847340" lon="-3.5387500">
        <ele>638.4</ele>
        <time>2021-04-04T09:08:04Z</time>
      </trkpt>
      <trkpt lat="40.1847230" lon="-3.5387250">
        <ele>638.6</ele>
        <time>2021-04-04T09:08:05Z</time>
      </trkpt>
      <trkpt lat="40.1847110" lon="-3.5386980">
        <ele>638.6</ele>
        <time>2021-04-04T09:08:06Z</time>
      </trkpt>
      <trkpt lat="40.1847040" lon="-3.5386690">
        <ele>638.8</ele>
        <time>2021-04-04T09:08:07Z</time>
      </trkpt>
      <trkpt lat="40.1846890" lon="-3.5386400">
        <ele>638.8</ele>
        <time>2021-04-04T09:08:08Z</time>
      </trkpt>
      <trkpt lat="40.1846730" lon="-3.5386140">
        <ele>639.0</ele>
        <time>2021-04-04T09:08:09Z</time>
      </trkpt>
      <trkpt lat="40.1846580" lon="-3.5385890">
        <ele>639.0</ele>
        <time>2021-04-04T09:08:10Z</time>
      </trkpt>
      <trkpt lat="40.1846470" lon="-3.5385640">
        <ele>639.2</ele>
        <time>2021-04-04T09:08:11Z</time>
      </trkpt>
      <trkpt lat="40.1846310" lon="-3.5385400">
        <ele>639.2</ele>
        <time>2021-04-04T09:08:12Z</time>
      </trkpt>
      <trkpt lat="40.1846160" lon="-3.5385180">
        <ele>639.4</ele>
        <time>2021-04-04T09:08:13Z</time>
      </trkpt>
      <trkpt lat="40.1846050" lon="-3.5384960">
        <ele>639.4</ele>
        <time>2021-04-04T09:08:14Z</time>
      </trkpt>
      <trkpt lat="40.1845890" lon="-3.5384690">
        <ele>639.4</ele>
        <time>2021-04-04T09:08:15Z</time>
      </trkpt>
      <trkpt lat="40.1845780" lon="-3.5384420">
        <ele>639.6</ele>
        <time>2021-04-04T09:08:16Z</time>
      </trkpt>
      <trkpt lat="40.1845630" lon="-3.5384150">
        <ele>639.6</ele>
        <time>2021-04-04T09:08:17Z</time>
      </trkpt>
      <trkpt lat="40.1845470" lon="-3.5383910">
        <ele>639.8</ele>
        <time>2021-04-04T09:08:18Z</time>
      </trkpt>
      <trkpt lat="40.1845360" lon="-3.5383680">
        <ele>639.8</ele>
        <time>2021-04-04T09:08:19Z</time>
      </trkpt>
      <trkpt lat="40.1845250" lon="-3.5383450">
        <ele>640.0</ele>
        <time>2021-04-04T09:08:20Z</time>
      </trkpt>
      <trkpt lat="40.1845130" lon="-3.5383220">
        <ele>640.0</ele>
        <time>2021-04-04T09:08:21Z</time>
      </trkpt>
      <trkpt lat="40.1844980" lon="-3.5382960">
        <ele>640.2</ele>
        <time>2021-04-04T09:08:22Z</time>
      </trkpt>
      <trkpt lat="40.1844860" lon="-3.5382740">
        <ele>640.2</ele>
        <time>2021-04-04T09:08:23Z</time>
      </trkpt>
      <trkpt lat="40.1844790" lon="-3.5382550">
        <ele>640.4</ele>
        <time>2021-04-04T09:08:24Z</time>
      </trkpt>
      <trkpt lat="40.1844710" lon="-3.5382380">
        <ele>640.4</ele>
        <time>2021-04-04T09:08:25Z</time>
      </trkpt>
      <trkpt lat="40.1844600" lon="-3.5382180">
        <ele>640.4</ele>
        <time>2021-04-04T09:08:26Z</time>
      </trkpt>
      <trkpt lat="40.1844440" lon="-3.5381950">
        <ele>640.6</ele>
        <time>2021-04-04T09:08:27Z</time>
      </trkpt>
      <trkpt lat="40.1844290" lon="-3.5381720">
        <ele>640.6</ele>
        <time>2021-04-04T09:08:28Z</time>
      </trkpt>
      <trkpt lat="40.1844180" lon="-3.5381470">
        <ele>640.6</ele>
        <time>2021-04-04T09:08:29Z</time>
      </trkpt>
      <trkpt lat="40.1844030" lon="-3.5381210">
        <ele>640.6</ele>
        <time>2021-04-04T09:08:30Z</time>
      </trkpt>
      <trkpt lat="40.1843870" lon="-3.5380960">
        <ele>640.4</ele>
        <time>2021-04-04T09:08:31Z</time>
      </trkpt>
      <trkpt lat="40.1843680" lon="-3.5380710">
        <ele>640.4</ele>
        <time>2021-04-04T09:08:32Z</time>
      </trkpt>
      <trkpt lat="40.1843530" lon="-3.5380450">
        <ele>640.2</ele>
        <time>2021-04-04T09:08:33Z</time>
      </trkpt>
      <trkpt lat="40.1843380" lon="-3.5380190">
        <ele>640.2</ele>
        <time>2021-04-04T09:08:34Z</time>
      </trkpt>
      <trkpt lat="40.1843260" lon="-3.5379920">
        <ele>640.2</ele>
        <time>2021-04-04T09:08:35Z</time>
      </trkpt>
      <trkpt lat="40.1843110" lon="-3.5379630">
        <ele>640.0</ele>
        <time>2021-04-04T09:08:36Z</time>
      </trkpt>
      <trkpt lat="40.1842990" lon="-3.5379350">
        <ele>640.0</ele>
        <time>2021-04-04T09:08:37Z</time>
      </trkpt>
      <trkpt lat="40.1842840" lon="-3.5379090">
        <ele>639.8</ele>
        <time>2021-04-04T09:08:38Z</time>
      </trkpt>
      <trkpt lat="40.1842690" lon="-3.5378870">
        <ele>639.6</ele>
        <time>2021-04-04T09:08:39Z</time>
      </trkpt>
      <trkpt lat="40.1842540" lon="-3.5378700">
        <ele>639.6</ele>
        <time>2021-04-04T09:08:40Z</time>
      </trkpt>
      <trkpt lat="40.1842350" lon="-3.5378620">
        <ele>639.4</ele>
        <time>2021-04-04T09:08:41Z</time>
      </trkpt>
      <trkpt lat="40.1842190" lon="-3.5378630">
        <ele>639.2</ele>
        <time>2021-04-04T09:08:42Z</time>
      </trkpt>
      <trkpt lat="40.1842080" lon="-3.5378700">
        <ele>639.0</ele>
        <time>2021-04-04T09:09:24Z</time>
      </trkpt>
      <trkpt lat="40.1842000" lon="-3.5378870">
        <ele>639.0</ele>
        <time>2021-04-04T09:09:25Z</time>
      </trkpt>
      <trkpt lat="40.1841960" lon="-3.5379010">
        <ele>638.8</ele>
        <time>2021-04-04T09:09:26Z</time>
      </trkpt>
      <trkpt lat="40.1841960" lon="-3.5379200">
        <ele>638.8</ele>
        <time>2021-04-04T09:09:27Z</time>
      </trkpt>
      <trkpt lat="40.1842040" lon="-3.5379440">
        <ele>638.8</ele>
        <time>2021-04-04T09:09:28Z</time>
      </trkpt>
      <trkpt lat="40.1842080" lon="-3.5379750">
        <ele>638.6</ele>
        <time>2021-04-04T09:09:29Z</time>
      </trkpt>
      <trkpt lat="40.1842000" lon="-3.5380100">
        <ele>638.4</ele>
        <time>2021-04-04T09:09:30Z</time>
      </trkpt>
      <trkpt lat="40.1841890" lon="-3.5380410">
        <ele>638.2</ele>
        <time>2021-04-04T09:09:31Z</time>
      </trkpt>
      <trkpt lat="40.1841770" lon="-3.5380680">
        <ele>638.2</ele>
        <time>2021-04-04T09:09:32Z</time>
      </trkpt>
      <trkpt lat="40.1841580" lon="-3.5380860">
        <ele>638.0</ele>
        <time>2021-04-04T09:09:33Z</time>
      </trkpt>
      <trkpt lat="40.1841390" lon="-3.5380980">
        <ele>637.8</ele>
        <time>2021-04-04T09:09:34Z</time>
      </trkpt>
      <trkpt lat="40.1841280" lon="-3.5381160">
        <ele>637.6</ele>
        <time>2021-04-04T09:09:35Z</time>
      </trkpt>
      <trkpt lat="40.1841200" lon="-3.5381420">
        <ele>637.4</ele>
        <time>2021-04-04T09:09:36Z</time>
      </trkpt>
      <trkpt lat="40.1841200" lon="-3.5381640">
        <ele>637.2</ele>
        <time>2021-04-04T09:09:37Z</time>
      </trkpt>
      <trkpt lat="40.1841280" lon="-3.5381740">
        <ele>637.2</ele>
        <time>2021-04-04T09:09:38Z</time>
      </trkpt>
      <trkpt lat="40.1841390" lon="-3.5381710">
        <ele>637.2</ele>
        <time>2021-04-04T09:09:39Z</time>
      </trkpt>
      <trkpt lat="40.1841430" lon="-3.5381560">
        <ele>637.4</ele>
        <time>2021-04-04T09:09:40Z</time>
      </trkpt>
      <trkpt lat="40.1841470" lon="-3.5381360">
        <ele>637.4</ele>
        <time>2021-04-04T09:09:41Z</time>
      </trkpt>
      <trkpt lat="40.1841430" lon="-3.5381120">
        <ele>637.4</ele>
        <time>2021-04-04T09:09:42Z</time>
      </trkpt>
      <trkpt lat="40.1841390" lon="-3.5380870">
        <ele>637.4</ele>
        <time>2021-04-04T09:09:43Z</time>
      </trkpt>
      <trkpt lat="40.1841470" lon="-3.5380620">
        <ele>637.4</ele>
        <time>2021-04-04T09:09:44Z</time>
      </trkpt>
      <trkpt lat="40.1841620" lon="-3.5380370">
        <ele>637.4</ele>
        <time>2021-04-04T09:09:45Z</time>
      </trkpt>
      <trkpt lat="40.1841740" lon="-3.5380110">
        <ele>637.4</ele>
        <time>2021-04-04T09:09:46Z</time>
      </trkpt>
      <trkpt lat="40.1841850" lon="-3.5379850">
        <ele>637.6</ele>
        <time>2021-04-04T09:09:47Z</time>
      </trkpt>
      <trkpt lat="40.1841960" lon="-3.5379590">
        <ele>637.6</ele>
        <time>2021-04-04T09:09:48Z</time>
      </trkpt>
      <trkpt lat="40.1842040" lon="-3.5379340">
        <ele>637.8</ele>
        <time>2021-04-04T09:09:49Z</time>
      </trkpt>
      <trkpt lat="40.1842160" lon="-3.5379080">
        <ele>638.0</ele>
        <time>2021-04-04T09:09:50Z</time>
      </trkpt>
      <trkpt lat="40.1842230" lon="-3.5378830">
        <ele>638.0</ele>
        <time>2021-04-04T09:09:51Z</time>
      </trkpt>
      <trkpt lat="40.1842090" lon="-3.5379080">
        <ele>638.2</ele>
        <time>2021-04-04T09:09:52Z</time>
      </trkpt>
      <trkpt lat="40.1841910" lon="-3.5379490">
        <ele>638.2</ele>
        <time>2021-04-04T09:09:53Z</time>
      </trkpt>
      <trkpt lat="40.1841730" lon="-3.5379910">
        <ele>638.4</ele>
        <time>2021-04-04T09:09:54Z</time>
      </trkpt>
      <trkpt lat="40.1841550" lon="-3.5380320">
        <ele>638.4</ele>
        <time>2021-04-04T09:09:55Z</time>
      </trkpt>
      <trkpt lat="40.1841360" lon="-3.5380740">
        <ele>638.4</ele>
        <time>2021-04-04T09:09:56Z</time>
      </trkpt>
      <trkpt lat="40.1841180" lon="-3.5381150">
        <ele>638.6</ele>
        <time>2021-04-04T09:09:57Z</time>
      </trkpt>
      <trkpt lat="40.1841000" lon="-3.5381570">
        <ele>638.4</ele>
        <time>2021-04-04T09:14:17Z</time>
      </trkpt>
      <trkpt lat="40.1840820" lon="-3.5381980">
        <ele>638.4</ele>
        <time>2021-04-04T09:14:18Z</time>
      </trkpt>
      <trkpt lat="40.1840520" lon="-3.5382420">
        <ele>638.2</ele>
        <time>2021-04-04T09:14:19Z</time>
      </trkpt>
      <trkpt lat="40.1840250" lon="-3.5382880">
        <ele>638.0</ele>
        <time>2021-04-04T09:14:20Z</time>
      </trkpt>
      <trkpt lat="40.1839900" lon="-3.5383370">
        <ele>637.6</ele>
        <time>2021-04-04T09:14:21Z</time>
      </trkpt>
      <trkpt lat="40.1839560" lon="-3.5383880">
        <ele>637.4</ele>
        <time>2021-04-04T09:14:22Z</time>
      </trkpt>
      <trkpt lat="40.1839220" lon="-3.5384400">
        <ele>637.2</ele>
        <time>2021-04-04T09:14:23Z</time>
      </trkpt>
      <trkpt lat="40.1838840" lon="-3.5384910">
        <ele>636.8</ele>
        <time>2021-04-04T09:14:24Z</time>
      </trkpt>
      <trkpt lat="40.1838460" lon="-3.5385380">
        <ele>636.8</ele>
        <time>2021-04-04T09:14:25Z</time>
      </trkpt>
      <trkpt lat="40.1838070" lon="-3.5385810">
        <ele>636.6</ele>
        <time>2021-04-04T09:14:26Z</time>
      </trkpt>
      <trkpt lat="40.1837650" lon="-3.5386260">
        <ele>636.4</ele>
        <time>2021-04-04T09:14:27Z</time>
      </trkpt>
      <trkpt lat="40.1837310" lon="-3.5386700">
        <ele>636.4</ele>
        <time>2021-04-04T09:14:28Z</time>
      </trkpt>
      <trkpt lat="40.1836970" lon="-3.5387120">
        <ele>636.4</ele>
        <time>2021-04-04T09:14:29Z</time>
      </trkpt>
      <trkpt lat="40.1836620" lon="-3.5387510">
        <ele>636.4</ele>
        <time>2021-04-04T09:14:30Z</time>
      </trkpt>
      <trkpt lat="40.1836320" lon="-3.5387870">
        <ele>636.4</ele>
        <time>2021-04-04T09:14:31Z</time>
      </trkpt>
      <trkpt lat="40.1835980" lon="-3.5388210">
        <ele>636.4</ele>
        <time>2021-04-04T09:14:32Z</time>
      </trkpt>
      <trkpt lat="40.1835630" lon="-3.5388530">
        <ele>636.6</ele>
        <time>2021-04-04T09:14:33Z</time>
      </trkpt>
      <trkpt lat="40.1835290" lon="-3.5388840">
        <ele>636.6</ele>
        <time>2021-04-04T09:14:34Z</time>
      </trkpt>
      <trkpt lat="40.1834980" lon="-3.5389140">
        <ele>636.8</ele>
        <time>2021-04-04T09:14:35Z</time>
      </trkpt>
      <trkpt lat="40.1834720" lon="-3.5389420">
        <ele>637.0</ele>
        <time>2021-04-04T09:14:36Z</time>
      </trkpt>
      <trkpt lat="40.1834410" lon="-3.5389700">
        <ele>637.2</ele>
        <time>2021-04-04T09:14:37Z</time>
      </trkpt>
      <trkpt lat="40.1834110" lon="-3.5389970">
        <ele>637.2</ele>
        <time>2021-04-04T09:14:38Z</time>
      </trkpt>
      <trkpt lat="40.1833800" lon="-3.5390240">
        <ele>637.2</ele>
        <time>2021-04-04T09:14:39Z</time>
      </trkpt>
      <trkpt lat="40.1833460" lon="-3.5390500">
        <ele>637.4</ele>
        <time>2021-04-04T09:14:40Z</time>
      </trkpt>
      <trkpt lat="40.1833110" lon="-3.5390750">
        <ele>637.4</ele>
        <time>2021-04-04T09:14:41Z</time>
      </trkpt>
      <trkpt lat="40.1832810" lon="-3.5391030">
        <ele>637.4</ele>
        <time>2021-04-04T09:14:42Z</time>
      </trkpt>
      <trkpt lat="40.1832430" lon="-3.5391330">
        <ele>637.2</ele>
        <time>2021-04-04T09:14:43Z</time>
      </trkpt>
      <trkpt lat="40.1832010" lon="-3.5391600">
        <ele>637.2</ele>
        <time>2021-04-04T09:14:44Z</time>
      </trkpt>
      <trkpt lat="40.1831590" lon="-3.5391890">
        <ele>637.2</ele>
        <time>2021-04-04T09:14:45Z</time>
      </trkpt>
      <trkpt lat="40.1831210" lon="-3.5392210">
        <ele>637.0</ele>
        <time>2021-04-04T09:14:46Z</time>
      </trkpt>
      <trkpt lat="40.1830830" lon="-3.5392510">
        <ele>637.0</ele>
        <time>2021-04-04T09:14:47Z</time>
      </trkpt>
      <trkpt lat="40.1830480" lon="-3.5392830">
        <ele>637.0</ele>
        <time>2021-04-04T09:14:48Z</time>
      </trkpt>
      <trkpt lat="40.1830140" lon="-3.5393180">
        <ele>636.8</ele>
        <time>2021-04-04T09:14:49Z</time>
      </trkpt>
      <trkpt lat="40.1829830" lon="-3.5393520">
        <ele>637.0</ele>
        <time>2021-04-04T09:14:50Z</time>
      </trkpt>
      <trkpt lat="40.1829530" lon="-3.5393860">
        <ele>637.0</ele>
        <time>2021-04-04T09:14:51Z</time>
      </trkpt>
      <trkpt lat="40.1829190" lon="-3.5394180">
        <ele>637.0</ele>
        <time>2021-04-04T09:14:52Z</time>
      </trkpt>
      <trkpt lat="40.1828920" lon="-3.5394510">
        <ele>637.0</ele>
        <time>2021-04-04T09:14:53Z</time>
      </trkpt>
      <trkpt lat="40.1828650" lon="-3.5394850">
        <ele>636.8</ele>
        <time>2021-04-04T09:14:54Z</time>
      </trkpt>
      <trkpt lat="40.1828350" lon="-3.5395190">
        <ele>636.8</ele>
        <time>2021-04-04T09:14:55Z</time>
      </trkpt>
      <trkpt lat="40.1828120" lon="-3.5395530">
        <ele>636.8</ele>
        <time>2021-04-04T09:14:56Z</time>
      </trkpt>
      <trkpt lat="40.1827890" lon="-3.5395850">
        <ele>636.8</ele>
        <time>2021-04-04T09:14:57Z</time>
      </trkpt>
      <trkpt lat="40.1827660" lon="-3.5396170">
        <ele>636.8</ele>
        <time>2021-04-04T09:14:58Z</time>
      </trkpt>
      <trkpt lat="40.1827470" lon="-3.5396480">
        <ele>636.8</ele>
        <time>2021-04-04T09:14:59Z</time>
      </trkpt>
      <trkpt lat="40.1827240" lon="-3.5396800">
        <ele>636.8</ele>
        <time>2021-04-04T09:15:00Z</time>
      </trkpt>
      <trkpt lat="40.1827010" lon="-3.5397180">
        <ele>637.0</ele>
        <time>2021-04-04T09:15:01Z</time>
      </trkpt>
      <trkpt lat="40.1826820" lon="-3.5397570">
        <ele>637.0</ele>
        <time>2021-04-04T09:15:02Z</time>
      </trkpt>
      <trkpt lat="40.1826630" lon="-3.5397950">
        <ele>637.0</ele>
        <time>2021-04-04T09:15:03Z</time>
      </trkpt>
      <trkpt lat="40.1826440" lon="-3.5398310">
        <ele>637.0</ele>
        <time>2021-04-04T09:15:04Z</time>
      </trkpt>
      <trkpt lat="40.1826210" lon="-3.5398650">
        <ele>637.0</ele>
        <time>2021-04-04T09:15:05Z</time>
      </trkpt>
      <trkpt lat="40.1826020" lon="-3.5399010">
        <ele>637.2</ele>
        <time>2021-04-04T09:15:06Z</time>
      </trkpt>
      <trkpt lat="40.1825830" lon="-3.5399390">
        <ele>637.2</ele>
        <time>2021-04-04T09:15:07Z</time>
      </trkpt>
      <trkpt lat="40.1825640" lon="-3.5399740">
        <ele>637.2</ele>
        <time>2021-04-04T09:15:08Z</time>
      </trkpt>
      <trkpt lat="40.1825450" lon="-3.5400070">
        <ele>637.4</ele>
        <time>2021-04-04T09:15:09Z</time>
      </trkpt>
      <trkpt lat="40.1825260" lon="-3.5400390">
        <ele>637.4</ele>
        <time>2021-04-04T09:15:10Z</time>
      </trkpt>
      <trkpt lat="40.1825070" lon="-3.5400710">
        <ele>637.6</ele>
        <time>2021-04-04T09:15:11Z</time>
      </trkpt>
      <trkpt lat="40.1824840" lon="-3.5401030">
        <ele>637.6</ele>
        <time>2021-04-04T09:15:12Z</time>
      </trkpt>
      <trkpt lat="40.1824650" lon="-3.5401360">
        <ele>637.8</ele>
        <time>2021-04-04T09:15:13Z</time>
      </trkpt>
      <trkpt lat="40.1824450" lon="-3.5401660">
        <ele>637.8</ele>
        <time>2021-04-04T09:15:14Z</time>
      </trkpt>
      <trkpt lat="40.1824230" lon="-3.5401940">
        <ele>638.0</ele>
        <time>2021-04-04T09:15:15Z</time>
      </trkpt>
      <trkpt lat="40.1824040" lon="-3.5402230">
        <ele>638.2</ele>
        <time>2021-04-04T09:15:16Z</time>
      </trkpt>
      <trkpt lat="40.1823810" lon="-3.5402530">
        <ele>638.4</ele>
        <time>2021-04-04T09:15:17Z</time>
      </trkpt>
      <trkpt lat="40.1823620" lon="-3.5402820">
        <ele>638.4</ele>
        <time>2021-04-04T09:15:18Z</time>
      </trkpt>
      <trkpt lat="40.1823390" lon="-3.5403100">
        <ele>638.6</ele>
        <time>2021-04-04T09:15:19Z</time>
      </trkpt>
      <trkpt lat="40.1823160" lon="-3.5403370">
        <ele>638.8</ele>
        <time>2021-04-04T09:15:20Z</time>
      </trkpt>
      <trkpt lat="40.1822890" lon="-3.5403650">
        <ele>638.8</ele>
        <time>2021-04-04T09:15:21Z</time>
      </trkpt>
      <trkpt lat="40.1822660" lon="-3.5403930">
        <ele>639.0</ele>
        <time>2021-04-04T09:15:22Z</time>
      </trkpt>
      <trkpt lat="40.1822400" lon="-3.5404170">
        <ele>639.2</ele>
        <time>2021-04-04T09:15:23Z</time>
      </trkpt>
      <trkpt lat="40.1822130" lon="-3.5404410">
        <ele>639.2</ele>
        <time>2021-04-04T09:15:24Z</time>
      </trkpt>
      <trkpt lat="40.1821900" lon="-3.5404650">
        <ele>639.4</ele>
        <time>2021-04-04T09:15:25Z</time>
      </trkpt>
      <trkpt lat="40.1821630" lon="-3.5404930">
        <ele>639.6</ele>
        <time>2021-04-04T09:15:26Z</time>
      </trkpt>
      <trkpt lat="40.1821400" lon="-3.5405200">
        <ele>639.8</ele>
        <time>2021-04-04T09:15:27Z</time>
      </trkpt>
      <trkpt lat="40.1821140" lon="-3.5405440">
        <ele>640.0</ele>
        <time>2021-04-04T09:15:28Z</time>
      </trkpt>
      <trkpt lat="40.1820870" lon="-3.5405690">
        <ele>640.0</ele>
        <time>2021-04-04T09:15:29Z</time>
      </trkpt>
      <trkpt lat="40.1820640" lon="-3.5405950">
        <ele>640.2</ele>
        <time>2021-04-04T09:15:30Z</time>
      </trkpt>
      <trkpt lat="40.1820370" lon="-3.5406210">
        <ele>640.4</ele>
        <time>2021-04-04T09:15:31Z</time>
      </trkpt>
      <trkpt lat="40.1820140" lon="-3.5406460">
        <ele>640.6</ele>
        <time>2021-04-04T09:15:32Z</time>
      </trkpt>
      <trkpt lat="40.1819920" lon="-3.5406710">
        <ele>640.8</ele>
        <time>2021-04-04T09:15:33Z</time>
      </trkpt>
      <trkpt lat="40.1819690" lon="-3.5406960">
        <ele>641.0</ele>
        <time>2021-04-04T09:15:34Z</time>
      </trkpt>
      <trkpt lat="40.1819460" lon="-3.5407200">
        <ele>641.2</ele>
        <time>2021-04-04T09:15:35Z</time>
      </trkpt>
      <trkpt lat="40.1819270" lon="-3.5407410">
        <ele>641.4</ele>
        <time>2021-04-04T09:15:36Z</time>
      </trkpt>
      <trkpt lat="40.1819000" lon="-3.5407620">
        <ele>641.4</ele>
        <time>2021-04-04T09:15:37Z</time>
      </trkpt>
      <trkpt lat="40.1818770" lon="-3.5407870">
        <ele>641.6</ele>
        <time>2021-04-04T09:15:38Z</time>
      </trkpt>
      <trkpt lat="40.1818540" lon="-3.5408140">
        <ele>641.6</ele>
        <time>2021-04-04T09:15:39Z</time>
      </trkpt>
      <trkpt lat="40.1818280" lon="-3.5408400">
        <ele>641.8</ele>
        <time>2021-04-04T09:15:40Z</time>
      </trkpt>
      <trkpt lat="40.1818050" lon="-3.5408660">
        <ele>641.8</ele>
        <time>2021-04-04T09:15:41Z</time>
      </trkpt>
      <trkpt lat="40.1817780" lon="-3.5408920">
        <ele>641.8</ele>
        <time>2021-04-04T09:15:42Z</time>
      </trkpt>
      <trkpt lat="40.1817510" lon="-3.5409190">
        <ele>642.0</ele>
        <time>2021-04-04T09:15:43Z</time>
      </trkpt>
      <trkpt lat="40.1817280" lon="-3.5409460">
        <ele>642.0</ele>
        <time>2021-04-04T09:15:44Z</time>
      </trkpt>
      <trkpt lat="40.1817020" lon="-3.5409730">
        <ele>642.0</ele>
        <time>2021-04-04T09:15:45Z</time>
      </trkpt>
      <trkpt lat="40.1816750" lon="-3.5410000">
        <ele>642.0</ele>
        <time>2021-04-04T09:15:46Z</time>
      </trkpt>
      <trkpt lat="40.1816520" lon="-3.5410260">
        <ele>642.2</ele>
        <time>2021-04-04T09:15:47Z</time>
      </trkpt>
      <trkpt lat="40.1816250" lon="-3.5410510">
        <ele>642.2</ele>
        <time>2021-04-04T09:15:48Z</time>
      </trkpt>
      <trkpt lat="40.1815990" lon="-3.5410750">
        <ele>642.4</ele>
        <time>2021-04-04T09:15:49Z</time>
      </trkpt>
      <trkpt lat="40.1815720" lon="-3.5410990">
        <ele>642.4</ele>
        <time>2021-04-04T09:15:50Z</time>
      </trkpt>
      <trkpt lat="40.1815450" lon="-3.5411220">
        <ele>642.4</ele>
        <time>2021-04-04T09:15:51Z</time>
      </trkpt>
      <trkpt lat="40.1815190" lon="-3.5411440">
        <ele>642.4</ele>
        <time>2021-04-04T09:15:52Z</time>
      </trkpt>
      <trkpt lat="40.1814880" lon="-3.5411670">
        <ele>642.6</ele>
        <time>2021-04-04T09:15:53Z</time>
      </trkpt>
      <trkpt lat="40.1814610" lon="-3.5411890">
        <ele>642.6</ele>
        <time>2021-04-04T09:15:54Z</time>
      </trkpt>
      <trkpt lat="40.1814310" lon="-3.5412090">
        <ele>642.8</ele>
        <time>2021-04-04T09:15:55Z</time>
      </trkpt>
      <trkpt lat="40.1814000" lon="-3.5412300">
        <ele>642.8</ele>
        <time>2021-04-04T09:15:56Z</time>
      </trkpt>
      <trkpt lat="40.1813740" lon="-3.5412500">
        <ele>643.0</ele>
        <time>2021-04-04T09:15:57Z</time>
      </trkpt>
      <trkpt lat="40.1813430" lon="-3.5412690">
        <ele>643.2</ele>
        <time>2021-04-04T09:15:58Z</time>
      </trkpt>
      <trkpt lat="40.1813130" lon="-3.5412880">
        <ele>643.2</ele>
        <time>2021-04-04T09:15:59Z</time>
      </trkpt>
      <trkpt lat="40.1812820" lon="-3.5413050">
        <ele>643.6</ele>
        <time>2021-04-04T09:16:00Z</time>
      </trkpt>
      <trkpt lat="40.1812510" lon="-3.5413170">
        <ele>643.8</ele>
        <time>2021-04-04T09:16:01Z</time>
      </trkpt>
      <trkpt lat="40.1812170" lon="-3.5413260">
        <ele>644.0</ele>
        <time>2021-04-04T09:16:02Z</time>
      </trkpt>
      <trkpt lat="40.1811870" lon="-3.5413390">
        <ele>644.2</ele>
        <time>2021-04-04T09:16:03Z</time>
      </trkpt>
      <trkpt lat="40.1811560" lon="-3.5413500">
        <ele>644.6</ele>
        <time>2021-04-04T09:16:04Z</time>
      </trkpt>
      <trkpt lat="40.1811220" lon="-3.5413600">
        <ele>644.8</ele>
        <time>2021-04-04T09:16:05Z</time>
      </trkpt>
      <trkpt lat="40.1810910" lon="-3.5413700">
        <ele>645.0</ele>
        <time>2021-04-04T09:16:06Z</time>
      </trkpt>
      <trkpt lat="40.1810610" lon="-3.5413800">
        <ele>645.4</ele>
        <time>2021-04-04T09:16:07Z</time>
      </trkpt>
      <trkpt lat="40.1810300" lon="-3.5413900">
        <ele>645.6</ele>
        <time>2021-04-04T09:16:08Z</time>
      </trkpt>
      <trkpt lat="40.1810000" lon="-3.5414010">
        <ele>645.8</ele>
        <time>2021-04-04T09:16:09Z</time>
      </trkpt>
      <trkpt lat="40.1809690" lon="-3.5414140">
        <ele>646.0</ele>
        <time>2021-04-04T09:16:10Z</time>
      </trkpt>
      <trkpt lat="40.1809390" lon="-3.5414270">
        <ele>646.2</ele>
        <time>2021-04-04T09:16:11Z</time>
      </trkpt>
      <trkpt lat="40.1809080" lon="-3.5414410">
        <ele>646.4</ele>
        <time>2021-04-04T09:16:12Z</time>
      </trkpt>
      <trkpt lat="40.1808820" lon="-3.5414590">
        <ele>646.6</ele>
        <time>2021-04-04T09:16:13Z</time>
      </trkpt>
      <trkpt lat="40.1808510" lon="-3.5414790">
        <ele>646.6</ele>
        <time>2021-04-04T09:16:14Z</time>
      </trkpt>
      <trkpt lat="40.1808240" lon="-3.5414980">
        <ele>646.8</ele>
        <time>2021-04-04T09:16:15Z</time>
      </trkpt>
      <trkpt lat="40.1807980" lon="-3.5415190">
        <ele>647.0</ele>
        <time>2021-04-04T09:16:16Z</time>
      </trkpt>
      <trkpt lat="40.1807710" lon="-3.5415420">
        <ele>647.2</ele>
        <time>2021-04-04T09:16:17Z</time>
      </trkpt>
      <trkpt lat="40.1807440" lon="-3.5415660">
        <ele>647.2</ele>
        <time>2021-04-04T09:16:18Z</time>
      </trkpt>
      <trkpt lat="40.1807170" lon="-3.5415900">
        <ele>647.4</ele>
        <time>2021-04-04T09:16:19Z</time>
      </trkpt>
      <trkpt lat="40.1806910" lon="-3.5416130">
        <ele>647.4</ele>
        <time>2021-04-04T09:16:20Z</time>
      </trkpt>
      <trkpt lat="40.1806600" lon="-3.5416340">
        <ele>647.4</ele>
        <time>2021-04-04T09:16:21Z</time>
      </trkpt>
      <trkpt lat="40.1806340" lon="-3.5416580">
        <ele>647.4</ele>
        <time>2021-04-04T09:16:22Z</time>
      </trkpt>
      <trkpt lat="40.1806110" lon="-3.5416850">
        <ele>647.4</ele>
        <time>2021-04-04T09:16:23Z</time>
      </trkpt>
      <trkpt lat="40.1805880" lon="-3.5417140">
        <ele>647.4</ele>
        <time>2021-04-04T09:16:24Z</time>
      </trkpt>
      <trkpt lat="40.1805610" lon="-3.5417440">
        <ele>647.4</ele>
        <time>2021-04-04T09:16:25Z</time>
      </trkpt>
      <trkpt lat="40.1805310" lon="-3.5417740">
        <ele>647.4</ele>
        <time>2021-04-04T09:16:26Z</time>
      </trkpt>
      <trkpt lat="40.1805000" lon="-3.5418030">
        <ele>647.2</ele>
        <time>2021-04-04T09:16:27Z</time>
      </trkpt>
      <trkpt lat="40.1804700" lon="-3.5418320">
        <ele>647.2</ele>
        <time>2021-04-04T09:16:28Z</time>
      </trkpt>
      <trkpt lat="40.1804350" lon="-3.5418600">
        <ele>647.0</ele>
        <time>2021-04-04T09:16:29Z</time>
      </trkpt>
      <trkpt lat="40.1804080" lon="-3.5418920">
        <ele>647.0</ele>
        <time>2021-04-04T09:16:30Z</time>
      </trkpt>
      <trkpt lat="40.1803780" lon="-3.5419240">
        <ele>646.8</ele>
        <time>2021-04-04T09:16:31Z</time>
      </trkpt>
      <trkpt lat="40.1803440" lon="-3.5419580">
        <ele>646.8</ele>
        <time>2021-04-04T09:16:32Z</time>
      </trkpt>
      <trkpt lat="40.1803130" lon="-3.5419910">
        <ele>646.6</ele>
        <time>2021-04-04T09:16:33Z</time>
      </trkpt>
      <trkpt lat="40.1802750" lon="-3.5420240">
        <ele>646.6</ele>
        <time>2021-04-04T09:16:34Z</time>
      </trkpt>
      <trkpt lat="40.1802330" lon="-3.5420590">
        <ele>646.4</ele>
        <time>2021-04-04T09:16:35Z</time>
      </trkpt>
      <trkpt lat="40.1801950" lon="-3.5420960">
        <ele>646.2</ele>
        <time>2021-04-04T09:16:36Z</time>
      </trkpt>
      <trkpt lat="40.1801570" lon="-3.5421350">
        <ele>646.2</ele>
        <time>2021-04-04T09:16:37Z</time>
      </trkpt>
      <trkpt lat="40.1801190" lon="-3.5421740">
        <ele>646.0</ele>
        <time>2021-04-04T09:16:38Z</time>
      </trkpt>
      <trkpt lat="40.1800800" lon="-3.5422130">
        <ele>646.0</ele>
        <time>2021-04-04T09:16:39Z</time>
      </trkpt>
      <trkpt lat="40.1800420" lon="-3.5422500">
        <ele>645.8</ele>
        <time>2021-04-04T09:16:40Z</time>
      </trkpt>
      <trkpt lat="40.1800080" lon="-3.5422890">
        <ele>645.8</ele>
        <time>2021-04-04T09:16:41Z</time>
      </trkpt>
      <trkpt lat="40.1799740" lon="-3.5423310">
        <ele>645.6</ele>
        <time>2021-04-04T09:16:42Z</time>
      </trkpt>
      <trkpt lat="40.1799390" lon="-3.5423770">
        <ele>645.6</ele>
        <time>2021-04-04T09:16:43Z</time>
      </trkpt>
      <trkpt lat="40.1799090" lon="-3.5424240">
        <ele>645.6</ele>
        <time>2021-04-04T09:16:44Z</time>
      </trkpt>
      <trkpt lat="40.1798820" lon="-3.5424720">
        <ele>645.6</ele>
        <time>2021-04-04T09:16:45Z</time>
      </trkpt>
      <trkpt lat="40.1798550" lon="-3.5425180">
        <ele>645.6</ele>
        <time>2021-04-04T09:16:46Z</time>
      </trkpt>
      <trkpt lat="40.1798210" lon="-3.5425610">
        <ele>645.6</ele>
        <time>2021-04-04T09:16:47Z</time>
      </trkpt>
      <trkpt lat="40.1797830" lon="-3.5426030">
        <ele>645.4</ele>
        <time>2021-04-04T09:16:48Z</time>
      </trkpt>
      <trkpt lat="40.1797520" lon="-3.5426420">
        <ele>645.4</ele>
        <time>2021-04-04T09:16:49Z</time>
      </trkpt>
      <trkpt lat="40.1797180" lon="-3.5426790">
        <ele>645.4</ele>
        <time>2021-04-04T09:16:50Z</time>
      </trkpt>
      <trkpt lat="40.1796840" lon="-3.5427190">
        <ele>645.6</ele>
        <time>2021-04-04T09:16:51Z</time>
      </trkpt>
      <trkpt lat="40.1796490" lon="-3.5427580">
        <ele>645.6</ele>
        <time>2021-04-04T09:16:52Z</time>
      </trkpt>
      <trkpt lat="40.1796150" lon="-3.5427960">
        <ele>645.6</ele>
        <time>2021-04-04T09:16:53Z</time>
      </trkpt>
      <trkpt lat="40.1795850" lon="-3.5428350">
        <ele>645.8</ele>
        <time>2021-04-04T09:16:54Z</time>
      </trkpt>
      <trkpt lat="40.1795500" lon="-3.5428730">
        <ele>645.8</ele>
        <time>2021-04-04T09:16:55Z</time>
      </trkpt>
      <trkpt lat="40.1795200" lon="-3.5429120">
        <ele>646.0</ele>
        <time>2021-04-04T09:16:56Z</time>
      </trkpt>
      <trkpt lat="40.1794890" lon="-3.5429500">
        <ele>646.0</ele>
        <time>2021-04-04T09:16:57Z</time>
      </trkpt>
      <trkpt lat="40.1794590" lon="-3.5429870">
        <ele>646.2</ele>
        <time>2021-04-04T09:16:58Z</time>
      </trkpt>
      <trkpt lat="40.1794280" lon="-3.5430240">
        <ele>646.4</ele>
        <time>2021-04-04T09:16:59Z</time>
      </trkpt>
      <trkpt lat="40.1793980" lon="-3.5430600">
        <ele>646.6</ele>
        <time>2021-04-04T09:17:00Z</time>
      </trkpt>
      <trkpt lat="40.1793670" lon="-3.5430940">
        <ele>646.8</ele>
        <time>2021-04-04T09:17:01Z</time>
      </trkpt>
      <trkpt lat="40.1793370" lon="-3.5431280">
        <ele>647.0</ele>
        <time>2021-04-04T09:17:02Z</time>
      </trkpt>
      <trkpt lat="40.1793060" lon="-3.5431630">
        <ele>647.4</ele>
        <time>2021-04-04T09:17:03Z</time>
      </trkpt>
      <trkpt lat="40.1792760" lon="-3.5431980">
        <ele>647.6</ele>
        <time>2021-04-04T09:17:04Z</time>
      </trkpt>
      <trkpt lat="40.1792450" lon="-3.5432340">
        <ele>647.8</ele>
        <time>2021-04-04T09:17:05Z</time>
      </trkpt>
      <trkpt lat="40.1792140" lon="-3.5432720">
        <ele>648.2</ele>
        <time>2021-04-04T09:17:06Z</time>
      </trkpt>
      <trkpt lat="40.1791880" lon="-3.5433100">
        <ele>648.4</ele>
        <time>2021-04-04T09:17:07Z</time>
      </trkpt>
      <trkpt lat="40.1791650" lon="-3.5433490">
        <ele>648.6</ele>
        <time>2021-04-04T09:17:08Z</time>
      </trkpt>
      <trkpt lat="40.1791420" lon="-3.5433910">
        <ele>648.8</ele>
        <time>2021-04-04T09:17:09Z</time>
      </trkpt>
      <trkpt lat="40.1791150" lon="-3.5434320">
        <ele>649.0</ele>
        <time>2021-04-04T09:17:10Z</time>
      </trkpt>
      <trkpt lat="40.1790920" lon="-3.5434690">
        <ele>649.2</ele>
        <time>2021-04-04T09:17:11Z</time>
      </trkpt>
      <trkpt lat="40.1790730" lon="-3.5435080">
        <ele>649.4</ele>
        <time>2021-04-04T09:17:12Z</time>
      </trkpt>
      <trkpt lat="40.1790500" lon="-3.5435430">
        <ele>649.6</ele>
        <time>2021-04-04T09:17:13Z</time>
      </trkpt>
      <trkpt lat="40.1790240" lon="-3.5435760">
        <ele>649.8</ele>
        <time>2021-04-04T09:17:14Z</time>
      </trkpt>
      <trkpt lat="40.1789970" lon="-3.5436080">
        <ele>650.0</ele>
        <time>2021-04-04T09:17:15Z</time>
      </trkpt>
      <trkpt lat="40.1789630" lon="-3.5436350">
        <ele>650.0</ele>
        <time>2021-04-04T09:17:16Z</time>
      </trkpt>
      <trkpt lat="40.1789280" lon="-3.5436610">
        <ele>650.0</ele>
        <time>2021-04-04T09:17:17Z</time>
      </trkpt>
      <trkpt lat="40.1788940" lon="-3.5436860">
        <ele>650.0</ele>
        <time>2021-04-04T09:17:18Z</time>
      </trkpt>
      <trkpt lat="40.1788560" lon="-3.5437100">
        <ele>649.8</ele>
        <time>2021-04-04T09:17:19Z</time>
      </trkpt>
      <trkpt lat="40.1788180" lon="-3.5437340">
        <ele>649.8</ele>
        <time>2021-04-04T09:17:20Z</time>
      </trkpt>
      <trkpt lat="40.1787800" lon="-3.5437580">
        <ele>649.6</ele>
        <time>2021-04-04T09:17:21Z</time>
      </trkpt>
      <trkpt lat="40.1787340" lon="-3.5437840">
        <ele>649.4</ele>
        <time>2021-04-04T09:17:22Z</time>
      </trkpt>
      <trkpt lat="40.1786920" lon="-3.5438130">
        <ele>649.2</ele>
        <time>2021-04-04T09:17:23Z</time>
      </trkpt>
      <trkpt lat="40.1786460" lon="-3.5438400">
        <ele>649.0</ele>
        <time>2021-04-04T09:17:24Z</time>
      </trkpt>
      <trkpt lat="40.1786000" lon="-3.5438660">
        <ele>648.6</ele>
        <time>2021-04-04T09:17:25Z</time>
      </trkpt>
      <trkpt lat="40.1785510" lon="-3.5438880">
        <ele>648.4</ele>
        <time>2021-04-04T09:17:26Z</time>
      </trkpt>
      <trkpt lat="40.1785050" lon="-3.5439050">
        <ele>648.4</ele>
        <time>2021-04-04T09:17:27Z</time>
      </trkpt>
      <trkpt lat="40.1784550" lon="-3.5439200">
        <ele>648.2</ele>
        <time>2021-04-04T09:17:28Z</time>
      </trkpt>
      <trkpt lat="40.1784060" lon="-3.5439310">
        <ele>648.2</ele>
        <time>2021-04-04T09:17:29Z</time>
      </trkpt>
      <trkpt lat="40.1783560" lon="-3.5439400">
        <ele>648.2</ele>
        <time>2021-04-04T09:17:30Z</time>
      </trkpt>
      <trkpt lat="40.1783070" lon="-3.5439480">
        <ele>648.2</ele>
        <time>2021-04-04T09:17:31Z</time>
      </trkpt>
      <trkpt lat="40.1782570" lon="-3.5439540">
        <ele>648.2</ele>
        <time>2021-04-04T09:17:32Z</time>
      </trkpt>
      <trkpt lat="40.1782150" lon="-3.5439620">
        <ele>648.4</ele>
        <time>2021-04-04T09:17:33Z</time>
      </trkpt>
      <trkpt lat="40.1781690" lon="-3.5439700">
        <ele>648.4</ele>
        <time>2021-04-04T09:17:34Z</time>
      </trkpt>
      <trkpt lat="40.1781270" lon="-3.5439790">
        <ele>648.6</ele>
        <time>2021-04-04T09:17:35Z</time>
      </trkpt>
      <trkpt lat="40.1780850" lon="-3.5439870">
        <ele>648.8</ele>
        <time>2021-04-04T09:17:36Z</time>
      </trkpt>
      <trkpt lat="40.1780470" lon="-3.5439930">
        <ele>648.8</ele>
        <time>2021-04-04T09:17:37Z</time>
      </trkpt>
      <trkpt lat="40.1780090" lon="-3.5440010">
        <ele>649.0</ele>
        <time>2021-04-04T09:17:38Z</time>
      </trkpt>
      <trkpt lat="40.1779710" lon="-3.5440150">
        <ele>649.0</ele>
        <time>2021-04-04T09:17:39Z</time>
      </trkpt>
      <trkpt lat="40.1779330" lon="-3.5440310">
        <ele>649.0</ele>
        <time>2021-04-04T09:17:40Z</time>
      </trkpt>
      <trkpt lat="40.1778950" lon="-3.5440470">
        <ele>649.0</ele>
        <time>2021-04-04T09:17:41Z</time>
      </trkpt>
      <trkpt lat="40.1778530" lon="-3.5440630">
        <ele>649.0</ele>
        <time>2021-04-04T09:17:42Z</time>
      </trkpt>
      <trkpt lat="40.1778110" lon="-3.5440790">
        <ele>648.8</ele>
        <time>2021-04-04T09:17:43Z</time>
      </trkpt>
      <trkpt lat="40.1777690" lon="-3.5440940">
        <ele>648.8</ele>
        <time>2021-04-04T09:17:44Z</time>
      </trkpt>
      <trkpt lat="40.1777270" lon="-3.5441100">
        <ele>649.0</ele>
        <time>2021-04-04T09:17:45Z</time>
      </trkpt>
      <trkpt lat="40.1776850" lon="-3.5441260">
        <ele>649.0</ele>
        <time>2021-04-04T09:17:46Z</time>
      </trkpt>
      <trkpt lat="40.1776470" lon="-3.5441440">
        <ele>649.0</ele>
        <time>2021-04-04T09:17:47Z</time>
      </trkpt>
      <trkpt lat="40.1776080" lon="-3.5441640">
        <ele>649.0</ele>
        <time>2021-04-04T09:17:48Z</time>
      </trkpt>
      <trkpt lat="40.1775700" lon="-3.5441810">
        <ele>649.0</ele>
        <time>2021-04-04T09:17:49Z</time>
      </trkpt>
      <trkpt lat="40.1775320" lon="-3.5441990">
        <ele>649.2</ele>
        <time>2021-04-04T09:17:50Z</time>
      </trkpt>
      <trkpt lat="40.1774940" lon="-3.5442170">
        <ele>649.2</ele>
        <time>2021-04-04T09:17:51Z</time>
      </trkpt>
      <trkpt lat="40.1774520" lon="-3.5442340">
        <ele>649.2</ele>
        <time>2021-04-04T09:17:52Z</time>
      </trkpt>
      <trkpt lat="40.1774140" lon="-3.5442480">
        <ele>649.0</ele>
        <time>2021-04-04T09:17:53Z</time>
      </trkpt>
      <trkpt lat="40.1773720" lon="-3.5442640">
        <ele>649.0</ele>
        <time>2021-04-04T09:17:54Z</time>
      </trkpt>
      <trkpt lat="40.1773340" lon="-3.5442810">
        <ele>649.0</ele>
        <time>2021-04-04T09:17:55Z</time>
      </trkpt>
      <trkpt lat="40.1772920" lon="-3.5442970">
        <ele>648.8</ele>
        <time>2021-04-04T09:17:56Z</time>
      </trkpt>
      <trkpt lat="40.1772540" lon="-3.5443130">
        <ele>648.8</ele>
        <time>2021-04-04T09:17:57Z</time>
      </trkpt>
      <trkpt lat="40.1772160" lon="-3.5443290">
        <ele>648.6</ele>
        <time>2021-04-04T09:17:58Z</time>
      </trkpt>
      <trkpt lat="40.1771740" lon="-3.5443440">
        <ele>648.4</ele>
        <time>2021-04-04T09:17:59Z</time>
      </trkpt>
      <trkpt lat="40.1771320" lon="-3.5443600">
        <ele>648.4</ele>
        <time>2021-04-04T09:18:00Z</time>
      </trkpt>
      <trkpt lat="40.1770930" lon="-3.5443790">
        <ele>648.4</ele>
        <time>2021-04-04T09:18:01Z</time>
      </trkpt>
      <trkpt lat="40.1770480" lon="-3.5443980">
        <ele>648.2</ele>
        <time>2021-04-04T09:18:02Z</time>
      </trkpt>
      <trkpt lat="40.1770060" lon="-3.5444200">
        <ele>647.8</ele>
        <time>2021-04-04T09:18:03Z</time>
      </trkpt>
      <trkpt lat="40.1769600" lon="-3.5444400">
        <ele>647.6</ele>
        <time>2021-04-04T09:18:04Z</time>
      </trkpt>
      <trkpt lat="40.1769180" lon="-3.5444610">
        <ele>647.4</ele>
        <time>2021-04-04T09:18:05Z</time>
      </trkpt>
      <trkpt lat="40.1768720" lon="-3.5444850">
        <ele>647.2</ele>
        <time>2021-04-04T09:18:06Z</time>
      </trkpt>
      <trkpt lat="40.1768260" lon="-3.5445120">
        <ele>646.8</ele>
        <time>2021-04-04T09:18:07Z</time>
      </trkpt>
      <trkpt lat="40.1767770" lon="-3.5445400">
        <ele>646.4</ele>
        <time>2021-04-04T09:18:08Z</time>
      </trkpt>
      <trkpt lat="40.1767240" lon="-3.5445650">
        <ele>646.0</ele>
        <time>2021-04-04T09:18:09Z</time>
      </trkpt>
      <trkpt lat="40.1766700" lon="-3.5445930">
        <ele>645.6</ele>
        <time>2021-04-04T09:18:10Z</time>
      </trkpt>
      <trkpt lat="40.1766090" lon="-3.5446250">
        <ele>645.0</ele>
        <time>2021-04-04T09:18:11Z</time>
      </trkpt>
      <trkpt lat="40.1765440" lon="-3.5446580">
        <ele>644.6</ele>
        <time>2021-04-04T09:18:12Z</time>
      </trkpt>
      <trkpt lat="40.1764830" lon="-3.5446920">
        <ele>644.2</ele>
        <time>2021-04-04T09:18:13Z</time>
      </trkpt>
      <trkpt lat="40.1764140" lon="-3.5447280">
        <ele>643.6</ele>
        <time>2021-04-04T09:18:14Z</time>
      </trkpt>
      <trkpt lat="40.1763500" lon="-3.5447640">
        <ele>643.2</ele>
        <time>2021-04-04T09:18:15Z</time>
      </trkpt>
      <trkpt lat="40.1762850" lon="-3.5448000">
        <ele>642.8</ele>
        <time>2021-04-04T09:18:16Z</time>
      </trkpt>
      <trkpt lat="40.1762240" lon="-3.5448330">
        <ele>642.2</ele>
        <time>2021-04-04T09:18:17Z</time>
      </trkpt>
      <trkpt lat="40.1761670" lon="-3.5448660">
        <ele>641.8</ele>
        <time>2021-04-04T09:18:18Z</time>
      </trkpt>
      <trkpt lat="40.1761130" lon="-3.5448950">
        <ele>641.4</ele>
        <time>2021-04-04T09:18:19Z</time>
      </trkpt>
      <trkpt lat="40.1760670" lon="-3.5449210">
        <ele>641.2</ele>
        <time>2021-04-04T09:18:20Z</time>
      </trkpt>
      <trkpt lat="40.1760250" lon="-3.5449440">
        <ele>641.0</ele>
        <time>2021-04-04T09:18:21Z</time>
      </trkpt>
      <trkpt lat="40.1759870" lon="-3.5449620">
        <ele>640.6</ele>
        <time>2021-04-04T09:18:22Z</time>
      </trkpt>
      <trkpt lat="40.1759530" lon="-3.5449750">
        <ele>640.4</ele>
        <time>2021-04-04T09:18:23Z</time>
      </trkpt>
      <trkpt lat="40.1759150" lon="-3.5449860">
        <ele>640.2</ele>
        <time>2021-04-04T09:18:24Z</time>
      </trkpt>
      <trkpt lat="40.1758690" lon="-3.5449960">
        <ele>640.0</ele>
        <time>2021-04-04T09:18:25Z</time>
      </trkpt>
      <trkpt lat="40.1758230" lon="-3.5450050">
        <ele>639.6</ele>
        <time>2021-04-04T09:18:26Z</time>
      </trkpt>
      <trkpt lat="40.1757700" lon="-3.5450130">
        <ele>639.2</ele>
        <time>2021-04-04T09:18:27Z</time>
      </trkpt>
      <trkpt lat="40.1757130" lon="-3.5450220">
        <ele>638.8</ele>
        <time>2021-04-04T09:18:28Z</time>
      </trkpt>
      <trkpt lat="40.1756590" lon="-3.5450330">
        <ele>638.6</ele>
        <time>2021-04-04T09:18:29Z</time>
      </trkpt>
      <trkpt lat="40.1756020" lon="-3.5450490">
        <ele>638.2</ele>
        <time>2021-04-04T09:18:30Z</time>
      </trkpt>
      <trkpt lat="40.1755490" lon="-3.5450710">
        <ele>638.0</ele>
        <time>2021-04-04T09:18:31Z</time>
      </trkpt>
      <trkpt lat="40.1754950" lon="-3.5450990">
        <ele>637.6</ele>
        <time>2021-04-04T09:18:32Z</time>
      </trkpt>
      <trkpt lat="40.1754420" lon="-3.5451330">
        <ele>637.4</ele>
        <time>2021-04-04T09:18:33Z</time>
      </trkpt>
      <trkpt lat="40.1753880" lon="-3.5451690">
        <ele>637.2</ele>
        <time>2021-04-04T09:18:34Z</time>
      </trkpt>
      <trkpt lat="40.1753350" lon="-3.5452050">
        <ele>637.0</ele>
        <time>2021-04-04T09:18:35Z</time>
      </trkpt>
      <trkpt lat="40.1752810" lon="-3.5452370">
        <ele>636.8</ele>
        <time>2021-04-04T09:18:36Z</time>
      </trkpt>
      <trkpt lat="40.1752240" lon="-3.5452630">
        <ele>636.6</ele>
        <time>2021-04-04T09:18:37Z</time>
      </trkpt>
      <trkpt lat="40.1751710" lon="-3.5452810">
        <ele>636.4</ele>
        <time>2021-04-04T09:18:38Z</time>
      </trkpt>
      <trkpt lat="40.1751180" lon="-3.5452960">
        <ele>636.4</ele>
        <time>2021-04-04T09:18:39Z</time>
      </trkpt>
      <trkpt lat="40.1750640" lon="-3.5453160">
        <ele>636.2</ele>
        <time>2021-04-04T09:18:40Z</time>
      </trkpt>
      <trkpt lat="40.1750110" lon="-3.5453420">
        <ele>636.2</ele>
        <time>2021-04-04T09:18:41Z</time>
      </trkpt>
      <trkpt lat="40.1749610" lon="-3.5453790">
        <ele>636.2</ele>
        <time>2021-04-04T09:18:42Z</time>
      </trkpt>
      <trkpt lat="40.1749120" lon="-3.5454220">
        <ele>636.2</ele>
        <time>2021-04-04T09:18:43Z</time>
      </trkpt>
      <trkpt lat="40.1748700" lon="-3.5454660">
        <ele>636.2</ele>
        <time>2021-04-04T09:18:44Z</time>
      </trkpt>
      <trkpt lat="40.1748280" lon="-3.5455110">
        <ele>636.2</ele>
        <time>2021-04-04T09:18:45Z</time>
      </trkpt>
      <trkpt lat="40.1747860" lon="-3.5455550">
        <ele>636.4</ele>
        <time>2021-04-04T09:18:46Z</time>
      </trkpt>
      <trkpt lat="40.1747440" lon="-3.5455980">
        <ele>636.6</ele>
        <time>2021-04-04T09:18:47Z</time>
      </trkpt>
      <trkpt lat="40.1747090" lon="-3.5456410">
        <ele>636.8</ele>
        <time>2021-04-04T09:18:48Z</time>
      </trkpt>
      <trkpt lat="40.1746750" lon="-3.5456840">
        <ele>637.2</ele>
        <time>2021-04-04T09:18:49Z</time>
      </trkpt>
      <trkpt lat="40.1746410" lon="-3.5457300">
        <ele>637.4</ele>
        <time>2021-04-04T09:18:50Z</time>
      </trkpt>
      <trkpt lat="40.1746100" lon="-3.5457770">
        <ele>637.8</ele>
        <time>2021-04-04T09:18:51Z</time>
      </trkpt>
      <trkpt lat="40.1745800" lon="-3.5458240">
        <ele>638.0</ele>
        <time>2021-04-04T09:18:52Z</time>
      </trkpt>
      <trkpt lat="40.1745490" lon="-3.5458730">
        <ele>638.2</ele>
        <time>2021-04-04T09:18:53Z</time>
      </trkpt>
      <trkpt lat="40.1745220" lon="-3.5459260">
        <ele>638.4</ele>
        <time>2021-04-04T09:18:54Z</time>
      </trkpt>
      <trkpt lat="40.1745000" lon="-3.5459800">
        <ele>638.4</ele>
        <time>2021-04-04T09:18:55Z</time>
      </trkpt>
      <trkpt lat="40.1744770" lon="-3.5460390">
        <ele>638.4</ele>
        <time>2021-04-04T09:18:56Z</time>
      </trkpt>
      <trkpt lat="40.1744540" lon="-3.5461020">
        <ele>638.4</ele>
        <time>2021-04-04T09:18:57Z</time>
      </trkpt>
      <trkpt lat="40.1744270" lon="-3.5461680">
        <ele>638.2</ele>
        <time>2021-04-04T09:18:58Z</time>
      </trkpt>
      <trkpt lat="40.1744000" lon="-3.5462370">
        <ele>638.0</ele>
        <time>2021-04-04T09:18:59Z</time>
      </trkpt>
      <trkpt lat="40.1743740" lon="-3.5463070">
        <ele>637.8</ele>
        <time>2021-04-04T09:19:00Z</time>
      </trkpt>
      <trkpt lat="40.1743430" lon="-3.5463740">
        <ele>637.4</ele>
        <time>2021-04-04T09:19:01Z</time>
      </trkpt>
      <trkpt lat="40.1743090" lon="-3.5464380">
        <ele>637.2</ele>
        <time>2021-04-04T09:19:02Z</time>
      </trkpt>
      <trkpt lat="40.1742740" lon="-3.5465070">
        <ele>637.0</ele>
        <time>2021-04-04T09:19:03Z</time>
      </trkpt>
      <trkpt lat="40.1742320" lon="-3.5465730">
        <ele>636.8</ele>
        <time>2021-04-04T09:19:04Z</time>
      </trkpt>
      <trkpt lat="40.1741870" lon="-3.5466350">
        <ele>636.6</ele>
        <time>2021-04-04T09:19:05Z</time>
      </trkpt>
      <trkpt lat="40.1741410" lon="-3.5466960">
        <ele>636.2</ele>
        <time>2021-04-04T09:19:06Z</time>
      </trkpt>
      <trkpt lat="40.1740910" lon="-3.5467570">
        <ele>635.8</ele>
        <time>2021-04-04T09:19:07Z</time>
      </trkpt>
      <trkpt lat="40.1740340" lon="-3.5468190">
        <ele>635.4</ele>
        <time>2021-04-04T09:19:08Z</time>
      </trkpt>
      <trkpt lat="40.1739770" lon="-3.5468830">
        <ele>634.8</ele>
        <time>2021-04-04T09:19:09Z</time>
      </trkpt>
      <trkpt lat="40.1739120" lon="-3.5469470">
        <ele>634.2</ele>
        <time>2021-04-04T09:19:10Z</time>
      </trkpt>
      <trkpt lat="40.1738430" lon="-3.5470150">
        <ele>633.6</ele>
        <time>2021-04-04T09:19:11Z</time>
      </trkpt>
      <trkpt lat="40.1737790" lon="-3.5470900">
        <ele>633.0</ele>
        <time>2021-04-04T09:19:12Z</time>
      </trkpt>
      <trkpt lat="40.1737140" lon="-3.5471720">
        <ele>632.4</ele>
        <time>2021-04-04T09:19:13Z</time>
      </trkpt>
      <trkpt lat="40.1736560" lon="-3.5472590">
        <ele>631.8</ele>
        <time>2021-04-04T09:19:14Z</time>
      </trkpt>
      <trkpt lat="40.1735990" lon="-3.5473470">
        <ele>631.4</ele>
        <time>2021-04-04T09:19:15Z</time>
      </trkpt>
      <trkpt lat="40.1735420" lon="-3.5474350">
        <ele>630.8</ele>
        <time>2021-04-04T09:19:16Z</time>
      </trkpt>
      <trkpt lat="40.1734770" lon="-3.5475220">
        <ele>630.2</ele>
        <time>2021-04-04T09:19:17Z</time>
      </trkpt>
      <trkpt lat="40.1734160" lon="-3.5476080">
        <ele>629.6</ele>
        <time>2021-04-04T09:19:18Z</time>
      </trkpt>
      <trkpt lat="40.1733510" lon="-3.5476930">
        <ele>629.2</ele>
        <time>2021-04-04T09:19:19Z</time>
      </trkpt>
      <trkpt lat="40.1732860" lon="-3.5477780">
        <ele>628.8</ele>
        <time>2021-04-04T09:19:20Z</time>
      </trkpt>
      <trkpt lat="40.1732220" lon="-3.5478620">
        <ele>628.4</ele>
        <time>2021-04-04T09:19:21Z</time>
      </trkpt>
      <trkpt lat="40.1731570" lon="-3.5479370">
        <ele>628.2</ele>
        <time>2021-04-04T09:19:22Z</time>
      </trkpt>
      <trkpt lat="40.1730880" lon="-3.5480020">
        <ele>627.8</ele>
        <time>2021-04-04T09:19:23Z</time>
      </trkpt>
      <trkpt lat="40.1730160" lon="-3.5480570">
        <ele>627.6</ele>
        <time>2021-04-04T09:19:24Z</time>
      </trkpt>
      <trkpt lat="40.1729390" lon="-3.5481020">
        <ele>627.2</ele>
        <time>2021-04-04T09:19:25Z</time>
      </trkpt>
      <trkpt lat="40.1728550" lon="-3.5481390">
        <ele>626.8</ele>
        <time>2021-04-04T09:19:26Z</time>
      </trkpt>
      <trkpt lat="40.1727640" lon="-3.5481660">
        <ele>626.0</ele>
        <time>2021-04-04T09:19:27Z</time>
      </trkpt>
      <trkpt lat="40.1726650" lon="-3.5481900">
        <ele>625.4</ele>
        <time>2021-04-04T09:19:28Z</time>
      </trkpt>
      <trkpt lat="40.1725650" lon="-3.5482190">
        <ele>624.4</ele>
        <time>2021-04-04T09:19:29Z</time>
      </trkpt>
      <trkpt lat="40.1724620" lon="-3.5482640">
        <ele>623.6</ele>
        <time>2021-04-04T09:19:30Z</time>
      </trkpt>
      <trkpt lat="40.1723590" lon="-3.5483180">
        <ele>622.8</ele>
        <time>2021-04-04T09:19:31Z</time>
      </trkpt>
      <trkpt lat="40.1722640" lon="-3.5483760">
        <ele>622.0</ele>
        <time>2021-04-04T09:19:32Z</time>
      </trkpt>
      <trkpt lat="40.1721690" lon="-3.5484390">
        <ele>621.4</ele>
        <time>2021-04-04T09:19:33Z</time>
      </trkpt>
      <trkpt lat="40.1720810" lon="-3.5485080">
        <ele>620.8</ele>
        <time>2021-04-04T09:19:34Z</time>
      </trkpt>
      <trkpt lat="40.1719970" lon="-3.5485880">
        <ele>620.4</ele>
        <time>2021-04-04T09:19:35Z</time>
      </trkpt>
      <trkpt lat="40.1719280" lon="-3.5486680">
        <ele>619.8</ele>
        <time>2021-04-04T09:19:36Z</time>
      </trkpt>
      <trkpt lat="40.1718600" lon="-3.5487460">
        <ele>619.6</ele>
        <time>2021-04-04T09:19:37Z</time>
      </trkpt>
      <trkpt lat="40.1717870" lon="-3.5488240">
        <ele>619.4</ele>
        <time>2021-04-04T09:19:38Z</time>
      </trkpt>
      <trkpt lat="40.1717150" lon="-3.5488990">
        <ele>619.2</ele>
        <time>2021-04-04T09:19:39Z</time>
      </trkpt>
      <trkpt lat="40.1716420" lon="-3.5489770">
        <ele>619.0</ele>
        <time>2021-04-04T09:19:40Z</time>
      </trkpt>
      <trkpt lat="40.1715660" lon="-3.5490570">
        <ele>618.8</ele>
        <time>2021-04-04T09:19:41Z</time>
      </trkpt>
      <trkpt lat="40.1714900" lon="-3.5491350">
        <ele>618.4</ele>
        <time>2021-04-04T09:19:42Z</time>
      </trkpt>
      <trkpt lat="40.1714170" lon="-3.5492190">
        <ele>618.2</ele>
        <time>2021-04-04T09:19:43Z</time>
      </trkpt>
      <trkpt lat="40.1713410" lon="-3.5493110">
        <ele>618.0</ele>
        <time>2021-04-04T09:19:44Z</time>
      </trkpt>
      <trkpt lat="40.1712650" lon="-3.5493960">
        <ele>617.6</ele>
        <time>2021-04-04T09:19:45Z</time>
      </trkpt>
      <trkpt lat="40.1711850" lon="-3.5494770">
        <ele>617.6</ele>
        <time>2021-04-04T09:19:46Z</time>
      </trkpt>
      <trkpt lat="40.1711040" lon="-3.5495600">
        <ele>617.4</ele>
        <time>2021-04-04T09:19:47Z</time>
      </trkpt>
      <trkpt lat="40.1710240" lon="-3.5496410">
        <ele>617.0</ele>
        <time>2021-04-04T09:19:48Z</time>
      </trkpt>
      <trkpt lat="40.1709480" lon="-3.5497180">
        <ele>617.0</ele>
        <time>2021-04-04T09:19:49Z</time>
      </trkpt>
      <trkpt lat="40.1708760" lon="-3.5497880">
        <ele>616.8</ele>
        <time>2021-04-04T09:19:50Z</time>
      </trkpt>
      <trkpt lat="40.1707990" lon="-3.5498590">
        <ele>616.6</ele>
        <time>2021-04-04T09:19:51Z</time>
      </trkpt>
      <trkpt lat="40.1707310" lon="-3.5499290">
        <ele>616.6</ele>
        <time>2021-04-04T09:19:52Z</time>
      </trkpt>
      <trkpt lat="40.1706700" lon="-3.5499960">
        <ele>616.8</ele>
        <time>2021-04-04T09:19:53Z</time>
      </trkpt>
      <trkpt lat="40.1706160" lon="-3.5500590">
        <ele>617.0</ele>
        <time>2021-04-04T09:19:54Z</time>
      </trkpt>
      <trkpt lat="40.1705700" lon="-3.5501250">
        <ele>617.4</ele>
        <time>2021-04-04T09:19:55Z</time>
      </trkpt>
      <trkpt lat="40.1705210" lon="-3.5501920">
        <ele>617.6</ele>
        <time>2021-04-04T09:19:56Z</time>
      </trkpt>
      <trkpt lat="40.1704790" lon="-3.5502600">
        <ele>617.8</ele>
        <time>2021-04-04T09:19:57Z</time>
      </trkpt>
      <trkpt lat="40.1704410" lon="-3.5503270">
        <ele>618.0</ele>
        <time>2021-04-04T09:19:58Z</time>
      </trkpt>
      <trkpt lat="40.1704060" lon="-3.5503930">
        <ele>618.2</ele>
        <time>2021-04-04T09:19:59Z</time>
      </trkpt>
      <trkpt lat="40.1703680" lon="-3.5504580">
        <ele>618.4</ele>
        <time>2021-04-04T09:20:00Z</time>
      </trkpt>
      <trkpt lat="40.1703260" lon="-3.5505220">
        <ele>618.4</ele>
        <time>2021-04-04T09:20:01Z</time>
      </trkpt>
      <trkpt lat="40.1702880" lon="-3.5505830">
        <ele>618.6</ele>
        <time>2021-04-04T09:20:02Z</time>
      </trkpt>
      <trkpt lat="40.1702500" lon="-3.5506420">
        <ele>618.6</ele>
        <time>2021-04-04T09:20:03Z</time>
      </trkpt>
      <trkpt lat="40.1702160" lon="-3.5507040">
        <ele>618.8</ele>
        <time>2021-04-04T09:20:04Z</time>
      </trkpt>
      <trkpt lat="40.1701810" lon="-3.5507640">
        <ele>619.0</ele>
        <time>2021-04-04T09:20:05Z</time>
      </trkpt>
      <trkpt lat="40.1701470" lon="-3.5508200">
        <ele>619.0</ele>
        <time>2021-04-04T09:20:06Z</time>
      </trkpt>
      <trkpt lat="40.1701090" lon="-3.5508740">
        <ele>619.2</ele>
        <time>2021-04-04T09:20:07Z</time>
      </trkpt>
      <trkpt lat="40.1700780" lon="-3.5509270">
        <ele>619.4</ele>
        <time>2021-04-04T09:20:08Z</time>
      </trkpt>
      <trkpt lat="40.1700480" lon="-3.5509770">
        <ele>619.6</ele>
        <time>2021-04-04T09:20:09Z</time>
      </trkpt>
      <trkpt lat="40.1700130" lon="-3.5510210">
        <ele>619.8</ele>
        <time>2021-04-04T09:20:10Z</time>
      </trkpt>
      <trkpt lat="40.1699790" lon="-3.5510600">
        <ele>619.8</ele>
        <time>2021-04-04T09:20:11Z</time>
      </trkpt>
      <trkpt lat="40.1699490" lon="-3.5510960">
        <ele>620.0</ele>
        <time>2021-04-04T09:20:12Z</time>
      </trkpt>
      <trkpt lat="40.1699140" lon="-3.5511290">
        <ele>620.0</ele>
        <time>2021-04-04T09:20:13Z</time>
      </trkpt>
      <trkpt lat="40.1698760" lon="-3.5511550">
        <ele>620.0</ele>
        <time>2021-04-04T09:20:14Z</time>
      </trkpt>
      <trkpt lat="40.1698380" lon="-3.5511750">
        <ele>620.0</ele>
        <time>2021-04-04T09:20:15Z</time>
      </trkpt>
      <trkpt lat="40.1698000" lon="-3.5511920">
        <ele>620.0</ele>
        <time>2021-04-04T09:20:16Z</time>
      </trkpt>
      <trkpt lat="40.1697620" lon="-3.5512090">
        <ele>619.8</ele>
        <time>2021-04-04T09:20:17Z</time>
      </trkpt>
      <trkpt lat="40.1697240" lon="-3.5512270">
        <ele>619.8</ele>
        <time>2021-04-04T09:20:18Z</time>
      </trkpt>
      <trkpt lat="40.1696780" lon="-3.5512460">
        <ele>619.6</ele>
        <time>2021-04-04T09:20:19Z</time>
      </trkpt>
      <trkpt lat="40.1696320" lon="-3.5512650">
        <ele>619.4</ele>
        <time>2021-04-04T09:20:20Z</time>
      </trkpt>
      <trkpt lat="40.1695820" lon="-3.5512830">
        <ele>619.2</ele>
        <time>2021-04-04T09:20:21Z</time>
      </trkpt>
      <trkpt lat="40.1695250" lon="-3.5513020">
        <ele>618.8</ele>
        <time>2021-04-04T09:20:22Z</time>
      </trkpt>
      <trkpt lat="40.1694600" lon="-3.5513270">
        <ele>618.4</ele>
        <time>2021-04-04T09:20:23Z</time>
      </trkpt>
      <trkpt lat="40.1693950" lon="-3.5513540">
        <ele>617.8</ele>
        <time>2021-04-04T09:20:24Z</time>
      </trkpt>
      <trkpt lat="40.1693270" lon="-3.5513830">
        <ele>617.4</ele>
        <time>2021-04-04T09:20:25Z</time>
      </trkpt>
      <trkpt lat="40.1692540" lon="-3.5514140">
        <ele>616.8</ele>
        <time>2021-04-04T09:20:26Z</time>
      </trkpt>
      <trkpt lat="40.1691780" lon="-3.5514460">
        <ele>616.2</ele>
        <time>2021-04-04T09:20:27Z</time>
      </trkpt>
      <trkpt lat="40.1691020" lon="-3.5514790">
        <ele>615.8</ele>
        <time>2021-04-04T09:20:28Z</time>
      </trkpt>
      <trkpt lat="40.1690290" lon="-3.5515100">
        <ele>615.2</ele>
        <time>2021-04-04T09:20:29Z</time>
      </trkpt>
      <trkpt lat="40.1689530" lon="-3.5515390">
        <ele>615.0</ele>
        <time>2021-04-04T09:20:30Z</time>
      </trkpt>
      <trkpt lat="40.1688800" lon="-3.5515710">
        <ele>614.6</ele>
        <time>2021-04-04T09:20:31Z</time>
      </trkpt>
      <trkpt lat="40.1688080" lon="-3.5516100">
        <ele>614.4</ele>
        <time>2021-04-04T09:20:32Z</time>
      </trkpt>
      <trkpt lat="40.1687390" lon="-3.5516530">
        <ele>614.0</ele>
        <time>2021-04-04T09:20:33Z</time>
      </trkpt>
      <trkpt lat="40.1686780" lon="-3.5516990">
        <ele>613.8</ele>
        <time>2021-04-04T09:20:34Z</time>
      </trkpt>
      <trkpt lat="40.1686210" lon="-3.5517530">
        <ele>613.8</ele>
        <time>2021-04-04T09:20:35Z</time>
      </trkpt>
      <trkpt lat="40.1685710" lon="-3.5518150">
        <ele>613.4</ele>
        <time>2021-04-04T09:20:36Z</time>
      </trkpt>
      <trkpt lat="40.1685260" lon="-3.5518830">
        <ele>613.2</ele>
        <time>2021-04-04T09:20:37Z</time>
      </trkpt>
      <trkpt lat="40.1684910" lon="-3.5519610">
        <ele>613.0</ele>
        <time>2021-04-04T09:20:38Z</time>
      </trkpt>
      <trkpt lat="40.1684570" lon="-3.5520460">
        <ele>612.8</ele>
        <time>2021-04-04T09:20:39Z</time>
      </trkpt>
      <trkpt lat="40.1684340" lon="-3.5521330">
        <ele>612.4</ele>
        <time>2021-04-04T09:20:40Z</time>
      </trkpt>
      <trkpt lat="40.1684150" lon="-3.5522180">
        <ele>612.2</ele>
        <time>2021-04-04T09:20:41Z</time>
      </trkpt>
      <trkpt lat="40.1683960" lon="-3.5523050">
        <ele>612.0</ele>
        <time>2021-04-04T09:20:42Z</time>
      </trkpt>
      <trkpt lat="40.1683770" lon="-3.5523900">
        <ele>612.0</ele>
        <time>2021-04-04T09:20:43Z</time>
      </trkpt>
      <trkpt lat="40.1683540" lon="-3.5524730">
        <ele>611.8</ele>
        <time>2021-04-04T09:20:44Z</time>
      </trkpt>
      <trkpt lat="40.1683270" lon="-3.5525520">
        <ele>611.6</ele>
        <time>2021-04-04T09:20:45Z</time>
      </trkpt>
      <trkpt lat="40.1683010" lon="-3.5526290">
        <ele>611.6</ele>
        <time>2021-04-04T09:20:46Z</time>
      </trkpt>
      <trkpt lat="40.1682740" lon="-3.5527040">
        <ele>611.6</ele>
        <time>2021-04-04T09:20:47Z</time>
      </trkpt>
      <trkpt lat="40.1682510" lon="-3.5527760">
        <ele>611.6</ele>
        <time>2021-04-04T09:20:48Z</time>
      </trkpt>
      <trkpt lat="40.1682320" lon="-3.5528430">
        <ele>611.8</ele>
        <time>2021-04-04T09:20:49Z</time>
      </trkpt>
      <trkpt lat="40.1682170" lon="-3.5529080">
        <ele>611.8</ele>
        <time>2021-04-04T09:20:50Z</time>
      </trkpt>
      <trkpt lat="40.1682050" lon="-3.5529690">
        <ele>612.0</ele>
        <time>2021-04-04T09:20:51Z</time>
      </trkpt>
      <trkpt lat="40.1681940" lon="-3.5530300">
        <ele>612.0</ele>
        <time>2021-04-04T09:20:52Z</time>
      </trkpt>
      <trkpt lat="40.1681900" lon="-3.5530900">
        <ele>612.0</ele>
        <time>2021-04-04T09:20:53Z</time>
      </trkpt>
      <trkpt lat="40.1681940" lon="-3.5531510">
        <ele>612.2</ele>
        <time>2021-04-04T09:20:54Z</time>
      </trkpt>
      <trkpt lat="40.1682010" lon="-3.5532160">
        <ele>612.0</ele>
        <time>2021-04-04T09:20:55Z</time>
      </trkpt>
      <trkpt lat="40.1682050" lon="-3.5532830">
        <ele>611.8</ele>
        <time>2021-04-04T09:20:56Z</time>
      </trkpt>
      <trkpt lat="40.1682090" lon="-3.5533540">
        <ele>611.6</ele>
        <time>2021-04-04T09:20:57Z</time>
      </trkpt>
      <trkpt lat="40.1682050" lon="-3.5534290">
        <ele>611.0</ele>
        <time>2021-04-04T09:20:58Z</time>
      </trkpt>
      <trkpt lat="40.1681980" lon="-3.5535080">
        <ele>610.6</ele>
        <time>2021-04-04T09:20:59Z</time>
      </trkpt>
      <trkpt lat="40.1681820" lon="-3.5535890">
        <ele>610.0</ele>
        <time>2021-04-04T09:21:00Z</time>
      </trkpt>
      <trkpt lat="40.1681590" lon="-3.5536690">
        <ele>609.4</ele>
        <time>2021-04-04T09:21:01Z</time>
      </trkpt>
      <trkpt lat="40.1681250" lon="-3.5537460">
        <ele>608.8</ele>
        <time>2021-04-04T09:21:02Z</time>
      </trkpt>
      <trkpt lat="40.1680790" lon="-3.5538210">
        <ele>608.2</ele>
        <time>2021-04-04T09:21:03Z</time>
      </trkpt>
      <trkpt lat="40.1680220" lon="-3.5538880">
        <ele>607.4</ele>
        <time>2021-04-04T09:21:04Z</time>
      </trkpt>
      <trkpt lat="40.1679610" lon="-3.5539530">
        <ele>606.8</ele>
        <time>2021-04-04T09:21:05Z</time>
      </trkpt>
      <trkpt lat="40.1678920" lon="-3.5540160">
        <ele>606.2</ele>
        <time>2021-04-04T09:21:06Z</time>
      </trkpt>
      <trkpt lat="40.1678200" lon="-3.5540750">
        <ele>605.4</ele>
        <time>2021-04-04T09:21:07Z</time>
      </trkpt>
      <trkpt lat="40.1677470" lon="-3.5541310">
        <ele>605.0</ele>
        <time>2021-04-04T09:21:08Z</time>
      </trkpt>
      <trkpt lat="40.1676750" lon="-3.5541850">
        <ele>604.6</ele>
        <time>2021-04-04T09:21:09Z</time>
      </trkpt>
      <trkpt lat="40.1675990" lon="-3.5542320">
        <ele>604.2</ele>
        <time>2021-04-04T09:21:10Z</time>
      </trkpt>
      <trkpt lat="40.1675220" lon="-3.5542760">
        <ele>604.0</ele>
        <time>2021-04-04T09:21:11Z</time>
      </trkpt>
      <trkpt lat="40.1674460" lon="-3.5543160">
        <ele>603.6</ele>
        <time>2021-04-04T09:21:12Z</time>
      </trkpt>
      <trkpt lat="40.1673740" lon="-3.5543520">
        <ele>603.4</ele>
        <time>2021-04-04T09:21:13Z</time>
      </trkpt>
      <trkpt lat="40.1672970" lon="-3.5543850">
        <ele>603.4</ele>
        <time>2021-04-04T09:21:14Z</time>
      </trkpt>
      <trkpt lat="40.1672250" lon="-3.5544190">
        <ele>603.2</ele>
        <time>2021-04-04T09:21:15Z</time>
      </trkpt>
      <trkpt lat="40.1671600" lon="-3.5544570">
        <ele>603.2</ele>
        <time>2021-04-04T09:21:16Z</time>
      </trkpt>
      <trkpt lat="40.1670990" lon="-3.5544980">
        <ele>603.0</ele>
        <time>2021-04-04T09:21:17Z</time>
      </trkpt>
      <trkpt lat="40.1670340" lon="-3.5545430">
        <ele>603.0</ele>
        <time>2021-04-04T09:21:18Z</time>
      </trkpt>
      <trkpt lat="40.1669770" lon="-3.5545910">
        <ele>602.8</ele>
        <time>2021-04-04T09:21:19Z</time>
      </trkpt>
      <trkpt lat="40.1669200" lon="-3.5546380">
        <ele>602.6</ele>
        <time>2021-04-04T09:21:20Z</time>
      </trkpt>
      <trkpt lat="40.1668660" lon="-3.5546800">
        <ele>602.6</ele>
        <time>2021-04-04T09:21:21Z</time>
      </trkpt>
      <trkpt lat="40.1668170" lon="-3.5547200">
        <ele>602.4</ele>
        <time>2021-04-04T09:21:22Z</time>
      </trkpt>
      <trkpt lat="40.1667710" lon="-3.5547580">
        <ele>602.4</ele>
        <time>2021-04-04T09:21:23Z</time>
      </trkpt>
      <trkpt lat="40.1667250" lon="-3.5547960">
        <ele>602.4</ele>
        <time>2021-04-04T09:21:24Z</time>
      </trkpt>
      <trkpt lat="40.1666830" lon="-3.5548320">
        <ele>602.4</ele>
        <time>2021-04-04T09:21:25Z</time>
      </trkpt>
      <trkpt lat="40.1666410" lon="-3.5548660">
        <ele>602.6</ele>
        <time>2021-04-04T09:21:26Z</time>
      </trkpt>
      <trkpt lat="40.1665990" lon="-3.5548990">
        <ele>602.6</ele>
        <time>2021-04-04T09:21:27Z</time>
      </trkpt>
      <trkpt lat="40.1665570" lon="-3.5549340">
        <ele>602.6</ele>
        <time>2021-04-04T09:21:28Z</time>
      </trkpt>
      <trkpt lat="40.1665190" lon="-3.5549720">
        <ele>602.8</ele>
        <time>2021-04-04T09:21:29Z</time>
      </trkpt>
      <trkpt lat="40.1664810" lon="-3.5550110">
        <ele>603.0</ele>
        <time>2021-04-04T09:21:30Z</time>
      </trkpt>
      <trkpt lat="40.1664430" lon="-3.5550470">
        <ele>603.2</ele>
        <time>2021-04-04T09:21:31Z</time>
      </trkpt>
      <trkpt lat="40.1664090" lon="-3.5550800">
        <ele>603.2</ele>
        <time>2021-04-04T09:21:32Z</time>
      </trkpt>
      <trkpt lat="40.1663740" lon="-3.5551090">
        <ele>603.4</ele>
        <time>2021-04-04T09:21:33Z</time>
      </trkpt>
      <trkpt lat="40.1663440" lon="-3.5551340">
        <ele>603.6</ele>
        <time>2021-04-04T09:21:34Z</time>
      </trkpt>
      <trkpt lat="40.1663090" lon="-3.5551600">
        <ele>603.8</ele>
        <time>2021-04-04T09:21:35Z</time>
      </trkpt>
      <trkpt lat="40.1662790" lon="-3.5551850">
        <ele>603.8</ele>
        <time>2021-04-04T09:21:36Z</time>
      </trkpt>
      <trkpt lat="40.1662480" lon="-3.5552060">
        <ele>603.6</ele>
        <time>2021-04-04T09:21:37Z</time>
      </trkpt>
      <trkpt lat="40.1662140" lon="-3.5552250">
        <ele>603.6</ele>
        <time>2021-04-04T09:21:38Z</time>
      </trkpt>
      <trkpt lat="40.1661760" lon="-3.5552430">
        <ele>603.4</ele>
        <time>2021-04-04T09:21:39Z</time>
      </trkpt>
      <trkpt lat="40.1661340" lon="-3.5552580">
        <ele>603.0</ele>
        <time>2021-04-04T09:21:40Z</time>
      </trkpt>
      <trkpt lat="40.1660840" lon="-3.5552680">
        <ele>602.6</ele>
        <time>2021-04-04T09:21:41Z</time>
      </trkpt>
      <trkpt lat="40.1660270" lon="-3.5552730">
        <ele>602.2</ele>
        <time>2021-04-04T09:21:42Z</time>
      </trkpt>
      <trkpt lat="40.1659700" lon="-3.5552750">
        <ele>601.8</ele>
        <time>2021-04-04T09:21:43Z</time>
      </trkpt>
      <trkpt lat="40.1659050" lon="-3.5552760">
        <ele>601.2</ele>
        <time>2021-04-04T09:21:44Z</time>
      </trkpt>
      <trkpt lat="40.1658400" lon="-3.5552770">
        <ele>600.6</ele>
        <time>2021-04-04T09:21:45Z</time>
      </trkpt>
      <trkpt lat="40.1657710" lon="-3.5552750">
        <ele>600.0</ele>
        <time>2021-04-04T09:21:46Z</time>
      </trkpt>
      <trkpt lat="40.1656990" lon="-3.5552720">
        <ele>599.4</ele>
        <time>2021-04-04T09:21:47Z</time>
      </trkpt>
      <trkpt lat="40.1656230" lon="-3.5552700">
        <ele>599.0</ele>
        <time>2021-04-04T09:21:48Z</time>
      </trkpt>
      <trkpt lat="40.1655460" lon="-3.5552710">
        <ele>598.6</ele>
        <time>2021-04-04T09:21:49Z</time>
      </trkpt>
      <trkpt lat="40.1654740" lon="-3.5552750">
        <ele>598.2</ele>
        <time>2021-04-04T09:21:50Z</time>
      </trkpt>
      <trkpt lat="40.1654050" lon="-3.5552790">
        <ele>598.0</ele>
        <time>2021-04-04T09:21:51Z</time>
      </trkpt>
      <trkpt lat="40.1653400" lon="-3.5552840">
        <ele>597.8</ele>
        <time>2021-04-04T09:21:52Z</time>
      </trkpt>
      <trkpt lat="40.1652720" lon="-3.5552900">
        <ele>597.8</ele>
        <time>2021-04-04T09:21:53Z</time>
      </trkpt>
      <trkpt lat="40.1652030" lon="-3.5553000">
        <ele>598.0</ele>
        <time>2021-04-04T09:21:54Z</time>
      </trkpt>
      <trkpt lat="40.1651420" lon="-3.5553170">
        <ele>598.2</ele>
        <time>2021-04-04T09:21:55Z</time>
      </trkpt>
      <trkpt lat="40.1650890" lon="-3.5553430">
        <ele>598.2</ele>
        <time>2021-04-04T09:21:56Z</time>
      </trkpt>
      <trkpt lat="40.1650390" lon="-3.5553770">
        <ele>598.2</ele>
        <time>2021-04-04T09:21:57Z</time>
      </trkpt>
      <trkpt lat="40.1649900" lon="-3.5554230">
        <ele>598.0</ele>
        <time>2021-04-04T09:21:58Z</time>
      </trkpt>
      <trkpt lat="40.1649360" lon="-3.5554810">
        <ele>597.6</ele>
        <time>2021-04-04T09:21:59Z</time>
      </trkpt>
      <trkpt lat="40.1648790" lon="-3.5555460">
        <ele>597.2</ele>
        <time>2021-04-04T09:22:00Z</time>
      </trkpt>
      <trkpt lat="40.1648180" lon="-3.5556110">
        <ele>596.4</ele>
        <time>2021-04-04T09:22:01Z</time>
      </trkpt>
      <trkpt lat="40.1647490" lon="-3.5556720">
        <ele>595.8</ele>
        <time>2021-04-04T09:22:02Z</time>
      </trkpt>
      <trkpt lat="40.1646730" lon="-3.5557290">
        <ele>595.0</ele>
        <time>2021-04-04T09:22:03Z</time>
      </trkpt>
      <trkpt lat="40.1645970" lon="-3.5557760">
        <ele>594.4</ele>
        <time>2021-04-04T09:22:04Z</time>
      </trkpt>
      <trkpt lat="40.1645200" lon="-3.5558110">
        <ele>594.0</ele>
        <time>2021-04-04T09:22:05Z</time>
      </trkpt>
      <trkpt lat="40.1644400" lon="-3.5558380">
        <ele>593.6</ele>
        <time>2021-04-04T09:22:06Z</time>
      </trkpt>
      <trkpt lat="40.1643560" lon="-3.5558530">
        <ele>593.2</ele>
        <time>2021-04-04T09:22:07Z</time>
      </trkpt>
      <trkpt lat="40.1642760" lon="-3.5558530">
        <ele>593.0</ele>
        <time>2021-04-04T09:22:08Z</time>
      </trkpt>
      <trkpt lat="40.1642040" lon="-3.5558370">
        <ele>592.8</ele>
        <time>2021-04-04T09:22:09Z</time>
      </trkpt>
      <trkpt lat="40.1641310" lon="-3.5558170">
        <ele>592.8</ele>
        <time>2021-04-04T09:22:10Z</time>
      </trkpt>
      <trkpt lat="40.1640590" lon="-3.5558010">
        <ele>592.8</ele>
        <time>2021-04-04T09:22:11Z</time>
      </trkpt>
      <trkpt lat="40.1639900" lon="-3.5557890">
        <ele>593.0</ele>
        <time>2021-04-04T09:22:12Z</time>
      </trkpt>
      <trkpt lat="40.1639210" lon="-3.5557780">
        <ele>593.0</ele>
        <time>2021-04-04T09:22:13Z</time>
      </trkpt>
      <trkpt lat="40.1638570" lon="-3.5557620">
        <ele>593.0</ele>
        <time>2021-04-04T09:22:14Z</time>
      </trkpt>
      <trkpt lat="40.1637880" lon="-3.5557430">
        <ele>592.8</ele>
        <time>2021-04-04T09:22:15Z</time>
      </trkpt>
      <trkpt lat="40.1637190" lon="-3.5557250">
        <ele>592.6</ele>
        <time>2021-04-04T09:22:16Z</time>
      </trkpt>
      <trkpt lat="40.1636470" lon="-3.5557070">
        <ele>592.4</ele>
        <time>2021-04-04T09:22:17Z</time>
      </trkpt>
      <trkpt lat="40.1635740" lon="-3.5556900">
        <ele>592.2</ele>
        <time>2021-04-04T09:22:18Z</time>
      </trkpt>
      <trkpt lat="40.1634980" lon="-3.5556750">
        <ele>591.8</ele>
        <time>2021-04-04T09:22:19Z</time>
      </trkpt>
      <trkpt lat="40.1634180" lon="-3.5556620">
        <ele>591.6</ele>
        <time>2021-04-04T09:22:20Z</time>
      </trkpt>
      <trkpt lat="40.1633420" lon="-3.5556500">
        <ele>591.2</ele>
        <time>2021-04-04T09:22:21Z</time>
      </trkpt>
      <trkpt lat="40.1632690" lon="-3.5556390">
        <ele>590.8</ele>
        <time>2021-04-04T09:22:22Z</time>
      </trkpt>
      <trkpt lat="40.1631930" lon="-3.5556290">
        <ele>590.4</ele>
        <time>2021-04-04T09:22:23Z</time>
      </trkpt>
      <trkpt lat="40.1631200" lon="-3.5556250">
        <ele>589.8</ele>
        <time>2021-04-04T09:22:24Z</time>
      </trkpt>
      <trkpt lat="40.1630440" lon="-3.5556270">
        <ele>589.2</ele>
        <time>2021-04-04T09:22:25Z</time>
      </trkpt>
      <trkpt lat="40.1629680" lon="-3.5556330">
        <ele>588.6</ele>
        <time>2021-04-04T09:22:26Z</time>
      </trkpt>
      <trkpt lat="40.1628910" lon="-3.5556420">
        <ele>588.2</ele>
        <time>2021-04-04T09:22:27Z</time>
      </trkpt>
      <trkpt lat="40.1628150" lon="-3.5556520">
        <ele>587.6</ele>
        <time>2021-04-04T09:22:28Z</time>
      </trkpt>
      <trkpt lat="40.1627390" lon="-3.5556660">
        <ele>587.0</ele>
        <time>2021-04-04T09:22:29Z</time>
      </trkpt>
      <trkpt lat="40.1626590" lon="-3.5556840">
        <ele>586.6</ele>
        <time>2021-04-04T09:22:30Z</time>
      </trkpt>
      <trkpt lat="40.1625860" lon="-3.5557020">
        <ele>586.4</ele>
        <time>2021-04-04T09:22:31Z</time>
      </trkpt>
      <trkpt lat="40.1625140" lon="-3.5557210">
        <ele>586.0</ele>
        <time>2021-04-04T09:22:32Z</time>
      </trkpt>
      <trkpt lat="40.1624410" lon="-3.5557450">
        <ele>585.8</ele>
        <time>2021-04-04T09:22:33Z</time>
      </trkpt>
      <trkpt lat="40.1623730" lon="-3.5557740">
        <ele>585.6</ele>
        <time>2021-04-04T09:22:34Z</time>
      </trkpt>
      <trkpt lat="40.1623080" lon="-3.5558070">
        <ele>585.4</ele>
        <time>2021-04-04T09:22:35Z</time>
      </trkpt>
      <trkpt lat="40.1622470" lon="-3.5558450">
        <ele>585.2</ele>
        <time>2021-04-04T09:22:36Z</time>
      </trkpt>
      <trkpt lat="40.1621860" lon="-3.5558850">
        <ele>585.0</ele>
        <time>2021-04-04T09:22:37Z</time>
      </trkpt>
      <trkpt lat="40.1621280" lon="-3.5559220">
        <ele>585.0</ele>
        <time>2021-04-04T09:22:38Z</time>
      </trkpt>
      <trkpt lat="40.1620710" lon="-3.5559560">
        <ele>585.2</ele>
        <time>2021-04-04T09:22:39Z</time>
      </trkpt>
      <trkpt lat="40.1620180" lon="-3.5559880">
        <ele>585.2</ele>
        <time>2021-04-04T09:22:40Z</time>
      </trkpt>
      <trkpt lat="40.1619640" lon="-3.5560130">
        <ele>585.4</ele>
        <time>2021-04-04T09:22:41Z</time>
      </trkpt>
      <trkpt lat="40.1619150" lon="-3.5560340">
        <ele>585.8</ele>
        <time>2021-04-04T09:22:42Z</time>
      </trkpt>
      <trkpt lat="40.1618730" lon="-3.5560520">
        <ele>586.0</ele>
        <time>2021-04-04T09:22:43Z</time>
      </trkpt>
      <trkpt lat="40.1618310" lon="-3.5560650">
        <ele>586.4</ele>
        <time>2021-04-04T09:22:44Z</time>
      </trkpt>
      <trkpt lat="40.1617890" lon="-3.5560710">
        <ele>586.4</ele>
        <time>2021-04-04T09:22:45Z</time>
      </trkpt>
      <trkpt lat="40.1617390" lon="-3.5560740">
        <ele>586.4</ele>
        <time>2021-04-04T09:22:46Z</time>
      </trkpt>
      <trkpt lat="40.1616900" lon="-3.5560720">
        <ele>586.4</ele>
        <time>2021-04-04T09:22:47Z</time>
      </trkpt>
      <trkpt lat="40.1616360" lon="-3.5560630">
        <ele>586.2</ele>
        <time>2021-04-04T09:22:48Z</time>
      </trkpt>
      <trkpt lat="40.1615790" lon="-3.5560490">
        <ele>586.0</ele>
        <time>2021-04-04T09:22:49Z</time>
      </trkpt>
      <trkpt lat="40.1615180" lon="-3.5560330">
        <ele>585.6</ele>
        <time>2021-04-04T09:22:50Z</time>
      </trkpt>
      <trkpt lat="40.1614530" lon="-3.5560100">
        <ele>585.4</ele>
        <time>2021-04-04T09:22:51Z</time>
      </trkpt>
      <trkpt lat="40.1613960" lon="-3.5559730">
        <ele>585.2</ele>
        <time>2021-04-04T09:22:52Z</time>
      </trkpt>
      <trkpt lat="40.1613430" lon="-3.5559280">
        <ele>584.8</ele>
        <time>2021-04-04T09:22:53Z</time>
      </trkpt>
      <trkpt lat="40.1612850" lon="-3.5558780">
        <ele>584.8</ele>
        <time>2021-04-04T09:22:54Z</time>
      </trkpt>
      <trkpt lat="40.1612320" lon="-3.5558280">
        <ele>584.8</ele>
        <time>2021-04-04T09:22:55Z</time>
      </trkpt>
      <trkpt lat="40.1611820" lon="-3.5557770">
        <ele>584.8</ele>
        <time>2021-04-04T09:22:56Z</time>
      </trkpt>
      <trkpt lat="40.1611290" lon="-3.5557260">
        <ele>585.0</ele>
        <time>2021-04-04T09:22:57Z</time>
      </trkpt>
      <trkpt lat="40.1610790" lon="-3.5556770">
        <ele>585.2</ele>
        <time>2021-04-04T09:22:58Z</time>
      </trkpt>
      <trkpt lat="40.1610260" lon="-3.5556340">
        <ele>585.4</ele>
        <time>2021-04-04T09:22:59Z</time>
      </trkpt>
      <trkpt lat="40.1609690" lon="-3.5555990">
        <ele>585.8</ele>
        <time>2021-04-04T09:23:00Z</time>
      </trkpt>
      <trkpt lat="40.1609120" lon="-3.5555740">
        <ele>586.0</ele>
        <time>2021-04-04T09:23:01Z</time>
      </trkpt>
      <trkpt lat="40.1608540" lon="-3.5555580">
        <ele>586.4</ele>
        <time>2021-04-04T09:23:02Z</time>
      </trkpt>
      <trkpt lat="40.1607970" lon="-3.5555500">
        <ele>586.6</ele>
        <time>2021-04-04T09:23:03Z</time>
      </trkpt>
      <trkpt lat="40.1607400" lon="-3.5555450">
        <ele>587.0</ele>
        <time>2021-04-04T09:23:04Z</time>
      </trkpt>
      <trkpt lat="40.1606830" lon="-3.5555380">
        <ele>587.2</ele>
        <time>2021-04-04T09:23:05Z</time>
      </trkpt>
      <trkpt lat="40.1606290" lon="-3.5555260">
        <ele>587.4</ele>
        <time>2021-04-04T09:23:06Z</time>
      </trkpt>
      <trkpt lat="40.1605720" lon="-3.5555090">
        <ele>587.6</ele>
        <time>2021-04-04T09:23:07Z</time>
      </trkpt>
      <trkpt lat="40.1605150" lon="-3.5554960">
        <ele>587.8</ele>
        <time>2021-04-04T09:23:08Z</time>
      </trkpt>
      <trkpt lat="40.1604580" lon="-3.5554850">
        <ele>587.8</ele>
        <time>2021-04-04T09:23:09Z</time>
      </trkpt>
      <trkpt lat="40.1604040" lon="-3.5554830">
        <ele>587.8</ele>
        <time>2021-04-04T09:23:10Z</time>
      </trkpt>
      <trkpt lat="40.1603470" lon="-3.5554980">
        <ele>588.0</ele>
        <time>2021-04-04T09:23:11Z</time>
      </trkpt>
      <trkpt lat="40.1602940" lon="-3.5555260">
        <ele>588.0</ele>
        <time>2021-04-04T09:23:12Z</time>
      </trkpt>
      <trkpt lat="40.1602440" lon="-3.5555570">
        <ele>588.2</ele>
        <time>2021-04-04T09:23:13Z</time>
      </trkpt>
      <trkpt lat="40.1601940" lon="-3.5555860">
        <ele>588.4</ele>
        <time>2021-04-04T09:23:14Z</time>
      </trkpt>
      <trkpt lat="40.1601450" lon="-3.5556130">
        <ele>588.6</ele>
        <time>2021-04-04T09:23:15Z</time>
      </trkpt>
      <trkpt lat="40.1600990" lon="-3.5556370">
        <ele>588.8</ele>
        <time>2021-04-04T09:23:16Z</time>
      </trkpt>
      <trkpt lat="40.1600570" lon="-3.5556590">
        <ele>589.0</ele>
        <time>2021-04-04T09:23:17Z</time>
      </trkpt>
      <trkpt lat="40.1600110" lon="-3.5556790">
        <ele>589.2</ele>
        <time>2021-04-04T09:23:18Z</time>
      </trkpt>
      <trkpt lat="40.1599730" lon="-3.5556960">
        <ele>589.4</ele>
        <time>2021-04-04T09:23:19Z</time>
      </trkpt>
      <trkpt lat="40.1599310" lon="-3.5557130">
        <ele>589.6</ele>
        <time>2021-04-04T09:23:20Z</time>
      </trkpt>
      <trkpt lat="40.1598890" lon="-3.5557310">
        <ele>589.8</ele>
        <time>2021-04-04T09:23:21Z</time>
      </trkpt>
      <trkpt lat="40.1598510" lon="-3.5557520">
        <ele>590.0</ele>
        <time>2021-04-04T09:23:22Z</time>
      </trkpt>
      <trkpt lat="40.1598090" lon="-3.5557740">
        <ele>590.0</ele>
        <time>2021-04-04T09:23:23Z</time>
      </trkpt>
      <trkpt lat="40.1597630" lon="-3.5557990">
        <ele>590.0</ele>
        <time>2021-04-04T09:23:24Z</time>
      </trkpt>
      <trkpt lat="40.1597210" lon="-3.5558290">
        <ele>590.0</ele>
        <time>2021-04-04T09:23:25Z</time>
      </trkpt>
      <trkpt lat="40.1596790" lon="-3.5558630">
        <ele>589.8</ele>
        <time>2021-04-04T09:23:26Z</time>
      </trkpt>
      <trkpt lat="40.1596340" lon="-3.5558970">
        <ele>589.6</ele>
        <time>2021-04-04T09:23:27Z</time>
      </trkpt>
      <trkpt lat="40.1595840" lon="-3.5559320">
        <ele>589.4</ele>
        <time>2021-04-04T09:23:28Z</time>
      </trkpt>
      <trkpt lat="40.1595380" lon="-3.5559700">
        <ele>589.2</ele>
        <time>2021-04-04T09:23:29Z</time>
      </trkpt>
      <trkpt lat="40.1594920" lon="-3.5560100">
        <ele>589.0</ele>
        <time>2021-04-04T09:23:30Z</time>
      </trkpt>
      <trkpt lat="40.1594470" lon="-3.5560480">
        <ele>589.0</ele>
        <time>2021-04-04T09:23:31Z</time>
      </trkpt>
      <trkpt lat="40.1594010" lon="-3.5560850">
        <ele>588.8</ele>
        <time>2021-04-04T09:23:32Z</time>
      </trkpt>
      <trkpt lat="40.1593590" lon="-3.5561210">
        <ele>588.8</ele>
        <time>2021-04-04T09:23:33Z</time>
      </trkpt>
      <trkpt lat="40.1593170" lon="-3.5561540">
        <ele>588.8</ele>
        <time>2021-04-04T09:23:34Z</time>
      </trkpt>
      <trkpt lat="40.1592750" lon="-3.5561850">
        <ele>589.0</ele>
        <time>2021-04-04T09:23:35Z</time>
      </trkpt>
      <trkpt lat="40.1592330" lon="-3.5562160">
        <ele>589.0</ele>
        <time>2021-04-04T09:23:36Z</time>
      </trkpt>
      <trkpt lat="40.1591950" lon="-3.5562470">
        <ele>589.2</ele>
        <time>2021-04-04T09:23:37Z</time>
      </trkpt>
      <trkpt lat="40.1591570" lon="-3.5562790">
        <ele>589.4</ele>
        <time>2021-04-04T09:23:38Z</time>
      </trkpt>
      <trkpt lat="40.1591220" lon="-3.5563100">
        <ele>589.4</ele>
        <time>2021-04-04T09:23:39Z</time>
      </trkpt>
      <trkpt lat="40.1590840" lon="-3.5563390">
        <ele>589.6</ele>
        <time>2021-04-04T09:23:40Z</time>
      </trkpt>
      <trkpt lat="40.1590420" lon="-3.5563680">
        <ele>589.8</ele>
        <time>2021-04-04T09:23:41Z</time>
      </trkpt>
      <trkpt lat="40.1590000" lon="-3.5563970">
        <ele>589.8</ele>
        <time>2021-04-04T09:23:42Z</time>
      </trkpt>
      <trkpt lat="40.1589580" lon="-3.5564270">
        <ele>590.0</ele>
        <time>2021-04-04T09:23:43Z</time>
      </trkpt>
      <trkpt lat="40.1589160" lon="-3.5564550">
        <ele>590.0</ele>
        <time>2021-04-04T09:23:44Z</time>
      </trkpt>
      <trkpt lat="40.1588710" lon="-3.5564810">
        <ele>590.0</ele>
        <time>2021-04-04T09:23:45Z</time>
      </trkpt>
      <trkpt lat="40.1588250" lon="-3.5565040">
        <ele>590.0</ele>
        <time>2021-04-04T09:23:46Z</time>
      </trkpt>
      <trkpt lat="40.1587790" lon="-3.5565210">
        <ele>590.2</ele>
        <time>2021-04-04T09:23:47Z</time>
      </trkpt>
      <trkpt lat="40.1587300" lon="-3.5565340">
        <ele>590.2</ele>
        <time>2021-04-04T09:23:48Z</time>
      </trkpt>
      <trkpt lat="40.1586840" lon="-3.5565460">
        <ele>590.0</ele>
        <time>2021-04-04T09:23:49Z</time>
      </trkpt>
      <trkpt lat="40.1586300" lon="-3.5565560">
        <ele>589.8</ele>
        <time>2021-04-04T09:23:50Z</time>
      </trkpt>
      <trkpt lat="40.1585730" lon="-3.5565680">
        <ele>589.6</ele>
        <time>2021-04-04T09:23:51Z</time>
      </trkpt>
      <trkpt lat="40.1585080" lon="-3.5565810">
        <ele>589.2</ele>
        <time>2021-04-04T09:23:52Z</time>
      </trkpt>
      <trkpt lat="40.1584430" lon="-3.5565920">
        <ele>588.8</ele>
        <time>2021-04-04T09:23:53Z</time>
      </trkpt>
      <trkpt lat="40.1583790" lon="-3.5566020">
        <ele>588.6</ele>
        <time>2021-04-04T09:23:54Z</time>
      </trkpt>
      <trkpt lat="40.1583140" lon="-3.5566100">
        <ele>588.6</ele>
        <time>2021-04-04T09:23:55Z</time>
      </trkpt>
      <trkpt lat="40.1582530" lon="-3.5566150">
        <ele>588.4</ele>
        <time>2021-04-04T09:23:56Z</time>
      </trkpt>
      <trkpt lat="40.1581920" lon="-3.5566180">
        <ele>588.4</ele>
        <time>2021-04-04T09:23:57Z</time>
      </trkpt>
      <trkpt lat="40.1581310" lon="-3.5566180">
        <ele>588.4</ele>
        <time>2021-04-04T09:23:58Z</time>
      </trkpt>
      <trkpt lat="40.1580700" lon="-3.5566130">
        <ele>588.4</ele>
        <time>2021-04-04T09:23:59Z</time>
      </trkpt>
      <trkpt lat="40.1580050" lon="-3.5566050">
        <ele>588.4</ele>
        <time>2021-04-04T09:24:00Z</time>
      </trkpt>
      <trkpt lat="40.1579440" lon="-3.5565960">
        <ele>588.4</ele>
        <time>2021-04-04T09:24:01Z</time>
      </trkpt>
      <trkpt lat="40.1578830" lon="-3.5565870">
        <ele>588.4</ele>
        <time>2021-04-04T09:24:02Z</time>
      </trkpt>
      <trkpt lat="40.1578220" lon="-3.5565790">
        <ele>588.4</ele>
        <time>2021-04-04T09:24:03Z</time>
      </trkpt>
      <trkpt lat="40.1577610" lon="-3.5565730">
        <ele>588.6</ele>
        <time>2021-04-04T09:24:04Z</time>
      </trkpt>
      <trkpt lat="40.1577000" lon="-3.5565700">
        <ele>588.6</ele>
        <time>2021-04-04T09:24:05Z</time>
      </trkpt>
      <trkpt lat="40.1576390" lon="-3.5565710">
        <ele>588.8</ele>
        <time>2021-04-04T09:24:06Z</time>
      </trkpt>
      <trkpt lat="40.1575810" lon="-3.5565730">
        <ele>588.8</ele>
        <time>2021-04-04T09:24:07Z</time>
      </trkpt>
      <trkpt lat="40.1575200" lon="-3.5565780">
        <ele>589.0</ele>
        <time>2021-04-04T09:24:08Z</time>
      </trkpt>
      <trkpt lat="40.1574630" lon="-3.5565870">
        <ele>589.2</ele>
        <time>2021-04-04T09:24:09Z</time>
      </trkpt>
      <trkpt lat="40.1574020" lon="-3.5565960">
        <ele>589.4</ele>
        <time>2021-04-04T09:24:10Z</time>
      </trkpt>
      <trkpt lat="40.1573450" lon="-3.5566070">
        <ele>589.6</ele>
        <time>2021-04-04T09:24:11Z</time>
      </trkpt>
      <trkpt lat="40.1572880" lon="-3.5566240">
        <ele>589.8</ele>
        <time>2021-04-04T09:24:12Z</time>
      </trkpt>
      <trkpt lat="40.1572300" lon="-3.5566480">
        <ele>589.8</ele>
        <time>2021-04-04T09:24:13Z</time>
      </trkpt>
      <trkpt lat="40.1571770" lon="-3.5566780">
        <ele>590.0</ele>
        <time>2021-04-04T09:24:14Z</time>
      </trkpt>
      <trkpt lat="40.1571270" lon="-3.5567110">
        <ele>590.2</ele>
        <time>2021-04-04T09:24:15Z</time>
      </trkpt>
      <trkpt lat="40.1570740" lon="-3.5567420">
        <ele>590.6</ele>
        <time>2021-04-04T09:24:16Z</time>
      </trkpt>
      <trkpt lat="40.1570280" lon="-3.5567760">
        <ele>591.0</ele>
        <time>2021-04-04T09:24:17Z</time>
      </trkpt>
      <trkpt lat="40.1569860" lon="-3.5568120">
        <ele>591.4</ele>
        <time>2021-04-04T09:24:18Z</time>
      </trkpt>
      <trkpt lat="40.1569440" lon="-3.5568480">
        <ele>591.8</ele>
        <time>2021-04-04T09:24:19Z</time>
      </trkpt>
      <trkpt lat="40.1569020" lon="-3.5568820">
        <ele>592.2</ele>
        <time>2021-04-04T09:24:20Z</time>
      </trkpt>
      <trkpt lat="40.1568570" lon="-3.5569190">
        <ele>592.6</ele>
        <time>2021-04-04T09:24:21Z</time>
      </trkpt>
      <trkpt lat="40.1568070" lon="-3.5569540">
        <ele>592.8</ele>
        <time>2021-04-04T09:24:22Z</time>
      </trkpt>
      <trkpt lat="40.1567570" lon="-3.5569840">
        <ele>593.2</ele>
        <time>2021-04-04T09:24:23Z</time>
      </trkpt>
      <trkpt lat="40.1567080" lon="-3.5570100">
        <ele>593.2</ele>
        <time>2021-04-04T09:24:24Z</time>
      </trkpt>
      <trkpt lat="40.1566540" lon="-3.5570300">
        <ele>593.2</ele>
        <time>2021-04-04T09:24:25Z</time>
      </trkpt>
      <trkpt lat="40.1566050" lon="-3.5570420">
        <ele>593.0</ele>
        <time>2021-04-04T09:24:26Z</time>
      </trkpt>
      <trkpt lat="40.1565510" lon="-3.5570530">
        <ele>593.0</ele>
        <time>2021-04-04T09:24:27Z</time>
      </trkpt>
      <trkpt lat="40.1564980" lon="-3.5570660">
        <ele>592.8</ele>
        <time>2021-04-04T09:24:28Z</time>
      </trkpt>
      <trkpt lat="40.1564450" lon="-3.5570840">
        <ele>592.6</ele>
        <time>2021-04-04T09:24:29Z</time>
      </trkpt>
      <trkpt lat="40.1563910" lon="-3.5571010">
        <ele>592.6</ele>
        <time>2021-04-04T09:24:30Z</time>
      </trkpt>
      <trkpt lat="40.1563450" lon="-3.5571150">
        <ele>592.6</ele>
        <time>2021-04-04T09:24:31Z</time>
      </trkpt>
      <trkpt lat="40.1562960" lon="-3.5571270">
        <ele>592.6</ele>
        <time>2021-04-04T09:24:32Z</time>
      </trkpt>
      <trkpt lat="40.1562500" lon="-3.5571450">
        <ele>592.6</ele>
        <time>2021-04-04T09:24:33Z</time>
      </trkpt>
      <trkpt lat="40.1562080" lon="-3.5571670">
        <ele>592.6</ele>
        <time>2021-04-04T09:24:34Z</time>
      </trkpt>
      <trkpt lat="40.1561660" lon="-3.5571870">
        <ele>592.6</ele>
        <time>2021-04-04T09:24:35Z</time>
      </trkpt>
      <trkpt lat="40.1561240" lon="-3.5572080">
        <ele>592.6</ele>
        <time>2021-04-04T09:24:36Z</time>
      </trkpt>
      <trkpt lat="40.1560820" lon="-3.5572330">
        <ele>592.6</ele>
        <time>2021-04-04T09:24:37Z</time>
      </trkpt>
      <trkpt lat="40.1560440" lon="-3.5572580">
        <ele>592.8</ele>
        <time>2021-04-04T09:24:38Z</time>
      </trkpt>
      <trkpt lat="40.1560060" lon="-3.5572840">
        <ele>592.8</ele>
        <time>2021-04-04T09:24:39Z</time>
      </trkpt>
      <trkpt lat="40.1559720" lon="-3.5573130">
        <ele>592.8</ele>
        <time>2021-04-04T09:24:40Z</time>
      </trkpt>
      <trkpt lat="40.1559370" lon="-3.5573440">
        <ele>593.0</ele>
        <time>2021-04-04T09:24:41Z</time>
      </trkpt>
      <trkpt lat="40.1559030" lon="-3.5573780">
        <ele>593.2</ele>
        <time>2021-04-04T09:24:42Z</time>
      </trkpt>
      <trkpt lat="40.1558680" lon="-3.5574130">
        <ele>593.2</ele>
        <time>2021-04-04T09:24:43Z</time>
      </trkpt>
      <trkpt lat="40.1558340" lon="-3.5574480">
        <ele>593.4</ele>
        <time>2021-04-04T09:24:44Z</time>
      </trkpt>
      <trkpt lat="40.1558040" lon="-3.5574850">
        <ele>593.4</ele>
        <time>2021-04-04T09:24:45Z</time>
      </trkpt>
      <trkpt lat="40.1557690" lon="-3.5575230">
        <ele>593.4</ele>
        <time>2021-04-04T09:24:46Z</time>
      </trkpt>
      <trkpt lat="40.1557310" lon="-3.5575600">
        <ele>593.6</ele>
        <time>2021-04-04T09:24:47Z</time>
      </trkpt>
      <trkpt lat="40.1556970" lon="-3.5575970">
        <ele>593.6</ele>
        <time>2021-04-04T09:24:48Z</time>
      </trkpt>
      <trkpt lat="40.1556630" lon="-3.5576330">
        <ele>593.6</ele>
        <time>2021-04-04T09:24:49Z</time>
      </trkpt>
      <trkpt lat="40.1556280" lon="-3.5576670">
        <ele>593.8</ele>
        <time>2021-04-04T09:24:50Z</time>
      </trkpt>
      <trkpt lat="40.1555980" lon="-3.5576990">
        <ele>594.0</ele>
        <time>2021-04-04T09:24:51Z</time>
      </trkpt>
      <trkpt lat="40.1555600" lon="-3.5577290">
        <ele>594.0</ele>
        <time>2021-04-04T09:24:52Z</time>
      </trkpt>
      <trkpt lat="40.1555250" lon="-3.5577590">
        <ele>594.2</ele>
        <time>2021-04-04T09:24:53Z</time>
      </trkpt>
      <trkpt lat="40.1554950" lon="-3.5577900">
        <ele>594.4</ele>
        <time>2021-04-04T09:24:54Z</time>
      </trkpt>
      <trkpt lat="40.1554600" lon="-3.5578230">
        <ele>594.6</ele>
        <time>2021-04-04T09:24:55Z</time>
      </trkpt>
      <trkpt lat="40.1554260" lon="-3.5578550">
        <ele>594.8</ele>
        <time>2021-04-04T09:24:56Z</time>
      </trkpt>
      <trkpt lat="40.1553880" lon="-3.5578850">
        <ele>595.0</ele>
        <time>2021-04-04T09:24:57Z</time>
      </trkpt>
      <trkpt lat="40.1553500" lon="-3.5579140">
        <ele>595.2</ele>
        <time>2021-04-04T09:24:58Z</time>
      </trkpt>
      <trkpt lat="40.1553080" lon="-3.5579410">
        <ele>595.4</ele>
        <time>2021-04-04T09:24:59Z</time>
      </trkpt>
      <trkpt lat="40.1552660" lon="-3.5579660">
        <ele>595.6</ele>
        <time>2021-04-04T09:25:00Z</time>
      </trkpt>
      <trkpt lat="40.1552200" lon="-3.5579880">
        <ele>595.8</ele>
        <time>2021-04-04T09:25:01Z</time>
      </trkpt>
      <trkpt lat="40.1551780" lon="-3.5580060">
        <ele>595.8</ele>
        <time>2021-04-04T09:25:02Z</time>
      </trkpt>
      <trkpt lat="40.1551360" lon="-3.5580220">
        <ele>596.0</ele>
        <time>2021-04-04T09:25:03Z</time>
      </trkpt>
      <trkpt lat="40.1550870" lon="-3.5580340">
        <ele>596.2</ele>
        <time>2021-04-04T09:25:04Z</time>
      </trkpt>
      <trkpt lat="40.1550450" lon="-3.5580420">
        <ele>596.4</ele>
        <time>2021-04-04T09:25:05Z</time>
      </trkpt>
      <trkpt lat="40.1550030" lon="-3.5580460">
        <ele>596.6</ele>
        <time>2021-04-04T09:25:06Z</time>
      </trkpt>
      <trkpt lat="40.1549610" lon="-3.5580460">
        <ele>596.6</ele>
        <time>2021-04-04T09:25:07Z</time>
      </trkpt>
      <trkpt lat="40.1549190" lon="-3.5580440">
        <ele>596.8</ele>
        <time>2021-04-04T09:25:08Z</time>
      </trkpt>
      <trkpt lat="40.1548810" lon="-3.5580380">
        <ele>596.8</ele>
        <time>2021-04-04T09:25:09Z</time>
      </trkpt>
      <trkpt lat="40.1548420" lon="-3.5580250">
        <ele>596.8</ele>
        <time>2021-04-04T09:25:10Z</time>
      </trkpt>
      <trkpt lat="40.1548040" lon="-3.5580070">
        <ele>596.8</ele>
        <time>2021-04-04T09:25:11Z</time>
      </trkpt>
      <trkpt lat="40.1547620" lon="-3.5579830">
        <ele>596.4</ele>
        <time>2021-04-04T09:25:12Z</time>
      </trkpt>
      <trkpt lat="40.1547160" lon="-3.5579550">
        <ele>596.2</ele>
        <time>2021-04-04T09:25:13Z</time>
      </trkpt>
      <trkpt lat="40.1546670" lon="-3.5579230">
        <ele>595.6</ele>
        <time>2021-04-04T09:25:14Z</time>
      </trkpt>
      <trkpt lat="40.1546130" lon="-3.5578910">
        <ele>595.0</ele>
        <time>2021-04-04T09:25:15Z</time>
      </trkpt>
      <trkpt lat="40.1545450" lon="-3.5578640">
        <ele>594.2</ele>
        <time>2021-04-04T09:25:16Z</time>
      </trkpt>
      <trkpt lat="40.1544720" lon="-3.5578430">
        <ele>593.2</ele>
        <time>2021-04-04T09:25:17Z</time>
      </trkpt>
      <trkpt lat="40.1543960" lon="-3.5578380">
        <ele>592.2</ele>
        <time>2021-04-04T09:25:18Z</time>
      </trkpt>
      <trkpt lat="40.1543120" lon="-3.5578530">
        <ele>591.2</ele>
        <time>2021-04-04T09:25:19Z</time>
      </trkpt>
      <trkpt lat="40.1542320" lon="-3.5578870">
        <ele>590.2</ele>
        <time>2021-04-04T09:25:20Z</time>
      </trkpt>
      <trkpt lat="40.1541600" lon="-3.5579350">
        <ele>589.6</ele>
        <time>2021-04-04T09:25:21Z</time>
      </trkpt>
      <trkpt lat="40.1540910" lon="-3.5579820">
        <ele>589.0</ele>
        <time>2021-04-04T09:25:22Z</time>
      </trkpt>
      <trkpt lat="40.1540300" lon="-3.5580260">
        <ele>588.6</ele>
        <time>2021-04-04T09:25:23Z</time>
      </trkpt>
      <trkpt lat="40.1539730" lon="-3.5580670">
        <ele>588.2</ele>
        <time>2021-04-04T09:25:24Z</time>
      </trkpt>
      <trkpt lat="40.1539190" lon="-3.5581040">
        <ele>588.0</ele>
        <time>2021-04-04T09:25:25Z</time>
      </trkpt>
      <trkpt lat="40.1538620" lon="-3.5581310">
        <ele>587.6</ele>
        <time>2021-04-04T09:25:26Z</time>
      </trkpt>
      <trkpt lat="40.1538010" lon="-3.5581490">
        <ele>587.2</ele>
        <time>2021-04-04T09:25:27Z</time>
      </trkpt>
      <trkpt lat="40.1537360" lon="-3.5581640">
        <ele>587.0</ele>
        <time>2021-04-04T09:25:28Z</time>
      </trkpt>
      <trkpt lat="40.1536710" lon="-3.5581760">
        <ele>586.6</ele>
        <time>2021-04-04T09:25:29Z</time>
      </trkpt>
      <trkpt lat="40.1536100" lon="-3.5581850">
        <ele>586.2</ele>
        <time>2021-04-04T09:25:30Z</time>
      </trkpt>
      <trkpt lat="40.1535490" lon="-3.5581920">
        <ele>586.0</ele>
        <time>2021-04-04T09:25:31Z</time>
      </trkpt>
      <trkpt lat="40.1534880" lon="-3.5581980">
        <ele>585.6</ele>
        <time>2021-04-04T09:25:32Z</time>
      </trkpt>
      <trkpt lat="40.1534310" lon="-3.5582070">
        <ele>585.2</ele>
        <time>2021-04-04T09:25:33Z</time>
      </trkpt>
      <trkpt lat="40.1533700" lon="-3.5582270">
        <ele>584.8</ele>
        <time>2021-04-04T09:25:34Z</time>
      </trkpt>
      <trkpt lat="40.1533050" lon="-3.5582600">
        <ele>584.2</ele>
        <time>2021-04-04T09:25:35Z</time>
      </trkpt>
      <trkpt lat="40.1532330" lon="-3.5583050">
        <ele>583.6</ele>
        <time>2021-04-04T09:25:36Z</time>
      </trkpt>
      <trkpt lat="40.1531560" lon="-3.5583580">
        <ele>582.8</ele>
        <time>2021-04-04T09:25:37Z</time>
      </trkpt>
      <trkpt lat="40.1530760" lon="-3.5584110">
        <ele>582.0</ele>
        <time>2021-04-04T09:25:38Z</time>
      </trkpt>
      <trkpt lat="40.1530000" lon="-3.5584640">
        <ele>581.2</ele>
        <time>2021-04-04T09:25:39Z</time>
      </trkpt>
      <trkpt lat="40.1529080" lon="-3.5585150">
        <ele>580.4</ele>
        <time>2021-04-04T09:25:40Z</time>
      </trkpt>
      <trkpt lat="40.1528280" lon="-3.5585460">
        <ele>579.8</ele>
        <time>2021-04-04T09:25:41Z</time>
      </trkpt>
      <trkpt lat="40.1527520" lon="-3.5585760">
        <ele>579.2</ele>
        <time>2021-04-04T09:25:42Z</time>
      </trkpt>
      <trkpt lat="40.1526870" lon="-3.5586140">
        <ele>578.4</ele>
        <time>2021-04-04T09:25:43Z</time>
      </trkpt>
      <trkpt lat="40.1526220" lon="-3.5586500">
        <ele>577.6</ele>
        <time>2021-04-04T09:25:44Z</time>
      </trkpt>
      <trkpt lat="40.1525540" lon="-3.5586850">
        <ele>576.8</ele>
        <time>2021-04-04T09:25:45Z</time>
      </trkpt>
      <trkpt lat="40.1524850" lon="-3.5587140">
        <ele>576.0</ele>
        <time>2021-04-04T09:25:46Z</time>
      </trkpt>
      <trkpt lat="40.1524120" lon="-3.5587370">
        <ele>575.2</ele>
        <time>2021-04-04T09:25:47Z</time>
      </trkpt>
      <trkpt lat="40.1523440" lon="-3.5587590">
        <ele>574.2</ele>
        <time>2021-04-04T09:25:48Z</time>
      </trkpt>
      <trkpt lat="40.1522750" lon="-3.5587840">
        <ele>573.4</ele>
        <time>2021-04-04T09:25:49Z</time>
      </trkpt>
      <trkpt lat="40.1521990" lon="-3.5588120">
        <ele>572.6</ele>
        <time>2021-04-04T09:25:50Z</time>
      </trkpt>
      <trkpt lat="40.1521260" lon="-3.5588470">
        <ele>571.6</ele>
        <time>2021-04-04T09:25:51Z</time>
      </trkpt>
      <trkpt lat="40.1520540" lon="-3.5588880">
        <ele>570.8</ele>
        <time>2021-04-04T09:25:52Z</time>
      </trkpt>
      <trkpt lat="40.1519810" lon="-3.5589340">
        <ele>569.8</ele>
        <time>2021-04-04T09:25:53Z</time>
      </trkpt>
      <trkpt lat="40.1519090" lon="-3.5589810">
        <ele>569.0</ele>
        <time>2021-04-04T09:25:54Z</time>
      </trkpt>
      <trkpt lat="40.1518330" lon="-3.5590210">
        <ele>567.8</ele>
        <time>2021-04-04T09:25:55Z</time>
      </trkpt>
      <trkpt lat="40.1517520" lon="-3.5590490">
        <ele>566.8</ele>
        <time>2021-04-04T09:25:56Z</time>
      </trkpt>
      <trkpt lat="40.1516690" lon="-3.5590670">
        <ele>565.6</ele>
        <time>2021-04-04T09:25:57Z</time>
      </trkpt>
      <trkpt lat="40.1515850" lon="-3.5590860">
        <ele>564.4</ele>
        <time>2021-04-04T09:25:58Z</time>
      </trkpt>
      <trkpt lat="40.1515010" lon="-3.5591120">
        <ele>563.2</ele>
        <time>2021-04-04T09:25:59Z</time>
      </trkpt>
      <trkpt lat="40.1514170" lon="-3.5591430">
        <ele>562.2</ele>
        <time>2021-04-04T09:26:00Z</time>
      </trkpt>
      <trkpt lat="40.1513330" lon="-3.5591700">
        <ele>561.0</ele>
        <time>2021-04-04T09:26:01Z</time>
      </trkpt>
      <trkpt lat="40.1512530" lon="-3.5591890">
        <ele>560.0</ele>
        <time>2021-04-04T09:26:02Z</time>
      </trkpt>
      <trkpt lat="40.1511650" lon="-3.5592020">
        <ele>558.6</ele>
        <time>2021-04-04T09:26:03Z</time>
      </trkpt>
      <trkpt lat="40.1510810" lon="-3.5592130">
        <ele>557.4</ele>
        <time>2021-04-04T09:26:04Z</time>
      </trkpt>
      <trkpt lat="40.1509930" lon="-3.5592370">
        <ele>556.2</ele>
        <time>2021-04-04T09:26:05Z</time>
      </trkpt>
      <trkpt lat="40.1509090" lon="-3.5592780">
        <ele>555.2</ele>
        <time>2021-04-04T09:26:06Z</time>
      </trkpt>
      <trkpt lat="40.1508410" lon="-3.5593270">
        <ele>554.4</ele>
        <time>2021-04-04T09:26:07Z</time>
      </trkpt>
      <trkpt lat="40.1507800" lon="-3.5593780">
        <ele>553.8</ele>
        <time>2021-04-04T09:26:08Z</time>
      </trkpt>
      <trkpt lat="40.1507300" lon="-3.5594220">
        <ele>553.4</ele>
        <time>2021-04-04T09:26:09Z</time>
      </trkpt>
      <trkpt lat="40.1506880" lon="-3.5594580">
        <ele>553.0</ele>
        <time>2021-04-04T09:26:10Z</time>
      </trkpt>
      <trkpt lat="40.1506540" lon="-3.5594900">
        <ele>552.8</ele>
        <time>2021-04-04T09:26:11Z</time>
      </trkpt>
      <trkpt lat="40.1506230" lon="-3.5595190">
        <ele>552.8</ele>
        <time>2021-04-04T09:26:12Z</time>
      </trkpt>
      <trkpt lat="40.1506000" lon="-3.5595460">
        <ele>552.6</ele>
        <time>2021-04-04T09:26:13Z</time>
      </trkpt>
      <trkpt lat="40.1505740" lon="-3.5595720">
        <ele>552.6</ele>
        <time>2021-04-04T09:26:14Z</time>
      </trkpt>
      <trkpt lat="40.1505470" lon="-3.5595940">
        <ele>552.6</ele>
        <time>2021-04-04T09:26:15Z</time>
      </trkpt>
      <trkpt lat="40.1505240" lon="-3.5596170">
        <ele>552.6</ele>
        <time>2021-04-04T09:26:16Z</time>
      </trkpt>
      <trkpt lat="40.1505050" lon="-3.5596380">
        <ele>552.8</ele>
        <time>2021-04-04T09:26:17Z</time>
      </trkpt>
      <trkpt lat="40.1504860" lon="-3.5596580">
        <ele>552.8</ele>
        <time>2021-04-04T09:26:18Z</time>
      </trkpt>
      <trkpt lat="40.1504710" lon="-3.5596790">
        <ele>553.0</ele>
        <time>2021-04-04T09:26:19Z</time>
      </trkpt>
      <trkpt lat="40.1504550" lon="-3.5597040">
        <ele>553.2</ele>
        <time>2021-04-04T09:26:20Z</time>
      </trkpt>
      <trkpt lat="40.1504440" lon="-3.5597330">
        <ele>553.4</ele>
        <time>2021-04-04T09:26:21Z</time>
      </trkpt>
      <trkpt lat="40.1504290" lon="-3.5597600">
        <ele>553.4</ele>
        <time>2021-04-04T09:26:22Z</time>
      </trkpt>
      <trkpt lat="40.1504140" lon="-3.5597840">
        <ele>553.6</ele>
        <time>2021-04-04T09:26:23Z</time>
      </trkpt>
      <trkpt lat="40.1503940" lon="-3.5598090">
        <ele>553.8</ele>
        <time>2021-04-04T09:26:24Z</time>
      </trkpt>
      <trkpt lat="40.1503750" lon="-3.5598350">
        <ele>554.0</ele>
        <time>2021-04-04T09:26:25Z</time>
      </trkpt>
      <trkpt lat="40.1503560" lon="-3.5598630">
        <ele>554.2</ele>
        <time>2021-04-04T09:26:26Z</time>
      </trkpt>
      <trkpt lat="40.1503370" lon="-3.5598920">
        <ele>554.4</ele>
        <time>2021-04-04T09:26:27Z</time>
      </trkpt>
      <trkpt lat="40.1503180" lon="-3.5599210">
        <ele>554.8</ele>
        <time>2021-04-04T09:26:28Z</time>
      </trkpt>
      <trkpt lat="40.1502950" lon="-3.5599480">
        <ele>554.8</ele>
        <time>2021-04-04T09:26:29Z</time>
      </trkpt>
      <trkpt lat="40.1502720" lon="-3.5599740">
        <ele>555.0</ele>
        <time>2021-04-04T09:26:30Z</time>
      </trkpt>
      <trkpt lat="40.1502500" lon="-3.5600010">
        <ele>555.2</ele>
        <time>2021-04-04T09:26:31Z</time>
      </trkpt>
      <trkpt lat="40.1502270" lon="-3.5600300">
        <ele>555.4</ele>
        <time>2021-04-04T09:26:32Z</time>
      </trkpt>
      <trkpt lat="40.1502080" lon="-3.5600610">
        <ele>555.6</ele>
        <time>2021-04-04T09:26:33Z</time>
      </trkpt>
      <trkpt lat="40.1501850" lon="-3.5600920">
        <ele>555.8</ele>
        <time>2021-04-04T09:26:34Z</time>
      </trkpt>
      <trkpt lat="40.1501620" lon="-3.5601230">
        <ele>556.0</ele>
        <time>2021-04-04T09:26:35Z</time>
      </trkpt>
      <trkpt lat="40.1501350" lon="-3.5601530">
        <ele>556.2</ele>
        <time>2021-04-04T09:26:36Z</time>
      </trkpt>
      <trkpt lat="40.1501120" lon="-3.5601820">
        <ele>556.4</ele>
        <time>2021-04-04T09:26:37Z</time>
      </trkpt>
      <trkpt lat="40.1500850" lon="-3.5602130">
        <ele>556.6</ele>
        <time>2021-04-04T09:26:38Z</time>
      </trkpt>
      <trkpt lat="40.1500590" lon="-3.5602410">
        <ele>556.8</ele>
        <time>2021-04-04T09:26:39Z</time>
      </trkpt>
      <trkpt lat="40.1500320" lon="-3.5602680">
        <ele>557.0</ele>
        <time>2021-04-04T09:26:40Z</time>
      </trkpt>
      <trkpt lat="40.1500050" lon="-3.5602960">
        <ele>557.2</ele>
        <time>2021-04-04T09:26:41Z</time>
      </trkpt>
      <trkpt lat="40.1499790" lon="-3.5603240">
        <ele>557.4</ele>
        <time>2021-04-04T09:26:42Z</time>
      </trkpt>
      <trkpt lat="40.1499520" lon="-3.5603500">
        <ele>557.6</ele>
        <time>2021-04-04T09:26:43Z</time>
      </trkpt>
      <trkpt lat="40.1499290" lon="-3.5603770">
        <ele>557.8</ele>
        <time>2021-04-04T09:26:44Z</time>
      </trkpt>
      <trkpt lat="40.1498990" lon="-3.5604030">
        <ele>558.0</ele>
        <time>2021-04-04T09:26:45Z</time>
      </trkpt>
      <trkpt lat="40.1498720" lon="-3.5604280">
        <ele>558.2</ele>
        <time>2021-04-04T09:26:46Z</time>
      </trkpt>
      <trkpt lat="40.1498450" lon="-3.5604520">
        <ele>558.4</ele>
        <time>2021-04-04T09:26:47Z</time>
      </trkpt>
      <trkpt lat="40.1498150" lon="-3.5604760">
        <ele>558.6</ele>
        <time>2021-04-04T09:26:48Z</time>
      </trkpt>
      <trkpt lat="40.1497880" lon="-3.5604980">
        <ele>558.8</ele>
        <time>2021-04-04T09:26:49Z</time>
      </trkpt>
      <trkpt lat="40.1497570" lon="-3.5605210">
        <ele>559.0</ele>
        <time>2021-04-04T09:26:50Z</time>
      </trkpt>
      <trkpt lat="40.1497310" lon="-3.5605470">
        <ele>559.2</ele>
        <time>2021-04-04T09:26:51Z</time>
      </trkpt>
      <trkpt lat="40.1497000" lon="-3.5605730">
        <ele>559.4</ele>
        <time>2021-04-04T09:26:52Z</time>
      </trkpt>
      <trkpt lat="40.1496730" lon="-3.5605980">
        <ele>559.4</ele>
        <time>2021-04-04T09:26:53Z</time>
      </trkpt>
      <trkpt lat="40.1496430" lon="-3.5606240">
        <ele>559.6</ele>
        <time>2021-04-04T09:26:54Z</time>
      </trkpt>
      <trkpt lat="40.1496160" lon="-3.5606530">
        <ele>559.6</ele>
        <time>2021-04-04T09:26:55Z</time>
      </trkpt>
      <trkpt lat="40.1495860" lon="-3.5606840">
        <ele>559.6</ele>
        <time>2021-04-04T09:26:56Z</time>
      </trkpt>
      <trkpt lat="40.1495590" lon="-3.5607160">
        <ele>559.4</ele>
        <time>2021-04-04T09:26:57Z</time>
      </trkpt>
      <trkpt lat="40.1495320" lon="-3.5607500">
        <ele>559.4</ele>
        <time>2021-04-04T09:26:58Z</time>
      </trkpt>
      <trkpt lat="40.1495060" lon="-3.5607830">
        <ele>559.2</ele>
        <time>2021-04-04T09:26:59Z</time>
      </trkpt>
      <trkpt lat="40.1494790" lon="-3.5608160">
        <ele>559.2</ele>
        <time>2021-04-04T09:27:00Z</time>
      </trkpt>
      <trkpt lat="40.1494520" lon="-3.5608490">
        <ele>559.0</ele>
        <time>2021-04-04T09:27:01Z</time>
      </trkpt>
      <trkpt lat="40.1494250" lon="-3.5608850">
        <ele>558.8</ele>
        <time>2021-04-04T09:27:02Z</time>
      </trkpt>
      <trkpt lat="40.1494030" lon="-3.5609180">
        <ele>558.6</ele>
        <time>2021-04-04T09:27:03Z</time>
      </trkpt>
      <trkpt lat="40.1493800" lon="-3.5609510">
        <ele>558.6</ele>
        <time>2021-04-04T09:27:04Z</time>
      </trkpt>
      <trkpt lat="40.1493570" lon="-3.5609840">
        <ele>558.4</ele>
        <time>2021-04-04T09:27:05Z</time>
      </trkpt>
      <trkpt lat="40.1493340" lon="-3.5610150">
        <ele>558.2</ele>
        <time>2021-04-04T09:27:06Z</time>
      </trkpt>
      <trkpt lat="40.1493150" lon="-3.5610450">
        <ele>558.0</ele>
        <time>2021-04-04T09:27:07Z</time>
      </trkpt>
      <trkpt lat="40.1492960" lon="-3.5610710">
        <ele>558.0</ele>
        <time>2021-04-04T09:27:08Z</time>
      </trkpt>
      <trkpt lat="40.1492770" lon="-3.5610950">
        <ele>557.8</ele>
        <time>2021-04-04T09:27:09Z</time>
      </trkpt>
      <trkpt lat="40.1492580" lon="-3.5611160">
        <ele>557.6</ele>
        <time>2021-04-04T09:27:10Z</time>
      </trkpt>
      <trkpt lat="40.1492420" lon="-3.5611320">
        <ele>557.6</ele>
        <time>2021-04-04T09:27:11Z</time>
      </trkpt>
      <trkpt lat="40.1492350" lon="-3.5611450">
        <ele>557.4</ele>
        <time>2021-04-04T09:27:12Z</time>
      </trkpt>
      <trkpt lat="40.1492310" lon="-3.5611520">
        <ele>557.2</ele>
        <time>2021-04-04T09:27:29Z</time>
      </trkpt>
      <trkpt lat="40.1492230" lon="-3.5611580">
        <ele>557.2</ele>
        <time>2021-04-04T09:27:30Z</time>
      </trkpt>
      <trkpt lat="40.1492000" lon="-3.5611770">
        <ele>557.2</ele>
        <time>2021-04-04T09:27:31Z</time>
      </trkpt>
      <trkpt lat="40.1491810" lon="-3.5611920">
        <ele>557.2</ele>
        <time>2021-04-04T09:27:32Z</time>
      </trkpt>
      <trkpt lat="40.1491580" lon="-3.5612130">
        <ele>557.2</ele>
        <time>2021-04-04T09:27:33Z</time>
      </trkpt>
      <trkpt lat="40.1491320" lon="-3.5612360">
        <ele>557.0</ele>
        <time>2021-04-04T09:27:34Z</time>
      </trkpt>
      <trkpt lat="40.1491050" lon="-3.5612630">
        <ele>557.0</ele>
        <time>2021-04-04T09:27:35Z</time>
      </trkpt>
      <trkpt lat="40.1490750" lon="-3.5612910">
        <ele>556.8</ele>
        <time>2021-04-04T09:27:36Z</time>
      </trkpt>
      <trkpt lat="40.1490440" lon="-3.5613200">
        <ele>556.8</ele>
        <time>2021-04-04T09:27:37Z</time>
      </trkpt>
      <trkpt lat="40.1490100" lon="-3.5613490">
        <ele>556.6</ele>
        <time>2021-04-04T09:27:38Z</time>
      </trkpt>
      <trkpt lat="40.1489750" lon="-3.5613770">
        <ele>556.4</ele>
        <time>2021-04-04T09:27:39Z</time>
      </trkpt>
      <trkpt lat="40.1489410" lon="-3.5614040">
        <ele>556.4</ele>
        <time>2021-04-04T09:27:40Z</time>
      </trkpt>
      <trkpt lat="40.1489070" lon="-3.5614310">
        <ele>556.2</ele>
        <time>2021-04-04T09:27:41Z</time>
      </trkpt>
      <trkpt lat="40.1488720" lon="-3.5614580">
        <ele>556.0</ele>
        <time>2021-04-04T09:27:42Z</time>
      </trkpt>
      <trkpt lat="40.1488340" lon="-3.5614860">
        <ele>555.8</ele>
        <time>2021-04-04T09:27:43Z</time>
      </trkpt>
      <trkpt lat="40.1487920" lon="-3.5615150">
        <ele>555.6</ele>
        <time>2021-04-04T09:27:44Z</time>
      </trkpt>
      <trkpt lat="40.1487460" lon="-3.5615450">
        <ele>555.4</ele>
        <time>2021-04-04T09:27:45Z</time>
      </trkpt>
      <trkpt lat="40.1487010" lon="-3.5615760">
        <ele>555.0</ele>
        <time>2021-04-04T09:27:46Z</time>
      </trkpt>
      <trkpt lat="40.1486510" lon="-3.5616110">
        <ele>554.8</ele>
        <time>2021-04-04T09:27:47Z</time>
      </trkpt>
      <trkpt lat="40.1485980" lon="-3.5616470">
        <ele>554.4</ele>
        <time>2021-04-04T09:27:48Z</time>
      </trkpt>
      <trkpt lat="40.1485410" lon="-3.5616850">
        <ele>554.2</ele>
        <time>2021-04-04T09:27:49Z</time>
      </trkpt>
      <trkpt lat="40.1484790" lon="-3.5617270">
        <ele>553.8</ele>
        <time>2021-04-04T09:27:50Z</time>
      </trkpt>
      <trkpt lat="40.1484150" lon="-3.5617700">
        <ele>553.2</ele>
        <time>2021-04-04T09:27:51Z</time>
      </trkpt>
      <trkpt lat="40.1483500" lon="-3.5618130">
        <ele>552.8</ele>
        <time>2021-04-04T09:27:52Z</time>
      </trkpt>
      <trkpt lat="40.1482810" lon="-3.5618550">
        <ele>552.4</ele>
        <time>2021-04-04T09:27:53Z</time>
      </trkpt>
      <trkpt lat="40.1482090" lon="-3.5618980">
        <ele>552.0</ele>
        <time>2021-04-04T09:27:54Z</time>
      </trkpt>
      <trkpt lat="40.1481360" lon="-3.5619390">
        <ele>551.6</ele>
        <time>2021-04-04T09:27:55Z</time>
      </trkpt>
      <trkpt lat="40.1480640" lon="-3.5619800">
        <ele>551.0</ele>
        <time>2021-04-04T09:27:56Z</time>
      </trkpt>
      <trkpt lat="40.1479870" lon="-3.5620190">
        <ele>550.6</ele>
        <time>2021-04-04T09:27:57Z</time>
      </trkpt>
      <trkpt lat="40.1479110" lon="-3.5620580">
        <ele>550.2</ele>
        <time>2021-04-04T09:27:58Z</time>
      </trkpt>
      <trkpt lat="40.1478310" lon="-3.5620940">
        <ele>549.6</ele>
        <time>2021-04-04T09:27:59Z</time>
      </trkpt>
      <trkpt lat="40.1477510" lon="-3.5621310">
        <ele>549.2</ele>
        <time>2021-04-04T09:28:00Z</time>
      </trkpt>
      <trkpt lat="40.1476710" lon="-3.5621680">
        <ele>548.6</ele>
        <time>2021-04-04T09:28:01Z</time>
      </trkpt>
      <trkpt lat="40.1475870" lon="-3.5622090">
        <ele>548.2</ele>
        <time>2021-04-04T09:28:02Z</time>
      </trkpt>
      <trkpt lat="40.1475070" lon="-3.5622480">
        <ele>547.8</ele>
        <time>2021-04-04T09:28:03Z</time>
      </trkpt>
      <trkpt lat="40.1474300" lon="-3.5622820">
        <ele>547.6</ele>
        <time>2021-04-04T09:28:04Z</time>
      </trkpt>
      <trkpt lat="40.1473580" lon="-3.5623120">
        <ele>547.4</ele>
        <time>2021-04-04T09:28:05Z</time>
      </trkpt>
      <trkpt lat="40.1472850" lon="-3.5623370">
        <ele>547.2</ele>
        <time>2021-04-04T09:28:06Z</time>
      </trkpt>
      <trkpt lat="40.1472170" lon="-3.5623610">
        <ele>547.2</ele>
        <time>2021-04-04T09:28:07Z</time>
      </trkpt>
      <trkpt lat="40.1471520" lon="-3.5623860">
        <ele>547.2</ele>
        <time>2021-04-04T09:28:08Z</time>
      </trkpt>
      <trkpt lat="40.1470870" lon="-3.5624110">
        <ele>547.2</ele>
        <time>2021-04-04T09:28:09Z</time>
      </trkpt>
      <trkpt lat="40.1470260" lon="-3.5624360">
        <ele>547.2</ele>
        <time>2021-04-04T09:28:10Z</time>
      </trkpt>
      <trkpt lat="40.1469690" lon="-3.5624610">
        <ele>547.2</ele>
        <time>2021-04-04T09:28:11Z</time>
      </trkpt>
      <trkpt lat="40.1469150" lon="-3.5624850">
        <ele>547.2</ele>
        <time>2021-04-04T09:28:12Z</time>
      </trkpt>
      <trkpt lat="40.1468620" lon="-3.5625100">
        <ele>547.4</ele>
        <time>2021-04-04T09:28:13Z</time>
      </trkpt>
      <trkpt lat="40.1468090" lon="-3.5625350">
        <ele>547.6</ele>
        <time>2021-04-04T09:28:14Z</time>
      </trkpt>
      <trkpt lat="40.1467590" lon="-3.5625610">
        <ele>547.8</ele>
        <time>2021-04-04T09:28:15Z</time>
      </trkpt>
      <trkpt lat="40.1467090" lon="-3.5625870">
        <ele>547.8</ele>
        <time>2021-04-04T09:28:16Z</time>
      </trkpt>
      <trkpt lat="40.1466600" lon="-3.5626140">
        <ele>548.0</ele>
        <time>2021-04-04T09:28:17Z</time>
      </trkpt>
      <trkpt lat="40.1466100" lon="-3.5626400">
        <ele>548.0</ele>
        <time>2021-04-04T09:28:18Z</time>
      </trkpt>
      <trkpt lat="40.1465680" lon="-3.5626670">
        <ele>548.2</ele>
        <time>2021-04-04T09:28:19Z</time>
      </trkpt>
      <trkpt lat="40.1465230" lon="-3.5626930">
        <ele>548.4</ele>
        <time>2021-04-04T09:28:20Z</time>
      </trkpt>
      <trkpt lat="40.1464810" lon="-3.5627200">
        <ele>548.4</ele>
        <time>2021-04-04T09:28:21Z</time>
      </trkpt>
      <trkpt lat="40.1464390" lon="-3.5627460">
        <ele>548.4</ele>
        <time>2021-04-04T09:28:22Z</time>
      </trkpt>
      <trkpt lat="40.1463970" lon="-3.5627700">
        <ele>548.6</ele>
        <time>2021-04-04T09:28:23Z</time>
      </trkpt>
      <trkpt lat="40.1463550" lon="-3.5627910">
        <ele>548.6</ele>
        <time>2021-04-04T09:28:24Z</time>
      </trkpt>
      <trkpt lat="40.1463130" lon="-3.5628100">
        <ele>548.6</ele>
        <time>2021-04-04T09:28:25Z</time>
      </trkpt>
      <trkpt lat="40.1462670" lon="-3.5628240">
        <ele>548.6</ele>
        <time>2021-04-04T09:28:26Z</time>
      </trkpt>
      <trkpt lat="40.1462210" lon="-3.5628340">
        <ele>548.6</ele>
        <time>2021-04-04T09:28:27Z</time>
      </trkpt>
      <trkpt lat="40.1461750" lon="-3.5628470">
        <ele>548.4</ele>
        <time>2021-04-04T09:28:28Z</time>
      </trkpt>
      <trkpt lat="40.1461330" lon="-3.5628620">
        <ele>548.4</ele>
        <time>2021-04-04T09:28:29Z</time>
      </trkpt>
      <trkpt lat="40.1460880" lon="-3.5628820">
        <ele>548.2</ele>
        <time>2021-04-04T09:28:30Z</time>
      </trkpt>
      <trkpt lat="40.1460420" lon="-3.5629050">
        <ele>548.2</ele>
        <time>2021-04-04T09:28:31Z</time>
      </trkpt>
      <trkpt lat="40.1459960" lon="-3.5629300">
        <ele>548.0</ele>
        <time>2021-04-04T09:28:32Z</time>
      </trkpt>
      <trkpt lat="40.1459500" lon="-3.5629590">
        <ele>547.8</ele>
        <time>2021-04-04T09:28:33Z</time>
      </trkpt>
      <trkpt lat="40.1459080" lon="-3.5629910">
        <ele>547.6</ele>
        <time>2021-04-04T09:28:34Z</time>
      </trkpt>
      <trkpt lat="40.1458630" lon="-3.5630230">
        <ele>547.2</ele>
        <time>2021-04-04T09:28:35Z</time>
      </trkpt>
      <trkpt lat="40.1458130" lon="-3.5630570">
        <ele>547.0</ele>
        <time>2021-04-04T09:28:36Z</time>
      </trkpt>
      <trkpt lat="40.1457630" lon="-3.5630920">
        <ele>546.6</ele>
        <time>2021-04-04T09:28:37Z</time>
      </trkpt>
      <trkpt lat="40.1457140" lon="-3.5631270">
        <ele>546.2</ele>
        <time>2021-04-04T09:28:38Z</time>
      </trkpt>
      <trkpt lat="40.1456530" lon="-3.5631630">
        <ele>545.6</ele>
        <time>2021-04-04T09:28:39Z</time>
      </trkpt>
      <trkpt lat="40.1455880" lon="-3.5632040">
        <ele>545.0</ele>
        <time>2021-04-04T09:28:40Z</time>
      </trkpt>
      <trkpt lat="40.1455230" lon="-3.5632500">
        <ele>544.4</ele>
        <time>2021-04-04T09:28:41Z</time>
      </trkpt>
      <trkpt lat="40.1454470" lon="-3.5633000">
        <ele>543.4</ele>
        <time>2021-04-04T09:28:42Z</time>
      </trkpt>
      <trkpt lat="40.1453700" lon="-3.5633540">
        <ele>542.6</ele>
        <time>2021-04-04T09:28:43Z</time>
      </trkpt>
      <trkpt lat="40.1452830" lon="-3.5634120">
        <ele>541.4</ele>
        <time>2021-04-04T09:28:44Z</time>
      </trkpt>
      <trkpt lat="40.1451950" lon="-3.5634770">
        <ele>540.4</ele>
        <time>2021-04-04T09:28:45Z</time>
      </trkpt>
      <trkpt lat="40.1451070" lon="-3.5635460">
        <ele>539.4</ele>
        <time>2021-04-04T09:28:46Z</time>
      </trkpt>
      <trkpt lat="40.1450160" lon="-3.5636160">
        <ele>538.6</ele>
        <time>2021-04-04T09:28:47Z</time>
      </trkpt>
      <trkpt lat="40.1449240" lon="-3.5636890">
        <ele>537.8</ele>
        <time>2021-04-04T09:28:48Z</time>
      </trkpt>
      <trkpt lat="40.1448360" lon="-3.5637600">
        <ele>537.0</ele>
        <time>2021-04-04T09:28:49Z</time>
      </trkpt>
      <trkpt lat="40.1447450" lon="-3.5638280">
        <ele>536.2</ele>
        <time>2021-04-04T09:28:50Z</time>
      </trkpt>
      <trkpt lat="40.1446530" lon="-3.5638940">
        <ele>535.6</ele>
        <time>2021-04-04T09:28:51Z</time>
      </trkpt>
      <trkpt lat="40.1445620" lon="-3.5639590">
        <ele>535.2</ele>
        <time>2021-04-04T09:28:52Z</time>
      </trkpt>
      <trkpt lat="40.1444780" lon="-3.5640290">
        <ele>534.8</ele>
        <time>2021-04-04T09:28:53Z</time>
      </trkpt>
      <trkpt lat="40.1443940" lon="-3.5641050">
        <ele>534.4</ele>
        <time>2021-04-04T09:28:54Z</time>
      </trkpt>
      <trkpt lat="40.1443140" lon="-3.5641820">
        <ele>534.0</ele>
        <time>2021-04-04T09:28:55Z</time>
      </trkpt>
      <trkpt lat="40.1442340" lon="-3.5642590">
        <ele>533.6</ele>
        <time>2021-04-04T09:28:56Z</time>
      </trkpt>
      <trkpt lat="40.1441540" lon="-3.5643350">
        <ele>533.0</ele>
        <time>2021-04-04T09:28:57Z</time>
      </trkpt>
      <trkpt lat="40.1440730" lon="-3.5644100">
        <ele>532.6</ele>
        <time>2021-04-04T09:28:58Z</time>
      </trkpt>
      <trkpt lat="40.1439930" lon="-3.5644810">
        <ele>532.2</ele>
        <time>2021-04-04T09:28:59Z</time>
      </trkpt>
      <trkpt lat="40.1439090" lon="-3.5645520">
        <ele>531.8</ele>
        <time>2021-04-04T09:29:00Z</time>
      </trkpt>
      <trkpt lat="40.1438290" lon="-3.5646230">
        <ele>531.4</ele>
        <time>2021-04-04T09:29:01Z</time>
      </trkpt>
      <trkpt lat="40.1437490" lon="-3.5646910">
        <ele>531.0</ele>
        <time>2021-04-04T09:29:02Z</time>
      </trkpt>
      <trkpt lat="40.1436620" lon="-3.5647550">
        <ele>530.4</ele>
        <time>2021-04-04T09:29:03Z</time>
      </trkpt>
      <trkpt lat="40.1435810" lon="-3.5648150">
        <ele>530.0</ele>
        <time>2021-04-04T09:29:04Z</time>
      </trkpt>
      <trkpt lat="40.1434970" lon="-3.5648740">
        <ele>529.4</ele>
        <time>2021-04-04T09:29:05Z</time>
      </trkpt>
      <trkpt lat="40.1434060" lon="-3.5649360">
        <ele>528.8</ele>
        <time>2021-04-04T09:29:06Z</time>
      </trkpt>
      <trkpt lat="40.1433180" lon="-3.5649960">
        <ele>528.4</ele>
        <time>2021-04-04T09:29:07Z</time>
      </trkpt>
      <trkpt lat="40.1432270" lon="-3.5650570">
        <ele>527.6</ele>
        <time>2021-04-04T09:29:08Z</time>
      </trkpt>
      <trkpt lat="40.1431350" lon="-3.5651160">
        <ele>527.0</ele>
        <time>2021-04-04T09:29:09Z</time>
      </trkpt>
      <trkpt lat="40.1430400" lon="-3.5651720">
        <ele>526.4</ele>
        <time>2021-04-04T09:29:10Z</time>
      </trkpt>
      <trkpt lat="40.1429440" lon="-3.5652270">
        <ele>525.6</ele>
        <time>2021-04-04T09:29:11Z</time>
      </trkpt>
      <trkpt lat="40.1428450" lon="-3.5652830">
        <ele>525.0</ele>
        <time>2021-04-04T09:29:12Z</time>
      </trkpt>
      <trkpt lat="40.1427420" lon="-3.5653370">
        <ele>524.4</ele>
        <time>2021-04-04T09:29:13Z</time>
      </trkpt>
      <trkpt lat="40.1426430" lon="-3.5653920">
        <ele>523.6</ele>
        <time>2021-04-04T09:29:14Z</time>
      </trkpt>
      <trkpt lat="40.1425440" lon="-3.5654490">
        <ele>523.0</ele>
        <time>2021-04-04T09:29:15Z</time>
      </trkpt>
      <trkpt lat="40.1424480" lon="-3.5655080">
        <ele>522.4</ele>
        <time>2021-04-04T09:29:16Z</time>
      </trkpt>
      <trkpt lat="40.1423450" lon="-3.5655750">
        <ele>521.6</ele>
        <time>2021-04-04T09:29:17Z</time>
      </trkpt>
      <trkpt lat="40.1422540" lon="-3.5656440">
        <ele>521.0</ele>
        <time>2021-04-04T09:29:18Z</time>
      </trkpt>
      <trkpt lat="40.1421620" lon="-3.5657110">
        <ele>520.6</ele>
        <time>2021-04-04T09:29:19Z</time>
      </trkpt>
      <trkpt lat="40.1420670" lon="-3.5657700">
        <ele>520.2</ele>
        <time>2021-04-04T09:29:20Z</time>
      </trkpt>
      <trkpt lat="40.1419720" lon="-3.5658180">
        <ele>519.8</ele>
        <time>2021-04-04T09:29:21Z</time>
      </trkpt>
      <trkpt lat="40.1418760" lon="-3.5658560">
        <ele>519.8</ele>
        <time>2021-04-04T09:29:22Z</time>
      </trkpt>
      <trkpt lat="40.1417850" lon="-3.5658870">
        <ele>519.6</ele>
        <time>2021-04-04T09:29:23Z</time>
      </trkpt>
      <trkpt lat="40.1416970" lon="-3.5659150">
        <ele>519.4</ele>
        <time>2021-04-04T09:29:24Z</time>
      </trkpt>
      <trkpt lat="40.1416130" lon="-3.5659430">
        <ele>519.2</ele>
        <time>2021-04-04T09:29:25Z</time>
      </trkpt>
      <trkpt lat="40.1415290" lon="-3.5659750">
        <ele>518.8</ele>
        <time>2021-04-04T09:29:26Z</time>
      </trkpt>
      <trkpt lat="40.1414490" lon="-3.5660110">
        <ele>518.6</ele>
        <time>2021-04-04T09:29:27Z</time>
      </trkpt>
      <trkpt lat="40.1413770" lon="-3.5660520">
        <ele>518.6</ele>
        <time>2021-04-04T09:29:28Z</time>
      </trkpt>
      <trkpt lat="40.1413080" lon="-3.5660990">
        <ele>518.4</ele>
        <time>2021-04-04T09:29:29Z</time>
      </trkpt>
      <trkpt lat="40.1412470" lon="-3.5661520">
        <ele>518.2</ele>
        <time>2021-04-04T09:29:30Z</time>
      </trkpt>
      <trkpt lat="40.1411860" lon="-3.5662100">
        <ele>518.0</ele>
        <time>2021-04-04T09:29:31Z</time>
      </trkpt>
      <trkpt lat="40.1411290" lon="-3.5662720">
        <ele>517.8</ele>
        <time>2021-04-04T09:29:32Z</time>
      </trkpt>
      <trkpt lat="40.1410710" lon="-3.5663360">
        <ele>517.6</ele>
        <time>2021-04-04T09:29:33Z</time>
      </trkpt>
      <trkpt lat="40.1410180" lon="-3.5664010">
        <ele>517.6</ele>
        <time>2021-04-04T09:29:34Z</time>
      </trkpt>
      <trkpt lat="40.1409650" lon="-3.5664680">
        <ele>517.4</ele>
        <time>2021-04-04T09:29:35Z</time>
      </trkpt>
      <trkpt lat="40.1409110" lon="-3.5665350">
        <ele>517.2</ele>
        <time>2021-04-04T09:29:36Z</time>
      </trkpt>
      <trkpt lat="40.1408540" lon="-3.5666020">
        <ele>517.0</ele>
        <time>2021-04-04T09:29:37Z</time>
      </trkpt>
      <trkpt lat="40.1407970" lon="-3.5666680">
        <ele>516.6</ele>
        <time>2021-04-04T09:29:38Z</time>
      </trkpt>
      <trkpt lat="40.1407390" lon="-3.5667340">
        <ele>516.4</ele>
        <time>2021-04-04T09:29:39Z</time>
      </trkpt>
      <trkpt lat="40.1406820" lon="-3.5668010">
        <ele>516.0</ele>
        <time>2021-04-04T09:29:40Z</time>
      </trkpt>
      <trkpt lat="40.1406250" lon="-3.5668680">
        <ele>515.8</ele>
        <time>2021-04-04T09:29:41Z</time>
      </trkpt>
      <trkpt lat="40.1405640" lon="-3.5669280">
        <ele>515.4</ele>
        <time>2021-04-04T09:29:42Z</time>
      </trkpt>
      <trkpt lat="40.1404950" lon="-3.5669830">
        <ele>515.0</ele>
        <time>2021-04-04T09:29:43Z</time>
      </trkpt>
      <trkpt lat="40.1404270" lon="-3.5670340">
        <ele>514.6</ele>
        <time>2021-04-04T09:29:44Z</time>
      </trkpt>
      <trkpt lat="40.1403580" lon="-3.5670860">
        <ele>514.4</ele>
        <time>2021-04-04T09:29:45Z</time>
      </trkpt>
      <trkpt lat="40.1402890" lon="-3.5671290">
        <ele>514.2</ele>
        <time>2021-04-04T09:29:46Z</time>
      </trkpt>
      <trkpt lat="40.1402170" lon="-3.5671620">
        <ele>514.0</ele>
        <time>2021-04-04T09:29:47Z</time>
      </trkpt>
      <trkpt lat="40.1401440" lon="-3.5671890">
        <ele>513.8</ele>
        <time>2021-04-04T09:29:48Z</time>
      </trkpt>
      <trkpt lat="40.1400720" lon="-3.5672110">
        <ele>513.8</ele>
        <time>2021-04-04T09:29:49Z</time>
      </trkpt>
      <trkpt lat="40.1399990" lon="-3.5672330">
        <ele>513.6</ele>
        <time>2021-04-04T09:29:50Z</time>
      </trkpt>
      <trkpt lat="40.1399270" lon="-3.5672570">
        <ele>513.4</ele>
        <time>2021-04-04T09:29:51Z</time>
      </trkpt>
      <trkpt lat="40.1398660" lon="-3.5672850">
        <ele>513.2</ele>
        <time>2021-04-04T09:29:52Z</time>
      </trkpt>
      <trkpt lat="40.1398010" lon="-3.5673180">
        <ele>513.2</ele>
        <time>2021-04-04T09:29:53Z</time>
      </trkpt>
      <trkpt lat="40.1397400" lon="-3.5673610">
        <ele>513.0</ele>
        <time>2021-04-04T09:29:54Z</time>
      </trkpt>
      <trkpt lat="40.1396830" lon="-3.5674080">
        <ele>512.8</ele>
        <time>2021-04-04T09:29:55Z</time>
      </trkpt>
      <trkpt lat="40.1396290" lon="-3.5674580">
        <ele>512.6</ele>
        <time>2021-04-04T09:29:56Z</time>
      </trkpt>
      <trkpt lat="40.1395760" lon="-3.5675110">
        <ele>512.4</ele>
        <time>2021-04-04T09:29:57Z</time>
      </trkpt>
      <trkpt lat="40.1395260" lon="-3.5675650">
        <ele>512.4</ele>
        <time>2021-04-04T09:29:58Z</time>
      </trkpt>
      <trkpt lat="40.1394770" lon="-3.5676210">
        <ele>512.2</ele>
        <time>2021-04-04T09:29:59Z</time>
      </trkpt>
      <trkpt lat="40.1394270" lon="-3.5676770">
        <ele>512.0</ele>
        <time>2021-04-04T09:30:00Z</time>
      </trkpt>
      <trkpt lat="40.1393740" lon="-3.5677320">
        <ele>511.8</ele>
        <time>2021-04-04T09:30:01Z</time>
      </trkpt>
      <trkpt lat="40.1393240" lon="-3.5677880">
        <ele>511.6</ele>
        <time>2021-04-04T09:30:02Z</time>
      </trkpt>
      <trkpt lat="40.1392750" lon="-3.5678410">
        <ele>511.4</ele>
        <time>2021-04-04T09:30:03Z</time>
      </trkpt>
      <trkpt lat="40.1392210" lon="-3.5678930">
        <ele>511.2</ele>
        <time>2021-04-04T09:30:04Z</time>
      </trkpt>
      <trkpt lat="40.1391720" lon="-3.5679460">
        <ele>511.2</ele>
        <time>2021-04-04T09:30:05Z</time>
      </trkpt>
      <trkpt lat="40.1391220" lon="-3.5679960">
        <ele>511.0</ele>
        <time>2021-04-04T09:30:06Z</time>
      </trkpt>
      <trkpt lat="40.1390720" lon="-3.5680450">
        <ele>510.8</ele>
        <time>2021-04-04T09:30:07Z</time>
      </trkpt>
      <trkpt lat="40.1390230" lon="-3.5680920">
        <ele>510.8</ele>
        <time>2021-04-04T09:30:08Z</time>
      </trkpt>
      <trkpt lat="40.1389690" lon="-3.5681390">
        <ele>510.6</ele>
        <time>2021-04-04T09:30:09Z</time>
      </trkpt>
      <trkpt lat="40.1389200" lon="-3.5681860">
        <ele>510.6</ele>
        <time>2021-04-04T09:30:10Z</time>
      </trkpt>
      <trkpt lat="40.1388630" lon="-3.5682290">
        <ele>510.4</ele>
        <time>2021-04-04T09:30:11Z</time>
      </trkpt>
      <trkpt lat="40.1388090" lon="-3.5682690">
        <ele>510.2</ele>
        <time>2021-04-04T09:30:12Z</time>
      </trkpt>
      <trkpt lat="40.1387560" lon="-3.5683120">
        <ele>510.0</ele>
        <time>2021-04-04T09:30:13Z</time>
      </trkpt>
      <trkpt lat="40.1387060" lon="-3.5683560">
        <ele>510.0</ele>
        <time>2021-04-04T09:30:14Z</time>
      </trkpt>
      <trkpt lat="40.1386530" lon="-3.5684010">
        <ele>509.8</ele>
        <time>2021-04-04T09:30:15Z</time>
      </trkpt>
      <trkpt lat="40.1386030" lon="-3.5684450">
        <ele>509.6</ele>
        <time>2021-04-04T09:30:16Z</time>
      </trkpt>
      <trkpt lat="40.1385540" lon="-3.5684870">
        <ele>509.4</ele>
        <time>2021-04-04T09:30:17Z</time>
      </trkpt>
      <trkpt lat="40.1385040" lon="-3.5685280">
        <ele>509.4</ele>
        <time>2021-04-04T09:30:18Z</time>
      </trkpt>
      <trkpt lat="40.1384510" lon="-3.5685650">
        <ele>509.2</ele>
        <time>2021-04-04T09:30:19Z</time>
      </trkpt>
      <trkpt lat="40.1383970" lon="-3.5686030">
        <ele>509.2</ele>
        <time>2021-04-04T09:30:20Z</time>
      </trkpt>
      <trkpt lat="40.1383480" lon="-3.5686410">
        <ele>509.0</ele>
        <time>2021-04-04T09:30:21Z</time>
      </trkpt>
      <trkpt lat="40.1383020" lon="-3.5686720">
        <ele>508.8</ele>
        <time>2021-04-04T09:30:22Z</time>
      </trkpt>
      <trkpt lat="40.1382520" lon="-3.5687010">
        <ele>508.6</ele>
        <time>2021-04-04T09:30:23Z</time>
      </trkpt>
      <trkpt lat="40.1381990" lon="-3.5687340">
        <ele>508.6</ele>
        <time>2021-04-04T09:30:24Z</time>
      </trkpt>
      <trkpt lat="40.1381570" lon="-3.5687750">
        <ele>508.4</ele>
        <time>2021-04-04T09:30:25Z</time>
      </trkpt>
      <trkpt lat="40.1381190" lon="-3.5688350">
        <ele>508.4</ele>
        <time>2021-04-04T09:30:26Z</time>
      </trkpt>
      <trkpt lat="40.1380880" lon="-3.5688940">
        <ele>508.2</ele>
        <time>2021-04-04T09:30:27Z</time>
      </trkpt>
      <trkpt lat="40.1380500" lon="-3.5689500">
        <ele>508.2</ele>
        <time>2021-04-04T09:30:28Z</time>
      </trkpt>
      <trkpt lat="40.1380120" lon="-3.5690000">
        <ele>508.0</ele>
        <time>2021-04-04T09:30:29Z</time>
      </trkpt>
      <trkpt lat="40.1379700" lon="-3.5690500">
        <ele>508.0</ele>
        <time>2021-04-04T09:30:30Z</time>
      </trkpt>
      <trkpt lat="40.1379320" lon="-3.5691050">
        <ele>507.8</ele>
        <time>2021-04-04T09:30:31Z</time>
      </trkpt>
      <trkpt lat="40.1378900" lon="-3.5691590">
        <ele>507.6</ele>
        <time>2021-04-04T09:30:32Z</time>
      </trkpt>
      <trkpt lat="40.1378480" lon="-3.5692140">
        <ele>507.4</ele>
        <time>2021-04-04T09:30:33Z</time>
      </trkpt>
      <trkpt lat="40.1378060" lon="-3.5692690">
        <ele>507.2</ele>
        <time>2021-04-04T09:30:34Z</time>
      </trkpt>
      <trkpt lat="40.1377560" lon="-3.5693230">
        <ele>507.0</ele>
        <time>2021-04-04T09:30:35Z</time>
      </trkpt>
      <trkpt lat="40.1377110" lon="-3.5693770">
        <ele>506.6</ele>
        <time>2021-04-04T09:30:36Z</time>
      </trkpt>
      <trkpt lat="40.1376650" lon="-3.5694350">
        <ele>506.4</ele>
        <time>2021-04-04T09:30:37Z</time>
      </trkpt>
      <trkpt lat="40.1376230" lon="-3.5694920">
        <ele>506.2</ele>
        <time>2021-04-04T09:30:38Z</time>
      </trkpt>
      <trkpt lat="40.1375850" lon="-3.5695500">
        <ele>506.0</ele>
        <time>2021-04-04T09:30:39Z</time>
      </trkpt>
      <trkpt lat="40.1375540" lon="-3.5696110">
        <ele>505.6</ele>
        <time>2021-04-04T09:30:40Z</time>
      </trkpt>
      <trkpt lat="40.1375310" lon="-3.5696760">
        <ele>505.4</ele>
        <time>2021-04-04T09:30:41Z</time>
      </trkpt>
      <trkpt lat="40.1375160" lon="-3.5697450">
        <ele>505.2</ele>
        <time>2021-04-04T09:30:42Z</time>
      </trkpt>
      <trkpt lat="40.1375050" lon="-3.5698120">
        <ele>505.0</ele>
        <time>2021-04-04T09:30:43Z</time>
      </trkpt>
      <trkpt lat="40.1374970" lon="-3.5698760">
        <ele>504.8</ele>
        <time>2021-04-04T09:30:44Z</time>
      </trkpt>
      <trkpt lat="40.1374930" lon="-3.5699400">
        <ele>504.6</ele>
        <time>2021-04-04T09:30:45Z</time>
      </trkpt>
      <trkpt lat="40.1374850" lon="-3.5700010">
        <ele>504.6</ele>
        <time>2021-04-04T09:30:46Z</time>
      </trkpt>
      <trkpt lat="40.1374780" lon="-3.5700610">
        <ele>504.4</ele>
        <time>2021-04-04T09:30:47Z</time>
      </trkpt>
      <trkpt lat="40.1374700" lon="-3.5701200">
        <ele>504.4</ele>
        <time>2021-04-04T09:30:48Z</time>
      </trkpt>
      <trkpt lat="40.1374630" lon="-3.5701770">
        <ele>504.4</ele>
        <time>2021-04-04T09:30:49Z</time>
      </trkpt>
      <trkpt lat="40.1374590" lon="-3.5702340">
        <ele>504.4</ele>
        <time>2021-04-04T09:30:50Z</time>
      </trkpt>
      <trkpt lat="40.1374510" lon="-3.5702910">
        <ele>504.4</ele>
        <time>2021-04-04T09:30:51Z</time>
      </trkpt>
      <trkpt lat="40.1374400" lon="-3.5703460">
        <ele>504.4</ele>
        <time>2021-04-04T09:30:52Z</time>
      </trkpt>
      <trkpt lat="40.1374280" lon="-3.5704030">
        <ele>504.4</ele>
        <time>2021-04-04T09:30:53Z</time>
      </trkpt>
      <trkpt lat="40.1374210" lon="-3.5704600">
        <ele>504.4</ele>
        <time>2021-04-04T09:30:54Z</time>
      </trkpt>
      <trkpt lat="40.1374090" lon="-3.5705160">
        <ele>504.4</ele>
        <time>2021-04-04T09:30:55Z</time>
      </trkpt>
      <trkpt lat="40.1373980" lon="-3.5705710">
        <ele>504.4</ele>
        <time>2021-04-04T09:30:56Z</time>
      </trkpt>
      <trkpt lat="40.1373940" lon="-3.5706250">
        <ele>504.4</ele>
        <time>2021-04-04T09:30:57Z</time>
      </trkpt>
      <trkpt lat="40.1373900" lon="-3.5706780">
        <ele>504.4</ele>
        <time>2021-04-04T09:30:58Z</time>
      </trkpt>
      <trkpt lat="40.1373860" lon="-3.5707290">
        <ele>504.4</ele>
        <time>2021-04-04T09:30:59Z</time>
      </trkpt>
      <trkpt lat="40.1373830" lon="-3.5707800">
        <ele>504.4</ele>
        <time>2021-04-04T09:31:00Z</time>
      </trkpt>
      <trkpt lat="40.1373830" lon="-3.5708270">
        <ele>504.4</ele>
        <time>2021-04-04T09:31:01Z</time>
      </trkpt>
      <trkpt lat="40.1373830" lon="-3.5708720">
        <ele>504.4</ele>
        <time>2021-04-04T09:31:02Z</time>
      </trkpt>
      <trkpt lat="40.1373750" lon="-3.5709150">
        <ele>504.4</ele>
        <time>2021-04-04T09:31:03Z</time>
      </trkpt>
      <trkpt lat="40.1373630" lon="-3.5709510">
        <ele>504.4</ele>
        <time>2021-04-04T09:31:04Z</time>
      </trkpt>
      <trkpt lat="40.1373440" lon="-3.5709770">
        <ele>504.4</ele>
        <time>2021-04-04T09:31:05Z</time>
      </trkpt>
      <trkpt lat="40.1373180" lon="-3.5709870">
        <ele>504.2</ele>
        <time>2021-04-04T09:31:06Z</time>
      </trkpt>
      <trkpt lat="40.1372800" lon="-3.5709870">
        <ele>504.2</ele>
        <time>2021-04-04T09:31:07Z</time>
      </trkpt>
      <trkpt lat="40.1372410" lon="-3.5709810">
        <ele>504.0</ele>
        <time>2021-04-04T09:31:08Z</time>
      </trkpt>
      <trkpt lat="40.1371960" lon="-3.5709740">
        <ele>503.8</ele>
        <time>2021-04-04T09:31:09Z</time>
      </trkpt>
      <trkpt lat="40.1371540" lon="-3.5709670">
        <ele>503.6</ele>
        <time>2021-04-04T09:31:10Z</time>
      </trkpt>
      <trkpt lat="40.1371120" lon="-3.5709590">
        <ele>503.2</ele>
        <time>2021-04-04T09:31:11Z</time>
      </trkpt>
      <trkpt lat="40.1370700" lon="-3.5709520">
        <ele>503.0</ele>
        <time>2021-04-04T09:31:12Z</time>
      </trkpt>
      <trkpt lat="40.1370350" lon="-3.5709450">
        <ele>502.8</ele>
        <time>2021-04-04T09:31:13Z</time>
      </trkpt>
      <trkpt lat="40.1370010" lon="-3.5709360">
        <ele>502.4</ele>
        <time>2021-04-04T09:31:14Z</time>
      </trkpt>
      <trkpt lat="40.1369670" lon="-3.5709310">
        <ele>502.2</ele>
        <time>2021-04-04T09:31:15Z</time>
      </trkpt>
      <trkpt lat="40.1369360" lon="-3.5709290">
        <ele>502.0</ele>
        <time>2021-04-04T09:31:16Z</time>
      </trkpt>
      <trkpt lat="40.1369020" lon="-3.5709250">
        <ele>501.8</ele>
        <time>2021-04-04T09:31:17Z</time>
      </trkpt>
      <trkpt lat="40.1368710" lon="-3.5709220">
        <ele>501.6</ele>
        <time>2021-04-04T09:31:18Z</time>
      </trkpt>
      <trkpt lat="40.1368410" lon="-3.5709210">
        <ele>501.4</ele>
        <time>2021-04-04T09:31:19Z</time>
      </trkpt>
      <trkpt lat="40.1368180" lon="-3.5709230">
        <ele>501.2</ele>
        <time>2021-04-04T09:31:20Z</time>
      </trkpt>
      <trkpt lat="40.1367950" lon="-3.5709240">
        <ele>501.0</ele>
        <time>2021-04-04T09:31:21Z</time>
      </trkpt>
      <trkpt lat="40.1367720" lon="-3.5709260">
        <ele>500.8</ele>
        <time>2021-04-04T09:31:22Z</time>
      </trkpt>
      <trkpt lat="40.1367610" lon="-3.5709290">
        <ele>500.6</ele>
        <time>2021-04-04T09:31:23Z</time>
      </trkpt>
      <trkpt lat="40.1367530" lon="-3.5709300">
        <ele>500.6</ele>
        <time>2021-04-04T09:31:24Z</time>
      </trkpt>
      <trkpt lat="40.1367340" lon="-3.5709280">
        <ele>500.4</ele>
        <time>2021-04-04T09:31:26Z</time>
      </trkpt>
      <trkpt lat="40.1367150" lon="-3.5709210">
        <ele>500.4</ele>
        <time>2021-04-04T09:31:27Z</time>
      </trkpt>
      <trkpt lat="40.1366960" lon="-3.5709070">
        <ele>500.4</ele>
        <time>2021-04-04T09:31:28Z</time>
      </trkpt>
      <trkpt lat="40.1366810" lon="-3.5708900">
        <ele>500.2</ele>
        <time>2021-04-04T09:31:29Z</time>
      </trkpt>
      <trkpt lat="40.1366650" lon="-3.5708800">
        <ele>500.2</ele>
        <time>2021-04-04T09:31:30Z</time>
      </trkpt>
      <trkpt lat="40.1366480" lon="-3.5708780">
        <ele>500.2</ele>
        <time>2021-04-04T09:31:31Z</time>
      </trkpt>
      <trkpt lat="40.1366450" lon="-3.5708800">
        <ele>500.0</ele>
        <time>2021-04-04T09:31:32Z</time>
      </trkpt>
      <trkpt lat="40.1366430" lon="-3.5708810">
        <ele>500.0</ele>
        <time>2021-04-04T09:31:33Z</time>
      </trkpt>
      <trkpt lat="40.1366410" lon="-3.5708820">
        <ele>500.0</ele>
        <time>2021-04-04T09:31:34Z</time>
      </trkpt>
      <trkpt lat="40.1366380" lon="-3.5708840">
        <ele>500.0</ele>
        <time>2021-04-04T09:31:35Z</time>
      </trkpt>
      <trkpt lat="40.1366360" lon="-3.5708850">
        <ele>500.0</ele>
        <time>2021-04-04T09:31:36Z</time>
      </trkpt>
      <trkpt lat="40.1366340" lon="-3.5708860">
        <ele>500.0</ele>
        <time>2021-04-04T09:31:37Z</time>
      </trkpt>
      <trkpt lat="40.1366320" lon="-3.5708870">
        <ele>500.2</ele>
        <time>2021-04-04T09:31:38Z</time>
      </trkpt>
      <trkpt lat="40.1366290" lon="-3.5708890">
        <ele>500.2</ele>
        <time>2021-04-04T09:31:39Z</time>
      </trkpt>
      <trkpt lat="40.1366270" lon="-3.5708900">
        <ele>500.2</ele>
        <time>2021-04-04T09:31:40Z</time>
      </trkpt>
      <trkpt lat="40.1366250" lon="-3.5708910">
        <ele>500.2</ele>
        <time>2021-04-04T09:31:41Z</time>
      </trkpt>
      <trkpt lat="40.1366220" lon="-3.5708930">
        <ele>500.4</ele>
        <time>2021-04-04T10:00:56Z</time>
      </trkpt>
      <trkpt lat="40.1366200" lon="-3.5708940">
        <ele>500.4</ele>
        <time>2021-04-04T10:00:57Z</time>
      </trkpt>
      <trkpt lat="40.1366730" lon="-3.5709300">
        <ele>500.4</ele>
        <time>2021-04-04T10:00:58Z</time>
      </trkpt>
      <trkpt lat="40.1366770" lon="-3.5709360">
        <ele>500.4</ele>
        <time>2021-04-04T10:00:59Z</time>
      </trkpt>
      <trkpt lat="40.1366810" lon="-3.5709400">
        <ele>500.4</ele>
        <time>2021-04-04T10:01:00Z</time>
      </trkpt>
      <trkpt lat="40.1366840" lon="-3.5709430">
        <ele>500.4</ele>
        <time>2021-04-04T10:01:01Z</time>
      </trkpt>
      <trkpt lat="40.1366840" lon="-3.5709430">
        <ele>500.4</ele>
        <time>2021-04-04T10:01:02Z</time>
      </trkpt>
      <trkpt lat="40.1366840" lon="-3.5709430">
        <ele>500.6</ele>
        <time>2021-04-04T10:01:32Z</time>
      </trkpt>
      <trkpt lat="40.1366960" lon="-3.5709530">
        <ele>500.6</ele>
        <time>2021-04-04T10:01:33Z</time>
      </trkpt>
      <trkpt lat="40.1367150" lon="-3.5709770">
        <ele>500.6</ele>
        <time>2021-04-04T10:01:34Z</time>
      </trkpt>
      <trkpt lat="40.1367230" lon="-3.5709930">
        <ele>500.4</ele>
        <time>2021-04-04T10:01:35Z</time>
      </trkpt>
      <trkpt lat="40.1367260" lon="-3.5710110">
        <ele>500.4</ele>
        <time>2021-04-04T10:01:36Z</time>
      </trkpt>
      <trkpt lat="40.1367300" lon="-3.5710310">
        <ele>500.4</ele>
        <time>2021-04-04T10:01:37Z</time>
      </trkpt>
      <trkpt lat="40.1367380" lon="-3.5710500">
        <ele>500.4</ele>
        <time>2021-04-04T10:01:38Z</time>
      </trkpt>
      <trkpt lat="40.1367420" lon="-3.5710670">
        <ele>500.4</ele>
        <time>2021-04-04T10:01:39Z</time>
      </trkpt>
      <trkpt lat="40.1367420" lon="-3.5710780">
        <ele>500.4</ele>
        <time>2021-04-04T10:01:40Z</time>
      </trkpt>
      <trkpt lat="40.1367420" lon="-3.5710820">
        <ele>500.4</ele>
        <time>2021-04-04T10:01:41Z</time>
      </trkpt>
      <trkpt lat="40.1367420" lon="-3.5710830">
        <ele>500.4</ele>
        <time>2021-04-04T10:01:42Z</time>
      </trkpt>
      <trkpt lat="40.1367420" lon="-3.5710830">
        <ele>500.4</ele>
        <time>2021-04-04T10:01:43Z</time>
      </trkpt>
      <trkpt lat="40.1367420" lon="-3.5710830">
        <ele>500.4</ele>
        <time>2021-04-04T10:01:44Z</time>
      </trkpt>
      <trkpt lat="40.1367420" lon="-3.5710830">
        <ele>500.4</ele>
        <time>2021-04-04T10:01:54Z</time>
      </trkpt>
      <trkpt lat="40.1367420" lon="-3.5710950">
        <ele>500.4</ele>
        <time>2021-04-04T10:01:55Z</time>
      </trkpt>
      <trkpt lat="40.1367450" lon="-3.5711220">
        <ele>500.4</ele>
        <time>2021-04-04T10:01:56Z</time>
      </trkpt>
      <trkpt lat="40.1367450" lon="-3.5711410">
        <ele>500.4</ele>
        <time>2021-04-04T10:01:57Z</time>
      </trkpt>
      <trkpt lat="40.1367490" lon="-3.5711640">
        <ele>500.4</ele>
        <time>2021-04-04T10:01:58Z</time>
      </trkpt>
      <trkpt lat="40.1367490" lon="-3.5711930">
        <ele>500.2</ele>
        <time>2021-04-04T10:01:59Z</time>
      </trkpt>
      <trkpt lat="40.1367490" lon="-3.5712290">
        <ele>500.2</ele>
        <time>2021-04-04T10:02:00Z</time>
      </trkpt>
      <trkpt lat="40.1367450" lon="-3.5712680">
        <ele>500.2</ele>
        <time>2021-04-04T10:02:01Z</time>
      </trkpt>
      <trkpt lat="40.1367450" lon="-3.5713090">
        <ele>500.2</ele>
        <time>2021-04-04T10:02:02Z</time>
      </trkpt>
      <trkpt lat="40.1367420" lon="-3.5713500">
        <ele>500.0</ele>
        <time>2021-04-04T10:02:03Z</time>
      </trkpt>
      <trkpt lat="40.1367420" lon="-3.5713900">
        <ele>500.0</ele>
        <time>2021-04-04T10:02:04Z</time>
      </trkpt>
      <trkpt lat="40.1367380" lon="-3.5714330">
        <ele>500.0</ele>
        <time>2021-04-04T10:02:05Z</time>
      </trkpt>
      <trkpt lat="40.1367420" lon="-3.5714730">
        <ele>499.8</ele>
        <time>2021-04-04T10:02:06Z</time>
      </trkpt>
      <trkpt lat="40.1367380" lon="-3.5715110">
        <ele>499.8</ele>
        <time>2021-04-04T10:02:07Z</time>
      </trkpt>
      <trkpt lat="40.1367340" lon="-3.5715460">
        <ele>499.8</ele>
        <time>2021-04-04T10:02:08Z</time>
      </trkpt>
      <trkpt lat="40.1367300" lon="-3.5715800">
        <ele>499.8</ele>
        <time>2021-04-04T10:02:09Z</time>
      </trkpt>
      <trkpt lat="40.1367230" lon="-3.5716130">
        <ele>499.8</ele>
        <time>2021-04-04T10:02:10Z</time>
      </trkpt>
      <trkpt lat="40.1367150" lon="-3.5716420">
        <ele>499.8</ele>
        <time>2021-04-04T10:02:11Z</time>
      </trkpt>
      <trkpt lat="40.1367110" lon="-3.5716690">
        <ele>499.8</ele>
        <time>2021-04-04T10:02:12Z</time>
      </trkpt>
      <trkpt lat="40.1367110" lon="-3.5716950">
        <ele>499.8</ele>
        <time>2021-04-04T10:02:13Z</time>
      </trkpt>
      <trkpt lat="40.1367070" lon="-3.5717190">
        <ele>499.8</ele>
        <time>2021-04-04T10:02:14Z</time>
      </trkpt>
      <trkpt lat="40.1367040" lon="-3.5717420">
        <ele>499.8</ele>
        <time>2021-04-04T10:02:15Z</time>
      </trkpt>
      <trkpt lat="40.1367040" lon="-3.5717650">
        <ele>499.6</ele>
        <time>2021-04-04T10:02:16Z</time>
      </trkpt>
      <trkpt lat="40.1367000" lon="-3.5717870">
        <ele>499.6</ele>
        <time>2021-04-04T10:02:17Z</time>
      </trkpt>
      <trkpt lat="40.1367000" lon="-3.5718130">
        <ele>499.6</ele>
        <time>2021-04-04T10:02:18Z</time>
      </trkpt>
      <trkpt lat="40.1367000" lon="-3.5718370">
        <ele>499.6</ele>
        <time>2021-04-04T10:02:19Z</time>
      </trkpt>
      <trkpt lat="40.1367000" lon="-3.5718590">
        <ele>499.6</ele>
        <time>2021-04-04T10:02:20Z</time>
      </trkpt>
      <trkpt lat="40.1366960" lon="-3.5718790">
        <ele>499.6</ele>
        <time>2021-04-04T10:02:21Z</time>
      </trkpt>
      <trkpt lat="40.1367000" lon="-3.5719010">
        <ele>499.6</ele>
        <time>2021-04-04T10:02:22Z</time>
      </trkpt>
      <trkpt lat="40.1367040" lon="-3.5719270">
        <ele>499.6</ele>
        <time>2021-04-04T10:02:23Z</time>
      </trkpt>
      <trkpt lat="40.1367070" lon="-3.5719540">
        <ele>499.6</ele>
        <time>2021-04-04T10:02:24Z</time>
      </trkpt>
      <trkpt lat="40.1367070" lon="-3.5719840">
        <ele>499.6</ele>
        <time>2021-04-04T10:02:25Z</time>
      </trkpt>
      <trkpt lat="40.1367040" lon="-3.5720160">
        <ele>499.4</ele>
        <time>2021-04-04T10:02:26Z</time>
      </trkpt>
      <trkpt lat="40.1367070" lon="-3.5720520">
        <ele>499.4</ele>
        <time>2021-04-04T10:02:27Z</time>
      </trkpt>
      <trkpt lat="40.1367110" lon="-3.5720890">
        <ele>499.4</ele>
        <time>2021-04-04T10:02:28Z</time>
      </trkpt>
      <trkpt lat="40.1367190" lon="-3.5721230">
        <ele>499.4</ele>
        <time>2021-04-04T10:02:29Z</time>
      </trkpt>
      <trkpt lat="40.1367260" lon="-3.5721560">
        <ele>499.4</ele>
        <time>2021-04-04T10:02:30Z</time>
      </trkpt>
      <trkpt lat="40.1367300" lon="-3.5721920">
        <ele>499.2</ele>
        <time>2021-04-04T10:02:31Z</time>
      </trkpt>
      <trkpt lat="40.1367380" lon="-3.5722340">
        <ele>499.2</ele>
        <time>2021-04-04T10:02:32Z</time>
      </trkpt>
      <trkpt lat="40.1367490" lon="-3.5722790">
        <ele>499.0</ele>
        <time>2021-04-04T10:02:33Z</time>
      </trkpt>
      <trkpt lat="40.1367610" lon="-3.5723220">
        <ele>499.0</ele>
        <time>2021-04-04T10:02:34Z</time>
      </trkpt>
      <trkpt lat="40.1367680" lon="-3.5723680">
        <ele>498.8</ele>
        <time>2021-04-04T10:02:35Z</time>
      </trkpt>
      <trkpt lat="40.1367760" lon="-3.5724160">
        <ele>498.6</ele>
        <time>2021-04-04T10:02:36Z</time>
      </trkpt>
      <trkpt lat="40.1367840" lon="-3.5724630">
        <ele>498.4</ele>
        <time>2021-04-04T10:02:37Z</time>
      </trkpt>
      <trkpt lat="40.1367950" lon="-3.5725100">
        <ele>498.4</ele>
        <time>2021-04-04T10:02:38Z</time>
      </trkpt>
      <trkpt lat="40.1368030" lon="-3.5725590">
        <ele>498.2</ele>
        <time>2021-04-04T10:02:39Z</time>
      </trkpt>
      <trkpt lat="40.1368100" lon="-3.5726120">
        <ele>498.0</ele>
        <time>2021-04-04T10:02:40Z</time>
      </trkpt>
      <trkpt lat="40.1368180" lon="-3.5726630">
        <ele>498.0</ele>
        <time>2021-04-04T10:02:41Z</time>
      </trkpt>
      <trkpt lat="40.1368220" lon="-3.5727160">
        <ele>497.8</ele>
        <time>2021-04-04T10:02:42Z</time>
      </trkpt>
      <trkpt lat="40.1368290" lon="-3.5727710">
        <ele>497.6</ele>
        <time>2021-04-04T10:02:43Z</time>
      </trkpt>
      <trkpt lat="40.1368330" lon="-3.5728190">
        <ele>497.4</ele>
        <time>2021-04-04T10:02:44Z</time>
      </trkpt>
      <trkpt lat="40.1368330" lon="-3.5728620">
        <ele>497.4</ele>
        <time>2021-04-04T10:02:45Z</time>
      </trkpt>
      <trkpt lat="40.1368370" lon="-3.5729040">
        <ele>497.2</ele>
        <time>2021-04-04T10:02:46Z</time>
      </trkpt>
      <trkpt lat="40.1368370" lon="-3.5729460">
        <ele>497.2</ele>
        <time>2021-04-04T10:02:47Z</time>
      </trkpt>
      <trkpt lat="40.1368410" lon="-3.5729850">
        <ele>497.0</ele>
        <time>2021-04-04T10:02:48Z</time>
      </trkpt>
      <trkpt lat="40.1368450" lon="-3.5730200">
        <ele>496.8</ele>
        <time>2021-04-04T10:02:49Z</time>
      </trkpt>
      <trkpt lat="40.1368480" lon="-3.5730530">
        <ele>496.8</ele>
        <time>2021-04-04T10:02:50Z</time>
      </trkpt>
      <trkpt lat="40.1368520" lon="-3.5730870">
        <ele>496.6</ele>
        <time>2021-04-04T10:02:51Z</time>
      </trkpt>
      <trkpt lat="40.1368600" lon="-3.5731220">
        <ele>496.6</ele>
        <time>2021-04-04T10:02:52Z</time>
      </trkpt>
      <trkpt lat="40.1368680" lon="-3.5731540">
        <ele>496.4</ele>
        <time>2021-04-04T10:02:53Z</time>
      </trkpt>
      <trkpt lat="40.1368750" lon="-3.5731830">
        <ele>496.4</ele>
        <time>2021-04-04T10:02:54Z</time>
      </trkpt>
      <trkpt lat="40.1368830" lon="-3.5732080">
        <ele>496.2</ele>
        <time>2021-04-04T10:02:55Z</time>
      </trkpt>
      <trkpt lat="40.1368870" lon="-3.5732320">
        <ele>496.2</ele>
        <time>2021-04-04T10:02:56Z</time>
      </trkpt>
      <trkpt lat="40.1368900" lon="-3.5732570">
        <ele>496.0</ele>
        <time>2021-04-04T10:02:57Z</time>
      </trkpt>
      <trkpt lat="40.1368980" lon="-3.5732810">
        <ele>496.0</ele>
        <time>2021-04-04T10:02:58Z</time>
      </trkpt>
      <trkpt lat="40.1369020" lon="-3.5733020">
        <ele>496.0</ele>
        <time>2021-04-04T10:02:59Z</time>
      </trkpt>
      <trkpt lat="40.1369060" lon="-3.5733200">
        <ele>495.8</ele>
        <time>2021-04-04T10:03:00Z</time>
      </trkpt>
      <trkpt lat="40.1369090" lon="-3.5733400">
        <ele>495.8</ele>
        <time>2021-04-04T10:03:01Z</time>
      </trkpt>
      <trkpt lat="40.1369090" lon="-3.5733650">
        <ele>495.8</ele>
        <time>2021-04-04T10:03:02Z</time>
      </trkpt>
      <trkpt lat="40.1369130" lon="-3.5733940">
        <ele>495.6</ele>
        <time>2021-04-04T10:03:03Z</time>
      </trkpt>
      <trkpt lat="40.1369250" lon="-3.5734270">
        <ele>495.6</ele>
        <time>2021-04-04T10:03:04Z</time>
      </trkpt>
      <trkpt lat="40.1369320" lon="-3.5734630">
        <ele>495.6</ele>
        <time>2021-04-04T10:03:05Z</time>
      </trkpt>
      <trkpt lat="40.1369400" lon="-3.5735020">
        <ele>495.4</ele>
        <time>2021-04-04T10:03:06Z</time>
      </trkpt>
      <trkpt lat="40.1369480" lon="-3.5735460">
        <ele>495.2</ele>
        <time>2021-04-04T10:03:07Z</time>
      </trkpt>
      <trkpt lat="40.1369510" lon="-3.5735960">
        <ele>495.2</ele>
        <time>2021-04-04T10:03:08Z</time>
      </trkpt>
      <trkpt lat="40.1369550" lon="-3.5736470">
        <ele>495.0</ele>
        <time>2021-04-04T10:03:09Z</time>
      </trkpt>
      <trkpt lat="40.1369630" lon="-3.5737020">
        <ele>494.8</ele>
        <time>2021-04-04T10:03:10Z</time>
      </trkpt>
      <trkpt lat="40.1369670" lon="-3.5737600">
        <ele>494.6</ele>
        <time>2021-04-04T10:03:11Z</time>
      </trkpt>
      <trkpt lat="40.1369740" lon="-3.5738200">
        <ele>494.4</ele>
        <time>2021-04-04T10:03:12Z</time>
      </trkpt>
      <trkpt lat="40.1369780" lon="-3.5738810">
        <ele>494.4</ele>
        <time>2021-04-04T10:03:13Z</time>
      </trkpt>
      <trkpt lat="40.1369820" lon="-3.5739410">
        <ele>494.2</ele>
        <time>2021-04-04T10:03:14Z</time>
      </trkpt>
      <trkpt lat="40.1369900" lon="-3.5740020">
        <ele>494.2</ele>
        <time>2021-04-04T10:03:15Z</time>
      </trkpt>
      <trkpt lat="40.1369930" lon="-3.5740610">
        <ele>494.2</ele>
        <time>2021-04-04T10:03:16Z</time>
      </trkpt>
      <trkpt lat="40.1370010" lon="-3.5741180">
        <ele>494.2</ele>
        <time>2021-04-04T10:03:17Z</time>
      </trkpt>
      <trkpt lat="40.1370050" lon="-3.5741770">
        <ele>494.0</ele>
        <time>2021-04-04T10:03:18Z</time>
      </trkpt>
      <trkpt lat="40.1370050" lon="-3.5742330">
        <ele>494.0</ele>
        <time>2021-04-04T10:03:19Z</time>
      </trkpt>
      <trkpt lat="40.1370090" lon="-3.5742870">
        <ele>494.0</ele>
        <time>2021-04-04T10:03:20Z</time>
      </trkpt>
      <trkpt lat="40.1370120" lon="-3.5743420">
        <ele>494.0</ele>
        <time>2021-04-04T10:03:21Z</time>
      </trkpt>
      <trkpt lat="40.1370160" lon="-3.5743930">
        <ele>494.0</ele>
        <time>2021-04-04T10:03:22Z</time>
      </trkpt>
      <trkpt lat="40.1370200" lon="-3.5744410">
        <ele>493.8</ele>
        <time>2021-04-04T10:03:23Z</time>
      </trkpt>
      <trkpt lat="40.1370280" lon="-3.5744890">
        <ele>493.8</ele>
        <time>2021-04-04T10:03:24Z</time>
      </trkpt>
      <trkpt lat="40.1370320" lon="-3.5745370">
        <ele>493.8</ele>
        <time>2021-04-04T10:03:25Z</time>
      </trkpt>
      <trkpt lat="40.1370390" lon="-3.5745840">
        <ele>493.8</ele>
        <time>2021-04-04T10:03:26Z</time>
      </trkpt>
      <trkpt lat="40.1370430" lon="-3.5746290">
        <ele>493.8</ele>
        <time>2021-04-04T10:03:27Z</time>
      </trkpt>
      <trkpt lat="40.1370470" lon="-3.5746740">
        <ele>493.8</ele>
        <time>2021-04-04T10:03:28Z</time>
      </trkpt>
      <trkpt lat="40.1370540" lon="-3.5747190">
        <ele>493.8</ele>
        <time>2021-04-04T10:03:29Z</time>
      </trkpt>
      <trkpt lat="40.1370620" lon="-3.5747650">
        <ele>493.8</ele>
        <time>2021-04-04T10:03:30Z</time>
      </trkpt>
      <trkpt lat="40.1370740" lon="-3.5748090">
        <ele>493.8</ele>
        <time>2021-04-04T10:03:31Z</time>
      </trkpt>
      <trkpt lat="40.1370810" lon="-3.5748530">
        <ele>493.8</ele>
        <time>2021-04-04T10:03:32Z</time>
      </trkpt>
      <trkpt lat="40.1370850" lon="-3.5748980">
        <ele>493.8</ele>
        <time>2021-04-04T10:03:33Z</time>
      </trkpt>
      <trkpt lat="40.1370930" lon="-3.5749430">
        <ele>493.8</ele>
        <time>2021-04-04T10:03:34Z</time>
      </trkpt>
      <trkpt lat="40.1370960" lon="-3.5749850">
        <ele>493.6</ele>
        <time>2021-04-04T10:03:35Z</time>
      </trkpt>
      <trkpt lat="40.1371040" lon="-3.5750280">
        <ele>493.6</ele>
        <time>2021-04-04T10:03:36Z</time>
      </trkpt>
      <trkpt lat="40.1371150" lon="-3.5750720">
        <ele>493.6</ele>
        <time>2021-04-04T10:03:37Z</time>
      </trkpt>
      <trkpt lat="40.1371270" lon="-3.5751160">
        <ele>493.6</ele>
        <time>2021-04-04T10:03:38Z</time>
      </trkpt>
      <trkpt lat="40.1371460" lon="-3.5751620">
        <ele>493.6</ele>
        <time>2021-04-04T10:03:39Z</time>
      </trkpt>
      <trkpt lat="40.1371610" lon="-3.5752070">
        <ele>493.6</ele>
        <time>2021-04-04T10:03:40Z</time>
      </trkpt>
      <trkpt lat="40.1371770" lon="-3.5752510">
        <ele>493.6</ele>
        <time>2021-04-04T10:03:41Z</time>
      </trkpt>
      <trkpt lat="40.1371960" lon="-3.5752950">
        <ele>493.6</ele>
        <time>2021-04-04T10:03:42Z</time>
      </trkpt>
      <trkpt lat="40.1372150" lon="-3.5753390">
        <ele>493.8</ele>
        <time>2021-04-04T10:03:43Z</time>
      </trkpt>
      <trkpt lat="40.1372340" lon="-3.5753780">
        <ele>493.8</ele>
        <time>2021-04-04T10:03:44Z</time>
      </trkpt>
      <trkpt lat="40.1372570" lon="-3.5754170">
        <ele>493.8</ele>
        <time>2021-04-04T10:03:45Z</time>
      </trkpt>
      <trkpt lat="40.1372800" lon="-3.5754570">
        <ele>494.0</ele>
        <time>2021-04-04T10:03:46Z</time>
      </trkpt>
      <trkpt lat="40.1372990" lon="-3.5754980">
        <ele>494.0</ele>
        <time>2021-04-04T10:03:47Z</time>
      </trkpt>
      <trkpt lat="40.1373180" lon="-3.5755390">
        <ele>494.0</ele>
        <time>2021-04-04T10:03:48Z</time>
      </trkpt>
      <trkpt lat="40.1373410" lon="-3.5755770">
        <ele>494.0</ele>
        <time>2021-04-04T10:03:49Z</time>
      </trkpt>
      <trkpt lat="40.1373630" lon="-3.5756150">
        <ele>494.0</ele>
        <time>2021-04-04T10:03:50Z</time>
      </trkpt>
      <trkpt lat="40.1373860" lon="-3.5756550">
        <ele>494.0</ele>
        <time>2021-04-04T10:03:51Z</time>
      </trkpt>
      <trkpt lat="40.1374090" lon="-3.5756950">
        <ele>494.0</ele>
        <time>2021-04-04T10:03:52Z</time>
      </trkpt>
      <trkpt lat="40.1374320" lon="-3.5757350">
        <ele>494.0</ele>
        <time>2021-04-04T10:03:53Z</time>
      </trkpt>
      <trkpt lat="40.1374510" lon="-3.5757760">
        <ele>494.2</ele>
        <time>2021-04-04T10:03:54Z</time>
      </trkpt>
      <trkpt lat="40.1374740" lon="-3.5758160">
        <ele>494.2</ele>
        <time>2021-04-04T10:03:55Z</time>
      </trkpt>
      <trkpt lat="40.1374930" lon="-3.5758560">
        <ele>494.2</ele>
        <time>2021-04-04T10:03:56Z</time>
      </trkpt>
      <trkpt lat="40.1375120" lon="-3.5758950">
        <ele>494.2</ele>
        <time>2021-04-04T10:03:57Z</time>
      </trkpt>
      <trkpt lat="40.1375270" lon="-3.5759320">
        <ele>494.2</ele>
        <time>2021-04-04T10:03:58Z</time>
      </trkpt>
      <trkpt lat="40.1375390" lon="-3.5759670">
        <ele>494.2</ele>
        <time>2021-04-04T10:03:59Z</time>
      </trkpt>
      <trkpt lat="40.1375540" lon="-3.5760010">
        <ele>494.2</ele>
        <time>2021-04-04T10:04:00Z</time>
      </trkpt>
      <trkpt lat="40.1375690" lon="-3.5760330">
        <ele>494.4</ele>
        <time>2021-04-04T10:04:01Z</time>
      </trkpt>
      <trkpt lat="40.1375810" lon="-3.5760620">
        <ele>494.4</ele>
        <time>2021-04-04T10:04:02Z</time>
      </trkpt>
      <trkpt lat="40.1375920" lon="-3.5760890">
        <ele>494.4</ele>
        <time>2021-04-04T10:04:03Z</time>
      </trkpt>
      <trkpt lat="40.1376040" lon="-3.5761130">
        <ele>494.6</ele>
        <time>2021-04-04T10:04:04Z</time>
      </trkpt>
      <trkpt lat="40.1376110" lon="-3.5761320">
        <ele>494.6</ele>
        <time>2021-04-04T10:04:05Z</time>
      </trkpt>
      <trkpt lat="40.1376190" lon="-3.5761480">
        <ele>494.6</ele>
        <time>2021-04-04T10:04:06Z</time>
      </trkpt>
      <trkpt lat="40.1376380" lon="-3.5761630">
        <ele>494.6</ele>
        <time>2021-04-04T10:04:07Z</time>
      </trkpt>
      <trkpt lat="40.1376610" lon="-3.5761770">
        <ele>494.6</ele>
        <time>2021-04-04T10:04:08Z</time>
      </trkpt>
      <trkpt lat="40.1376800" lon="-3.5762000">
        <ele>494.6</ele>
        <time>2021-04-04T10:04:09Z</time>
      </trkpt>
      <trkpt lat="40.1376950" lon="-3.5762270">
        <ele>494.6</ele>
        <time>2021-04-04T10:04:10Z</time>
      </trkpt>
      <trkpt lat="40.1377110" lon="-3.5762530">
        <ele>494.6</ele>
        <time>2021-04-04T10:04:11Z</time>
      </trkpt>
      <trkpt lat="40.1377260" lon="-3.5762790">
        <ele>494.6</ele>
        <time>2021-04-04T10:04:12Z</time>
      </trkpt>
      <trkpt lat="40.1377410" lon="-3.5763080">
        <ele>494.6</ele>
        <time>2021-04-04T10:04:13Z</time>
      </trkpt>
      <trkpt lat="40.1377530" lon="-3.5763380">
        <ele>494.8</ele>
        <time>2021-04-04T10:04:14Z</time>
      </trkpt>
      <trkpt lat="40.1377680" lon="-3.5763670">
        <ele>494.8</ele>
        <time>2021-04-04T10:04:15Z</time>
      </trkpt>
      <trkpt lat="40.1377830" lon="-3.5763930">
        <ele>494.8</ele>
        <time>2021-04-04T10:04:16Z</time>
      </trkpt>
      <trkpt lat="40.1378020" lon="-3.5764210">
        <ele>495.0</ele>
        <time>2021-04-04T10:04:17Z</time>
      </trkpt>
      <trkpt lat="40.1378210" lon="-3.5764520">
        <ele>495.0</ele>
        <time>2021-04-04T10:04:18Z</time>
      </trkpt>
      <trkpt lat="40.1378360" lon="-3.5764820">
        <ele>495.0</ele>
        <time>2021-04-04T10:04:19Z</time>
      </trkpt>
      <trkpt lat="40.1378560" lon="-3.5765130">
        <ele>495.0</ele>
        <time>2021-04-04T10:04:20Z</time>
      </trkpt>
      <trkpt lat="40.1378750" lon="-3.5765450">
        <ele>495.0</ele>
        <time>2021-04-04T10:04:21Z</time>
      </trkpt>
      <trkpt lat="40.1378900" lon="-3.5765790">
        <ele>495.2</ele>
        <time>2021-04-04T10:04:22Z</time>
      </trkpt>
      <trkpt lat="40.1379090" lon="-3.5766110">
        <ele>495.2</ele>
        <time>2021-04-04T10:04:23Z</time>
      </trkpt>
      <trkpt lat="40.1379280" lon="-3.5766430">
        <ele>495.2</ele>
        <time>2021-04-04T10:04:24Z</time>
      </trkpt>
      <trkpt lat="40.1379430" lon="-3.5766730">
        <ele>495.2</ele>
        <time>2021-04-04T10:04:25Z</time>
      </trkpt>
      <trkpt lat="40.1379620" lon="-3.5767030">
        <ele>495.4</ele>
        <time>2021-04-04T10:04:26Z</time>
      </trkpt>
      <trkpt lat="40.1379780" lon="-3.5767340">
        <ele>495.4</ele>
        <time>2021-04-04T10:04:27Z</time>
      </trkpt>
      <trkpt lat="40.1379970" lon="-3.5767660">
        <ele>495.4</ele>
        <time>2021-04-04T10:04:28Z</time>
      </trkpt>
      <trkpt lat="40.1380080" lon="-3.5767990">
        <ele>495.4</ele>
        <time>2021-04-04T10:04:29Z</time>
      </trkpt>
      <trkpt lat="40.1380230" lon="-3.5768290">
        <ele>495.6</ele>
        <time>2021-04-04T10:04:30Z</time>
      </trkpt>
      <trkpt lat="40.1380420" lon="-3.5768600">
        <ele>495.6</ele>
        <time>2021-04-04T10:04:31Z</time>
      </trkpt>
      <trkpt lat="40.1380580" lon="-3.5768910">
        <ele>495.6</ele>
        <time>2021-04-04T10:04:32Z</time>
      </trkpt>
      <trkpt lat="40.1380730" lon="-3.5769230">
        <ele>495.6</ele>
        <time>2021-04-04T10:04:33Z</time>
      </trkpt>
      <trkpt lat="40.1380880" lon="-3.5769570">
        <ele>495.8</ele>
        <time>2021-04-04T10:04:34Z</time>
      </trkpt>
      <trkpt lat="40.1381030" lon="-3.5769900">
        <ele>495.8</ele>
        <time>2021-04-04T10:04:35Z</time>
      </trkpt>
      <trkpt lat="40.1381230" lon="-3.5770230">
        <ele>495.8</ele>
        <time>2021-04-04T10:04:36Z</time>
      </trkpt>
      <trkpt lat="40.1381380" lon="-3.5770550">
        <ele>495.8</ele>
        <time>2021-04-04T10:04:37Z</time>
      </trkpt>
      <trkpt lat="40.1381530" lon="-3.5770880">
        <ele>495.6</ele>
        <time>2021-04-04T10:04:38Z</time>
      </trkpt>
      <trkpt lat="40.1381720" lon="-3.5771220">
        <ele>495.6</ele>
        <time>2021-04-04T10:04:39Z</time>
      </trkpt>
      <trkpt lat="40.1381870" lon="-3.5771570">
        <ele>495.6</ele>
        <time>2021-04-04T10:04:40Z</time>
      </trkpt>
      <trkpt lat="40.1382100" lon="-3.5771940">
        <ele>495.6</ele>
        <time>2021-04-04T10:04:41Z</time>
      </trkpt>
      <trkpt lat="40.1382290" lon="-3.5772320">
        <ele>495.6</ele>
        <time>2021-04-04T10:04:42Z</time>
      </trkpt>
      <trkpt lat="40.1382480" lon="-3.5772720">
        <ele>495.6</ele>
        <time>2021-04-04T10:04:43Z</time>
      </trkpt>
      <trkpt lat="40.1382680" lon="-3.5773120">
        <ele>495.6</ele>
        <time>2021-04-04T10:04:44Z</time>
      </trkpt>
      <trkpt lat="40.1382870" lon="-3.5773510">
        <ele>495.6</ele>
        <time>2021-04-04T10:04:45Z</time>
      </trkpt>
      <trkpt lat="40.1383090" lon="-3.5773860">
        <ele>495.6</ele>
        <time>2021-04-04T10:04:46Z</time>
      </trkpt>
      <trkpt lat="40.1383250" lon="-3.5774200">
        <ele>495.6</ele>
        <time>2021-04-04T10:04:47Z</time>
      </trkpt>
      <trkpt lat="40.1383480" lon="-3.5774540">
        <ele>495.6</ele>
        <time>2021-04-04T10:04:48Z</time>
      </trkpt>
      <trkpt lat="40.1383630" lon="-3.5774850">
        <ele>495.6</ele>
        <time>2021-04-04T10:04:49Z</time>
      </trkpt>
      <trkpt lat="40.1383780" lon="-3.5775170">
        <ele>495.6</ele>
        <time>2021-04-04T10:04:50Z</time>
      </trkpt>
      <trkpt lat="40.1383970" lon="-3.5775520">
        <ele>495.6</ele>
        <time>2021-04-04T10:04:51Z</time>
      </trkpt>
      <trkpt lat="40.1384200" lon="-3.5775890">
        <ele>495.6</ele>
        <time>2021-04-04T10:04:52Z</time>
      </trkpt>
      <trkpt lat="40.1384430" lon="-3.5776260">
        <ele>495.6</ele>
        <time>2021-04-04T10:04:53Z</time>
      </trkpt>
      <trkpt lat="40.1384660" lon="-3.5776630">
        <ele>495.6</ele>
        <time>2021-04-04T10:04:54Z</time>
      </trkpt>
      <trkpt lat="40.1384890" lon="-3.5777000">
        <ele>495.6</ele>
        <time>2021-04-04T10:04:55Z</time>
      </trkpt>
      <trkpt lat="40.1385080" lon="-3.5777360">
        <ele>495.6</ele>
        <time>2021-04-04T10:04:56Z</time>
      </trkpt>
      <trkpt lat="40.1385310" lon="-3.5777730">
        <ele>495.6</ele>
        <time>2021-04-04T10:04:57Z</time>
      </trkpt>
      <trkpt lat="40.1385540" lon="-3.5778100">
        <ele>495.6</ele>
        <time>2021-04-04T10:04:58Z</time>
      </trkpt>
      <trkpt lat="40.1385730" lon="-3.5778470">
        <ele>495.8</ele>
        <time>2021-04-04T10:04:59Z</time>
      </trkpt>
      <trkpt lat="40.1385960" lon="-3.5778840">
        <ele>495.8</ele>
        <time>2021-04-04T10:05:00Z</time>
      </trkpt>
      <trkpt lat="40.1386180" lon="-3.5779210">
        <ele>495.8</ele>
        <time>2021-04-04T10:05:01Z</time>
      </trkpt>
      <trkpt lat="40.1386410" lon="-3.5779550">
        <ele>495.8</ele>
        <time>2021-04-04T10:05:02Z</time>
      </trkpt>
      <trkpt lat="40.1386640" lon="-3.5779900">
        <ele>495.8</ele>
        <time>2021-04-04T10:05:03Z</time>
      </trkpt>
      <trkpt lat="40.1386790" lon="-3.5780230">
        <ele>495.8</ele>
        <time>2021-04-04T10:05:04Z</time>
      </trkpt>
      <trkpt lat="40.1386950" lon="-3.5780580">
        <ele>495.8</ele>
        <time>2021-04-04T10:05:05Z</time>
      </trkpt>
      <trkpt lat="40.1387100" lon="-3.5780930">
        <ele>495.8</ele>
        <time>2021-04-04T10:05:06Z</time>
      </trkpt>
      <trkpt lat="40.1387290" lon="-3.5781300">
        <ele>495.8</ele>
        <time>2021-04-04T10:05:07Z</time>
      </trkpt>
      <trkpt lat="40.1387440" lon="-3.5781680">
        <ele>495.8</ele>
        <time>2021-04-04T10:05:08Z</time>
      </trkpt>
      <trkpt lat="40.1387670" lon="-3.5782050">
        <ele>495.8</ele>
        <time>2021-04-04T10:05:09Z</time>
      </trkpt>
      <trkpt lat="40.1387860" lon="-3.5782400">
        <ele>495.8</ele>
        <time>2021-04-04T10:05:10Z</time>
      </trkpt>
      <trkpt lat="40.1388050" lon="-3.5782760">
        <ele>495.8</ele>
        <time>2021-04-04T10:05:11Z</time>
      </trkpt>
      <trkpt lat="40.1388240" lon="-3.5783130">
        <ele>495.8</ele>
        <time>2021-04-04T10:05:12Z</time>
      </trkpt>
      <trkpt lat="40.1388470" lon="-3.5783500">
        <ele>495.8</ele>
        <time>2021-04-04T10:05:13Z</time>
      </trkpt>
      <trkpt lat="40.1388700" lon="-3.5783840">
        <ele>495.8</ele>
        <time>2021-04-04T10:05:14Z</time>
      </trkpt>
      <trkpt lat="40.1388930" lon="-3.5784190">
        <ele>495.8</ele>
        <time>2021-04-04T10:05:15Z</time>
      </trkpt>
      <trkpt lat="40.1389160" lon="-3.5784560">
        <ele>495.8</ele>
        <time>2021-04-04T10:05:16Z</time>
      </trkpt>
      <trkpt lat="40.1389390" lon="-3.5784950">
        <ele>495.8</ele>
        <time>2021-04-04T10:05:17Z</time>
      </trkpt>
      <trkpt lat="40.1389580" lon="-3.5785370">
        <ele>495.6</ele>
        <time>2021-04-04T10:05:18Z</time>
      </trkpt>
      <trkpt lat="40.1389810" lon="-3.5785790">
        <ele>495.6</ele>
        <time>2021-04-04T10:05:19Z</time>
      </trkpt>
      <trkpt lat="40.1390040" lon="-3.5786220">
        <ele>495.4</ele>
        <time>2021-04-04T10:05:20Z</time>
      </trkpt>
      <trkpt lat="40.1390300" lon="-3.5786660">
        <ele>495.4</ele>
        <time>2021-04-04T10:05:21Z</time>
      </trkpt>
      <trkpt lat="40.1390570" lon="-3.5787130">
        <ele>495.2</ele>
        <time>2021-04-04T10:05:22Z</time>
      </trkpt>
      <trkpt lat="40.1390800" lon="-3.5787600">
        <ele>495.2</ele>
        <time>2021-04-04T10:05:23Z</time>
      </trkpt>
      <trkpt lat="40.1391070" lon="-3.5788080">
        <ele>495.0</ele>
        <time>2021-04-04T10:05:24Z</time>
      </trkpt>
      <trkpt lat="40.1391330" lon="-3.5788540">
        <ele>495.0</ele>
        <time>2021-04-04T10:05:25Z</time>
      </trkpt>
      <trkpt lat="40.1391560" lon="-3.5789000">
        <ele>495.0</ele>
        <time>2021-04-04T10:05:26Z</time>
      </trkpt>
      <trkpt lat="40.1391790" lon="-3.5789470">
        <ele>495.0</ele>
        <time>2021-04-04T10:05:27Z</time>
      </trkpt>
      <trkpt lat="40.1392060" lon="-3.5789940">
        <ele>494.8</ele>
        <time>2021-04-04T10:05:28Z</time>
      </trkpt>
      <trkpt lat="40.1392330" lon="-3.5790390">
        <ele>494.8</ele>
        <time>2021-04-04T10:05:29Z</time>
      </trkpt>
      <trkpt lat="40.1392630" lon="-3.5790860">
        <ele>494.8</ele>
        <time>2021-04-04T10:05:30Z</time>
      </trkpt>
      <trkpt lat="40.1392900" lon="-3.5791340">
        <ele>494.8</ele>
        <time>2021-04-04T10:05:31Z</time>
      </trkpt>
      <trkpt lat="40.1393170" lon="-3.5791810">
        <ele>494.6</ele>
        <time>2021-04-04T10:05:32Z</time>
      </trkpt>
      <trkpt lat="40.1393430" lon="-3.5792300">
        <ele>494.6</ele>
        <time>2021-04-04T10:05:33Z</time>
      </trkpt>
      <trkpt lat="40.1393740" lon="-3.5792780">
        <ele>494.6</ele>
        <time>2021-04-04T10:05:34Z</time>
      </trkpt>
      <trkpt lat="40.1394000" lon="-3.5793260">
        <ele>494.4</ele>
        <time>2021-04-04T10:05:35Z</time>
      </trkpt>
      <trkpt lat="40.1394270" lon="-3.5793750">
        <ele>494.4</ele>
        <time>2021-04-04T10:05:36Z</time>
      </trkpt>
      <trkpt lat="40.1394540" lon="-3.5794240">
        <ele>494.4</ele>
        <time>2021-04-04T10:05:37Z</time>
      </trkpt>
      <trkpt lat="40.1394810" lon="-3.5794720">
        <ele>494.4</ele>
        <time>2021-04-04T10:05:38Z</time>
      </trkpt>
      <trkpt lat="40.1395070" lon="-3.5795210">
        <ele>494.4</ele>
        <time>2021-04-04T10:05:39Z</time>
      </trkpt>
      <trkpt lat="40.1395340" lon="-3.5795700">
        <ele>494.2</ele>
        <time>2021-04-04T10:05:40Z</time>
      </trkpt>
      <trkpt lat="40.1395610" lon="-3.5796170">
        <ele>494.2</ele>
        <time>2021-04-04T10:05:41Z</time>
      </trkpt>
      <trkpt lat="40.1395870" lon="-3.5796620">
        <ele>494.2</ele>
        <time>2021-04-04T10:05:42Z</time>
      </trkpt>
      <trkpt lat="40.1396180" lon="-3.5797060">
        <ele>494.0</ele>
        <time>2021-04-04T10:05:43Z</time>
      </trkpt>
      <trkpt lat="40.1396450" lon="-3.5797480">
        <ele>494.0</ele>
        <time>2021-04-04T10:05:44Z</time>
      </trkpt>
      <trkpt lat="40.1396790" lon="-3.5797880">
        <ele>494.0</ele>
        <time>2021-04-04T10:05:45Z</time>
      </trkpt>
      <trkpt lat="40.1397090" lon="-3.5798240">
        <ele>494.0</ele>
        <time>2021-04-04T10:05:46Z</time>
      </trkpt>
      <trkpt lat="40.1397400" lon="-3.5798550">
        <ele>494.2</ele>
        <time>2021-04-04T10:05:47Z</time>
      </trkpt>
      <trkpt lat="40.1397710" lon="-3.5798840">
        <ele>494.0</ele>
        <time>2021-04-04T10:05:48Z</time>
      </trkpt>
      <trkpt lat="40.1397930" lon="-3.5799200">
        <ele>494.0</ele>
        <time>2021-04-04T10:05:49Z</time>
      </trkpt>
      <trkpt lat="40.1398160" lon="-3.5799600">
        <ele>494.0</ele>
        <time>2021-04-04T10:05:50Z</time>
      </trkpt>
      <trkpt lat="40.1398350" lon="-3.5800000">
        <ele>494.0</ele>
        <time>2021-04-04T10:05:51Z</time>
      </trkpt>
      <trkpt lat="40.1398580" lon="-3.5800380">
        <ele>494.0</ele>
        <time>2021-04-04T10:05:52Z</time>
      </trkpt>
      <trkpt lat="40.1398890" lon="-3.5800750">
        <ele>494.0</ele>
        <time>2021-04-04T10:05:53Z</time>
      </trkpt>
      <trkpt lat="40.1399150" lon="-3.5801100">
        <ele>493.8</ele>
        <time>2021-04-04T10:05:54Z</time>
      </trkpt>
      <trkpt lat="40.1399460" lon="-3.5801460">
        <ele>493.8</ele>
        <time>2021-04-04T10:05:55Z</time>
      </trkpt>
      <trkpt lat="40.1399730" lon="-3.5801840">
        <ele>493.8</ele>
        <time>2021-04-04T10:05:56Z</time>
      </trkpt>
      <trkpt lat="40.1400030" lon="-3.5802240">
        <ele>493.8</ele>
        <time>2021-04-04T10:05:57Z</time>
      </trkpt>
      <trkpt lat="40.1400300" lon="-3.5802620">
        <ele>493.8</ele>
        <time>2021-04-04T10:05:58Z</time>
      </trkpt>
      <trkpt lat="40.1400600" lon="-3.5802990">
        <ele>493.8</ele>
        <time>2021-04-04T10:05:59Z</time>
      </trkpt>
      <trkpt lat="40.1400950" lon="-3.5803350">
        <ele>493.6</ele>
        <time>2021-04-04T10:06:00Z</time>
      </trkpt>
      <trkpt lat="40.1401250" lon="-3.5803730">
        <ele>493.6</ele>
        <time>2021-04-04T10:06:01Z</time>
      </trkpt>
      <trkpt lat="40.1401520" lon="-3.5804110">
        <ele>493.6</ele>
        <time>2021-04-04T10:06:02Z</time>
      </trkpt>
      <trkpt lat="40.1401830" lon="-3.5804500">
        <ele>493.6</ele>
        <time>2021-04-04T10:06:03Z</time>
      </trkpt>
      <trkpt lat="40.1402130" lon="-3.5804890">
        <ele>493.6</ele>
        <time>2021-04-04T10:06:04Z</time>
      </trkpt>
      <trkpt lat="40.1402470" lon="-3.5805310">
        <ele>493.6</ele>
        <time>2021-04-04T10:06:05Z</time>
      </trkpt>
      <trkpt lat="40.1402780" lon="-3.5805720">
        <ele>493.4</ele>
        <time>2021-04-04T10:06:06Z</time>
      </trkpt>
      <trkpt lat="40.1403080" lon="-3.5806150">
        <ele>493.4</ele>
        <time>2021-04-04T10:06:07Z</time>
      </trkpt>
      <trkpt lat="40.1403390" lon="-3.5806560">
        <ele>493.4</ele>
        <time>2021-04-04T10:06:08Z</time>
      </trkpt>
      <trkpt lat="40.1403690" lon="-3.5806940">
        <ele>493.4</ele>
        <time>2021-04-04T10:06:09Z</time>
      </trkpt>
      <trkpt lat="40.1404000" lon="-3.5807310">
        <ele>493.4</ele>
        <time>2021-04-04T10:06:10Z</time>
      </trkpt>
      <trkpt lat="40.1404300" lon="-3.5807690">
        <ele>493.4</ele>
        <time>2021-04-04T10:06:11Z</time>
      </trkpt>
      <trkpt lat="40.1404610" lon="-3.5808090">
        <ele>493.4</ele>
        <time>2021-04-04T10:06:12Z</time>
      </trkpt>
      <trkpt lat="40.1404910" lon="-3.5808490">
        <ele>493.4</ele>
        <time>2021-04-04T10:06:13Z</time>
      </trkpt>
      <trkpt lat="40.1405180" lon="-3.5808880">
        <ele>493.4</ele>
        <time>2021-04-04T10:06:14Z</time>
      </trkpt>
      <trkpt lat="40.1405450" lon="-3.5809270">
        <ele>493.4</ele>
        <time>2021-04-04T10:06:15Z</time>
      </trkpt>
      <trkpt lat="40.1405750" lon="-3.5809630">
        <ele>493.2</ele>
        <time>2021-04-04T10:06:16Z</time>
      </trkpt>
      <trkpt lat="40.1406100" lon="-3.5809990">
        <ele>493.4</ele>
        <time>2021-04-04T10:06:17Z</time>
      </trkpt>
      <trkpt lat="40.1406400" lon="-3.5810380">
        <ele>493.4</ele>
        <time>2021-04-04T10:06:18Z</time>
      </trkpt>
      <trkpt lat="40.1406710" lon="-3.5810760">
        <ele>493.4</ele>
        <time>2021-04-04T10:06:19Z</time>
      </trkpt>
      <trkpt lat="40.1407010" lon="-3.5811140">
        <ele>493.4</ele>
        <time>2021-04-04T10:06:20Z</time>
      </trkpt>
      <trkpt lat="40.1407360" lon="-3.5811500">
        <ele>493.4</ele>
        <time>2021-04-04T10:06:21Z</time>
      </trkpt>
      <trkpt lat="40.1407700" lon="-3.5811870">
        <ele>493.4</ele>
        <time>2021-04-04T10:06:22Z</time>
      </trkpt>
      <trkpt lat="40.1408040" lon="-3.5812220">
        <ele>493.4</ele>
        <time>2021-04-04T10:06:23Z</time>
      </trkpt>
      <trkpt lat="40.1408390" lon="-3.5812540">
        <ele>493.4</ele>
        <time>2021-04-04T10:06:24Z</time>
      </trkpt>
      <trkpt lat="40.1408770" lon="-3.5812810">
        <ele>493.4</ele>
        <time>2021-04-04T10:06:25Z</time>
      </trkpt>
      <trkpt lat="40.1409150" lon="-3.5813060">
        <ele>493.6</ele>
        <time>2021-04-04T10:06:26Z</time>
      </trkpt>
      <trkpt lat="40.1409530" lon="-3.5813290">
        <ele>493.6</ele>
        <time>2021-04-04T10:06:27Z</time>
      </trkpt>
      <trkpt lat="40.1409910" lon="-3.5813490">
        <ele>493.6</ele>
        <time>2021-04-04T10:06:28Z</time>
      </trkpt>
      <trkpt lat="40.1410330" lon="-3.5813630">
        <ele>493.6</ele>
        <time>2021-04-04T10:06:29Z</time>
      </trkpt>
      <trkpt lat="40.1410750" lon="-3.5813740">
        <ele>493.8</ele>
        <time>2021-04-04T10:06:30Z</time>
      </trkpt>
      <trkpt lat="40.1411130" lon="-3.5813850">
        <ele>493.8</ele>
        <time>2021-04-04T10:06:31Z</time>
      </trkpt>
      <trkpt lat="40.1411550" lon="-3.5813940">
        <ele>493.8</ele>
        <time>2021-04-04T10:06:32Z</time>
      </trkpt>
      <trkpt lat="40.1411930" lon="-3.5814040">
        <ele>493.8</ele>
        <time>2021-04-04T10:06:33Z</time>
      </trkpt>
      <trkpt lat="40.1412350" lon="-3.5814150">
        <ele>494.0</ele>
        <time>2021-04-04T10:06:34Z</time>
      </trkpt>
      <trkpt lat="40.1412770" lon="-3.5814280">
        <ele>494.0</ele>
        <time>2021-04-04T10:06:35Z</time>
      </trkpt>
      <trkpt lat="40.1413190" lon="-3.5814390">
        <ele>494.0</ele>
        <time>2021-04-04T10:06:36Z</time>
      </trkpt>
      <trkpt lat="40.1413610" lon="-3.5814520">
        <ele>493.8</ele>
        <time>2021-04-04T10:06:37Z</time>
      </trkpt>
      <trkpt lat="40.1413990" lon="-3.5814680">
        <ele>493.8</ele>
        <time>2021-04-04T10:06:38Z</time>
      </trkpt>
      <trkpt lat="40.1414380" lon="-3.5814910">
        <ele>493.8</ele>
        <time>2021-04-04T10:06:39Z</time>
      </trkpt>
      <trkpt lat="40.1414720" lon="-3.5815230">
        <ele>493.6</ele>
        <time>2021-04-04T10:06:40Z</time>
      </trkpt>
      <trkpt lat="40.1415020" lon="-3.5815660">
        <ele>493.6</ele>
        <time>2021-04-04T10:06:41Z</time>
      </trkpt>
      <trkpt lat="40.1415250" lon="-3.5816140">
        <ele>493.4</ele>
        <time>2021-04-04T10:06:42Z</time>
      </trkpt>
      <trkpt lat="40.1415440" lon="-3.5816630">
        <ele>493.4</ele>
        <time>2021-04-04T10:06:43Z</time>
      </trkpt>
      <trkpt lat="40.1415630" lon="-3.5817130">
        <ele>493.4</ele>
        <time>2021-04-04T10:06:44Z</time>
      </trkpt>
      <trkpt lat="40.1415790" lon="-3.5817630">
        <ele>493.4</ele>
        <time>2021-04-04T10:06:45Z</time>
      </trkpt>
      <trkpt lat="40.1415900" lon="-3.5818110">
        <ele>493.4</ele>
        <time>2021-04-04T10:06:46Z</time>
      </trkpt>
      <trkpt lat="40.1416090" lon="-3.5818610">
        <ele>493.4</ele>
        <time>2021-04-04T10:06:47Z</time>
      </trkpt>
      <trkpt lat="40.1416360" lon="-3.5819070">
        <ele>493.4</ele>
        <time>2021-04-04T10:06:48Z</time>
      </trkpt>
      <trkpt lat="40.1416630" lon="-3.5819500">
        <ele>493.4</ele>
        <time>2021-04-04T10:06:49Z</time>
      </trkpt>
      <trkpt lat="40.1416930" lon="-3.5819910">
        <ele>493.4</ele>
        <time>2021-04-04T10:06:50Z</time>
      </trkpt>
      <trkpt lat="40.1417200" lon="-3.5820340">
        <ele>493.6</ele>
        <time>2021-04-04T10:06:51Z</time>
      </trkpt>
      <trkpt lat="40.1417460" lon="-3.5820820">
        <ele>493.6</ele>
        <time>2021-04-04T10:06:52Z</time>
      </trkpt>
      <trkpt lat="40.1417690" lon="-3.5821330">
        <ele>493.6</ele>
        <time>2021-04-04T10:06:53Z</time>
      </trkpt>
      <trkpt lat="40.1417880" lon="-3.5821850">
        <ele>493.6</ele>
        <time>2021-04-04T10:06:54Z</time>
      </trkpt>
      <trkpt lat="40.1418110" lon="-3.5822350">
        <ele>493.6</ele>
        <time>2021-04-04T10:06:55Z</time>
      </trkpt>
      <trkpt lat="40.1418380" lon="-3.5822830">
        <ele>493.4</ele>
        <time>2021-04-04T10:06:56Z</time>
      </trkpt>
      <trkpt lat="40.1418650" lon="-3.5823280">
        <ele>493.4</ele>
        <time>2021-04-04T10:06:57Z</time>
      </trkpt>
      <trkpt lat="40.1418990" lon="-3.5823690">
        <ele>493.4</ele>
        <time>2021-04-04T10:06:58Z</time>
      </trkpt>
      <trkpt lat="40.1419370" lon="-3.5824050">
        <ele>493.4</ele>
        <time>2021-04-04T10:06:59Z</time>
      </trkpt>
      <trkpt lat="40.1419750" lon="-3.5824370">
        <ele>493.4</ele>
        <time>2021-04-04T10:07:00Z</time>
      </trkpt>
      <trkpt lat="40.1420170" lon="-3.5824680">
        <ele>493.4</ele>
        <time>2021-04-04T10:07:01Z</time>
      </trkpt>
      <trkpt lat="40.1420590" lon="-3.5824990">
        <ele>493.4</ele>
        <time>2021-04-04T10:07:02Z</time>
      </trkpt>
      <trkpt lat="40.1421050" lon="-3.5825310">
        <ele>493.4</ele>
        <time>2021-04-04T10:07:03Z</time>
      </trkpt>
      <trkpt lat="40.1421470" lon="-3.5825610">
        <ele>493.2</ele>
        <time>2021-04-04T10:07:04Z</time>
      </trkpt>
      <trkpt lat="40.1421890" lon="-3.5825910">
        <ele>493.2</ele>
        <time>2021-04-04T10:07:05Z</time>
      </trkpt>
      <trkpt lat="40.1422310" lon="-3.5826190">
        <ele>493.2</ele>
        <time>2021-04-04T10:07:06Z</time>
      </trkpt>
      <trkpt lat="40.1422770" lon="-3.5826480">
        <ele>493.2</ele>
        <time>2021-04-04T10:07:07Z</time>
      </trkpt>
      <trkpt lat="40.1423220" lon="-3.5826770">
        <ele>493.2</ele>
        <time>2021-04-04T10:07:08Z</time>
      </trkpt>
      <trkpt lat="40.1423680" lon="-3.5827060">
        <ele>493.2</ele>
        <time>2021-04-04T10:07:09Z</time>
      </trkpt>
      <trkpt lat="40.1424100" lon="-3.5827360">
        <ele>493.2</ele>
        <time>2021-04-04T10:07:10Z</time>
      </trkpt>
      <trkpt lat="40.1424560" lon="-3.5827650">
        <ele>493.4</ele>
        <time>2021-04-04T10:07:11Z</time>
      </trkpt>
      <trkpt lat="40.1424980" lon="-3.5827950">
        <ele>493.4</ele>
        <time>2021-04-04T10:07:12Z</time>
      </trkpt>
      <trkpt lat="40.1425400" lon="-3.5828250">
        <ele>493.4</ele>
        <time>2021-04-04T10:07:13Z</time>
      </trkpt>
      <trkpt lat="40.1425860" lon="-3.5828570">
        <ele>493.4</ele>
        <time>2021-04-04T10:07:14Z</time>
      </trkpt>
      <trkpt lat="40.1426280" lon="-3.5828900">
        <ele>493.4</ele>
        <time>2021-04-04T10:07:15Z</time>
      </trkpt>
      <trkpt lat="40.1426740" lon="-3.5829230">
        <ele>493.4</ele>
        <time>2021-04-04T10:07:16Z</time>
      </trkpt>
      <trkpt lat="40.1427150" lon="-3.5829580">
        <ele>493.4</ele>
        <time>2021-04-04T10:07:17Z</time>
      </trkpt>
      <trkpt lat="40.1427570" lon="-3.5829910">
        <ele>493.4</ele>
        <time>2021-04-04T10:07:18Z</time>
      </trkpt>
      <trkpt lat="40.1427990" lon="-3.5830300">
        <ele>493.4</ele>
        <time>2021-04-04T10:07:19Z</time>
      </trkpt>
      <trkpt lat="40.1428410" lon="-3.5830730">
        <ele>493.6</ele>
        <time>2021-04-04T10:07:20Z</time>
      </trkpt>
      <trkpt lat="40.1428830" lon="-3.5831140">
        <ele>493.6</ele>
        <time>2021-04-04T10:07:21Z</time>
      </trkpt>
      <trkpt lat="40.1429250" lon="-3.5831570">
        <ele>493.6</ele>
        <time>2021-04-04T10:07:22Z</time>
      </trkpt>
      <trkpt lat="40.1429630" lon="-3.5832020">
        <ele>493.6</ele>
        <time>2021-04-04T10:07:23Z</time>
      </trkpt>
      <trkpt lat="40.1430020" lon="-3.5832500">
        <ele>493.6</ele>
        <time>2021-04-04T10:07:24Z</time>
      </trkpt>
      <trkpt lat="40.1430360" lon="-3.5832970">
        <ele>493.6</ele>
        <time>2021-04-04T10:07:25Z</time>
      </trkpt>
      <trkpt lat="40.1430700" lon="-3.5833470">
        <ele>493.6</ele>
        <time>2021-04-04T10:07:26Z</time>
      </trkpt>
      <trkpt lat="40.1431050" lon="-3.5833980">
        <ele>493.6</ele>
        <time>2021-04-04T10:07:27Z</time>
      </trkpt>
      <trkpt lat="40.1431390" lon="-3.5834490">
        <ele>493.6</ele>
        <time>2021-04-04T10:07:28Z</time>
      </trkpt>
      <trkpt lat="40.1431730" lon="-3.5835020">
        <ele>493.6</ele>
        <time>2021-04-04T10:07:29Z</time>
      </trkpt>
      <trkpt lat="40.1432080" lon="-3.5835550">
        <ele>493.6</ele>
        <time>2021-04-04T10:07:30Z</time>
      </trkpt>
      <trkpt lat="40.1432380" lon="-3.5836070">
        <ele>493.6</ele>
        <time>2021-04-04T10:07:31Z</time>
      </trkpt>
      <trkpt lat="40.1432690" lon="-3.5836600">
        <ele>493.6</ele>
        <time>2021-04-04T10:07:32Z</time>
      </trkpt>
      <trkpt lat="40.1432990" lon="-3.5837130">
        <ele>493.6</ele>
        <time>2021-04-04T10:07:33Z</time>
      </trkpt>
      <trkpt lat="40.1433300" lon="-3.5837680">
        <ele>493.4</ele>
        <time>2021-04-04T10:07:34Z</time>
      </trkpt>
      <trkpt lat="40.1433600" lon="-3.5838230">
        <ele>493.4</ele>
        <time>2021-04-04T10:07:35Z</time>
      </trkpt>
      <trkpt lat="40.1433910" lon="-3.5838770">
        <ele>493.4</ele>
        <time>2021-04-04T10:07:36Z</time>
      </trkpt>
      <trkpt lat="40.1434210" lon="-3.5839320">
        <ele>493.4</ele>
        <time>2021-04-04T10:07:37Z</time>
      </trkpt>
      <trkpt lat="40.1434480" lon="-3.5839870">
        <ele>493.4</ele>
        <time>2021-04-04T10:07:38Z</time>
      </trkpt>
      <trkpt lat="40.1434780" lon="-3.5840430">
        <ele>493.4</ele>
        <time>2021-04-04T10:07:39Z</time>
      </trkpt>
      <trkpt lat="40.1435090" lon="-3.5840970">
        <ele>493.4</ele>
        <time>2021-04-04T10:07:40Z</time>
      </trkpt>
      <trkpt lat="40.1435390" lon="-3.5841500">
        <ele>493.4</ele>
        <time>2021-04-04T10:07:41Z</time>
      </trkpt>
      <trkpt lat="40.1435660" lon="-3.5842020">
        <ele>493.4</ele>
        <time>2021-04-04T10:07:42Z</time>
      </trkpt>
      <trkpt lat="40.1435970" lon="-3.5842560">
        <ele>493.4</ele>
        <time>2021-04-04T10:07:43Z</time>
      </trkpt>
      <trkpt lat="40.1436270" lon="-3.5843110">
        <ele>493.4</ele>
        <time>2021-04-04T10:07:44Z</time>
      </trkpt>
      <trkpt lat="40.1436580" lon="-3.5843660">
        <ele>493.4</ele>
        <time>2021-04-04T10:07:45Z</time>
      </trkpt>
      <trkpt lat="40.1436880" lon="-3.5844200">
        <ele>493.4</ele>
        <time>2021-04-04T10:07:46Z</time>
      </trkpt>
      <trkpt lat="40.1437190" lon="-3.5844750">
        <ele>493.6</ele>
        <time>2021-04-04T10:07:47Z</time>
      </trkpt>
      <trkpt lat="40.1437490" lon="-3.5845310">
        <ele>493.4</ele>
        <time>2021-04-04T10:07:48Z</time>
      </trkpt>
      <trkpt lat="40.1437800" lon="-3.5845860">
        <ele>493.4</ele>
        <time>2021-04-04T10:07:49Z</time>
      </trkpt>
      <trkpt lat="40.1438100" lon="-3.5846430">
        <ele>493.4</ele>
        <time>2021-04-04T10:07:50Z</time>
      </trkpt>
      <trkpt lat="40.1438410" lon="-3.5846990">
        <ele>493.4</ele>
        <time>2021-04-04T10:07:51Z</time>
      </trkpt>
      <trkpt lat="40.1438710" lon="-3.5847550">
        <ele>493.4</ele>
        <time>2021-04-04T10:07:52Z</time>
      </trkpt>
      <trkpt lat="40.1439020" lon="-3.5848120">
        <ele>493.4</ele>
        <time>2021-04-04T10:07:53Z</time>
      </trkpt>
      <trkpt lat="40.1439360" lon="-3.5848680">
        <ele>493.4</ele>
        <time>2021-04-04T10:07:54Z</time>
      </trkpt>
      <trkpt lat="40.1439670" lon="-3.5849220">
        <ele>493.4</ele>
        <time>2021-04-04T10:07:55Z</time>
      </trkpt>
      <trkpt lat="40.1439970" lon="-3.5849770">
        <ele>493.4</ele>
        <time>2021-04-04T10:07:56Z</time>
      </trkpt>
      <trkpt lat="40.1440280" lon="-3.5850330">
        <ele>493.4</ele>
        <time>2021-04-04T10:07:57Z</time>
      </trkpt>
      <trkpt lat="40.1440580" lon="-3.5850890">
        <ele>493.6</ele>
        <time>2021-04-04T10:07:58Z</time>
      </trkpt>
      <trkpt lat="40.1440850" lon="-3.5851450">
        <ele>493.6</ele>
        <time>2021-04-04T10:07:59Z</time>
      </trkpt>
      <trkpt lat="40.1441150" lon="-3.5852000">
        <ele>493.6</ele>
        <time>2021-04-04T10:08:00Z</time>
      </trkpt>
      <trkpt lat="40.1441460" lon="-3.5852550">
        <ele>493.6</ele>
        <time>2021-04-04T10:08:01Z</time>
      </trkpt>
      <trkpt lat="40.1441760" lon="-3.5853120">
        <ele>493.6</ele>
        <time>2021-04-04T10:08:02Z</time>
      </trkpt>
      <trkpt lat="40.1442070" lon="-3.5853680">
        <ele>493.6</ele>
        <time>2021-04-04T10:08:03Z</time>
      </trkpt>
      <trkpt lat="40.1442380" lon="-3.5854250">
        <ele>493.6</ele>
        <time>2021-04-04T10:08:04Z</time>
      </trkpt>
      <trkpt lat="40.1442680" lon="-3.5854810">
        <ele>493.6</ele>
        <time>2021-04-04T10:08:05Z</time>
      </trkpt>
      <trkpt lat="40.1443020" lon="-3.5855370">
        <ele>493.6</ele>
        <time>2021-04-04T10:08:06Z</time>
      </trkpt>
      <trkpt lat="40.1443330" lon="-3.5855930">
        <ele>493.6</ele>
        <time>2021-04-04T10:08:07Z</time>
      </trkpt>
      <trkpt lat="40.1443670" lon="-3.5856500">
        <ele>493.6</ele>
        <time>2021-04-04T10:08:08Z</time>
      </trkpt>
      <trkpt lat="40.1444020" lon="-3.5857070">
        <ele>493.6</ele>
        <time>2021-04-04T10:08:09Z</time>
      </trkpt>
      <trkpt lat="40.1444360" lon="-3.5857660">
        <ele>493.6</ele>
        <time>2021-04-04T10:08:10Z</time>
      </trkpt>
      <trkpt lat="40.1444700" lon="-3.5858270">
        <ele>493.8</ele>
        <time>2021-04-04T10:08:11Z</time>
      </trkpt>
      <trkpt lat="40.1445080" lon="-3.5858880">
        <ele>493.8</ele>
        <time>2021-04-04T10:08:12Z</time>
      </trkpt>
      <trkpt lat="40.1445500" lon="-3.5859480">
        <ele>493.8</ele>
        <time>2021-04-04T10:08:13Z</time>
      </trkpt>
      <trkpt lat="40.1445880" lon="-3.5860080">
        <ele>494.0</ele>
        <time>2021-04-04T10:08:14Z</time>
      </trkpt>
      <trkpt lat="40.1446270" lon="-3.5860680">
        <ele>493.8</ele>
        <time>2021-04-04T10:08:15Z</time>
      </trkpt>
      <trkpt lat="40.1446690" lon="-3.5861280">
        <ele>493.8</ele>
        <time>2021-04-04T10:08:16Z</time>
      </trkpt>
      <trkpt lat="40.1447070" lon="-3.5861890">
        <ele>493.8</ele>
        <time>2021-04-04T10:08:17Z</time>
      </trkpt>
      <trkpt lat="40.1447490" lon="-3.5862510">
        <ele>493.8</ele>
        <time>2021-04-04T10:08:18Z</time>
      </trkpt>
      <trkpt lat="40.1447870" lon="-3.5863140">
        <ele>493.8</ele>
        <time>2021-04-04T10:08:19Z</time>
      </trkpt>
      <trkpt lat="40.1448290" lon="-3.5863760">
        <ele>493.8</ele>
        <time>2021-04-04T10:08:20Z</time>
      </trkpt>
      <trkpt lat="40.1448710" lon="-3.5864390">
        <ele>493.8</ele>
        <time>2021-04-04T10:08:21Z</time>
      </trkpt>
      <trkpt lat="40.1449130" lon="-3.5865020">
        <ele>494.0</ele>
        <time>2021-04-04T10:08:22Z</time>
      </trkpt>
      <trkpt lat="40.1449550" lon="-3.5865640">
        <ele>494.0</ele>
        <time>2021-04-04T10:08:23Z</time>
      </trkpt>
      <trkpt lat="40.1449970" lon="-3.5866250">
        <ele>494.0</ele>
        <time>2021-04-04T10:08:24Z</time>
      </trkpt>
      <trkpt lat="40.1450390" lon="-3.5866870">
        <ele>494.0</ele>
        <time>2021-04-04T10:08:25Z</time>
      </trkpt>
      <trkpt lat="40.1450840" lon="-3.5867500">
        <ele>494.0</ele>
        <time>2021-04-04T10:08:26Z</time>
      </trkpt>
      <trkpt lat="40.1451300" lon="-3.5868130">
        <ele>494.0</ele>
        <time>2021-04-04T10:08:27Z</time>
      </trkpt>
      <trkpt lat="40.1451720" lon="-3.5868780">
        <ele>494.0</ele>
        <time>2021-04-04T10:08:28Z</time>
      </trkpt>
      <trkpt lat="40.1452140" lon="-3.5869410">
        <ele>493.8</ele>
        <time>2021-04-04T10:08:29Z</time>
      </trkpt>
      <trkpt lat="40.1452560" lon="-3.5870040">
        <ele>493.8</ele>
        <time>2021-04-04T10:08:30Z</time>
      </trkpt>
      <trkpt lat="40.1453020" lon="-3.5870670">
        <ele>493.8</ele>
        <time>2021-04-04T10:08:31Z</time>
      </trkpt>
      <trkpt lat="40.1453440" lon="-3.5871300">
        <ele>493.8</ele>
        <time>2021-04-04T10:08:32Z</time>
      </trkpt>
      <trkpt lat="40.1453860" lon="-3.5871920">
        <ele>493.8</ele>
        <time>2021-04-04T10:08:33Z</time>
      </trkpt>
      <trkpt lat="40.1454280" lon="-3.5872540">
        <ele>493.8</ele>
        <time>2021-04-04T10:08:34Z</time>
      </trkpt>
      <trkpt lat="40.1454700" lon="-3.5873170">
        <ele>493.8</ele>
        <time>2021-04-04T10:08:35Z</time>
      </trkpt>
      <trkpt lat="40.1455120" lon="-3.5873760">
        <ele>493.8</ele>
        <time>2021-04-04T10:08:36Z</time>
      </trkpt>
      <trkpt lat="40.1455540" lon="-3.5874370">
        <ele>493.8</ele>
        <time>2021-04-04T10:08:37Z</time>
      </trkpt>
      <trkpt lat="40.1455960" lon="-3.5874990">
        <ele>493.8</ele>
        <time>2021-04-04T10:08:38Z</time>
      </trkpt>
      <trkpt lat="40.1456380" lon="-3.5875600">
        <ele>493.8</ele>
        <time>2021-04-04T10:08:39Z</time>
      </trkpt>
      <trkpt lat="40.1456790" lon="-3.5876190">
        <ele>493.8</ele>
        <time>2021-04-04T10:08:40Z</time>
      </trkpt>
      <trkpt lat="40.1457250" lon="-3.5876790">
        <ele>493.6</ele>
        <time>2021-04-04T10:08:41Z</time>
      </trkpt>
      <trkpt lat="40.1457630" lon="-3.5877430">
        <ele>493.6</ele>
        <time>2021-04-04T10:08:42Z</time>
      </trkpt>
      <trkpt lat="40.1458050" lon="-3.5878060">
        <ele>493.6</ele>
        <time>2021-04-04T10:08:43Z</time>
      </trkpt>
      <trkpt lat="40.1458430" lon="-3.5878680">
        <ele>493.6</ele>
        <time>2021-04-04T10:08:44Z</time>
      </trkpt>
      <trkpt lat="40.1458850" lon="-3.5879280">
        <ele>493.6</ele>
        <time>2021-04-04T10:08:45Z</time>
      </trkpt>
      <trkpt lat="40.1459240" lon="-3.5879870">
        <ele>493.6</ele>
        <time>2021-04-04T10:08:46Z</time>
      </trkpt>
      <trkpt lat="40.1459660" lon="-3.5880460">
        <ele>493.6</ele>
        <time>2021-04-04T10:08:47Z</time>
      </trkpt>
      <trkpt lat="40.1460080" lon="-3.5881050">
        <ele>493.6</ele>
        <time>2021-04-04T10:08:48Z</time>
      </trkpt>
      <trkpt lat="40.1460500" lon="-3.5881650">
        <ele>493.6</ele>
        <time>2021-04-04T10:08:49Z</time>
      </trkpt>
      <trkpt lat="40.1460910" lon="-3.5882250">
        <ele>493.6</ele>
        <time>2021-04-04T10:08:50Z</time>
      </trkpt>
      <trkpt lat="40.1461330" lon="-3.5882850">
        <ele>493.6</ele>
        <time>2021-04-04T10:08:51Z</time>
      </trkpt>
      <trkpt lat="40.1461750" lon="-3.5883440">
        <ele>493.6</ele>
        <time>2021-04-04T10:08:52Z</time>
      </trkpt>
      <trkpt lat="40.1462140" lon="-3.5884030">
        <ele>493.6</ele>
        <time>2021-04-04T10:08:53Z</time>
      </trkpt>
      <trkpt lat="40.1462550" lon="-3.5884620">
        <ele>493.6</ele>
        <time>2021-04-04T10:08:54Z</time>
      </trkpt>
      <trkpt lat="40.1462940" lon="-3.5885200">
        <ele>493.6</ele>
        <time>2021-04-04T10:08:55Z</time>
      </trkpt>
      <trkpt lat="40.1463360" lon="-3.5885770">
        <ele>493.6</ele>
        <time>2021-04-04T10:08:56Z</time>
      </trkpt>
      <trkpt lat="40.1463780" lon="-3.5886360">
        <ele>493.6</ele>
        <time>2021-04-04T10:08:57Z</time>
      </trkpt>
      <trkpt lat="40.1464160" lon="-3.5886950">
        <ele>493.6</ele>
        <time>2021-04-04T10:08:58Z</time>
      </trkpt>
      <trkpt lat="40.1464580" lon="-3.5887540">
        <ele>493.6</ele>
        <time>2021-04-04T10:08:59Z</time>
      </trkpt>
      <trkpt lat="40.1464960" lon="-3.5888110">
        <ele>493.6</ele>
        <time>2021-04-04T10:09:00Z</time>
      </trkpt>
      <trkpt lat="40.1465380" lon="-3.5888710">
        <ele>493.6</ele>
        <time>2021-04-04T10:09:01Z</time>
      </trkpt>
      <trkpt lat="40.1465760" lon="-3.5889310">
        <ele>493.6</ele>
        <time>2021-04-04T10:09:02Z</time>
      </trkpt>
      <trkpt lat="40.1466180" lon="-3.5889890">
        <ele>493.6</ele>
        <time>2021-04-04T10:09:03Z</time>
      </trkpt>
      <trkpt lat="40.1466560" lon="-3.5890480">
        <ele>493.6</ele>
        <time>2021-04-04T10:09:04Z</time>
      </trkpt>
      <trkpt lat="40.1466980" lon="-3.5891060">
        <ele>493.6</ele>
        <time>2021-04-04T10:09:05Z</time>
      </trkpt>
      <trkpt lat="40.1467360" lon="-3.5891660">
        <ele>493.6</ele>
        <time>2021-04-04T10:09:06Z</time>
      </trkpt>
      <trkpt lat="40.1467780" lon="-3.5892260">
        <ele>493.6</ele>
        <time>2021-04-04T10:09:07Z</time>
      </trkpt>
      <trkpt lat="40.1468200" lon="-3.5892860">
        <ele>493.8</ele>
        <time>2021-04-04T10:09:08Z</time>
      </trkpt>
      <trkpt lat="40.1468580" lon="-3.5893450">
        <ele>493.8</ele>
        <time>2021-04-04T10:09:09Z</time>
      </trkpt>
      <trkpt lat="40.1469000" lon="-3.5894050">
        <ele>493.8</ele>
        <time>2021-04-04T10:09:10Z</time>
      </trkpt>
      <trkpt lat="40.1469420" lon="-3.5894630">
        <ele>493.8</ele>
        <time>2021-04-04T10:09:11Z</time>
      </trkpt>
      <trkpt lat="40.1469800" lon="-3.5895210">
        <ele>493.8</ele>
        <time>2021-04-04T10:09:12Z</time>
      </trkpt>
      <trkpt lat="40.1470220" lon="-3.5895820">
        <ele>493.8</ele>
        <time>2021-04-04T10:09:13Z</time>
      </trkpt>
      <trkpt lat="40.1470600" lon="-3.5896440">
        <ele>493.8</ele>
        <time>2021-04-04T10:09:14Z</time>
      </trkpt>
      <trkpt lat="40.1470990" lon="-3.5897050">
        <ele>494.0</ele>
        <time>2021-04-04T10:09:15Z</time>
      </trkpt>
      <trkpt lat="40.1471410" lon="-3.5897650">
        <ele>493.8</ele>
        <time>2021-04-04T10:09:16Z</time>
      </trkpt>
      <trkpt lat="40.1471790" lon="-3.5898260">
        <ele>494.0</ele>
        <time>2021-04-04T10:09:17Z</time>
      </trkpt>
      <trkpt lat="40.1472210" lon="-3.5898860">
        <ele>494.0</ele>
        <time>2021-04-04T10:09:18Z</time>
      </trkpt>
      <trkpt lat="40.1472630" lon="-3.5899450">
        <ele>494.0</ele>
        <time>2021-04-04T10:09:19Z</time>
      </trkpt>
      <trkpt lat="40.1473050" lon="-3.5900050">
        <ele>494.0</ele>
        <time>2021-04-04T10:09:20Z</time>
      </trkpt>
      <trkpt lat="40.1473470" lon="-3.5900660">
        <ele>494.0</ele>
        <time>2021-04-04T10:09:21Z</time>
      </trkpt>
      <trkpt lat="40.1473880" lon="-3.5901270">
        <ele>494.0</ele>
        <time>2021-04-04T10:09:22Z</time>
      </trkpt>
      <trkpt lat="40.1474300" lon="-3.5901890">
        <ele>494.0</ele>
        <time>2021-04-04T10:09:23Z</time>
      </trkpt>
      <trkpt lat="40.1474720" lon="-3.5902510">
        <ele>494.2</ele>
        <time>2021-04-04T10:09:24Z</time>
      </trkpt>
      <trkpt lat="40.1475140" lon="-3.5903120">
        <ele>494.2</ele>
        <time>2021-04-04T10:09:25Z</time>
      </trkpt>
      <trkpt lat="40.1475560" lon="-3.5903730">
        <ele>494.2</ele>
        <time>2021-04-04T10:09:26Z</time>
      </trkpt>
      <trkpt lat="40.1475980" lon="-3.5904330">
        <ele>494.2</ele>
        <time>2021-04-04T10:09:27Z</time>
      </trkpt>
      <trkpt lat="40.1476400" lon="-3.5904930">
        <ele>494.2</ele>
        <time>2021-04-04T10:09:28Z</time>
      </trkpt>
      <trkpt lat="40.1476780" lon="-3.5905540">
        <ele>494.4</ele>
        <time>2021-04-04T10:09:29Z</time>
      </trkpt>
      <trkpt lat="40.1477200" lon="-3.5906130">
        <ele>494.4</ele>
        <time>2021-04-04T10:09:30Z</time>
      </trkpt>
      <trkpt lat="40.1477620" lon="-3.5906730">
        <ele>494.4</ele>
        <time>2021-04-04T10:09:31Z</time>
      </trkpt>
      <trkpt lat="40.1478000" lon="-3.5907330">
        <ele>494.6</ele>
        <time>2021-04-04T10:09:32Z</time>
      </trkpt>
      <trkpt lat="40.1478420" lon="-3.5907950">
        <ele>494.6</ele>
        <time>2021-04-04T10:09:33Z</time>
      </trkpt>
      <trkpt lat="40.1478810" lon="-3.5908560">
        <ele>494.8</ele>
        <time>2021-04-04T10:09:34Z</time>
      </trkpt>
      <trkpt lat="40.1479230" lon="-3.5909160">
        <ele>495.0</ele>
        <time>2021-04-04T10:09:35Z</time>
      </trkpt>
      <trkpt lat="40.1479610" lon="-3.5909770">
        <ele>495.0</ele>
        <time>2021-04-04T10:09:36Z</time>
      </trkpt>
      <trkpt lat="40.1480030" lon="-3.5910380">
        <ele>495.2</ele>
        <time>2021-04-04T10:09:37Z</time>
      </trkpt>
      <trkpt lat="40.1480450" lon="-3.5910980">
        <ele>495.2</ele>
        <time>2021-04-04T10:09:38Z</time>
      </trkpt>
      <trkpt lat="40.1480870" lon="-3.5911570">
        <ele>495.2</ele>
        <time>2021-04-04T10:09:39Z</time>
      </trkpt>
      <trkpt lat="40.1481280" lon="-3.5912170">
        <ele>495.2</ele>
        <time>2021-04-04T10:09:40Z</time>
      </trkpt>
      <trkpt lat="40.1481700" lon="-3.5912790">
        <ele>495.4</ele>
        <time>2021-04-04T10:09:41Z</time>
      </trkpt>
      <trkpt lat="40.1482120" lon="-3.5913410">
        <ele>495.4</ele>
        <time>2021-04-04T10:09:42Z</time>
      </trkpt>
      <trkpt lat="40.1482510" lon="-3.5914020">
        <ele>495.4</ele>
        <time>2021-04-04T10:09:43Z</time>
      </trkpt>
      <trkpt lat="40.1482930" lon="-3.5914630">
        <ele>495.6</ele>
        <time>2021-04-04T10:09:44Z</time>
      </trkpt>
      <trkpt lat="40.1483350" lon="-3.5915240">
        <ele>495.6</ele>
        <time>2021-04-04T10:09:45Z</time>
      </trkpt>
      <trkpt lat="40.1483730" lon="-3.5915830">
        <ele>495.8</ele>
        <time>2021-04-04T10:09:46Z</time>
      </trkpt>
      <trkpt lat="40.1484070" lon="-3.5916410">
        <ele>495.8</ele>
        <time>2021-04-04T10:09:47Z</time>
      </trkpt>
      <trkpt lat="40.1484410" lon="-3.5916990">
        <ele>496.0</ele>
        <time>2021-04-04T10:09:48Z</time>
      </trkpt>
      <trkpt lat="40.1484760" lon="-3.5917540">
        <ele>496.2</ele>
        <time>2021-04-04T10:09:49Z</time>
      </trkpt>
      <trkpt lat="40.1485100" lon="-3.5918090">
        <ele>496.2</ele>
        <time>2021-04-04T10:09:50Z</time>
      </trkpt>
      <trkpt lat="40.1485410" lon="-3.5918620">
        <ele>496.4</ele>
        <time>2021-04-04T10:09:51Z</time>
      </trkpt>
      <trkpt lat="40.1485710" lon="-3.5919170">
        <ele>496.4</ele>
        <time>2021-04-04T10:09:52Z</time>
      </trkpt>
      <trkpt lat="40.1486020" lon="-3.5919730">
        <ele>496.6</ele>
        <time>2021-04-04T10:09:53Z</time>
      </trkpt>
      <trkpt lat="40.1486360" lon="-3.5920300">
        <ele>496.8</ele>
        <time>2021-04-04T10:09:54Z</time>
      </trkpt>
      <trkpt lat="40.1486660" lon="-3.5920870">
        <ele>497.0</ele>
        <time>2021-04-04T10:09:55Z</time>
      </trkpt>
      <trkpt lat="40.1486970" lon="-3.5921450">
        <ele>497.4</ele>
        <time>2021-04-04T10:09:56Z</time>
      </trkpt>
      <trkpt lat="40.1487270" lon="-3.5922020">
        <ele>497.4</ele>
        <time>2021-04-04T10:09:57Z</time>
      </trkpt>
      <trkpt lat="40.1487580" lon="-3.5922620">
        <ele>497.6</ele>
        <time>2021-04-04T10:09:58Z</time>
      </trkpt>
      <trkpt lat="40.1487880" lon="-3.5923210">
        <ele>497.6</ele>
        <time>2021-04-04T10:09:59Z</time>
      </trkpt>
      <trkpt lat="40.1488150" lon="-3.5923820">
        <ele>497.6</ele>
        <time>2021-04-04T10:10:00Z</time>
      </trkpt>
      <trkpt lat="40.1488420" lon="-3.5924440">
        <ele>497.6</ele>
        <time>2021-04-04T10:10:01Z</time>
      </trkpt>
      <trkpt lat="40.1488690" lon="-3.5925080">
        <ele>497.6</ele>
        <time>2021-04-04T10:10:02Z</time>
      </trkpt>
      <trkpt lat="40.1488910" lon="-3.5925710">
        <ele>497.6</ele>
        <time>2021-04-04T10:10:03Z</time>
      </trkpt>
      <trkpt lat="40.1489140" lon="-3.5926350">
        <ele>497.6</ele>
        <time>2021-04-04T10:10:04Z</time>
      </trkpt>
      <trkpt lat="40.1489370" lon="-3.5927020">
        <ele>497.6</ele>
        <time>2021-04-04T10:10:05Z</time>
      </trkpt>
      <trkpt lat="40.1489600" lon="-3.5927720">
        <ele>497.6</ele>
        <time>2021-04-04T10:10:06Z</time>
      </trkpt>
      <trkpt lat="40.1489790" lon="-3.5928390">
        <ele>497.8</ele>
        <time>2021-04-04T10:10:07Z</time>
      </trkpt>
      <trkpt lat="40.1490020" lon="-3.5929050">
        <ele>497.8</ele>
        <time>2021-04-04T10:10:08Z</time>
      </trkpt>
      <trkpt lat="40.1490210" lon="-3.5929720">
        <ele>497.8</ele>
        <time>2021-04-04T10:10:09Z</time>
      </trkpt>
      <trkpt lat="40.1490400" lon="-3.5930410">
        <ele>498.0</ele>
        <time>2021-04-04T10:10:10Z</time>
      </trkpt>
      <trkpt lat="40.1490590" lon="-3.5931100">
        <ele>498.0</ele>
        <time>2021-04-04T10:10:11Z</time>
      </trkpt>
      <trkpt lat="40.1490780" lon="-3.5931780">
        <ele>498.0</ele>
        <time>2021-04-04T10:10:12Z</time>
      </trkpt>
      <trkpt lat="40.1490970" lon="-3.5932460">
        <ele>498.0</ele>
        <time>2021-04-04T10:10:13Z</time>
      </trkpt>
      <trkpt lat="40.1491200" lon="-3.5933150">
        <ele>498.0</ele>
        <time>2021-04-04T10:10:14Z</time>
      </trkpt>
      <trkpt lat="40.1491390" lon="-3.5933860">
        <ele>498.0</ele>
        <time>2021-04-04T10:10:15Z</time>
      </trkpt>
      <trkpt lat="40.1491620" lon="-3.5934570">
        <ele>498.0</ele>
        <time>2021-04-04T10:10:16Z</time>
      </trkpt>
      <trkpt lat="40.1491890" lon="-3.5935280">
        <ele>498.0</ele>
        <time>2021-04-04T10:10:17Z</time>
      </trkpt>
      <trkpt lat="40.1492120" lon="-3.5936000">
        <ele>498.0</ele>
        <time>2021-04-04T10:10:18Z</time>
      </trkpt>
      <trkpt lat="40.1492390" lon="-3.5936720">
        <ele>498.0</ele>
        <time>2021-04-04T10:10:19Z</time>
      </trkpt>
      <trkpt lat="40.1492690" lon="-3.5937420">
        <ele>498.0</ele>
        <time>2021-04-04T10:10:20Z</time>
      </trkpt>
      <trkpt lat="40.1492960" lon="-3.5938100">
        <ele>498.0</ele>
        <time>2021-04-04T10:10:21Z</time>
      </trkpt>
      <trkpt lat="40.1493260" lon="-3.5938780">
        <ele>498.0</ele>
        <time>2021-04-04T10:10:22Z</time>
      </trkpt>
      <trkpt lat="40.1493610" lon="-3.5939440">
        <ele>498.0</ele>
        <time>2021-04-04T10:10:23Z</time>
      </trkpt>
      <trkpt lat="40.1493990" lon="-3.5940070">
        <ele>498.0</ele>
        <time>2021-04-04T10:10:24Z</time>
      </trkpt>
      <trkpt lat="40.1494370" lon="-3.5940680">
        <ele>498.0</ele>
        <time>2021-04-04T10:10:25Z</time>
      </trkpt>
      <trkpt lat="40.1494750" lon="-3.5941280">
        <ele>498.0</ele>
        <time>2021-04-04T10:10:26Z</time>
      </trkpt>
      <trkpt lat="40.1495170" lon="-3.5941900">
        <ele>497.8</ele>
        <time>2021-04-04T10:10:27Z</time>
      </trkpt>
      <trkpt lat="40.1495550" lon="-3.5942490">
        <ele>497.8</ele>
        <time>2021-04-04T10:10:28Z</time>
      </trkpt>
      <trkpt lat="40.1495970" lon="-3.5943080">
        <ele>497.8</ele>
        <time>2021-04-04T10:10:29Z</time>
      </trkpt>
      <trkpt lat="40.1496390" lon="-3.5943650">
        <ele>498.0</ele>
        <time>2021-04-04T10:10:30Z</time>
      </trkpt>
      <trkpt lat="40.1496810" lon="-3.5944210">
        <ele>498.0</ele>
        <time>2021-04-04T10:10:31Z</time>
      </trkpt>
      <trkpt lat="40.1497270" lon="-3.5944770">
        <ele>498.0</ele>
        <time>2021-04-04T10:10:32Z</time>
      </trkpt>
      <trkpt lat="40.1497690" lon="-3.5945340">
        <ele>498.0</ele>
        <time>2021-04-04T10:10:33Z</time>
      </trkpt>
      <trkpt lat="40.1498110" lon="-3.5945900">
        <ele>498.0</ele>
        <time>2021-04-04T10:10:34Z</time>
      </trkpt>
      <trkpt lat="40.1498570" lon="-3.5946470">
        <ele>498.0</ele>
        <time>2021-04-04T10:10:35Z</time>
      </trkpt>
      <trkpt lat="40.1499020" lon="-3.5947040">
        <ele>498.2</ele>
        <time>2021-04-04T10:10:36Z</time>
      </trkpt>
      <trkpt lat="40.1499480" lon="-3.5947610">
        <ele>498.6</ele>
        <time>2021-04-04T10:10:37Z</time>
      </trkpt>
      <trkpt lat="40.1499940" lon="-3.5948170">
        <ele>498.8</ele>
        <time>2021-04-04T10:10:38Z</time>
      </trkpt>
      <trkpt lat="40.1500360" lon="-3.5948730">
        <ele>498.8</ele>
        <time>2021-04-04T10:10:39Z</time>
      </trkpt>
      <trkpt lat="40.1500820" lon="-3.5949290">
        <ele>498.8</ele>
        <time>2021-04-04T10:10:40Z</time>
      </trkpt>
      <trkpt lat="40.1501270" lon="-3.5949850">
        <ele>498.8</ele>
        <time>2021-04-04T10:10:41Z</time>
      </trkpt>
      <trkpt lat="40.1501730" lon="-3.5950390">
        <ele>498.8</ele>
        <time>2021-04-04T10:10:42Z</time>
      </trkpt>
      <trkpt lat="40.1502150" lon="-3.5950930">
        <ele>498.6</ele>
        <time>2021-04-04T10:10:43Z</time>
      </trkpt>
      <trkpt lat="40.1502610" lon="-3.5951480">
        <ele>498.6</ele>
        <time>2021-04-04T10:10:44Z</time>
      </trkpt>
      <trkpt lat="40.1503070" lon="-3.5952020">
        <ele>498.6</ele>
        <time>2021-04-04T10:10:45Z</time>
      </trkpt>
      <trkpt lat="40.1503490" lon="-3.5952560">
        <ele>498.6</ele>
        <time>2021-04-04T10:10:46Z</time>
      </trkpt>
      <trkpt lat="40.1503940" lon="-3.5953110">
        <ele>498.4</ele>
        <time>2021-04-04T10:10:47Z</time>
      </trkpt>
      <trkpt lat="40.1504360" lon="-3.5953660">
        <ele>498.4</ele>
        <time>2021-04-04T10:10:48Z</time>
      </trkpt>
      <trkpt lat="40.1504780" lon="-3.5954200">
        <ele>498.6</ele>
        <time>2021-04-04T10:10:49Z</time>
      </trkpt>
      <trkpt lat="40.1505240" lon="-3.5954740">
        <ele>498.6</ele>
        <time>2021-04-04T10:10:50Z</time>
      </trkpt>
      <trkpt lat="40.1505660" lon="-3.5955270">
        <ele>498.6</ele>
        <time>2021-04-04T10:10:51Z</time>
      </trkpt>
      <trkpt lat="40.1506120" lon="-3.5955810">
        <ele>498.6</ele>
        <time>2021-04-04T10:10:52Z</time>
      </trkpt>
      <trkpt lat="40.1506580" lon="-3.5956370">
        <ele>498.6</ele>
        <time>2021-04-04T10:10:53Z</time>
      </trkpt>
      <trkpt lat="40.1507030" lon="-3.5956930">
        <ele>498.6</ele>
        <time>2021-04-04T10:10:54Z</time>
      </trkpt>
      <trkpt lat="40.1507450" lon="-3.5957480">
        <ele>498.6</ele>
        <time>2021-04-04T10:10:55Z</time>
      </trkpt>
      <trkpt lat="40.1507910" lon="-3.5958040">
        <ele>498.6</ele>
        <time>2021-04-04T10:10:56Z</time>
      </trkpt>
      <trkpt lat="40.1508370" lon="-3.5958600">
        <ele>498.4</ele>
        <time>2021-04-04T10:10:57Z</time>
      </trkpt>
      <trkpt lat="40.1508830" lon="-3.5959160">
        <ele>498.4</ele>
        <time>2021-04-04T10:10:58Z</time>
      </trkpt>
      <trkpt lat="40.1509290" lon="-3.5959720">
        <ele>498.4</ele>
        <time>2021-04-04T10:10:59Z</time>
      </trkpt>
      <trkpt lat="40.1509740" lon="-3.5960280">
        <ele>498.4</ele>
        <time>2021-04-04T10:11:00Z</time>
      </trkpt>
      <trkpt lat="40.1510240" lon="-3.5960840">
        <ele>498.4</ele>
        <time>2021-04-04T10:11:01Z</time>
      </trkpt>
      <trkpt lat="40.1510700" lon="-3.5961400">
        <ele>498.4</ele>
        <time>2021-04-04T10:11:02Z</time>
      </trkpt>
      <trkpt lat="40.1511150" lon="-3.5961990">
        <ele>498.6</ele>
        <time>2021-04-04T10:11:03Z</time>
      </trkpt>
      <trkpt lat="40.1511610" lon="-3.5962580">
        <ele>498.6</ele>
        <time>2021-04-04T10:11:04Z</time>
      </trkpt>
      <trkpt lat="40.1512070" lon="-3.5963170">
        <ele>498.6</ele>
        <time>2021-04-04T10:11:05Z</time>
      </trkpt>
      <trkpt lat="40.1512530" lon="-3.5963760">
        <ele>498.6</ele>
        <time>2021-04-04T10:11:06Z</time>
      </trkpt>
      <trkpt lat="40.1512990" lon="-3.5964370">
        <ele>498.6</ele>
        <time>2021-04-04T10:11:07Z</time>
      </trkpt>
      <trkpt lat="40.1513440" lon="-3.5964950">
        <ele>498.8</ele>
        <time>2021-04-04T10:11:08Z</time>
      </trkpt>
      <trkpt lat="40.1513940" lon="-3.5965520">
        <ele>498.6</ele>
        <time>2021-04-04T10:11:09Z</time>
      </trkpt>
      <trkpt lat="40.1514400" lon="-3.5966090">
        <ele>498.6</ele>
        <time>2021-04-04T10:11:10Z</time>
      </trkpt>
      <trkpt lat="40.1514850" lon="-3.5966660">
        <ele>498.6</ele>
        <time>2021-04-04T10:11:11Z</time>
      </trkpt>
      <trkpt lat="40.1515310" lon="-3.5967230">
        <ele>498.6</ele>
        <time>2021-04-04T10:11:12Z</time>
      </trkpt>
      <trkpt lat="40.1515770" lon="-3.5967810">
        <ele>498.6</ele>
        <time>2021-04-04T10:11:13Z</time>
      </trkpt>
      <trkpt lat="40.1516270" lon="-3.5968390">
        <ele>498.6</ele>
        <time>2021-04-04T10:11:14Z</time>
      </trkpt>
      <trkpt lat="40.1516720" lon="-3.5968980">
        <ele>498.6</ele>
        <time>2021-04-04T10:11:15Z</time>
      </trkpt>
      <trkpt lat="40.1517220" lon="-3.5969560">
        <ele>498.6</ele>
        <time>2021-04-04T10:11:16Z</time>
      </trkpt>
      <trkpt lat="40.1517680" lon="-3.5970140">
        <ele>498.6</ele>
        <time>2021-04-04T10:11:17Z</time>
      </trkpt>
      <trkpt lat="40.1518130" lon="-3.5970710">
        <ele>498.8</ele>
        <time>2021-04-04T10:11:18Z</time>
      </trkpt>
      <trkpt lat="40.1518590" lon="-3.5971290">
        <ele>498.8</ele>
        <time>2021-04-04T10:11:19Z</time>
      </trkpt>
      <trkpt lat="40.1519090" lon="-3.5971870">
        <ele>498.8</ele>
        <time>2021-04-04T10:11:20Z</time>
      </trkpt>
      <trkpt lat="40.1519550" lon="-3.5972440">
        <ele>498.8</ele>
        <time>2021-04-04T10:11:21Z</time>
      </trkpt>
      <trkpt lat="40.1520000" lon="-3.5973010">
        <ele>498.8</ele>
        <time>2021-04-04T10:11:22Z</time>
      </trkpt>
      <trkpt lat="40.1520460" lon="-3.5973560">
        <ele>499.0</ele>
        <time>2021-04-04T10:11:23Z</time>
      </trkpt>
      <trkpt lat="40.1520880" lon="-3.5974120">
        <ele>499.0</ele>
        <time>2021-04-04T10:11:24Z</time>
      </trkpt>
      <trkpt lat="40.1521300" lon="-3.5974690">
        <ele>499.0</ele>
        <time>2021-04-04T10:11:25Z</time>
      </trkpt>
      <trkpt lat="40.1521720" lon="-3.5975270">
        <ele>499.2</ele>
        <time>2021-04-04T10:11:26Z</time>
      </trkpt>
      <trkpt lat="40.1522140" lon="-3.5975840">
        <ele>499.2</ele>
        <time>2021-04-04T10:11:27Z</time>
      </trkpt>
      <trkpt lat="40.1522560" lon="-3.5976400">
        <ele>499.2</ele>
        <time>2021-04-04T10:11:28Z</time>
      </trkpt>
      <trkpt lat="40.1522980" lon="-3.5976950">
        <ele>499.4</ele>
        <time>2021-04-04T10:11:29Z</time>
      </trkpt>
      <trkpt lat="40.1523400" lon="-3.5977520">
        <ele>499.6</ele>
        <time>2021-04-04T10:11:30Z</time>
      </trkpt>
      <trkpt lat="40.1523780" lon="-3.5978080">
        <ele>499.6</ele>
        <time>2021-04-04T10:11:31Z</time>
      </trkpt>
      <trkpt lat="40.1524160" lon="-3.5978660">
        <ele>499.8</ele>
        <time>2021-04-04T10:11:32Z</time>
      </trkpt>
      <trkpt lat="40.1524540" lon="-3.5979240">
        <ele>499.8</ele>
        <time>2021-04-04T10:11:33Z</time>
      </trkpt>
      <trkpt lat="40.1524930" lon="-3.5979820">
        <ele>499.8</ele>
        <time>2021-04-04T10:11:34Z</time>
      </trkpt>
      <trkpt lat="40.1525310" lon="-3.5980400">
        <ele>500.0</ele>
        <time>2021-04-04T10:11:35Z</time>
      </trkpt>
      <trkpt lat="40.1525690" lon="-3.5980960">
        <ele>500.2</ele>
        <time>2021-04-04T10:11:36Z</time>
      </trkpt>
      <trkpt lat="40.1526070" lon="-3.5981520">
        <ele>500.2</ele>
        <time>2021-04-04T10:11:37Z</time>
      </trkpt>
      <trkpt lat="40.1526450" lon="-3.5982080">
        <ele>500.4</ele>
        <time>2021-04-04T10:11:38Z</time>
      </trkpt>
      <trkpt lat="40.1526830" lon="-3.5982610">
        <ele>500.4</ele>
        <time>2021-04-04T10:11:39Z</time>
      </trkpt>
      <trkpt lat="40.1527180" lon="-3.5983140">
        <ele>500.6</ele>
        <time>2021-04-04T10:11:40Z</time>
      </trkpt>
      <trkpt lat="40.1527560" lon="-3.5983680">
        <ele>500.6</ele>
        <time>2021-04-04T10:11:41Z</time>
      </trkpt>
      <trkpt lat="40.1527940" lon="-3.5984190">
        <ele>500.8</ele>
        <time>2021-04-04T10:11:42Z</time>
      </trkpt>
      <trkpt lat="40.1528280" lon="-3.5984670">
        <ele>501.0</ele>
        <time>2021-04-04T10:11:43Z</time>
      </trkpt>
      <trkpt lat="40.1528590" lon="-3.5985050">
        <ele>501.0</ele>
        <time>2021-04-04T10:11:44Z</time>
      </trkpt>
      <trkpt lat="40.1528930" lon="-3.5985260">
        <ele>501.0</ele>
        <time>2021-04-04T10:11:45Z</time>
      </trkpt>
      <trkpt lat="40.1529270" lon="-3.5985320">
        <ele>501.2</ele>
        <time>2021-04-04T10:11:46Z</time>
      </trkpt>
      <trkpt lat="40.1529660" lon="-3.5985300">
        <ele>501.2</ele>
        <time>2021-04-04T10:11:47Z</time>
      </trkpt>
      <trkpt lat="40.1530040" lon="-3.5985210">
        <ele>501.2</ele>
        <time>2021-04-04T10:11:48Z</time>
      </trkpt>
      <trkpt lat="40.1530460" lon="-3.5985030">
        <ele>501.2</ele>
        <time>2021-04-04T10:11:49Z</time>
      </trkpt>
      <trkpt lat="40.1530910" lon="-3.5984800">
        <ele>501.2</ele>
        <time>2021-04-04T10:11:50Z</time>
      </trkpt>
      <trkpt lat="40.1531370" lon="-3.5984590">
        <ele>501.2</ele>
        <time>2021-04-04T10:11:51Z</time>
      </trkpt>
      <trkpt lat="40.1531830" lon="-3.5984380">
        <ele>501.2</ele>
        <time>2021-04-04T10:11:52Z</time>
      </trkpt>
      <trkpt lat="40.1532250" lon="-3.5984170">
        <ele>501.2</ele>
        <time>2021-04-04T10:11:53Z</time>
      </trkpt>
      <trkpt lat="40.1532670" lon="-3.5983950">
        <ele>501.2</ele>
        <time>2021-04-04T10:11:54Z</time>
      </trkpt>
      <trkpt lat="40.1533130" lon="-3.5983730">
        <ele>501.2</ele>
        <time>2021-04-04T10:11:55Z</time>
      </trkpt>
      <trkpt lat="40.1533580" lon="-3.5983500">
        <ele>501.2</ele>
        <time>2021-04-04T10:11:56Z</time>
      </trkpt>
      <trkpt lat="40.1534000" lon="-3.5983250">
        <ele>501.0</ele>
        <time>2021-04-04T10:11:57Z</time>
      </trkpt>
      <trkpt lat="40.1534460" lon="-3.5983000">
        <ele>500.8</ele>
        <time>2021-04-04T10:11:58Z</time>
      </trkpt>
      <trkpt lat="40.1534880" lon="-3.5982760">
        <ele>500.8</ele>
        <time>2021-04-04T10:11:59Z</time>
      </trkpt>
      <trkpt lat="40.1535300" lon="-3.5982510">
        <ele>500.8</ele>
        <time>2021-04-04T10:12:00Z</time>
      </trkpt>
      <trkpt lat="40.1535720" lon="-3.5982190">
        <ele>500.6</ele>
        <time>2021-04-04T10:12:01Z</time>
      </trkpt>
      <trkpt lat="40.1536180" lon="-3.5981880">
        <ele>500.6</ele>
        <time>2021-04-04T10:12:02Z</time>
      </trkpt>
      <trkpt lat="40.1536600" lon="-3.5981600">
        <ele>500.6</ele>
        <time>2021-04-04T10:12:03Z</time>
      </trkpt>
      <trkpt lat="40.1537060" lon="-3.5981330">
        <ele>500.4</ele>
        <time>2021-04-04T10:12:04Z</time>
      </trkpt>
      <trkpt lat="40.1537510" lon="-3.5981060">
        <ele>500.2</ele>
        <time>2021-04-04T10:12:05Z</time>
      </trkpt>
      <trkpt lat="40.1537970" lon="-3.5980780">
        <ele>500.0</ele>
        <time>2021-04-04T10:12:06Z</time>
      </trkpt>
      <trkpt lat="40.1538470" lon="-3.5980520">
        <ele>500.0</ele>
        <time>2021-04-04T10:12:07Z</time>
      </trkpt>
      <trkpt lat="40.1538960" lon="-3.5980260">
        <ele>499.8</ele>
        <time>2021-04-04T10:12:08Z</time>
      </trkpt>
      <trkpt lat="40.1539460" lon="-3.5979990">
        <ele>499.6</ele>
        <time>2021-04-04T10:12:09Z</time>
      </trkpt>
      <trkpt lat="40.1539920" lon="-3.5979710">
        <ele>499.6</ele>
        <time>2021-04-04T10:12:10Z</time>
      </trkpt>
      <trkpt lat="40.1540450" lon="-3.5979460">
        <ele>499.4</ele>
        <time>2021-04-04T10:12:11Z</time>
      </trkpt>
      <trkpt lat="40.1540980" lon="-3.5979190">
        <ele>499.2</ele>
        <time>2021-04-04T10:12:12Z</time>
      </trkpt>
      <trkpt lat="40.1541520" lon="-3.5978920">
        <ele>499.0</ele>
        <time>2021-04-04T10:12:13Z</time>
      </trkpt>
      <trkpt lat="40.1542050" lon="-3.5978660">
        <ele>498.8</ele>
        <time>2021-04-04T10:12:14Z</time>
      </trkpt>
      <trkpt lat="40.1542590" lon="-3.5978430">
        <ele>498.8</ele>
        <time>2021-04-04T10:12:15Z</time>
      </trkpt>
      <trkpt lat="40.1543120" lon="-3.5978200">
        <ele>498.6</ele>
        <time>2021-04-04T10:12:16Z</time>
      </trkpt>
      <trkpt lat="40.1543660" lon="-3.5977960">
        <ele>498.6</ele>
        <time>2021-04-04T10:12:17Z</time>
      </trkpt>
      <trkpt lat="40.1544190" lon="-3.5977730">
        <ele>498.4</ele>
        <time>2021-04-04T10:12:18Z</time>
      </trkpt>
      <trkpt lat="40.1544720" lon="-3.5977500">
        <ele>498.4</ele>
        <time>2021-04-04T10:12:19Z</time>
      </trkpt>
      <trkpt lat="40.1545330" lon="-3.5977260">
        <ele>498.2</ele>
        <time>2021-04-04T10:12:20Z</time>
      </trkpt>
      <trkpt lat="40.1545870" lon="-3.5977040">
        <ele>498.2</ele>
        <time>2021-04-04T10:12:21Z</time>
      </trkpt>
      <trkpt lat="40.1546440" lon="-3.5976840">
        <ele>498.2</ele>
        <time>2021-04-04T10:12:22Z</time>
      </trkpt>
      <trkpt lat="40.1546970" lon="-3.5976640">
        <ele>498.2</ele>
        <time>2021-04-04T10:12:23Z</time>
      </trkpt>
      <trkpt lat="40.1547510" lon="-3.5976440">
        <ele>498.2</ele>
        <time>2021-04-04T10:12:24Z</time>
      </trkpt>
      <trkpt lat="40.1548000" lon="-3.5976230">
        <ele>498.4</ele>
        <time>2021-04-04T10:12:25Z</time>
      </trkpt>
      <trkpt lat="40.1548540" lon="-3.5975990">
        <ele>498.4</ele>
        <time>2021-04-04T10:12:26Z</time>
      </trkpt>
      <trkpt lat="40.1549070" lon="-3.5975750">
        <ele>498.4</ele>
        <time>2021-04-04T10:12:27Z</time>
      </trkpt>
      <trkpt lat="40.1549610" lon="-3.5975530">
        <ele>498.4</ele>
        <time>2021-04-04T10:12:28Z</time>
      </trkpt>
      <trkpt lat="40.1550100" lon="-3.5975300">
        <ele>498.4</ele>
        <time>2021-04-04T10:12:29Z</time>
      </trkpt>
      <trkpt lat="40.1550600" lon="-3.5975080">
        <ele>498.4</ele>
        <time>2021-04-04T10:12:30Z</time>
      </trkpt>
      <trkpt lat="40.1551130" lon="-3.5974850">
        <ele>498.6</ele>
        <time>2021-04-04T10:12:31Z</time>
      </trkpt>
      <trkpt lat="40.1551630" lon="-3.5974630">
        <ele>498.6</ele>
        <time>2021-04-04T10:12:32Z</time>
      </trkpt>
      <trkpt lat="40.1552120" lon="-3.5974390">
        <ele>498.6</ele>
        <time>2021-04-04T10:12:33Z</time>
      </trkpt>
      <trkpt lat="40.1552620" lon="-3.5974170">
        <ele>498.8</ele>
        <time>2021-04-04T10:12:34Z</time>
      </trkpt>
      <trkpt lat="40.1553150" lon="-3.5973950">
        <ele>498.8</ele>
        <time>2021-04-04T10:12:35Z</time>
      </trkpt>
      <trkpt lat="40.1553650" lon="-3.5973730">
        <ele>498.8</ele>
        <time>2021-04-04T10:12:36Z</time>
      </trkpt>
      <trkpt lat="40.1554150" lon="-3.5973550">
        <ele>498.8</ele>
        <time>2021-04-04T10:12:37Z</time>
      </trkpt>
      <trkpt lat="40.1554680" lon="-3.5973380">
        <ele>498.8</ele>
        <time>2021-04-04T10:12:38Z</time>
      </trkpt>
      <trkpt lat="40.1555180" lon="-3.5973270">
        <ele>499.0</ele>
        <time>2021-04-04T10:12:39Z</time>
      </trkpt>
      <trkpt lat="40.1555710" lon="-3.5973200">
        <ele>499.0</ele>
        <time>2021-04-04T10:12:40Z</time>
      </trkpt>
      <trkpt lat="40.1556210" lon="-3.5973160">
        <ele>499.0</ele>
        <time>2021-04-04T10:12:41Z</time>
      </trkpt>
      <trkpt lat="40.1556740" lon="-3.5973150">
        <ele>499.0</ele>
        <time>2021-04-04T10:12:42Z</time>
      </trkpt>
      <trkpt lat="40.1557270" lon="-3.5973150">
        <ele>499.0</ele>
        <time>2021-04-04T10:12:43Z</time>
      </trkpt>
      <trkpt lat="40.1557770" lon="-3.5973160">
        <ele>498.8</ele>
        <time>2021-04-04T10:12:44Z</time>
      </trkpt>
      <trkpt lat="40.1558300" lon="-3.5973190">
        <ele>498.8</ele>
        <time>2021-04-04T10:12:45Z</time>
      </trkpt>
      <trkpt lat="40.1558800" lon="-3.5973240">
        <ele>498.8</ele>
        <time>2021-04-04T10:12:46Z</time>
      </trkpt>
      <trkpt lat="40.1559300" lon="-3.5973280">
        <ele>498.8</ele>
        <time>2021-04-04T10:12:47Z</time>
      </trkpt>
      <trkpt lat="40.1559830" lon="-3.5973320">
        <ele>499.0</ele>
        <time>2021-04-04T10:12:48Z</time>
      </trkpt>
      <trkpt lat="40.1560360" lon="-3.5973390">
        <ele>499.0</ele>
        <time>2021-04-04T10:12:49Z</time>
      </trkpt>
      <trkpt lat="40.1560860" lon="-3.5973450">
        <ele>499.0</ele>
        <time>2021-04-04T10:12:50Z</time>
      </trkpt>
      <trkpt lat="40.1561390" lon="-3.5973520">
        <ele>499.0</ele>
        <time>2021-04-04T10:12:51Z</time>
      </trkpt>
      <trkpt lat="40.1561890" lon="-3.5973590">
        <ele>499.2</ele>
        <time>2021-04-04T10:12:52Z</time>
      </trkpt>
      <trkpt lat="40.1562390" lon="-3.5973640">
        <ele>499.2</ele>
        <time>2021-04-04T10:12:53Z</time>
      </trkpt>
      <trkpt lat="40.1562840" lon="-3.5973650">
        <ele>499.4</ele>
        <time>2021-04-04T10:12:54Z</time>
      </trkpt>
      <trkpt lat="40.1563340" lon="-3.5973670">
        <ele>499.4</ele>
        <time>2021-04-04T10:12:55Z</time>
      </trkpt>
      <trkpt lat="40.1563830" lon="-3.5973680">
        <ele>499.4</ele>
        <time>2021-04-04T10:12:56Z</time>
      </trkpt>
      <trkpt lat="40.1564410" lon="-3.5973670">
        <ele>499.4</ele>
        <time>2021-04-04T10:12:57Z</time>
      </trkpt>
      <trkpt lat="40.1564980" lon="-3.5973650">
        <ele>499.0</ele>
        <time>2021-04-04T10:12:58Z</time>
      </trkpt>
      <trkpt lat="40.1565590" lon="-3.5973600">
        <ele>498.8</ele>
        <time>2021-04-04T10:12:59Z</time>
      </trkpt>
      <trkpt lat="40.1566160" lon="-3.5973550">
        <ele>498.6</ele>
        <time>2021-04-04T10:13:00Z</time>
      </trkpt>
      <trkpt lat="40.1566730" lon="-3.5973520">
        <ele>498.6</ele>
        <time>2021-04-04T10:13:01Z</time>
      </trkpt>
      <trkpt lat="40.1567340" lon="-3.5973460">
        <ele>498.4</ele>
        <time>2021-04-04T10:13:02Z</time>
      </trkpt>
      <trkpt lat="40.1567960" lon="-3.5973400">
        <ele>498.4</ele>
        <time>2021-04-04T10:13:03Z</time>
      </trkpt>
      <trkpt lat="40.1568530" lon="-3.5973340">
        <ele>498.2</ele>
        <time>2021-04-04T10:13:04Z</time>
      </trkpt>
      <trkpt lat="40.1569100" lon="-3.5973260">
        <ele>498.2</ele>
        <time>2021-04-04T10:13:05Z</time>
      </trkpt>
      <trkpt lat="40.1569710" lon="-3.5973180">
        <ele>498.2</ele>
        <time>2021-04-04T10:13:06Z</time>
      </trkpt>
      <trkpt lat="40.1570280" lon="-3.5973070">
        <ele>498.2</ele>
        <time>2021-04-04T10:13:07Z</time>
      </trkpt>
      <trkpt lat="40.1570850" lon="-3.5972940">
        <ele>498.0</ele>
        <time>2021-04-04T10:13:08Z</time>
      </trkpt>
      <trkpt lat="40.1571390" lon="-3.5972800">
        <ele>498.0</ele>
        <time>2021-04-04T10:13:09Z</time>
      </trkpt>
      <trkpt lat="40.1571960" lon="-3.5972650">
        <ele>498.0</ele>
        <time>2021-04-04T10:13:10Z</time>
      </trkpt>
      <trkpt lat="40.1572490" lon="-3.5972490">
        <ele>498.0</ele>
        <time>2021-04-04T10:13:11Z</time>
      </trkpt>
      <trkpt lat="40.1573070" lon="-3.5972310">
        <ele>498.0</ele>
        <time>2021-04-04T10:13:12Z</time>
      </trkpt>
      <trkpt lat="40.1573600" lon="-3.5972090">
        <ele>497.8</ele>
        <time>2021-04-04T10:13:13Z</time>
      </trkpt>
      <trkpt lat="40.1574130" lon="-3.5971870">
        <ele>497.8</ele>
        <time>2021-04-04T10:13:14Z</time>
      </trkpt>
      <trkpt lat="40.1574670" lon="-3.5971650">
        <ele>497.8</ele>
        <time>2021-04-04T10:13:15Z</time>
      </trkpt>
      <trkpt lat="40.1575240" lon="-3.5971430">
        <ele>497.8</ele>
        <time>2021-04-04T10:13:16Z</time>
      </trkpt>
      <trkpt lat="40.1575770" lon="-3.5971220">
        <ele>497.8</ele>
        <time>2021-04-04T10:13:17Z</time>
      </trkpt>
      <trkpt lat="40.1576310" lon="-3.5971030">
        <ele>497.6</ele>
        <time>2021-04-04T10:13:18Z</time>
      </trkpt>
      <trkpt lat="40.1576840" lon="-3.5970850">
        <ele>497.6</ele>
        <time>2021-04-04T10:13:19Z</time>
      </trkpt>
      <trkpt lat="40.1577420" lon="-3.5970660">
        <ele>497.6</ele>
        <time>2021-04-04T10:13:20Z</time>
      </trkpt>
      <trkpt lat="40.1577950" lon="-3.5970490">
        <ele>497.6</ele>
        <time>2021-04-04T10:13:21Z</time>
      </trkpt>
      <trkpt lat="40.1578520" lon="-3.5970310">
        <ele>497.6</ele>
        <time>2021-04-04T10:13:22Z</time>
      </trkpt>
      <trkpt lat="40.1579060" lon="-3.5970130">
        <ele>497.6</ele>
        <time>2021-04-04T10:13:23Z</time>
      </trkpt>
      <trkpt lat="40.1579590" lon="-3.5969940">
        <ele>497.8</ele>
        <time>2021-04-04T10:13:24Z</time>
      </trkpt>
      <trkpt lat="40.1580120" lon="-3.5969730">
        <ele>497.8</ele>
        <time>2021-04-04T10:13:25Z</time>
      </trkpt>
      <trkpt lat="40.1580660" lon="-3.5969480">
        <ele>497.8</ele>
        <time>2021-04-04T10:13:26Z</time>
      </trkpt>
      <trkpt lat="40.1581150" lon="-3.5969250">
        <ele>497.8</ele>
        <time>2021-04-04T10:13:27Z</time>
      </trkpt>
      <trkpt lat="40.1581690" lon="-3.5969010">
        <ele>498.0</ele>
        <time>2021-04-04T10:13:28Z</time>
      </trkpt>
      <trkpt lat="40.1582220" lon="-3.5968740">
        <ele>498.0</ele>
        <time>2021-04-04T10:13:29Z</time>
      </trkpt>
      <trkpt lat="40.1582720" lon="-3.5968410">
        <ele>498.0</ele>
        <time>2021-04-04T10:13:30Z</time>
      </trkpt>
      <trkpt lat="40.1583210" lon="-3.5968090">
        <ele>498.0</ele>
        <time>2021-04-04T10:13:31Z</time>
      </trkpt>
      <trkpt lat="40.1583710" lon="-3.5967760">
        <ele>497.8</ele>
        <time>2021-04-04T10:13:32Z</time>
      </trkpt>
      <trkpt lat="40.1584210" lon="-3.5967440">
        <ele>497.8</ele>
        <time>2021-04-04T10:13:33Z</time>
      </trkpt>
      <trkpt lat="40.1584660" lon="-3.5967110">
        <ele>497.8</ele>
        <time>2021-04-04T10:13:34Z</time>
      </trkpt>
      <trkpt lat="40.1585080" lon="-3.5966780">
        <ele>497.8</ele>
        <time>2021-04-04T10:13:35Z</time>
      </trkpt>
      <trkpt lat="40.1585540" lon="-3.5966440">
        <ele>497.8</ele>
        <time>2021-04-04T10:13:36Z</time>
      </trkpt>
      <trkpt lat="40.1586040" lon="-3.5966110">
        <ele>497.8</ele>
        <time>2021-04-04T10:13:37Z</time>
      </trkpt>
      <trkpt lat="40.1586490" lon="-3.5965780">
        <ele>497.6</ele>
        <time>2021-04-04T10:13:38Z</time>
      </trkpt>
      <trkpt lat="40.1586990" lon="-3.5965480">
        <ele>497.6</ele>
        <time>2021-04-04T10:13:39Z</time>
      </trkpt>
      <trkpt lat="40.1587450" lon="-3.5965200">
        <ele>497.6</ele>
        <time>2021-04-04T10:13:40Z</time>
      </trkpt>
      <trkpt lat="40.1587940" lon="-3.5964970">
        <ele>497.6</ele>
        <time>2021-04-04T10:13:41Z</time>
      </trkpt>
      <trkpt lat="40.1588440" lon="-3.5964780">
        <ele>497.6</ele>
        <time>2021-04-04T10:13:42Z</time>
      </trkpt>
      <trkpt lat="40.1588970" lon="-3.5964660">
        <ele>497.6</ele>
        <time>2021-04-04T10:13:43Z</time>
      </trkpt>
      <trkpt lat="40.1589550" lon="-3.5964570">
        <ele>497.6</ele>
        <time>2021-04-04T10:13:44Z</time>
      </trkpt>
      <trkpt lat="40.1590120" lon="-3.5964480">
        <ele>497.6</ele>
        <time>2021-04-04T10:13:45Z</time>
      </trkpt>
      <trkpt lat="40.1590690" lon="-3.5964400">
        <ele>497.6</ele>
        <time>2021-04-04T10:13:46Z</time>
      </trkpt>
      <trkpt lat="40.1591260" lon="-3.5964360">
        <ele>497.6</ele>
        <time>2021-04-04T10:13:47Z</time>
      </trkpt>
      <trkpt lat="40.1591840" lon="-3.5964330">
        <ele>497.8</ele>
        <time>2021-04-04T10:13:48Z</time>
      </trkpt>
      <trkpt lat="40.1592370" lon="-3.5964350">
        <ele>497.8</ele>
        <time>2021-04-04T10:13:49Z</time>
      </trkpt>
      <trkpt lat="40.1592900" lon="-3.5964360">
        <ele>497.8</ele>
        <time>2021-04-04T10:13:50Z</time>
      </trkpt>
      <trkpt lat="40.1593440" lon="-3.5964360">
        <ele>498.0</ele>
        <time>2021-04-04T10:13:51Z</time>
      </trkpt>
      <trkpt lat="40.1594010" lon="-3.5964380">
        <ele>498.0</ele>
        <time>2021-04-04T10:13:52Z</time>
      </trkpt>
      <trkpt lat="40.1594540" lon="-3.5964420">
        <ele>498.0</ele>
        <time>2021-04-04T10:13:53Z</time>
      </trkpt>
      <trkpt lat="40.1595120" lon="-3.5964470">
        <ele>498.0</ele>
        <time>2021-04-04T10:13:54Z</time>
      </trkpt>
      <trkpt lat="40.1595690" lon="-3.5964460">
        <ele>498.2</ele>
        <time>2021-04-04T10:13:55Z</time>
      </trkpt>
      <trkpt lat="40.1596220" lon="-3.5964380">
        <ele>498.2</ele>
        <time>2021-04-04T10:13:56Z</time>
      </trkpt>
      <trkpt lat="40.1596830" lon="-3.5964260">
        <ele>498.2</ele>
        <time>2021-04-04T10:13:57Z</time>
      </trkpt>
      <trkpt lat="40.1597370" lon="-3.5964100">
        <ele>498.4</ele>
        <time>2021-04-04T10:13:58Z</time>
      </trkpt>
      <trkpt lat="40.1597860" lon="-3.5963910">
        <ele>498.4</ele>
        <time>2021-04-04T10:13:59Z</time>
      </trkpt>
      <trkpt lat="40.1598400" lon="-3.5963710">
        <ele>498.6</ele>
        <time>2021-04-04T10:14:00Z</time>
      </trkpt>
      <trkpt lat="40.1598850" lon="-3.5963490">
        <ele>498.6</ele>
        <time>2021-04-04T10:14:01Z</time>
      </trkpt>
      <trkpt lat="40.1599310" lon="-3.5963240">
        <ele>498.8</ele>
        <time>2021-04-04T10:14:02Z</time>
      </trkpt>
      <trkpt lat="40.1599770" lon="-3.5962980">
        <ele>499.0</ele>
        <time>2021-04-04T10:14:03Z</time>
      </trkpt>
      <trkpt lat="40.1600190" lon="-3.5962720">
        <ele>499.2</ele>
        <time>2021-04-04T10:14:04Z</time>
      </trkpt>
      <trkpt lat="40.1600610" lon="-3.5962460">
        <ele>499.4</ele>
        <time>2021-04-04T10:14:05Z</time>
      </trkpt>
      <trkpt lat="40.1600950" lon="-3.5962240">
        <ele>499.6</ele>
        <time>2021-04-04T10:14:06Z</time>
      </trkpt>
      <trkpt lat="40.1601300" lon="-3.5962080">
        <ele>499.8</ele>
        <time>2021-04-04T10:14:07Z</time>
      </trkpt>
      <trkpt lat="40.1601600" lon="-3.5961960">
        <ele>499.8</ele>
        <time>2021-04-04T10:14:08Z</time>
      </trkpt>
      <trkpt lat="40.1601830" lon="-3.5961840">
        <ele>500.0</ele>
        <time>2021-04-04T10:14:09Z</time>
      </trkpt>
      <trkpt lat="40.1602060" lon="-3.5961740">
        <ele>500.0</ele>
        <time>2021-04-04T10:14:10Z</time>
      </trkpt>
      <trkpt lat="40.1602250" lon="-3.5961620">
        <ele>500.0</ele>
        <time>2021-04-04T10:14:11Z</time>
      </trkpt>
      <trkpt lat="40.1602440" lon="-3.5961490">
        <ele>500.0</ele>
        <time>2021-04-04T10:14:12Z</time>
      </trkpt>
      <trkpt lat="40.1602630" lon="-3.5961370">
        <ele>500.0</ele>
        <time>2021-04-04T10:14:13Z</time>
      </trkpt>
      <trkpt lat="40.1602750" lon="-3.5961230">
        <ele>500.0</ele>
        <time>2021-04-04T10:14:14Z</time>
      </trkpt>
      <trkpt lat="40.1602820" lon="-3.5961070">
        <ele>500.0</ele>
        <time>2021-04-04T10:14:15Z</time>
      </trkpt>
      <trkpt lat="40.1602780" lon="-3.5960920">
        <ele>499.8</ele>
        <time>2021-04-04T10:14:16Z</time>
      </trkpt>
      <trkpt lat="40.1602710" lon="-3.5960820">
        <ele>499.8</ele>
        <time>2021-04-04T10:14:17Z</time>
      </trkpt>
      <trkpt lat="40.1602520" lon="-3.5960810">
        <ele>500.0</ele>
        <time>2021-04-04T10:14:18Z</time>
      </trkpt>
      <trkpt lat="40.1602360" lon="-3.5960880">
        <ele>500.0</ele>
        <time>2021-04-04T10:14:19Z</time>
      </trkpt>
      <trkpt lat="40.1602290" lon="-3.5961040">
        <ele>500.0</ele>
        <time>2021-04-04T10:14:20Z</time>
      </trkpt>
      <trkpt lat="40.1602250" lon="-3.5961210">
        <ele>500.0</ele>
        <time>2021-04-04T10:14:21Z</time>
      </trkpt>
      <trkpt lat="40.1602330" lon="-3.5961320">
        <ele>500.0</ele>
        <time>2021-04-04T10:14:22Z</time>
      </trkpt>
      <trkpt lat="40.1602520" lon="-3.5961350">
        <ele>500.0</ele>
        <time>2021-04-04T10:14:23Z</time>
      </trkpt>
      <trkpt lat="40.1602670" lon="-3.5961290">
        <ele>500.0</ele>
        <time>2021-04-04T10:14:24Z</time>
      </trkpt>
      <trkpt lat="40.1602900" lon="-3.5961180">
        <ele>500.0</ele>
        <time>2021-04-04T10:14:25Z</time>
      </trkpt>
      <trkpt lat="40.1603160" lon="-3.5961020">
        <ele>500.0</ele>
        <time>2021-04-04T10:14:26Z</time>
      </trkpt>
      <trkpt lat="40.1603430" lon="-3.5960860">
        <ele>500.0</ele>
        <time>2021-04-04T10:14:27Z</time>
      </trkpt>
      <trkpt lat="40.1603740" lon="-3.5960710">
        <ele>500.0</ele>
        <time>2021-04-04T10:14:28Z</time>
      </trkpt>
      <trkpt lat="40.1604120" lon="-3.5960560">
        <ele>500.0</ele>
        <time>2021-04-04T10:14:29Z</time>
      </trkpt>
      <trkpt lat="40.1604460" lon="-3.5960370">
        <ele>500.0</ele>
        <time>2021-04-04T10:14:30Z</time>
      </trkpt>
      <trkpt lat="40.1604770" lon="-3.5960140">
        <ele>500.0</ele>
        <time>2021-04-04T10:14:31Z</time>
      </trkpt>
      <trkpt lat="40.1605110" lon="-3.5959880">
        <ele>500.0</ele>
        <time>2021-04-04T10:14:32Z</time>
      </trkpt>
      <trkpt lat="40.1605450" lon="-3.5959590">
        <ele>500.0</ele>
        <time>2021-04-04T10:14:33Z</time>
      </trkpt>
      <trkpt lat="40.1605800" lon="-3.5959270">
        <ele>500.0</ele>
        <time>2021-04-04T10:14:34Z</time>
      </trkpt>
      <trkpt lat="40.1606140" lon="-3.5958920">
        <ele>500.0</ele>
        <time>2021-04-04T10:14:35Z</time>
      </trkpt>
      <trkpt lat="40.1606480" lon="-3.5958580">
        <ele>500.0</ele>
        <time>2021-04-04T10:14:36Z</time>
      </trkpt>
      <trkpt lat="40.1606830" lon="-3.5958260">
        <ele>500.0</ele>
        <time>2021-04-04T10:14:37Z</time>
      </trkpt>
      <trkpt lat="40.1607170" lon="-3.5957970">
        <ele>500.0</ele>
        <time>2021-04-04T10:14:38Z</time>
      </trkpt>
      <trkpt lat="40.1607510" lon="-3.5957660">
        <ele>500.0</ele>
        <time>2021-04-04T10:14:39Z</time>
      </trkpt>
      <trkpt lat="40.1607860" lon="-3.5957320">
        <ele>500.0</ele>
        <time>2021-04-04T10:14:40Z</time>
      </trkpt>
      <trkpt lat="40.1608240" lon="-3.5956950">
        <ele>500.0</ele>
        <time>2021-04-04T10:14:41Z</time>
      </trkpt>
      <trkpt lat="40.1608580" lon="-3.5956560">
        <ele>500.0</ele>
        <time>2021-04-04T10:14:42Z</time>
      </trkpt>
      <trkpt lat="40.1608960" lon="-3.5956200">
        <ele>500.0</ele>
        <time>2021-04-04T10:14:43Z</time>
      </trkpt>
      <trkpt lat="40.1609340" lon="-3.5955860">
        <ele>500.0</ele>
        <time>2021-04-04T10:14:44Z</time>
      </trkpt>
      <trkpt lat="40.1609730" lon="-3.5955500">
        <ele>500.2</ele>
        <time>2021-04-04T10:14:45Z</time>
      </trkpt>
      <trkpt lat="40.1610110" lon="-3.5955120">
        <ele>500.2</ele>
        <time>2021-04-04T10:14:46Z</time>
      </trkpt>
      <trkpt lat="40.1610490" lon="-3.5954740">
        <ele>500.2</ele>
        <time>2021-04-04T10:14:47Z</time>
      </trkpt>
      <trkpt lat="40.1610870" lon="-3.5954380">
        <ele>500.2</ele>
        <time>2021-04-04T10:14:48Z</time>
      </trkpt>
      <trkpt lat="40.1611250" lon="-3.5954020">
        <ele>500.2</ele>
        <time>2021-04-04T10:14:49Z</time>
      </trkpt>
      <trkpt lat="40.1611630" lon="-3.5953680">
        <ele>500.2</ele>
        <time>2021-04-04T10:14:50Z</time>
      </trkpt>
      <trkpt lat="40.1611980" lon="-3.5953360">
        <ele>500.2</ele>
        <time>2021-04-04T10:14:51Z</time>
      </trkpt>
      <trkpt lat="40.1612320" lon="-3.5953020">
        <ele>500.2</ele>
        <time>2021-04-04T10:14:52Z</time>
      </trkpt>
      <trkpt lat="40.1612700" lon="-3.5952670">
        <ele>500.2</ele>
        <time>2021-04-04T10:14:53Z</time>
      </trkpt>
      <trkpt lat="40.1613080" lon="-3.5952310">
        <ele>500.2</ele>
        <time>2021-04-04T10:14:54Z</time>
      </trkpt>
      <trkpt lat="40.1613430" lon="-3.5951960">
        <ele>500.2</ele>
        <time>2021-04-04T10:14:55Z</time>
      </trkpt>
      <trkpt lat="40.1613810" lon="-3.5951610">
        <ele>500.2</ele>
        <time>2021-04-04T10:14:56Z</time>
      </trkpt>
      <trkpt lat="40.1614190" lon="-3.5951210">
        <ele>500.2</ele>
        <time>2021-04-04T10:14:57Z</time>
      </trkpt>
      <trkpt lat="40.1614570" lon="-3.5950810">
        <ele>500.0</ele>
        <time>2021-04-04T10:14:58Z</time>
      </trkpt>
      <trkpt lat="40.1614950" lon="-3.5950410">
        <ele>500.0</ele>
        <time>2021-04-04T10:14:59Z</time>
      </trkpt>
      <trkpt lat="40.1615300" lon="-3.5950020">
        <ele>500.0</ele>
        <time>2021-04-04T10:15:00Z</time>
      </trkpt>
      <trkpt lat="40.1615720" lon="-3.5949620">
        <ele>500.0</ele>
        <time>2021-04-04T10:15:01Z</time>
      </trkpt>
      <trkpt lat="40.1616100" lon="-3.5949220">
        <ele>500.0</ele>
        <time>2021-04-04T10:15:02Z</time>
      </trkpt>
      <trkpt lat="40.1616480" lon="-3.5948810">
        <ele>500.0</ele>
        <time>2021-04-04T10:15:03Z</time>
      </trkpt>
      <trkpt lat="40.1616900" lon="-3.5948390">
        <ele>500.0</ele>
        <time>2021-04-04T10:15:04Z</time>
      </trkpt>
      <trkpt lat="40.1617280" lon="-3.5947980">
        <ele>500.0</ele>
        <time>2021-04-04T10:15:05Z</time>
      </trkpt>
      <trkpt lat="40.1617660" lon="-3.5947590">
        <ele>500.0</ele>
        <time>2021-04-04T10:15:06Z</time>
      </trkpt>
      <trkpt lat="40.1618040" lon="-3.5947210">
        <ele>500.0</ele>
        <time>2021-04-04T10:15:07Z</time>
      </trkpt>
      <trkpt lat="40.1618460" lon="-3.5946830">
        <ele>500.0</ele>
        <time>2021-04-04T10:15:08Z</time>
      </trkpt>
      <trkpt lat="40.1618880" lon="-3.5946460">
        <ele>500.0</ele>
        <time>2021-04-04T10:15:09Z</time>
      </trkpt>
      <trkpt lat="40.1619260" lon="-3.5946100">
        <ele>500.0</ele>
        <time>2021-04-04T10:15:10Z</time>
      </trkpt>
      <trkpt lat="40.1619680" lon="-3.5945760">
        <ele>500.0</ele>
        <time>2021-04-04T10:15:11Z</time>
      </trkpt>
      <trkpt lat="40.1620140" lon="-3.5945430">
        <ele>500.2</ele>
        <time>2021-04-04T10:15:12Z</time>
      </trkpt>
      <trkpt lat="40.1620600" lon="-3.5945130">
        <ele>500.2</ele>
        <time>2021-04-04T10:15:13Z</time>
      </trkpt>
      <trkpt lat="40.1621020" lon="-3.5944850">
        <ele>500.2</ele>
        <time>2021-04-04T10:15:14Z</time>
      </trkpt>
      <trkpt lat="40.1621510" lon="-3.5944590">
        <ele>500.2</ele>
        <time>2021-04-04T10:15:15Z</time>
      </trkpt>
      <trkpt lat="40.1622010" lon="-3.5944330">
        <ele>500.2</ele>
        <time>2021-04-04T10:15:16Z</time>
      </trkpt>
      <trkpt lat="40.1622510" lon="-3.5944070">
        <ele>500.2</ele>
        <time>2021-04-04T10:15:17Z</time>
      </trkpt>
      <trkpt lat="40.1623040" lon="-3.5943830">
        <ele>500.2</ele>
        <time>2021-04-04T10:15:18Z</time>
      </trkpt>
      <trkpt lat="40.1623530" lon="-3.5943590">
        <ele>500.2</ele>
        <time>2021-04-04T10:15:19Z</time>
      </trkpt>
      <trkpt lat="40.1624070" lon="-3.5943370">
        <ele>500.0</ele>
        <time>2021-04-04T10:15:20Z</time>
      </trkpt>
      <trkpt lat="40.1624570" lon="-3.5943150">
        <ele>500.0</ele>
        <time>2021-04-04T10:15:21Z</time>
      </trkpt>
      <trkpt lat="40.1625060" lon="-3.5942920">
        <ele>500.0</ele>
        <time>2021-04-04T10:15:22Z</time>
      </trkpt>
      <trkpt lat="40.1625600" lon="-3.5942700">
        <ele>500.0</ele>
        <time>2021-04-04T10:15:23Z</time>
      </trkpt>
      <trkpt lat="40.1626090" lon="-3.5942460">
        <ele>500.0</ele>
        <time>2021-04-04T10:15:24Z</time>
      </trkpt>
      <trkpt lat="40.1626590" lon="-3.5942240">
        <ele>500.0</ele>
        <time>2021-04-04T10:15:25Z</time>
      </trkpt>
      <trkpt lat="40.1627120" lon="-3.5942020">
        <ele>500.0</ele>
        <time>2021-04-04T10:15:26Z</time>
      </trkpt>
      <trkpt lat="40.1627620" lon="-3.5941800">
        <ele>500.0</ele>
        <time>2021-04-04T10:15:27Z</time>
      </trkpt>
      <trkpt lat="40.1628110" lon="-3.5941570">
        <ele>500.0</ele>
        <time>2021-04-04T10:15:28Z</time>
      </trkpt>
      <trkpt lat="40.1628650" lon="-3.5941350">
        <ele>500.2</ele>
        <time>2021-04-04T10:15:29Z</time>
      </trkpt>
      <trkpt lat="40.1629140" lon="-3.5941110">
        <ele>500.2</ele>
        <time>2021-04-04T10:15:30Z</time>
      </trkpt>
      <trkpt lat="40.1629640" lon="-3.5940870">
        <ele>500.2</ele>
        <time>2021-04-04T10:15:31Z</time>
      </trkpt>
      <trkpt lat="40.1630130" lon="-3.5940660">
        <ele>500.2</ele>
        <time>2021-04-04T10:15:32Z</time>
      </trkpt>
      <trkpt lat="40.1630630" lon="-3.5940470">
        <ele>500.0</ele>
        <time>2021-04-04T10:15:33Z</time>
      </trkpt>
      <trkpt lat="40.1631130" lon="-3.5940260">
        <ele>500.0</ele>
        <time>2021-04-04T10:15:34Z</time>
      </trkpt>
      <trkpt lat="40.1631620" lon="-3.5940020">
        <ele>500.2</ele>
        <time>2021-04-04T10:15:35Z</time>
      </trkpt>
      <trkpt lat="40.1632120" lon="-3.5939780">
        <ele>500.2</ele>
        <time>2021-04-04T10:15:36Z</time>
      </trkpt>
      <trkpt lat="40.1632610" lon="-3.5939550">
        <ele>500.0</ele>
        <time>2021-04-04T10:15:37Z</time>
      </trkpt>
      <trkpt lat="40.1633110" lon="-3.5939350">
        <ele>500.0</ele>
        <time>2021-04-04T10:15:38Z</time>
      </trkpt>
      <trkpt lat="40.1633610" lon="-3.5939130">
        <ele>500.2</ele>
        <time>2021-04-04T10:15:39Z</time>
      </trkpt>
      <trkpt lat="40.1634100" lon="-3.5938910">
        <ele>500.2</ele>
        <time>2021-04-04T10:15:40Z</time>
      </trkpt>
      <trkpt lat="40.1634560" lon="-3.5938680">
        <ele>500.2</ele>
        <time>2021-04-04T10:15:41Z</time>
      </trkpt>
      <trkpt lat="40.1635060" lon="-3.5938450">
        <ele>500.2</ele>
        <time>2021-04-04T10:15:42Z</time>
      </trkpt>
      <trkpt lat="40.1635510" lon="-3.5938240">
        <ele>500.2</ele>
        <time>2021-04-04T10:15:43Z</time>
      </trkpt>
      <trkpt lat="40.1636010" lon="-3.5938020">
        <ele>500.2</ele>
        <time>2021-04-04T10:15:44Z</time>
      </trkpt>
      <trkpt lat="40.1636510" lon="-3.5937800">
        <ele>500.2</ele>
        <time>2021-04-04T10:15:45Z</time>
      </trkpt>
      <trkpt lat="40.1637000" lon="-3.5937590">
        <ele>500.2</ele>
        <time>2021-04-04T10:15:46Z</time>
      </trkpt>
      <trkpt lat="40.1637460" lon="-3.5937390">
        <ele>500.2</ele>
        <time>2021-04-04T10:15:47Z</time>
      </trkpt>
      <trkpt lat="40.1637960" lon="-3.5937160">
        <ele>500.2</ele>
        <time>2021-04-04T10:15:48Z</time>
      </trkpt>
      <trkpt lat="40.1638410" lon="-3.5936920">
        <ele>500.0</ele>
        <time>2021-04-04T10:15:49Z</time>
      </trkpt>
      <trkpt lat="40.1638910" lon="-3.5936700">
        <ele>500.2</ele>
        <time>2021-04-04T10:15:50Z</time>
      </trkpt>
      <trkpt lat="40.1639400" lon="-3.5936460">
        <ele>500.2</ele>
        <time>2021-04-04T10:15:51Z</time>
      </trkpt>
      <trkpt lat="40.1639900" lon="-3.5936220">
        <ele>500.2</ele>
        <time>2021-04-04T10:15:52Z</time>
      </trkpt>
      <trkpt lat="40.1640400" lon="-3.5935960">
        <ele>500.2</ele>
        <time>2021-04-04T10:15:53Z</time>
      </trkpt>
      <trkpt lat="40.1640890" lon="-3.5935700">
        <ele>500.2</ele>
        <time>2021-04-04T10:15:54Z</time>
      </trkpt>
      <trkpt lat="40.1641430" lon="-3.5935450">
        <ele>500.2</ele>
        <time>2021-04-04T10:15:55Z</time>
      </trkpt>
      <trkpt lat="40.1641920" lon="-3.5935210">
        <ele>500.2</ele>
        <time>2021-04-04T10:15:56Z</time>
      </trkpt>
      <trkpt lat="40.1642420" lon="-3.5934980">
        <ele>500.2</ele>
        <time>2021-04-04T10:15:57Z</time>
      </trkpt>
      <trkpt lat="40.1642910" lon="-3.5934770">
        <ele>500.2</ele>
        <time>2021-04-04T10:15:58Z</time>
      </trkpt>
      <trkpt lat="40.1643410" lon="-3.5934550">
        <ele>500.2</ele>
        <time>2021-04-04T10:15:59Z</time>
      </trkpt>
      <trkpt lat="40.1643910" lon="-3.5934340">
        <ele>500.0</ele>
        <time>2021-04-04T10:16:00Z</time>
      </trkpt>
      <trkpt lat="40.1644440" lon="-3.5934110">
        <ele>500.0</ele>
        <time>2021-04-04T10:16:01Z</time>
      </trkpt>
      <trkpt lat="40.1644940" lon="-3.5933880">
        <ele>500.0</ele>
        <time>2021-04-04T10:16:02Z</time>
      </trkpt>
      <trkpt lat="40.1645430" lon="-3.5933640">
        <ele>500.0</ele>
        <time>2021-04-04T10:16:03Z</time>
      </trkpt>
      <trkpt lat="40.1645970" lon="-3.5933400">
        <ele>500.0</ele>
        <time>2021-04-04T10:16:04Z</time>
      </trkpt>
      <trkpt lat="40.1646460" lon="-3.5933160">
        <ele>500.0</ele>
        <time>2021-04-04T10:16:05Z</time>
      </trkpt>
      <trkpt lat="40.1647000" lon="-3.5932910">
        <ele>500.0</ele>
        <time>2021-04-04T10:16:06Z</time>
      </trkpt>
      <trkpt lat="40.1647530" lon="-3.5932660">
        <ele>500.0</ele>
        <time>2021-04-04T10:16:07Z</time>
      </trkpt>
      <trkpt lat="40.1648060" lon="-3.5932430">
        <ele>500.0</ele>
        <time>2021-04-04T10:16:08Z</time>
      </trkpt>
      <trkpt lat="40.1648600" lon="-3.5932160">
        <ele>500.0</ele>
        <time>2021-04-04T10:16:09Z</time>
      </trkpt>
      <trkpt lat="40.1649090" lon="-3.5931870">
        <ele>500.0</ele>
        <time>2021-04-04T10:16:10Z</time>
      </trkpt>
      <trkpt lat="40.1649590" lon="-3.5931550">
        <ele>500.2</ele>
        <time>2021-04-04T10:16:11Z</time>
      </trkpt>
      <trkpt lat="40.1650050" lon="-3.5931180">
        <ele>500.2</ele>
        <time>2021-04-04T10:16:12Z</time>
      </trkpt>
      <trkpt lat="40.1650470" lon="-3.5930740">
        <ele>500.2</ele>
        <time>2021-04-04T10:16:13Z</time>
      </trkpt>
      <trkpt lat="40.1650890" lon="-3.5930260">
        <ele>500.2</ele>
        <time>2021-04-04T10:16:14Z</time>
      </trkpt>
      <trkpt lat="40.1651310" lon="-3.5929740">
        <ele>500.2</ele>
        <time>2021-04-04T10:16:15Z</time>
      </trkpt>
      <trkpt lat="40.1651690" lon="-3.5929210">
        <ele>500.2</ele>
        <time>2021-04-04T10:16:16Z</time>
      </trkpt>
      <trkpt lat="40.1652030" lon="-3.5928650">
        <ele>500.2</ele>
        <time>2021-04-04T10:16:17Z</time>
      </trkpt>
      <trkpt lat="40.1652370" lon="-3.5928080">
        <ele>500.2</ele>
        <time>2021-04-04T10:16:18Z</time>
      </trkpt>
      <trkpt lat="40.1652720" lon="-3.5927530">
        <ele>500.2</ele>
        <time>2021-04-04T10:16:19Z</time>
      </trkpt>
      <trkpt lat="40.1653060" lon="-3.5927000">
        <ele>500.2</ele>
        <time>2021-04-04T10:16:20Z</time>
      </trkpt>
      <trkpt lat="40.1653400" lon="-3.5926450">
        <ele>500.2</ele>
        <time>2021-04-04T10:16:21Z</time>
      </trkpt>
      <trkpt lat="40.1653750" lon="-3.5925870">
        <ele>500.4</ele>
        <time>2021-04-04T10:16:22Z</time>
      </trkpt>
      <trkpt lat="40.1654090" lon="-3.5925330">
        <ele>500.4</ele>
        <time>2021-04-04T10:16:23Z</time>
      </trkpt>
      <trkpt lat="40.1654430" lon="-3.5924800">
        <ele>500.4</ele>
        <time>2021-04-04T10:16:24Z</time>
      </trkpt>
      <trkpt lat="40.1654820" lon="-3.5924270">
        <ele>500.4</ele>
        <time>2021-04-04T10:16:25Z</time>
      </trkpt>
      <trkpt lat="40.1655200" lon="-3.5923770">
        <ele>500.4</ele>
        <time>2021-04-04T10:16:26Z</time>
      </trkpt>
      <trkpt lat="40.1655620" lon="-3.5923290">
        <ele>500.4</ele>
        <time>2021-04-04T10:16:27Z</time>
      </trkpt>
      <trkpt lat="40.1656070" lon="-3.5922870">
        <ele>500.2</ele>
        <time>2021-04-04T10:16:28Z</time>
      </trkpt>
      <trkpt lat="40.1656570" lon="-3.5922510">
        <ele>500.2</ele>
        <time>2021-04-04T10:16:29Z</time>
      </trkpt>
      <trkpt lat="40.1657070" lon="-3.5922220">
        <ele>500.2</ele>
        <time>2021-04-04T10:16:30Z</time>
      </trkpt>
      <trkpt lat="40.1657600" lon="-3.5921970">
        <ele>500.2</ele>
        <time>2021-04-04T10:16:31Z</time>
      </trkpt>
      <trkpt lat="40.1658130" lon="-3.5921750">
        <ele>500.2</ele>
        <time>2021-04-04T10:16:32Z</time>
      </trkpt>
      <trkpt lat="40.1658710" lon="-3.5921590">
        <ele>500.2</ele>
        <time>2021-04-04T10:16:33Z</time>
      </trkpt>
      <trkpt lat="40.1659280" lon="-3.5921460">
        <ele>500.2</ele>
        <time>2021-04-04T10:16:34Z</time>
      </trkpt>
      <trkpt lat="40.1659810" lon="-3.5921340">
        <ele>500.2</ele>
        <time>2021-04-04T10:16:35Z</time>
      </trkpt>
      <trkpt lat="40.1660390" lon="-3.5921200">
        <ele>500.2</ele>
        <time>2021-04-04T10:16:36Z</time>
      </trkpt>
      <trkpt lat="40.1661000" lon="-3.5921050">
        <ele>500.2</ele>
        <time>2021-04-04T10:16:37Z</time>
      </trkpt>
      <trkpt lat="40.1661610" lon="-3.5920880">
        <ele>500.2</ele>
        <time>2021-04-04T10:16:38Z</time>
      </trkpt>
      <trkpt lat="40.1662180" lon="-3.5920710">
        <ele>500.0</ele>
        <time>2021-04-04T10:16:39Z</time>
      </trkpt>
      <trkpt lat="40.1662790" lon="-3.5920560">
        <ele>500.0</ele>
        <time>2021-04-04T10:16:40Z</time>
      </trkpt>
      <trkpt lat="40.1663320" lon="-3.5920380">
        <ele>500.0</ele>
        <time>2021-04-04T10:16:41Z</time>
      </trkpt>
      <trkpt lat="40.1663890" lon="-3.5920170">
        <ele>500.0</ele>
        <time>2021-04-04T10:16:42Z</time>
      </trkpt>
      <trkpt lat="40.1664500" lon="-3.5919910">
        <ele>500.2</ele>
        <time>2021-04-04T10:16:43Z</time>
      </trkpt>
      <trkpt lat="40.1665040" lon="-3.5919600">
        <ele>500.2</ele>
        <time>2021-04-04T10:16:44Z</time>
      </trkpt>
      <trkpt lat="40.1665570" lon="-3.5919230">
        <ele>500.2</ele>
        <time>2021-04-04T10:16:45Z</time>
      </trkpt>
      <trkpt lat="40.1666070" lon="-3.5918770">
        <ele>500.0</ele>
        <time>2021-04-04T10:16:46Z</time>
      </trkpt>
      <trkpt lat="40.1666490" lon="-3.5918230">
        <ele>500.0</ele>
        <time>2021-04-04T10:16:47Z</time>
      </trkpt>
      <trkpt lat="40.1666910" lon="-3.5917630">
        <ele>500.0</ele>
        <time>2021-04-04T10:16:48Z</time>
      </trkpt>
      <trkpt lat="40.1667290" lon="-3.5916990">
        <ele>500.0</ele>
        <time>2021-04-04T10:16:49Z</time>
      </trkpt>
      <trkpt lat="40.1667630" lon="-3.5916320">
        <ele>500.0</ele>
        <time>2021-04-04T10:16:50Z</time>
      </trkpt>
      <trkpt lat="40.1667940" lon="-3.5915640">
        <ele>500.2</ele>
        <time>2021-04-04T10:16:51Z</time>
      </trkpt>
      <trkpt lat="40.1668280" lon="-3.5914960">
        <ele>500.2</ele>
        <time>2021-04-04T10:16:52Z</time>
      </trkpt>
      <trkpt lat="40.1668590" lon="-3.5914280">
        <ele>500.2</ele>
        <time>2021-04-04T10:16:53Z</time>
      </trkpt>
      <trkpt lat="40.1668930" lon="-3.5913610">
        <ele>500.2</ele>
        <time>2021-04-04T10:16:54Z</time>
      </trkpt>
      <trkpt lat="40.1669240" lon="-3.5912940">
        <ele>500.2</ele>
        <time>2021-04-04T10:16:55Z</time>
      </trkpt>
      <trkpt lat="40.1669580" lon="-3.5912290">
        <ele>500.2</ele>
        <time>2021-04-04T10:16:56Z</time>
      </trkpt>
      <trkpt lat="40.1669920" lon="-3.5911640">
        <ele>500.0</ele>
        <time>2021-04-04T10:16:57Z</time>
      </trkpt>
      <trkpt lat="40.1670260" lon="-3.5910990">
        <ele>500.0</ele>
        <time>2021-04-04T10:16:58Z</time>
      </trkpt>
      <trkpt lat="40.1670570" lon="-3.5910360">
        <ele>500.0</ele>
        <time>2021-04-04T10:16:59Z</time>
      </trkpt>
      <trkpt lat="40.1670910" lon="-3.5909730">
        <ele>500.0</ele>
        <time>2021-04-04T10:17:00Z</time>
      </trkpt>
      <trkpt lat="40.1671260" lon="-3.5909090">
        <ele>499.8</ele>
        <time>2021-04-04T10:17:01Z</time>
      </trkpt>
      <trkpt lat="40.1671560" lon="-3.5908470">
        <ele>499.8</ele>
        <time>2021-04-04T10:17:02Z</time>
      </trkpt>
      <trkpt lat="40.1671910" lon="-3.5907840">
        <ele>500.0</ele>
        <time>2021-04-04T10:17:03Z</time>
      </trkpt>
      <trkpt lat="40.1672250" lon="-3.5907180">
        <ele>500.0</ele>
        <time>2021-04-04T10:17:04Z</time>
      </trkpt>
      <trkpt lat="40.1672550" lon="-3.5906550">
        <ele>500.0</ele>
        <time>2021-04-04T10:17:05Z</time>
      </trkpt>
      <trkpt lat="40.1672860" lon="-3.5905940">
        <ele>500.2</ele>
        <time>2021-04-04T10:17:06Z</time>
      </trkpt>
      <trkpt lat="40.1673160" lon="-3.5905330">
        <ele>500.2</ele>
        <time>2021-04-04T10:17:07Z</time>
      </trkpt>
      <trkpt lat="40.1673510" lon="-3.5904710">
        <ele>500.2</ele>
        <time>2021-04-04T10:17:08Z</time>
      </trkpt>
      <trkpt lat="40.1673810" lon="-3.5904040">
        <ele>500.0</ele>
        <time>2021-04-04T10:17:09Z</time>
      </trkpt>
      <trkpt lat="40.1674160" lon="-3.5903370">
        <ele>500.0</ele>
        <time>2021-04-04T10:17:10Z</time>
      </trkpt>
      <trkpt lat="40.1674460" lon="-3.5902720">
        <ele>500.0</ele>
        <time>2021-04-04T10:17:11Z</time>
      </trkpt>
      <trkpt lat="40.1674770" lon="-3.5902060">
        <ele>499.8</ele>
        <time>2021-04-04T10:17:12Z</time>
      </trkpt>
      <trkpt lat="40.1675070" lon="-3.5901410">
        <ele>499.8</ele>
        <time>2021-04-04T10:17:13Z</time>
      </trkpt>
      <trkpt lat="40.1675410" lon="-3.5900780">
        <ele>499.8</ele>
        <time>2021-04-04T10:17:14Z</time>
      </trkpt>
      <trkpt lat="40.1675760" lon="-3.5900170">
        <ele>499.8</ele>
        <time>2021-04-04T10:17:15Z</time>
      </trkpt>
      <trkpt lat="40.1676100" lon="-3.5899540">
        <ele>499.6</ele>
        <time>2021-04-04T10:17:16Z</time>
      </trkpt>
      <trkpt lat="40.1676440" lon="-3.5898910">
        <ele>499.6</ele>
        <time>2021-04-04T10:17:17Z</time>
      </trkpt>
      <trkpt lat="40.1676750" lon="-3.5898280">
        <ele>499.4</ele>
        <time>2021-04-04T10:17:18Z</time>
      </trkpt>
      <trkpt lat="40.1677060" lon="-3.5897620">
        <ele>499.4</ele>
        <time>2021-04-04T10:17:19Z</time>
      </trkpt>
      <trkpt lat="40.1677360" lon="-3.5896960">
        <ele>499.4</ele>
        <time>2021-04-04T10:17:20Z</time>
      </trkpt>
      <trkpt lat="40.1677700" lon="-3.5896330">
        <ele>499.4</ele>
        <time>2021-04-04T10:17:21Z</time>
      </trkpt>
      <trkpt lat="40.1678010" lon="-3.5895700">
        <ele>499.4</ele>
        <time>2021-04-04T10:17:22Z</time>
      </trkpt>
      <trkpt lat="40.1678310" lon="-3.5895090">
        <ele>499.4</ele>
        <time>2021-04-04T10:17:23Z</time>
      </trkpt>
      <trkpt lat="40.1678620" lon="-3.5894470">
        <ele>499.4</ele>
        <time>2021-04-04T10:17:24Z</time>
      </trkpt>
      <trkpt lat="40.1678920" lon="-3.5893840">
        <ele>499.6</ele>
        <time>2021-04-04T10:17:25Z</time>
      </trkpt>
      <trkpt lat="40.1679230" lon="-3.5893220">
        <ele>499.6</ele>
        <time>2021-04-04T10:17:26Z</time>
      </trkpt>
      <trkpt lat="40.1679570" lon="-3.5892600">
        <ele>499.6</ele>
        <time>2021-04-04T10:17:27Z</time>
      </trkpt>
      <trkpt lat="40.1679920" lon="-3.5891980">
        <ele>499.6</ele>
        <time>2021-04-04T10:17:28Z</time>
      </trkpt>
      <trkpt lat="40.1680220" lon="-3.5891350">
        <ele>499.6</ele>
        <time>2021-04-04T10:17:29Z</time>
      </trkpt>
      <trkpt lat="40.1680530" lon="-3.5890710">
        <ele>499.8</ele>
        <time>2021-04-04T10:17:30Z</time>
      </trkpt>
      <trkpt lat="40.1680870" lon="-3.5890060">
        <ele>500.0</ele>
        <time>2021-04-04T10:17:31Z</time>
      </trkpt>
      <trkpt lat="40.1681210" lon="-3.5889420">
        <ele>500.0</ele>
        <time>2021-04-04T10:17:32Z</time>
      </trkpt>
      <trkpt lat="40.1681590" lon="-3.5888740">
        <ele>500.0</ele>
        <time>2021-04-04T10:17:33Z</time>
      </trkpt>
      <trkpt lat="40.1681980" lon="-3.5888050">
        <ele>500.0</ele>
        <time>2021-04-04T10:17:34Z</time>
      </trkpt>
      <trkpt lat="40.1682320" lon="-3.5887320">
        <ele>500.2</ele>
        <time>2021-04-04T10:17:35Z</time>
      </trkpt>
      <trkpt lat="40.1682700" lon="-3.5886560">
        <ele>500.2</ele>
        <time>2021-04-04T10:17:36Z</time>
      </trkpt>
      <trkpt lat="40.1683080" lon="-3.5885780">
        <ele>500.2</ele>
        <time>2021-04-04T10:17:37Z</time>
      </trkpt>
      <trkpt lat="40.1683460" lon="-3.5885000">
        <ele>500.2</ele>
        <time>2021-04-04T10:17:38Z</time>
      </trkpt>
      <trkpt lat="40.1683850" lon="-3.5884200">
        <ele>500.2</ele>
        <time>2021-04-04T10:17:39Z</time>
      </trkpt>
      <trkpt lat="40.1684230" lon="-3.5883390">
        <ele>500.2</ele>
        <time>2021-04-04T10:17:40Z</time>
      </trkpt>
      <trkpt lat="40.1684610" lon="-3.5882600">
        <ele>500.2</ele>
        <time>2021-04-04T10:17:41Z</time>
      </trkpt>
      <trkpt lat="40.1685030" lon="-3.5881820">
        <ele>500.2</ele>
        <time>2021-04-04T10:17:42Z</time>
      </trkpt>
      <trkpt lat="40.1685490" lon="-3.5881070">
        <ele>500.2</ele>
        <time>2021-04-04T10:17:43Z</time>
      </trkpt>
      <trkpt lat="40.1686020" lon="-3.5880420">
        <ele>500.2</ele>
        <time>2021-04-04T10:17:44Z</time>
      </trkpt>
      <trkpt lat="40.1686670" lon="-3.5879940">
        <ele>500.2</ele>
        <time>2021-04-04T10:17:45Z</time>
      </trkpt>
      <trkpt lat="40.1687390" lon="-3.5879670">
        <ele>500.2</ele>
        <time>2021-04-04T10:17:46Z</time>
      </trkpt>
      <trkpt lat="40.1688160" lon="-3.5879520">
        <ele>500.2</ele>
        <time>2021-04-04T10:17:47Z</time>
      </trkpt>
      <trkpt lat="40.1688960" lon="-3.5879420">
        <ele>500.0</ele>
        <time>2021-04-04T10:17:48Z</time>
      </trkpt>
      <trkpt lat="40.1689760" lon="-3.5879340">
        <ele>500.2</ele>
        <time>2021-04-04T10:17:49Z</time>
      </trkpt>
      <trkpt lat="40.1690560" lon="-3.5879270">
        <ele>500.2</ele>
        <time>2021-04-04T10:17:50Z</time>
      </trkpt>
      <trkpt lat="40.1691360" lon="-3.5879190">
        <ele>500.2</ele>
        <time>2021-04-04T10:17:51Z</time>
      </trkpt>
      <trkpt lat="40.1692160" lon="-3.5879120">
        <ele>500.2</ele>
        <time>2021-04-04T10:17:52Z</time>
      </trkpt>
      <trkpt lat="40.1692960" lon="-3.5879050">
        <ele>500.2</ele>
        <time>2021-04-04T10:17:53Z</time>
      </trkpt>
      <trkpt lat="40.1693760" lon="-3.5878970">
        <ele>500.2</ele>
        <time>2021-04-04T10:17:54Z</time>
      </trkpt>
      <trkpt lat="40.1694530" lon="-3.5878890">
        <ele>500.2</ele>
        <time>2021-04-04T10:17:55Z</time>
      </trkpt>
      <trkpt lat="40.1695330" lon="-3.5878810">
        <ele>500.2</ele>
        <time>2021-04-04T10:17:56Z</time>
      </trkpt>
      <trkpt lat="40.1696170" lon="-3.5878750">
        <ele>500.2</ele>
        <time>2021-04-04T10:17:57Z</time>
      </trkpt>
      <trkpt lat="40.1697010" lon="-3.5878680">
        <ele>500.2</ele>
        <time>2021-04-04T10:17:58Z</time>
      </trkpt>
      <trkpt lat="40.1697880" lon="-3.5878600">
        <ele>500.2</ele>
        <time>2021-04-04T10:17:59Z</time>
      </trkpt>
      <trkpt lat="40.1698720" lon="-3.5878520">
        <ele>500.2</ele>
        <time>2021-04-04T10:18:00Z</time>
      </trkpt>
      <trkpt lat="40.1699600" lon="-3.5878440">
        <ele>500.2</ele>
        <time>2021-04-04T10:18:01Z</time>
      </trkpt>
      <trkpt lat="40.1700440" lon="-3.5878360">
        <ele>500.2</ele>
        <time>2021-04-04T10:18:02Z</time>
      </trkpt>
      <trkpt lat="40.1701320" lon="-3.5878290">
        <ele>500.2</ele>
        <time>2021-04-04T10:18:03Z</time>
      </trkpt>
      <trkpt lat="40.1702190" lon="-3.5878200">
        <ele>500.2</ele>
        <time>2021-04-04T10:18:04Z</time>
      </trkpt>
      <trkpt lat="40.1703030" lon="-3.5878120">
        <ele>500.2</ele>
        <time>2021-04-04T10:18:05Z</time>
      </trkpt>
      <trkpt lat="40.1703910" lon="-3.5878030">
        <ele>500.2</ele>
        <time>2021-04-04T10:18:06Z</time>
      </trkpt>
      <trkpt lat="40.1704830" lon="-3.5877930">
        <ele>500.4</ele>
        <time>2021-04-04T10:18:07Z</time>
      </trkpt>
      <trkpt lat="40.1705670" lon="-3.5877820">
        <ele>500.4</ele>
        <time>2021-04-04T10:18:08Z</time>
      </trkpt>
      <trkpt lat="40.1706540" lon="-3.5877700">
        <ele>500.4</ele>
        <time>2021-04-04T10:18:09Z</time>
      </trkpt>
      <trkpt lat="40.1707380" lon="-3.5877580">
        <ele>500.4</ele>
        <time>2021-04-04T10:18:10Z</time>
      </trkpt>
      <trkpt lat="40.1708220" lon="-3.5877480">
        <ele>500.4</ele>
        <time>2021-04-04T10:18:11Z</time>
      </trkpt>
      <trkpt lat="40.1709020" lon="-3.5877380">
        <ele>500.4</ele>
        <time>2021-04-04T10:18:12Z</time>
      </trkpt>
      <trkpt lat="40.1709900" lon="-3.5877280">
        <ele>500.4</ele>
        <time>2021-04-04T10:18:13Z</time>
      </trkpt>
      <trkpt lat="40.1710740" lon="-3.5877210">
        <ele>500.4</ele>
        <time>2021-04-04T10:18:14Z</time>
      </trkpt>
      <trkpt lat="40.1711620" lon="-3.5877160">
        <ele>500.6</ele>
        <time>2021-04-04T10:18:15Z</time>
      </trkpt>
      <trkpt lat="40.1712490" lon="-3.5877140">
        <ele>500.4</ele>
        <time>2021-04-04T10:18:16Z</time>
      </trkpt>
      <trkpt lat="40.1713410" lon="-3.5877120">
        <ele>500.4</ele>
        <time>2021-04-04T10:18:17Z</time>
      </trkpt>
      <trkpt lat="40.1714290" lon="-3.5877070">
        <ele>500.2</ele>
        <time>2021-04-04T10:18:18Z</time>
      </trkpt>
      <trkpt lat="40.1715200" lon="-3.5877010">
        <ele>500.0</ele>
        <time>2021-04-04T10:18:19Z</time>
      </trkpt>
      <trkpt lat="40.1716080" lon="-3.5876940">
        <ele>500.0</ele>
        <time>2021-04-04T10:18:20Z</time>
      </trkpt>
      <trkpt lat="40.1716880" lon="-3.5876840">
        <ele>500.0</ele>
        <time>2021-04-04T10:18:21Z</time>
      </trkpt>
      <trkpt lat="40.1717760" lon="-3.5876730">
        <ele>500.0</ele>
        <time>2021-04-04T10:18:22Z</time>
      </trkpt>
      <trkpt lat="40.1718640" lon="-3.5876620">
        <ele>499.8</ele>
        <time>2021-04-04T10:18:23Z</time>
      </trkpt>
      <trkpt lat="40.1719440" lon="-3.5876490">
        <ele>499.8</ele>
        <time>2021-04-04T10:18:24Z</time>
      </trkpt>
      <trkpt lat="40.1720240" lon="-3.5876320">
        <ele>499.8</ele>
        <time>2021-04-04T10:18:25Z</time>
      </trkpt>
      <trkpt lat="40.1721040" lon="-3.5876150">
        <ele>499.8</ele>
        <time>2021-04-04T10:18:26Z</time>
      </trkpt>
      <trkpt lat="40.1721840" lon="-3.5876000">
        <ele>500.0</ele>
        <time>2021-04-04T10:18:27Z</time>
      </trkpt>
      <trkpt lat="40.1722600" lon="-3.5875880">
        <ele>500.0</ele>
        <time>2021-04-04T10:18:28Z</time>
      </trkpt>
      <trkpt lat="40.1723370" lon="-3.5875800">
        <ele>500.0</ele>
        <time>2021-04-04T10:18:29Z</time>
      </trkpt>
      <trkpt lat="40.1724090" lon="-3.5875790">
        <ele>500.0</ele>
        <time>2021-04-04T10:18:30Z</time>
      </trkpt>
      <trkpt lat="40.1724820" lon="-3.5875830">
        <ele>500.0</ele>
        <time>2021-04-04T10:18:31Z</time>
      </trkpt>
      <trkpt lat="40.1725580" lon="-3.5875840">
        <ele>500.0</ele>
        <time>2021-04-04T10:18:32Z</time>
      </trkpt>
      <trkpt lat="40.1726380" lon="-3.5875820">
        <ele>500.0</ele>
        <time>2021-04-04T10:18:33Z</time>
      </trkpt>
      <trkpt lat="40.1727100" lon="-3.5875790">
        <ele>500.0</ele>
        <time>2021-04-04T10:18:34Z</time>
      </trkpt>
      <trkpt lat="40.1727910" lon="-3.5875750">
        <ele>500.0</ele>
        <time>2021-04-04T10:18:35Z</time>
      </trkpt>
      <trkpt lat="40.1728670" lon="-3.5875730">
        <ele>500.0</ele>
        <time>2021-04-04T10:18:36Z</time>
      </trkpt>
      <trkpt lat="40.1729390" lon="-3.5875700">
        <ele>500.0</ele>
        <time>2021-04-04T10:18:37Z</time>
      </trkpt>
      <trkpt lat="40.1730190" lon="-3.5875680">
        <ele>500.0</ele>
        <time>2021-04-04T10:18:38Z</time>
      </trkpt>
      <trkpt lat="40.1730920" lon="-3.5875650">
        <ele>500.0</ele>
        <time>2021-04-04T10:18:39Z</time>
      </trkpt>
      <trkpt lat="40.1731640" lon="-3.5875600">
        <ele>500.0</ele>
        <time>2021-04-04T10:18:40Z</time>
      </trkpt>
      <trkpt lat="40.1732370" lon="-3.5875570">
        <ele>500.0</ele>
        <time>2021-04-04T10:18:41Z</time>
      </trkpt>
      <trkpt lat="40.1733090" lon="-3.5875520">
        <ele>500.0</ele>
        <time>2021-04-04T10:18:42Z</time>
      </trkpt>
      <trkpt lat="40.1733860" lon="-3.5875420">
        <ele>500.0</ele>
        <time>2021-04-04T10:18:43Z</time>
      </trkpt>
      <trkpt lat="40.1734580" lon="-3.5875270">
        <ele>500.0</ele>
        <time>2021-04-04T10:18:44Z</time>
      </trkpt>
      <trkpt lat="40.1735310" lon="-3.5875100">
        <ele>500.0</ele>
        <time>2021-04-04T10:18:45Z</time>
      </trkpt>
      <trkpt lat="40.1735990" lon="-3.5874920">
        <ele>500.0</ele>
        <time>2021-04-04T10:18:46Z</time>
      </trkpt>
      <trkpt lat="40.1736680" lon="-3.5874710">
        <ele>500.0</ele>
        <time>2021-04-04T10:18:47Z</time>
      </trkpt>
      <trkpt lat="40.1737400" lon="-3.5874460">
        <ele>500.0</ele>
        <time>2021-04-04T10:18:48Z</time>
      </trkpt>
      <trkpt lat="40.1738090" lon="-3.5874210">
        <ele>500.0</ele>
        <time>2021-04-04T10:18:49Z</time>
      </trkpt>
      <trkpt lat="40.1738780" lon="-3.5873980">
        <ele>500.0</ele>
        <time>2021-04-04T10:18:50Z</time>
      </trkpt>
      <trkpt lat="40.1739430" lon="-3.5873740">
        <ele>500.0</ele>
        <time>2021-04-04T10:18:51Z</time>
      </trkpt>
      <trkpt lat="40.1740070" lon="-3.5873500">
        <ele>500.0</ele>
        <time>2021-04-04T10:18:52Z</time>
      </trkpt>
      <trkpt lat="40.1740760" lon="-3.5873270">
        <ele>500.0</ele>
        <time>2021-04-04T10:18:53Z</time>
      </trkpt>
      <trkpt lat="40.1741410" lon="-3.5873050">
        <ele>500.0</ele>
        <time>2021-04-04T10:18:54Z</time>
      </trkpt>
      <trkpt lat="40.1742060" lon="-3.5872820">
        <ele>500.0</ele>
        <time>2021-04-04T10:18:55Z</time>
      </trkpt>
      <trkpt lat="40.1742710" lon="-3.5872600">
        <ele>500.0</ele>
        <time>2021-04-04T10:18:56Z</time>
      </trkpt>
      <trkpt lat="40.1743360" lon="-3.5872370">
        <ele>500.0</ele>
        <time>2021-04-04T10:18:57Z</time>
      </trkpt>
      <trkpt lat="40.1744000" lon="-3.5872150">
        <ele>500.0</ele>
        <time>2021-04-04T10:18:58Z</time>
      </trkpt>
      <trkpt lat="40.1744610" lon="-3.5871940">
        <ele>500.0</ele>
        <time>2021-04-04T10:18:59Z</time>
      </trkpt>
      <trkpt lat="40.1745260" lon="-3.5871730">
        <ele>500.0</ele>
        <time>2021-04-04T10:19:00Z</time>
      </trkpt>
      <trkpt lat="40.1745910" lon="-3.5871500">
        <ele>500.0</ele>
        <time>2021-04-04T10:19:01Z</time>
      </trkpt>
      <trkpt lat="40.1746520" lon="-3.5871260">
        <ele>500.0</ele>
        <time>2021-04-04T10:19:02Z</time>
      </trkpt>
      <trkpt lat="40.1747130" lon="-3.5871020">
        <ele>500.2</ele>
        <time>2021-04-04T10:19:03Z</time>
      </trkpt>
      <trkpt lat="40.1747740" lon="-3.5870770">
        <ele>500.2</ele>
        <time>2021-04-04T10:19:04Z</time>
      </trkpt>
      <trkpt lat="40.1748350" lon="-3.5870520">
        <ele>500.2</ele>
        <time>2021-04-04T10:19:05Z</time>
      </trkpt>
      <trkpt lat="40.1748960" lon="-3.5870240">
        <ele>500.2</ele>
        <time>2021-04-04T10:19:06Z</time>
      </trkpt>
      <trkpt lat="40.1749530" lon="-3.5869950">
        <ele>500.2</ele>
        <time>2021-04-04T10:19:07Z</time>
      </trkpt>
      <trkpt lat="40.1750150" lon="-3.5869650">
        <ele>500.2</ele>
        <time>2021-04-04T10:19:08Z</time>
      </trkpt>
      <trkpt lat="40.1750720" lon="-3.5869330">
        <ele>500.2</ele>
        <time>2021-04-04T10:19:09Z</time>
      </trkpt>
      <trkpt lat="40.1751290" lon="-3.5869020">
        <ele>500.2</ele>
        <time>2021-04-04T10:19:10Z</time>
      </trkpt>
      <trkpt lat="40.1751860" lon="-3.5868720">
        <ele>500.2</ele>
        <time>2021-04-04T10:19:11Z</time>
      </trkpt>
      <trkpt lat="40.1752430" lon="-3.5868430">
        <ele>500.2</ele>
        <time>2021-04-04T10:19:12Z</time>
      </trkpt>
      <trkpt lat="40.1753040" lon="-3.5868140">
        <ele>500.2</ele>
        <time>2021-04-04T10:19:13Z</time>
      </trkpt>
      <trkpt lat="40.1753650" lon="-3.5867830">
        <ele>500.2</ele>
        <time>2021-04-04T10:19:14Z</time>
      </trkpt>
      <trkpt lat="40.1754190" lon="-3.5867530">
        <ele>500.2</ele>
        <time>2021-04-04T10:19:15Z</time>
      </trkpt>
      <trkpt lat="40.1754760" lon="-3.5867220">
        <ele>500.2</ele>
        <time>2021-04-04T10:19:16Z</time>
      </trkpt>
      <trkpt lat="40.1755370" lon="-3.5866900">
        <ele>500.2</ele>
        <time>2021-04-04T10:19:17Z</time>
      </trkpt>
      <trkpt lat="40.1755940" lon="-3.5866590">
        <ele>500.2</ele>
        <time>2021-04-04T10:19:18Z</time>
      </trkpt>
      <trkpt lat="40.1756550" lon="-3.5866280">
        <ele>500.2</ele>
        <time>2021-04-04T10:19:19Z</time>
      </trkpt>
      <trkpt lat="40.1757130" lon="-3.5865960">
        <ele>500.2</ele>
        <time>2021-04-04T10:19:20Z</time>
      </trkpt>
      <trkpt lat="40.1757740" lon="-3.5865640">
        <ele>500.2</ele>
        <time>2021-04-04T10:19:21Z</time>
      </trkpt>
      <trkpt lat="40.1758350" lon="-3.5865320">
        <ele>500.2</ele>
        <time>2021-04-04T10:19:22Z</time>
      </trkpt>
      <trkpt lat="40.1758920" lon="-3.5865000">
        <ele>500.2</ele>
        <time>2021-04-04T10:19:23Z</time>
      </trkpt>
      <trkpt lat="40.1759530" lon="-3.5864690">
        <ele>500.0</ele>
        <time>2021-04-04T10:19:24Z</time>
      </trkpt>
      <trkpt lat="40.1760180" lon="-3.5864370">
        <ele>500.0</ele>
        <time>2021-04-04T10:19:25Z</time>
      </trkpt>
      <trkpt lat="40.1760790" lon="-3.5864020">
        <ele>500.0</ele>
        <time>2021-04-04T10:19:26Z</time>
      </trkpt>
      <trkpt lat="40.1761400" lon="-3.5863660">
        <ele>500.0</ele>
        <time>2021-04-04T10:19:27Z</time>
      </trkpt>
      <trkpt lat="40.1762050" lon="-3.5863310">
        <ele>500.0</ele>
        <time>2021-04-04T10:19:28Z</time>
      </trkpt>
      <trkpt lat="40.1762730" lon="-3.5862970">
        <ele>500.0</ele>
        <time>2021-04-04T10:19:29Z</time>
      </trkpt>
      <trkpt lat="40.1763380" lon="-3.5862610">
        <ele>500.0</ele>
        <time>2021-04-04T10:19:30Z</time>
      </trkpt>
      <trkpt lat="40.1764030" lon="-3.5862230">
        <ele>499.8</ele>
        <time>2021-04-04T10:19:31Z</time>
      </trkpt>
      <trkpt lat="40.1764680" lon="-3.5861840">
        <ele>500.0</ele>
        <time>2021-04-04T10:19:32Z</time>
      </trkpt>
      <trkpt lat="40.1765370" lon="-3.5861450">
        <ele>500.0</ele>
        <time>2021-04-04T10:19:33Z</time>
      </trkpt>
      <trkpt lat="40.1766010" lon="-3.5861050">
        <ele>500.0</ele>
        <time>2021-04-04T10:19:34Z</time>
      </trkpt>
      <trkpt lat="40.1766700" lon="-3.5860620">
        <ele>500.0</ele>
        <time>2021-04-04T10:19:35Z</time>
      </trkpt>
      <trkpt lat="40.1767350" lon="-3.5860190">
        <ele>500.0</ele>
        <time>2021-04-04T10:19:36Z</time>
      </trkpt>
      <trkpt lat="40.1768000" lon="-3.5859760">
        <ele>500.2</ele>
        <time>2021-04-04T10:19:37Z</time>
      </trkpt>
      <trkpt lat="40.1768720" lon="-3.5859330">
        <ele>500.4</ele>
        <time>2021-04-04T10:19:38Z</time>
      </trkpt>
      <trkpt lat="40.1769410" lon="-3.5858940">
        <ele>500.4</ele>
        <time>2021-04-04T10:19:39Z</time>
      </trkpt>
      <trkpt lat="40.1770130" lon="-3.5858640">
        <ele>500.6</ele>
        <time>2021-04-04T10:19:40Z</time>
      </trkpt>
      <trkpt lat="40.1770860" lon="-3.5858400">
        <ele>500.6</ele>
        <time>2021-04-04T10:19:41Z</time>
      </trkpt>
      <trkpt lat="40.1771620" lon="-3.5858220">
        <ele>500.6</ele>
        <time>2021-04-04T10:19:42Z</time>
      </trkpt>
      <trkpt lat="40.1772380" lon="-3.5858090">
        <ele>500.6</ele>
        <time>2021-04-04T10:19:43Z</time>
      </trkpt>
      <trkpt lat="40.1773110" lon="-3.5857980">
        <ele>500.8</ele>
        <time>2021-04-04T10:19:44Z</time>
      </trkpt>
      <trkpt lat="40.1773870" lon="-3.5857910">
        <ele>500.8</ele>
        <time>2021-04-04T10:19:45Z</time>
      </trkpt>
      <trkpt lat="40.1774600" lon="-3.5857820">
        <ele>500.8</ele>
        <time>2021-04-04T10:19:46Z</time>
      </trkpt>
      <trkpt lat="40.1775320" lon="-3.5857690">
        <ele>500.8</ele>
        <time>2021-04-04T10:19:47Z</time>
      </trkpt>
      <trkpt lat="40.1776050" lon="-3.5857520">
        <ele>500.8</ele>
        <time>2021-04-04T10:19:48Z</time>
      </trkpt>
      <trkpt lat="40.1776770" lon="-3.5857330">
        <ele>501.0</ele>
        <time>2021-04-04T10:19:49Z</time>
      </trkpt>
      <trkpt lat="40.1777460" lon="-3.5857140">
        <ele>501.0</ele>
        <time>2021-04-04T10:19:50Z</time>
      </trkpt>
      <trkpt lat="40.1778180" lon="-3.5856920">
        <ele>501.0</ele>
        <time>2021-04-04T10:19:51Z</time>
      </trkpt>
      <trkpt lat="40.1778870" lon="-3.5856700">
        <ele>501.2</ele>
        <time>2021-04-04T10:19:52Z</time>
      </trkpt>
      <trkpt lat="40.1779590" lon="-3.5856460">
        <ele>501.2</ele>
        <time>2021-04-04T10:19:53Z</time>
      </trkpt>
      <trkpt lat="40.1780320" lon="-3.5856220">
        <ele>501.2</ele>
        <time>2021-04-04T10:19:54Z</time>
      </trkpt>
      <trkpt lat="40.1781010" lon="-3.5855970">
        <ele>501.2</ele>
        <time>2021-04-04T10:19:55Z</time>
      </trkpt>
      <trkpt lat="40.1781730" lon="-3.5855700">
        <ele>501.2</ele>
        <time>2021-04-04T10:19:56Z</time>
      </trkpt>
      <trkpt lat="40.1782420" lon="-3.5855440">
        <ele>501.0</ele>
        <time>2021-04-04T10:19:57Z</time>
      </trkpt>
      <trkpt lat="40.1783140" lon="-3.5855170">
        <ele>501.0</ele>
        <time>2021-04-04T10:19:58Z</time>
      </trkpt>
      <trkpt lat="40.1783830" lon="-3.5854920">
        <ele>501.0</ele>
        <time>2021-04-04T10:19:59Z</time>
      </trkpt>
      <trkpt lat="40.1784520" lon="-3.5854660">
        <ele>501.0</ele>
        <time>2021-04-04T10:20:00Z</time>
      </trkpt>
      <trkpt lat="40.1785240" lon="-3.5854400">
        <ele>501.0</ele>
        <time>2021-04-04T10:20:01Z</time>
      </trkpt>
      <trkpt lat="40.1785970" lon="-3.5854130">
        <ele>501.0</ele>
        <time>2021-04-04T10:20:02Z</time>
      </trkpt>
      <trkpt lat="40.1786690" lon="-3.5853870">
        <ele>501.0</ele>
        <time>2021-04-04T10:20:03Z</time>
      </trkpt>
      <trkpt lat="40.1787410" lon="-3.5853600">
        <ele>501.0</ele>
        <time>2021-04-04T10:20:04Z</time>
      </trkpt>
      <trkpt lat="40.1788140" lon="-3.5853330">
        <ele>500.8</ele>
        <time>2021-04-04T10:20:05Z</time>
      </trkpt>
      <trkpt lat="40.1788860" lon="-3.5853070">
        <ele>500.8</ele>
        <time>2021-04-04T10:20:06Z</time>
      </trkpt>
      <trkpt lat="40.1789590" lon="-3.5852800">
        <ele>500.6</ele>
        <time>2021-04-04T10:20:07Z</time>
      </trkpt>
      <trkpt lat="40.1790350" lon="-3.5852510">
        <ele>500.6</ele>
        <time>2021-04-04T10:20:08Z</time>
      </trkpt>
      <trkpt lat="40.1791080" lon="-3.5852230">
        <ele>500.6</ele>
        <time>2021-04-04T10:20:09Z</time>
      </trkpt>
      <trkpt lat="40.1791840" lon="-3.5851940">
        <ele>500.6</ele>
        <time>2021-04-04T10:20:10Z</time>
      </trkpt>
      <trkpt lat="40.1792560" lon="-3.5851670">
        <ele>500.6</ele>
        <time>2021-04-04T10:20:11Z</time>
      </trkpt>
      <trkpt lat="40.1793290" lon="-3.5851390">
        <ele>500.6</ele>
        <time>2021-04-04T10:20:12Z</time>
      </trkpt>
      <trkpt lat="40.1794050" lon="-3.5851110">
        <ele>500.8</ele>
        <time>2021-04-04T10:20:13Z</time>
      </trkpt>
      <trkpt lat="40.1794780" lon="-3.5850830">
        <ele>500.8</ele>
        <time>2021-04-04T10:20:14Z</time>
      </trkpt>
      <trkpt lat="40.1795580" lon="-3.5850510">
        <ele>501.0</ele>
        <time>2021-04-04T10:20:15Z</time>
      </trkpt>
      <trkpt lat="40.1796340" lon="-3.5850200">
        <ele>501.0</ele>
        <time>2021-04-04T10:20:16Z</time>
      </trkpt>
      <trkpt lat="40.1797140" lon="-3.5849870">
        <ele>501.0</ele>
        <time>2021-04-04T10:20:17Z</time>
      </trkpt>
      <trkpt lat="40.1797910" lon="-3.5849520">
        <ele>500.8</ele>
        <time>2021-04-04T10:20:18Z</time>
      </trkpt>
      <trkpt lat="40.1798710" lon="-3.5849170">
        <ele>501.0</ele>
        <time>2021-04-04T10:20:19Z</time>
      </trkpt>
      <trkpt lat="40.1799510" lon="-3.5848830">
        <ele>501.0</ele>
        <time>2021-04-04T10:20:20Z</time>
      </trkpt>
      <trkpt lat="40.1800310" lon="-3.5848500">
        <ele>500.8</ele>
        <time>2021-04-04T10:20:21Z</time>
      </trkpt>
      <trkpt lat="40.1801110" lon="-3.5848160">
        <ele>500.8</ele>
        <time>2021-04-04T10:20:22Z</time>
      </trkpt>
      <trkpt lat="40.1801870" lon="-3.5847830">
        <ele>500.8</ele>
        <time>2021-04-04T10:20:23Z</time>
      </trkpt>
      <trkpt lat="40.1802670" lon="-3.5847520">
        <ele>500.8</ele>
        <time>2021-04-04T10:20:24Z</time>
      </trkpt>
      <trkpt lat="40.1803470" lon="-3.5847200">
        <ele>501.0</ele>
        <time>2021-04-04T10:20:25Z</time>
      </trkpt>
      <trkpt lat="40.1804240" lon="-3.5846880">
        <ele>501.0</ele>
        <time>2021-04-04T10:20:26Z</time>
      </trkpt>
      <trkpt lat="40.1805040" lon="-3.5846560">
        <ele>501.0</ele>
        <time>2021-04-04T10:20:27Z</time>
      </trkpt>
      <trkpt lat="40.1805760" lon="-3.5846230">
        <ele>501.2</ele>
        <time>2021-04-04T10:20:28Z</time>
      </trkpt>
      <trkpt lat="40.1806530" lon="-3.5845910">
        <ele>501.2</ele>
        <time>2021-04-04T10:20:29Z</time>
      </trkpt>
      <trkpt lat="40.1807330" lon="-3.5845560">
        <ele>501.2</ele>
        <time>2021-04-04T10:20:30Z</time>
      </trkpt>
      <trkpt lat="40.1808050" lon="-3.5845180">
        <ele>501.2</ele>
        <time>2021-04-04T10:20:31Z</time>
      </trkpt>
      <trkpt lat="40.1808820" lon="-3.5844760">
        <ele>501.2</ele>
        <time>2021-04-04T10:20:32Z</time>
      </trkpt>
      <trkpt lat="40.1809540" lon="-3.5844250">
        <ele>501.2</ele>
        <time>2021-04-04T10:20:33Z</time>
      </trkpt>
      <trkpt lat="40.1810260" lon="-3.5843720">
        <ele>501.2</ele>
        <time>2021-04-04T10:20:34Z</time>
      </trkpt>
      <trkpt lat="40.1810950" lon="-3.5843190">
        <ele>501.2</ele>
        <time>2021-04-04T10:20:35Z</time>
      </trkpt>
      <trkpt lat="40.1811640" lon="-3.5842650">
        <ele>501.2</ele>
        <time>2021-04-04T10:20:36Z</time>
      </trkpt>
      <trkpt lat="40.1812360" lon="-3.5842090">
        <ele>501.2</ele>
        <time>2021-04-04T10:20:37Z</time>
      </trkpt>
      <trkpt lat="40.1813090" lon="-3.5841530">
        <ele>501.0</ele>
        <time>2021-04-04T10:20:38Z</time>
      </trkpt>
      <trkpt lat="40.1813770" lon="-3.5840950">
        <ele>501.0</ele>
        <time>2021-04-04T10:20:39Z</time>
      </trkpt>
      <trkpt lat="40.1814500" lon="-3.5840340">
        <ele>501.2</ele>
        <time>2021-04-04T10:20:40Z</time>
      </trkpt>
      <trkpt lat="40.1815190" lon="-3.5839730">
        <ele>501.2</ele>
        <time>2021-04-04T10:20:41Z</time>
      </trkpt>
      <trkpt lat="40.1815870" lon="-3.5839090">
        <ele>501.2</ele>
        <time>2021-04-04T10:20:42Z</time>
      </trkpt>
      <trkpt lat="40.1816560" lon="-3.5838480">
        <ele>501.2</ele>
        <time>2021-04-04T10:20:43Z</time>
      </trkpt>
      <trkpt lat="40.1817250" lon="-3.5837910">
        <ele>501.2</ele>
        <time>2021-04-04T10:20:44Z</time>
      </trkpt>
      <trkpt lat="40.1817890" lon="-3.5837330">
        <ele>501.2</ele>
        <time>2021-04-04T10:20:45Z</time>
      </trkpt>
      <trkpt lat="40.1818580" lon="-3.5836740">
        <ele>501.2</ele>
        <time>2021-04-04T10:20:46Z</time>
      </trkpt>
      <trkpt lat="40.1819270" lon="-3.5836180">
        <ele>501.2</ele>
        <time>2021-04-04T10:20:47Z</time>
      </trkpt>
      <trkpt lat="40.1819950" lon="-3.5835660">
        <ele>501.2</ele>
        <time>2021-04-04T10:20:48Z</time>
      </trkpt>
      <trkpt lat="40.1820680" lon="-3.5835190">
        <ele>501.0</ele>
        <time>2021-04-04T10:20:49Z</time>
      </trkpt>
      <trkpt lat="40.1821440" lon="-3.5834730">
        <ele>501.0</ele>
        <time>2021-04-04T10:20:50Z</time>
      </trkpt>
      <trkpt lat="40.1822240" lon="-3.5834350">
        <ele>501.0</ele>
        <time>2021-04-04T10:20:51Z</time>
      </trkpt>
      <trkpt lat="40.1823040" lon="-3.5834010">
        <ele>501.0</ele>
        <time>2021-04-04T10:20:52Z</time>
      </trkpt>
      <trkpt lat="40.1823840" lon="-3.5833720">
        <ele>501.0</ele>
        <time>2021-04-04T10:20:53Z</time>
      </trkpt>
      <trkpt lat="40.1824650" lon="-3.5833460">
        <ele>501.0</ele>
        <time>2021-04-04T10:20:54Z</time>
      </trkpt>
      <trkpt lat="40.1825450" lon="-3.5833250">
        <ele>501.2</ele>
        <time>2021-04-04T10:20:55Z</time>
      </trkpt>
      <trkpt lat="40.1826210" lon="-3.5833070">
        <ele>501.2</ele>
        <time>2021-04-04T10:20:56Z</time>
      </trkpt>
      <trkpt lat="40.1827010" lon="-3.5832890">
        <ele>501.2</ele>
        <time>2021-04-04T10:20:57Z</time>
      </trkpt>
      <trkpt lat="40.1827740" lon="-3.5832700">
        <ele>501.4</ele>
        <time>2021-04-04T10:20:58Z</time>
      </trkpt>
      <trkpt lat="40.1828500" lon="-3.5832520">
        <ele>501.4</ele>
        <time>2021-04-04T10:20:59Z</time>
      </trkpt>
      <trkpt lat="40.1829340" lon="-3.5832320">
        <ele>501.4</ele>
        <time>2021-04-04T10:21:00Z</time>
      </trkpt>
      <trkpt lat="40.1830100" lon="-3.5832090">
        <ele>501.4</ele>
        <time>2021-04-04T10:21:01Z</time>
      </trkpt>
      <trkpt lat="40.1830860" lon="-3.5831850">
        <ele>501.4</ele>
        <time>2021-04-04T10:21:02Z</time>
      </trkpt>
      <trkpt lat="40.1831700" lon="-3.5831610">
        <ele>501.4</ele>
        <time>2021-04-04T10:21:03Z</time>
      </trkpt>
      <trkpt lat="40.1832500" lon="-3.5831380">
        <ele>501.4</ele>
        <time>2021-04-04T10:21:04Z</time>
      </trkpt>
      <trkpt lat="40.1833310" lon="-3.5831170">
        <ele>501.2</ele>
        <time>2021-04-04T10:21:05Z</time>
      </trkpt>
      <trkpt lat="40.1834140" lon="-3.5830960">
        <ele>501.2</ele>
        <time>2021-04-04T10:21:06Z</time>
      </trkpt>
      <trkpt lat="40.1834980" lon="-3.5830770">
        <ele>501.2</ele>
        <time>2021-04-04T10:21:07Z</time>
      </trkpt>
      <trkpt lat="40.1835750" lon="-3.5830580">
        <ele>501.2</ele>
        <time>2021-04-04T10:21:08Z</time>
      </trkpt>
      <trkpt lat="40.1836550" lon="-3.5830380">
        <ele>501.2</ele>
        <time>2021-04-04T10:21:09Z</time>
      </trkpt>
      <trkpt lat="40.1837310" lon="-3.5830170">
        <ele>501.2</ele>
        <time>2021-04-04T10:21:10Z</time>
      </trkpt>
      <trkpt lat="40.1838040" lon="-3.5829970">
        <ele>501.2</ele>
        <time>2021-04-04T10:21:11Z</time>
      </trkpt>
      <trkpt lat="40.1838800" lon="-3.5829750">
        <ele>501.2</ele>
        <time>2021-04-04T10:21:12Z</time>
      </trkpt>
      <trkpt lat="40.1839490" lon="-3.5829530">
        <ele>501.2</ele>
        <time>2021-04-04T10:21:13Z</time>
      </trkpt>
      <trkpt lat="40.1840210" lon="-3.5829290">
        <ele>501.2</ele>
        <time>2021-04-04T10:21:14Z</time>
      </trkpt>
      <trkpt lat="40.1840860" lon="-3.5829060">
        <ele>501.4</ele>
        <time>2021-04-04T10:21:15Z</time>
      </trkpt>
      <trkpt lat="40.1841510" lon="-3.5828870">
        <ele>501.4</ele>
        <time>2021-04-04T10:21:16Z</time>
      </trkpt>
      <trkpt lat="40.1842160" lon="-3.5828700">
        <ele>501.2</ele>
        <time>2021-04-04T10:21:17Z</time>
      </trkpt>
      <trkpt lat="40.1842800" lon="-3.5828530">
        <ele>501.2</ele>
        <time>2021-04-04T10:21:18Z</time>
      </trkpt>
      <trkpt lat="40.1843450" lon="-3.5828370">
        <ele>501.2</ele>
        <time>2021-04-04T10:21:19Z</time>
      </trkpt>
      <trkpt lat="40.1844060" lon="-3.5828200">
        <ele>501.2</ele>
        <time>2021-04-04T10:21:20Z</time>
      </trkpt>
      <trkpt lat="40.1844710" lon="-3.5828040">
        <ele>501.2</ele>
        <time>2021-04-04T10:21:21Z</time>
      </trkpt>
      <trkpt lat="40.1845360" lon="-3.5827880">
        <ele>501.2</ele>
        <time>2021-04-04T10:21:22Z</time>
      </trkpt>
      <trkpt lat="40.1845970" lon="-3.5827750">
        <ele>501.2</ele>
        <time>2021-04-04T10:21:23Z</time>
      </trkpt>
      <trkpt lat="40.1846500" lon="-3.5827610">
        <ele>501.2</ele>
        <time>2021-04-04T10:21:24Z</time>
      </trkpt>
      <trkpt lat="40.1847110" lon="-3.5827410">
        <ele>501.2</ele>
        <time>2021-04-04T10:21:25Z</time>
      </trkpt>
      <trkpt lat="40.1847690" lon="-3.5827220">
        <ele>501.2</ele>
        <time>2021-04-04T10:21:26Z</time>
      </trkpt>
      <trkpt lat="40.1848300" lon="-3.5827000">
        <ele>501.0</ele>
        <time>2021-04-04T10:21:27Z</time>
      </trkpt>
      <trkpt lat="40.1848870" lon="-3.5826780">
        <ele>501.0</ele>
        <time>2021-04-04T10:21:28Z</time>
      </trkpt>
      <trkpt lat="40.1849480" lon="-3.5826590">
        <ele>501.0</ele>
        <time>2021-04-04T10:21:29Z</time>
      </trkpt>
      <trkpt lat="40.1850130" lon="-3.5826390">
        <ele>501.0</ele>
        <time>2021-04-04T10:21:30Z</time>
      </trkpt>
      <trkpt lat="40.1850780" lon="-3.5826180">
        <ele>501.0</ele>
        <time>2021-04-04T10:21:31Z</time>
      </trkpt>
      <trkpt lat="40.1851430" lon="-3.5825980">
        <ele>500.8</ele>
        <time>2021-04-04T10:21:32Z</time>
      </trkpt>
      <trkpt lat="40.1852070" lon="-3.5825800">
        <ele>501.0</ele>
        <time>2021-04-04T10:21:33Z</time>
      </trkpt>
      <trkpt lat="40.1852760" lon="-3.5825620">
        <ele>501.0</ele>
        <time>2021-04-04T10:21:34Z</time>
      </trkpt>
      <trkpt lat="40.1853410" lon="-3.5825450">
        <ele>501.0</ele>
        <time>2021-04-04T10:21:35Z</time>
      </trkpt>
      <trkpt lat="40.1854060" lon="-3.5825260">
        <ele>501.2</ele>
        <time>2021-04-04T10:21:36Z</time>
      </trkpt>
      <trkpt lat="40.1854670" lon="-3.5825070">
        <ele>501.2</ele>
        <time>2021-04-04T10:21:37Z</time>
      </trkpt>
      <trkpt lat="40.1855280" lon="-3.5824840">
        <ele>501.2</ele>
        <time>2021-04-04T10:21:38Z</time>
      </trkpt>
      <trkpt lat="40.1855810" lon="-3.5824530">
        <ele>501.2</ele>
        <time>2021-04-04T10:21:39Z</time>
      </trkpt>
      <trkpt lat="40.1856380" lon="-3.5824090">
        <ele>501.4</ele>
        <time>2021-04-04T10:21:40Z</time>
      </trkpt>
      <trkpt lat="40.1856880" lon="-3.5823610">
        <ele>501.4</ele>
        <time>2021-04-04T10:21:41Z</time>
      </trkpt>
      <trkpt lat="40.1857380" lon="-3.5823110">
        <ele>501.4</ele>
        <time>2021-04-04T10:21:42Z</time>
      </trkpt>
      <trkpt lat="40.1857870" lon="-3.5822630">
        <ele>501.4</ele>
        <time>2021-04-04T10:21:43Z</time>
      </trkpt>
      <trkpt lat="40.1858410" lon="-3.5822160">
        <ele>501.6</ele>
        <time>2021-04-04T10:21:44Z</time>
      </trkpt>
      <trkpt lat="40.1858940" lon="-3.5821680">
        <ele>501.6</ele>
        <time>2021-04-04T10:21:45Z</time>
      </trkpt>
      <trkpt lat="40.1859470" lon="-3.5821180">
        <ele>501.6</ele>
        <time>2021-04-04T10:21:46Z</time>
      </trkpt>
      <trkpt lat="40.1860050" lon="-3.5820680">
        <ele>501.6</ele>
        <time>2021-04-04T10:21:47Z</time>
      </trkpt>
      <trkpt lat="40.1860580" lon="-3.5820200">
        <ele>501.4</ele>
        <time>2021-04-04T10:21:48Z</time>
      </trkpt>
      <trkpt lat="40.1861110" lon="-3.5819710">
        <ele>501.4</ele>
        <time>2021-04-04T10:21:49Z</time>
      </trkpt>
      <trkpt lat="40.1861690" lon="-3.5819170">
        <ele>501.6</ele>
        <time>2021-04-04T10:21:50Z</time>
      </trkpt>
      <trkpt lat="40.1862260" lon="-3.5818660">
        <ele>501.6</ele>
        <time>2021-04-04T10:21:51Z</time>
      </trkpt>
      <trkpt lat="40.1862790" lon="-3.5818150">
        <ele>501.8</ele>
        <time>2021-04-04T10:21:52Z</time>
      </trkpt>
      <trkpt lat="40.1863290" lon="-3.5817690">
        <ele>501.8</ele>
        <time>2021-04-04T10:21:53Z</time>
      </trkpt>
      <trkpt lat="40.1863750" lon="-3.5817280">
        <ele>501.8</ele>
        <time>2021-04-04T10:21:54Z</time>
      </trkpt>
      <trkpt lat="40.1864430" lon="-3.5816690">
        <ele>501.8</ele>
        <time>2021-04-04T10:21:55Z</time>
      </trkpt>
      <trkpt lat="40.1865010" lon="-3.5816170">
        <ele>501.8</ele>
        <time>2021-04-04T10:21:56Z</time>
      </trkpt>
      <trkpt lat="40.1865580" lon="-3.5815650">
        <ele>501.8</ele>
        <time>2021-04-04T10:21:57Z</time>
      </trkpt>
      <trkpt lat="40.1866150" lon="-3.5815150">
        <ele>501.8</ele>
        <time>2021-04-04T10:21:58Z</time>
      </trkpt>
      <trkpt lat="40.1866720" lon="-3.5814660">
        <ele>501.8</ele>
        <time>2021-04-04T10:21:59Z</time>
      </trkpt>
      <trkpt lat="40.1867330" lon="-3.5814140">
        <ele>501.8</ele>
        <time>2021-04-04T10:22:00Z</time>
      </trkpt>
      <trkpt lat="40.1867940" lon="-3.5813630">
        <ele>501.8</ele>
        <time>2021-04-04T10:22:01Z</time>
      </trkpt>
      <trkpt lat="40.1868550" lon="-3.5813150">
        <ele>501.8</ele>
        <time>2021-04-04T10:22:02Z</time>
      </trkpt>
      <trkpt lat="40.1869200" lon="-3.5812660">
        <ele>501.8</ele>
        <time>2021-04-04T10:22:03Z</time>
      </trkpt>
      <trkpt lat="40.1869810" lon="-3.5812160">
        <ele>501.8</ele>
        <time>2021-04-04T10:22:04Z</time>
      </trkpt>
      <trkpt lat="40.1870420" lon="-3.5811660">
        <ele>501.8</ele>
        <time>2021-04-04T10:22:05Z</time>
      </trkpt>
      <trkpt lat="40.1871030" lon="-3.5811170">
        <ele>501.8</ele>
        <time>2021-04-04T10:22:06Z</time>
      </trkpt>
      <trkpt lat="40.1871640" lon="-3.5810700">
        <ele>501.8</ele>
        <time>2021-04-04T10:22:07Z</time>
      </trkpt>
      <trkpt lat="40.1872290" lon="-3.5810220">
        <ele>501.6</ele>
        <time>2021-04-04T10:22:08Z</time>
      </trkpt>
      <trkpt lat="40.1872900" lon="-3.5809750">
        <ele>501.8</ele>
        <time>2021-04-04T10:22:09Z</time>
      </trkpt>
      <trkpt lat="40.1873590" lon="-3.5809250">
        <ele>501.8</ele>
        <time>2021-04-04T10:22:10Z</time>
      </trkpt>
      <trkpt lat="40.1874240" lon="-3.5808760">
        <ele>501.8</ele>
        <time>2021-04-04T10:22:11Z</time>
      </trkpt>
      <trkpt lat="40.1874920" lon="-3.5808260">
        <ele>501.8</ele>
        <time>2021-04-04T10:22:12Z</time>
      </trkpt>
      <trkpt lat="40.1875570" lon="-3.5807740">
        <ele>501.8</ele>
        <time>2021-04-04T10:22:13Z</time>
      </trkpt>
      <trkpt lat="40.1876260" lon="-3.5807230">
        <ele>501.8</ele>
        <time>2021-04-04T10:22:14Z</time>
      </trkpt>
      <trkpt lat="40.1876950" lon="-3.5806720">
        <ele>501.8</ele>
        <time>2021-04-04T10:22:15Z</time>
      </trkpt>
      <trkpt lat="40.1877630" lon="-3.5806210">
        <ele>501.6</ele>
        <time>2021-04-04T10:22:16Z</time>
      </trkpt>
      <trkpt lat="40.1878320" lon="-3.5805710">
        <ele>501.6</ele>
        <time>2021-04-04T10:22:17Z</time>
      </trkpt>
      <trkpt lat="40.1878970" lon="-3.5805210">
        <ele>501.6</ele>
        <time>2021-04-04T10:22:18Z</time>
      </trkpt>
      <trkpt lat="40.1879650" lon="-3.5804700">
        <ele>501.6</ele>
        <time>2021-04-04T10:22:19Z</time>
      </trkpt>
      <trkpt lat="40.1880380" lon="-3.5804170">
        <ele>501.6</ele>
        <time>2021-04-04T10:22:20Z</time>
      </trkpt>
      <trkpt lat="40.1881100" lon="-3.5803640">
        <ele>501.6</ele>
        <time>2021-04-04T10:22:21Z</time>
      </trkpt>
      <trkpt lat="40.1881790" lon="-3.5803130">
        <ele>501.6</ele>
        <time>2021-04-04T10:22:22Z</time>
      </trkpt>
      <trkpt lat="40.1882480" lon="-3.5802610">
        <ele>501.6</ele>
        <time>2021-04-04T10:22:23Z</time>
      </trkpt>
      <trkpt lat="40.1883120" lon="-3.5802080">
        <ele>501.8</ele>
        <time>2021-04-04T10:22:24Z</time>
      </trkpt>
      <trkpt lat="40.1883810" lon="-3.5801520">
        <ele>501.8</ele>
        <time>2021-04-04T10:22:25Z</time>
      </trkpt>
      <trkpt lat="40.1884500" lon="-3.5800980">
        <ele>501.8</ele>
        <time>2021-04-04T10:22:26Z</time>
      </trkpt>
      <trkpt lat="40.1885220" lon="-3.5800470">
        <ele>502.0</ele>
        <time>2021-04-04T10:22:27Z</time>
      </trkpt>
      <trkpt lat="40.1885910" lon="-3.5799960">
        <ele>502.0</ele>
        <time>2021-04-04T10:22:28Z</time>
      </trkpt>
      <trkpt lat="40.1886630" lon="-3.5799430">
        <ele>502.0</ele>
        <time>2021-04-04T10:22:29Z</time>
      </trkpt>
      <trkpt lat="40.1887320" lon="-3.5798930">
        <ele>502.0</ele>
        <time>2021-04-04T10:22:30Z</time>
      </trkpt>
      <trkpt lat="40.1888050" lon="-3.5798410">
        <ele>502.0</ele>
        <time>2021-04-04T10:22:31Z</time>
      </trkpt>
      <trkpt lat="40.1888730" lon="-3.5797920">
        <ele>502.0</ele>
        <time>2021-04-04T10:22:32Z</time>
      </trkpt>
      <trkpt lat="40.1889420" lon="-3.5797440">
        <ele>502.2</ele>
        <time>2021-04-04T10:22:33Z</time>
      </trkpt>
      <trkpt lat="40.1890110" lon="-3.5796980">
        <ele>502.2</ele>
        <time>2021-04-04T10:22:34Z</time>
      </trkpt>
      <trkpt lat="40.1890790" lon="-3.5796550">
        <ele>502.4</ele>
        <time>2021-04-04T10:22:35Z</time>
      </trkpt>
      <trkpt lat="40.1891520" lon="-3.5796140">
        <ele>502.4</ele>
        <time>2021-04-04T10:22:36Z</time>
      </trkpt>
      <trkpt lat="40.1892240" lon="-3.5795790">
        <ele>502.4</ele>
        <time>2021-04-04T10:22:37Z</time>
      </trkpt>
      <trkpt lat="40.1892970" lon="-3.5795460">
        <ele>502.4</ele>
        <time>2021-04-04T10:22:38Z</time>
      </trkpt>
      <trkpt lat="40.1893690" lon="-3.5795100">
        <ele>502.4</ele>
        <time>2021-04-04T10:22:39Z</time>
      </trkpt>
      <trkpt lat="40.1894420" lon="-3.5794730">
        <ele>502.4</ele>
        <time>2021-04-04T10:22:40Z</time>
      </trkpt>
      <trkpt lat="40.1895140" lon="-3.5794350">
        <ele>502.4</ele>
        <time>2021-04-04T10:22:41Z</time>
      </trkpt>
      <trkpt lat="40.1895870" lon="-3.5793950">
        <ele>502.4</ele>
        <time>2021-04-04T10:22:42Z</time>
      </trkpt>
      <trkpt lat="40.1896590" lon="-3.5793550">
        <ele>502.6</ele>
        <time>2021-04-04T10:22:43Z</time>
      </trkpt>
      <trkpt lat="40.1897320" lon="-3.5793150">
        <ele>502.6</ele>
        <time>2021-04-04T10:22:44Z</time>
      </trkpt>
      <trkpt lat="40.1898080" lon="-3.5792770">
        <ele>502.6</ele>
        <time>2021-04-04T10:22:45Z</time>
      </trkpt>
      <trkpt lat="40.1898800" lon="-3.5792390">
        <ele>502.6</ele>
        <time>2021-04-04T10:22:46Z</time>
      </trkpt>
      <trkpt lat="40.1899570" lon="-3.5791990">
        <ele>502.8</ele>
        <time>2021-04-04T10:22:47Z</time>
      </trkpt>
      <trkpt lat="40.1900330" lon="-3.5791580">
        <ele>502.8</ele>
        <time>2021-04-04T10:22:48Z</time>
      </trkpt>
      <trkpt lat="40.1901050" lon="-3.5791170">
        <ele>503.0</ele>
        <time>2021-04-04T10:22:49Z</time>
      </trkpt>
      <trkpt lat="40.1901860" lon="-3.5790750">
        <ele>503.0</ele>
        <time>2021-04-04T10:22:50Z</time>
      </trkpt>
      <trkpt lat="40.1902660" lon="-3.5790360">
        <ele>503.0</ele>
        <time>2021-04-04T10:22:51Z</time>
      </trkpt>
      <trkpt lat="40.1903420" lon="-3.5789980">
        <ele>503.0</ele>
        <time>2021-04-04T10:22:52Z</time>
      </trkpt>
      <trkpt lat="40.1904180" lon="-3.5789580">
        <ele>503.0</ele>
        <time>2021-04-04T10:22:53Z</time>
      </trkpt>
      <trkpt lat="40.1904950" lon="-3.5789170">
        <ele>502.8</ele>
        <time>2021-04-04T10:22:54Z</time>
      </trkpt>
      <trkpt lat="40.1905750" lon="-3.5788750">
        <ele>502.8</ele>
        <time>2021-04-04T10:22:55Z</time>
      </trkpt>
      <trkpt lat="40.1906550" lon="-3.5788340">
        <ele>503.0</ele>
        <time>2021-04-04T10:22:56Z</time>
      </trkpt>
      <trkpt lat="40.1907350" lon="-3.5787930">
        <ele>503.0</ele>
        <time>2021-04-04T10:22:57Z</time>
      </trkpt>
      <trkpt lat="40.1908110" lon="-3.5787530">
        <ele>503.0</ele>
        <time>2021-04-04T10:22:58Z</time>
      </trkpt>
      <trkpt lat="40.1908950" lon="-3.5787130">
        <ele>503.0</ele>
        <time>2021-04-04T10:22:59Z</time>
      </trkpt>
      <trkpt lat="40.1909750" lon="-3.5786740">
        <ele>503.0</ele>
        <time>2021-04-04T10:23:00Z</time>
      </trkpt>
      <trkpt lat="40.1910550" lon="-3.5786330">
        <ele>503.0</ele>
        <time>2021-04-04T10:23:01Z</time>
      </trkpt>
      <trkpt lat="40.1911350" lon="-3.5785920">
        <ele>503.0</ele>
        <time>2021-04-04T10:23:02Z</time>
      </trkpt>
      <trkpt lat="40.1912150" lon="-3.5785520">
        <ele>503.0</ele>
        <time>2021-04-04T10:23:03Z</time>
      </trkpt>
      <trkpt lat="40.1912960" lon="-3.5785120">
        <ele>503.0</ele>
        <time>2021-04-04T10:23:04Z</time>
      </trkpt>
      <trkpt lat="40.1913720" lon="-3.5784700">
        <ele>503.0</ele>
        <time>2021-04-04T10:23:05Z</time>
      </trkpt>
      <trkpt lat="40.1914480" lon="-3.5784270">
        <ele>503.0</ele>
        <time>2021-04-04T10:23:06Z</time>
      </trkpt>
      <trkpt lat="40.1915250" lon="-3.5783820">
        <ele>503.0</ele>
        <time>2021-04-04T10:23:07Z</time>
      </trkpt>
      <trkpt lat="40.1916010" lon="-3.5783420">
        <ele>503.2</ele>
        <time>2021-04-04T10:23:08Z</time>
      </trkpt>
      <trkpt lat="40.1916770" lon="-3.5783060">
        <ele>503.2</ele>
        <time>2021-04-04T10:23:09Z</time>
      </trkpt>
      <trkpt lat="40.1917530" lon="-3.5782710">
        <ele>503.4</ele>
        <time>2021-04-04T10:23:10Z</time>
      </trkpt>
      <trkpt lat="40.1918300" lon="-3.5782330">
        <ele>503.4</ele>
        <time>2021-04-04T10:23:11Z</time>
      </trkpt>
      <trkpt lat="40.1919060" lon="-3.5781960">
        <ele>503.6</ele>
        <time>2021-04-04T10:23:12Z</time>
      </trkpt>
      <trkpt lat="40.1919750" lon="-3.5781590">
        <ele>503.6</ele>
        <time>2021-04-04T10:23:13Z</time>
      </trkpt>
      <trkpt lat="40.1920430" lon="-3.5781260">
        <ele>503.6</ele>
        <time>2021-04-04T10:23:14Z</time>
      </trkpt>
      <trkpt lat="40.1921310" lon="-3.5780860">
        <ele>503.6</ele>
        <time>2021-04-04T10:23:15Z</time>
      </trkpt>
      <trkpt lat="40.1922110" lon="-3.5780520">
        <ele>503.8</ele>
        <time>2021-04-04T10:23:16Z</time>
      </trkpt>
      <trkpt lat="40.1922840" lon="-3.5780180">
        <ele>503.6</ele>
        <time>2021-04-04T10:23:17Z</time>
      </trkpt>
      <trkpt lat="40.1923640" lon="-3.5779870">
        <ele>503.6</ele>
        <time>2021-04-04T10:23:18Z</time>
      </trkpt>
      <trkpt lat="40.1924400" lon="-3.5779560">
        <ele>503.6</ele>
        <time>2021-04-04T10:23:19Z</time>
      </trkpt>
      <trkpt lat="40.1925160" lon="-3.5779250">
        <ele>503.6</ele>
        <time>2021-04-04T10:23:20Z</time>
      </trkpt>
      <trkpt lat="40.1925930" lon="-3.5778940">
        <ele>503.6</ele>
        <time>2021-04-04T10:23:21Z</time>
      </trkpt>
      <trkpt lat="40.1926730" lon="-3.5778640">
        <ele>503.8</ele>
        <time>2021-04-04T10:23:22Z</time>
      </trkpt>
      <trkpt lat="40.1927490" lon="-3.5778370">
        <ele>503.8</ele>
        <time>2021-04-04T10:23:23Z</time>
      </trkpt>
      <trkpt lat="40.1928250" lon="-3.5778110">
        <ele>503.8</ele>
        <time>2021-04-04T10:23:24Z</time>
      </trkpt>
      <trkpt lat="40.1929050" lon="-3.5777860">
        <ele>503.8</ele>
        <time>2021-04-04T10:23:25Z</time>
      </trkpt>
      <trkpt lat="40.1929860" lon="-3.5777570">
        <ele>503.8</ele>
        <time>2021-04-04T10:23:26Z</time>
      </trkpt>
      <trkpt lat="40.1930620" lon="-3.5777270">
        <ele>504.0</ele>
        <time>2021-04-04T10:23:27Z</time>
      </trkpt>
      <trkpt lat="40.1931420" lon="-3.5776940">
        <ele>504.0</ele>
        <time>2021-04-04T10:23:28Z</time>
      </trkpt>
      <trkpt lat="40.1932220" lon="-3.5776600">
        <ele>504.0</ele>
        <time>2021-04-04T10:23:29Z</time>
      </trkpt>
      <trkpt lat="40.1932980" lon="-3.5776280">
        <ele>503.8</ele>
        <time>2021-04-04T10:23:30Z</time>
      </trkpt>
      <trkpt lat="40.1933780" lon="-3.5775970">
        <ele>503.8</ele>
        <time>2021-04-04T10:23:31Z</time>
      </trkpt>
      <trkpt lat="40.1934620" lon="-3.5775670">
        <ele>504.0</ele>
        <time>2021-04-04T10:23:32Z</time>
      </trkpt>
      <trkpt lat="40.1935390" lon="-3.5775380">
        <ele>504.2</ele>
        <time>2021-04-04T10:23:33Z</time>
      </trkpt>
      <trkpt lat="40.1936150" lon="-3.5775090">
        <ele>504.4</ele>
        <time>2021-04-04T10:23:34Z</time>
      </trkpt>
      <trkpt lat="40.1936910" lon="-3.5774830">
        <ele>504.4</ele>
        <time>2021-04-04T10:23:35Z</time>
      </trkpt>
      <trkpt lat="40.1937710" lon="-3.5774620">
        <ele>504.4</ele>
        <time>2021-04-04T10:23:36Z</time>
      </trkpt>
      <trkpt lat="40.1938520" lon="-3.5774430">
        <ele>504.6</ele>
        <time>2021-04-04T10:23:37Z</time>
      </trkpt>
      <trkpt lat="40.1939280" lon="-3.5774240">
        <ele>504.6</ele>
        <time>2021-04-04T10:23:38Z</time>
      </trkpt>
      <trkpt lat="40.1940040" lon="-3.5774050">
        <ele>504.8</ele>
        <time>2021-04-04T10:23:39Z</time>
      </trkpt>
      <trkpt lat="40.1940800" lon="-3.5773830">
        <ele>504.8</ele>
        <time>2021-04-04T10:23:40Z</time>
      </trkpt>
      <trkpt lat="40.1941570" lon="-3.5773600">
        <ele>505.0</ele>
        <time>2021-04-04T10:23:41Z</time>
      </trkpt>
      <trkpt lat="40.1942370" lon="-3.5773370">
        <ele>505.2</ele>
        <time>2021-04-04T10:23:42Z</time>
      </trkpt>
      <trkpt lat="40.1943090" lon="-3.5773150">
        <ele>505.2</ele>
        <time>2021-04-04T10:23:43Z</time>
      </trkpt>
      <trkpt lat="40.1943860" lon="-3.5772910">
        <ele>505.4</ele>
        <time>2021-04-04T10:23:44Z</time>
      </trkpt>
      <trkpt lat="40.1944620" lon="-3.5772690">
        <ele>505.4</ele>
        <time>2021-04-04T10:23:45Z</time>
      </trkpt>
      <trkpt lat="40.1945380" lon="-3.5772480">
        <ele>505.4</ele>
        <time>2021-04-04T10:23:46Z</time>
      </trkpt>
      <trkpt lat="40.1946180" lon="-3.5772260">
        <ele>505.4</ele>
        <time>2021-04-04T10:23:47Z</time>
      </trkpt>
      <trkpt lat="40.1946980" lon="-3.5772030">
        <ele>505.2</ele>
        <time>2021-04-04T10:23:48Z</time>
      </trkpt>
      <trkpt lat="40.1947750" lon="-3.5771790">
        <ele>505.2</ele>
        <time>2021-04-04T10:23:49Z</time>
      </trkpt>
      <trkpt lat="40.1948590" lon="-3.5771550">
        <ele>505.2</ele>
        <time>2021-04-04T10:23:50Z</time>
      </trkpt>
      <trkpt lat="40.1949390" lon="-3.5771310">
        <ele>505.4</ele>
        <time>2021-04-04T10:23:51Z</time>
      </trkpt>
      <trkpt lat="40.1950230" lon="-3.5771070">
        <ele>505.4</ele>
        <time>2021-04-04T10:23:52Z</time>
      </trkpt>
      <trkpt lat="40.1951070" lon="-3.5770850">
        <ele>505.6</ele>
        <time>2021-04-04T10:23:53Z</time>
      </trkpt>
      <trkpt lat="40.1951900" lon="-3.5770640">
        <ele>505.6</ele>
        <time>2021-04-04T10:23:54Z</time>
      </trkpt>
      <trkpt lat="40.1952740" lon="-3.5770430">
        <ele>505.6</ele>
        <time>2021-04-04T10:23:55Z</time>
      </trkpt>
      <trkpt lat="40.1953580" lon="-3.5770210">
        <ele>505.4</ele>
        <time>2021-04-04T10:23:56Z</time>
      </trkpt>
      <trkpt lat="40.1954420" lon="-3.5769980">
        <ele>505.4</ele>
        <time>2021-04-04T10:23:57Z</time>
      </trkpt>
      <trkpt lat="40.1955260" lon="-3.5769760">
        <ele>505.4</ele>
        <time>2021-04-04T10:23:58Z</time>
      </trkpt>
      <trkpt lat="40.1956100" lon="-3.5769530">
        <ele>505.4</ele>
        <time>2021-04-04T10:23:59Z</time>
      </trkpt>
      <trkpt lat="40.1956980" lon="-3.5769270">
        <ele>505.4</ele>
        <time>2021-04-04T10:24:00Z</time>
      </trkpt>
      <trkpt lat="40.1957820" lon="-3.5769020">
        <ele>505.4</ele>
        <time>2021-04-04T10:24:01Z</time>
      </trkpt>
      <trkpt lat="40.1958660" lon="-3.5768780">
        <ele>505.6</ele>
        <time>2021-04-04T10:24:02Z</time>
      </trkpt>
      <trkpt lat="40.1959570" lon="-3.5768530">
        <ele>505.8</ele>
        <time>2021-04-04T10:24:03Z</time>
      </trkpt>
      <trkpt lat="40.1960410" lon="-3.5768280">
        <ele>505.8</ele>
        <time>2021-04-04T10:24:04Z</time>
      </trkpt>
      <trkpt lat="40.1961250" lon="-3.5768080">
        <ele>505.8</ele>
        <time>2021-04-04T10:24:05Z</time>
      </trkpt>
      <trkpt lat="40.1962130" lon="-3.5767880">
        <ele>505.6</ele>
        <time>2021-04-04T10:24:06Z</time>
      </trkpt>
      <trkpt lat="40.1963010" lon="-3.5767660">
        <ele>505.6</ele>
        <time>2021-04-04T10:24:07Z</time>
      </trkpt>
      <trkpt lat="40.1963840" lon="-3.5767440">
        <ele>505.6</ele>
        <time>2021-04-04T10:24:08Z</time>
      </trkpt>
      <trkpt lat="40.1964680" lon="-3.5767190">
        <ele>505.6</ele>
        <time>2021-04-04T10:24:09Z</time>
      </trkpt>
      <trkpt lat="40.1965520" lon="-3.5766920">
        <ele>505.6</ele>
        <time>2021-04-04T10:24:10Z</time>
      </trkpt>
      <trkpt lat="40.1966360" lon="-3.5766680">
        <ele>505.6</ele>
        <time>2021-04-04T10:24:11Z</time>
      </trkpt>
      <trkpt lat="40.1967200" lon="-3.5766420">
        <ele>505.8</ele>
        <time>2021-04-04T10:24:12Z</time>
      </trkpt>
      <trkpt lat="40.1968080" lon="-3.5766180">
        <ele>505.8</ele>
        <time>2021-04-04T10:24:13Z</time>
      </trkpt>
      <trkpt lat="40.1968920" lon="-3.5765950">
        <ele>505.8</ele>
        <time>2021-04-04T10:24:14Z</time>
      </trkpt>
      <trkpt lat="40.1969760" lon="-3.5765710">
        <ele>505.8</ele>
        <time>2021-04-04T10:24:15Z</time>
      </trkpt>
      <trkpt lat="40.1970560" lon="-3.5765420">
        <ele>506.0</ele>
        <time>2021-04-04T10:24:16Z</time>
      </trkpt>
      <trkpt lat="40.1971360" lon="-3.5765070">
        <ele>506.2</ele>
        <time>2021-04-04T10:24:17Z</time>
      </trkpt>
      <trkpt lat="40.1972120" lon="-3.5764760">
        <ele>506.2</ele>
        <time>2021-04-04T10:24:18Z</time>
      </trkpt>
      <trkpt lat="40.1972890" lon="-3.5764490">
        <ele>506.4</ele>
        <time>2021-04-04T10:24:19Z</time>
      </trkpt>
      <trkpt lat="40.1973650" lon="-3.5764240">
        <ele>506.4</ele>
        <time>2021-04-04T10:24:20Z</time>
      </trkpt>
      <trkpt lat="40.1974450" lon="-3.5763990">
        <ele>506.4</ele>
        <time>2021-04-04T10:24:21Z</time>
      </trkpt>
      <trkpt lat="40.1975210" lon="-3.5763680">
        <ele>506.4</ele>
        <time>2021-04-04T10:24:22Z</time>
      </trkpt>
      <trkpt lat="40.1975940" lon="-3.5763350">
        <ele>506.4</ele>
        <time>2021-04-04T10:24:23Z</time>
      </trkpt>
      <trkpt lat="40.1976620" lon="-3.5763030">
        <ele>506.4</ele>
        <time>2021-04-04T10:24:24Z</time>
      </trkpt>
      <trkpt lat="40.1977310" lon="-3.5762710">
        <ele>506.4</ele>
        <time>2021-04-04T10:24:25Z</time>
      </trkpt>
      <trkpt lat="40.1978000" lon="-3.5762370">
        <ele>506.4</ele>
        <time>2021-04-04T10:24:26Z</time>
      </trkpt>
      <trkpt lat="40.1978680" lon="-3.5762020">
        <ele>506.2</ele>
        <time>2021-04-04T10:24:27Z</time>
      </trkpt>
      <trkpt lat="40.1979410" lon="-3.5761640">
        <ele>506.2</ele>
        <time>2021-04-04T10:24:28Z</time>
      </trkpt>
      <trkpt lat="40.1980100" lon="-3.5761290">
        <ele>506.2</ele>
        <time>2021-04-04T10:24:29Z</time>
      </trkpt>
      <trkpt lat="40.1980740" lon="-3.5760980">
        <ele>506.0</ele>
        <time>2021-04-04T10:24:30Z</time>
      </trkpt>
      <trkpt lat="40.1981540" lon="-3.5760610">
        <ele>506.0</ele>
        <time>2021-04-04T10:24:31Z</time>
      </trkpt>
      <trkpt lat="40.1982310" lon="-3.5760240">
        <ele>505.8</ele>
        <time>2021-04-04T10:24:32Z</time>
      </trkpt>
      <trkpt lat="40.1982990" lon="-3.5759920">
        <ele>506.0</ele>
        <time>2021-04-04T10:24:33Z</time>
      </trkpt>
      <trkpt lat="40.1983680" lon="-3.5759630">
        <ele>506.0</ele>
        <time>2021-04-04T10:24:34Z</time>
      </trkpt>
      <trkpt lat="40.1984330" lon="-3.5759370">
        <ele>506.0</ele>
        <time>2021-04-04T10:24:35Z</time>
      </trkpt>
      <trkpt lat="40.1985020" lon="-3.5759120">
        <ele>506.0</ele>
        <time>2021-04-04T10:24:36Z</time>
      </trkpt>
      <trkpt lat="40.1985660" lon="-3.5758870">
        <ele>506.0</ele>
        <time>2021-04-04T10:24:37Z</time>
      </trkpt>
      <trkpt lat="40.1986310" lon="-3.5758610">
        <ele>506.0</ele>
        <time>2021-04-04T10:24:38Z</time>
      </trkpt>
      <trkpt lat="40.1986960" lon="-3.5758330">
        <ele>505.8</ele>
        <time>2021-04-04T10:24:39Z</time>
      </trkpt>
      <trkpt lat="40.1987530" lon="-3.5758040">
        <ele>505.8</ele>
        <time>2021-04-04T10:24:40Z</time>
      </trkpt>
      <trkpt lat="40.1988140" lon="-3.5757770">
        <ele>505.6</ele>
        <time>2021-04-04T10:24:41Z</time>
      </trkpt>
      <trkpt lat="40.1988750" lon="-3.5757480">
        <ele>505.6</ele>
        <time>2021-04-04T10:24:42Z</time>
      </trkpt>
      <trkpt lat="40.1989330" lon="-3.5757150">
        <ele>505.6</ele>
        <time>2021-04-04T10:24:43Z</time>
      </trkpt>
      <trkpt lat="40.1989900" lon="-3.5756810">
        <ele>505.6</ele>
        <time>2021-04-04T10:24:44Z</time>
      </trkpt>
      <trkpt lat="40.1990510" lon="-3.5756490">
        <ele>505.4</ele>
        <time>2021-04-04T10:24:45Z</time>
      </trkpt>
      <trkpt lat="40.1991080" lon="-3.5756210">
        <ele>505.4</ele>
        <time>2021-04-04T10:24:46Z</time>
      </trkpt>
      <trkpt lat="40.1991730" lon="-3.5755970">
        <ele>505.2</ele>
        <time>2021-04-04T10:24:47Z</time>
      </trkpt>
      <trkpt lat="40.1992340" lon="-3.5755770">
        <ele>505.0</ele>
        <time>2021-04-04T10:24:48Z</time>
      </trkpt>
      <trkpt lat="40.1992990" lon="-3.5755530">
        <ele>505.0</ele>
        <time>2021-04-04T10:24:49Z</time>
      </trkpt>
      <trkpt lat="40.1993600" lon="-3.5755220">
        <ele>505.0</ele>
        <time>2021-04-04T10:24:50Z</time>
      </trkpt>
      <trkpt lat="40.1994210" lon="-3.5754880">
        <ele>504.8</ele>
        <time>2021-04-04T10:24:51Z</time>
      </trkpt>
      <trkpt lat="40.1994860" lon="-3.5754550">
        <ele>504.8</ele>
        <time>2021-04-04T10:24:52Z</time>
      </trkpt>
      <trkpt lat="40.1995470" lon="-3.5754240">
        <ele>504.6</ele>
        <time>2021-04-04T10:24:53Z</time>
      </trkpt>
      <trkpt lat="40.1996080" lon="-3.5753910">
        <ele>504.6</ele>
        <time>2021-04-04T10:24:54Z</time>
      </trkpt>
      <trkpt lat="40.1996690" lon="-3.5753600">
        <ele>504.6</ele>
        <time>2021-04-04T10:24:55Z</time>
      </trkpt>
      <trkpt lat="40.1997340" lon="-3.5753340">
        <ele>504.4</ele>
        <time>2021-04-04T10:24:56Z</time>
      </trkpt>
      <trkpt lat="40.1997990" lon="-3.5753070">
        <ele>504.6</ele>
        <time>2021-04-04T10:24:57Z</time>
      </trkpt>
      <trkpt lat="40.1998670" lon="-3.5752760">
        <ele>504.6</ele>
        <time>2021-04-04T10:24:58Z</time>
      </trkpt>
      <trkpt lat="40.1999320" lon="-3.5752460">
        <ele>504.6</ele>
        <time>2021-04-04T10:24:59Z</time>
      </trkpt>
      <trkpt lat="40.1999930" lon="-3.5752140">
        <ele>504.6</ele>
        <time>2021-04-04T10:25:00Z</time>
      </trkpt>
      <trkpt lat="40.2000540" lon="-3.5751770">
        <ele>504.4</ele>
        <time>2021-04-04T10:25:01Z</time>
      </trkpt>
      <trkpt lat="40.2001230" lon="-3.5751340">
        <ele>504.6</ele>
        <time>2021-04-04T10:25:02Z</time>
      </trkpt>
      <trkpt lat="40.2001840" lon="-3.5750940">
        <ele>504.6</ele>
        <time>2021-04-04T10:25:03Z</time>
      </trkpt>
      <trkpt lat="40.2002450" lon="-3.5750580">
        <ele>504.6</ele>
        <time>2021-04-04T10:25:04Z</time>
      </trkpt>
      <trkpt lat="40.2003100" lon="-3.5750240">
        <ele>504.6</ele>
        <time>2021-04-04T10:25:05Z</time>
      </trkpt>
      <trkpt lat="40.2003750" lon="-3.5749870">
        <ele>504.6</ele>
        <time>2021-04-04T10:25:06Z</time>
      </trkpt>
      <trkpt lat="40.2004390" lon="-3.5749470">
        <ele>504.8</ele>
        <time>2021-04-04T10:25:07Z</time>
      </trkpt>
      <trkpt lat="40.2005000" lon="-3.5749080">
        <ele>504.8</ele>
        <time>2021-04-04T10:25:08Z</time>
      </trkpt>
      <trkpt lat="40.2005620" lon="-3.5748670">
        <ele>505.0</ele>
        <time>2021-04-04T10:25:09Z</time>
      </trkpt>
      <trkpt lat="40.2006230" lon="-3.5748260">
        <ele>505.0</ele>
        <time>2021-04-04T10:25:10Z</time>
      </trkpt>
      <trkpt lat="40.2006840" lon="-3.5747850">
        <ele>505.2</ele>
        <time>2021-04-04T10:25:11Z</time>
      </trkpt>
      <trkpt lat="40.2007450" lon="-3.5747430">
        <ele>505.2</ele>
        <time>2021-04-04T10:25:12Z</time>
      </trkpt>
      <trkpt lat="40.2008090" lon="-3.5747050">
        <ele>505.4</ele>
        <time>2021-04-04T10:25:13Z</time>
      </trkpt>
      <trkpt lat="40.2008740" lon="-3.5746670">
        <ele>505.4</ele>
        <time>2021-04-04T10:25:14Z</time>
      </trkpt>
      <trkpt lat="40.2009350" lon="-3.5746300">
        <ele>505.6</ele>
        <time>2021-04-04T10:25:15Z</time>
      </trkpt>
      <trkpt lat="40.2010000" lon="-3.5745920">
        <ele>505.6</ele>
        <time>2021-04-04T10:25:16Z</time>
      </trkpt>
      <trkpt lat="40.2010610" lon="-3.5745550">
        <ele>505.8</ele>
        <time>2021-04-04T10:25:17Z</time>
      </trkpt>
      <trkpt lat="40.2011220" lon="-3.5745200">
        <ele>505.8</ele>
        <time>2021-04-04T10:25:18Z</time>
      </trkpt>
      <trkpt lat="40.2011830" lon="-3.5744870">
        <ele>506.0</ele>
        <time>2021-04-04T10:25:19Z</time>
      </trkpt>
      <trkpt lat="40.2012440" lon="-3.5744550">
        <ele>506.0</ele>
        <time>2021-04-04T10:25:20Z</time>
      </trkpt>
      <trkpt lat="40.2013020" lon="-3.5744210">
        <ele>506.2</ele>
        <time>2021-04-04T10:25:21Z</time>
      </trkpt>
      <trkpt lat="40.2013590" lon="-3.5743890">
        <ele>506.4</ele>
        <time>2021-04-04T10:25:22Z</time>
      </trkpt>
      <trkpt lat="40.2014120" lon="-3.5743610">
        <ele>506.4</ele>
        <time>2021-04-04T10:25:23Z</time>
      </trkpt>
      <trkpt lat="40.2014690" lon="-3.5743330">
        <ele>506.4</ele>
        <time>2021-04-04T10:25:24Z</time>
      </trkpt>
      <trkpt lat="40.2015270" lon="-3.5743070">
        <ele>506.4</ele>
        <time>2021-04-04T10:25:25Z</time>
      </trkpt>
      <trkpt lat="40.2015800" lon="-3.5742800">
        <ele>506.6</ele>
        <time>2021-04-04T10:25:26Z</time>
      </trkpt>
      <trkpt lat="40.2016330" lon="-3.5742510">
        <ele>506.6</ele>
        <time>2021-04-04T10:25:27Z</time>
      </trkpt>
      <trkpt lat="40.2016910" lon="-3.5742220">
        <ele>506.6</ele>
        <time>2021-04-04T10:25:28Z</time>
      </trkpt>
      <trkpt lat="40.2017440" lon="-3.5741930">
        <ele>506.6</ele>
        <time>2021-04-04T10:25:29Z</time>
      </trkpt>
      <trkpt lat="40.2018050" lon="-3.5741620">
        <ele>506.8</ele>
        <time>2021-04-04T10:25:30Z</time>
      </trkpt>
      <trkpt lat="40.2018620" lon="-3.5741320">
        <ele>506.8</ele>
        <time>2021-04-04T10:25:31Z</time>
      </trkpt>
      <trkpt lat="40.2019200" lon="-3.5741050">
        <ele>506.8</ele>
        <time>2021-04-04T10:25:32Z</time>
      </trkpt>
      <trkpt lat="40.2019810" lon="-3.5740740">
        <ele>507.0</ele>
        <time>2021-04-04T10:25:33Z</time>
      </trkpt>
      <trkpt lat="40.2020420" lon="-3.5740480">
        <ele>507.0</ele>
        <time>2021-04-04T10:25:34Z</time>
      </trkpt>
      <trkpt lat="40.2021030" lon="-3.5740250">
        <ele>507.0</ele>
        <time>2021-04-04T10:25:35Z</time>
      </trkpt>
      <trkpt lat="40.2021600" lon="-3.5740030">
        <ele>507.2</ele>
        <time>2021-04-04T10:25:36Z</time>
      </trkpt>
      <trkpt lat="40.2022210" lon="-3.5739750">
        <ele>507.2</ele>
        <time>2021-04-04T10:25:37Z</time>
      </trkpt>
      <trkpt lat="40.2022900" lon="-3.5739400">
        <ele>507.2</ele>
        <time>2021-04-04T10:25:38Z</time>
      </trkpt>
      <trkpt lat="40.2023540" lon="-3.5739040">
        <ele>507.2</ele>
        <time>2021-04-04T10:25:39Z</time>
      </trkpt>
      <trkpt lat="40.2024150" lon="-3.5738720">
        <ele>507.0</ele>
        <time>2021-04-04T10:25:40Z</time>
      </trkpt>
      <trkpt lat="40.2024570" lon="-3.5738490">
        <ele>507.0</ele>
        <time>2021-04-04T10:25:41Z</time>
      </trkpt>
      <trkpt lat="40.2025150" lon="-3.5738300">
        <ele>507.0</ele>
        <time>2021-04-04T10:25:42Z</time>
      </trkpt>
      <trkpt lat="40.2025720" lon="-3.5738090">
        <ele>507.0</ele>
        <time>2021-04-04T10:25:43Z</time>
      </trkpt>
      <trkpt lat="40.2026330" lon="-3.5737850">
        <ele>506.8</ele>
        <time>2021-04-04T10:25:44Z</time>
      </trkpt>
      <trkpt lat="40.2026940" lon="-3.5737610">
        <ele>506.8</ele>
        <time>2021-04-04T10:25:45Z</time>
      </trkpt>
      <trkpt lat="40.2027510" lon="-3.5737370">
        <ele>506.8</ele>
        <time>2021-04-04T10:25:46Z</time>
      </trkpt>
      <trkpt lat="40.2028080" lon="-3.5737140">
        <ele>506.6</ele>
        <time>2021-04-04T10:25:47Z</time>
      </trkpt>
      <trkpt lat="40.2028620" lon="-3.5736950">
        <ele>506.6</ele>
        <time>2021-04-04T10:25:48Z</time>
      </trkpt>
      <trkpt lat="40.2029190" lon="-3.5736760">
        <ele>506.6</ele>
        <time>2021-04-04T10:25:49Z</time>
      </trkpt>
      <trkpt lat="40.2029690" lon="-3.5736510">
        <ele>506.6</ele>
        <time>2021-04-04T10:25:50Z</time>
      </trkpt>
      <trkpt lat="40.2030300" lon="-3.5736180">
        <ele>506.6</ele>
        <time>2021-04-04T10:25:51Z</time>
      </trkpt>
      <trkpt lat="40.2030870" lon="-3.5735870">
        <ele>506.6</ele>
        <time>2021-04-04T10:25:52Z</time>
      </trkpt>
      <trkpt lat="40.2031400" lon="-3.5735560">
        <ele>506.6</ele>
        <time>2021-04-04T10:25:53Z</time>
      </trkpt>
      <trkpt lat="40.2031970" lon="-3.5735210">
        <ele>506.6</ele>
        <time>2021-04-04T10:25:54Z</time>
      </trkpt>
      <trkpt lat="40.2032550" lon="-3.5734840">
        <ele>506.6</ele>
        <time>2021-04-04T10:25:55Z</time>
      </trkpt>
      <trkpt lat="40.2033120" lon="-3.5734470">
        <ele>506.6</ele>
        <time>2021-04-04T10:25:56Z</time>
      </trkpt>
      <trkpt lat="40.2033650" lon="-3.5734140">
        <ele>506.4</ele>
        <time>2021-04-04T10:25:57Z</time>
      </trkpt>
      <trkpt lat="40.2034230" lon="-3.5733830">
        <ele>506.4</ele>
        <time>2021-04-04T10:25:58Z</time>
      </trkpt>
      <trkpt lat="40.2034870" lon="-3.5733500">
        <ele>506.6</ele>
        <time>2021-04-04T10:25:59Z</time>
      </trkpt>
      <trkpt lat="40.2035410" lon="-3.5733180">
        <ele>506.6</ele>
        <time>2021-04-04T10:26:00Z</time>
      </trkpt>
      <trkpt lat="40.2035980" lon="-3.5732850">
        <ele>506.6</ele>
        <time>2021-04-04T10:26:01Z</time>
      </trkpt>
      <trkpt lat="40.2036510" lon="-3.5732520">
        <ele>506.6</ele>
        <time>2021-04-04T10:26:02Z</time>
      </trkpt>
      <trkpt lat="40.2037050" lon="-3.5732160">
        <ele>506.6</ele>
        <time>2021-04-04T10:26:03Z</time>
      </trkpt>
      <trkpt lat="40.2037620" lon="-3.5731820">
        <ele>506.6</ele>
        <time>2021-04-04T10:26:04Z</time>
      </trkpt>
      <trkpt lat="40.2038150" lon="-3.5731480">
        <ele>506.6</ele>
        <time>2021-04-04T10:26:05Z</time>
      </trkpt>
      <trkpt lat="40.2038650" lon="-3.5731130">
        <ele>506.6</ele>
        <time>2021-04-04T10:26:06Z</time>
      </trkpt>
      <trkpt lat="40.2039150" lon="-3.5730780">
        <ele>506.6</ele>
        <time>2021-04-04T10:26:07Z</time>
      </trkpt>
      <trkpt lat="40.2039600" lon="-3.5730440">
        <ele>506.6</ele>
        <time>2021-04-04T10:26:08Z</time>
      </trkpt>
      <trkpt lat="40.2040020" lon="-3.5730090">
        <ele>506.6</ele>
        <time>2021-04-04T10:26:09Z</time>
      </trkpt>
      <trkpt lat="40.2040440" lon="-3.5729750">
        <ele>506.6</ele>
        <time>2021-04-04T10:26:10Z</time>
      </trkpt>
      <trkpt lat="40.2040820" lon="-3.5729410">
        <ele>506.8</ele>
        <time>2021-04-04T10:26:11Z</time>
      </trkpt>
      <trkpt lat="40.2041240" lon="-3.5729130">
        <ele>506.8</ele>
        <time>2021-04-04T10:26:12Z</time>
      </trkpt>
      <trkpt lat="40.2041660" lon="-3.5728900">
        <ele>506.8</ele>
        <time>2021-04-04T10:26:13Z</time>
      </trkpt>
      <trkpt lat="40.2042050" lon="-3.5728700">
        <ele>506.8</ele>
        <time>2021-04-04T10:26:14Z</time>
      </trkpt>
      <trkpt lat="40.2042430" lon="-3.5728540">
        <ele>506.8</ele>
        <time>2021-04-04T10:26:15Z</time>
      </trkpt>
      <trkpt lat="40.2042850" lon="-3.5728360">
        <ele>506.8</ele>
        <time>2021-04-04T10:26:16Z</time>
      </trkpt>
      <trkpt lat="40.2043270" lon="-3.5728160">
        <ele>506.8</ele>
        <time>2021-04-04T10:26:17Z</time>
      </trkpt>
      <trkpt lat="40.2043650" lon="-3.5727990">
        <ele>506.8</ele>
        <time>2021-04-04T10:26:18Z</time>
      </trkpt>
      <trkpt lat="40.2043990" lon="-3.5727810">
        <ele>506.6</ele>
        <time>2021-04-04T10:26:19Z</time>
      </trkpt>
      <trkpt lat="40.2044370" lon="-3.5727610">
        <ele>506.6</ele>
        <time>2021-04-04T10:26:20Z</time>
      </trkpt>
      <trkpt lat="40.2044750" lon="-3.5727410">
        <ele>506.6</ele>
        <time>2021-04-04T10:26:21Z</time>
      </trkpt>
      <trkpt lat="40.2045140" lon="-3.5727220">
        <ele>506.4</ele>
        <time>2021-04-04T10:26:22Z</time>
      </trkpt>
      <trkpt lat="40.2045560" lon="-3.5727000">
        <ele>506.4</ele>
        <time>2021-04-04T10:26:23Z</time>
      </trkpt>
      <trkpt lat="40.2045970" lon="-3.5726750">
        <ele>506.4</ele>
        <time>2021-04-04T10:26:24Z</time>
      </trkpt>
      <trkpt lat="40.2046360" lon="-3.5726470">
        <ele>506.4</ele>
        <time>2021-04-04T10:26:25Z</time>
      </trkpt>
      <trkpt lat="40.2046740" lon="-3.5726150">
        <ele>506.2</ele>
        <time>2021-04-04T10:26:26Z</time>
      </trkpt>
      <trkpt lat="40.2047080" lon="-3.5725830">
        <ele>506.2</ele>
        <time>2021-04-04T10:26:27Z</time>
      </trkpt>
      <trkpt lat="40.2047460" lon="-3.5725510">
        <ele>506.2</ele>
        <time>2021-04-04T10:26:28Z</time>
      </trkpt>
      <trkpt lat="40.2047840" lon="-3.5725180">
        <ele>506.2</ele>
        <time>2021-04-04T10:26:29Z</time>
      </trkpt>
      <trkpt lat="40.2048230" lon="-3.5724840">
        <ele>506.2</ele>
        <time>2021-04-04T10:26:30Z</time>
      </trkpt>
      <trkpt lat="40.2048570" lon="-3.5724520">
        <ele>506.2</ele>
        <time>2021-04-04T10:26:31Z</time>
      </trkpt>
      <trkpt lat="40.2048950" lon="-3.5724190">
        <ele>506.2</ele>
        <time>2021-04-04T10:26:32Z</time>
      </trkpt>
      <trkpt lat="40.2049330" lon="-3.5723870">
        <ele>506.0</ele>
        <time>2021-04-04T10:26:33Z</time>
      </trkpt>
      <trkpt lat="40.2049710" lon="-3.5723550">
        <ele>506.0</ele>
        <time>2021-04-04T10:26:34Z</time>
      </trkpt>
      <trkpt lat="40.2050060" lon="-3.5723240">
        <ele>506.0</ele>
        <time>2021-04-04T10:26:35Z</time>
      </trkpt>
      <trkpt lat="40.2050440" lon="-3.5722940">
        <ele>506.0</ele>
        <time>2021-04-04T10:26:36Z</time>
      </trkpt>
      <trkpt lat="40.2050780" lon="-3.5722630">
        <ele>505.8</ele>
        <time>2021-04-04T10:26:37Z</time>
      </trkpt>
      <trkpt lat="40.2051120" lon="-3.5722330">
        <ele>505.8</ele>
        <time>2021-04-04T10:26:38Z</time>
      </trkpt>
      <trkpt lat="40.2051510" lon="-3.5722000">
        <ele>505.8</ele>
        <time>2021-04-04T10:26:39Z</time>
      </trkpt>
      <trkpt lat="40.2051890" lon="-3.5721680">
        <ele>505.8</ele>
        <time>2021-04-04T10:26:40Z</time>
      </trkpt>
      <trkpt lat="40.2052270" lon="-3.5721350">
        <ele>505.8</ele>
        <time>2021-04-04T10:26:41Z</time>
      </trkpt>
      <trkpt lat="40.2052650" lon="-3.5721020">
        <ele>505.8</ele>
        <time>2021-04-04T10:26:42Z</time>
      </trkpt>
      <trkpt lat="40.2052990" lon="-3.5720660">
        <ele>505.8</ele>
        <time>2021-04-04T10:26:43Z</time>
      </trkpt>
      <trkpt lat="40.2053340" lon="-3.5720270">
        <ele>505.6</ele>
        <time>2021-04-04T10:26:44Z</time>
      </trkpt>
      <trkpt lat="40.2053720" lon="-3.5719850">
        <ele>505.6</ele>
        <time>2021-04-04T10:26:45Z</time>
      </trkpt>
      <trkpt lat="40.2054100" lon="-3.5719450">
        <ele>505.6</ele>
        <time>2021-04-04T10:26:46Z</time>
      </trkpt>
      <trkpt lat="40.2054480" lon="-3.5719060">
        <ele>505.6</ele>
        <time>2021-04-04T10:26:47Z</time>
      </trkpt>
      <trkpt lat="40.2054820" lon="-3.5718670">
        <ele>505.6</ele>
        <time>2021-04-04T10:26:48Z</time>
      </trkpt>
      <trkpt lat="40.2055130" lon="-3.5718290">
        <ele>505.6</ele>
        <time>2021-04-04T10:26:49Z</time>
      </trkpt>
      <trkpt lat="40.2055550" lon="-3.5717920">
        <ele>505.8</ele>
        <time>2021-04-04T10:26:50Z</time>
      </trkpt>
      <trkpt lat="40.2055890" lon="-3.5717570">
        <ele>505.8</ele>
        <time>2021-04-04T10:26:51Z</time>
      </trkpt>
      <trkpt lat="40.2056240" lon="-3.5717190">
        <ele>505.6</ele>
        <time>2021-04-04T10:26:52Z</time>
      </trkpt>
      <trkpt lat="40.2056620" lon="-3.5716780">
        <ele>505.6</ele>
        <time>2021-04-04T10:26:53Z</time>
      </trkpt>
      <trkpt lat="40.2056960" lon="-3.5716350">
        <ele>505.6</ele>
        <time>2021-04-04T10:26:54Z</time>
      </trkpt>
      <trkpt lat="40.2057340" lon="-3.5715930">
        <ele>505.6</ele>
        <time>2021-04-04T10:26:55Z</time>
      </trkpt>
      <trkpt lat="40.2057720" lon="-3.5715540">
        <ele>505.6</ele>
        <time>2021-04-04T10:26:56Z</time>
      </trkpt>
      <trkpt lat="40.2058110" lon="-3.5715160">
        <ele>505.6</ele>
        <time>2021-04-04T10:26:57Z</time>
      </trkpt>
      <trkpt lat="40.2058490" lon="-3.5714800">
        <ele>505.4</ele>
        <time>2021-04-04T10:26:58Z</time>
      </trkpt>
      <trkpt lat="40.2058870" lon="-3.5714460">
        <ele>505.6</ele>
        <time>2021-04-04T10:26:59Z</time>
      </trkpt>
      <trkpt lat="40.2059330" lon="-3.5714180">
        <ele>505.6</ele>
        <time>2021-04-04T10:27:00Z</time>
      </trkpt>
      <trkpt lat="40.2059780" lon="-3.5713900">
        <ele>505.6</ele>
        <time>2021-04-04T10:27:01Z</time>
      </trkpt>
      <trkpt lat="40.2060170" lon="-3.5713580">
        <ele>505.6</ele>
        <time>2021-04-04T10:27:02Z</time>
      </trkpt>
      <trkpt lat="40.2060580" lon="-3.5713270">
        <ele>505.6</ele>
        <time>2021-04-04T10:27:03Z</time>
      </trkpt>
      <trkpt lat="40.2061000" lon="-3.5712900">
        <ele>505.6</ele>
        <time>2021-04-04T10:27:04Z</time>
      </trkpt>
      <trkpt lat="40.2061350" lon="-3.5712480">
        <ele>505.4</ele>
        <time>2021-04-04T10:27:05Z</time>
      </trkpt>
      <trkpt lat="40.2061770" lon="-3.5712050">
        <ele>505.4</ele>
        <time>2021-04-04T10:27:06Z</time>
      </trkpt>
      <trkpt lat="40.2062150" lon="-3.5711640">
        <ele>505.2</ele>
        <time>2021-04-04T10:27:07Z</time>
      </trkpt>
      <trkpt lat="40.2062490" lon="-3.5711250">
        <ele>505.2</ele>
        <time>2021-04-04T10:27:08Z</time>
      </trkpt>
      <trkpt lat="40.2062840" lon="-3.5710890">
        <ele>505.2</ele>
        <time>2021-04-04T10:27:09Z</time>
      </trkpt>
      <trkpt lat="40.2063260" lon="-3.5710400">
        <ele>505.2</ele>
        <time>2021-04-04T10:27:10Z</time>
      </trkpt>
      <trkpt lat="40.2063600" lon="-3.5709930">
        <ele>505.2</ele>
        <time>2021-04-04T10:27:11Z</time>
      </trkpt>
      <trkpt lat="40.2063870" lon="-3.5709470">
        <ele>505.2</ele>
        <time>2021-04-04T10:27:12Z</time>
      </trkpt>
      <trkpt lat="40.2064210" lon="-3.5709070">
        <ele>505.0</ele>
        <time>2021-04-04T10:27:13Z</time>
      </trkpt>
      <trkpt lat="40.2064480" lon="-3.5708750">
        <ele>505.0</ele>
        <time>2021-04-04T10:27:14Z</time>
      </trkpt>
      <trkpt lat="40.2064740" lon="-3.5708540">
        <ele>505.0</ele>
        <time>2021-04-04T10:27:15Z</time>
      </trkpt>
      <trkpt lat="40.2065010" lon="-3.5708400">
        <ele>505.0</ele>
        <time>2021-04-04T10:27:16Z</time>
      </trkpt>
      <trkpt lat="40.2065240" lon="-3.5708410">
        <ele>505.0</ele>
        <time>2021-04-04T10:27:17Z</time>
      </trkpt>
      <trkpt lat="40.2065390" lon="-3.5708560">
        <ele>505.0</ele>
        <time>2021-04-04T10:27:18Z</time>
      </trkpt>
      <trkpt lat="40.2065510" lon="-3.5708820">
        <ele>505.0</ele>
        <time>2021-04-04T10:27:19Z</time>
      </trkpt>
      <trkpt lat="40.2065700" lon="-3.5709130">
        <ele>505.0</ele>
        <time>2021-04-04T10:27:20Z</time>
      </trkpt>
      <trkpt lat="40.2065890" lon="-3.5709460">
        <ele>504.8</ele>
        <time>2021-04-04T10:27:21Z</time>
      </trkpt>
      <trkpt lat="40.2066040" lon="-3.5709810">
        <ele>504.8</ele>
        <time>2021-04-04T10:27:22Z</time>
      </trkpt>
      <trkpt lat="40.2066190" lon="-3.5710240">
        <ele>504.8</ele>
        <time>2021-04-04T10:27:23Z</time>
      </trkpt>
      <trkpt lat="40.2066340" lon="-3.5710700">
        <ele>504.8</ele>
        <time>2021-04-04T10:27:24Z</time>
      </trkpt>
      <trkpt lat="40.2066540" lon="-3.5711130">
        <ele>504.8</ele>
        <time>2021-04-04T10:27:25Z</time>
      </trkpt>
      <trkpt lat="40.2066730" lon="-3.5711550">
        <ele>504.8</ele>
        <time>2021-04-04T10:27:26Z</time>
      </trkpt>
      <trkpt lat="40.2066920" lon="-3.5711950">
        <ele>504.8</ele>
        <time>2021-04-04T10:27:27Z</time>
      </trkpt>
      <trkpt lat="40.2067110" lon="-3.5712360">
        <ele>504.8</ele>
        <time>2021-04-04T10:27:28Z</time>
      </trkpt>
      <trkpt lat="40.2067300" lon="-3.5712780">
        <ele>504.8</ele>
        <time>2021-04-04T10:27:29Z</time>
      </trkpt>
      <trkpt lat="40.2067450" lon="-3.5713170">
        <ele>505.0</ele>
        <time>2021-04-04T10:27:30Z</time>
      </trkpt>
      <trkpt lat="40.2067640" lon="-3.5713540">
        <ele>504.8</ele>
        <time>2021-04-04T10:27:31Z</time>
      </trkpt>
      <trkpt lat="40.2067830" lon="-3.5713810">
        <ele>504.8</ele>
        <time>2021-04-04T10:27:32Z</time>
      </trkpt>
      <trkpt lat="40.2067990" lon="-3.5713970">
        <ele>504.8</ele>
        <time>2021-04-04T10:27:33Z</time>
      </trkpt>
      <trkpt lat="40.2068210" lon="-3.5714010">
        <ele>505.0</ele>
        <time>2021-04-04T10:27:34Z</time>
      </trkpt>
      <trkpt lat="40.2068480" lon="-3.5713940">
        <ele>505.0</ele>
        <time>2021-04-04T10:27:35Z</time>
      </trkpt>
      <trkpt lat="40.2068830" lon="-3.5713820">
        <ele>505.0</ele>
        <time>2021-04-04T10:27:36Z</time>
      </trkpt>
      <trkpt lat="40.2069210" lon="-3.5713690">
        <ele>505.0</ele>
        <time>2021-04-04T10:27:37Z</time>
      </trkpt>
      <trkpt lat="40.2069630" lon="-3.5713560">
        <ele>505.0</ele>
        <time>2021-04-04T10:27:38Z</time>
      </trkpt>
      <trkpt lat="40.2070050" lon="-3.5713410">
        <ele>505.0</ele>
        <time>2021-04-04T10:27:39Z</time>
      </trkpt>
      <trkpt lat="40.2070500" lon="-3.5713260">
        <ele>505.0</ele>
        <time>2021-04-04T10:27:40Z</time>
      </trkpt>
      <trkpt lat="40.2070920" lon="-3.5713120">
        <ele>505.0</ele>
        <time>2021-04-04T10:27:41Z</time>
      </trkpt>
      <trkpt lat="40.2071340" lon="-3.5712990">
        <ele>505.0</ele>
        <time>2021-04-04T10:27:42Z</time>
      </trkpt>
      <trkpt lat="40.2071760" lon="-3.5712870">
        <ele>505.0</ele>
        <time>2021-04-04T10:27:43Z</time>
      </trkpt>
      <trkpt lat="40.2072180" lon="-3.5712740">
        <ele>505.0</ele>
        <time>2021-04-04T10:27:44Z</time>
      </trkpt>
      <trkpt lat="40.2072600" lon="-3.5712630">
        <ele>505.0</ele>
        <time>2021-04-04T10:27:45Z</time>
      </trkpt>
      <trkpt lat="40.2073020" lon="-3.5712490">
        <ele>504.8</ele>
        <time>2021-04-04T10:27:46Z</time>
      </trkpt>
      <trkpt lat="40.2073400" lon="-3.5712330">
        <ele>504.8</ele>
        <time>2021-04-04T10:27:47Z</time>
      </trkpt>
      <trkpt lat="40.2073750" lon="-3.5712190">
        <ele>504.8</ele>
        <time>2021-04-04T10:27:48Z</time>
      </trkpt>
      <trkpt lat="40.2074090" lon="-3.5712040">
        <ele>504.8</ele>
        <time>2021-04-04T10:27:49Z</time>
      </trkpt>
      <trkpt lat="40.2074430" lon="-3.5711910">
        <ele>504.8</ele>
        <time>2021-04-04T10:27:50Z</time>
      </trkpt>
      <trkpt lat="40.2074660" lon="-3.5711830">
        <ele>504.8</ele>
        <time>2021-04-04T10:27:51Z</time>
      </trkpt>
      <trkpt lat="40.2074850" lon="-3.5711750">
        <ele>504.8</ele>
        <time>2021-04-04T10:27:52Z</time>
      </trkpt>
      <trkpt lat="40.2075040" lon="-3.5711710">
        <ele>504.8</ele>
        <time>2021-04-04T10:27:53Z</time>
      </trkpt>
      <trkpt lat="40.2075230" lon="-3.5711760">
        <ele>504.8</ele>
        <time>2021-04-04T10:27:54Z</time>
      </trkpt>
      <trkpt lat="40.2075390" lon="-3.5711920">
        <ele>504.6</ele>
        <time>2021-04-04T10:27:55Z</time>
      </trkpt>
      <trkpt lat="40.2075500" lon="-3.5712190">
        <ele>504.8</ele>
        <time>2021-04-04T10:27:56Z</time>
      </trkpt>
      <trkpt lat="40.2075620" lon="-3.5712540">
        <ele>504.8</ele>
        <time>2021-04-04T10:27:57Z</time>
      </trkpt>
      <trkpt lat="40.2075690" lon="-3.5712940">
        <ele>504.8</ele>
        <time>2021-04-04T10:27:58Z</time>
      </trkpt>
      <trkpt lat="40.2075840" lon="-3.5713350">
        <ele>504.6</ele>
        <time>2021-04-04T10:27:59Z</time>
      </trkpt>
      <trkpt lat="40.2075920" lon="-3.5713770">
        <ele>504.6</ele>
        <time>2021-04-04T10:28:00Z</time>
      </trkpt>
      <trkpt lat="40.2076000" lon="-3.5714160">
        <ele>504.6</ele>
        <time>2021-04-04T10:28:01Z</time>
      </trkpt>
      <trkpt lat="40.2076030" lon="-3.5714560">
        <ele>504.8</ele>
        <time>2021-04-04T10:28:02Z</time>
      </trkpt>
      <trkpt lat="40.2076030" lon="-3.5714970">
        <ele>504.8</ele>
        <time>2021-04-04T10:28:03Z</time>
      </trkpt>
      <trkpt lat="40.2076030" lon="-3.5715420">
        <ele>504.8</ele>
        <time>2021-04-04T10:28:04Z</time>
      </trkpt>
      <trkpt lat="40.2076030" lon="-3.5715880">
        <ele>504.8</ele>
        <time>2021-04-04T10:28:05Z</time>
      </trkpt>
      <trkpt lat="40.2076000" lon="-3.5716350">
        <ele>504.8</ele>
        <time>2021-04-04T10:28:06Z</time>
      </trkpt>
      <trkpt lat="40.2076030" lon="-3.5716870">
        <ele>504.8</ele>
        <time>2021-04-04T10:28:07Z</time>
      </trkpt>
      <trkpt lat="40.2076030" lon="-3.5717400">
        <ele>504.8</ele>
        <time>2021-04-04T10:28:08Z</time>
      </trkpt>
      <trkpt lat="40.2076030" lon="-3.5717920">
        <ele>505.0</ele>
        <time>2021-04-04T10:28:09Z</time>
      </trkpt>
      <trkpt lat="40.2076070" lon="-3.5718410">
        <ele>505.0</ele>
        <time>2021-04-04T10:28:10Z</time>
      </trkpt>
      <trkpt lat="40.2076070" lon="-3.5718890">
        <ele>505.0</ele>
        <time>2021-04-04T10:28:11Z</time>
      </trkpt>
      <trkpt lat="40.2076030" lon="-3.5719410">
        <ele>505.0</ele>
        <time>2021-04-04T10:28:12Z</time>
      </trkpt>
      <trkpt lat="40.2076030" lon="-3.5719930">
        <ele>505.0</ele>
        <time>2021-04-04T10:28:13Z</time>
      </trkpt>
      <trkpt lat="40.2076000" lon="-3.5720450">
        <ele>505.0</ele>
        <time>2021-04-04T10:28:14Z</time>
      </trkpt>
      <trkpt lat="40.2076000" lon="-3.5720980">
        <ele>505.0</ele>
        <time>2021-04-04T10:28:15Z</time>
      </trkpt>
      <trkpt lat="40.2076030" lon="-3.5721520">
        <ele>505.2</ele>
        <time>2021-04-04T10:28:16Z</time>
      </trkpt>
      <trkpt lat="40.2076030" lon="-3.5722110">
        <ele>505.2</ele>
        <time>2021-04-04T10:28:17Z</time>
      </trkpt>
      <trkpt lat="40.2076030" lon="-3.5722680">
        <ele>505.2</ele>
        <time>2021-04-04T10:28:18Z</time>
      </trkpt>
      <trkpt lat="40.2076030" lon="-3.5723240">
        <ele>505.2</ele>
        <time>2021-04-04T10:28:19Z</time>
      </trkpt>
      <trkpt lat="40.2076000" lon="-3.5723820">
        <ele>505.2</ele>
        <time>2021-04-04T10:28:20Z</time>
      </trkpt>
      <trkpt lat="40.2076000" lon="-3.5724400">
        <ele>505.4</ele>
        <time>2021-04-04T10:28:21Z</time>
      </trkpt>
      <trkpt lat="40.2076000" lon="-3.5724970">
        <ele>505.4</ele>
        <time>2021-04-04T10:28:22Z</time>
      </trkpt>
      <trkpt lat="40.2076030" lon="-3.5725560">
        <ele>505.4</ele>
        <time>2021-04-04T10:28:23Z</time>
      </trkpt>
      <trkpt lat="40.2076030" lon="-3.5726150">
        <ele>505.4</ele>
        <time>2021-04-04T10:28:24Z</time>
      </trkpt>
      <trkpt lat="40.2076030" lon="-3.5726710">
        <ele>505.4</ele>
        <time>2021-04-04T10:28:25Z</time>
      </trkpt>
      <trkpt lat="40.2076030" lon="-3.5727270">
        <ele>505.6</ele>
        <time>2021-04-04T10:28:26Z</time>
      </trkpt>
      <trkpt lat="40.2076000" lon="-3.5727830">
        <ele>505.6</ele>
        <time>2021-04-04T10:28:27Z</time>
      </trkpt>
      <trkpt lat="40.2075960" lon="-3.5728370">
        <ele>505.6</ele>
        <time>2021-04-04T10:28:28Z</time>
      </trkpt>
      <trkpt lat="40.2075920" lon="-3.5728900">
        <ele>505.6</ele>
        <time>2021-04-04T10:28:29Z</time>
      </trkpt>
      <trkpt lat="40.2075960" lon="-3.5729450">
        <ele>505.6</ele>
        <time>2021-04-04T10:28:30Z</time>
      </trkpt>
      <trkpt lat="40.2076000" lon="-3.5729980">
        <ele>505.6</ele>
        <time>2021-04-04T10:28:31Z</time>
      </trkpt>
      <trkpt lat="40.2076030" lon="-3.5730500">
        <ele>505.8</ele>
        <time>2021-04-04T10:28:32Z</time>
      </trkpt>
      <trkpt lat="40.2076070" lon="-3.5730960">
        <ele>505.8</ele>
        <time>2021-04-04T10:28:33Z</time>
      </trkpt>
      <trkpt lat="40.2076110" lon="-3.5731350">
        <ele>505.8</ele>
        <time>2021-04-04T10:28:34Z</time>
      </trkpt>
      <trkpt lat="40.2076150" lon="-3.5731660">
        <ele>505.8</ele>
        <time>2021-04-04T10:28:35Z</time>
      </trkpt>
      <trkpt lat="40.2076190" lon="-3.5731930">
        <ele>506.0</ele>
        <time>2021-04-04T10:28:36Z</time>
      </trkpt>
      <trkpt lat="40.2076260" lon="-3.5732210">
        <ele>506.0</ele>
        <time>2021-04-04T10:28:37Z</time>
      </trkpt>
      <trkpt lat="40.2076340" lon="-3.5732460">
        <ele>506.0</ele>
        <time>2021-04-04T10:28:38Z</time>
      </trkpt>
      <trkpt lat="40.2076530" lon="-3.5732640">
        <ele>506.0</ele>
        <time>2021-04-04T10:28:39Z</time>
      </trkpt>
      <trkpt lat="40.2076720" lon="-3.5732750">
        <ele>506.2</ele>
        <time>2021-04-04T10:28:40Z</time>
      </trkpt>
      <trkpt lat="40.2076910" lon="-3.5732810">
        <ele>506.2</ele>
        <time>2021-04-04T10:28:41Z</time>
      </trkpt>
      <trkpt lat="40.2077140" lon="-3.5732810">
        <ele>506.2</ele>
        <time>2021-04-04T10:28:42Z</time>
      </trkpt>
      <trkpt lat="40.2077370" lon="-3.5732790">
        <ele>506.2</ele>
        <time>2021-04-04T10:28:43Z</time>
      </trkpt>
      <trkpt lat="40.2077640" lon="-3.5732750">
        <ele>506.2</ele>
        <time>2021-04-04T10:28:44Z</time>
      </trkpt>
      <trkpt lat="40.2077900" lon="-3.5732690">
        <ele>506.2</ele>
        <time>2021-04-04T10:28:45Z</time>
      </trkpt>
      <trkpt lat="40.2078170" lon="-3.5732610">
        <ele>506.2</ele>
        <time>2021-04-04T10:28:46Z</time>
      </trkpt>
      <trkpt lat="40.2078440" lon="-3.5732540">
        <ele>506.4</ele>
        <time>2021-04-04T10:28:47Z</time>
      </trkpt>
      <trkpt lat="40.2078700" lon="-3.5732450">
        <ele>506.2</ele>
        <time>2021-04-04T10:28:48Z</time>
      </trkpt>
      <trkpt lat="40.2079010" lon="-3.5732360">
        <ele>506.2</ele>
        <time>2021-04-04T10:28:49Z</time>
      </trkpt>
      <trkpt lat="40.2079320" lon="-3.5732230">
        <ele>506.2</ele>
        <time>2021-04-04T10:28:50Z</time>
      </trkpt>
      <trkpt lat="40.2079620" lon="-3.5732090">
        <ele>506.2</ele>
        <time>2021-04-04T10:28:51Z</time>
      </trkpt>
      <trkpt lat="40.2080000" lon="-3.5731940">
        <ele>506.2</ele>
        <time>2021-04-04T10:28:52Z</time>
      </trkpt>
      <trkpt lat="40.2080350" lon="-3.5731830">
        <ele>506.2</ele>
        <time>2021-04-04T10:28:53Z</time>
      </trkpt>
      <trkpt lat="40.2080730" lon="-3.5731720">
        <ele>506.2</ele>
        <time>2021-04-04T10:28:54Z</time>
      </trkpt>
      <trkpt lat="40.2081150" lon="-3.5731580">
        <ele>506.2</ele>
        <time>2021-04-04T10:28:55Z</time>
      </trkpt>
      <trkpt lat="40.2081570" lon="-3.5731440">
        <ele>506.2</ele>
        <time>2021-04-04T10:28:56Z</time>
      </trkpt>
      <trkpt lat="40.2081990" lon="-3.5731260">
        <ele>506.2</ele>
        <time>2021-04-04T10:28:57Z</time>
      </trkpt>
      <trkpt lat="40.2082440" lon="-3.5731060">
        <ele>506.2</ele>
        <time>2021-04-04T10:28:58Z</time>
      </trkpt>
      <trkpt lat="40.2082940" lon="-3.5730860">
        <ele>506.2</ele>
        <time>2021-04-04T10:28:59Z</time>
      </trkpt>
      <trkpt lat="40.2083400" lon="-3.5730650">
        <ele>506.2</ele>
        <time>2021-04-04T10:29:00Z</time>
      </trkpt>
      <trkpt lat="40.2083850" lon="-3.5730430">
        <ele>506.2</ele>
        <time>2021-04-04T10:29:01Z</time>
      </trkpt>
      <trkpt lat="40.2084310" lon="-3.5730250">
        <ele>506.2</ele>
        <time>2021-04-04T10:29:02Z</time>
      </trkpt>
      <trkpt lat="40.2084770" lon="-3.5730090">
        <ele>506.2</ele>
        <time>2021-04-04T10:29:03Z</time>
      </trkpt>
      <trkpt lat="40.2085230" lon="-3.5729900">
        <ele>506.2</ele>
        <time>2021-04-04T10:29:04Z</time>
      </trkpt>
      <trkpt lat="40.2085690" lon="-3.5729700">
        <ele>506.2</ele>
        <time>2021-04-04T10:29:05Z</time>
      </trkpt>
      <trkpt lat="40.2086140" lon="-3.5729530">
        <ele>506.4</ele>
        <time>2021-04-04T10:29:06Z</time>
      </trkpt>
      <trkpt lat="40.2086640" lon="-3.5729340">
        <ele>506.4</ele>
        <time>2021-04-04T10:29:07Z</time>
      </trkpt>
      <trkpt lat="40.2087100" lon="-3.5729140">
        <ele>506.4</ele>
        <time>2021-04-04T10:29:08Z</time>
      </trkpt>
      <trkpt lat="40.2087550" lon="-3.5728950">
        <ele>506.4</ele>
        <time>2021-04-04T10:29:09Z</time>
      </trkpt>
      <trkpt lat="40.2087970" lon="-3.5728760">
        <ele>506.4</ele>
        <time>2021-04-04T10:29:10Z</time>
      </trkpt>
      <trkpt lat="40.2088430" lon="-3.5728570">
        <ele>506.6</ele>
        <time>2021-04-04T10:29:11Z</time>
      </trkpt>
      <trkpt lat="40.2088890" lon="-3.5728390">
        <ele>506.6</ele>
        <time>2021-04-04T10:29:12Z</time>
      </trkpt>
      <trkpt lat="40.2089390" lon="-3.5728210">
        <ele>506.6</ele>
        <time>2021-04-04T10:29:13Z</time>
      </trkpt>
      <trkpt lat="40.2089840" lon="-3.5728030">
        <ele>506.6</ele>
        <time>2021-04-04T10:29:14Z</time>
      </trkpt>
      <trkpt lat="40.2090340" lon="-3.5727850">
        <ele>506.6</ele>
        <time>2021-04-04T10:29:15Z</time>
      </trkpt>
      <trkpt lat="40.2090800" lon="-3.5727680">
        <ele>506.6</ele>
        <time>2021-04-04T10:29:16Z</time>
      </trkpt>
      <trkpt lat="40.2091220" lon="-3.5727480">
        <ele>506.6</ele>
        <time>2021-04-04T10:29:17Z</time>
      </trkpt>
      <trkpt lat="40.2091640" lon="-3.5727320">
        <ele>506.6</ele>
        <time>2021-04-04T10:29:18Z</time>
      </trkpt>
      <trkpt lat="40.2092060" lon="-3.5727200">
        <ele>506.6</ele>
        <time>2021-04-04T10:29:19Z</time>
      </trkpt>
      <trkpt lat="40.2092480" lon="-3.5727070">
        <ele>506.6</ele>
        <time>2021-04-04T10:29:20Z</time>
      </trkpt>
      <trkpt lat="40.2092860" lon="-3.5726910">
        <ele>506.8</ele>
        <time>2021-04-04T10:29:21Z</time>
      </trkpt>
      <trkpt lat="40.2093200" lon="-3.5726710">
        <ele>506.8</ele>
        <time>2021-04-04T10:29:22Z</time>
      </trkpt>
      <trkpt lat="40.2093540" lon="-3.5726540">
        <ele>506.8</ele>
        <time>2021-04-04T10:29:23Z</time>
      </trkpt>
      <trkpt lat="40.2093890" lon="-3.5726380">
        <ele>506.8</ele>
        <time>2021-04-04T10:29:24Z</time>
      </trkpt>
      <trkpt lat="40.2094150" lon="-3.5726220">
        <ele>507.0</ele>
        <time>2021-04-04T10:29:25Z</time>
      </trkpt>
      <trkpt lat="40.2094420" lon="-3.5726070">
        <ele>507.0</ele>
        <time>2021-04-04T10:29:26Z</time>
      </trkpt>
      <trkpt lat="40.2094650" lon="-3.5725940">
        <ele>507.0</ele>
        <time>2021-04-04T10:29:27Z</time>
      </trkpt>
      <trkpt lat="40.2094880" lon="-3.5725800">
        <ele>507.0</ele>
        <time>2021-04-04T10:29:28Z</time>
      </trkpt>
      <trkpt lat="40.2095110" lon="-3.5725670">
        <ele>507.0</ele>
        <time>2021-04-04T10:29:29Z</time>
      </trkpt>
      <trkpt lat="40.2095340" lon="-3.5725540">
        <ele>507.0</ele>
        <time>2021-04-04T10:29:30Z</time>
      </trkpt>
      <trkpt lat="40.2095570" lon="-3.5725400">
        <ele>507.2</ele>
        <time>2021-04-04T10:29:31Z</time>
      </trkpt>
      <trkpt lat="40.2095870" lon="-3.5725250">
        <ele>507.2</ele>
        <time>2021-04-04T10:29:32Z</time>
      </trkpt>
      <trkpt lat="40.2096140" lon="-3.5725110">
        <ele>507.2</ele>
        <time>2021-04-04T10:29:33Z</time>
      </trkpt>
      <trkpt lat="40.2096480" lon="-3.5724960">
        <ele>507.2</ele>
        <time>2021-04-04T10:29:34Z</time>
      </trkpt>
      <trkpt lat="40.2096750" lon="-3.5724800">
        <ele>507.4</ele>
        <time>2021-04-04T10:29:35Z</time>
      </trkpt>
      <trkpt lat="40.2097020" lon="-3.5724640">
        <ele>507.4</ele>
        <time>2021-04-04T10:29:36Z</time>
      </trkpt>
      <trkpt lat="40.2097320" lon="-3.5724490">
        <ele>507.4</ele>
        <time>2021-04-04T10:29:37Z</time>
      </trkpt>
      <trkpt lat="40.2097700" lon="-3.5724290">
        <ele>507.2</ele>
        <time>2021-04-04T10:29:38Z</time>
      </trkpt>
      <trkpt lat="40.2098050" lon="-3.5724010">
        <ele>507.2</ele>
        <time>2021-04-04T10:29:39Z</time>
      </trkpt>
      <trkpt lat="40.2098390" lon="-3.5723670">
        <ele>507.2</ele>
        <time>2021-04-04T10:29:40Z</time>
      </trkpt>
      <trkpt lat="40.2098730" lon="-3.5723330">
        <ele>507.2</ele>
        <time>2021-04-04T10:29:41Z</time>
      </trkpt>
      <trkpt lat="40.2099080" lon="-3.5723040">
        <ele>507.2</ele>
        <time>2021-04-04T10:29:42Z</time>
      </trkpt>
      <trkpt lat="40.2099420" lon="-3.5722770">
        <ele>507.2</ele>
        <time>2021-04-04T10:29:43Z</time>
      </trkpt>
      <trkpt lat="40.2099800" lon="-3.5722530">
        <ele>507.0</ele>
        <time>2021-04-04T10:29:44Z</time>
      </trkpt>
      <trkpt lat="40.2100140" lon="-3.5722270">
        <ele>507.0</ele>
        <time>2021-04-04T10:29:45Z</time>
      </trkpt>
      <trkpt lat="40.2100490" lon="-3.5721980">
        <ele>507.0</ele>
        <time>2021-04-04T10:29:46Z</time>
      </trkpt>
      <trkpt lat="40.2100830" lon="-3.5721650">
        <ele>507.2</ele>
        <time>2021-04-04T10:29:47Z</time>
      </trkpt>
      <trkpt lat="40.2101210" lon="-3.5721320">
        <ele>507.2</ele>
        <time>2021-04-04T10:29:48Z</time>
      </trkpt>
      <trkpt lat="40.2101590" lon="-3.5721030">
        <ele>507.2</ele>
        <time>2021-04-04T10:29:49Z</time>
      </trkpt>
      <trkpt lat="40.2101940" lon="-3.5720750">
        <ele>507.2</ele>
        <time>2021-04-04T10:29:50Z</time>
      </trkpt>
      <trkpt lat="40.2102320" lon="-3.5720530">
        <ele>507.2</ele>
        <time>2021-04-04T10:29:51Z</time>
      </trkpt>
      <trkpt lat="40.2102740" lon="-3.5720290">
        <ele>507.2</ele>
        <time>2021-04-04T10:29:52Z</time>
      </trkpt>
      <trkpt lat="40.2103120" lon="-3.5720020">
        <ele>507.2</ele>
        <time>2021-04-04T10:29:53Z</time>
      </trkpt>
      <trkpt lat="40.2103540" lon="-3.5719740">
        <ele>507.2</ele>
        <time>2021-04-04T10:29:54Z</time>
      </trkpt>
      <trkpt lat="40.2104000" lon="-3.5719420">
        <ele>507.4</ele>
        <time>2021-04-04T10:29:55Z</time>
      </trkpt>
      <trkpt lat="40.2104450" lon="-3.5719080">
        <ele>507.4</ele>
        <time>2021-04-04T10:29:56Z</time>
      </trkpt>
      <trkpt lat="40.2104870" lon="-3.5718750">
        <ele>507.4</ele>
        <time>2021-04-04T10:29:57Z</time>
      </trkpt>
      <trkpt lat="40.2105290" lon="-3.5718460">
        <ele>507.4</ele>
        <time>2021-04-04T10:29:58Z</time>
      </trkpt>
      <trkpt lat="40.2105670" lon="-3.5718180">
        <ele>507.4</ele>
        <time>2021-04-04T10:29:59Z</time>
      </trkpt>
      <trkpt lat="40.2106130" lon="-3.5717890">
        <ele>507.4</ele>
        <time>2021-04-04T10:30:00Z</time>
      </trkpt>
      <trkpt lat="40.2106550" lon="-3.5717570">
        <ele>507.4</ele>
        <time>2021-04-04T10:30:01Z</time>
      </trkpt>
      <trkpt lat="40.2107010" lon="-3.5717230">
        <ele>507.4</ele>
        <time>2021-04-04T10:30:02Z</time>
      </trkpt>
      <trkpt lat="40.2107470" lon="-3.5716920">
        <ele>507.6</ele>
        <time>2021-04-04T10:30:03Z</time>
      </trkpt>
      <trkpt lat="40.2107890" lon="-3.5716590">
        <ele>507.6</ele>
        <time>2021-04-04T10:30:04Z</time>
      </trkpt>
      <trkpt lat="40.2108310" lon="-3.5716270">
        <ele>507.6</ele>
        <time>2021-04-04T10:30:05Z</time>
      </trkpt>
      <trkpt lat="40.2108760" lon="-3.5715980">
        <ele>507.6</ele>
        <time>2021-04-04T10:30:06Z</time>
      </trkpt>
      <trkpt lat="40.2109220" lon="-3.5715700">
        <ele>507.4</ele>
        <time>2021-04-04T10:30:07Z</time>
      </trkpt>
      <trkpt lat="40.2109680" lon="-3.5715420">
        <ele>507.4</ele>
        <time>2021-04-04T10:30:08Z</time>
      </trkpt>
      <trkpt lat="40.2110140" lon="-3.5715090">
        <ele>507.4</ele>
        <time>2021-04-04T10:30:09Z</time>
      </trkpt>
      <trkpt lat="40.2110560" lon="-3.5714800">
        <ele>507.4</ele>
        <time>2021-04-04T10:30:10Z</time>
      </trkpt>
      <trkpt lat="40.2110980" lon="-3.5714530">
        <ele>507.4</ele>
        <time>2021-04-04T10:30:11Z</time>
      </trkpt>
      <trkpt lat="40.2111360" lon="-3.5714270">
        <ele>507.4</ele>
        <time>2021-04-04T10:30:12Z</time>
      </trkpt>
      <trkpt lat="40.2111740" lon="-3.5713990">
        <ele>507.4</ele>
        <time>2021-04-04T10:30:13Z</time>
      </trkpt>
      <trkpt lat="40.2112160" lon="-3.5713690">
        <ele>507.4</ele>
        <time>2021-04-04T10:30:14Z</time>
      </trkpt>
      <trkpt lat="40.2112580" lon="-3.5713370">
        <ele>507.4</ele>
        <time>2021-04-04T10:30:15Z</time>
      </trkpt>
      <trkpt lat="40.2113000" lon="-3.5713020">
        <ele>507.2</ele>
        <time>2021-04-04T10:30:16Z</time>
      </trkpt>
      <trkpt lat="40.2113420" lon="-3.5712710">
        <ele>507.2</ele>
        <time>2021-04-04T10:30:17Z</time>
      </trkpt>
      <trkpt lat="40.2113840" lon="-3.5712410">
        <ele>507.2</ele>
        <time>2021-04-04T10:30:18Z</time>
      </trkpt>
      <trkpt lat="40.2114410" lon="-3.5712090">
        <ele>507.4</ele>
        <time>2021-04-04T10:30:19Z</time>
      </trkpt>
      <trkpt lat="40.2114870" lon="-3.5711760">
        <ele>507.4</ele>
        <time>2021-04-04T10:30:20Z</time>
      </trkpt>
      <trkpt lat="40.2115360" lon="-3.5711420">
        <ele>507.4</ele>
        <time>2021-04-04T10:30:21Z</time>
      </trkpt>
      <trkpt lat="40.2115860" lon="-3.5711040">
        <ele>507.4</ele>
        <time>2021-04-04T10:30:22Z</time>
      </trkpt>
      <trkpt lat="40.2116360" lon="-3.5710650">
        <ele>507.4</ele>
        <time>2021-04-04T10:30:23Z</time>
      </trkpt>
      <trkpt lat="40.2116850" lon="-3.5710250">
        <ele>507.4</ele>
        <time>2021-04-04T10:30:24Z</time>
      </trkpt>
      <trkpt lat="40.2117350" lon="-3.5709870">
        <ele>507.4</ele>
        <time>2021-04-04T10:30:25Z</time>
      </trkpt>
      <trkpt lat="40.2117840" lon="-3.5709500">
        <ele>507.6</ele>
        <time>2021-04-04T10:30:26Z</time>
      </trkpt>
      <trkpt lat="40.2118300" lon="-3.5709210">
        <ele>507.6</ele>
        <time>2021-04-04T10:30:27Z</time>
      </trkpt>
      <trkpt lat="40.2118760" lon="-3.5708910">
        <ele>507.6</ele>
        <time>2021-04-04T10:30:28Z</time>
      </trkpt>
      <trkpt lat="40.2119220" lon="-3.5708560">
        <ele>507.6</ele>
        <time>2021-04-04T10:30:29Z</time>
      </trkpt>
      <trkpt lat="40.2119710" lon="-3.5708170">
        <ele>507.6</ele>
        <time>2021-04-04T10:30:30Z</time>
      </trkpt>
      <trkpt lat="40.2120170" lon="-3.5707810">
        <ele>507.6</ele>
        <time>2021-04-04T10:30:31Z</time>
      </trkpt>
      <trkpt lat="40.2120670" lon="-3.5707500">
        <ele>507.6</ele>
        <time>2021-04-04T10:30:32Z</time>
      </trkpt>
      <trkpt lat="40.2121200" lon="-3.5707200">
        <ele>507.6</ele>
        <time>2021-04-04T10:30:33Z</time>
      </trkpt>
      <trkpt lat="40.2121700" lon="-3.5706930">
        <ele>507.6</ele>
        <time>2021-04-04T10:30:34Z</time>
      </trkpt>
      <trkpt lat="40.2122150" lon="-3.5706740">
        <ele>507.6</ele>
        <time>2021-04-04T10:30:35Z</time>
      </trkpt>
      <trkpt lat="40.2122570" lon="-3.5706600">
        <ele>507.6</ele>
        <time>2021-04-04T10:30:36Z</time>
      </trkpt>
      <trkpt lat="40.2122960" lon="-3.5706430">
        <ele>507.6</ele>
        <time>2021-04-04T10:30:37Z</time>
      </trkpt>
      <trkpt lat="40.2123410" lon="-3.5706220">
        <ele>507.6</ele>
        <time>2021-04-04T10:30:38Z</time>
      </trkpt>
      <trkpt lat="40.2123870" lon="-3.5706010">
        <ele>507.4</ele>
        <time>2021-04-04T10:30:39Z</time>
      </trkpt>
      <trkpt lat="40.2124330" lon="-3.5705840">
        <ele>507.4</ele>
        <time>2021-04-04T10:30:40Z</time>
      </trkpt>
      <trkpt lat="40.2124860" lon="-3.5705740">
        <ele>507.4</ele>
        <time>2021-04-04T10:30:41Z</time>
      </trkpt>
      <trkpt lat="40.2125400" lon="-3.5705670">
        <ele>507.4</ele>
        <time>2021-04-04T10:30:42Z</time>
      </trkpt>
      <trkpt lat="40.2125930" lon="-3.5705620">
        <ele>507.4</ele>
        <time>2021-04-04T10:30:43Z</time>
      </trkpt>
      <trkpt lat="40.2126540" lon="-3.5705550">
        <ele>507.4</ele>
        <time>2021-04-04T10:30:44Z</time>
      </trkpt>
      <trkpt lat="40.2127150" lon="-3.5705460">
        <ele>507.4</ele>
        <time>2021-04-04T10:30:45Z</time>
      </trkpt>
      <trkpt lat="40.2127760" lon="-3.5705350">
        <ele>507.6</ele>
        <time>2021-04-04T10:30:46Z</time>
      </trkpt>
      <trkpt lat="40.2128300" lon="-3.5705260">
        <ele>507.6</ele>
        <time>2021-04-04T10:30:47Z</time>
      </trkpt>
      <trkpt lat="40.2128790" lon="-3.5705180">
        <ele>507.8</ele>
        <time>2021-04-04T10:30:48Z</time>
      </trkpt>
      <trkpt lat="40.2129330" lon="-3.5705050">
        <ele>507.8</ele>
        <time>2021-04-04T10:30:49Z</time>
      </trkpt>
      <trkpt lat="40.2129860" lon="-3.5704910">
        <ele>507.8</ele>
        <time>2021-04-04T10:30:50Z</time>
      </trkpt>
      <trkpt lat="40.2130360" lon="-3.5704770">
        <ele>507.8</ele>
        <time>2021-04-04T10:30:51Z</time>
      </trkpt>
      <trkpt lat="40.2130890" lon="-3.5704640">
        <ele>507.8</ele>
        <time>2021-04-04T10:30:52Z</time>
      </trkpt>
      <trkpt lat="40.2131420" lon="-3.5704540">
        <ele>507.8</ele>
        <time>2021-04-04T10:30:53Z</time>
      </trkpt>
      <trkpt lat="40.2132030" lon="-3.5704430">
        <ele>507.8</ele>
        <time>2021-04-04T10:30:54Z</time>
      </trkpt>
      <trkpt lat="40.2132610" lon="-3.5704290">
        <ele>507.8</ele>
        <time>2021-04-04T10:30:55Z</time>
      </trkpt>
      <trkpt lat="40.2133140" lon="-3.5704110">
        <ele>507.8</ele>
        <time>2021-04-04T10:30:56Z</time>
      </trkpt>
      <trkpt lat="40.2133670" lon="-3.5703930">
        <ele>507.8</ele>
        <time>2021-04-04T10:30:57Z</time>
      </trkpt>
      <trkpt lat="40.2134210" lon="-3.5703770">
        <ele>507.8</ele>
        <time>2021-04-04T10:30:58Z</time>
      </trkpt>
      <trkpt lat="40.2134780" lon="-3.5703690">
        <ele>507.8</ele>
        <time>2021-04-04T10:30:59Z</time>
      </trkpt>
      <trkpt lat="40.2135350" lon="-3.5703770">
        <ele>507.8</ele>
        <time>2021-04-04T10:31:00Z</time>
      </trkpt>
      <trkpt lat="40.2135810" lon="-3.5703930">
        <ele>507.8</ele>
        <time>2021-04-04T10:31:01Z</time>
      </trkpt>
      <trkpt lat="40.2136270" lon="-3.5704060">
        <ele>507.8</ele>
        <time>2021-04-04T10:31:02Z</time>
      </trkpt>
      <trkpt lat="40.2136730" lon="-3.5704100">
        <ele>507.8</ele>
        <time>2021-04-04T10:31:03Z</time>
      </trkpt>
      <trkpt lat="40.2137220" lon="-3.5704020">
        <ele>507.8</ele>
        <time>2021-04-04T10:31:04Z</time>
      </trkpt>
      <trkpt lat="40.2137720" lon="-3.5703890">
        <ele>507.8</ele>
        <time>2021-04-04T10:31:05Z</time>
      </trkpt>
      <trkpt lat="40.2138180" lon="-3.5703760">
        <ele>507.8</ele>
        <time>2021-04-04T10:31:06Z</time>
      </trkpt>
      <trkpt lat="40.2138630" lon="-3.5703660">
        <ele>508.0</ele>
        <time>2021-04-04T10:31:07Z</time>
      </trkpt>
      <trkpt lat="40.2139090" lon="-3.5703530">
        <ele>508.0</ele>
        <time>2021-04-04T10:31:08Z</time>
      </trkpt>
      <trkpt lat="40.2139630" lon="-3.5703340">
        <ele>508.0</ele>
        <time>2021-04-04T10:31:09Z</time>
      </trkpt>
      <trkpt lat="40.2140080" lon="-3.5703150">
        <ele>508.0</ele>
        <time>2021-04-04T10:31:10Z</time>
      </trkpt>
      <trkpt lat="40.2140580" lon="-3.5702950">
        <ele>508.0</ele>
        <time>2021-04-04T10:31:11Z</time>
      </trkpt>
      <trkpt lat="40.2141110" lon="-3.5702720">
        <ele>508.0</ele>
        <time>2021-04-04T10:31:12Z</time>
      </trkpt>
      <trkpt lat="40.2141570" lon="-3.5702480">
        <ele>508.0</ele>
        <time>2021-04-04T10:31:13Z</time>
      </trkpt>
      <trkpt lat="40.2142070" lon="-3.5702220">
        <ele>508.0</ele>
        <time>2021-04-04T10:31:14Z</time>
      </trkpt>
      <trkpt lat="40.2142560" lon="-3.5701970">
        <ele>508.0</ele>
        <time>2021-04-04T10:31:15Z</time>
      </trkpt>
      <trkpt lat="40.2143060" lon="-3.5701690">
        <ele>508.0</ele>
        <time>2021-04-04T10:31:16Z</time>
      </trkpt>
      <trkpt lat="40.2143550" lon="-3.5701410">
        <ele>507.8</ele>
        <time>2021-04-04T10:31:17Z</time>
      </trkpt>
      <trkpt lat="40.2144050" lon="-3.5701120">
        <ele>507.8</ele>
        <time>2021-04-04T10:31:18Z</time>
      </trkpt>
      <trkpt lat="40.2144550" lon="-3.5700830">
        <ele>507.8</ele>
        <time>2021-04-04T10:31:19Z</time>
      </trkpt>
      <trkpt lat="40.2145080" lon="-3.5700540">
        <ele>507.8</ele>
        <time>2021-04-04T10:31:20Z</time>
      </trkpt>
      <trkpt lat="40.2145580" lon="-3.5700240">
        <ele>507.8</ele>
        <time>2021-04-04T10:31:21Z</time>
      </trkpt>
      <trkpt lat="40.2146070" lon="-3.5699980">
        <ele>507.8</ele>
        <time>2021-04-04T10:31:22Z</time>
      </trkpt>
      <trkpt lat="40.2146570" lon="-3.5699720">
        <ele>507.8</ele>
        <time>2021-04-04T10:31:23Z</time>
      </trkpt>
      <trkpt lat="40.2147030" lon="-3.5699450">
        <ele>507.8</ele>
        <time>2021-04-04T10:31:24Z</time>
      </trkpt>
      <trkpt lat="40.2147520" lon="-3.5699200">
        <ele>507.8</ele>
        <time>2021-04-04T10:31:25Z</time>
      </trkpt>
      <trkpt lat="40.2148020" lon="-3.5698970">
        <ele>507.8</ele>
        <time>2021-04-04T10:31:26Z</time>
      </trkpt>
      <trkpt lat="40.2148440" lon="-3.5698750">
        <ele>507.8</ele>
        <time>2021-04-04T10:31:27Z</time>
      </trkpt>
      <trkpt lat="40.2148860" lon="-3.5698510">
        <ele>508.0</ele>
        <time>2021-04-04T10:31:28Z</time>
      </trkpt>
      <trkpt lat="40.2149310" lon="-3.5698280">
        <ele>508.0</ele>
        <time>2021-04-04T10:31:29Z</time>
      </trkpt>
      <trkpt lat="40.2149730" lon="-3.5698020">
        <ele>508.0</ele>
        <time>2021-04-04T10:31:30Z</time>
      </trkpt>
      <trkpt lat="40.2150190" lon="-3.5697760">
        <ele>507.8</ele>
        <time>2021-04-04T10:31:31Z</time>
      </trkpt>
      <trkpt lat="40.2150650" lon="-3.5697530">
        <ele>508.0</ele>
        <time>2021-04-04T10:31:32Z</time>
      </trkpt>
      <trkpt lat="40.2151070" lon="-3.5697310">
        <ele>508.0</ele>
        <time>2021-04-04T10:31:33Z</time>
      </trkpt>
      <trkpt lat="40.2151530" lon="-3.5697070">
        <ele>508.0</ele>
        <time>2021-04-04T10:31:34Z</time>
      </trkpt>
      <trkpt lat="40.2152020" lon="-3.5696850">
        <ele>508.0</ele>
        <time>2021-04-04T10:31:35Z</time>
      </trkpt>
      <trkpt lat="40.2152480" lon="-3.5696640">
        <ele>508.0</ele>
        <time>2021-04-04T10:31:36Z</time>
      </trkpt>
      <trkpt lat="40.2152980" lon="-3.5696420">
        <ele>508.0</ele>
        <time>2021-04-04T10:31:37Z</time>
      </trkpt>
      <trkpt lat="40.2153430" lon="-3.5696220">
        <ele>508.0</ele>
        <time>2021-04-04T10:31:38Z</time>
      </trkpt>
      <trkpt lat="40.2153970" lon="-3.5696060">
        <ele>508.0</ele>
        <time>2021-04-04T10:31:39Z</time>
      </trkpt>
      <trkpt lat="40.2154460" lon="-3.5695920">
        <ele>508.0</ele>
        <time>2021-04-04T10:31:40Z</time>
      </trkpt>
      <trkpt lat="40.2154960" lon="-3.5695780">
        <ele>508.0</ele>
        <time>2021-04-04T10:31:41Z</time>
      </trkpt>
      <trkpt lat="40.2155490" lon="-3.5695680">
        <ele>508.0</ele>
        <time>2021-04-04T10:31:42Z</time>
      </trkpt>
      <trkpt lat="40.2156030" lon="-3.5695630">
        <ele>508.0</ele>
        <time>2021-04-04T10:31:43Z</time>
      </trkpt>
      <trkpt lat="40.2156560" lon="-3.5695630">
        <ele>507.8</ele>
        <time>2021-04-04T10:31:44Z</time>
      </trkpt>
      <trkpt lat="40.2157060" lon="-3.5695630">
        <ele>507.8</ele>
        <time>2021-04-04T10:31:45Z</time>
      </trkpt>
      <trkpt lat="40.2157590" lon="-3.5695630">
        <ele>507.8</ele>
        <time>2021-04-04T10:31:46Z</time>
      </trkpt>
      <trkpt lat="40.2158130" lon="-3.5695650">
        <ele>507.8</ele>
        <time>2021-04-04T10:31:47Z</time>
      </trkpt>
      <trkpt lat="40.2158620" lon="-3.5695700">
        <ele>507.8</ele>
        <time>2021-04-04T10:31:48Z</time>
      </trkpt>
      <trkpt lat="40.2159160" lon="-3.5695760">
        <ele>507.8</ele>
        <time>2021-04-04T10:31:49Z</time>
      </trkpt>
      <trkpt lat="40.2159690" lon="-3.5695860">
        <ele>507.8</ele>
        <time>2021-04-04T10:31:50Z</time>
      </trkpt>
      <trkpt lat="40.2160190" lon="-3.5695950">
        <ele>507.8</ele>
        <time>2021-04-04T10:31:51Z</time>
      </trkpt>
      <trkpt lat="40.2160720" lon="-3.5696040">
        <ele>507.8</ele>
        <time>2021-04-04T10:31:52Z</time>
      </trkpt>
      <trkpt lat="40.2161220" lon="-3.5696140">
        <ele>507.8</ele>
        <time>2021-04-04T10:31:53Z</time>
      </trkpt>
      <trkpt lat="40.2161750" lon="-3.5696240">
        <ele>507.8</ele>
        <time>2021-04-04T10:31:54Z</time>
      </trkpt>
      <trkpt lat="40.2162290" lon="-3.5696360">
        <ele>507.8</ele>
        <time>2021-04-04T10:31:55Z</time>
      </trkpt>
      <trkpt lat="40.2162780" lon="-3.5696470">
        <ele>507.8</ele>
        <time>2021-04-04T10:31:56Z</time>
      </trkpt>
      <trkpt lat="40.2163320" lon="-3.5696580">
        <ele>507.8</ele>
        <time>2021-04-04T10:31:57Z</time>
      </trkpt>
      <trkpt lat="40.2163850" lon="-3.5696680">
        <ele>507.6</ele>
        <time>2021-04-04T10:31:58Z</time>
      </trkpt>
      <trkpt lat="40.2164340" lon="-3.5696790">
        <ele>507.6</ele>
        <time>2021-04-04T10:31:59Z</time>
      </trkpt>
      <trkpt lat="40.2164880" lon="-3.5696910">
        <ele>507.6</ele>
        <time>2021-04-04T10:32:00Z</time>
      </trkpt>
      <trkpt lat="40.2165410" lon="-3.5697020">
        <ele>507.6</ele>
        <time>2021-04-04T10:32:01Z</time>
      </trkpt>
      <trkpt lat="40.2165980" lon="-3.5697120">
        <ele>507.6</ele>
        <time>2021-04-04T10:32:02Z</time>
      </trkpt>
      <trkpt lat="40.2166520" lon="-3.5697230">
        <ele>507.6</ele>
        <time>2021-04-04T10:32:03Z</time>
      </trkpt>
      <trkpt lat="40.2167050" lon="-3.5697340">
        <ele>507.6</ele>
        <time>2021-04-04T10:32:04Z</time>
      </trkpt>
      <trkpt lat="40.2167630" lon="-3.5697440">
        <ele>507.6</ele>
        <time>2021-04-04T10:32:05Z</time>
      </trkpt>
      <trkpt lat="40.2168160" lon="-3.5697550">
        <ele>507.6</ele>
        <time>2021-04-04T10:32:06Z</time>
      </trkpt>
      <trkpt lat="40.2168690" lon="-3.5697670">
        <ele>507.6</ele>
        <time>2021-04-04T10:32:07Z</time>
      </trkpt>
      <trkpt lat="40.2169230" lon="-3.5697790">
        <ele>507.6</ele>
        <time>2021-04-04T10:32:08Z</time>
      </trkpt>
      <trkpt lat="40.2169760" lon="-3.5697900">
        <ele>507.6</ele>
        <time>2021-04-04T10:32:09Z</time>
      </trkpt>
      <trkpt lat="40.2170300" lon="-3.5698010">
        <ele>507.6</ele>
        <time>2021-04-04T10:32:10Z</time>
      </trkpt>
      <trkpt lat="40.2170830" lon="-3.5698130">
        <ele>507.6</ele>
        <time>2021-04-04T10:32:11Z</time>
      </trkpt>
      <trkpt lat="40.2171400" lon="-3.5698240">
        <ele>507.8</ele>
        <time>2021-04-04T10:32:12Z</time>
      </trkpt>
      <trkpt lat="40.2171940" lon="-3.5698340">
        <ele>507.8</ele>
        <time>2021-04-04T10:32:13Z</time>
      </trkpt>
      <trkpt lat="40.2172470" lon="-3.5698450">
        <ele>507.8</ele>
        <time>2021-04-04T10:32:14Z</time>
      </trkpt>
      <trkpt lat="40.2173000" lon="-3.5698560">
        <ele>507.8</ele>
        <time>2021-04-04T10:32:15Z</time>
      </trkpt>
      <trkpt lat="40.2173540" lon="-3.5698680">
        <ele>507.8</ele>
        <time>2021-04-04T10:32:16Z</time>
      </trkpt>
      <trkpt lat="40.2174030" lon="-3.5698810">
        <ele>508.0</ele>
        <time>2021-04-04T10:32:17Z</time>
      </trkpt>
      <trkpt lat="40.2174530" lon="-3.5698940">
        <ele>508.0</ele>
        <time>2021-04-04T10:32:18Z</time>
      </trkpt>
      <trkpt lat="40.2175060" lon="-3.5699080">
        <ele>508.0</ele>
        <time>2021-04-04T10:32:19Z</time>
      </trkpt>
      <trkpt lat="40.2175560" lon="-3.5699190">
        <ele>508.0</ele>
        <time>2021-04-04T10:32:20Z</time>
      </trkpt>
      <trkpt lat="40.2176090" lon="-3.5699310">
        <ele>508.0</ele>
        <time>2021-04-04T10:32:21Z</time>
      </trkpt>
      <trkpt lat="40.2176590" lon="-3.5699430">
        <ele>508.0</ele>
        <time>2021-04-04T10:32:22Z</time>
      </trkpt>
      <trkpt lat="40.2177120" lon="-3.5699570">
        <ele>508.0</ele>
        <time>2021-04-04T10:32:23Z</time>
      </trkpt>
      <trkpt lat="40.2177620" lon="-3.5699710">
        <ele>508.0</ele>
        <time>2021-04-04T10:32:24Z</time>
      </trkpt>
      <trkpt lat="40.2178120" lon="-3.5699870">
        <ele>508.0</ele>
        <time>2021-04-04T10:32:25Z</time>
      </trkpt>
      <trkpt lat="40.2178610" lon="-3.5700010">
        <ele>508.0</ele>
        <time>2021-04-04T10:32:26Z</time>
      </trkpt>
      <trkpt lat="40.2179070" lon="-3.5700150">
        <ele>508.0</ele>
        <time>2021-04-04T10:32:27Z</time>
      </trkpt>
      <trkpt lat="40.2179570" lon="-3.5700330">
        <ele>508.0</ele>
        <time>2021-04-04T10:32:28Z</time>
      </trkpt>
      <trkpt lat="40.2180100" lon="-3.5700520">
        <ele>508.0</ele>
        <time>2021-04-04T10:32:29Z</time>
      </trkpt>
      <trkpt lat="40.2180600" lon="-3.5700720">
        <ele>508.2</ele>
        <time>2021-04-04T10:32:30Z</time>
      </trkpt>
      <trkpt lat="40.2181090" lon="-3.5700900">
        <ele>508.2</ele>
        <time>2021-04-04T10:32:31Z</time>
      </trkpt>
      <trkpt lat="40.2181590" lon="-3.5701080">
        <ele>508.2</ele>
        <time>2021-04-04T10:32:32Z</time>
      </trkpt>
      <trkpt lat="40.2182050" lon="-3.5701270">
        <ele>508.2</ele>
        <time>2021-04-04T10:32:33Z</time>
      </trkpt>
      <trkpt lat="40.2182540" lon="-3.5701480">
        <ele>508.2</ele>
        <time>2021-04-04T10:32:34Z</time>
      </trkpt>
      <trkpt lat="40.2183000" lon="-3.5701700">
        <ele>508.2</ele>
        <time>2021-04-04T10:32:35Z</time>
      </trkpt>
      <trkpt lat="40.2183420" lon="-3.5701960">
        <ele>508.2</ele>
        <time>2021-04-04T10:32:36Z</time>
      </trkpt>
      <trkpt lat="40.2183840" lon="-3.5702310">
        <ele>508.4</ele>
        <time>2021-04-04T10:32:37Z</time>
      </trkpt>
      <trkpt lat="40.2184180" lon="-3.5702710">
        <ele>508.4</ele>
        <time>2021-04-04T10:32:38Z</time>
      </trkpt>
      <trkpt lat="40.2184450" lon="-3.5703190">
        <ele>508.4</ele>
        <time>2021-04-04T10:32:39Z</time>
      </trkpt>
      <trkpt lat="40.2184720" lon="-3.5703680">
        <ele>508.6</ele>
        <time>2021-04-04T10:32:40Z</time>
      </trkpt>
      <trkpt lat="40.2184940" lon="-3.5704140">
        <ele>508.8</ele>
        <time>2021-04-04T10:32:41Z</time>
      </trkpt>
      <trkpt lat="40.2185170" lon="-3.5704570">
        <ele>508.8</ele>
        <time>2021-04-04T10:32:42Z</time>
      </trkpt>
      <trkpt lat="40.2185440" lon="-3.5704980">
        <ele>508.8</ele>
        <time>2021-04-04T10:32:43Z</time>
      </trkpt>
      <trkpt lat="40.2185710" lon="-3.5705350">
        <ele>509.0</ele>
        <time>2021-04-04T10:32:44Z</time>
      </trkpt>
      <trkpt lat="40.2185970" lon="-3.5705690">
        <ele>509.0</ele>
        <time>2021-04-04T10:32:45Z</time>
      </trkpt>
      <trkpt lat="40.2186200" lon="-3.5706030">
        <ele>509.2</ele>
        <time>2021-04-04T10:32:46Z</time>
      </trkpt>
      <trkpt lat="40.2186360" lon="-3.5706380">
        <ele>509.2</ele>
        <time>2021-04-04T10:32:47Z</time>
      </trkpt>
      <trkpt lat="40.2186470" lon="-3.5706730">
        <ele>509.2</ele>
        <time>2021-04-04T10:32:48Z</time>
      </trkpt>
      <trkpt lat="40.2186550" lon="-3.5707060">
        <ele>509.4</ele>
        <time>2021-04-04T10:32:49Z</time>
      </trkpt>
      <trkpt lat="40.2186620" lon="-3.5707290">
        <ele>509.4</ele>
        <time>2021-04-04T10:32:50Z</time>
      </trkpt>
      <trkpt lat="40.2186740" lon="-3.5707450">
        <ele>509.4</ele>
        <time>2021-04-04T10:32:51Z</time>
      </trkpt>
      <trkpt lat="40.2186850" lon="-3.5707510">
        <ele>509.4</ele>
        <time>2021-04-04T10:32:52Z</time>
      </trkpt>
      <trkpt lat="40.2187040" lon="-3.5707440">
        <ele>509.6</ele>
        <time>2021-04-04T10:32:53Z</time>
      </trkpt>
      <trkpt lat="40.2187230" lon="-3.5707330">
        <ele>509.6</ele>
        <time>2021-04-04T10:32:54Z</time>
      </trkpt>
      <trkpt lat="40.2187390" lon="-3.5707240">
        <ele>509.6</ele>
        <time>2021-04-04T10:32:55Z</time>
      </trkpt>
      <trkpt lat="40.2187540" lon="-3.5707190">
        <ele>509.6</ele>
        <time>2021-04-04T10:32:56Z</time>
      </trkpt>
      <trkpt lat="40.2187650" lon="-3.5707210">
        <ele>509.6</ele>
        <time>2021-04-04T10:32:57Z</time>
      </trkpt>
      <trkpt lat="40.2187810" lon="-3.5707300">
        <ele>509.6</ele>
        <time>2021-04-04T10:32:58Z</time>
      </trkpt>
      <trkpt lat="40.2187920" lon="-3.5707510">
        <ele>509.8</ele>
        <time>2021-04-04T10:32:59Z</time>
      </trkpt>
      <trkpt lat="40.2188000" lon="-3.5707810">
        <ele>509.8</ele>
        <time>2021-04-04T10:33:00Z</time>
      </trkpt>
      <trkpt lat="40.2188030" lon="-3.5708160">
        <ele>509.8</ele>
        <time>2021-04-04T10:33:01Z</time>
      </trkpt>
      <trkpt lat="40.2188070" lon="-3.5708520">
        <ele>509.8</ele>
        <time>2021-04-04T10:33:02Z</time>
      </trkpt>
      <trkpt lat="40.2188110" lon="-3.5708900">
        <ele>510.0</ele>
        <time>2021-04-04T10:33:03Z</time>
      </trkpt>
      <trkpt lat="40.2188150" lon="-3.5709310">
        <ele>510.0</ele>
        <time>2021-04-04T10:33:04Z</time>
      </trkpt>
      <trkpt lat="40.2188150" lon="-3.5709680">
        <ele>510.2</ele>
        <time>2021-04-04T10:33:05Z</time>
      </trkpt>
      <trkpt lat="40.2188150" lon="-3.5710040">
        <ele>510.2</ele>
        <time>2021-04-04T10:33:06Z</time>
      </trkpt>
      <trkpt lat="40.2188110" lon="-3.5710400">
        <ele>510.2</ele>
        <time>2021-04-04T10:33:07Z</time>
      </trkpt>
      <trkpt lat="40.2188110" lon="-3.5710740">
        <ele>510.4</ele>
        <time>2021-04-04T10:33:08Z</time>
      </trkpt>
      <trkpt lat="40.2188110" lon="-3.5711100">
        <ele>510.4</ele>
        <time>2021-04-04T10:33:09Z</time>
      </trkpt>
      <trkpt lat="40.2188110" lon="-3.5711450">
        <ele>510.6</ele>
        <time>2021-04-04T10:33:10Z</time>
      </trkpt>
      <trkpt lat="40.2188110" lon="-3.5711800">
        <ele>510.6</ele>
        <time>2021-04-04T10:33:11Z</time>
      </trkpt>
      <trkpt lat="40.2188110" lon="-3.5712160">
        <ele>510.6</ele>
        <time>2021-04-04T10:33:12Z</time>
      </trkpt>
      <trkpt lat="40.2188070" lon="-3.5712540">
        <ele>510.8</ele>
        <time>2021-04-04T10:33:13Z</time>
      </trkpt>
      <trkpt lat="40.2188070" lon="-3.5712910">
        <ele>510.8</ele>
        <time>2021-04-04T10:33:14Z</time>
      </trkpt>
      <trkpt lat="40.2188030" lon="-3.5713310">
        <ele>510.8</ele>
        <time>2021-04-04T10:33:15Z</time>
      </trkpt>
      <trkpt lat="40.2188030" lon="-3.5713750">
        <ele>511.0</ele>
        <time>2021-04-04T10:33:16Z</time>
      </trkpt>
      <trkpt lat="40.2188110" lon="-3.5714200">
        <ele>511.0</ele>
        <time>2021-04-04T10:33:17Z</time>
      </trkpt>
      <trkpt lat="40.2188150" lon="-3.5714670">
        <ele>511.2</ele>
        <time>2021-04-04T10:33:18Z</time>
      </trkpt>
      <trkpt lat="40.2188150" lon="-3.5715180">
        <ele>511.4</ele>
        <time>2021-04-04T10:33:19Z</time>
      </trkpt>
      <trkpt lat="40.2188150" lon="-3.5715650">
        <ele>511.4</ele>
        <time>2021-04-04T10:33:20Z</time>
      </trkpt>
      <trkpt lat="40.2188110" lon="-3.5716120">
        <ele>511.6</ele>
        <time>2021-04-04T10:33:21Z</time>
      </trkpt>
      <trkpt lat="40.2188070" lon="-3.5716600">
        <ele>511.6</ele>
        <time>2021-04-04T10:33:22Z</time>
      </trkpt>
      <trkpt lat="40.2188070" lon="-3.5717090">
        <ele>511.8</ele>
        <time>2021-04-04T10:33:23Z</time>
      </trkpt>
      <trkpt lat="40.2188070" lon="-3.5717590">
        <ele>512.0</ele>
        <time>2021-04-04T10:33:24Z</time>
      </trkpt>
      <trkpt lat="40.2188070" lon="-3.5718080">
        <ele>512.0</ele>
        <time>2021-04-04T10:33:25Z</time>
      </trkpt>
      <trkpt lat="40.2188070" lon="-3.5718560">
        <ele>512.2</ele>
        <time>2021-04-04T10:33:26Z</time>
      </trkpt>
      <trkpt lat="40.2188030" lon="-3.5719030">
        <ele>512.4</ele>
        <time>2021-04-04T10:33:27Z</time>
      </trkpt>
      <trkpt lat="40.2188070" lon="-3.5719490">
        <ele>512.6</ele>
        <time>2021-04-04T10:33:28Z</time>
      </trkpt>
      <trkpt lat="40.2188070" lon="-3.5719970">
        <ele>513.0</ele>
        <time>2021-04-04T10:33:29Z</time>
      </trkpt>
      <trkpt lat="40.2188070" lon="-3.5720430">
        <ele>513.2</ele>
        <time>2021-04-04T10:33:30Z</time>
      </trkpt>
      <trkpt lat="40.2188070" lon="-3.5720880">
        <ele>513.4</ele>
        <time>2021-04-04T10:33:31Z</time>
      </trkpt>
      <trkpt lat="40.2188070" lon="-3.5721330">
        <ele>513.4</ele>
        <time>2021-04-04T10:33:32Z</time>
      </trkpt>
      <trkpt lat="40.2188070" lon="-3.5721750">
        <ele>513.2</ele>
        <time>2021-04-04T10:33:33Z</time>
      </trkpt>
      <trkpt lat="40.2188190" lon="-3.5722030">
        <ele>513.2</ele>
        <time>2021-04-04T10:33:34Z</time>
      </trkpt>
      <trkpt lat="40.2188490" lon="-3.5722060">
        <ele>513.0</ele>
        <time>2021-04-04T10:33:35Z</time>
      </trkpt>
      <trkpt lat="40.2188870" lon="-3.5721890">
        <ele>513.0</ele>
        <time>2021-04-04T10:33:36Z</time>
      </trkpt>
      <trkpt lat="40.2189250" lon="-3.5721620">
        <ele>512.8</ele>
        <time>2021-04-04T10:33:37Z</time>
      </trkpt>
      <trkpt lat="40.2189670" lon="-3.5721330">
        <ele>512.8</ele>
        <time>2021-04-04T10:33:38Z</time>
      </trkpt>
      <trkpt lat="40.2190090" lon="-3.5721030">
        <ele>512.6</ele>
        <time>2021-04-04T10:33:39Z</time>
      </trkpt>
      <trkpt lat="40.2190550" lon="-3.5720710">
        <ele>512.8</ele>
        <time>2021-04-04T10:33:40Z</time>
      </trkpt>
      <trkpt lat="40.2191010" lon="-3.5720400">
        <ele>512.8</ele>
        <time>2021-04-04T10:33:41Z</time>
      </trkpt>
      <trkpt lat="40.2191510" lon="-3.5720070">
        <ele>512.8</ele>
        <time>2021-04-04T10:33:42Z</time>
      </trkpt>
      <trkpt lat="40.2191930" lon="-3.5719720">
        <ele>513.0</ele>
        <time>2021-04-04T10:33:43Z</time>
      </trkpt>
      <trkpt lat="40.2192380" lon="-3.5719380">
        <ele>513.0</ele>
        <time>2021-04-04T10:33:44Z</time>
      </trkpt>
      <trkpt lat="40.2192880" lon="-3.5719040">
        <ele>513.0</ele>
        <time>2021-04-04T10:33:45Z</time>
      </trkpt>
      <trkpt lat="40.2193340" lon="-3.5718710">
        <ele>512.8</ele>
        <time>2021-04-04T10:33:46Z</time>
      </trkpt>
      <trkpt lat="40.2193760" lon="-3.5718400">
        <ele>512.6</ele>
        <time>2021-04-04T10:33:47Z</time>
      </trkpt>
      <trkpt lat="40.2194210" lon="-3.5718130">
        <ele>512.6</ele>
        <time>2021-04-04T10:33:48Z</time>
      </trkpt>
      <trkpt lat="40.2194670" lon="-3.5717880">
        <ele>512.4</ele>
        <time>2021-04-04T10:33:49Z</time>
      </trkpt>
      <trkpt lat="40.2195170" lon="-3.5717610">
        <ele>512.4</ele>
        <time>2021-04-04T10:33:50Z</time>
      </trkpt>
      <trkpt lat="40.2195660" lon="-3.5717320">
        <ele>512.4</ele>
        <time>2021-04-04T10:33:51Z</time>
      </trkpt>
      <trkpt lat="40.2196160" lon="-3.5717040">
        <ele>512.4</ele>
        <time>2021-04-04T10:33:52Z</time>
      </trkpt>
      <trkpt lat="40.2196660" lon="-3.5716750">
        <ele>512.4</ele>
        <time>2021-04-04T10:33:53Z</time>
      </trkpt>
      <trkpt lat="40.2197150" lon="-3.5716440">
        <ele>512.4</ele>
        <time>2021-04-04T10:33:54Z</time>
      </trkpt>
      <trkpt lat="40.2197650" lon="-3.5716110">
        <ele>512.2</ele>
        <time>2021-04-04T10:33:55Z</time>
      </trkpt>
      <trkpt lat="40.2198140" lon="-3.5715770">
        <ele>512.2</ele>
        <time>2021-04-04T10:33:56Z</time>
      </trkpt>
      <trkpt lat="40.2198720" lon="-3.5715430">
        <ele>512.2</ele>
        <time>2021-04-04T10:33:57Z</time>
      </trkpt>
      <trkpt lat="40.2199250" lon="-3.5715080">
        <ele>512.2</ele>
        <time>2021-04-04T10:33:58Z</time>
      </trkpt>
      <trkpt lat="40.2199820" lon="-3.5714690">
        <ele>512.2</ele>
        <time>2021-04-04T10:33:59Z</time>
      </trkpt>
      <trkpt lat="40.2200430" lon="-3.5714250">
        <ele>512.2</ele>
        <time>2021-04-04T10:34:00Z</time>
      </trkpt>
      <trkpt lat="40.2201080" lon="-3.5713790">
        <ele>512.2</ele>
        <time>2021-04-04T10:34:01Z</time>
      </trkpt>
      <trkpt lat="40.2201730" lon="-3.5713310">
        <ele>512.0</ele>
        <time>2021-04-04T10:34:02Z</time>
      </trkpt>
      <trkpt lat="40.2202380" lon="-3.5712800">
        <ele>512.0</ele>
        <time>2021-04-04T10:34:03Z</time>
      </trkpt>
      <trkpt lat="40.2203060" lon="-3.5712310">
        <ele>512.0</ele>
        <time>2021-04-04T10:34:04Z</time>
      </trkpt>
      <trkpt lat="40.2203790" lon="-3.5711780">
        <ele>512.0</ele>
        <time>2021-04-04T10:34:05Z</time>
      </trkpt>
      <trkpt lat="40.2204480" lon="-3.5711290">
        <ele>512.0</ele>
        <time>2021-04-04T10:34:06Z</time>
      </trkpt>
      <trkpt lat="40.2205160" lon="-3.5710810">
        <ele>512.0</ele>
        <time>2021-04-04T10:34:07Z</time>
      </trkpt>
      <trkpt lat="40.2205810" lon="-3.5710380">
        <ele>512.0</ele>
        <time>2021-04-04T10:34:08Z</time>
      </trkpt>
      <trkpt lat="40.2206380" lon="-3.5709980">
        <ele>512.0</ele>
        <time>2021-04-04T10:34:09Z</time>
      </trkpt>
      <trkpt lat="40.2206920" lon="-3.5709660">
        <ele>512.0</ele>
        <time>2021-04-04T10:34:10Z</time>
      </trkpt>
      <trkpt lat="40.2207340" lon="-3.5709460">
        <ele>512.2</ele>
        <time>2021-04-04T10:34:11Z</time>
      </trkpt>
      <trkpt lat="40.2207680" lon="-3.5709390">
        <ele>512.4</ele>
        <time>2021-04-04T10:34:12Z</time>
      </trkpt>
      <trkpt lat="40.2207950" lon="-3.5709380">
        <ele>512.4</ele>
        <time>2021-04-04T10:34:13Z</time>
      </trkpt>
      <trkpt lat="40.2208460" lon="-3.5708970">
        <ele>512.6</ele>
        <time>2021-04-04T10:34:14Z</time>
      </trkpt>
      <trkpt lat="40.2208830" lon="-3.5708600">
        <ele>512.6</ele>
        <time>2021-04-04T10:34:15Z</time>
      </trkpt>
      <trkpt lat="40.2209190" lon="-3.5708230">
        <ele>513.0</ele>
        <time>2021-04-04T10:41:11Z</time>
      </trkpt>
      <trkpt lat="40.2209550" lon="-3.5707860">
        <ele>513.0</ele>
        <time>2021-04-04T10:41:12Z</time>
      </trkpt>
      <trkpt lat="40.2209970" lon="-3.5707660">
        <ele>513.0</ele>
        <time>2021-04-04T10:41:13Z</time>
      </trkpt>
      <trkpt lat="40.2210430" lon="-3.5707440">
        <ele>512.8</ele>
        <time>2021-04-04T10:41:14Z</time>
      </trkpt>
      <trkpt lat="40.2210920" lon="-3.5707180">
        <ele>512.8</ele>
        <time>2021-04-04T10:41:15Z</time>
      </trkpt>
      <trkpt lat="40.2211340" lon="-3.5706910">
        <ele>512.8</ele>
        <time>2021-04-04T10:41:16Z</time>
      </trkpt>
      <trkpt lat="40.2211800" lon="-3.5706630">
        <ele>512.8</ele>
        <time>2021-04-04T10:41:17Z</time>
      </trkpt>
      <trkpt lat="40.2212260" lon="-3.5706370">
        <ele>512.6</ele>
        <time>2021-04-04T10:41:18Z</time>
      </trkpt>
      <trkpt lat="40.2212710" lon="-3.5706110">
        <ele>512.6</ele>
        <time>2021-04-04T10:41:19Z</time>
      </trkpt>
      <trkpt lat="40.2213170" lon="-3.5705830">
        <ele>512.6</ele>
        <time>2021-04-04T10:41:20Z</time>
      </trkpt>
      <trkpt lat="40.2213630" lon="-3.5705560">
        <ele>512.4</ele>
        <time>2021-04-04T10:41:21Z</time>
      </trkpt>
      <trkpt lat="40.2214050" lon="-3.5705320">
        <ele>512.4</ele>
        <time>2021-04-04T10:41:22Z</time>
      </trkpt>
      <trkpt lat="40.2214470" lon="-3.5705060">
        <ele>512.2</ele>
        <time>2021-04-04T10:41:23Z</time>
      </trkpt>
      <trkpt lat="40.2214890" lon="-3.5704770">
        <ele>512.4</ele>
        <time>2021-04-04T10:41:24Z</time>
      </trkpt>
      <trkpt lat="40.2215310" lon="-3.5704480">
        <ele>512.4</ele>
        <time>2021-04-04T10:41:25Z</time>
      </trkpt>
      <trkpt lat="40.2215730" lon="-3.5704200">
        <ele>512.4</ele>
        <time>2021-04-04T10:41:26Z</time>
      </trkpt>
      <trkpt lat="40.2216150" lon="-3.5703950">
        <ele>512.4</ele>
        <time>2021-04-04T10:41:27Z</time>
      </trkpt>
      <trkpt lat="40.2216570" lon="-3.5703710">
        <ele>512.4</ele>
        <time>2021-04-04T10:41:28Z</time>
      </trkpt>
      <trkpt lat="40.2216990" lon="-3.5703490">
        <ele>512.4</ele>
        <time>2021-04-04T10:41:29Z</time>
      </trkpt>
      <trkpt lat="40.2217410" lon="-3.5703270">
        <ele>512.4</ele>
        <time>2021-04-04T10:41:30Z</time>
      </trkpt>
      <trkpt lat="40.2217830" lon="-3.5703040">
        <ele>512.4</ele>
        <time>2021-04-04T10:41:31Z</time>
      </trkpt>
      <trkpt lat="40.2218250" lon="-3.5702810">
        <ele>512.4</ele>
        <time>2021-04-04T10:41:32Z</time>
      </trkpt>
      <trkpt lat="40.2218630" lon="-3.5702570">
        <ele>512.4</ele>
        <time>2021-04-04T10:41:33Z</time>
      </trkpt>
      <trkpt lat="40.2219050" lon="-3.5702330">
        <ele>512.4</ele>
        <time>2021-04-04T10:41:34Z</time>
      </trkpt>
      <trkpt lat="40.2219430" lon="-3.5702070">
        <ele>512.4</ele>
        <time>2021-04-04T10:41:35Z</time>
      </trkpt>
      <trkpt lat="40.2219850" lon="-3.5701830">
        <ele>512.4</ele>
        <time>2021-04-04T10:41:36Z</time>
      </trkpt>
      <trkpt lat="40.2220230" lon="-3.5701600">
        <ele>512.2</ele>
        <time>2021-04-04T10:41:37Z</time>
      </trkpt>
      <trkpt lat="40.2220650" lon="-3.5701410">
        <ele>512.2</ele>
        <time>2021-04-04T10:41:38Z</time>
      </trkpt>
      <trkpt lat="40.2221030" lon="-3.5701230">
        <ele>512.4</ele>
        <time>2021-04-04T10:41:39Z</time>
      </trkpt>
      <trkpt lat="40.2221450" lon="-3.5701020">
        <ele>512.4</ele>
        <time>2021-04-04T10:41:40Z</time>
      </trkpt>
      <trkpt lat="40.2221830" lon="-3.5700840">
        <ele>512.4</ele>
        <time>2021-04-04T10:41:41Z</time>
      </trkpt>
      <trkpt lat="40.2222210" lon="-3.5700670">
        <ele>512.4</ele>
        <time>2021-04-04T10:41:42Z</time>
      </trkpt>
      <trkpt lat="40.2222560" lon="-3.5700500">
        <ele>512.4</ele>
        <time>2021-04-04T10:41:43Z</time>
      </trkpt>
      <trkpt lat="40.2222900" lon="-3.5700300">
        <ele>512.4</ele>
        <time>2021-04-04T10:41:44Z</time>
      </trkpt>
      <trkpt lat="40.2223280" lon="-3.5700100">
        <ele>512.4</ele>
        <time>2021-04-04T10:41:45Z</time>
      </trkpt>
      <trkpt lat="40.2223630" lon="-3.5699910">
        <ele>512.4</ele>
        <time>2021-04-04T10:41:46Z</time>
      </trkpt>
      <trkpt lat="40.2223970" lon="-3.5699710">
        <ele>512.4</ele>
        <time>2021-04-04T10:41:47Z</time>
      </trkpt>
      <trkpt lat="40.2224310" lon="-3.5699470">
        <ele>512.4</ele>
        <time>2021-04-04T10:41:48Z</time>
      </trkpt>
      <trkpt lat="40.2224650" lon="-3.5699230">
        <ele>512.4</ele>
        <time>2021-04-04T10:41:49Z</time>
      </trkpt>
      <trkpt lat="40.2225040" lon="-3.5698980">
        <ele>512.4</ele>
        <time>2021-04-04T10:41:50Z</time>
      </trkpt>
      <trkpt lat="40.2225420" lon="-3.5698750">
        <ele>512.2</ele>
        <time>2021-04-04T10:41:51Z</time>
      </trkpt>
      <trkpt lat="40.2225800" lon="-3.5698500">
        <ele>512.2</ele>
        <time>2021-04-04T10:41:52Z</time>
      </trkpt>
      <trkpt lat="40.2226180" lon="-3.5698260">
        <ele>512.2</ele>
        <time>2021-04-04T10:41:53Z</time>
      </trkpt>
      <trkpt lat="40.2226520" lon="-3.5698020">
        <ele>512.2</ele>
        <time>2021-04-04T10:41:54Z</time>
      </trkpt>
      <trkpt lat="40.2226910" lon="-3.5697800">
        <ele>512.2</ele>
        <time>2021-04-04T10:41:55Z</time>
      </trkpt>
      <trkpt lat="40.2227250" lon="-3.5697570">
        <ele>512.2</ele>
        <time>2021-04-04T10:41:56Z</time>
      </trkpt>
      <trkpt lat="40.2227550" lon="-3.5697320">
        <ele>512.2</ele>
        <time>2021-04-04T10:41:57Z</time>
      </trkpt>
      <trkpt lat="40.2227900" lon="-3.5697060">
        <ele>512.2</ele>
        <time>2021-04-04T10:41:58Z</time>
      </trkpt>
      <trkpt lat="40.2228240" lon="-3.5696790">
        <ele>512.2</ele>
        <time>2021-04-04T10:41:59Z</time>
      </trkpt>
      <trkpt lat="40.2228620" lon="-3.5696520">
        <ele>512.2</ele>
        <time>2021-04-04T10:42:00Z</time>
      </trkpt>
      <trkpt lat="40.2229000" lon="-3.5696270">
        <ele>512.4</ele>
        <time>2021-04-04T10:42:01Z</time>
      </trkpt>
      <trkpt lat="40.2229390" lon="-3.5696030">
        <ele>512.4</ele>
        <time>2021-04-04T10:42:02Z</time>
      </trkpt>
      <trkpt lat="40.2229800" lon="-3.5695790">
        <ele>512.4</ele>
        <time>2021-04-04T10:42:03Z</time>
      </trkpt>
      <trkpt lat="40.2230190" lon="-3.5695560">
        <ele>512.4</ele>
        <time>2021-04-04T10:42:04Z</time>
      </trkpt>
      <trkpt lat="40.2230570" lon="-3.5695340">
        <ele>512.4</ele>
        <time>2021-04-04T10:42:05Z</time>
      </trkpt>
      <trkpt lat="40.2230990" lon="-3.5695120">
        <ele>512.4</ele>
        <time>2021-04-04T10:42:06Z</time>
      </trkpt>
      <trkpt lat="40.2231370" lon="-3.5694900">
        <ele>512.4</ele>
        <time>2021-04-04T10:42:07Z</time>
      </trkpt>
      <trkpt lat="40.2231750" lon="-3.5694690">
        <ele>512.6</ele>
        <time>2021-04-04T10:42:08Z</time>
      </trkpt>
      <trkpt lat="40.2232130" lon="-3.5694480">
        <ele>512.6</ele>
        <time>2021-04-04T10:42:09Z</time>
      </trkpt>
      <trkpt lat="40.2232550" lon="-3.5694260">
        <ele>512.6</ele>
        <time>2021-04-04T10:42:10Z</time>
      </trkpt>
      <trkpt lat="40.2232930" lon="-3.5694020">
        <ele>512.6</ele>
        <time>2021-04-04T10:42:11Z</time>
      </trkpt>
      <trkpt lat="40.2233310" lon="-3.5693760">
        <ele>512.6</ele>
        <time>2021-04-04T10:42:12Z</time>
      </trkpt>
      <trkpt lat="40.2233730" lon="-3.5693480">
        <ele>512.6</ele>
        <time>2021-04-04T10:42:13Z</time>
      </trkpt>
      <trkpt lat="40.2234150" lon="-3.5693230">
        <ele>512.6</ele>
        <time>2021-04-04T10:42:14Z</time>
      </trkpt>
      <trkpt lat="40.2234540" lon="-3.5692990">
        <ele>512.6</ele>
        <time>2021-04-04T10:42:15Z</time>
      </trkpt>
      <trkpt lat="40.2234990" lon="-3.5692720">
        <ele>512.6</ele>
        <time>2021-04-04T10:42:16Z</time>
      </trkpt>
      <trkpt lat="40.2235410" lon="-3.5692480">
        <ele>512.4</ele>
        <time>2021-04-04T10:42:17Z</time>
      </trkpt>
      <trkpt lat="40.2235830" lon="-3.5692230">
        <ele>512.4</ele>
        <time>2021-04-04T10:42:18Z</time>
      </trkpt>
      <trkpt lat="40.2236250" lon="-3.5691970">
        <ele>512.4</ele>
        <time>2021-04-04T10:42:19Z</time>
      </trkpt>
      <trkpt lat="40.2236630" lon="-3.5691700">
        <ele>512.4</ele>
        <time>2021-04-04T10:42:20Z</time>
      </trkpt>
      <trkpt lat="40.2237050" lon="-3.5691440">
        <ele>512.4</ele>
        <time>2021-04-04T10:42:21Z</time>
      </trkpt>
      <trkpt lat="40.2237470" lon="-3.5691190">
        <ele>512.4</ele>
        <time>2021-04-04T10:42:22Z</time>
      </trkpt>
      <trkpt lat="40.2237890" lon="-3.5690930">
        <ele>512.4</ele>
        <time>2021-04-04T10:42:23Z</time>
      </trkpt>
      <trkpt lat="40.2238310" lon="-3.5690680">
        <ele>512.4</ele>
        <time>2021-04-04T10:42:24Z</time>
      </trkpt>
      <trkpt lat="40.2238730" lon="-3.5690430">
        <ele>512.4</ele>
        <time>2021-04-04T10:42:25Z</time>
      </trkpt>
      <trkpt lat="40.2239150" lon="-3.5690150">
        <ele>512.4</ele>
        <time>2021-04-04T10:42:26Z</time>
      </trkpt>
      <trkpt lat="40.2239570" lon="-3.5689880">
        <ele>512.4</ele>
        <time>2021-04-04T10:42:27Z</time>
      </trkpt>
      <trkpt lat="40.2239950" lon="-3.5689590">
        <ele>512.4</ele>
        <time>2021-04-04T10:42:28Z</time>
      </trkpt>
      <trkpt lat="40.2240370" lon="-3.5689300">
        <ele>512.4</ele>
        <time>2021-04-04T10:42:29Z</time>
      </trkpt>
      <trkpt lat="40.2240750" lon="-3.5689020">
        <ele>512.4</ele>
        <time>2021-04-04T10:42:30Z</time>
      </trkpt>
      <trkpt lat="40.2241170" lon="-3.5688740">
        <ele>512.4</ele>
        <time>2021-04-04T10:42:31Z</time>
      </trkpt>
      <trkpt lat="40.2241630" lon="-3.5688500">
        <ele>512.4</ele>
        <time>2021-04-04T10:42:32Z</time>
      </trkpt>
      <trkpt lat="40.2242050" lon="-3.5688230">
        <ele>512.4</ele>
        <time>2021-04-04T10:42:33Z</time>
      </trkpt>
      <trkpt lat="40.2242430" lon="-3.5687960">
        <ele>512.4</ele>
        <time>2021-04-04T10:42:34Z</time>
      </trkpt>
      <trkpt lat="40.2242810" lon="-3.5687700">
        <ele>512.4</ele>
        <time>2021-04-04T10:42:35Z</time>
      </trkpt>
      <trkpt lat="40.2243190" lon="-3.5687400">
        <ele>512.4</ele>
        <time>2021-04-04T10:42:36Z</time>
      </trkpt>
      <trkpt lat="40.2243610" lon="-3.5687120">
        <ele>512.4</ele>
        <time>2021-04-04T10:42:37Z</time>
      </trkpt>
      <trkpt lat="40.2244030" lon="-3.5686840">
        <ele>512.4</ele>
        <time>2021-04-04T10:42:38Z</time>
      </trkpt>
      <trkpt lat="40.2244420" lon="-3.5686570">
        <ele>512.2</ele>
        <time>2021-04-04T10:42:39Z</time>
      </trkpt>
      <trkpt lat="40.2244800" lon="-3.5686360">
        <ele>512.2</ele>
        <time>2021-04-04T10:42:40Z</time>
      </trkpt>
      <trkpt lat="40.2245220" lon="-3.5686140">
        <ele>512.2</ele>
        <time>2021-04-04T10:42:41Z</time>
      </trkpt>
      <trkpt lat="40.2245670" lon="-3.5685850">
        <ele>512.2</ele>
        <time>2021-04-04T10:42:42Z</time>
      </trkpt>
      <trkpt lat="40.2246090" lon="-3.5685560">
        <ele>512.2</ele>
        <time>2021-04-04T10:42:43Z</time>
      </trkpt>
      <trkpt lat="40.2246550" lon="-3.5685280">
        <ele>512.2</ele>
        <time>2021-04-04T10:42:44Z</time>
      </trkpt>
      <trkpt lat="40.2246970" lon="-3.5685000">
        <ele>512.2</ele>
        <time>2021-04-04T10:42:45Z</time>
      </trkpt>
      <trkpt lat="40.2247430" lon="-3.5684680">
        <ele>512.2</ele>
        <time>2021-04-04T10:42:46Z</time>
      </trkpt>
      <trkpt lat="40.2247850" lon="-3.5684400">
        <ele>512.0</ele>
        <time>2021-04-04T10:42:47Z</time>
      </trkpt>
      <trkpt lat="40.2248270" lon="-3.5684130">
        <ele>512.2</ele>
        <time>2021-04-04T10:42:48Z</time>
      </trkpt>
      <trkpt lat="40.2248730" lon="-3.5683850">
        <ele>512.2</ele>
        <time>2021-04-04T10:42:49Z</time>
      </trkpt>
      <trkpt lat="40.2249150" lon="-3.5683550">
        <ele>512.2</ele>
        <time>2021-04-04T10:42:50Z</time>
      </trkpt>
      <trkpt lat="40.2249490" lon="-3.5683250">
        <ele>512.2</ele>
        <time>2021-04-04T10:42:51Z</time>
      </trkpt>
      <trkpt lat="40.2249870" lon="-3.5683000">
        <ele>512.2</ele>
        <time>2021-04-04T10:42:52Z</time>
      </trkpt>
      <trkpt lat="40.2250250" lon="-3.5682770">
        <ele>512.2</ele>
        <time>2021-04-04T10:42:53Z</time>
      </trkpt>
      <trkpt lat="40.2250670" lon="-3.5682540">
        <ele>512.0</ele>
        <time>2021-04-04T10:42:54Z</time>
      </trkpt>
      <trkpt lat="40.2251130" lon="-3.5682280">
        <ele>512.0</ele>
        <time>2021-04-04T10:42:55Z</time>
      </trkpt>
      <trkpt lat="40.2251590" lon="-3.5681990">
        <ele>512.0</ele>
        <time>2021-04-04T10:42:56Z</time>
      </trkpt>
      <trkpt lat="40.2252040" lon="-3.5681700">
        <ele>512.2</ele>
        <time>2021-04-04T10:42:57Z</time>
      </trkpt>
      <trkpt lat="40.2252500" lon="-3.5681450">
        <ele>512.2</ele>
        <time>2021-04-04T10:42:58Z</time>
      </trkpt>
      <trkpt lat="40.2252920" lon="-3.5681230">
        <ele>512.2</ele>
        <time>2021-04-04T10:42:59Z</time>
      </trkpt>
      <trkpt lat="40.2253380" lon="-3.5680990">
        <ele>512.2</ele>
        <time>2021-04-04T10:43:00Z</time>
      </trkpt>
      <trkpt lat="40.2253840" lon="-3.5680710">
        <ele>512.2</ele>
        <time>2021-04-04T10:43:01Z</time>
      </trkpt>
      <trkpt lat="40.2254300" lon="-3.5680430">
        <ele>512.2</ele>
        <time>2021-04-04T10:43:02Z</time>
      </trkpt>
      <trkpt lat="40.2254750" lon="-3.5680130">
        <ele>512.2</ele>
        <time>2021-04-04T10:43:03Z</time>
      </trkpt>
      <trkpt lat="40.2255210" lon="-3.5679850">
        <ele>512.0</ele>
        <time>2021-04-04T10:43:04Z</time>
      </trkpt>
      <trkpt lat="40.2255670" lon="-3.5679590">
        <ele>512.2</ele>
        <time>2021-04-04T10:43:05Z</time>
      </trkpt>
      <trkpt lat="40.2256200" lon="-3.5679320">
        <ele>512.0</ele>
        <time>2021-04-04T10:43:06Z</time>
      </trkpt>
      <trkpt lat="40.2256660" lon="-3.5679060">
        <ele>512.0</ele>
        <time>2021-04-04T10:43:07Z</time>
      </trkpt>
      <trkpt lat="40.2257120" lon="-3.5678780">
        <ele>512.0</ele>
        <time>2021-04-04T10:43:08Z</time>
      </trkpt>
      <trkpt lat="40.2257580" lon="-3.5678510">
        <ele>512.2</ele>
        <time>2021-04-04T10:43:09Z</time>
      </trkpt>
      <trkpt lat="40.2258030" lon="-3.5678250">
        <ele>512.2</ele>
        <time>2021-04-04T10:43:10Z</time>
      </trkpt>
      <trkpt lat="40.2258490" lon="-3.5677960">
        <ele>512.4</ele>
        <time>2021-04-04T10:43:11Z</time>
      </trkpt>
      <trkpt lat="40.2258950" lon="-3.5677690">
        <ele>512.4</ele>
        <time>2021-04-04T10:43:12Z</time>
      </trkpt>
      <trkpt lat="40.2259450" lon="-3.5677410">
        <ele>512.4</ele>
        <time>2021-04-04T10:43:13Z</time>
      </trkpt>
      <trkpt lat="40.2259860" lon="-3.5677140">
        <ele>512.4</ele>
        <time>2021-04-04T10:43:14Z</time>
      </trkpt>
      <trkpt lat="40.2260320" lon="-3.5676900">
        <ele>512.4</ele>
        <time>2021-04-04T10:43:15Z</time>
      </trkpt>
      <trkpt lat="40.2260820" lon="-3.5676620">
        <ele>512.4</ele>
        <time>2021-04-04T10:43:16Z</time>
      </trkpt>
      <trkpt lat="40.2261280" lon="-3.5676320">
        <ele>512.4</ele>
        <time>2021-04-04T10:43:17Z</time>
      </trkpt>
      <trkpt lat="40.2261700" lon="-3.5676000">
        <ele>512.4</ele>
        <time>2021-04-04T10:43:18Z</time>
      </trkpt>
      <trkpt lat="40.2262120" lon="-3.5675700">
        <ele>512.4</ele>
        <time>2021-04-04T10:43:19Z</time>
      </trkpt>
      <trkpt lat="40.2262570" lon="-3.5675420">
        <ele>512.4</ele>
        <time>2021-04-04T10:43:20Z</time>
      </trkpt>
      <trkpt lat="40.2263070" lon="-3.5675120">
        <ele>512.4</ele>
        <time>2021-04-04T10:43:21Z</time>
      </trkpt>
      <trkpt lat="40.2263570" lon="-3.5674850">
        <ele>512.4</ele>
        <time>2021-04-04T10:43:22Z</time>
      </trkpt>
      <trkpt lat="40.2264020" lon="-3.5674590">
        <ele>512.4</ele>
        <time>2021-04-04T10:43:23Z</time>
      </trkpt>
      <trkpt lat="40.2264480" lon="-3.5674340">
        <ele>512.4</ele>
        <time>2021-04-04T10:43:24Z</time>
      </trkpt>
      <trkpt lat="40.2264980" lon="-3.5674070">
        <ele>512.4</ele>
        <time>2021-04-04T10:43:25Z</time>
      </trkpt>
      <trkpt lat="40.2265430" lon="-3.5673790">
        <ele>512.4</ele>
        <time>2021-04-04T10:43:26Z</time>
      </trkpt>
      <trkpt lat="40.2265890" lon="-3.5673510">
        <ele>512.2</ele>
        <time>2021-04-04T10:43:27Z</time>
      </trkpt>
      <trkpt lat="40.2266390" lon="-3.5673230">
        <ele>512.2</ele>
        <time>2021-04-04T10:43:28Z</time>
      </trkpt>
      <trkpt lat="40.2266850" lon="-3.5672970">
        <ele>512.2</ele>
        <time>2021-04-04T10:43:29Z</time>
      </trkpt>
      <trkpt lat="40.2267300" lon="-3.5672710">
        <ele>512.4</ele>
        <time>2021-04-04T10:43:30Z</time>
      </trkpt>
      <trkpt lat="40.2267800" lon="-3.5672440">
        <ele>512.4</ele>
        <time>2021-04-04T10:43:31Z</time>
      </trkpt>
      <trkpt lat="40.2268260" lon="-3.5672150">
        <ele>512.4</ele>
        <time>2021-04-04T10:43:32Z</time>
      </trkpt>
      <trkpt lat="40.2268720" lon="-3.5671850">
        <ele>512.4</ele>
        <time>2021-04-04T10:43:33Z</time>
      </trkpt>
      <trkpt lat="40.2269170" lon="-3.5671580">
        <ele>512.4</ele>
        <time>2021-04-04T10:43:34Z</time>
      </trkpt>
      <trkpt lat="40.2269630" lon="-3.5671340">
        <ele>512.4</ele>
        <time>2021-04-04T10:43:35Z</time>
      </trkpt>
      <trkpt lat="40.2270160" lon="-3.5671070">
        <ele>512.4</ele>
        <time>2021-04-04T10:43:36Z</time>
      </trkpt>
      <trkpt lat="40.2270660" lon="-3.5670790">
        <ele>512.4</ele>
        <time>2021-04-04T10:43:37Z</time>
      </trkpt>
      <trkpt lat="40.2271160" lon="-3.5670520">
        <ele>512.2</ele>
        <time>2021-04-04T10:43:38Z</time>
      </trkpt>
      <trkpt lat="40.2271650" lon="-3.5670260">
        <ele>512.2</ele>
        <time>2021-04-04T10:43:39Z</time>
      </trkpt>
      <trkpt lat="40.2272110" lon="-3.5670010">
        <ele>512.2</ele>
        <time>2021-04-04T10:43:40Z</time>
      </trkpt>
      <trkpt lat="40.2272610" lon="-3.5669740">
        <ele>512.2</ele>
        <time>2021-04-04T10:43:41Z</time>
      </trkpt>
      <trkpt lat="40.2273100" lon="-3.5669470">
        <ele>512.2</ele>
        <time>2021-04-04T10:43:42Z</time>
      </trkpt>
      <trkpt lat="40.2273600" lon="-3.5669200">
        <ele>512.2</ele>
        <time>2021-04-04T10:43:43Z</time>
      </trkpt>
      <trkpt lat="40.2274060" lon="-3.5668930">
        <ele>512.2</ele>
        <time>2021-04-04T10:43:44Z</time>
      </trkpt>
      <trkpt lat="40.2274510" lon="-3.5668630">
        <ele>512.2</ele>
        <time>2021-04-04T10:43:45Z</time>
      </trkpt>
      <trkpt lat="40.2275050" lon="-3.5668330">
        <ele>512.2</ele>
        <time>2021-04-04T10:43:46Z</time>
      </trkpt>
      <trkpt lat="40.2275540" lon="-3.5668070">
        <ele>512.2</ele>
        <time>2021-04-04T10:43:47Z</time>
      </trkpt>
      <trkpt lat="40.2276040" lon="-3.5667830">
        <ele>512.2</ele>
        <time>2021-04-04T10:43:48Z</time>
      </trkpt>
      <trkpt lat="40.2276540" lon="-3.5667580">
        <ele>512.4</ele>
        <time>2021-04-04T10:43:49Z</time>
      </trkpt>
      <trkpt lat="40.2277030" lon="-3.5667320">
        <ele>512.4</ele>
        <time>2021-04-04T10:43:50Z</time>
      </trkpt>
      <trkpt lat="40.2277530" lon="-3.5667050">
        <ele>512.4</ele>
        <time>2021-04-04T10:43:51Z</time>
      </trkpt>
      <trkpt lat="40.2278020" lon="-3.5666800">
        <ele>512.4</ele>
        <time>2021-04-04T10:43:52Z</time>
      </trkpt>
      <trkpt lat="40.2278520" lon="-3.5666560">
        <ele>512.4</ele>
        <time>2021-04-04T10:43:53Z</time>
      </trkpt>
      <trkpt lat="40.2278980" lon="-3.5666320">
        <ele>512.4</ele>
        <time>2021-04-04T10:43:54Z</time>
      </trkpt>
      <trkpt lat="40.2279430" lon="-3.5666070">
        <ele>512.4</ele>
        <time>2021-04-04T10:43:55Z</time>
      </trkpt>
      <trkpt lat="40.2279930" lon="-3.5665820">
        <ele>512.4</ele>
        <time>2021-04-04T10:43:56Z</time>
      </trkpt>
      <trkpt lat="40.2280430" lon="-3.5665570">
        <ele>512.4</ele>
        <time>2021-04-04T10:43:57Z</time>
      </trkpt>
      <trkpt lat="40.2280920" lon="-3.5665300">
        <ele>512.4</ele>
        <time>2021-04-04T10:43:58Z</time>
      </trkpt>
      <trkpt lat="40.2281380" lon="-3.5665030">
        <ele>512.4</ele>
        <time>2021-04-04T10:43:59Z</time>
      </trkpt>
      <trkpt lat="40.2281840" lon="-3.5664760">
        <ele>512.4</ele>
        <time>2021-04-04T10:44:00Z</time>
      </trkpt>
      <trkpt lat="40.2282300" lon="-3.5664480">
        <ele>512.4</ele>
        <time>2021-04-04T10:44:01Z</time>
      </trkpt>
      <trkpt lat="40.2282680" lon="-3.5664250">
        <ele>512.4</ele>
        <time>2021-04-04T10:44:02Z</time>
      </trkpt>
      <trkpt lat="40.2283290" lon="-3.5663850">
        <ele>512.4</ele>
        <time>2021-04-04T10:44:03Z</time>
      </trkpt>
      <trkpt lat="40.2283710" lon="-3.5663530">
        <ele>512.4</ele>
        <time>2021-04-04T10:44:04Z</time>
      </trkpt>
      <trkpt lat="40.2284160" lon="-3.5663200">
        <ele>512.4</ele>
        <time>2021-04-04T10:44:05Z</time>
      </trkpt>
      <trkpt lat="40.2284660" lon="-3.5662870">
        <ele>512.2</ele>
        <time>2021-04-04T10:44:06Z</time>
      </trkpt>
      <trkpt lat="40.2285160" lon="-3.5662560">
        <ele>512.2</ele>
        <time>2021-04-04T10:44:07Z</time>
      </trkpt>
      <trkpt lat="40.2285650" lon="-3.5662260">
        <ele>512.2</ele>
        <time>2021-04-04T10:44:08Z</time>
      </trkpt>
      <trkpt lat="40.2286110" lon="-3.5661980">
        <ele>512.4</ele>
        <time>2021-04-04T10:44:09Z</time>
      </trkpt>
      <trkpt lat="40.2286610" lon="-3.5661700">
        <ele>512.4</ele>
        <time>2021-04-04T10:44:10Z</time>
      </trkpt>
      <trkpt lat="40.2287100" lon="-3.5661430">
        <ele>512.4</ele>
        <time>2021-04-04T10:44:11Z</time>
      </trkpt>
      <trkpt lat="40.2287560" lon="-3.5661160">
        <ele>512.4</ele>
        <time>2021-04-04T10:44:12Z</time>
      </trkpt>
      <trkpt lat="40.2288020" lon="-3.5660880">
        <ele>512.4</ele>
        <time>2021-04-04T10:44:13Z</time>
      </trkpt>
      <trkpt lat="40.2288480" lon="-3.5660620">
        <ele>512.2</ele>
        <time>2021-04-04T10:44:14Z</time>
      </trkpt>
      <trkpt lat="40.2288970" lon="-3.5660390">
        <ele>512.2</ele>
        <time>2021-04-04T10:44:15Z</time>
      </trkpt>
      <trkpt lat="40.2289470" lon="-3.5660140">
        <ele>512.2</ele>
        <time>2021-04-04T10:44:16Z</time>
      </trkpt>
      <trkpt lat="40.2289960" lon="-3.5659870">
        <ele>512.2</ele>
        <time>2021-04-04T10:44:17Z</time>
      </trkpt>
      <trkpt lat="40.2290460" lon="-3.5659580">
        <ele>512.2</ele>
        <time>2021-04-04T10:44:18Z</time>
      </trkpt>
      <trkpt lat="40.2290880" lon="-3.5659310">
        <ele>512.2</ele>
        <time>2021-04-04T10:44:19Z</time>
      </trkpt>
      <trkpt lat="40.2291340" lon="-3.5659030">
        <ele>512.2</ele>
        <time>2021-04-04T10:44:20Z</time>
      </trkpt>
      <trkpt lat="40.2291830" lon="-3.5658720">
        <ele>512.2</ele>
        <time>2021-04-04T10:44:21Z</time>
      </trkpt>
      <trkpt lat="40.2292250" lon="-3.5658420">
        <ele>512.2</ele>
        <time>2021-04-04T10:44:22Z</time>
      </trkpt>
      <trkpt lat="40.2292750" lon="-3.5658130">
        <ele>512.2</ele>
        <time>2021-04-04T10:44:23Z</time>
      </trkpt>
      <trkpt lat="40.2293170" lon="-3.5657890">
        <ele>512.2</ele>
        <time>2021-04-04T10:44:24Z</time>
      </trkpt>
      <trkpt lat="40.2293660" lon="-3.5657670">
        <ele>512.2</ele>
        <time>2021-04-04T10:44:25Z</time>
      </trkpt>
      <trkpt lat="40.2294200" lon="-3.5657430">
        <ele>512.2</ele>
        <time>2021-04-04T10:44:26Z</time>
      </trkpt>
      <trkpt lat="40.2294650" lon="-3.5657180">
        <ele>512.2</ele>
        <time>2021-04-04T10:44:27Z</time>
      </trkpt>
      <trkpt lat="40.2295150" lon="-3.5656920">
        <ele>512.2</ele>
        <time>2021-04-04T10:44:28Z</time>
      </trkpt>
      <trkpt lat="40.2295610" lon="-3.5656720">
        <ele>512.2</ele>
        <time>2021-04-04T10:44:29Z</time>
      </trkpt>
      <trkpt lat="40.2296070" lon="-3.5656530">
        <ele>512.2</ele>
        <time>2021-04-04T10:44:30Z</time>
      </trkpt>
      <trkpt lat="40.2296600" lon="-3.5656270">
        <ele>512.2</ele>
        <time>2021-04-04T10:44:31Z</time>
      </trkpt>
      <trkpt lat="40.2297060" lon="-3.5656010">
        <ele>512.2</ele>
        <time>2021-04-04T10:44:32Z</time>
      </trkpt>
      <trkpt lat="40.2297520" lon="-3.5655720">
        <ele>512.2</ele>
        <time>2021-04-04T10:44:33Z</time>
      </trkpt>
      <trkpt lat="40.2297970" lon="-3.5655400">
        <ele>512.2</ele>
        <time>2021-04-04T10:44:34Z</time>
      </trkpt>
      <trkpt lat="40.2298430" lon="-3.5655080">
        <ele>512.2</ele>
        <time>2021-04-04T10:44:35Z</time>
      </trkpt>
      <trkpt lat="40.2298930" lon="-3.5654780">
        <ele>512.2</ele>
        <time>2021-04-04T10:44:36Z</time>
      </trkpt>
      <trkpt lat="40.2299390" lon="-3.5654520">
        <ele>512.2</ele>
        <time>2021-04-04T10:44:37Z</time>
      </trkpt>
      <trkpt lat="40.2299880" lon="-3.5654310">
        <ele>512.2</ele>
        <time>2021-04-04T10:44:38Z</time>
      </trkpt>
      <trkpt lat="40.2300410" lon="-3.5654130">
        <ele>512.2</ele>
        <time>2021-04-04T10:44:39Z</time>
      </trkpt>
      <trkpt lat="40.2300910" lon="-3.5653920">
        <ele>512.2</ele>
        <time>2021-04-04T10:44:40Z</time>
      </trkpt>
      <trkpt lat="40.2301410" lon="-3.5653690">
        <ele>512.2</ele>
        <time>2021-04-04T10:44:41Z</time>
      </trkpt>
      <trkpt lat="40.2301940" lon="-3.5653470">
        <ele>512.0</ele>
        <time>2021-04-04T10:44:42Z</time>
      </trkpt>
      <trkpt lat="40.2302470" lon="-3.5653250">
        <ele>512.0</ele>
        <time>2021-04-04T10:44:43Z</time>
      </trkpt>
      <trkpt lat="40.2302970" lon="-3.5653010">
        <ele>512.0</ele>
        <time>2021-04-04T10:44:44Z</time>
      </trkpt>
      <trkpt lat="40.2303470" lon="-3.5652750">
        <ele>512.0</ele>
        <time>2021-04-04T10:44:45Z</time>
      </trkpt>
      <trkpt lat="40.2303960" lon="-3.5652460">
        <ele>512.0</ele>
        <time>2021-04-04T10:44:46Z</time>
      </trkpt>
      <trkpt lat="40.2304420" lon="-3.5652190">
        <ele>512.0</ele>
        <time>2021-04-04T10:44:47Z</time>
      </trkpt>
      <trkpt lat="40.2304920" lon="-3.5651950">
        <ele>512.0</ele>
        <time>2021-04-04T10:44:48Z</time>
      </trkpt>
      <trkpt lat="40.2305410" lon="-3.5651710">
        <ele>512.0</ele>
        <time>2021-04-04T10:44:49Z</time>
      </trkpt>
      <trkpt lat="40.2305910" lon="-3.5651470">
        <ele>512.2</ele>
        <time>2021-04-04T10:44:50Z</time>
      </trkpt>
      <trkpt lat="40.2306400" lon="-3.5651200">
        <ele>512.2</ele>
        <time>2021-04-04T10:44:51Z</time>
      </trkpt>
      <trkpt lat="40.2306900" lon="-3.5650890">
        <ele>512.2</ele>
        <time>2021-04-04T10:44:52Z</time>
      </trkpt>
      <trkpt lat="40.2307320" lon="-3.5650550">
        <ele>512.2</ele>
        <time>2021-04-04T10:44:53Z</time>
      </trkpt>
      <trkpt lat="40.2307780" lon="-3.5650220">
        <ele>512.2</ele>
        <time>2021-04-04T10:44:54Z</time>
      </trkpt>
      <trkpt lat="40.2308200" lon="-3.5649920">
        <ele>512.2</ele>
        <time>2021-04-04T10:44:55Z</time>
      </trkpt>
      <trkpt lat="40.2308730" lon="-3.5649650">
        <ele>512.2</ele>
        <time>2021-04-04T10:44:56Z</time>
      </trkpt>
      <trkpt lat="40.2309230" lon="-3.5649430">
        <ele>512.2</ele>
        <time>2021-04-04T10:44:57Z</time>
      </trkpt>
      <trkpt lat="40.2309690" lon="-3.5649190">
        <ele>512.2</ele>
        <time>2021-04-04T10:44:58Z</time>
      </trkpt>
      <trkpt lat="40.2310140" lon="-3.5648940">
        <ele>512.2</ele>
        <time>2021-04-04T10:44:59Z</time>
      </trkpt>
      <trkpt lat="40.2310600" lon="-3.5648690">
        <ele>512.2</ele>
        <time>2021-04-04T10:45:00Z</time>
      </trkpt>
      <trkpt lat="40.2311100" lon="-3.5648420">
        <ele>512.4</ele>
        <time>2021-04-04T10:45:01Z</time>
      </trkpt>
      <trkpt lat="40.2311520" lon="-3.5648150">
        <ele>512.4</ele>
        <time>2021-04-04T10:45:02Z</time>
      </trkpt>
      <trkpt lat="40.2312010" lon="-3.5647900">
        <ele>512.4</ele>
        <time>2021-04-04T10:45:03Z</time>
      </trkpt>
      <trkpt lat="40.2312470" lon="-3.5647670">
        <ele>512.4</ele>
        <time>2021-04-04T10:45:04Z</time>
      </trkpt>
      <trkpt lat="40.2312930" lon="-3.5647440">
        <ele>512.4</ele>
        <time>2021-04-04T10:45:05Z</time>
      </trkpt>
      <trkpt lat="40.2313460" lon="-3.5647220">
        <ele>512.4</ele>
        <time>2021-04-04T10:45:06Z</time>
      </trkpt>
      <trkpt lat="40.2313920" lon="-3.5647040">
        <ele>512.4</ele>
        <time>2021-04-04T10:45:07Z</time>
      </trkpt>
      <trkpt lat="40.2314380" lon="-3.5646850">
        <ele>512.4</ele>
        <time>2021-04-04T10:45:08Z</time>
      </trkpt>
      <trkpt lat="40.2314830" lon="-3.5646610">
        <ele>512.4</ele>
        <time>2021-04-04T10:45:09Z</time>
      </trkpt>
      <trkpt lat="40.2315290" lon="-3.5646370">
        <ele>512.4</ele>
        <time>2021-04-04T10:45:10Z</time>
      </trkpt>
      <trkpt lat="40.2315790" lon="-3.5646120">
        <ele>512.4</ele>
        <time>2021-04-04T10:45:11Z</time>
      </trkpt>
      <trkpt lat="40.2316250" lon="-3.5645880">
        <ele>512.2</ele>
        <time>2021-04-04T10:45:12Z</time>
      </trkpt>
      <trkpt lat="40.2316740" lon="-3.5645640">
        <ele>512.2</ele>
        <time>2021-04-04T10:45:13Z</time>
      </trkpt>
      <trkpt lat="40.2317200" lon="-3.5645390">
        <ele>512.2</ele>
        <time>2021-04-04T10:45:14Z</time>
      </trkpt>
      <trkpt lat="40.2317660" lon="-3.5645130">
        <ele>512.2</ele>
        <time>2021-04-04T10:45:15Z</time>
      </trkpt>
      <trkpt lat="40.2318150" lon="-3.5644840">
        <ele>512.2</ele>
        <time>2021-04-04T10:45:16Z</time>
      </trkpt>
      <trkpt lat="40.2318610" lon="-3.5644560">
        <ele>512.4</ele>
        <time>2021-04-04T10:45:17Z</time>
      </trkpt>
      <trkpt lat="40.2319070" lon="-3.5644270">
        <ele>512.4</ele>
        <time>2021-04-04T10:45:18Z</time>
      </trkpt>
      <trkpt lat="40.2319560" lon="-3.5643980">
        <ele>512.4</ele>
        <time>2021-04-04T10:45:19Z</time>
      </trkpt>
      <trkpt lat="40.2320020" lon="-3.5643690">
        <ele>512.4</ele>
        <time>2021-04-04T10:45:20Z</time>
      </trkpt>
      <trkpt lat="40.2320480" lon="-3.5643380">
        <ele>512.4</ele>
        <time>2021-04-04T10:45:21Z</time>
      </trkpt>
      <trkpt lat="40.2320980" lon="-3.5643080">
        <ele>512.4</ele>
        <time>2021-04-04T10:45:22Z</time>
      </trkpt>
      <trkpt lat="40.2321470" lon="-3.5642790">
        <ele>512.4</ele>
        <time>2021-04-04T10:45:23Z</time>
      </trkpt>
      <trkpt lat="40.2321930" lon="-3.5642540">
        <ele>512.4</ele>
        <time>2021-04-04T10:45:24Z</time>
      </trkpt>
      <trkpt lat="40.2322390" lon="-3.5642260">
        <ele>512.4</ele>
        <time>2021-04-04T10:45:25Z</time>
      </trkpt>
      <trkpt lat="40.2322850" lon="-3.5641940">
        <ele>512.4</ele>
        <time>2021-04-04T10:45:26Z</time>
      </trkpt>
      <trkpt lat="40.2323340" lon="-3.5641640">
        <ele>512.4</ele>
        <time>2021-04-04T10:45:27Z</time>
      </trkpt>
      <trkpt lat="40.2323840" lon="-3.5641360">
        <ele>512.4</ele>
        <time>2021-04-04T10:45:28Z</time>
      </trkpt>
      <trkpt lat="40.2324330" lon="-3.5641120">
        <ele>512.4</ele>
        <time>2021-04-04T10:45:29Z</time>
      </trkpt>
      <trkpt lat="40.2324790" lon="-3.5640890">
        <ele>512.4</ele>
        <time>2021-04-04T10:45:30Z</time>
      </trkpt>
      <trkpt lat="40.2325320" lon="-3.5640600">
        <ele>512.4</ele>
        <time>2021-04-04T10:45:31Z</time>
      </trkpt>
      <trkpt lat="40.2325820" lon="-3.5640320">
        <ele>512.4</ele>
        <time>2021-04-04T10:45:32Z</time>
      </trkpt>
      <trkpt lat="40.2326320" lon="-3.5640020">
        <ele>512.4</ele>
        <time>2021-04-04T10:45:33Z</time>
      </trkpt>
      <trkpt lat="40.2326770" lon="-3.5639730">
        <ele>512.4</ele>
        <time>2021-04-04T10:45:34Z</time>
      </trkpt>
      <trkpt lat="40.2327230" lon="-3.5639440">
        <ele>512.6</ele>
        <time>2021-04-04T10:45:35Z</time>
      </trkpt>
      <trkpt lat="40.2327770" lon="-3.5639150">
        <ele>512.6</ele>
        <time>2021-04-04T10:45:36Z</time>
      </trkpt>
      <trkpt lat="40.2328260" lon="-3.5638900">
        <ele>512.6</ele>
        <time>2021-04-04T10:45:37Z</time>
      </trkpt>
      <trkpt lat="40.2328760" lon="-3.5638700">
        <ele>512.6</ele>
        <time>2021-04-04T10:45:38Z</time>
      </trkpt>
      <trkpt lat="40.2329290" lon="-3.5638480">
        <ele>512.4</ele>
        <time>2021-04-04T10:45:39Z</time>
      </trkpt>
      <trkpt lat="40.2329790" lon="-3.5638240">
        <ele>512.4</ele>
        <time>2021-04-04T10:45:40Z</time>
      </trkpt>
      <trkpt lat="40.2330280" lon="-3.5637970">
        <ele>512.4</ele>
        <time>2021-04-04T10:45:41Z</time>
      </trkpt>
      <trkpt lat="40.2330780" lon="-3.5637700">
        <ele>512.4</ele>
        <time>2021-04-04T10:45:42Z</time>
      </trkpt>
      <trkpt lat="40.2331280" lon="-3.5637430">
        <ele>512.4</ele>
        <time>2021-04-04T10:45:43Z</time>
      </trkpt>
      <trkpt lat="40.2331770" lon="-3.5637140">
        <ele>512.4</ele>
        <time>2021-04-04T10:45:44Z</time>
      </trkpt>
      <trkpt lat="40.2332230" lon="-3.5636860">
        <ele>512.4</ele>
        <time>2021-04-04T10:45:45Z</time>
      </trkpt>
      <trkpt lat="40.2332690" lon="-3.5636610">
        <ele>512.4</ele>
        <time>2021-04-04T10:45:46Z</time>
      </trkpt>
      <trkpt lat="40.2333150" lon="-3.5636420">
        <ele>512.4</ele>
        <time>2021-04-04T10:45:47Z</time>
      </trkpt>
      <trkpt lat="40.2333680" lon="-3.5636290">
        <ele>512.4</ele>
        <time>2021-04-04T10:45:48Z</time>
      </trkpt>
      <trkpt lat="40.2334180" lon="-3.5636120">
        <ele>512.4</ele>
        <time>2021-04-04T10:45:49Z</time>
      </trkpt>
      <trkpt lat="40.2334630" lon="-3.5635870">
        <ele>512.4</ele>
        <time>2021-04-04T10:45:50Z</time>
      </trkpt>
      <trkpt lat="40.2335170" lon="-3.5635570">
        <ele>512.4</ele>
        <time>2021-04-04T10:45:51Z</time>
      </trkpt>
      <trkpt lat="40.2335660" lon="-3.5635330">
        <ele>512.4</ele>
        <time>2021-04-04T10:45:52Z</time>
      </trkpt>
      <trkpt lat="40.2336160" lon="-3.5635090">
        <ele>512.4</ele>
        <time>2021-04-04T10:45:53Z</time>
      </trkpt>
      <trkpt lat="40.2336690" lon="-3.5634870">
        <ele>512.4</ele>
        <time>2021-04-04T10:45:54Z</time>
      </trkpt>
      <trkpt lat="40.2337190" lon="-3.5634660">
        <ele>512.4</ele>
        <time>2021-04-04T10:45:55Z</time>
      </trkpt>
      <trkpt lat="40.2337720" lon="-3.5634480">
        <ele>512.4</ele>
        <time>2021-04-04T10:45:56Z</time>
      </trkpt>
      <trkpt lat="40.2338220" lon="-3.5634310">
        <ele>512.4</ele>
        <time>2021-04-04T10:45:57Z</time>
      </trkpt>
      <trkpt lat="40.2338710" lon="-3.5634100">
        <ele>512.4</ele>
        <time>2021-04-04T10:45:58Z</time>
      </trkpt>
      <trkpt lat="40.2339210" lon="-3.5633880">
        <ele>512.4</ele>
        <time>2021-04-04T10:45:59Z</time>
      </trkpt>
      <trkpt lat="40.2339710" lon="-3.5633670">
        <ele>512.4</ele>
        <time>2021-04-04T10:46:00Z</time>
      </trkpt>
      <trkpt lat="40.2340200" lon="-3.5633430">
        <ele>512.4</ele>
        <time>2021-04-04T10:46:01Z</time>
      </trkpt>
      <trkpt lat="40.2340700" lon="-3.5633160">
        <ele>512.4</ele>
        <time>2021-04-04T10:46:02Z</time>
      </trkpt>
      <trkpt lat="40.2341190" lon="-3.5632870">
        <ele>512.4</ele>
        <time>2021-04-04T10:46:03Z</time>
      </trkpt>
      <trkpt lat="40.2341650" lon="-3.5632580">
        <ele>512.4</ele>
        <time>2021-04-04T10:46:04Z</time>
      </trkpt>
      <trkpt lat="40.2342150" lon="-3.5632310">
        <ele>512.4</ele>
        <time>2021-04-04T10:46:05Z</time>
      </trkpt>
      <trkpt lat="40.2342680" lon="-3.5632010">
        <ele>512.4</ele>
        <time>2021-04-04T10:46:06Z</time>
      </trkpt>
      <trkpt lat="40.2343180" lon="-3.5631750">
        <ele>512.4</ele>
        <time>2021-04-04T10:46:07Z</time>
      </trkpt>
      <trkpt lat="40.2343710" lon="-3.5631510">
        <ele>512.4</ele>
        <time>2021-04-04T10:46:08Z</time>
      </trkpt>
      <trkpt lat="40.2344170" lon="-3.5631300">
        <ele>512.4</ele>
        <time>2021-04-04T10:46:09Z</time>
      </trkpt>
      <trkpt lat="40.2344700" lon="-3.5631090">
        <ele>512.4</ele>
        <time>2021-04-04T10:46:10Z</time>
      </trkpt>
      <trkpt lat="40.2345240" lon="-3.5630840">
        <ele>512.4</ele>
        <time>2021-04-04T10:46:11Z</time>
      </trkpt>
      <trkpt lat="40.2345770" lon="-3.5630590">
        <ele>512.4</ele>
        <time>2021-04-04T10:46:12Z</time>
      </trkpt>
      <trkpt lat="40.2346230" lon="-3.5630340">
        <ele>512.4</ele>
        <time>2021-04-04T10:46:13Z</time>
      </trkpt>
      <trkpt lat="40.2346690" lon="-3.5630080">
        <ele>512.4</ele>
        <time>2021-04-04T10:46:14Z</time>
      </trkpt>
      <trkpt lat="40.2347180" lon="-3.5629790">
        <ele>512.4</ele>
        <time>2021-04-04T10:46:15Z</time>
      </trkpt>
      <trkpt lat="40.2347720" lon="-3.5629480">
        <ele>512.6</ele>
        <time>2021-04-04T10:46:16Z</time>
      </trkpt>
      <trkpt lat="40.2348170" lon="-3.5629200">
        <ele>512.6</ele>
        <time>2021-04-04T10:46:17Z</time>
      </trkpt>
      <trkpt lat="40.2348670" lon="-3.5628930">
        <ele>512.6</ele>
        <time>2021-04-04T10:46:18Z</time>
      </trkpt>
      <trkpt lat="40.2349130" lon="-3.5628660">
        <ele>512.8</ele>
        <time>2021-04-04T10:46:19Z</time>
      </trkpt>
      <trkpt lat="40.2349590" lon="-3.5628370">
        <ele>512.8</ele>
        <time>2021-04-04T10:46:20Z</time>
      </trkpt>
      <trkpt lat="40.2350120" lon="-3.5628080">
        <ele>512.8</ele>
        <time>2021-04-04T10:46:21Z</time>
      </trkpt>
      <trkpt lat="40.2350620" lon="-3.5627780">
        <ele>512.8</ele>
        <time>2021-04-04T10:46:22Z</time>
      </trkpt>
      <trkpt lat="40.2351070" lon="-3.5627470">
        <ele>512.8</ele>
        <time>2021-04-04T10:46:23Z</time>
      </trkpt>
      <trkpt lat="40.2351530" lon="-3.5627170">
        <ele>512.6</ele>
        <time>2021-04-04T10:46:24Z</time>
      </trkpt>
      <trkpt lat="40.2351990" lon="-3.5626860">
        <ele>512.6</ele>
        <time>2021-04-04T10:46:25Z</time>
      </trkpt>
      <trkpt lat="40.2352490" lon="-3.5626540">
        <ele>512.6</ele>
        <time>2021-04-04T10:46:26Z</time>
      </trkpt>
      <trkpt lat="40.2352940" lon="-3.5626250">
        <ele>512.6</ele>
        <time>2021-04-04T10:46:27Z</time>
      </trkpt>
      <trkpt lat="40.2353440" lon="-3.5625960">
        <ele>512.6</ele>
        <time>2021-04-04T10:46:28Z</time>
      </trkpt>
      <trkpt lat="40.2353860" lon="-3.5625680">
        <ele>512.6</ele>
        <time>2021-04-04T10:46:29Z</time>
      </trkpt>
      <trkpt lat="40.2354240" lon="-3.5625420">
        <ele>512.6</ele>
        <time>2021-04-04T10:46:30Z</time>
      </trkpt>
      <trkpt lat="40.2354620" lon="-3.5625150">
        <ele>512.8</ele>
        <time>2021-04-04T10:46:31Z</time>
      </trkpt>
      <trkpt lat="40.2355000" lon="-3.5624890">
        <ele>512.8</ele>
        <time>2021-04-04T10:46:32Z</time>
      </trkpt>
      <trkpt lat="40.2355350" lon="-3.5624610">
        <ele>512.8</ele>
        <time>2021-04-04T10:46:33Z</time>
      </trkpt>
      <trkpt lat="40.2355730" lon="-3.5624330">
        <ele>512.8</ele>
        <time>2021-04-04T10:46:34Z</time>
      </trkpt>
      <trkpt lat="40.2356150" lon="-3.5624060">
        <ele>512.8</ele>
        <time>2021-04-04T10:46:35Z</time>
      </trkpt>
      <trkpt lat="40.2356570" lon="-3.5623780">
        <ele>512.8</ele>
        <time>2021-04-04T10:46:36Z</time>
      </trkpt>
      <trkpt lat="40.2356990" lon="-3.5623500">
        <ele>512.8</ele>
        <time>2021-04-04T10:46:37Z</time>
      </trkpt>
      <trkpt lat="40.2357410" lon="-3.5623200">
        <ele>512.8</ele>
        <time>2021-04-04T10:46:38Z</time>
      </trkpt>
      <trkpt lat="40.2357860" lon="-3.5622890">
        <ele>512.8</ele>
        <time>2021-04-04T10:46:39Z</time>
      </trkpt>
      <trkpt lat="40.2358280" lon="-3.5622570">
        <ele>512.6</ele>
        <time>2021-04-04T10:46:40Z</time>
      </trkpt>
      <trkpt lat="40.2358740" lon="-3.5622260">
        <ele>512.6</ele>
        <time>2021-04-04T10:46:41Z</time>
      </trkpt>
      <trkpt lat="40.2359200" lon="-3.5621950">
        <ele>512.6</ele>
        <time>2021-04-04T10:46:42Z</time>
      </trkpt>
      <trkpt lat="40.2359660" lon="-3.5621640">
        <ele>512.4</ele>
        <time>2021-04-04T10:46:43Z</time>
      </trkpt>
      <trkpt lat="40.2360110" lon="-3.5621330">
        <ele>512.4</ele>
        <time>2021-04-04T10:46:44Z</time>
      </trkpt>
      <trkpt lat="40.2360570" lon="-3.5621000">
        <ele>512.4</ele>
        <time>2021-04-04T10:46:45Z</time>
      </trkpt>
      <trkpt lat="40.2361030" lon="-3.5620680">
        <ele>512.4</ele>
        <time>2021-04-04T10:46:46Z</time>
      </trkpt>
      <trkpt lat="40.2361490" lon="-3.5620370">
        <ele>512.4</ele>
        <time>2021-04-04T10:46:47Z</time>
      </trkpt>
      <trkpt lat="40.2361950" lon="-3.5620030">
        <ele>512.4</ele>
        <time>2021-04-04T10:46:48Z</time>
      </trkpt>
      <trkpt lat="40.2362400" lon="-3.5619660">
        <ele>512.4</ele>
        <time>2021-04-04T10:46:49Z</time>
      </trkpt>
      <trkpt lat="40.2362820" lon="-3.5619310">
        <ele>512.4</ele>
        <time>2021-04-04T10:46:50Z</time>
      </trkpt>
      <trkpt lat="40.2363280" lon="-3.5618980">
        <ele>512.4</ele>
        <time>2021-04-04T10:46:51Z</time>
      </trkpt>
      <trkpt lat="40.2363780" lon="-3.5618650">
        <ele>512.4</ele>
        <time>2021-04-04T10:46:52Z</time>
      </trkpt>
      <trkpt lat="40.2364200" lon="-3.5618350">
        <ele>512.4</ele>
        <time>2021-04-04T10:46:53Z</time>
      </trkpt>
      <trkpt lat="40.2364650" lon="-3.5618030">
        <ele>512.4</ele>
        <time>2021-04-04T10:46:54Z</time>
      </trkpt>
      <trkpt lat="40.2365110" lon="-3.5617730">
        <ele>512.4</ele>
        <time>2021-04-04T10:46:55Z</time>
      </trkpt>
      <trkpt lat="40.2365530" lon="-3.5617430">
        <ele>512.4</ele>
        <time>2021-04-04T10:46:56Z</time>
      </trkpt>
      <trkpt lat="40.2365990" lon="-3.5617110">
        <ele>512.4</ele>
        <time>2021-04-04T10:46:57Z</time>
      </trkpt>
      <trkpt lat="40.2366490" lon="-3.5616780">
        <ele>512.4</ele>
        <time>2021-04-04T10:46:58Z</time>
      </trkpt>
      <trkpt lat="40.2366940" lon="-3.5616460">
        <ele>512.4</ele>
        <time>2021-04-04T10:46:59Z</time>
      </trkpt>
      <trkpt lat="40.2367400" lon="-3.5616160">
        <ele>512.4</ele>
        <time>2021-04-04T10:47:00Z</time>
      </trkpt>
      <trkpt lat="40.2367860" lon="-3.5615850">
        <ele>512.4</ele>
        <time>2021-04-04T10:47:01Z</time>
      </trkpt>
      <trkpt lat="40.2368320" lon="-3.5615520">
        <ele>512.4</ele>
        <time>2021-04-04T10:47:02Z</time>
      </trkpt>
      <trkpt lat="40.2368810" lon="-3.5615200">
        <ele>512.4</ele>
        <time>2021-04-04T10:47:03Z</time>
      </trkpt>
      <trkpt lat="40.2369270" lon="-3.5614860">
        <ele>512.4</ele>
        <time>2021-04-04T10:47:04Z</time>
      </trkpt>
      <trkpt lat="40.2369690" lon="-3.5614530">
        <ele>512.4</ele>
        <time>2021-04-04T10:47:05Z</time>
      </trkpt>
      <trkpt lat="40.2370110" lon="-3.5614200">
        <ele>512.4</ele>
        <time>2021-04-04T10:47:06Z</time>
      </trkpt>
      <trkpt lat="40.2370570" lon="-3.5613840">
        <ele>512.4</ele>
        <time>2021-04-04T10:47:07Z</time>
      </trkpt>
      <trkpt lat="40.2371060" lon="-3.5613520">
        <ele>512.4</ele>
        <time>2021-04-04T10:47:08Z</time>
      </trkpt>
      <trkpt lat="40.2371520" lon="-3.5613220">
        <ele>512.4</ele>
        <time>2021-04-04T10:47:09Z</time>
      </trkpt>
      <trkpt lat="40.2372020" lon="-3.5613010">
        <ele>512.4</ele>
        <time>2021-04-04T10:47:10Z</time>
      </trkpt>
      <trkpt lat="40.2372510" lon="-3.5612920">
        <ele>512.4</ele>
        <time>2021-04-04T10:47:11Z</time>
      </trkpt>
      <trkpt lat="40.2373010" lon="-3.5612960">
        <ele>512.4</ele>
        <time>2021-04-04T10:47:12Z</time>
      </trkpt>
      <trkpt lat="40.2373470" lon="-3.5613170">
        <ele>512.4</ele>
        <time>2021-04-04T10:47:13Z</time>
      </trkpt>
      <trkpt lat="40.2373890" lon="-3.5613540">
        <ele>512.6</ele>
        <time>2021-04-04T10:47:14Z</time>
      </trkpt>
      <trkpt lat="40.2374230" lon="-3.5613970">
        <ele>512.6</ele>
        <time>2021-04-04T10:47:15Z</time>
      </trkpt>
      <trkpt lat="40.2374610" lon="-3.5614400">
        <ele>512.6</ele>
        <time>2021-04-04T10:47:16Z</time>
      </trkpt>
      <trkpt lat="40.2374950" lon="-3.5614830">
        <ele>512.6</ele>
        <time>2021-04-04T10:47:17Z</time>
      </trkpt>
      <trkpt lat="40.2375300" lon="-3.5615270">
        <ele>512.8</ele>
        <time>2021-04-04T10:47:18Z</time>
      </trkpt>
      <trkpt lat="40.2375640" lon="-3.5615680">
        <ele>512.6</ele>
        <time>2021-04-04T10:47:19Z</time>
      </trkpt>
      <trkpt lat="40.2375980" lon="-3.5616090">
        <ele>512.8</ele>
        <time>2021-04-04T10:47:20Z</time>
      </trkpt>
      <trkpt lat="40.2376330" lon="-3.5616520">
        <ele>512.8</ele>
        <time>2021-04-04T10:47:21Z</time>
      </trkpt>
      <trkpt lat="40.2376670" lon="-3.5616990">
        <ele>512.8</ele>
        <time>2021-04-04T10:47:22Z</time>
      </trkpt>
      <trkpt lat="40.2377010" lon="-3.5617450">
        <ele>512.8</ele>
        <time>2021-04-04T10:47:23Z</time>
      </trkpt>
      <trkpt lat="40.2377360" lon="-3.5617920">
        <ele>512.8</ele>
        <time>2021-04-04T10:47:24Z</time>
      </trkpt>
      <trkpt lat="40.2377740" lon="-3.5618380">
        <ele>512.8</ele>
        <time>2021-04-04T10:47:25Z</time>
      </trkpt>
      <trkpt lat="40.2378080" lon="-3.5618830">
        <ele>512.8</ele>
        <time>2021-04-04T10:47:26Z</time>
      </trkpt>
      <trkpt lat="40.2378430" lon="-3.5619330">
        <ele>512.8</ele>
        <time>2021-04-04T10:47:27Z</time>
      </trkpt>
      <trkpt lat="40.2378770" lon="-3.5619820">
        <ele>512.8</ele>
        <time>2021-04-04T10:47:28Z</time>
      </trkpt>
      <trkpt lat="40.2379150" lon="-3.5620310">
        <ele>512.8</ele>
        <time>2021-04-04T10:47:29Z</time>
      </trkpt>
      <trkpt lat="40.2379490" lon="-3.5620770">
        <ele>512.8</ele>
        <time>2021-04-04T10:47:30Z</time>
      </trkpt>
      <trkpt lat="40.2379880" lon="-3.5621230">
        <ele>512.8</ele>
        <time>2021-04-04T10:47:31Z</time>
      </trkpt>
      <trkpt lat="40.2380260" lon="-3.5621710">
        <ele>512.8</ele>
        <time>2021-04-04T10:47:32Z</time>
      </trkpt>
      <trkpt lat="40.2380640" lon="-3.5622170">
        <ele>513.0</ele>
        <time>2021-04-04T10:47:33Z</time>
      </trkpt>
      <trkpt lat="40.2380980" lon="-3.5622660">
        <ele>513.0</ele>
        <time>2021-04-04T10:47:34Z</time>
      </trkpt>
      <trkpt lat="40.2381330" lon="-3.5623140">
        <ele>512.8</ele>
        <time>2021-04-04T10:47:35Z</time>
      </trkpt>
      <trkpt lat="40.2381670" lon="-3.5623620">
        <ele>512.8</ele>
        <time>2021-04-04T10:47:36Z</time>
      </trkpt>
      <trkpt lat="40.2382090" lon="-3.5624130">
        <ele>513.0</ele>
        <time>2021-04-04T10:47:37Z</time>
      </trkpt>
      <trkpt lat="40.2382430" lon="-3.5624610">
        <ele>513.0</ele>
        <time>2021-04-04T10:47:38Z</time>
      </trkpt>
      <trkpt lat="40.2382810" lon="-3.5625100">
        <ele>512.8</ele>
        <time>2021-04-04T10:47:39Z</time>
      </trkpt>
      <trkpt lat="40.2383160" lon="-3.5625580">
        <ele>512.8</ele>
        <time>2021-04-04T10:47:40Z</time>
      </trkpt>
      <trkpt lat="40.2383540" lon="-3.5626060">
        <ele>512.8</ele>
        <time>2021-04-04T10:47:41Z</time>
      </trkpt>
      <trkpt lat="40.2383920" lon="-3.5626570">
        <ele>512.8</ele>
        <time>2021-04-04T10:47:42Z</time>
      </trkpt>
      <trkpt lat="40.2384300" lon="-3.5627090">
        <ele>512.6</ele>
        <time>2021-04-04T10:47:43Z</time>
      </trkpt>
      <trkpt lat="40.2384680" lon="-3.5627600">
        <ele>512.6</ele>
        <time>2021-04-04T10:47:44Z</time>
      </trkpt>
      <trkpt lat="40.2385020" lon="-3.5628080">
        <ele>512.6</ele>
        <time>2021-04-04T10:47:45Z</time>
      </trkpt>
      <trkpt lat="40.2385410" lon="-3.5628560">
        <ele>512.6</ele>
        <time>2021-04-04T10:47:46Z</time>
      </trkpt>
      <trkpt lat="40.2385790" lon="-3.5629070">
        <ele>512.8</ele>
        <time>2021-04-04T10:47:47Z</time>
      </trkpt>
      <trkpt lat="40.2386170" lon="-3.5629570">
        <ele>512.8</ele>
        <time>2021-04-04T10:47:48Z</time>
      </trkpt>
      <trkpt lat="40.2386510" lon="-3.5630070">
        <ele>512.8</ele>
        <time>2021-04-04T10:47:49Z</time>
      </trkpt>
      <trkpt lat="40.2386890" lon="-3.5630550">
        <ele>512.8</ele>
        <time>2021-04-04T10:47:50Z</time>
      </trkpt>
      <trkpt lat="40.2387240" lon="-3.5631020">
        <ele>512.8</ele>
        <time>2021-04-04T10:47:51Z</time>
      </trkpt>
      <trkpt lat="40.2387580" lon="-3.5631560">
        <ele>513.0</ele>
        <time>2021-04-04T10:47:52Z</time>
      </trkpt>
      <trkpt lat="40.2387890" lon="-3.5632100">
        <ele>513.0</ele>
        <time>2021-04-04T10:47:53Z</time>
      </trkpt>
      <trkpt lat="40.2388190" lon="-3.5632630">
        <ele>513.0</ele>
        <time>2021-04-04T10:47:54Z</time>
      </trkpt>
      <trkpt lat="40.2388500" lon="-3.5633150">
        <ele>513.0</ele>
        <time>2021-04-04T10:47:55Z</time>
      </trkpt>
      <trkpt lat="40.2388800" lon="-3.5633700">
        <ele>513.0</ele>
        <time>2021-04-04T10:47:56Z</time>
      </trkpt>
      <trkpt lat="40.2389110" lon="-3.5634250">
        <ele>512.8</ele>
        <time>2021-04-04T10:47:57Z</time>
      </trkpt>
      <trkpt lat="40.2389370" lon="-3.5634810">
        <ele>512.8</ele>
        <time>2021-04-04T10:47:58Z</time>
      </trkpt>
      <trkpt lat="40.2389680" lon="-3.5635380">
        <ele>512.8</ele>
        <time>2021-04-04T10:47:59Z</time>
      </trkpt>
      <trkpt lat="40.2389950" lon="-3.5635930">
        <ele>512.8</ele>
        <time>2021-04-04T10:48:00Z</time>
      </trkpt>
      <trkpt lat="40.2390250" lon="-3.5636480">
        <ele>512.8</ele>
        <time>2021-04-04T10:48:01Z</time>
      </trkpt>
      <trkpt lat="40.2390560" lon="-3.5637050">
        <ele>512.8</ele>
        <time>2021-04-04T10:48:02Z</time>
      </trkpt>
      <trkpt lat="40.2390860" lon="-3.5637630">
        <ele>512.8</ele>
        <time>2021-04-04T10:48:03Z</time>
      </trkpt>
      <trkpt lat="40.2391170" lon="-3.5638190">
        <ele>512.8</ele>
        <time>2021-04-04T10:48:04Z</time>
      </trkpt>
      <trkpt lat="40.2391430" lon="-3.5638750">
        <ele>512.8</ele>
        <time>2021-04-04T10:48:05Z</time>
      </trkpt>
      <trkpt lat="40.2391740" lon="-3.5639340">
        <ele>512.8</ele>
        <time>2021-04-04T10:48:06Z</time>
      </trkpt>
      <trkpt lat="40.2392040" lon="-3.5639890">
        <ele>512.8</ele>
        <time>2021-04-04T10:48:07Z</time>
      </trkpt>
      <trkpt lat="40.2392350" lon="-3.5640440">
        <ele>512.8</ele>
        <time>2021-04-04T10:48:08Z</time>
      </trkpt>
      <trkpt lat="40.2392650" lon="-3.5641010">
        <ele>512.8</ele>
        <time>2021-04-04T10:48:09Z</time>
      </trkpt>
      <trkpt lat="40.2392920" lon="-3.5641600">
        <ele>512.8</ele>
        <time>2021-04-04T10:48:10Z</time>
      </trkpt>
      <trkpt lat="40.2393270" lon="-3.5642140">
        <ele>513.0</ele>
        <time>2021-04-04T10:48:11Z</time>
      </trkpt>
      <trkpt lat="40.2393570" lon="-3.5642690">
        <ele>513.0</ele>
        <time>2021-04-04T10:48:12Z</time>
      </trkpt>
      <trkpt lat="40.2393880" lon="-3.5643280">
        <ele>513.0</ele>
        <time>2021-04-04T10:48:13Z</time>
      </trkpt>
      <trkpt lat="40.2394140" lon="-3.5643840">
        <ele>513.0</ele>
        <time>2021-04-04T10:48:14Z</time>
      </trkpt>
      <trkpt lat="40.2394450" lon="-3.5644410">
        <ele>513.0</ele>
        <time>2021-04-04T10:48:15Z</time>
      </trkpt>
      <trkpt lat="40.2394750" lon="-3.5644930">
        <ele>512.8</ele>
        <time>2021-04-04T10:48:16Z</time>
      </trkpt>
      <trkpt lat="40.2395060" lon="-3.5645420">
        <ele>512.8</ele>
        <time>2021-04-04T10:48:17Z</time>
      </trkpt>
      <trkpt lat="40.2395480" lon="-3.5645940">
        <ele>512.8</ele>
        <time>2021-04-04T10:48:18Z</time>
      </trkpt>
      <trkpt lat="40.2395900" lon="-3.5646270">
        <ele>512.6</ele>
        <time>2021-04-04T10:48:19Z</time>
      </trkpt>
      <trkpt lat="40.2396390" lon="-3.5646440">
        <ele>512.6</ele>
        <time>2021-04-04T10:48:20Z</time>
      </trkpt>
      <trkpt lat="40.2396930" lon="-3.5646470">
        <ele>512.6</ele>
        <time>2021-04-04T10:48:21Z</time>
      </trkpt>
      <trkpt lat="40.2397500" lon="-3.5646430">
        <ele>512.4</ele>
        <time>2021-04-04T10:48:22Z</time>
      </trkpt>
      <trkpt lat="40.2398070" lon="-3.5646350">
        <ele>512.4</ele>
        <time>2021-04-04T10:48:23Z</time>
      </trkpt>
      <trkpt lat="40.2398610" lon="-3.5646270">
        <ele>512.4</ele>
        <time>2021-04-04T10:48:24Z</time>
      </trkpt>
      <trkpt lat="40.2399220" lon="-3.5646180">
        <ele>512.4</ele>
        <time>2021-04-04T10:48:25Z</time>
      </trkpt>
      <trkpt lat="40.2399750" lon="-3.5646080">
        <ele>512.4</ele>
        <time>2021-04-04T10:48:26Z</time>
      </trkpt>
      <trkpt lat="40.2400320" lon="-3.5645980">
        <ele>512.4</ele>
        <time>2021-04-04T10:48:27Z</time>
      </trkpt>
      <trkpt lat="40.2400860" lon="-3.5645860">
        <ele>512.4</ele>
        <time>2021-04-04T10:48:28Z</time>
      </trkpt>
      <trkpt lat="40.2401390" lon="-3.5645760">
        <ele>512.4</ele>
        <time>2021-04-04T10:48:29Z</time>
      </trkpt>
      <trkpt lat="40.2401920" lon="-3.5645650">
        <ele>512.4</ele>
        <time>2021-04-04T10:48:30Z</time>
      </trkpt>
      <trkpt lat="40.2402460" lon="-3.5645550">
        <ele>512.4</ele>
        <time>2021-04-04T10:48:31Z</time>
      </trkpt>
      <trkpt lat="40.2402990" lon="-3.5645480">
        <ele>512.4</ele>
        <time>2021-04-04T10:48:32Z</time>
      </trkpt>
      <trkpt lat="40.2403530" lon="-3.5645410">
        <ele>512.4</ele>
        <time>2021-04-04T10:48:33Z</time>
      </trkpt>
      <trkpt lat="40.2404020" lon="-3.5645360">
        <ele>512.4</ele>
        <time>2021-04-04T10:48:34Z</time>
      </trkpt>
      <trkpt lat="40.2404560" lon="-3.5645320">
        <ele>512.4</ele>
        <time>2021-04-04T10:48:35Z</time>
      </trkpt>
      <trkpt lat="40.2405090" lon="-3.5645290">
        <ele>512.6</ele>
        <time>2021-04-04T10:48:36Z</time>
      </trkpt>
      <trkpt lat="40.2405590" lon="-3.5645290">
        <ele>512.6</ele>
        <time>2021-04-04T10:48:37Z</time>
      </trkpt>
      <trkpt lat="40.2406160" lon="-3.5645320">
        <ele>512.6</ele>
        <time>2021-04-04T10:48:38Z</time>
      </trkpt>
      <trkpt lat="40.2406690" lon="-3.5645380">
        <ele>512.6</ele>
        <time>2021-04-04T10:48:39Z</time>
      </trkpt>
      <trkpt lat="40.2407230" lon="-3.5645470">
        <ele>512.6</ele>
        <time>2021-04-04T10:48:40Z</time>
      </trkpt>
      <trkpt lat="40.2407760" lon="-3.5645590">
        <ele>512.6</ele>
        <time>2021-04-04T10:48:41Z</time>
      </trkpt>
      <trkpt lat="40.2408330" lon="-3.5645700">
        <ele>512.6</ele>
        <time>2021-04-04T10:48:42Z</time>
      </trkpt>
      <trkpt lat="40.2408900" lon="-3.5645830">
        <ele>512.6</ele>
        <time>2021-04-04T10:48:43Z</time>
      </trkpt>
      <trkpt lat="40.2409440" lon="-3.5645940">
        <ele>512.6</ele>
        <time>2021-04-04T10:48:44Z</time>
      </trkpt>
      <trkpt lat="40.2409970" lon="-3.5646070">
        <ele>512.6</ele>
        <time>2021-04-04T10:48:45Z</time>
      </trkpt>
      <trkpt lat="40.2410510" lon="-3.5646210">
        <ele>512.6</ele>
        <time>2021-04-04T10:48:46Z</time>
      </trkpt>
      <trkpt lat="40.2411080" lon="-3.5646340">
        <ele>512.6</ele>
        <time>2021-04-04T10:48:47Z</time>
      </trkpt>
      <trkpt lat="40.2411650" lon="-3.5646490">
        <ele>512.6</ele>
        <time>2021-04-04T10:48:48Z</time>
      </trkpt>
      <trkpt lat="40.2412220" lon="-3.5646670">
        <ele>512.6</ele>
        <time>2021-04-04T10:48:49Z</time>
      </trkpt>
      <trkpt lat="40.2412760" lon="-3.5646860">
        <ele>512.4</ele>
        <time>2021-04-04T10:48:50Z</time>
      </trkpt>
      <trkpt lat="40.2413250" lon="-3.5647070">
        <ele>512.4</ele>
        <time>2021-04-04T10:48:51Z</time>
      </trkpt>
      <trkpt lat="40.2413790" lon="-3.5647290">
        <ele>512.4</ele>
        <time>2021-04-04T10:48:52Z</time>
      </trkpt>
      <trkpt lat="40.2414360" lon="-3.5647560">
        <ele>512.4</ele>
        <time>2021-04-04T10:48:53Z</time>
      </trkpt>
      <trkpt lat="40.2414890" lon="-3.5647850">
        <ele>512.4</ele>
        <time>2021-04-04T10:48:54Z</time>
      </trkpt>
      <trkpt lat="40.2415430" lon="-3.5648160">
        <ele>512.4</ele>
        <time>2021-04-04T10:48:55Z</time>
      </trkpt>
      <trkpt lat="40.2415920" lon="-3.5648440">
        <ele>512.4</ele>
        <time>2021-04-04T10:48:56Z</time>
      </trkpt>
      <trkpt lat="40.2416420" lon="-3.5648720">
        <ele>512.6</ele>
        <time>2021-04-04T10:48:57Z</time>
      </trkpt>
      <trkpt lat="40.2416950" lon="-3.5649020">
        <ele>512.6</ele>
        <time>2021-04-04T10:48:58Z</time>
      </trkpt>
      <trkpt lat="40.2417450" lon="-3.5649300">
        <ele>512.6</ele>
        <time>2021-04-04T10:48:59Z</time>
      </trkpt>
      <trkpt lat="40.2417950" lon="-3.5649590">
        <ele>512.6</ele>
        <time>2021-04-04T10:49:00Z</time>
      </trkpt>
      <trkpt lat="40.2418440" lon="-3.5649900">
        <ele>512.6</ele>
        <time>2021-04-04T10:49:01Z</time>
      </trkpt>
      <trkpt lat="40.2418940" lon="-3.5650210">
        <ele>512.6</ele>
        <time>2021-04-04T10:49:02Z</time>
      </trkpt>
      <trkpt lat="40.2419430" lon="-3.5650490">
        <ele>512.6</ele>
        <time>2021-04-04T10:49:03Z</time>
      </trkpt>
      <trkpt lat="40.2419930" lon="-3.5650790">
        <ele>512.6</ele>
        <time>2021-04-04T10:49:04Z</time>
      </trkpt>
      <trkpt lat="40.2420430" lon="-3.5651080">
        <ele>512.8</ele>
        <time>2021-04-04T10:49:05Z</time>
      </trkpt>
      <trkpt lat="40.2420880" lon="-3.5651370">
        <ele>512.8</ele>
        <time>2021-04-04T10:49:06Z</time>
      </trkpt>
      <trkpt lat="40.2421420" lon="-3.5651670">
        <ele>512.8</ele>
        <time>2021-04-04T10:49:07Z</time>
      </trkpt>
      <trkpt lat="40.2421910" lon="-3.5651980">
        <ele>512.8</ele>
        <time>2021-04-04T10:49:08Z</time>
      </trkpt>
      <trkpt lat="40.2422410" lon="-3.5652300">
        <ele>512.8</ele>
        <time>2021-04-04T10:49:09Z</time>
      </trkpt>
      <trkpt lat="40.2422910" lon="-3.5652620">
        <ele>512.8</ele>
        <time>2021-04-04T10:49:10Z</time>
      </trkpt>
      <trkpt lat="40.2423400" lon="-3.5652930">
        <ele>512.6</ele>
        <time>2021-04-04T10:49:11Z</time>
      </trkpt>
      <trkpt lat="40.2423900" lon="-3.5653210">
        <ele>512.6</ele>
        <time>2021-04-04T10:49:12Z</time>
      </trkpt>
      <trkpt lat="40.2424390" lon="-3.5653470">
        <ele>512.6</ele>
        <time>2021-04-04T10:49:13Z</time>
      </trkpt>
      <trkpt lat="40.2424930" lon="-3.5653660">
        <ele>512.6</ele>
        <time>2021-04-04T10:49:14Z</time>
      </trkpt>
      <trkpt lat="40.2425500" lon="-3.5653800">
        <ele>512.6</ele>
        <time>2021-04-04T10:49:15Z</time>
      </trkpt>
      <trkpt lat="40.2426070" lon="-3.5653860">
        <ele>512.6</ele>
        <time>2021-04-04T10:49:16Z</time>
      </trkpt>
      <trkpt lat="40.2426610" lon="-3.5653880">
        <ele>512.6</ele>
        <time>2021-04-04T10:49:17Z</time>
      </trkpt>
      <trkpt lat="40.2427140" lon="-3.5653870">
        <ele>512.6</ele>
        <time>2021-04-04T10:49:18Z</time>
      </trkpt>
      <trkpt lat="40.2427670" lon="-3.5653810">
        <ele>512.8</ele>
        <time>2021-04-04T10:49:19Z</time>
      </trkpt>
      <trkpt lat="40.2428280" lon="-3.5653730">
        <ele>512.8</ele>
        <time>2021-04-04T10:49:20Z</time>
      </trkpt>
      <trkpt lat="40.2428820" lon="-3.5653620">
        <ele>512.8</ele>
        <time>2021-04-04T10:49:21Z</time>
      </trkpt>
      <trkpt lat="40.2429430" lon="-3.5653510">
        <ele>512.8</ele>
        <time>2021-04-04T10:49:22Z</time>
      </trkpt>
      <trkpt lat="40.2429960" lon="-3.5653400">
        <ele>512.8</ele>
        <time>2021-04-04T10:49:23Z</time>
      </trkpt>
      <trkpt lat="40.2430500" lon="-3.5653300">
        <ele>512.8</ele>
        <time>2021-04-04T10:49:24Z</time>
      </trkpt>
      <trkpt lat="40.2431110" lon="-3.5653200">
        <ele>512.8</ele>
        <time>2021-04-04T10:49:25Z</time>
      </trkpt>
      <trkpt lat="40.2431640" lon="-3.5653130">
        <ele>512.8</ele>
        <time>2021-04-04T10:49:26Z</time>
      </trkpt>
      <trkpt lat="40.2432210" lon="-3.5653110">
        <ele>512.8</ele>
        <time>2021-04-04T10:49:27Z</time>
      </trkpt>
      <trkpt lat="40.2432750" lon="-3.5653130">
        <ele>512.8</ele>
        <time>2021-04-04T10:49:28Z</time>
      </trkpt>
      <trkpt lat="40.2433280" lon="-3.5653180">
        <ele>512.8</ele>
        <time>2021-04-04T10:49:29Z</time>
      </trkpt>
      <trkpt lat="40.2433850" lon="-3.5653270">
        <ele>512.8</ele>
        <time>2021-04-04T10:49:30Z</time>
      </trkpt>
      <trkpt lat="40.2434430" lon="-3.5653380">
        <ele>512.8</ele>
        <time>2021-04-04T10:49:31Z</time>
      </trkpt>
      <trkpt lat="40.2434960" lon="-3.5653510">
        <ele>512.8</ele>
        <time>2021-04-04T10:49:32Z</time>
      </trkpt>
      <trkpt lat="40.2435490" lon="-3.5653620">
        <ele>512.8</ele>
        <time>2021-04-04T10:49:33Z</time>
      </trkpt>
      <trkpt lat="40.2436070" lon="-3.5653730">
        <ele>512.8</ele>
        <time>2021-04-04T10:49:34Z</time>
      </trkpt>
      <trkpt lat="40.2436640" lon="-3.5653820">
        <ele>512.8</ele>
        <time>2021-04-04T10:49:35Z</time>
      </trkpt>
      <trkpt lat="40.2437170" lon="-3.5653920">
        <ele>512.8</ele>
        <time>2021-04-04T10:49:36Z</time>
      </trkpt>
      <trkpt lat="40.2437710" lon="-3.5654010">
        <ele>512.8</ele>
        <time>2021-04-04T10:49:37Z</time>
      </trkpt>
      <trkpt lat="40.2438280" lon="-3.5654050">
        <ele>512.8</ele>
        <time>2021-04-04T10:49:38Z</time>
      </trkpt>
      <trkpt lat="40.2438850" lon="-3.5654070">
        <ele>512.8</ele>
        <time>2021-04-04T10:49:39Z</time>
      </trkpt>
      <trkpt lat="40.2439420" lon="-3.5654090">
        <ele>512.8</ele>
        <time>2021-04-04T10:49:40Z</time>
      </trkpt>
      <trkpt lat="40.2439960" lon="-3.5654090">
        <ele>513.0</ele>
        <time>2021-04-04T10:49:41Z</time>
      </trkpt>
      <trkpt lat="40.2440530" lon="-3.5654080">
        <ele>513.0</ele>
        <time>2021-04-04T10:49:42Z</time>
      </trkpt>
      <trkpt lat="40.2441100" lon="-3.5654050">
        <ele>513.0</ele>
        <time>2021-04-04T10:49:43Z</time>
      </trkpt>
      <trkpt lat="40.2441640" lon="-3.5654000">
        <ele>513.0</ele>
        <time>2021-04-04T10:49:44Z</time>
      </trkpt>
      <trkpt lat="40.2442250" lon="-3.5653920">
        <ele>513.0</ele>
        <time>2021-04-04T10:49:45Z</time>
      </trkpt>
      <trkpt lat="40.2442820" lon="-3.5653850">
        <ele>513.0</ele>
        <time>2021-04-04T10:49:46Z</time>
      </trkpt>
      <trkpt lat="40.2443390" lon="-3.5653790">
        <ele>513.0</ele>
        <time>2021-04-04T10:49:47Z</time>
      </trkpt>
      <trkpt lat="40.2443920" lon="-3.5653730">
        <ele>513.0</ele>
        <time>2021-04-04T10:49:48Z</time>
      </trkpt>
      <trkpt lat="40.2444500" lon="-3.5653660">
        <ele>513.0</ele>
        <time>2021-04-04T10:49:49Z</time>
      </trkpt>
      <trkpt lat="40.2445110" lon="-3.5653590">
        <ele>513.0</ele>
        <time>2021-04-04T10:49:50Z</time>
      </trkpt>
      <trkpt lat="40.2445640" lon="-3.5653520">
        <ele>512.8</ele>
        <time>2021-04-04T10:49:51Z</time>
      </trkpt>
      <trkpt lat="40.2446210" lon="-3.5653430">
        <ele>512.8</ele>
        <time>2021-04-04T10:49:52Z</time>
      </trkpt>
      <trkpt lat="40.2446750" lon="-3.5653330">
        <ele>512.8</ele>
        <time>2021-04-04T10:49:53Z</time>
      </trkpt>
      <trkpt lat="40.2447320" lon="-3.5653230">
        <ele>512.8</ele>
        <time>2021-04-04T10:49:54Z</time>
      </trkpt>
      <trkpt lat="40.2447890" lon="-3.5653120">
        <ele>512.8</ele>
        <time>2021-04-04T10:49:55Z</time>
      </trkpt>
      <trkpt lat="40.2448430" lon="-3.5653000">
        <ele>512.8</ele>
        <time>2021-04-04T10:49:56Z</time>
      </trkpt>
      <trkpt lat="40.2449000" lon="-3.5652870">
        <ele>512.8</ele>
        <time>2021-04-04T10:49:57Z</time>
      </trkpt>
      <trkpt lat="40.2449530" lon="-3.5652730">
        <ele>512.8</ele>
        <time>2021-04-04T10:49:58Z</time>
      </trkpt>
      <trkpt lat="40.2450070" lon="-3.5652580">
        <ele>512.8</ele>
        <time>2021-04-04T10:49:59Z</time>
      </trkpt>
      <trkpt lat="40.2450600" lon="-3.5652440">
        <ele>512.8</ele>
        <time>2021-04-04T10:50:00Z</time>
      </trkpt>
      <trkpt lat="40.2451100" lon="-3.5652300">
        <ele>512.8</ele>
        <time>2021-04-04T10:50:01Z</time>
      </trkpt>
      <trkpt lat="40.2451550" lon="-3.5652150">
        <ele>512.8</ele>
        <time>2021-04-04T10:50:02Z</time>
      </trkpt>
      <trkpt lat="40.2452010" lon="-3.5651980">
        <ele>512.8</ele>
        <time>2021-04-04T10:50:03Z</time>
      </trkpt>
      <trkpt lat="40.2452470" lon="-3.5651760">
        <ele>512.8</ele>
        <time>2021-04-04T10:50:04Z</time>
      </trkpt>
      <trkpt lat="40.2452890" lon="-3.5651490">
        <ele>512.8</ele>
        <time>2021-04-04T10:50:05Z</time>
      </trkpt>
      <trkpt lat="40.2453310" lon="-3.5651150">
        <ele>513.0</ele>
        <time>2021-04-04T10:50:06Z</time>
      </trkpt>
      <trkpt lat="40.2453730" lon="-3.5650750">
        <ele>513.0</ele>
        <time>2021-04-04T10:50:07Z</time>
      </trkpt>
      <trkpt lat="40.2454110" lon="-3.5650320">
        <ele>513.2</ele>
        <time>2021-04-04T10:50:08Z</time>
      </trkpt>
      <trkpt lat="40.2454490" lon="-3.5649880">
        <ele>513.2</ele>
        <time>2021-04-04T10:50:09Z</time>
      </trkpt>
      <trkpt lat="40.2454830" lon="-3.5649410">
        <ele>513.2</ele>
        <time>2021-04-04T10:50:10Z</time>
      </trkpt>
      <trkpt lat="40.2455250" lon="-3.5648850">
        <ele>513.4</ele>
        <time>2021-04-04T10:50:11Z</time>
      </trkpt>
      <trkpt lat="40.2455600" lon="-3.5648320">
        <ele>513.4</ele>
        <time>2021-04-04T10:50:12Z</time>
      </trkpt>
      <trkpt lat="40.2455940" lon="-3.5647800">
        <ele>513.4</ele>
        <time>2021-04-04T10:50:13Z</time>
      </trkpt>
      <trkpt lat="40.2456280" lon="-3.5647270">
        <ele>513.2</ele>
        <time>2021-04-04T10:50:14Z</time>
      </trkpt>
      <trkpt lat="40.2456630" lon="-3.5646740">
        <ele>513.2</ele>
        <time>2021-04-04T10:50:15Z</time>
      </trkpt>
      <trkpt lat="40.2456970" lon="-3.5646170">
        <ele>513.2</ele>
        <time>2021-04-04T10:50:16Z</time>
      </trkpt>
      <trkpt lat="40.2457350" lon="-3.5645620">
        <ele>513.0</ele>
        <time>2021-04-04T10:50:17Z</time>
      </trkpt>
      <trkpt lat="40.2457700" lon="-3.5645100">
        <ele>513.0</ele>
        <time>2021-04-04T10:50:18Z</time>
      </trkpt>
      <trkpt lat="40.2458040" lon="-3.5644580">
        <ele>513.2</ele>
        <time>2021-04-04T10:50:19Z</time>
      </trkpt>
      <trkpt lat="40.2458380" lon="-3.5644050">
        <ele>513.2</ele>
        <time>2021-04-04T10:50:20Z</time>
      </trkpt>
      <trkpt lat="40.2458730" lon="-3.5643500">
        <ele>513.2</ele>
        <time>2021-04-04T10:50:21Z</time>
      </trkpt>
      <trkpt lat="40.2459070" lon="-3.5642960">
        <ele>513.2</ele>
        <time>2021-04-04T10:50:22Z</time>
      </trkpt>
      <trkpt lat="40.2459410" lon="-3.5642430">
        <ele>513.2</ele>
        <time>2021-04-04T10:50:23Z</time>
      </trkpt>
      <trkpt lat="40.2459720" lon="-3.5641930">
        <ele>513.2</ele>
        <time>2021-04-04T10:50:24Z</time>
      </trkpt>
      <trkpt lat="40.2460100" lon="-3.5641450">
        <ele>513.2</ele>
        <time>2021-04-04T10:50:25Z</time>
      </trkpt>
      <trkpt lat="40.2460520" lon="-3.5640950">
        <ele>513.2</ele>
        <time>2021-04-04T10:50:26Z</time>
      </trkpt>
      <trkpt lat="40.2460900" lon="-3.5640520">
        <ele>513.2</ele>
        <time>2021-04-04T10:50:27Z</time>
      </trkpt>
      <trkpt lat="40.2461320" lon="-3.5640110">
        <ele>513.2</ele>
        <time>2021-04-04T10:50:28Z</time>
      </trkpt>
      <trkpt lat="40.2461780" lon="-3.5639760">
        <ele>513.0</ele>
        <time>2021-04-04T10:50:29Z</time>
      </trkpt>
      <trkpt lat="40.2462270" lon="-3.5639450">
        <ele>513.0</ele>
        <time>2021-04-04T10:50:30Z</time>
      </trkpt>
      <trkpt lat="40.2462810" lon="-3.5639160">
        <ele>513.0</ele>
        <time>2021-04-04T10:50:31Z</time>
      </trkpt>
      <trkpt lat="40.2463300" lon="-3.5638950">
        <ele>513.0</ele>
        <time>2021-04-04T10:50:32Z</time>
      </trkpt>
      <trkpt lat="40.2463840" lon="-3.5638750">
        <ele>512.8</ele>
        <time>2021-04-04T10:50:33Z</time>
      </trkpt>
      <trkpt lat="40.2464370" lon="-3.5638580">
        <ele>512.8</ele>
        <time>2021-04-04T10:50:34Z</time>
      </trkpt>
      <trkpt lat="40.2464870" lon="-3.5638410">
        <ele>512.8</ele>
        <time>2021-04-04T10:50:35Z</time>
      </trkpt>
      <trkpt lat="40.2465400" lon="-3.5638230">
        <ele>512.8</ele>
        <time>2021-04-04T10:50:36Z</time>
      </trkpt>
      <trkpt lat="40.2465970" lon="-3.5638040">
        <ele>512.8</ele>
        <time>2021-04-04T10:50:37Z</time>
      </trkpt>
      <trkpt lat="40.2466510" lon="-3.5637880">
        <ele>512.8</ele>
        <time>2021-04-04T10:50:38Z</time>
      </trkpt>
      <trkpt lat="40.2467040" lon="-3.5637730">
        <ele>512.8</ele>
        <time>2021-04-04T10:50:39Z</time>
      </trkpt>
      <trkpt lat="40.2467570" lon="-3.5637580">
        <ele>512.8</ele>
        <time>2021-04-04T10:50:40Z</time>
      </trkpt>
      <trkpt lat="40.2468110" lon="-3.5637410">
        <ele>512.6</ele>
        <time>2021-04-04T10:50:41Z</time>
      </trkpt>
      <trkpt lat="40.2468680" lon="-3.5637240">
        <ele>512.6</ele>
        <time>2021-04-04T10:50:42Z</time>
      </trkpt>
      <trkpt lat="40.2469220" lon="-3.5637040">
        <ele>512.6</ele>
        <time>2021-04-04T10:50:43Z</time>
      </trkpt>
      <trkpt lat="40.2469790" lon="-3.5636780">
        <ele>512.6</ele>
        <time>2021-04-04T10:50:44Z</time>
      </trkpt>
      <trkpt lat="40.2470320" lon="-3.5636470">
        <ele>512.6</ele>
        <time>2021-04-04T10:50:45Z</time>
      </trkpt>
      <trkpt lat="40.2470860" lon="-3.5636120">
        <ele>512.8</ele>
        <time>2021-04-04T10:50:46Z</time>
      </trkpt>
      <trkpt lat="40.2471350" lon="-3.5635760">
        <ele>512.8</ele>
        <time>2021-04-04T10:50:47Z</time>
      </trkpt>
      <trkpt lat="40.2471850" lon="-3.5635390">
        <ele>512.8</ele>
        <time>2021-04-04T10:50:48Z</time>
      </trkpt>
      <trkpt lat="40.2472340" lon="-3.5635000">
        <ele>512.8</ele>
        <time>2021-04-04T10:50:49Z</time>
      </trkpt>
      <trkpt lat="40.2472840" lon="-3.5634610">
        <ele>512.8</ele>
        <time>2021-04-04T10:50:50Z</time>
      </trkpt>
      <trkpt lat="40.2473330" lon="-3.5634240">
        <ele>512.8</ele>
        <time>2021-04-04T10:50:51Z</time>
      </trkpt>
      <trkpt lat="40.2473870" lon="-3.5633880">
        <ele>512.8</ele>
        <time>2021-04-04T10:50:52Z</time>
      </trkpt>
      <trkpt lat="40.2474370" lon="-3.5633520">
        <ele>512.8</ele>
        <time>2021-04-04T10:50:53Z</time>
      </trkpt>
      <trkpt lat="40.2474900" lon="-3.5633150">
        <ele>512.8</ele>
        <time>2021-04-04T10:50:54Z</time>
      </trkpt>
      <trkpt lat="40.2475360" lon="-3.5632780">
        <ele>512.8</ele>
        <time>2021-04-04T10:50:55Z</time>
      </trkpt>
      <trkpt lat="40.2475820" lon="-3.5632430">
        <ele>512.8</ele>
        <time>2021-04-04T10:50:56Z</time>
      </trkpt>
      <trkpt lat="40.2476350" lon="-3.5632020">
        <ele>512.8</ele>
        <time>2021-04-04T10:50:57Z</time>
      </trkpt>
      <trkpt lat="40.2476840" lon="-3.5631640">
        <ele>512.8</ele>
        <time>2021-04-04T10:50:58Z</time>
      </trkpt>
      <trkpt lat="40.2477380" lon="-3.5631240">
        <ele>512.8</ele>
        <time>2021-04-04T10:50:59Z</time>
      </trkpt>
      <trkpt lat="40.2477840" lon="-3.5630850">
        <ele>512.8</ele>
        <time>2021-04-04T10:51:00Z</time>
      </trkpt>
      <trkpt lat="40.2478370" lon="-3.5630460">
        <ele>512.8</ele>
        <time>2021-04-04T10:51:01Z</time>
      </trkpt>
      <trkpt lat="40.2478900" lon="-3.5630060">
        <ele>512.6</ele>
        <time>2021-04-04T10:51:02Z</time>
      </trkpt>
      <trkpt lat="40.2479440" lon="-3.5629710">
        <ele>512.6</ele>
        <time>2021-04-04T10:51:03Z</time>
      </trkpt>
      <trkpt lat="40.2480010" lon="-3.5629370">
        <ele>512.6</ele>
        <time>2021-04-04T10:51:04Z</time>
      </trkpt>
      <trkpt lat="40.2480580" lon="-3.5629080">
        <ele>512.6</ele>
        <time>2021-04-04T10:51:05Z</time>
      </trkpt>
      <trkpt lat="40.2481160" lon="-3.5628830">
        <ele>512.6</ele>
        <time>2021-04-04T10:51:06Z</time>
      </trkpt>
      <trkpt lat="40.2481770" lon="-3.5628570">
        <ele>512.6</ele>
        <time>2021-04-04T10:51:07Z</time>
      </trkpt>
      <trkpt lat="40.2482340" lon="-3.5628340">
        <ele>512.6</ele>
        <time>2021-04-04T10:51:08Z</time>
      </trkpt>
      <trkpt lat="40.2482910" lon="-3.5628110">
        <ele>512.6</ele>
        <time>2021-04-04T10:51:09Z</time>
      </trkpt>
      <trkpt lat="40.2483480" lon="-3.5627920">
        <ele>512.6</ele>
        <time>2021-04-04T10:51:10Z</time>
      </trkpt>
      <trkpt lat="40.2484050" lon="-3.5627740">
        <ele>512.6</ele>
        <time>2021-04-04T10:51:11Z</time>
      </trkpt>
      <trkpt lat="40.2484660" lon="-3.5627530">
        <ele>512.6</ele>
        <time>2021-04-04T10:51:12Z</time>
      </trkpt>
      <trkpt lat="40.2485240" lon="-3.5627270">
        <ele>512.6</ele>
        <time>2021-04-04T10:51:13Z</time>
      </trkpt>
      <trkpt lat="40.2485810" lon="-3.5627020">
        <ele>512.6</ele>
        <time>2021-04-04T10:51:14Z</time>
      </trkpt>
      <trkpt lat="40.2486340" lon="-3.5626790">
        <ele>512.6</ele>
        <time>2021-04-04T10:51:15Z</time>
      </trkpt>
      <trkpt lat="40.2486990" lon="-3.5626590">
        <ele>512.4</ele>
        <time>2021-04-04T10:51:16Z</time>
      </trkpt>
      <trkpt lat="40.2487560" lon="-3.5626440">
        <ele>512.4</ele>
        <time>2021-04-04T10:51:17Z</time>
      </trkpt>
      <trkpt lat="40.2488170" lon="-3.5626290">
        <ele>512.4</ele>
        <time>2021-04-04T10:51:18Z</time>
      </trkpt>
      <trkpt lat="40.2488750" lon="-3.5626100">
        <ele>512.4</ele>
        <time>2021-04-04T10:51:19Z</time>
      </trkpt>
      <trkpt lat="40.2489360" lon="-3.5625860">
        <ele>512.4</ele>
        <time>2021-04-04T10:51:20Z</time>
      </trkpt>
      <trkpt lat="40.2489890" lon="-3.5625610">
        <ele>512.4</ele>
        <time>2021-04-04T10:51:21Z</time>
      </trkpt>
      <trkpt lat="40.2490460" lon="-3.5625380">
        <ele>512.4</ele>
        <time>2021-04-04T10:51:22Z</time>
      </trkpt>
      <trkpt lat="40.2491070" lon="-3.5625160">
        <ele>512.4</ele>
        <time>2021-04-04T10:51:23Z</time>
      </trkpt>
      <trkpt lat="40.2491650" lon="-3.5624920">
        <ele>512.4</ele>
        <time>2021-04-04T10:51:24Z</time>
      </trkpt>
      <trkpt lat="40.2492220" lon="-3.5624670">
        <ele>512.4</ele>
        <time>2021-04-04T10:51:25Z</time>
      </trkpt>
      <trkpt lat="40.2492750" lon="-3.5624440">
        <ele>512.4</ele>
        <time>2021-04-04T10:51:26Z</time>
      </trkpt>
      <trkpt lat="40.2493400" lon="-3.5624170">
        <ele>512.6</ele>
        <time>2021-04-04T10:51:27Z</time>
      </trkpt>
      <trkpt lat="40.2494010" lon="-3.5623930">
        <ele>512.6</ele>
        <time>2021-04-04T10:51:28Z</time>
      </trkpt>
      <trkpt lat="40.2494580" lon="-3.5623690">
        <ele>512.4</ele>
        <time>2021-04-04T10:51:29Z</time>
      </trkpt>
      <trkpt lat="40.2495190" lon="-3.5623460">
        <ele>512.4</ele>
        <time>2021-04-04T10:51:30Z</time>
      </trkpt>
      <trkpt lat="40.2495800" lon="-3.5623220">
        <ele>512.4</ele>
        <time>2021-04-04T10:51:31Z</time>
      </trkpt>
      <trkpt lat="40.2496450" lon="-3.5622990">
        <ele>512.4</ele>
        <time>2021-04-04T10:51:32Z</time>
      </trkpt>
      <trkpt lat="40.2497020" lon="-3.5622750">
        <ele>512.4</ele>
        <time>2021-04-04T10:51:33Z</time>
      </trkpt>
      <trkpt lat="40.2497630" lon="-3.5622490">
        <ele>512.4</ele>
        <time>2021-04-04T10:51:34Z</time>
      </trkpt>
      <trkpt lat="40.2498250" lon="-3.5622220">
        <ele>512.4</ele>
        <time>2021-04-04T10:51:35Z</time>
      </trkpt>
      <trkpt lat="40.2498860" lon="-3.5621980">
        <ele>512.4</ele>
        <time>2021-04-04T10:51:36Z</time>
      </trkpt>
      <trkpt lat="40.2499470" lon="-3.5621730">
        <ele>512.4</ele>
        <time>2021-04-04T10:51:37Z</time>
      </trkpt>
      <trkpt lat="40.2500080" lon="-3.5621470">
        <ele>512.4</ele>
        <time>2021-04-04T10:51:38Z</time>
      </trkpt>
      <trkpt lat="40.2500690" lon="-3.5621220">
        <ele>512.4</ele>
        <time>2021-04-04T10:51:39Z</time>
      </trkpt>
      <trkpt lat="40.2501260" lon="-3.5620990">
        <ele>512.4</ele>
        <time>2021-04-04T10:51:40Z</time>
      </trkpt>
      <trkpt lat="40.2501870" lon="-3.5620780">
        <ele>512.4</ele>
        <time>2021-04-04T10:51:41Z</time>
      </trkpt>
      <trkpt lat="40.2502480" lon="-3.5620530">
        <ele>512.4</ele>
        <time>2021-04-04T10:51:42Z</time>
      </trkpt>
      <trkpt lat="40.2503090" lon="-3.5620270">
        <ele>512.4</ele>
        <time>2021-04-04T10:51:43Z</time>
      </trkpt>
      <trkpt lat="40.2503740" lon="-3.5620000">
        <ele>512.4</ele>
        <time>2021-04-04T10:51:44Z</time>
      </trkpt>
      <trkpt lat="40.2504310" lon="-3.5619710">
        <ele>512.4</ele>
        <time>2021-04-04T10:51:45Z</time>
      </trkpt>
      <trkpt lat="40.2504920" lon="-3.5619430">
        <ele>512.4</ele>
        <time>2021-04-04T10:51:46Z</time>
      </trkpt>
      <trkpt lat="40.2505530" lon="-3.5619160">
        <ele>512.4</ele>
        <time>2021-04-04T10:51:47Z</time>
      </trkpt>
      <trkpt lat="40.2506180" lon="-3.5618900">
        <ele>512.4</ele>
        <time>2021-04-04T10:51:48Z</time>
      </trkpt>
      <trkpt lat="40.2506830" lon="-3.5618670">
        <ele>512.6</ele>
        <time>2021-04-04T10:51:49Z</time>
      </trkpt>
      <trkpt lat="40.2507440" lon="-3.5618410">
        <ele>512.6</ele>
        <time>2021-04-04T10:51:50Z</time>
      </trkpt>
      <trkpt lat="40.2508050" lon="-3.5618140">
        <ele>512.6</ele>
        <time>2021-04-04T10:51:51Z</time>
      </trkpt>
      <trkpt lat="40.2508700" lon="-3.5617860">
        <ele>512.6</ele>
        <time>2021-04-04T10:51:52Z</time>
      </trkpt>
      <trkpt lat="40.2509350" lon="-3.5617590">
        <ele>512.6</ele>
        <time>2021-04-04T10:51:53Z</time>
      </trkpt>
      <trkpt lat="40.2509990" lon="-3.5617320">
        <ele>512.6</ele>
        <time>2021-04-04T10:51:54Z</time>
      </trkpt>
      <trkpt lat="40.2510610" lon="-3.5617080">
        <ele>512.6</ele>
        <time>2021-04-04T10:51:55Z</time>
      </trkpt>
      <trkpt lat="40.2511220" lon="-3.5616870">
        <ele>512.6</ele>
        <time>2021-04-04T10:51:56Z</time>
      </trkpt>
      <trkpt lat="40.2511940" lon="-3.5616650">
        <ele>512.6</ele>
        <time>2021-04-04T10:51:57Z</time>
      </trkpt>
      <trkpt lat="40.2512590" lon="-3.5616490">
        <ele>512.6</ele>
        <time>2021-04-04T10:51:58Z</time>
      </trkpt>
      <trkpt lat="40.2513240" lon="-3.5616350">
        <ele>512.6</ele>
        <time>2021-04-04T10:51:59Z</time>
      </trkpt>
      <trkpt lat="40.2513920" lon="-3.5616200">
        <ele>512.4</ele>
        <time>2021-04-04T10:52:00Z</time>
      </trkpt>
      <trkpt lat="40.2514530" lon="-3.5615980">
        <ele>512.4</ele>
        <time>2021-04-04T10:52:01Z</time>
      </trkpt>
      <trkpt lat="40.2515180" lon="-3.5615620">
        <ele>512.4</ele>
        <time>2021-04-04T10:52:02Z</time>
      </trkpt>
      <trkpt lat="40.2515750" lon="-3.5615140">
        <ele>512.4</ele>
        <time>2021-04-04T10:52:03Z</time>
      </trkpt>
      <trkpt lat="40.2516250" lon="-3.5614530">
        <ele>512.4</ele>
        <time>2021-04-04T10:52:04Z</time>
      </trkpt>
      <trkpt lat="40.2516630" lon="-3.5613830">
        <ele>512.4</ele>
        <time>2021-04-04T10:52:05Z</time>
      </trkpt>
      <trkpt lat="40.2517010" lon="-3.5613090">
        <ele>512.6</ele>
        <time>2021-04-04T10:52:06Z</time>
      </trkpt>
      <trkpt lat="40.2517360" lon="-3.5612330">
        <ele>512.6</ele>
        <time>2021-04-04T10:52:07Z</time>
      </trkpt>
      <trkpt lat="40.2517700" lon="-3.5611560">
        <ele>512.6</ele>
        <time>2021-04-04T10:52:08Z</time>
      </trkpt>
      <trkpt lat="40.2518080" lon="-3.5610810">
        <ele>512.6</ele>
        <time>2021-04-04T10:52:09Z</time>
      </trkpt>
      <trkpt lat="40.2518420" lon="-3.5610090">
        <ele>512.6</ele>
        <time>2021-04-04T10:52:10Z</time>
      </trkpt>
      <trkpt lat="40.2518770" lon="-3.5609360">
        <ele>512.6</ele>
        <time>2021-04-04T10:52:11Z</time>
      </trkpt>
      <trkpt lat="40.2519190" lon="-3.5608630">
        <ele>512.6</ele>
        <time>2021-04-04T10:52:12Z</time>
      </trkpt>
      <trkpt lat="40.2519570" lon="-3.5607900">
        <ele>512.6</ele>
        <time>2021-04-04T10:52:13Z</time>
      </trkpt>
      <trkpt lat="40.2519910" lon="-3.5607160">
        <ele>512.6</ele>
        <time>2021-04-04T10:52:14Z</time>
      </trkpt>
      <trkpt lat="40.2520290" lon="-3.5606420">
        <ele>512.6</ele>
        <time>2021-04-04T10:52:15Z</time>
      </trkpt>
      <trkpt lat="40.2520640" lon="-3.5605680">
        <ele>512.6</ele>
        <time>2021-04-04T10:52:16Z</time>
      </trkpt>
      <trkpt lat="40.2520980" lon="-3.5604930">
        <ele>512.6</ele>
        <time>2021-04-04T10:52:17Z</time>
      </trkpt>
      <trkpt lat="40.2521400" lon="-3.5604200">
        <ele>512.6</ele>
        <time>2021-04-04T10:52:18Z</time>
      </trkpt>
      <trkpt lat="40.2521780" lon="-3.5603500">
        <ele>512.6</ele>
        <time>2021-04-04T10:52:19Z</time>
      </trkpt>
      <trkpt lat="40.2522200" lon="-3.5602820">
        <ele>512.6</ele>
        <time>2021-04-04T10:52:20Z</time>
      </trkpt>
      <trkpt lat="40.2522580" lon="-3.5602120">
        <ele>512.6</ele>
        <time>2021-04-04T10:52:21Z</time>
      </trkpt>
      <trkpt lat="40.2522960" lon="-3.5601410">
        <ele>512.6</ele>
        <time>2021-04-04T10:52:22Z</time>
      </trkpt>
      <trkpt lat="40.2523310" lon="-3.5600740">
        <ele>512.8</ele>
        <time>2021-04-04T10:52:23Z</time>
      </trkpt>
      <trkpt lat="40.2523730" lon="-3.5600030">
        <ele>512.6</ele>
        <time>2021-04-04T10:52:24Z</time>
      </trkpt>
      <trkpt lat="40.2524150" lon="-3.5599370">
        <ele>512.6</ele>
        <time>2021-04-04T10:52:25Z</time>
      </trkpt>
      <trkpt lat="40.2524530" lon="-3.5598690">
        <ele>512.6</ele>
        <time>2021-04-04T10:52:26Z</time>
      </trkpt>
      <trkpt lat="40.2524950" lon="-3.5598010">
        <ele>512.6</ele>
        <time>2021-04-04T10:52:27Z</time>
      </trkpt>
      <trkpt lat="40.2525370" lon="-3.5597310">
        <ele>512.6</ele>
        <time>2021-04-04T10:52:28Z</time>
      </trkpt>
      <trkpt lat="40.2525790" lon="-3.5596680">
        <ele>512.6</ele>
        <time>2021-04-04T10:52:29Z</time>
      </trkpt>
      <trkpt lat="40.2526210" lon="-3.5596060">
        <ele>512.6</ele>
        <time>2021-04-04T10:52:30Z</time>
      </trkpt>
      <trkpt lat="40.2526660" lon="-3.5595410">
        <ele>512.6</ele>
        <time>2021-04-04T10:52:31Z</time>
      </trkpt>
      <trkpt lat="40.2527050" lon="-3.5594750">
        <ele>512.6</ele>
        <time>2021-04-04T10:52:32Z</time>
      </trkpt>
      <trkpt lat="40.2527470" lon="-3.5594060">
        <ele>512.6</ele>
        <time>2021-04-04T10:52:33Z</time>
      </trkpt>
      <trkpt lat="40.2527850" lon="-3.5593380">
        <ele>512.6</ele>
        <time>2021-04-04T10:52:34Z</time>
      </trkpt>
      <trkpt lat="40.2528270" lon="-3.5592690">
        <ele>512.6</ele>
        <time>2021-04-04T10:52:35Z</time>
      </trkpt>
      <trkpt lat="40.2528610" lon="-3.5592020">
        <ele>512.6</ele>
        <time>2021-04-04T10:52:36Z</time>
      </trkpt>
      <trkpt lat="40.2529030" lon="-3.5591340">
        <ele>512.6</ele>
        <time>2021-04-04T10:52:37Z</time>
      </trkpt>
      <trkpt lat="40.2529410" lon="-3.5590670">
        <ele>512.6</ele>
        <time>2021-04-04T10:52:38Z</time>
      </trkpt>
      <trkpt lat="40.2529790" lon="-3.5589990">
        <ele>512.8</ele>
        <time>2021-04-04T10:52:39Z</time>
      </trkpt>
      <trkpt lat="40.2530170" lon="-3.5589290">
        <ele>512.8</ele>
        <time>2021-04-04T10:52:40Z</time>
      </trkpt>
      <trkpt lat="40.2530560" lon="-3.5588590">
        <ele>512.8</ele>
        <time>2021-04-04T10:52:41Z</time>
      </trkpt>
      <trkpt lat="40.2530900" lon="-3.5587870">
        <ele>512.8</ele>
        <time>2021-04-04T10:52:42Z</time>
      </trkpt>
      <trkpt lat="40.2531240" lon="-3.5587120">
        <ele>512.8</ele>
        <time>2021-04-04T10:52:43Z</time>
      </trkpt>
      <trkpt lat="40.2531590" lon="-3.5586390">
        <ele>512.8</ele>
        <time>2021-04-04T10:52:44Z</time>
      </trkpt>
      <trkpt lat="40.2531930" lon="-3.5585670">
        <ele>512.8</ele>
        <time>2021-04-04T10:52:45Z</time>
      </trkpt>
      <trkpt lat="40.2532270" lon="-3.5584980">
        <ele>512.8</ele>
        <time>2021-04-04T10:52:46Z</time>
      </trkpt>
      <trkpt lat="40.2532650" lon="-3.5584280">
        <ele>512.8</ele>
        <time>2021-04-04T10:52:47Z</time>
      </trkpt>
      <trkpt lat="40.2533070" lon="-3.5583590">
        <ele>512.8</ele>
        <time>2021-04-04T10:52:48Z</time>
      </trkpt>
      <trkpt lat="40.2533460" lon="-3.5582930">
        <ele>512.8</ele>
        <time>2021-04-04T10:52:49Z</time>
      </trkpt>
      <trkpt lat="40.2533840" lon="-3.5582260">
        <ele>512.8</ele>
        <time>2021-04-04T10:52:50Z</time>
      </trkpt>
      <trkpt lat="40.2534220" lon="-3.5581580">
        <ele>512.8</ele>
        <time>2021-04-04T10:52:51Z</time>
      </trkpt>
      <trkpt lat="40.2534600" lon="-3.5580910">
        <ele>512.8</ele>
        <time>2021-04-04T10:52:52Z</time>
      </trkpt>
      <trkpt lat="40.2534980" lon="-3.5580240">
        <ele>512.8</ele>
        <time>2021-04-04T10:52:53Z</time>
      </trkpt>
      <trkpt lat="40.2535360" lon="-3.5579550">
        <ele>512.8</ele>
        <time>2021-04-04T10:52:54Z</time>
      </trkpt>
      <trkpt lat="40.2535670" lon="-3.5578840">
        <ele>513.0</ele>
        <time>2021-04-04T10:52:55Z</time>
      </trkpt>
      <trkpt lat="40.2536010" lon="-3.5578140">
        <ele>513.0</ele>
        <time>2021-04-04T10:52:56Z</time>
      </trkpt>
      <trkpt lat="40.2536350" lon="-3.5577400">
        <ele>513.0</ele>
        <time>2021-04-04T10:52:57Z</time>
      </trkpt>
      <trkpt lat="40.2536620" lon="-3.5576630">
        <ele>513.0</ele>
        <time>2021-04-04T10:52:58Z</time>
      </trkpt>
      <trkpt lat="40.2536890" lon="-3.5575870">
        <ele>513.0</ele>
        <time>2021-04-04T10:52:59Z</time>
      </trkpt>
      <trkpt lat="40.2537150" lon="-3.5575080">
        <ele>513.0</ele>
        <time>2021-04-04T10:53:00Z</time>
      </trkpt>
      <trkpt lat="40.2537420" lon="-3.5574310">
        <ele>513.0</ele>
        <time>2021-04-04T10:53:01Z</time>
      </trkpt>
      <trkpt lat="40.2537730" lon="-3.5573550">
        <ele>513.0</ele>
        <time>2021-04-04T10:53:02Z</time>
      </trkpt>
      <trkpt lat="40.2538030" lon="-3.5572780">
        <ele>513.0</ele>
        <time>2021-04-04T10:53:03Z</time>
      </trkpt>
      <trkpt lat="40.2538340" lon="-3.5572040">
        <ele>512.8</ele>
        <time>2021-04-04T10:53:04Z</time>
      </trkpt>
      <trkpt lat="40.2538680" lon="-3.5571320">
        <ele>512.8</ele>
        <time>2021-04-04T10:53:05Z</time>
      </trkpt>
      <trkpt lat="40.2539020" lon="-3.5570620">
        <ele>512.8</ele>
        <time>2021-04-04T10:53:06Z</time>
      </trkpt>
      <trkpt lat="40.2539370" lon="-3.5569960">
        <ele>512.8</ele>
        <time>2021-04-04T10:53:07Z</time>
      </trkpt>
      <trkpt lat="40.2539750" lon="-3.5569310">
        <ele>512.8</ele>
        <time>2021-04-04T10:53:08Z</time>
      </trkpt>
      <trkpt lat="40.2540130" lon="-3.5568660">
        <ele>512.8</ele>
        <time>2021-04-04T10:53:09Z</time>
      </trkpt>
      <trkpt lat="40.2540510" lon="-3.5568020">
        <ele>513.0</ele>
        <time>2021-04-04T10:53:10Z</time>
      </trkpt>
      <trkpt lat="40.2540930" lon="-3.5567360">
        <ele>513.0</ele>
        <time>2021-04-04T10:53:11Z</time>
      </trkpt>
      <trkpt lat="40.2541310" lon="-3.5566740">
        <ele>513.0</ele>
        <time>2021-04-04T10:53:12Z</time>
      </trkpt>
      <trkpt lat="40.2541690" lon="-3.5566110">
        <ele>513.0</ele>
        <time>2021-04-04T10:53:13Z</time>
      </trkpt>
      <trkpt lat="40.2542080" lon="-3.5565520">
        <ele>513.0</ele>
        <time>2021-04-04T10:53:14Z</time>
      </trkpt>
      <trkpt lat="40.2542460" lon="-3.5564920">
        <ele>513.0</ele>
        <time>2021-04-04T10:53:15Z</time>
      </trkpt>
      <trkpt lat="40.2542840" lon="-3.5564300">
        <ele>512.8</ele>
        <time>2021-04-04T10:53:16Z</time>
      </trkpt>
      <trkpt lat="40.2543140" lon="-3.5563690">
        <ele>513.0</ele>
        <time>2021-04-04T10:53:17Z</time>
      </trkpt>
      <trkpt lat="40.2543530" lon="-3.5563030">
        <ele>513.0</ele>
        <time>2021-04-04T10:53:18Z</time>
      </trkpt>
      <trkpt lat="40.2543870" lon="-3.5562420">
        <ele>513.0</ele>
        <time>2021-04-04T10:53:19Z</time>
      </trkpt>
      <trkpt lat="40.2544210" lon="-3.5561820">
        <ele>512.8</ele>
        <time>2021-04-04T10:53:20Z</time>
      </trkpt>
      <trkpt lat="40.2544560" lon="-3.5561240">
        <ele>512.8</ele>
        <time>2021-04-04T10:53:21Z</time>
      </trkpt>
      <trkpt lat="40.2544940" lon="-3.5560660">
        <ele>512.8</ele>
        <time>2021-04-04T10:53:22Z</time>
      </trkpt>
      <trkpt lat="40.2545280" lon="-3.5560070">
        <ele>512.8</ele>
        <time>2021-04-04T10:53:23Z</time>
      </trkpt>
      <trkpt lat="40.2545700" lon="-3.5559480">
        <ele>512.8</ele>
        <time>2021-04-04T10:53:24Z</time>
      </trkpt>
      <trkpt lat="40.2546040" lon="-3.5558930">
        <ele>512.8</ele>
        <time>2021-04-04T10:53:25Z</time>
      </trkpt>
      <trkpt lat="40.2546430" lon="-3.5558360">
        <ele>512.8</ele>
        <time>2021-04-04T10:53:26Z</time>
      </trkpt>
      <trkpt lat="40.2546770" lon="-3.5557790">
        <ele>512.8</ele>
        <time>2021-04-04T10:53:27Z</time>
      </trkpt>
      <trkpt lat="40.2547150" lon="-3.5557170">
        <ele>512.8</ele>
        <time>2021-04-04T10:53:28Z</time>
      </trkpt>
      <trkpt lat="40.2547530" lon="-3.5556610">
        <ele>512.8</ele>
        <time>2021-04-04T10:53:29Z</time>
      </trkpt>
      <trkpt lat="40.2547950" lon="-3.5556090">
        <ele>512.8</ele>
        <time>2021-04-04T10:53:30Z</time>
      </trkpt>
      <trkpt lat="40.2548450" lon="-3.5555600">
        <ele>512.8</ele>
        <time>2021-04-04T10:53:31Z</time>
      </trkpt>
      <trkpt lat="40.2548900" lon="-3.5555110">
        <ele>512.8</ele>
        <time>2021-04-04T10:53:32Z</time>
      </trkpt>
      <trkpt lat="40.2549360" lon="-3.5554600">
        <ele>512.8</ele>
        <time>2021-04-04T10:53:33Z</time>
      </trkpt>
      <trkpt lat="40.2549860" lon="-3.5554110">
        <ele>512.8</ele>
        <time>2021-04-04T10:53:34Z</time>
      </trkpt>
      <trkpt lat="40.2550320" lon="-3.5553640">
        <ele>512.8</ele>
        <time>2021-04-04T10:53:35Z</time>
      </trkpt>
      <trkpt lat="40.2550770" lon="-3.5553150">
        <ele>512.8</ele>
        <time>2021-04-04T10:53:36Z</time>
      </trkpt>
      <trkpt lat="40.2551230" lon="-3.5552690">
        <ele>512.8</ele>
        <time>2021-04-04T10:53:37Z</time>
      </trkpt>
      <trkpt lat="40.2551690" lon="-3.5552280">
        <ele>512.8</ele>
        <time>2021-04-04T10:53:38Z</time>
      </trkpt>
      <trkpt lat="40.2552190" lon="-3.5551920">
        <ele>512.8</ele>
        <time>2021-04-04T10:53:39Z</time>
      </trkpt>
      <trkpt lat="40.2552680" lon="-3.5551620">
        <ele>512.8</ele>
        <time>2021-04-04T10:53:40Z</time>
      </trkpt>
      <trkpt lat="40.2553180" lon="-3.5551390">
        <ele>512.6</ele>
        <time>2021-04-04T10:53:41Z</time>
      </trkpt>
      <trkpt lat="40.2553710" lon="-3.5551210">
        <ele>512.6</ele>
        <time>2021-04-04T10:53:42Z</time>
      </trkpt>
      <trkpt lat="40.2554320" lon="-3.5551040">
        <ele>512.6</ele>
        <time>2021-04-04T10:53:43Z</time>
      </trkpt>
      <trkpt lat="40.2554890" lon="-3.5550920">
        <ele>512.4</ele>
        <time>2021-04-04T10:53:44Z</time>
      </trkpt>
      <trkpt lat="40.2555540" lon="-3.5550810">
        <ele>512.4</ele>
        <time>2021-04-04T10:53:45Z</time>
      </trkpt>
      <trkpt lat="40.2556110" lon="-3.5550690">
        <ele>512.4</ele>
        <time>2021-04-04T10:53:46Z</time>
      </trkpt>
      <trkpt lat="40.2556720" lon="-3.5550570">
        <ele>512.4</ele>
        <time>2021-04-04T10:53:47Z</time>
      </trkpt>
      <trkpt lat="40.2557300" lon="-3.5550440">
        <ele>512.2</ele>
        <time>2021-04-04T10:53:48Z</time>
      </trkpt>
      <trkpt lat="40.2557910" lon="-3.5550330">
        <ele>512.2</ele>
        <time>2021-04-04T10:53:49Z</time>
      </trkpt>
      <trkpt lat="40.2558480" lon="-3.5550210">
        <ele>512.2</ele>
        <time>2021-04-04T10:53:50Z</time>
      </trkpt>
      <trkpt lat="40.2559050" lon="-3.5550090">
        <ele>512.4</ele>
        <time>2021-04-04T10:53:51Z</time>
      </trkpt>
      <trkpt lat="40.2559620" lon="-3.5549980">
        <ele>512.4</ele>
        <time>2021-04-04T10:53:52Z</time>
      </trkpt>
      <trkpt lat="40.2560200" lon="-3.5549860">
        <ele>512.4</ele>
        <time>2021-04-04T10:53:53Z</time>
      </trkpt>
      <trkpt lat="40.2560770" lon="-3.5549730">
        <ele>512.4</ele>
        <time>2021-04-04T10:53:54Z</time>
      </trkpt>
      <trkpt lat="40.2561340" lon="-3.5549630">
        <ele>512.2</ele>
        <time>2021-04-04T10:53:55Z</time>
      </trkpt>
      <trkpt lat="40.2561870" lon="-3.5549510">
        <ele>512.2</ele>
        <time>2021-04-04T10:53:56Z</time>
      </trkpt>
      <trkpt lat="40.2562370" lon="-3.5549380">
        <ele>512.4</ele>
        <time>2021-04-04T10:53:57Z</time>
      </trkpt>
      <trkpt lat="40.2562870" lon="-3.5549230">
        <ele>512.4</ele>
        <time>2021-04-04T10:53:58Z</time>
      </trkpt>
      <trkpt lat="40.2563320" lon="-3.5549090">
        <ele>512.4</ele>
        <time>2021-04-04T10:53:59Z</time>
      </trkpt>
      <trkpt lat="40.2563740" lon="-3.5549050">
        <ele>512.6</ele>
        <time>2021-04-04T10:54:00Z</time>
      </trkpt>
      <trkpt lat="40.2564090" lon="-3.5549150">
        <ele>512.8</ele>
        <time>2021-04-04T10:54:01Z</time>
      </trkpt>
      <trkpt lat="40.2564320" lon="-3.5549390">
        <ele>512.8</ele>
        <time>2021-04-04T10:54:02Z</time>
      </trkpt>
      <trkpt lat="40.2564350" lon="-3.5549730">
        <ele>513.0</ele>
        <time>2021-04-04T10:54:03Z</time>
      </trkpt>
      <trkpt lat="40.2564470" lon="-3.5550110">
        <ele>513.2</ele>
        <time>2021-04-04T10:54:04Z</time>
      </trkpt>
      <trkpt lat="40.2564660" lon="-3.5550500">
        <ele>513.4</ele>
        <time>2021-04-04T10:54:05Z</time>
      </trkpt>
      <trkpt lat="40.2564850" lon="-3.5550920">
        <ele>513.4</ele>
        <time>2021-04-04T10:54:06Z</time>
      </trkpt>
      <trkpt lat="40.2565000" lon="-3.5551420">
        <ele>513.6</ele>
        <time>2021-04-04T10:54:07Z</time>
      </trkpt>
      <trkpt lat="40.2565190" lon="-3.5551960">
        <ele>513.6</ele>
        <time>2021-04-04T10:54:08Z</time>
      </trkpt>
      <trkpt lat="40.2565420" lon="-3.5552450">
        <ele>513.8</ele>
        <time>2021-04-04T10:54:09Z</time>
      </trkpt>
      <trkpt lat="40.2565730" lon="-3.5552960">
        <ele>513.8</ele>
        <time>2021-04-04T10:54:10Z</time>
      </trkpt>
      <trkpt lat="40.2565990" lon="-3.5553460">
        <ele>513.8</ele>
        <time>2021-04-04T10:54:11Z</time>
      </trkpt>
      <trkpt lat="40.2566300" lon="-3.5553960">
        <ele>513.8</ele>
        <time>2021-04-04T10:54:12Z</time>
      </trkpt>
      <trkpt lat="40.2566640" lon="-3.5554470">
        <ele>513.8</ele>
        <time>2021-04-04T10:54:13Z</time>
      </trkpt>
      <trkpt lat="40.2566950" lon="-3.5554980">
        <ele>513.8</ele>
        <time>2021-04-04T10:54:14Z</time>
      </trkpt>
      <trkpt lat="40.2567250" lon="-3.5555490">
        <ele>513.8</ele>
        <time>2021-04-04T10:54:15Z</time>
      </trkpt>
      <trkpt lat="40.2567560" lon="-3.5556010">
        <ele>513.8</ele>
        <time>2021-04-04T10:54:16Z</time>
      </trkpt>
      <trkpt lat="40.2567860" lon="-3.5556520">
        <ele>513.8</ele>
        <time>2021-04-04T10:54:17Z</time>
      </trkpt>
      <trkpt lat="40.2568210" lon="-3.5557030">
        <ele>513.8</ele>
        <time>2021-04-04T10:54:18Z</time>
      </trkpt>
      <trkpt lat="40.2568510" lon="-3.5557540">
        <ele>513.8</ele>
        <time>2021-04-04T10:54:19Z</time>
      </trkpt>
      <trkpt lat="40.2568820" lon="-3.5558060">
        <ele>513.8</ele>
        <time>2021-04-04T10:54:20Z</time>
      </trkpt>
      <trkpt lat="40.2569160" lon="-3.5558560">
        <ele>513.8</ele>
        <time>2021-04-04T10:54:21Z</time>
      </trkpt>
      <trkpt lat="40.2569430" lon="-3.5559060">
        <ele>514.0</ele>
        <time>2021-04-04T10:54:22Z</time>
      </trkpt>
      <trkpt lat="40.2569770" lon="-3.5559590">
        <ele>514.0</ele>
        <time>2021-04-04T10:54:23Z</time>
      </trkpt>
      <trkpt lat="40.2570080" lon="-3.5560110">
        <ele>514.0</ele>
        <time>2021-04-04T10:54:24Z</time>
      </trkpt>
      <trkpt lat="40.2570380" lon="-3.5560620">
        <ele>514.0</ele>
        <time>2021-04-04T10:54:25Z</time>
      </trkpt>
      <trkpt lat="40.2570720" lon="-3.5561100">
        <ele>514.0</ele>
        <time>2021-04-04T10:54:26Z</time>
      </trkpt>
      <trkpt lat="40.2571070" lon="-3.5561610">
        <ele>514.0</ele>
        <time>2021-04-04T10:54:27Z</time>
      </trkpt>
      <trkpt lat="40.2571410" lon="-3.5562100">
        <ele>514.2</ele>
        <time>2021-04-04T10:54:28Z</time>
      </trkpt>
      <trkpt lat="40.2571720" lon="-3.5562580">
        <ele>514.2</ele>
        <time>2021-04-04T10:54:29Z</time>
      </trkpt>
      <trkpt lat="40.2572060" lon="-3.5563060">
        <ele>514.2</ele>
        <time>2021-04-04T10:54:30Z</time>
      </trkpt>
      <trkpt lat="40.2572400" lon="-3.5563550">
        <ele>514.4</ele>
        <time>2021-04-04T10:54:31Z</time>
      </trkpt>
      <trkpt lat="40.2572710" lon="-3.5564040">
        <ele>514.4</ele>
        <time>2021-04-04T10:54:32Z</time>
      </trkpt>
      <trkpt lat="40.2573050" lon="-3.5564540">
        <ele>514.6</ele>
        <time>2021-04-04T10:54:33Z</time>
      </trkpt>
      <trkpt lat="40.2573360" lon="-3.5565050">
        <ele>514.6</ele>
        <time>2021-04-04T10:54:34Z</time>
      </trkpt>
      <trkpt lat="40.2573700" lon="-3.5565550">
        <ele>514.8</ele>
        <time>2021-04-04T10:54:35Z</time>
      </trkpt>
      <trkpt lat="40.2574000" lon="-3.5566070">
        <ele>514.8</ele>
        <time>2021-04-04T10:54:36Z</time>
      </trkpt>
      <trkpt lat="40.2574310" lon="-3.5566590">
        <ele>515.0</ele>
        <time>2021-04-04T10:54:37Z</time>
      </trkpt>
      <trkpt lat="40.2574580" lon="-3.5567120">
        <ele>515.0</ele>
        <time>2021-04-04T10:54:38Z</time>
      </trkpt>
      <trkpt lat="40.2574880" lon="-3.5567630">
        <ele>515.0</ele>
        <time>2021-04-04T10:54:39Z</time>
      </trkpt>
      <trkpt lat="40.2575230" lon="-3.5568140">
        <ele>515.2</ele>
        <time>2021-04-04T10:54:40Z</time>
      </trkpt>
      <trkpt lat="40.2575570" lon="-3.5568630">
        <ele>515.2</ele>
        <time>2021-04-04T10:54:41Z</time>
      </trkpt>
      <trkpt lat="40.2575870" lon="-3.5569120">
        <ele>515.4</ele>
        <time>2021-04-04T10:54:42Z</time>
      </trkpt>
      <trkpt lat="40.2576180" lon="-3.5569630">
        <ele>515.4</ele>
        <time>2021-04-04T10:54:43Z</time>
      </trkpt>
      <trkpt lat="40.2576480" lon="-3.5570150">
        <ele>515.6</ele>
        <time>2021-04-04T10:54:44Z</time>
      </trkpt>
      <trkpt lat="40.2576830" lon="-3.5570670">
        <ele>515.6</ele>
        <time>2021-04-04T10:54:45Z</time>
      </trkpt>
      <trkpt lat="40.2577130" lon="-3.5571210">
        <ele>515.8</ele>
        <time>2021-04-04T10:54:46Z</time>
      </trkpt>
      <trkpt lat="40.2577480" lon="-3.5571760">
        <ele>515.8</ele>
        <time>2021-04-04T10:54:47Z</time>
      </trkpt>
      <trkpt lat="40.2577780" lon="-3.5572290">
        <ele>515.8</ele>
        <time>2021-04-04T10:54:48Z</time>
      </trkpt>
      <trkpt lat="40.2578120" lon="-3.5572830">
        <ele>516.0</ele>
        <time>2021-04-04T10:54:49Z</time>
      </trkpt>
      <trkpt lat="40.2578430" lon="-3.5573320">
        <ele>516.0</ele>
        <time>2021-04-04T10:54:50Z</time>
      </trkpt>
      <trkpt lat="40.2578770" lon="-3.5573810">
        <ele>516.2</ele>
        <time>2021-04-04T10:54:51Z</time>
      </trkpt>
      <trkpt lat="40.2579120" lon="-3.5574330">
        <ele>516.2</ele>
        <time>2021-04-04T10:54:52Z</time>
      </trkpt>
      <trkpt lat="40.2579420" lon="-3.5574860">
        <ele>516.4</ele>
        <time>2021-04-04T10:54:53Z</time>
      </trkpt>
      <trkpt lat="40.2579730" lon="-3.5575390">
        <ele>516.4</ele>
        <time>2021-04-04T10:54:54Z</time>
      </trkpt>
      <trkpt lat="40.2580030" lon="-3.5575940">
        <ele>516.6</ele>
        <time>2021-04-04T10:54:55Z</time>
      </trkpt>
      <trkpt lat="40.2580380" lon="-3.5576460">
        <ele>516.6</ele>
        <time>2021-04-04T10:54:56Z</time>
      </trkpt>
      <trkpt lat="40.2580760" lon="-3.5576990">
        <ele>516.6</ele>
        <time>2021-04-04T10:54:57Z</time>
      </trkpt>
      <trkpt lat="40.2581100" lon="-3.5577530">
        <ele>516.8</ele>
        <time>2021-04-04T10:54:58Z</time>
      </trkpt>
      <trkpt lat="40.2581410" lon="-3.5578070">
        <ele>516.8</ele>
        <time>2021-04-04T10:54:59Z</time>
      </trkpt>
      <trkpt lat="40.2581710" lon="-3.5578620">
        <ele>516.8</ele>
        <time>2021-04-04T10:55:00Z</time>
      </trkpt>
      <trkpt lat="40.2582020" lon="-3.5579180">
        <ele>517.0</ele>
        <time>2021-04-04T10:55:01Z</time>
      </trkpt>
      <trkpt lat="40.2582280" lon="-3.5579720">
        <ele>517.2</ele>
        <time>2021-04-04T10:55:02Z</time>
      </trkpt>
      <trkpt lat="40.2582550" lon="-3.5580290">
        <ele>517.2</ele>
        <time>2021-04-04T10:55:03Z</time>
      </trkpt>
      <trkpt lat="40.2582820" lon="-3.5580880">
        <ele>517.4</ele>
        <time>2021-04-04T10:55:04Z</time>
      </trkpt>
      <trkpt lat="40.2583080" lon="-3.5581450">
        <ele>517.6</ele>
        <time>2021-04-04T10:55:05Z</time>
      </trkpt>
      <trkpt lat="40.2583310" lon="-3.5582000">
        <ele>517.8</ele>
        <time>2021-04-04T10:55:06Z</time>
      </trkpt>
      <trkpt lat="40.2583500" lon="-3.5582550">
        <ele>518.0</ele>
        <time>2021-04-04T10:55:07Z</time>
      </trkpt>
      <trkpt lat="40.2583690" lon="-3.5583080">
        <ele>518.2</ele>
        <time>2021-04-04T10:55:08Z</time>
      </trkpt>
      <trkpt lat="40.2583890" lon="-3.5583610">
        <ele>518.4</ele>
        <time>2021-04-04T10:55:09Z</time>
      </trkpt>
      <trkpt lat="40.2584080" lon="-3.5584180">
        <ele>518.6</ele>
        <time>2021-04-04T10:55:10Z</time>
      </trkpt>
      <trkpt lat="40.2584300" lon="-3.5584750">
        <ele>518.8</ele>
        <time>2021-04-04T10:55:11Z</time>
      </trkpt>
      <trkpt lat="40.2584500" lon="-3.5585320">
        <ele>519.2</ele>
        <time>2021-04-04T10:55:12Z</time>
      </trkpt>
      <trkpt lat="40.2584800" lon="-3.5585830">
        <ele>519.4</ele>
        <time>2021-04-04T10:55:13Z</time>
      </trkpt>
      <trkpt lat="40.2585070" lon="-3.5586300">
        <ele>519.6</ele>
        <time>2021-04-04T10:55:14Z</time>
      </trkpt>
      <trkpt lat="40.2585410" lon="-3.5586780">
        <ele>519.8</ele>
        <time>2021-04-04T10:55:15Z</time>
      </trkpt>
      <trkpt lat="40.2585750" lon="-3.5587220">
        <ele>519.8</ele>
        <time>2021-04-04T10:55:16Z</time>
      </trkpt>
      <trkpt lat="40.2586100" lon="-3.5587630">
        <ele>520.0</ele>
        <time>2021-04-04T10:55:17Z</time>
      </trkpt>
      <trkpt lat="40.2586440" lon="-3.5588040">
        <ele>520.2</ele>
        <time>2021-04-04T10:55:18Z</time>
      </trkpt>
      <trkpt lat="40.2586780" lon="-3.5588450">
        <ele>520.2</ele>
        <time>2021-04-04T10:55:19Z</time>
      </trkpt>
      <trkpt lat="40.2587090" lon="-3.5588920">
        <ele>520.4</ele>
        <time>2021-04-04T10:55:20Z</time>
      </trkpt>
      <trkpt lat="40.2587320" lon="-3.5589410">
        <ele>520.4</ele>
        <time>2021-04-04T10:55:21Z</time>
      </trkpt>
      <trkpt lat="40.2587470" lon="-3.5589930">
        <ele>520.6</ele>
        <time>2021-04-04T10:55:22Z</time>
      </trkpt>
      <trkpt lat="40.2587620" lon="-3.5590490">
        <ele>520.8</ele>
        <time>2021-04-04T10:55:23Z</time>
      </trkpt>
      <trkpt lat="40.2587660" lon="-3.5591030">
        <ele>521.2</ele>
        <time>2021-04-04T10:55:24Z</time>
      </trkpt>
      <trkpt lat="40.2587740" lon="-3.5591550">
        <ele>521.4</ele>
        <time>2021-04-04T10:55:25Z</time>
      </trkpt>
      <trkpt lat="40.2587850" lon="-3.5591990">
        <ele>521.6</ele>
        <time>2021-04-04T10:55:26Z</time>
      </trkpt>
      <trkpt lat="40.2588080" lon="-3.5592330">
        <ele>521.8</ele>
        <time>2021-04-04T10:55:27Z</time>
      </trkpt>
      <trkpt lat="40.2588390" lon="-3.5592620">
        <ele>521.8</ele>
        <time>2021-04-04T10:55:28Z</time>
      </trkpt>
      <trkpt lat="40.2588690" lon="-3.5592870">
        <ele>522.0</ele>
        <time>2021-04-04T10:55:29Z</time>
      </trkpt>
      <trkpt lat="40.2589070" lon="-3.5593190">
        <ele>522.2</ele>
        <time>2021-04-04T10:55:30Z</time>
      </trkpt>
      <trkpt lat="40.2589490" lon="-3.5593460">
        <ele>522.2</ele>
        <time>2021-04-04T10:55:31Z</time>
      </trkpt>
      <trkpt lat="40.2589870" lon="-3.5593730">
        <ele>522.4</ele>
        <time>2021-04-04T10:55:32Z</time>
      </trkpt>
      <trkpt lat="40.2590260" lon="-3.5594000">
        <ele>522.6</ele>
        <time>2021-04-04T10:55:33Z</time>
      </trkpt>
      <trkpt lat="40.2590680" lon="-3.5594250">
        <ele>522.8</ele>
        <time>2021-04-04T10:55:34Z</time>
      </trkpt>
      <trkpt lat="40.2591060" lon="-3.5594520">
        <ele>522.8</ele>
        <time>2021-04-04T10:55:35Z</time>
      </trkpt>
      <trkpt lat="40.2591440" lon="-3.5594770">
        <ele>523.0</ele>
        <time>2021-04-04T10:55:36Z</time>
      </trkpt>
      <trkpt lat="40.2591860" lon="-3.5595030">
        <ele>523.2</ele>
        <time>2021-04-04T10:55:37Z</time>
      </trkpt>
      <trkpt lat="40.2592280" lon="-3.5595260">
        <ele>523.2</ele>
        <time>2021-04-04T10:55:38Z</time>
      </trkpt>
      <trkpt lat="40.2592700" lon="-3.5595440">
        <ele>523.4</ele>
        <time>2021-04-04T10:55:39Z</time>
      </trkpt>
      <trkpt lat="40.2593120" lon="-3.5595570">
        <ele>523.4</ele>
        <time>2021-04-04T10:55:40Z</time>
      </trkpt>
      <trkpt lat="40.2593540" lon="-3.5595610">
        <ele>523.6</ele>
        <time>2021-04-04T10:55:41Z</time>
      </trkpt>
      <trkpt lat="40.2594030" lon="-3.5595570">
        <ele>523.6</ele>
        <time>2021-04-04T10:55:42Z</time>
      </trkpt>
      <trkpt lat="40.2594450" lon="-3.5595450">
        <ele>523.8</ele>
        <time>2021-04-04T10:55:43Z</time>
      </trkpt>
      <trkpt lat="40.2594830" lon="-3.5595290">
        <ele>524.0</ele>
        <time>2021-04-04T10:55:44Z</time>
      </trkpt>
      <trkpt lat="40.2595250" lon="-3.5595070">
        <ele>524.0</ele>
        <time>2021-04-04T10:55:45Z</time>
      </trkpt>
      <trkpt lat="40.2595630" lon="-3.5594890">
        <ele>524.0</ele>
        <time>2021-04-04T10:55:46Z</time>
      </trkpt>
      <trkpt lat="40.2596020" lon="-3.5594740">
        <ele>524.0</ele>
        <time>2021-04-04T10:55:47Z</time>
      </trkpt>
      <trkpt lat="40.2596360" lon="-3.5594600">
        <ele>524.2</ele>
        <time>2021-04-04T10:55:48Z</time>
      </trkpt>
      <trkpt lat="40.2596660" lon="-3.5594450">
        <ele>524.2</ele>
        <time>2021-04-04T10:55:49Z</time>
      </trkpt>
      <trkpt lat="40.2597010" lon="-3.5594280">
        <ele>524.2</ele>
        <time>2021-04-04T10:55:50Z</time>
      </trkpt>
      <trkpt lat="40.2597310" lon="-3.5594130">
        <ele>524.2</ele>
        <time>2021-04-04T10:55:51Z</time>
      </trkpt>
      <trkpt lat="40.2597580" lon="-3.5593930">
        <ele>524.2</ele>
        <time>2021-04-04T10:55:52Z</time>
      </trkpt>
      <trkpt lat="40.2597770" lon="-3.5593620">
        <ele>524.4</ele>
        <time>2021-04-04T10:55:53Z</time>
      </trkpt>
      <trkpt lat="40.2597920" lon="-3.5593230">
        <ele>524.4</ele>
        <time>2021-04-04T10:55:54Z</time>
      </trkpt>
      <trkpt lat="40.2598150" lon="-3.5592760">
        <ele>524.4</ele>
        <time>2021-04-04T10:55:55Z</time>
      </trkpt>
      <trkpt lat="40.2598380" lon="-3.5592320">
        <ele>524.2</ele>
        <time>2021-04-04T10:55:56Z</time>
      </trkpt>
      <trkpt lat="40.2598650" lon="-3.5591850">
        <ele>524.2</ele>
        <time>2021-04-04T10:55:57Z</time>
      </trkpt>
      <trkpt lat="40.2598950" lon="-3.5591360">
        <ele>524.2</ele>
        <time>2021-04-04T10:55:58Z</time>
      </trkpt>
      <trkpt lat="40.2599260" lon="-3.5590900">
        <ele>524.0</ele>
        <time>2021-04-04T10:55:59Z</time>
      </trkpt>
      <trkpt lat="40.2599600" lon="-3.5590430">
        <ele>523.8</ele>
        <time>2021-04-04T10:56:00Z</time>
      </trkpt>
      <trkpt lat="40.2600020" lon="-3.5589930">
        <ele>523.6</ele>
        <time>2021-04-04T10:56:01Z</time>
      </trkpt>
      <trkpt lat="40.2600440" lon="-3.5589460">
        <ele>523.2</ele>
        <time>2021-04-04T10:56:02Z</time>
      </trkpt>
      <trkpt lat="40.2600940" lon="-3.5589030">
        <ele>522.8</ele>
        <time>2021-04-04T10:56:03Z</time>
      </trkpt>
      <trkpt lat="40.2601470" lon="-3.5588650">
        <ele>522.4</ele>
        <time>2021-04-04T10:56:04Z</time>
      </trkpt>
      <trkpt lat="40.2602000" lon="-3.5588310">
        <ele>522.0</ele>
        <time>2021-04-04T10:56:05Z</time>
      </trkpt>
      <trkpt lat="40.2602580" lon="-3.5587990">
        <ele>521.6</ele>
        <time>2021-04-04T10:56:06Z</time>
      </trkpt>
      <trkpt lat="40.2603230" lon="-3.5587700">
        <ele>521.0</ele>
        <time>2021-04-04T10:56:07Z</time>
      </trkpt>
      <trkpt lat="40.2603950" lon="-3.5587370">
        <ele>520.6</ele>
        <time>2021-04-04T10:56:08Z</time>
      </trkpt>
      <trkpt lat="40.2604680" lon="-3.5587060">
        <ele>520.0</ele>
        <time>2021-04-04T10:56:09Z</time>
      </trkpt>
      <trkpt lat="40.2605400" lon="-3.5586790">
        <ele>519.6</ele>
        <time>2021-04-04T10:56:10Z</time>
      </trkpt>
      <trkpt lat="40.2606320" lon="-3.5586520">
        <ele>519.0</ele>
        <time>2021-04-04T10:56:11Z</time>
      </trkpt>
      <trkpt lat="40.2607190" lon="-3.5586310">
        <ele>518.4</ele>
        <time>2021-04-04T10:56:12Z</time>
      </trkpt>
      <trkpt lat="40.2608110" lon="-3.5586170">
        <ele>517.8</ele>
        <time>2021-04-04T10:56:13Z</time>
      </trkpt>
      <trkpt lat="40.2609060" lon="-3.5586110">
        <ele>517.4</ele>
        <time>2021-04-04T10:56:14Z</time>
      </trkpt>
      <trkpt lat="40.2609980" lon="-3.5586110">
        <ele>517.0</ele>
        <time>2021-04-04T10:56:15Z</time>
      </trkpt>
      <trkpt lat="40.2610970" lon="-3.5586180">
        <ele>516.4</ele>
        <time>2021-04-04T10:56:16Z</time>
      </trkpt>
      <trkpt lat="40.2611890" lon="-3.5586310">
        <ele>515.8</ele>
        <time>2021-04-04T10:56:17Z</time>
      </trkpt>
      <trkpt lat="40.2612800" lon="-3.5586550">
        <ele>515.4</ele>
        <time>2021-04-04T10:56:18Z</time>
      </trkpt>
      <trkpt lat="40.2613640" lon="-3.5586850">
        <ele>515.2</ele>
        <time>2021-04-04T10:56:19Z</time>
      </trkpt>
      <trkpt lat="40.2614400" lon="-3.5587150">
        <ele>515.0</ele>
        <time>2021-04-04T10:56:20Z</time>
      </trkpt>
      <trkpt lat="40.2615320" lon="-3.5587510">
        <ele>514.8</ele>
        <time>2021-04-04T10:56:21Z</time>
      </trkpt>
      <trkpt lat="40.2616200" lon="-3.5587890">
        <ele>514.6</ele>
        <time>2021-04-04T10:56:22Z</time>
      </trkpt>
      <trkpt lat="40.2617040" lon="-3.5588230">
        <ele>514.4</ele>
        <time>2021-04-04T10:56:23Z</time>
      </trkpt>
      <trkpt lat="40.2617800" lon="-3.5588570">
        <ele>514.2</ele>
        <time>2021-04-04T10:56:24Z</time>
      </trkpt>
      <trkpt lat="40.2618560" lon="-3.5588910">
        <ele>514.0</ele>
        <time>2021-04-04T10:56:25Z</time>
      </trkpt>
      <trkpt lat="40.2619400" lon="-3.5589250">
        <ele>514.0</ele>
        <time>2021-04-04T10:56:26Z</time>
      </trkpt>
      <trkpt lat="40.2620200" lon="-3.5589530">
        <ele>514.0</ele>
        <time>2021-04-04T10:56:27Z</time>
      </trkpt>
      <trkpt lat="40.2621000" lon="-3.5589790">
        <ele>514.0</ele>
        <time>2021-04-04T10:56:28Z</time>
      </trkpt>
      <trkpt lat="40.2621770" lon="-3.5590020">
        <ele>514.0</ele>
        <time>2021-04-04T10:56:29Z</time>
      </trkpt>
      <trkpt lat="40.2622570" lon="-3.5590210">
        <ele>513.8</ele>
        <time>2021-04-04T10:56:30Z</time>
      </trkpt>
      <trkpt lat="40.2623370" lon="-3.5590350">
        <ele>513.6</ele>
        <time>2021-04-04T10:56:31Z</time>
      </trkpt>
      <trkpt lat="40.2624170" lon="-3.5590430">
        <ele>513.6</ele>
        <time>2021-04-04T10:56:32Z</time>
      </trkpt>
      <trkpt lat="40.2624930" lon="-3.5590460">
        <ele>513.6</ele>
        <time>2021-04-04T10:56:33Z</time>
      </trkpt>
      <trkpt lat="40.2625690" lon="-3.5590470">
        <ele>513.6</ele>
        <time>2021-04-04T10:56:34Z</time>
      </trkpt>
      <trkpt lat="40.2626420" lon="-3.5590490">
        <ele>513.6</ele>
        <time>2021-04-04T10:56:35Z</time>
      </trkpt>
      <trkpt lat="40.2627220" lon="-3.5590510">
        <ele>513.6</ele>
        <time>2021-04-04T10:56:36Z</time>
      </trkpt>
      <trkpt lat="40.2627980" lon="-3.5590520">
        <ele>513.6</ele>
        <time>2021-04-04T10:56:37Z</time>
      </trkpt>
      <trkpt lat="40.2628710" lon="-3.5590540">
        <ele>513.6</ele>
        <time>2021-04-04T10:56:38Z</time>
      </trkpt>
      <trkpt lat="40.2629430" lon="-3.5590560">
        <ele>513.6</ele>
        <time>2021-04-04T10:56:39Z</time>
      </trkpt>
      <trkpt lat="40.2630120" lon="-3.5590600">
        <ele>513.6</ele>
        <time>2021-04-04T10:56:40Z</time>
      </trkpt>
      <trkpt lat="40.2630840" lon="-3.5590660">
        <ele>513.6</ele>
        <time>2021-04-04T10:56:41Z</time>
      </trkpt>
      <trkpt lat="40.2631530" lon="-3.5590720">
        <ele>513.6</ele>
        <time>2021-04-04T10:56:42Z</time>
      </trkpt>
      <trkpt lat="40.2632220" lon="-3.5590760">
        <ele>513.4</ele>
        <time>2021-04-04T10:56:43Z</time>
      </trkpt>
      <trkpt lat="40.2632900" lon="-3.5590770">
        <ele>513.4</ele>
        <time>2021-04-04T10:56:44Z</time>
      </trkpt>
      <trkpt lat="40.2633550" lon="-3.5590780">
        <ele>513.4</ele>
        <time>2021-04-04T10:56:45Z</time>
      </trkpt>
      <trkpt lat="40.2634160" lon="-3.5590800">
        <ele>513.4</ele>
        <time>2021-04-04T10:56:46Z</time>
      </trkpt>
      <trkpt lat="40.2634850" lon="-3.5590800">
        <ele>513.4</ele>
        <time>2021-04-04T10:56:47Z</time>
      </trkpt>
      <trkpt lat="40.2635500" lon="-3.5590790">
        <ele>513.6</ele>
        <time>2021-04-04T10:56:48Z</time>
      </trkpt>
      <trkpt lat="40.2636150" lon="-3.5590770">
        <ele>513.6</ele>
        <time>2021-04-04T10:56:49Z</time>
      </trkpt>
      <trkpt lat="40.2636760" lon="-3.5590780">
        <ele>513.8</ele>
        <time>2021-04-04T10:56:50Z</time>
      </trkpt>
      <trkpt lat="40.2637410" lon="-3.5590780">
        <ele>513.8</ele>
        <time>2021-04-04T10:56:51Z</time>
      </trkpt>
      <trkpt lat="40.2638050" lon="-3.5590780">
        <ele>513.8</ele>
        <time>2021-04-04T10:56:52Z</time>
      </trkpt>
      <trkpt lat="40.2638700" lon="-3.5590770">
        <ele>513.8</ele>
        <time>2021-04-04T10:56:53Z</time>
      </trkpt>
      <trkpt lat="40.2639390" lon="-3.5590770">
        <ele>513.8</ele>
        <time>2021-04-04T10:56:54Z</time>
      </trkpt>
      <trkpt lat="40.2640040" lon="-3.5590770">
        <ele>513.8</ele>
        <time>2021-04-04T10:56:55Z</time>
      </trkpt>
      <trkpt lat="40.2640690" lon="-3.5590770">
        <ele>514.0</ele>
        <time>2021-04-04T10:56:56Z</time>
      </trkpt>
      <trkpt lat="40.2641370" lon="-3.5590780">
        <ele>514.0</ele>
        <time>2021-04-04T10:56:57Z</time>
      </trkpt>
      <trkpt lat="40.2642020" lon="-3.5590760">
        <ele>514.0</ele>
        <time>2021-04-04T10:56:58Z</time>
      </trkpt>
      <trkpt lat="40.2642630" lon="-3.5590710">
        <ele>514.0</ele>
        <time>2021-04-04T10:56:59Z</time>
      </trkpt>
      <trkpt lat="40.2643240" lon="-3.5590640">
        <ele>514.2</ele>
        <time>2021-04-04T10:57:00Z</time>
      </trkpt>
      <trkpt lat="40.2643890" lon="-3.5590560">
        <ele>514.2</ele>
        <time>2021-04-04T10:57:01Z</time>
      </trkpt>
      <trkpt lat="40.2644500" lon="-3.5590470">
        <ele>514.4</ele>
        <time>2021-04-04T10:57:02Z</time>
      </trkpt>
      <trkpt lat="40.2645110" lon="-3.5590370">
        <ele>514.6</ele>
        <time>2021-04-04T10:57:03Z</time>
      </trkpt>
      <trkpt lat="40.2645760" lon="-3.5590260">
        <ele>514.6</ele>
        <time>2021-04-04T10:57:04Z</time>
      </trkpt>
      <trkpt lat="40.2646370" lon="-3.5590210">
        <ele>514.8</ele>
        <time>2021-04-04T10:57:05Z</time>
      </trkpt>
      <trkpt lat="40.2646940" lon="-3.5590180">
        <ele>515.0</ele>
        <time>2021-04-04T10:57:06Z</time>
      </trkpt>
      <trkpt lat="40.2647630" lon="-3.5590160">
        <ele>515.2</ele>
        <time>2021-04-04T10:57:07Z</time>
      </trkpt>
      <trkpt lat="40.2648240" lon="-3.5590120">
        <ele>515.4</ele>
        <time>2021-04-04T10:57:08Z</time>
      </trkpt>
      <trkpt lat="40.2648850" lon="-3.5590070">
        <ele>515.6</ele>
        <time>2021-04-04T10:57:09Z</time>
      </trkpt>
      <trkpt lat="40.2649460" lon="-3.5590050">
        <ele>515.8</ele>
        <time>2021-04-04T10:57:10Z</time>
      </trkpt>
      <trkpt lat="40.2650030" lon="-3.5590050">
        <ele>515.8</ele>
        <time>2021-04-04T10:57:11Z</time>
      </trkpt>
      <trkpt lat="40.2650680" lon="-3.5590070">
        <ele>515.8</ele>
        <time>2021-04-04T10:57:12Z</time>
      </trkpt>
      <trkpt lat="40.2651370" lon="-3.5590090">
        <ele>515.8</ele>
        <time>2021-04-04T10:57:13Z</time>
      </trkpt>
      <trkpt lat="40.2652050" lon="-3.5590100">
        <ele>515.8</ele>
        <time>2021-04-04T10:57:14Z</time>
      </trkpt>
      <trkpt lat="40.2652700" lon="-3.5590120">
        <ele>515.6</ele>
        <time>2021-04-04T10:57:15Z</time>
      </trkpt>
      <trkpt lat="40.2653390" lon="-3.5590140">
        <ele>515.6</ele>
        <time>2021-04-04T10:57:16Z</time>
      </trkpt>
      <trkpt lat="40.2654150" lon="-3.5590180">
        <ele>515.4</ele>
        <time>2021-04-04T10:57:17Z</time>
      </trkpt>
      <trkpt lat="40.2654880" lon="-3.5590230">
        <ele>515.2</ele>
        <time>2021-04-04T10:57:18Z</time>
      </trkpt>
      <trkpt lat="40.2655640" lon="-3.5590280">
        <ele>515.0</ele>
        <time>2021-04-04T10:57:19Z</time>
      </trkpt>
      <trkpt lat="40.2656480" lon="-3.5590310">
        <ele>514.8</ele>
        <time>2021-04-04T10:57:20Z</time>
      </trkpt>
      <trkpt lat="40.2657200" lon="-3.5590320">
        <ele>514.6</ele>
        <time>2021-04-04T10:57:21Z</time>
      </trkpt>
      <trkpt lat="40.2658010" lon="-3.5590310">
        <ele>514.2</ele>
        <time>2021-04-04T10:57:22Z</time>
      </trkpt>
      <trkpt lat="40.2658810" lon="-3.5590300">
        <ele>514.0</ele>
        <time>2021-04-04T10:57:23Z</time>
      </trkpt>
      <trkpt lat="40.2659610" lon="-3.5590280">
        <ele>513.8</ele>
        <time>2021-04-04T10:57:24Z</time>
      </trkpt>
      <trkpt lat="40.2660410" lon="-3.5590270">
        <ele>513.6</ele>
        <time>2021-04-04T10:57:25Z</time>
      </trkpt>
      <trkpt lat="40.2661170" lon="-3.5590270">
        <ele>513.6</ele>
        <time>2021-04-04T10:57:26Z</time>
      </trkpt>
      <trkpt lat="40.2662010" lon="-3.5590300">
        <ele>513.4</ele>
        <time>2021-04-04T10:57:27Z</time>
      </trkpt>
      <trkpt lat="40.2662810" lon="-3.5590360">
        <ele>513.4</ele>
        <time>2021-04-04T10:57:28Z</time>
      </trkpt>
      <trkpt lat="40.2663570" lon="-3.5590450">
        <ele>513.2</ele>
        <time>2021-04-04T10:57:29Z</time>
      </trkpt>
      <trkpt lat="40.2664340" lon="-3.5590550">
        <ele>513.2</ele>
        <time>2021-04-04T10:57:30Z</time>
      </trkpt>
      <trkpt lat="40.2665100" lon="-3.5590640">
        <ele>513.2</ele>
        <time>2021-04-04T10:57:31Z</time>
      </trkpt>
      <trkpt lat="40.2665900" lon="-3.5590720">
        <ele>513.2</ele>
        <time>2021-04-04T10:57:32Z</time>
      </trkpt>
      <trkpt lat="40.2666630" lon="-3.5590820">
        <ele>513.0</ele>
        <time>2021-04-04T10:57:33Z</time>
      </trkpt>
      <trkpt lat="40.2667350" lon="-3.5590940">
        <ele>513.0</ele>
        <time>2021-04-04T10:57:34Z</time>
      </trkpt>
      <trkpt lat="40.2668110" lon="-3.5591080">
        <ele>513.0</ele>
        <time>2021-04-04T10:57:35Z</time>
      </trkpt>
      <trkpt lat="40.2668840" lon="-3.5591220">
        <ele>513.0</ele>
        <time>2021-04-04T10:57:36Z</time>
      </trkpt>
      <trkpt lat="40.2669600" lon="-3.5591360">
        <ele>513.0</ele>
        <time>2021-04-04T10:57:37Z</time>
      </trkpt>
      <trkpt lat="40.2670360" lon="-3.5591510">
        <ele>513.0</ele>
        <time>2021-04-04T10:57:38Z</time>
      </trkpt>
      <trkpt lat="40.2671090" lon="-3.5591640">
        <ele>513.0</ele>
        <time>2021-04-04T10:57:39Z</time>
      </trkpt>
      <trkpt lat="40.2671810" lon="-3.5591760">
        <ele>513.2</ele>
        <time>2021-04-04T10:57:40Z</time>
      </trkpt>
      <trkpt lat="40.2672540" lon="-3.5591870">
        <ele>513.2</ele>
        <time>2021-04-04T10:57:41Z</time>
      </trkpt>
      <trkpt lat="40.2673260" lon="-3.5591990">
        <ele>513.2</ele>
        <time>2021-04-04T10:57:42Z</time>
      </trkpt>
      <trkpt lat="40.2673990" lon="-3.5592130">
        <ele>513.2</ele>
        <time>2021-04-04T10:57:43Z</time>
      </trkpt>
      <trkpt lat="40.2674710" lon="-3.5592280">
        <ele>513.2</ele>
        <time>2021-04-04T10:57:44Z</time>
      </trkpt>
      <trkpt lat="40.2675440" lon="-3.5592420">
        <ele>513.2</ele>
        <time>2021-04-04T10:57:45Z</time>
      </trkpt>
      <trkpt lat="40.2676120" lon="-3.5592560">
        <ele>513.2</ele>
        <time>2021-04-04T10:57:46Z</time>
      </trkpt>
      <trkpt lat="40.2676810" lon="-3.5592680">
        <ele>513.2</ele>
        <time>2021-04-04T10:57:47Z</time>
      </trkpt>
      <trkpt lat="40.2677610" lon="-3.5592820">
        <ele>513.2</ele>
        <time>2021-04-04T10:57:48Z</time>
      </trkpt>
      <trkpt lat="40.2678340" lon="-3.5592910">
        <ele>513.2</ele>
        <time>2021-04-04T10:57:49Z</time>
      </trkpt>
      <trkpt lat="40.2679100" lon="-3.5593000">
        <ele>513.2</ele>
        <time>2021-04-04T10:57:50Z</time>
      </trkpt>
      <trkpt lat="40.2679820" lon="-3.5593060">
        <ele>513.2</ele>
        <time>2021-04-04T10:57:51Z</time>
      </trkpt>
      <trkpt lat="40.2680550" lon="-3.5593080">
        <ele>513.2</ele>
        <time>2021-04-04T10:57:52Z</time>
      </trkpt>
      <trkpt lat="40.2681310" lon="-3.5593050">
        <ele>513.2</ele>
        <time>2021-04-04T10:57:53Z</time>
      </trkpt>
      <trkpt lat="40.2682040" lon="-3.5593010">
        <ele>513.2</ele>
        <time>2021-04-04T10:57:54Z</time>
      </trkpt>
      <trkpt lat="40.2682720" lon="-3.5592930">
        <ele>513.2</ele>
        <time>2021-04-04T10:57:55Z</time>
      </trkpt>
      <trkpt lat="40.2683490" lon="-3.5592780">
        <ele>513.2</ele>
        <time>2021-04-04T10:57:56Z</time>
      </trkpt>
      <trkpt lat="40.2684170" lon="-3.5592620">
        <ele>513.2</ele>
        <time>2021-04-04T10:57:57Z</time>
      </trkpt>
      <trkpt lat="40.2684970" lon="-3.5592420">
        <ele>513.2</ele>
        <time>2021-04-04T10:57:58Z</time>
      </trkpt>
      <trkpt lat="40.2685660" lon="-3.5592220">
        <ele>513.4</ele>
        <time>2021-04-04T10:57:59Z</time>
      </trkpt>
      <trkpt lat="40.2686420" lon="-3.5592020">
        <ele>513.4</ele>
        <time>2021-04-04T10:58:00Z</time>
      </trkpt>
      <trkpt lat="40.2687110" lon="-3.5591820">
        <ele>513.6</ele>
        <time>2021-04-04T10:58:01Z</time>
      </trkpt>
      <trkpt lat="40.2687800" lon="-3.5591600">
        <ele>513.6</ele>
        <time>2021-04-04T10:58:02Z</time>
      </trkpt>
      <trkpt lat="40.2688560" lon="-3.5591350">
        <ele>513.6</ele>
        <time>2021-04-04T10:58:03Z</time>
      </trkpt>
      <trkpt lat="40.2689210" lon="-3.5591100">
        <ele>513.6</ele>
        <time>2021-04-04T10:58:04Z</time>
      </trkpt>
      <trkpt lat="40.2689860" lon="-3.5590850">
        <ele>513.6</ele>
        <time>2021-04-04T10:58:05Z</time>
      </trkpt>
      <trkpt lat="40.2690620" lon="-3.5590580">
        <ele>513.8</ele>
        <time>2021-04-04T10:58:06Z</time>
      </trkpt>
      <trkpt lat="40.2691310" lon="-3.5590340">
        <ele>513.8</ele>
        <time>2021-04-04T10:58:07Z</time>
      </trkpt>
      <trkpt lat="40.2692070" lon="-3.5590100">
        <ele>513.8</ele>
        <time>2021-04-04T10:58:08Z</time>
      </trkpt>
      <trkpt lat="40.2692790" lon="-3.5589860">
        <ele>513.8</ele>
        <time>2021-04-04T10:58:09Z</time>
      </trkpt>
      <trkpt lat="40.2693520" lon="-3.5589620">
        <ele>513.8</ele>
        <time>2021-04-04T10:58:10Z</time>
      </trkpt>
      <trkpt lat="40.2694240" lon="-3.5589400">
        <ele>514.0</ele>
        <time>2021-04-04T10:58:11Z</time>
      </trkpt>
      <trkpt lat="40.2694930" lon="-3.5589170">
        <ele>514.0</ele>
        <time>2021-04-04T10:58:12Z</time>
      </trkpt>
      <trkpt lat="40.2695690" lon="-3.5588910">
        <ele>514.0</ele>
        <time>2021-04-04T10:58:13Z</time>
      </trkpt>
      <trkpt lat="40.2696380" lon="-3.5588670">
        <ele>514.0</ele>
        <time>2021-04-04T10:58:14Z</time>
      </trkpt>
      <trkpt lat="40.2697110" lon="-3.5588430">
        <ele>514.0</ele>
        <time>2021-04-04T10:58:15Z</time>
      </trkpt>
      <trkpt lat="40.2697830" lon="-3.5588190">
        <ele>514.0</ele>
        <time>2021-04-04T10:58:16Z</time>
      </trkpt>
      <trkpt lat="40.2698520" lon="-3.5587950">
        <ele>514.2</ele>
        <time>2021-04-04T10:58:17Z</time>
      </trkpt>
      <trkpt lat="40.2699280" lon="-3.5587710">
        <ele>514.2</ele>
        <time>2021-04-04T10:58:18Z</time>
      </trkpt>
      <trkpt lat="40.2700000" lon="-3.5587460">
        <ele>514.2</ele>
        <time>2021-04-04T10:58:19Z</time>
      </trkpt>
      <trkpt lat="40.2700730" lon="-3.5587210">
        <ele>514.2</ele>
        <time>2021-04-04T10:58:20Z</time>
      </trkpt>
      <trkpt lat="40.2701450" lon="-3.5586960">
        <ele>514.2</ele>
        <time>2021-04-04T10:58:21Z</time>
      </trkpt>
      <trkpt lat="40.2702140" lon="-3.5586710">
        <ele>514.2</ele>
        <time>2021-04-04T10:58:22Z</time>
      </trkpt>
      <trkpt lat="40.2702790" lon="-3.5586480">
        <ele>514.2</ele>
        <time>2021-04-04T10:58:23Z</time>
      </trkpt>
      <trkpt lat="40.2703590" lon="-3.5586210">
        <ele>514.4</ele>
        <time>2021-04-04T10:58:24Z</time>
      </trkpt>
      <trkpt lat="40.2704240" lon="-3.5585960">
        <ele>514.4</ele>
        <time>2021-04-04T10:58:25Z</time>
      </trkpt>
      <trkpt lat="40.2704960" lon="-3.5585710">
        <ele>514.4</ele>
        <time>2021-04-04T10:58:26Z</time>
      </trkpt>
      <trkpt lat="40.2705690" lon="-3.5585480">
        <ele>514.4</ele>
        <time>2021-04-04T10:58:27Z</time>
      </trkpt>
      <trkpt lat="40.2706380" lon="-3.5585250">
        <ele>514.4</ele>
        <time>2021-04-04T10:58:28Z</time>
      </trkpt>
      <trkpt lat="40.2707100" lon="-3.5584990">
        <ele>514.4</ele>
        <time>2021-04-04T10:58:29Z</time>
      </trkpt>
      <trkpt lat="40.2707860" lon="-3.5584770">
        <ele>514.4</ele>
        <time>2021-04-04T10:58:30Z</time>
      </trkpt>
      <trkpt lat="40.2708590" lon="-3.5584540">
        <ele>514.4</ele>
        <time>2021-04-04T10:58:31Z</time>
      </trkpt>
      <trkpt lat="40.2709350" lon="-3.5584290">
        <ele>514.4</ele>
        <time>2021-04-04T10:58:32Z</time>
      </trkpt>
      <trkpt lat="40.2710080" lon="-3.5584050">
        <ele>514.2</ele>
        <time>2021-04-04T10:58:33Z</time>
      </trkpt>
      <trkpt lat="40.2710840" lon="-3.5583810">
        <ele>514.2</ele>
        <time>2021-04-04T10:58:34Z</time>
      </trkpt>
      <trkpt lat="40.2711600" lon="-3.5583580">
        <ele>514.2</ele>
        <time>2021-04-04T10:58:35Z</time>
      </trkpt>
      <trkpt lat="40.2712360" lon="-3.5583360">
        <ele>514.0</ele>
        <time>2021-04-04T10:58:36Z</time>
      </trkpt>
      <trkpt lat="40.2713050" lon="-3.5583190">
        <ele>514.0</ele>
        <time>2021-04-04T10:58:37Z</time>
      </trkpt>
      <trkpt lat="40.2713780" lon="-3.5583040">
        <ele>514.0</ele>
        <time>2021-04-04T10:58:38Z</time>
      </trkpt>
      <trkpt lat="40.2714580" lon="-3.5582950">
        <ele>514.0</ele>
        <time>2021-04-04T10:58:39Z</time>
      </trkpt>
      <trkpt lat="40.2715340" lon="-3.5583000">
        <ele>514.0</ele>
        <time>2021-04-04T10:58:40Z</time>
      </trkpt>
      <trkpt lat="40.2716060" lon="-3.5583150">
        <ele>514.0</ele>
        <time>2021-04-04T10:58:41Z</time>
      </trkpt>
      <trkpt lat="40.2716790" lon="-3.5583310">
        <ele>514.0</ele>
        <time>2021-04-04T10:58:42Z</time>
      </trkpt>
      <trkpt lat="40.2717480" lon="-3.5583460">
        <ele>513.8</ele>
        <time>2021-04-04T10:58:43Z</time>
      </trkpt>
      <trkpt lat="40.2718200" lon="-3.5583640">
        <ele>513.6</ele>
        <time>2021-04-04T10:58:44Z</time>
      </trkpt>
      <trkpt lat="40.2718960" lon="-3.5583870">
        <ele>513.4</ele>
        <time>2021-04-04T10:58:45Z</time>
      </trkpt>
      <trkpt lat="40.2719730" lon="-3.5584100">
        <ele>513.4</ele>
        <time>2021-04-04T10:58:46Z</time>
      </trkpt>
      <trkpt lat="40.2720450" lon="-3.5584320">
        <ele>513.2</ele>
        <time>2021-04-04T10:58:47Z</time>
      </trkpt>
      <trkpt lat="40.2721180" lon="-3.5584510">
        <ele>513.2</ele>
        <time>2021-04-04T10:58:48Z</time>
      </trkpt>
      <trkpt lat="40.2721900" lon="-3.5584710">
        <ele>513.0</ele>
        <time>2021-04-04T10:58:49Z</time>
      </trkpt>
      <trkpt lat="40.2722630" lon="-3.5584890">
        <ele>513.2</ele>
        <time>2021-04-04T10:58:50Z</time>
      </trkpt>
      <trkpt lat="40.2723350" lon="-3.5585080">
        <ele>513.2</ele>
        <time>2021-04-04T10:58:51Z</time>
      </trkpt>
      <trkpt lat="40.2724000" lon="-3.5585260">
        <ele>513.2</ele>
        <time>2021-04-04T10:58:52Z</time>
      </trkpt>
      <trkpt lat="40.2724650" lon="-3.5585440">
        <ele>513.2</ele>
        <time>2021-04-04T10:58:53Z</time>
      </trkpt>
      <trkpt lat="40.2725330" lon="-3.5585660">
        <ele>513.2</ele>
        <time>2021-04-04T10:58:54Z</time>
      </trkpt>
      <trkpt lat="40.2725980" lon="-3.5585840">
        <ele>513.2</ele>
        <time>2021-04-04T10:58:55Z</time>
      </trkpt>
      <trkpt lat="40.2726670" lon="-3.5586010">
        <ele>513.2</ele>
        <time>2021-04-04T10:58:56Z</time>
      </trkpt>
      <trkpt lat="40.2727320" lon="-3.5586210">
        <ele>513.2</ele>
        <time>2021-04-04T10:58:57Z</time>
      </trkpt>
      <trkpt lat="40.2727930" lon="-3.5586410">
        <ele>513.2</ele>
        <time>2021-04-04T10:58:58Z</time>
      </trkpt>
      <trkpt lat="40.2728690" lon="-3.5586640">
        <ele>513.2</ele>
        <time>2021-04-04T10:58:59Z</time>
      </trkpt>
      <trkpt lat="40.2729340" lon="-3.5586770">
        <ele>513.2</ele>
        <time>2021-04-04T10:59:00Z</time>
      </trkpt>
      <trkpt lat="40.2730030" lon="-3.5586820">
        <ele>513.2</ele>
        <time>2021-04-04T10:59:01Z</time>
      </trkpt>
      <trkpt lat="40.2730670" lon="-3.5586820">
        <ele>513.2</ele>
        <time>2021-04-04T10:59:02Z</time>
      </trkpt>
      <trkpt lat="40.2731320" lon="-3.5586760">
        <ele>513.2</ele>
        <time>2021-04-04T10:59:03Z</time>
      </trkpt>
      <trkpt lat="40.2732050" lon="-3.5586640">
        <ele>513.2</ele>
        <time>2021-04-04T10:59:04Z</time>
      </trkpt>
      <trkpt lat="40.2732700" lon="-3.5586510">
        <ele>513.2</ele>
        <time>2021-04-04T10:59:05Z</time>
      </trkpt>
      <trkpt lat="40.2733340" lon="-3.5586360">
        <ele>513.2</ele>
        <time>2021-04-04T10:59:06Z</time>
      </trkpt>
      <trkpt lat="40.2733990" lon="-3.5586190">
        <ele>513.4</ele>
        <time>2021-04-04T10:59:07Z</time>
      </trkpt>
      <trkpt lat="40.2734600" lon="-3.5585980">
        <ele>513.4</ele>
        <time>2021-04-04T10:59:08Z</time>
      </trkpt>
      <trkpt lat="40.2735250" lon="-3.5585750">
        <ele>513.4</ele>
        <time>2021-04-04T10:59:09Z</time>
      </trkpt>
      <trkpt lat="40.2735860" lon="-3.5585530">
        <ele>513.6</ele>
        <time>2021-04-04T10:59:10Z</time>
      </trkpt>
      <trkpt lat="40.2736430" lon="-3.5585300">
        <ele>513.8</ele>
        <time>2021-04-04T10:59:11Z</time>
      </trkpt>
      <trkpt lat="40.2737050" lon="-3.5585060">
        <ele>513.8</ele>
        <time>2021-04-04T10:59:12Z</time>
      </trkpt>
      <trkpt lat="40.2737580" lon="-3.5584830">
        <ele>514.0</ele>
        <time>2021-04-04T10:59:13Z</time>
      </trkpt>
      <trkpt lat="40.2738190" lon="-3.5584570">
        <ele>514.0</ele>
        <time>2021-04-04T10:59:14Z</time>
      </trkpt>
      <trkpt lat="40.2738840" lon="-3.5584290">
        <ele>514.0</ele>
        <time>2021-04-04T10:59:15Z</time>
      </trkpt>
      <trkpt lat="40.2739410" lon="-3.5584040">
        <ele>514.0</ele>
        <time>2021-04-04T10:59:16Z</time>
      </trkpt>
      <trkpt lat="40.2739940" lon="-3.5583810">
        <ele>514.0</ele>
        <time>2021-04-04T10:59:17Z</time>
      </trkpt>
      <trkpt lat="40.2740520" lon="-3.5583550">
        <ele>514.0</ele>
        <time>2021-04-04T10:59:18Z</time>
      </trkpt>
      <trkpt lat="40.2741130" lon="-3.5583240">
        <ele>513.8</ele>
        <time>2021-04-04T10:59:19Z</time>
      </trkpt>
      <trkpt lat="40.2741810" lon="-3.5582890">
        <ele>513.6</ele>
        <time>2021-04-04T10:59:20Z</time>
      </trkpt>
      <trkpt lat="40.2742500" lon="-3.5582490">
        <ele>513.4</ele>
        <time>2021-04-04T10:59:21Z</time>
      </trkpt>
      <trkpt lat="40.2743150" lon="-3.5582120">
        <ele>513.2</ele>
        <time>2021-04-04T10:59:22Z</time>
      </trkpt>
      <trkpt lat="40.2743840" lon="-3.5581790">
        <ele>513.0</ele>
        <time>2021-04-04T10:59:23Z</time>
      </trkpt>
      <trkpt lat="40.2744600" lon="-3.5581440">
        <ele>513.0</ele>
        <time>2021-04-04T10:59:24Z</time>
      </trkpt>
      <trkpt lat="40.2745320" lon="-3.5581150">
        <ele>512.8</ele>
        <time>2021-04-04T10:59:25Z</time>
      </trkpt>
      <trkpt lat="40.2746010" lon="-3.5580890">
        <ele>512.8</ele>
        <time>2021-04-04T10:59:26Z</time>
      </trkpt>
      <trkpt lat="40.2746660" lon="-3.5580660">
        <ele>512.8</ele>
        <time>2021-04-04T10:59:27Z</time>
      </trkpt>
      <trkpt lat="40.2747270" lon="-3.5580490">
        <ele>512.6</ele>
        <time>2021-04-04T10:59:28Z</time>
      </trkpt>
      <trkpt lat="40.2747920" lon="-3.5580350">
        <ele>512.6</ele>
        <time>2021-04-04T10:59:29Z</time>
      </trkpt>
      <trkpt lat="40.2748570" lon="-3.5580270">
        <ele>512.6</ele>
        <time>2021-04-04T10:59:30Z</time>
      </trkpt>
      <trkpt lat="40.2749210" lon="-3.5580220">
        <ele>512.6</ele>
        <time>2021-04-04T10:59:31Z</time>
      </trkpt>
      <trkpt lat="40.2749820" lon="-3.5580200">
        <ele>512.6</ele>
        <time>2021-04-04T10:59:32Z</time>
      </trkpt>
      <trkpt lat="40.2750430" lon="-3.5580200">
        <ele>512.6</ele>
        <time>2021-04-04T10:59:33Z</time>
      </trkpt>
      <trkpt lat="40.2751080" lon="-3.5580190">
        <ele>512.6</ele>
        <time>2021-04-04T10:59:34Z</time>
      </trkpt>
      <trkpt lat="40.2751690" lon="-3.5580190">
        <ele>512.6</ele>
        <time>2021-04-04T10:59:35Z</time>
      </trkpt>
      <trkpt lat="40.2752340" lon="-3.5580160">
        <ele>512.4</ele>
        <time>2021-04-04T10:59:36Z</time>
      </trkpt>
      <trkpt lat="40.2752990" lon="-3.5580130">
        <ele>512.4</ele>
        <time>2021-04-04T10:59:37Z</time>
      </trkpt>
      <trkpt lat="40.2753560" lon="-3.5580110">
        <ele>512.4</ele>
        <time>2021-04-04T10:59:38Z</time>
      </trkpt>
      <trkpt lat="40.2754210" lon="-3.5580080">
        <ele>512.4</ele>
        <time>2021-04-04T10:59:39Z</time>
      </trkpt>
      <trkpt lat="40.2754780" lon="-3.5580040">
        <ele>512.2</ele>
        <time>2021-04-04T10:59:40Z</time>
      </trkpt>
      <trkpt lat="40.2755390" lon="-3.5580000">
        <ele>512.4</ele>
        <time>2021-04-04T10:59:41Z</time>
      </trkpt>
      <trkpt lat="40.2755970" lon="-3.5579940">
        <ele>512.4</ele>
        <time>2021-04-04T10:59:42Z</time>
      </trkpt>
      <trkpt lat="40.2756580" lon="-3.5579750">
        <ele>512.4</ele>
        <time>2021-04-04T10:59:43Z</time>
      </trkpt>
      <trkpt lat="40.2757220" lon="-3.5579450">
        <ele>512.2</ele>
        <time>2021-04-04T10:59:44Z</time>
      </trkpt>
      <trkpt lat="40.2757870" lon="-3.5579180">
        <ele>512.2</ele>
        <time>2021-04-04T10:59:45Z</time>
      </trkpt>
      <trkpt lat="40.2758520" lon="-3.5578880">
        <ele>512.4</ele>
        <time>2021-04-04T10:59:46Z</time>
      </trkpt>
      <trkpt lat="40.2759170" lon="-3.5578580">
        <ele>512.4</ele>
        <time>2021-04-04T10:59:47Z</time>
      </trkpt>
      <trkpt lat="40.2759780" lon="-3.5578280">
        <ele>512.4</ele>
        <time>2021-04-04T10:59:48Z</time>
      </trkpt>
      <trkpt lat="40.2760430" lon="-3.5577980">
        <ele>512.4</ele>
        <time>2021-04-04T10:59:49Z</time>
      </trkpt>
      <trkpt lat="40.2761080" lon="-3.5577690">
        <ele>512.4</ele>
        <time>2021-04-04T10:59:50Z</time>
      </trkpt>
      <trkpt lat="40.2761730" lon="-3.5577400">
        <ele>512.4</ele>
        <time>2021-04-04T10:59:51Z</time>
      </trkpt>
      <trkpt lat="40.2762340" lon="-3.5577130">
        <ele>512.4</ele>
        <time>2021-04-04T10:59:52Z</time>
      </trkpt>
      <trkpt lat="40.2762950" lon="-3.5576820">
        <ele>512.2</ele>
        <time>2021-04-04T10:59:53Z</time>
      </trkpt>
      <trkpt lat="40.2763560" lon="-3.5576480">
        <ele>512.2</ele>
        <time>2021-04-04T10:59:54Z</time>
      </trkpt>
      <trkpt lat="40.2764210" lon="-3.5576160">
        <ele>512.2</ele>
        <time>2021-04-04T10:59:55Z</time>
      </trkpt>
      <trkpt lat="40.2764780" lon="-3.5575810">
        <ele>512.2</ele>
        <time>2021-04-04T10:59:56Z</time>
      </trkpt>
      <trkpt lat="40.2765390" lon="-3.5575500">
        <ele>512.2</ele>
        <time>2021-04-04T10:59:57Z</time>
      </trkpt>
      <trkpt lat="40.2765920" lon="-3.5575240">
        <ele>512.2</ele>
        <time>2021-04-04T10:59:58Z</time>
      </trkpt>
      <trkpt lat="40.2766570" lon="-3.5574970">
        <ele>512.2</ele>
        <time>2021-04-04T10:59:59Z</time>
      </trkpt>
      <trkpt lat="40.2767140" lon="-3.5574730">
        <ele>512.2</ele>
        <time>2021-04-04T11:00:00Z</time>
      </trkpt>
      <trkpt lat="40.2767720" lon="-3.5574510">
        <ele>512.2</ele>
        <time>2021-04-04T11:00:01Z</time>
      </trkpt>
      <trkpt lat="40.2768250" lon="-3.5574240">
        <ele>512.4</ele>
        <time>2021-04-04T11:00:02Z</time>
      </trkpt>
      <trkpt lat="40.2768750" lon="-3.5573930">
        <ele>512.4</ele>
        <time>2021-04-04T11:00:03Z</time>
      </trkpt>
      <trkpt lat="40.2769360" lon="-3.5573580">
        <ele>512.4</ele>
        <time>2021-04-04T11:00:04Z</time>
      </trkpt>
      <trkpt lat="40.2769970" lon="-3.5573310">
        <ele>512.4</ele>
        <time>2021-04-04T11:00:05Z</time>
      </trkpt>
      <trkpt lat="40.2770540" lon="-3.5573060">
        <ele>512.4</ele>
        <time>2021-04-04T11:00:06Z</time>
      </trkpt>
      <trkpt lat="40.2771070" lon="-3.5572820">
        <ele>512.6</ele>
        <time>2021-04-04T11:00:07Z</time>
      </trkpt>
      <trkpt lat="40.2771680" lon="-3.5572530">
        <ele>512.6</ele>
        <time>2021-04-04T11:00:08Z</time>
      </trkpt>
      <trkpt lat="40.2772290" lon="-3.5572160">
        <ele>512.6</ele>
        <time>2021-04-04T11:00:09Z</time>
      </trkpt>
      <trkpt lat="40.2772830" lon="-3.5571850">
        <ele>512.6</ele>
        <time>2021-04-04T11:00:10Z</time>
      </trkpt>
      <trkpt lat="40.2773400" lon="-3.5571580">
        <ele>512.8</ele>
        <time>2021-04-04T11:00:11Z</time>
      </trkpt>
      <trkpt lat="40.2773970" lon="-3.5571320">
        <ele>512.8</ele>
        <time>2021-04-04T11:00:12Z</time>
      </trkpt>
      <trkpt lat="40.2774540" lon="-3.5571040">
        <ele>513.0</ele>
        <time>2021-04-04T11:00:13Z</time>
      </trkpt>
      <trkpt lat="40.2775120" lon="-3.5570750">
        <ele>513.0</ele>
        <time>2021-04-04T11:00:14Z</time>
      </trkpt>
      <trkpt lat="40.2775650" lon="-3.5570430">
        <ele>513.2</ele>
        <time>2021-04-04T11:00:15Z</time>
      </trkpt>
      <trkpt lat="40.2776220" lon="-3.5570110">
        <ele>513.4</ele>
        <time>2021-04-04T11:00:16Z</time>
      </trkpt>
      <trkpt lat="40.2776760" lon="-3.5569810">
        <ele>513.6</ele>
        <time>2021-04-04T11:00:17Z</time>
      </trkpt>
      <trkpt lat="40.2777330" lon="-3.5569520">
        <ele>513.6</ele>
        <time>2021-04-04T11:00:18Z</time>
      </trkpt>
      <trkpt lat="40.2777940" lon="-3.5569190">
        <ele>513.8</ele>
        <time>2021-04-04T11:00:19Z</time>
      </trkpt>
      <trkpt lat="40.2778510" lon="-3.5568840">
        <ele>514.0</ele>
        <time>2021-04-04T11:00:20Z</time>
      </trkpt>
      <trkpt lat="40.2779080" lon="-3.5568510">
        <ele>514.2</ele>
        <time>2021-04-04T11:00:21Z</time>
      </trkpt>
      <trkpt lat="40.2779620" lon="-3.5568220">
        <ele>514.6</ele>
        <time>2021-04-04T11:00:22Z</time>
      </trkpt>
      <trkpt lat="40.2780110" lon="-3.5567970">
        <ele>514.6</ele>
        <time>2021-04-04T11:00:23Z</time>
      </trkpt>
      <trkpt lat="40.2780690" lon="-3.5567690">
        <ele>514.8</ele>
        <time>2021-04-04T11:00:24Z</time>
      </trkpt>
      <trkpt lat="40.2781220" lon="-3.5567440">
        <ele>515.0</ele>
        <time>2021-04-04T11:00:25Z</time>
      </trkpt>
      <trkpt lat="40.2781750" lon="-3.5567180">
        <ele>515.0</ele>
        <time>2021-04-04T11:00:26Z</time>
      </trkpt>
      <trkpt lat="40.2782290" lon="-3.5566900">
        <ele>515.2</ele>
        <time>2021-04-04T11:00:27Z</time>
      </trkpt>
      <trkpt lat="40.2782820" lon="-3.5566610">
        <ele>515.4</ele>
        <time>2021-04-04T11:00:28Z</time>
      </trkpt>
      <trkpt lat="40.2783390" lon="-3.5566280">
        <ele>515.4</ele>
        <time>2021-04-04T11:00:29Z</time>
      </trkpt>
      <trkpt lat="40.2783930" lon="-3.5565940">
        <ele>515.6</ele>
        <time>2021-04-04T11:00:30Z</time>
      </trkpt>
      <trkpt lat="40.2784500" lon="-3.5565630">
        <ele>515.6</ele>
        <time>2021-04-04T11:00:31Z</time>
      </trkpt>
      <trkpt lat="40.2785070" lon="-3.5565320">
        <ele>515.6</ele>
        <time>2021-04-04T11:00:32Z</time>
      </trkpt>
      <trkpt lat="40.2785610" lon="-3.5565010">
        <ele>515.6</ele>
        <time>2021-04-04T11:00:33Z</time>
      </trkpt>
      <trkpt lat="40.2786250" lon="-3.5564680">
        <ele>515.6</ele>
        <time>2021-04-04T11:00:34Z</time>
      </trkpt>
      <trkpt lat="40.2786830" lon="-3.5564370">
        <ele>515.6</ele>
        <time>2021-04-04T11:00:35Z</time>
      </trkpt>
      <trkpt lat="40.2787400" lon="-3.5564060">
        <ele>515.6</ele>
        <time>2021-04-04T11:00:36Z</time>
      </trkpt>
      <trkpt lat="40.2788010" lon="-3.5563780">
        <ele>515.6</ele>
        <time>2021-04-04T11:00:37Z</time>
      </trkpt>
      <trkpt lat="40.2788580" lon="-3.5563500">
        <ele>515.6</ele>
        <time>2021-04-04T11:00:38Z</time>
      </trkpt>
      <trkpt lat="40.2789150" lon="-3.5563210">
        <ele>515.6</ele>
        <time>2021-04-04T11:00:39Z</time>
      </trkpt>
      <trkpt lat="40.2789730" lon="-3.5562910">
        <ele>515.6</ele>
        <time>2021-04-04T11:00:40Z</time>
      </trkpt>
      <trkpt lat="40.2790300" lon="-3.5562600">
        <ele>515.6</ele>
        <time>2021-04-04T11:00:41Z</time>
      </trkpt>
      <trkpt lat="40.2790870" lon="-3.5562290">
        <ele>515.6</ele>
        <time>2021-04-04T11:00:42Z</time>
      </trkpt>
      <trkpt lat="40.2791400" lon="-3.5561970">
        <ele>515.6</ele>
        <time>2021-04-04T11:00:43Z</time>
      </trkpt>
      <trkpt lat="40.2791980" lon="-3.5561640">
        <ele>515.6</ele>
        <time>2021-04-04T11:00:44Z</time>
      </trkpt>
      <trkpt lat="40.2792630" lon="-3.5561210">
        <ele>515.8</ele>
        <time>2021-04-04T11:00:45Z</time>
      </trkpt>
      <trkpt lat="40.2793200" lon="-3.5560850">
        <ele>515.8</ele>
        <time>2021-04-04T11:00:46Z</time>
      </trkpt>
      <trkpt lat="40.2793770" lon="-3.5560510">
        <ele>515.8</ele>
        <time>2021-04-04T11:00:47Z</time>
      </trkpt>
      <trkpt lat="40.2794340" lon="-3.5560160">
        <ele>515.8</ele>
        <time>2021-04-04T11:00:48Z</time>
      </trkpt>
      <trkpt lat="40.2794950" lon="-3.5559830">
        <ele>515.8</ele>
        <time>2021-04-04T11:00:49Z</time>
      </trkpt>
      <trkpt lat="40.2795560" lon="-3.5559470">
        <ele>516.0</ele>
        <time>2021-04-04T11:00:50Z</time>
      </trkpt>
      <trkpt lat="40.2796170" lon="-3.5559090">
        <ele>516.0</ele>
        <time>2021-04-04T11:00:51Z</time>
      </trkpt>
      <trkpt lat="40.2796750" lon="-3.5558690">
        <ele>516.0</ele>
        <time>2021-04-04T11:00:52Z</time>
      </trkpt>
      <trkpt lat="40.2797360" lon="-3.5558290">
        <ele>516.0</ele>
        <time>2021-04-04T11:00:53Z</time>
      </trkpt>
      <trkpt lat="40.2797970" lon="-3.5557940">
        <ele>516.0</ele>
        <time>2021-04-04T11:00:54Z</time>
      </trkpt>
      <trkpt lat="40.2798610" lon="-3.5557580">
        <ele>515.8</ele>
        <time>2021-04-04T11:00:55Z</time>
      </trkpt>
      <trkpt lat="40.2799230" lon="-3.5557240">
        <ele>515.8</ele>
        <time>2021-04-04T11:00:56Z</time>
      </trkpt>
      <trkpt lat="40.2799870" lon="-3.5556890">
        <ele>515.6</ele>
        <time>2021-04-04T11:00:57Z</time>
      </trkpt>
      <trkpt lat="40.2800450" lon="-3.5556560">
        <ele>515.8</ele>
        <time>2021-04-04T11:00:58Z</time>
      </trkpt>
      <trkpt lat="40.2801020" lon="-3.5556250">
        <ele>515.8</ele>
        <time>2021-04-04T11:00:59Z</time>
      </trkpt>
      <trkpt lat="40.2801670" lon="-3.5555880">
        <ele>515.6</ele>
        <time>2021-04-04T11:01:00Z</time>
      </trkpt>
      <trkpt lat="40.2802280" lon="-3.5555530">
        <ele>515.6</ele>
        <time>2021-04-04T11:01:01Z</time>
      </trkpt>
      <trkpt lat="40.2802850" lon="-3.5555170">
        <ele>515.4</ele>
        <time>2021-04-04T11:01:02Z</time>
      </trkpt>
      <trkpt lat="40.2803420" lon="-3.5554800">
        <ele>515.4</ele>
        <time>2021-04-04T11:01:03Z</time>
      </trkpt>
      <trkpt lat="40.2804030" lon="-3.5554410">
        <ele>515.4</ele>
        <time>2021-04-04T11:01:04Z</time>
      </trkpt>
      <trkpt lat="40.2804640" lon="-3.5554070">
        <ele>515.4</ele>
        <time>2021-04-04T11:01:05Z</time>
      </trkpt>
      <trkpt lat="40.2805210" lon="-3.5553770">
        <ele>515.4</ele>
        <time>2021-04-04T11:01:06Z</time>
      </trkpt>
      <trkpt lat="40.2805790" lon="-3.5553480">
        <ele>515.4</ele>
        <time>2021-04-04T11:01:07Z</time>
      </trkpt>
      <trkpt lat="40.2806320" lon="-3.5553170">
        <ele>515.4</ele>
        <time>2021-04-04T11:01:08Z</time>
      </trkpt>
      <trkpt lat="40.2806850" lon="-3.5552850">
        <ele>515.4</ele>
        <time>2021-04-04T11:01:09Z</time>
      </trkpt>
      <trkpt lat="40.2807460" lon="-3.5552520">
        <ele>515.6</ele>
        <time>2021-04-04T11:01:10Z</time>
      </trkpt>
      <trkpt lat="40.2808040" lon="-3.5552180">
        <ele>515.6</ele>
        <time>2021-04-04T11:01:11Z</time>
      </trkpt>
      <trkpt lat="40.2808570" lon="-3.5551870">
        <ele>515.8</ele>
        <time>2021-04-04T11:01:12Z</time>
      </trkpt>
      <trkpt lat="40.2809100" lon="-3.5551570">
        <ele>516.0</ele>
        <time>2021-04-04T11:01:13Z</time>
      </trkpt>
      <trkpt lat="40.2809680" lon="-3.5551230">
        <ele>516.0</ele>
        <time>2021-04-04T11:01:14Z</time>
      </trkpt>
      <trkpt lat="40.2810210" lon="-3.5550860">
        <ele>516.2</ele>
        <time>2021-04-04T11:01:15Z</time>
      </trkpt>
      <trkpt lat="40.2810750" lon="-3.5550510">
        <ele>516.4</ele>
        <time>2021-04-04T11:01:16Z</time>
      </trkpt>
      <trkpt lat="40.2811320" lon="-3.5550170">
        <ele>516.4</ele>
        <time>2021-04-04T11:01:17Z</time>
      </trkpt>
      <trkpt lat="40.2811850" lon="-3.5549870">
        <ele>516.6</ele>
        <time>2021-04-04T11:01:18Z</time>
      </trkpt>
      <trkpt lat="40.2812390" lon="-3.5549600">
        <ele>516.6</ele>
        <time>2021-04-04T11:01:19Z</time>
      </trkpt>
      <trkpt lat="40.2812920" lon="-3.5549310">
        <ele>516.8</ele>
        <time>2021-04-04T11:01:20Z</time>
      </trkpt>
      <trkpt lat="40.2813450" lon="-3.5549000">
        <ele>517.0</ele>
        <time>2021-04-04T11:01:21Z</time>
      </trkpt>
      <trkpt lat="40.2813990" lon="-3.5548680">
        <ele>517.2</ele>
        <time>2021-04-04T11:01:22Z</time>
      </trkpt>
      <trkpt lat="40.2814520" lon="-3.5548370">
        <ele>517.2</ele>
        <time>2021-04-04T11:01:23Z</time>
      </trkpt>
      <trkpt lat="40.2815060" lon="-3.5548080">
        <ele>517.4</ele>
        <time>2021-04-04T11:01:24Z</time>
      </trkpt>
      <trkpt lat="40.2815590" lon="-3.5547790">
        <ele>517.4</ele>
        <time>2021-04-04T11:01:25Z</time>
      </trkpt>
      <trkpt lat="40.2816160" lon="-3.5547460">
        <ele>517.6</ele>
        <time>2021-04-04T11:01:26Z</time>
      </trkpt>
      <trkpt lat="40.2816730" lon="-3.5547130">
        <ele>517.6</ele>
        <time>2021-04-04T11:01:27Z</time>
      </trkpt>
      <trkpt lat="40.2817270" lon="-3.5546820">
        <ele>517.8</ele>
        <time>2021-04-04T11:01:28Z</time>
      </trkpt>
      <trkpt lat="40.2817800" lon="-3.5546520">
        <ele>518.0</ele>
        <time>2021-04-04T11:01:29Z</time>
      </trkpt>
      <trkpt lat="40.2818370" lon="-3.5546240">
        <ele>518.0</ele>
        <time>2021-04-04T11:01:30Z</time>
      </trkpt>
      <trkpt lat="40.2818990" lon="-3.5545960">
        <ele>518.2</ele>
        <time>2021-04-04T11:01:31Z</time>
      </trkpt>
      <trkpt lat="40.2819520" lon="-3.5545700">
        <ele>518.4</ele>
        <time>2021-04-04T11:01:32Z</time>
      </trkpt>
      <trkpt lat="40.2820050" lon="-3.5545420">
        <ele>518.4</ele>
        <time>2021-04-04T11:01:33Z</time>
      </trkpt>
      <trkpt lat="40.2820590" lon="-3.5545130">
        <ele>518.6</ele>
        <time>2021-04-04T11:01:34Z</time>
      </trkpt>
      <trkpt lat="40.2821080" lon="-3.5544850">
        <ele>518.6</ele>
        <time>2021-04-04T11:01:35Z</time>
      </trkpt>
      <trkpt lat="40.2821620" lon="-3.5544530">
        <ele>518.8</ele>
        <time>2021-04-04T11:01:36Z</time>
      </trkpt>
      <trkpt lat="40.2822150" lon="-3.5544230">
        <ele>518.8</ele>
        <time>2021-04-04T11:01:37Z</time>
      </trkpt>
      <trkpt lat="40.2822690" lon="-3.5543940">
        <ele>518.8</ele>
        <time>2021-04-04T11:01:38Z</time>
      </trkpt>
      <trkpt lat="40.2823180" lon="-3.5543650">
        <ele>518.8</ele>
        <time>2021-04-04T11:01:39Z</time>
      </trkpt>
      <trkpt lat="40.2823680" lon="-3.5543370">
        <ele>519.0</ele>
        <time>2021-04-04T11:01:40Z</time>
      </trkpt>
      <trkpt lat="40.2824210" lon="-3.5543110">
        <ele>519.0</ele>
        <time>2021-04-04T11:01:41Z</time>
      </trkpt>
      <trkpt lat="40.2824710" lon="-3.5542850">
        <ele>519.0</ele>
        <time>2021-04-04T11:01:42Z</time>
      </trkpt>
      <trkpt lat="40.2825200" lon="-3.5542580">
        <ele>519.2</ele>
        <time>2021-04-04T11:01:43Z</time>
      </trkpt>
      <trkpt lat="40.2825700" lon="-3.5542320">
        <ele>519.4</ele>
        <time>2021-04-04T11:01:44Z</time>
      </trkpt>
      <trkpt lat="40.2826190" lon="-3.5542050">
        <ele>519.4</ele>
        <time>2021-04-04T11:01:45Z</time>
      </trkpt>
      <trkpt lat="40.2826690" lon="-3.5541780">
        <ele>519.6</ele>
        <time>2021-04-04T11:01:46Z</time>
      </trkpt>
      <trkpt lat="40.2827220" lon="-3.5541500">
        <ele>519.6</ele>
        <time>2021-04-04T11:01:47Z</time>
      </trkpt>
      <trkpt lat="40.2827720" lon="-3.5541220">
        <ele>519.6</ele>
        <time>2021-04-04T11:01:48Z</time>
      </trkpt>
      <trkpt lat="40.2828250" lon="-3.5540960">
        <ele>519.6</ele>
        <time>2021-04-04T11:01:49Z</time>
      </trkpt>
      <trkpt lat="40.2828750" lon="-3.5540680">
        <ele>519.8</ele>
        <time>2021-04-04T11:01:50Z</time>
      </trkpt>
      <trkpt lat="40.2829250" lon="-3.5540410">
        <ele>519.8</ele>
        <time>2021-04-04T11:01:51Z</time>
      </trkpt>
      <trkpt lat="40.2829820" lon="-3.5540100">
        <ele>519.8</ele>
        <time>2021-04-04T11:01:52Z</time>
      </trkpt>
      <trkpt lat="40.2830310" lon="-3.5539810">
        <ele>519.6</ele>
        <time>2021-04-04T11:01:53Z</time>
      </trkpt>
      <trkpt lat="40.2830850" lon="-3.5539500">
        <ele>519.6</ele>
        <time>2021-04-04T11:01:54Z</time>
      </trkpt>
      <trkpt lat="40.2831340" lon="-3.5539200">
        <ele>519.6</ele>
        <time>2021-04-04T11:01:55Z</time>
      </trkpt>
      <trkpt lat="40.2831800" lon="-3.5538900">
        <ele>519.6</ele>
        <time>2021-04-04T11:01:56Z</time>
      </trkpt>
      <trkpt lat="40.2832370" lon="-3.5538570">
        <ele>519.6</ele>
        <time>2021-04-04T11:01:57Z</time>
      </trkpt>
      <trkpt lat="40.2832910" lon="-3.5538270">
        <ele>519.6</ele>
        <time>2021-04-04T11:01:58Z</time>
      </trkpt>
      <trkpt lat="40.2833400" lon="-3.5537950">
        <ele>519.4</ele>
        <time>2021-04-04T11:01:59Z</time>
      </trkpt>
      <trkpt lat="40.2833940" lon="-3.5537640">
        <ele>519.4</ele>
        <time>2021-04-04T11:02:00Z</time>
      </trkpt>
      <trkpt lat="40.2834470" lon="-3.5537320">
        <ele>519.2</ele>
        <time>2021-04-04T11:02:01Z</time>
      </trkpt>
      <trkpt lat="40.2835050" lon="-3.5536960">
        <ele>519.2</ele>
        <time>2021-04-04T11:02:02Z</time>
      </trkpt>
      <trkpt lat="40.2835620" lon="-3.5536600">
        <ele>519.0</ele>
        <time>2021-04-04T11:02:03Z</time>
      </trkpt>
      <trkpt lat="40.2836150" lon="-3.5536240">
        <ele>518.8</ele>
        <time>2021-04-04T11:02:04Z</time>
      </trkpt>
      <trkpt lat="40.2836690" lon="-3.5535890">
        <ele>518.8</ele>
        <time>2021-04-04T11:02:05Z</time>
      </trkpt>
      <trkpt lat="40.2837260" lon="-3.5535540">
        <ele>518.6</ele>
        <time>2021-04-04T11:02:06Z</time>
      </trkpt>
      <trkpt lat="40.2837830" lon="-3.5535130">
        <ele>518.4</ele>
        <time>2021-04-04T11:02:07Z</time>
      </trkpt>
      <trkpt lat="40.2838400" lon="-3.5534750">
        <ele>518.4</ele>
        <time>2021-04-04T11:02:08Z</time>
      </trkpt>
      <trkpt lat="40.2839010" lon="-3.5534370">
        <ele>518.2</ele>
        <time>2021-04-04T11:02:09Z</time>
      </trkpt>
      <trkpt lat="40.2839550" lon="-3.5534030">
        <ele>518.0</ele>
        <time>2021-04-04T11:02:10Z</time>
      </trkpt>
      <trkpt lat="40.2840080" lon="-3.5533690">
        <ele>517.8</ele>
        <time>2021-04-04T11:02:11Z</time>
      </trkpt>
      <trkpt lat="40.2840690" lon="-3.5533250">
        <ele>517.6</ele>
        <time>2021-04-04T11:02:12Z</time>
      </trkpt>
      <trkpt lat="40.2841260" lon="-3.5532880">
        <ele>517.4</ele>
        <time>2021-04-04T11:02:13Z</time>
      </trkpt>
      <trkpt lat="40.2841800" lon="-3.5532510">
        <ele>517.2</ele>
        <time>2021-04-04T11:02:14Z</time>
      </trkpt>
      <trkpt lat="40.2842450" lon="-3.5532100">
        <ele>517.0</ele>
        <time>2021-04-04T11:02:15Z</time>
      </trkpt>
      <trkpt lat="40.2843020" lon="-3.5531720">
        <ele>516.8</ele>
        <time>2021-04-04T11:02:16Z</time>
      </trkpt>
      <trkpt lat="40.2843700" lon="-3.5531300">
        <ele>516.6</ele>
        <time>2021-04-04T11:02:17Z</time>
      </trkpt>
      <trkpt lat="40.2844470" lon="-3.5530850">
        <ele>516.4</ele>
        <time>2021-04-04T11:02:18Z</time>
      </trkpt>
      <trkpt lat="40.2845120" lon="-3.5530440">
        <ele>516.2</ele>
        <time>2021-04-04T11:02:19Z</time>
      </trkpt>
      <trkpt lat="40.2845730" lon="-3.5530030">
        <ele>516.0</ele>
        <time>2021-04-04T11:02:20Z</time>
      </trkpt>
      <trkpt lat="40.2846370" lon="-3.5529610">
        <ele>515.8</ele>
        <time>2021-04-04T11:02:21Z</time>
      </trkpt>
      <trkpt lat="40.2847140" lon="-3.5529120">
        <ele>515.6</ele>
        <time>2021-04-04T11:02:22Z</time>
      </trkpt>
      <trkpt lat="40.2847820" lon="-3.5528670">
        <ele>515.4</ele>
        <time>2021-04-04T11:02:23Z</time>
      </trkpt>
      <trkpt lat="40.2848510" lon="-3.5528220">
        <ele>515.2</ele>
        <time>2021-04-04T11:02:24Z</time>
      </trkpt>
      <trkpt lat="40.2849160" lon="-3.5527830">
        <ele>515.0</ele>
        <time>2021-04-04T11:02:25Z</time>
      </trkpt>
      <trkpt lat="40.2849770" lon="-3.5527460">
        <ele>514.8</ele>
        <time>2021-04-04T11:02:26Z</time>
      </trkpt>
      <trkpt lat="40.2850570" lon="-3.5527030">
        <ele>514.6</ele>
        <time>2021-04-04T11:02:27Z</time>
      </trkpt>
      <trkpt lat="40.2851300" lon="-3.5526690">
        <ele>514.6</ele>
        <time>2021-04-04T11:02:28Z</time>
      </trkpt>
      <trkpt lat="40.2851980" lon="-3.5526370">
        <ele>514.4</ele>
        <time>2021-04-04T11:02:29Z</time>
      </trkpt>
      <trkpt lat="40.2852630" lon="-3.5526090">
        <ele>514.4</ele>
        <time>2021-04-04T11:02:30Z</time>
      </trkpt>
      <trkpt lat="40.2853240" lon="-3.5525780">
        <ele>514.4</ele>
        <time>2021-04-04T11:02:31Z</time>
      </trkpt>
      <trkpt lat="40.2853970" lon="-3.5525440">
        <ele>514.4</ele>
        <time>2021-04-04T11:02:32Z</time>
      </trkpt>
      <trkpt lat="40.2854650" lon="-3.5525120">
        <ele>514.4</ele>
        <time>2021-04-04T11:02:33Z</time>
      </trkpt>
      <trkpt lat="40.2855300" lon="-3.5524820">
        <ele>514.4</ele>
        <time>2021-04-04T11:02:34Z</time>
      </trkpt>
      <trkpt lat="40.2855950" lon="-3.5524540">
        <ele>514.4</ele>
        <time>2021-04-04T11:02:35Z</time>
      </trkpt>
      <trkpt lat="40.2856560" lon="-3.5524250">
        <ele>514.4</ele>
        <time>2021-04-04T11:02:36Z</time>
      </trkpt>
      <trkpt lat="40.2857210" lon="-3.5523950">
        <ele>514.6</ele>
        <time>2021-04-04T11:02:37Z</time>
      </trkpt>
      <trkpt lat="40.2857900" lon="-3.5523660">
        <ele>514.6</ele>
        <time>2021-04-04T11:02:38Z</time>
      </trkpt>
      <trkpt lat="40.2858510" lon="-3.5523400">
        <ele>514.6</ele>
        <time>2021-04-04T11:02:39Z</time>
      </trkpt>
      <trkpt lat="40.2859120" lon="-3.5523150">
        <ele>514.6</ele>
        <time>2021-04-04T11:02:40Z</time>
      </trkpt>
      <trkpt lat="40.2859690" lon="-3.5522890">
        <ele>514.8</ele>
        <time>2021-04-04T11:02:41Z</time>
      </trkpt>
      <trkpt lat="40.2860260" lon="-3.5522630">
        <ele>514.8</ele>
        <time>2021-04-04T11:02:42Z</time>
      </trkpt>
      <trkpt lat="40.2860910" lon="-3.5522370">
        <ele>515.0</ele>
        <time>2021-04-04T11:02:43Z</time>
      </trkpt>
      <trkpt lat="40.2861480" lon="-3.5522150">
        <ele>515.0</ele>
        <time>2021-04-04T11:02:44Z</time>
      </trkpt>
      <trkpt lat="40.2862090" lon="-3.5521920">
        <ele>515.2</ele>
        <time>2021-04-04T11:02:45Z</time>
      </trkpt>
      <trkpt lat="40.2862660" lon="-3.5521740">
        <ele>515.2</ele>
        <time>2021-04-04T11:02:46Z</time>
      </trkpt>
      <trkpt lat="40.2863270" lon="-3.5521590">
        <ele>515.2</ele>
        <time>2021-04-04T11:02:47Z</time>
      </trkpt>
      <trkpt lat="40.2863850" lon="-3.5521400">
        <ele>515.4</ele>
        <time>2021-04-04T11:02:48Z</time>
      </trkpt>
      <trkpt lat="40.2864460" lon="-3.5521160">
        <ele>515.4</ele>
        <time>2021-04-04T11:02:49Z</time>
      </trkpt>
      <trkpt lat="40.2864990" lon="-3.5520900">
        <ele>515.4</ele>
        <time>2021-04-04T11:02:50Z</time>
      </trkpt>
      <trkpt lat="40.2865520" lon="-3.5520650">
        <ele>515.4</ele>
        <time>2021-04-04T11:02:51Z</time>
      </trkpt>
      <trkpt lat="40.2866100" lon="-3.5520420">
        <ele>515.4</ele>
        <time>2021-04-04T11:02:52Z</time>
      </trkpt>
      <trkpt lat="40.2866740" lon="-3.5520180">
        <ele>515.4</ele>
        <time>2021-04-04T11:02:53Z</time>
      </trkpt>
      <trkpt lat="40.2867320" lon="-3.5519970">
        <ele>515.4</ele>
        <time>2021-04-04T11:02:54Z</time>
      </trkpt>
      <trkpt lat="40.2867890" lon="-3.5519750">
        <ele>515.4</ele>
        <time>2021-04-04T11:02:55Z</time>
      </trkpt>
      <trkpt lat="40.2868500" lon="-3.5519530">
        <ele>515.4</ele>
        <time>2021-04-04T11:02:56Z</time>
      </trkpt>
      <trkpt lat="40.2869110" lon="-3.5519310">
        <ele>515.4</ele>
        <time>2021-04-04T11:02:57Z</time>
      </trkpt>
      <trkpt lat="40.2869720" lon="-3.5519100">
        <ele>515.4</ele>
        <time>2021-04-04T11:02:58Z</time>
      </trkpt>
      <trkpt lat="40.2870330" lon="-3.5518880">
        <ele>515.4</ele>
        <time>2021-04-04T11:02:59Z</time>
      </trkpt>
      <trkpt lat="40.2870980" lon="-3.5518680">
        <ele>515.2</ele>
        <time>2021-04-04T11:03:00Z</time>
      </trkpt>
      <trkpt lat="40.2871670" lon="-3.5518470">
        <ele>515.2</ele>
        <time>2021-04-04T11:03:01Z</time>
      </trkpt>
      <trkpt lat="40.2872310" lon="-3.5518240">
        <ele>515.0</ele>
        <time>2021-04-04T11:03:02Z</time>
      </trkpt>
      <trkpt lat="40.2872960" lon="-3.5518000">
        <ele>514.8</ele>
        <time>2021-04-04T11:03:03Z</time>
      </trkpt>
      <trkpt lat="40.2873610" lon="-3.5517740">
        <ele>514.8</ele>
        <time>2021-04-04T11:03:04Z</time>
      </trkpt>
      <trkpt lat="40.2874220" lon="-3.5517500">
        <ele>514.6</ele>
        <time>2021-04-04T11:03:05Z</time>
      </trkpt>
      <trkpt lat="40.2874870" lon="-3.5517250">
        <ele>514.4</ele>
        <time>2021-04-04T11:03:06Z</time>
      </trkpt>
      <trkpt lat="40.2875480" lon="-3.5516980">
        <ele>514.4</ele>
        <time>2021-04-04T11:03:07Z</time>
      </trkpt>
      <trkpt lat="40.2876090" lon="-3.5516710">
        <ele>514.4</ele>
        <time>2021-04-04T11:03:08Z</time>
      </trkpt>
      <trkpt lat="40.2876660" lon="-3.5516390">
        <ele>514.4</ele>
        <time>2021-04-04T11:03:09Z</time>
      </trkpt>
      <trkpt lat="40.2877200" lon="-3.5516050">
        <ele>514.4</ele>
        <time>2021-04-04T11:03:10Z</time>
      </trkpt>
      <trkpt lat="40.2877730" lon="-3.5515710">
        <ele>514.6</ele>
        <time>2021-04-04T11:03:11Z</time>
      </trkpt>
      <trkpt lat="40.2878270" lon="-3.5515350">
        <ele>514.6</ele>
        <time>2021-04-04T11:03:12Z</time>
      </trkpt>
      <trkpt lat="40.2878840" lon="-3.5515020">
        <ele>514.8</ele>
        <time>2021-04-04T11:03:13Z</time>
      </trkpt>
      <trkpt lat="40.2879410" lon="-3.5514730">
        <ele>514.8</ele>
        <time>2021-04-04T11:03:14Z</time>
      </trkpt>
      <trkpt lat="40.2879980" lon="-3.5514450">
        <ele>515.0</ele>
        <time>2021-04-04T11:03:15Z</time>
      </trkpt>
      <trkpt lat="40.2880590" lon="-3.5514220">
        <ele>515.0</ele>
        <time>2021-04-04T11:03:16Z</time>
      </trkpt>
      <trkpt lat="40.2881160" lon="-3.5514000">
        <ele>515.0</ele>
        <time>2021-04-04T11:03:17Z</time>
      </trkpt>
      <trkpt lat="40.2881740" lon="-3.5513770">
        <ele>515.0</ele>
        <time>2021-04-04T11:03:18Z</time>
      </trkpt>
      <trkpt lat="40.2882350" lon="-3.5513530">
        <ele>515.2</ele>
        <time>2021-04-04T11:03:19Z</time>
      </trkpt>
      <trkpt lat="40.2882920" lon="-3.5513290">
        <ele>515.2</ele>
        <time>2021-04-04T11:03:20Z</time>
      </trkpt>
      <trkpt lat="40.2883530" lon="-3.5513070">
        <ele>515.0</ele>
        <time>2021-04-04T11:03:21Z</time>
      </trkpt>
      <trkpt lat="40.2884140" lon="-3.5512860">
        <ele>515.2</ele>
        <time>2021-04-04T11:03:22Z</time>
      </trkpt>
      <trkpt lat="40.2884750" lon="-3.5512630">
        <ele>515.2</ele>
        <time>2021-04-04T11:03:23Z</time>
      </trkpt>
      <trkpt lat="40.2885360" lon="-3.5512380">
        <ele>515.2</ele>
        <time>2021-04-04T11:03:24Z</time>
      </trkpt>
      <trkpt lat="40.2885970" lon="-3.5512130">
        <ele>515.2</ele>
        <time>2021-04-04T11:03:25Z</time>
      </trkpt>
      <trkpt lat="40.2886580" lon="-3.5511910">
        <ele>515.2</ele>
        <time>2021-04-04T11:03:26Z</time>
      </trkpt>
      <trkpt lat="40.2887190" lon="-3.5511700">
        <ele>515.0</ele>
        <time>2021-04-04T11:03:27Z</time>
      </trkpt>
      <trkpt lat="40.2887800" lon="-3.5511490">
        <ele>515.0</ele>
        <time>2021-04-04T11:03:28Z</time>
      </trkpt>
      <trkpt lat="40.2888370" lon="-3.5511260">
        <ele>515.0</ele>
        <time>2021-04-04T11:03:29Z</time>
      </trkpt>
      <trkpt lat="40.2888980" lon="-3.5510990">
        <ele>515.0</ele>
        <time>2021-04-04T11:03:30Z</time>
      </trkpt>
      <trkpt lat="40.2889600" lon="-3.5510750">
        <ele>515.0</ele>
        <time>2021-04-04T11:03:31Z</time>
      </trkpt>
      <trkpt lat="40.2890170" lon="-3.5510510">
        <ele>515.0</ele>
        <time>2021-04-04T11:03:32Z</time>
      </trkpt>
      <trkpt lat="40.2890740" lon="-3.5510280">
        <ele>515.0</ele>
        <time>2021-04-04T11:03:33Z</time>
      </trkpt>
      <trkpt lat="40.2891310" lon="-3.5510070">
        <ele>515.0</ele>
        <time>2021-04-04T11:03:34Z</time>
      </trkpt>
      <trkpt lat="40.2891920" lon="-3.5509840">
        <ele>515.0</ele>
        <time>2021-04-04T11:03:35Z</time>
      </trkpt>
      <trkpt lat="40.2892490" lon="-3.5509610">
        <ele>515.0</ele>
        <time>2021-04-04T11:03:36Z</time>
      </trkpt>
      <trkpt lat="40.2893070" lon="-3.5509380">
        <ele>515.0</ele>
        <time>2021-04-04T11:03:37Z</time>
      </trkpt>
      <trkpt lat="40.2893640" lon="-3.5509140">
        <ele>515.0</ele>
        <time>2021-04-04T11:03:38Z</time>
      </trkpt>
      <trkpt lat="40.2894210" lon="-3.5508920">
        <ele>515.0</ele>
        <time>2021-04-04T11:03:39Z</time>
      </trkpt>
      <trkpt lat="40.2894820" lon="-3.5508730">
        <ele>515.0</ele>
        <time>2021-04-04T11:03:40Z</time>
      </trkpt>
      <trkpt lat="40.2895470" lon="-3.5508540">
        <ele>515.0</ele>
        <time>2021-04-04T11:03:41Z</time>
      </trkpt>
      <trkpt lat="40.2896120" lon="-3.5508340">
        <ele>515.0</ele>
        <time>2021-04-04T11:03:42Z</time>
      </trkpt>
      <trkpt lat="40.2896730" lon="-3.5508100">
        <ele>514.8</ele>
        <time>2021-04-04T11:03:43Z</time>
      </trkpt>
      <trkpt lat="40.2897380" lon="-3.5507860">
        <ele>514.8</ele>
        <time>2021-04-04T11:03:44Z</time>
      </trkpt>
      <trkpt lat="40.2897990" lon="-3.5507630">
        <ele>514.6</ele>
        <time>2021-04-04T11:03:45Z</time>
      </trkpt>
      <trkpt lat="40.2898600" lon="-3.5507410">
        <ele>514.6</ele>
        <time>2021-04-04T11:03:46Z</time>
      </trkpt>
      <trkpt lat="40.2899210" lon="-3.5507170">
        <ele>514.6</ele>
        <time>2021-04-04T11:03:47Z</time>
      </trkpt>
      <trkpt lat="40.2899820" lon="-3.5506900">
        <ele>514.6</ele>
        <time>2021-04-04T11:03:48Z</time>
      </trkpt>
      <trkpt lat="40.2900430" lon="-3.5506660">
        <ele>514.6</ele>
        <time>2021-04-04T11:03:49Z</time>
      </trkpt>
      <trkpt lat="40.2901040" lon="-3.5506450">
        <ele>514.6</ele>
        <time>2021-04-04T11:03:50Z</time>
      </trkpt>
      <trkpt lat="40.2901690" lon="-3.5506270">
        <ele>514.6</ele>
        <time>2021-04-04T11:03:51Z</time>
      </trkpt>
      <trkpt lat="40.2902340" lon="-3.5506100">
        <ele>514.6</ele>
        <time>2021-04-04T11:03:52Z</time>
      </trkpt>
      <trkpt lat="40.2902950" lon="-3.5505940">
        <ele>514.6</ele>
        <time>2021-04-04T11:03:53Z</time>
      </trkpt>
      <trkpt lat="40.2903560" lon="-3.5505780">
        <ele>514.6</ele>
        <time>2021-04-04T11:03:54Z</time>
      </trkpt>
      <trkpt lat="40.2904170" lon="-3.5505630">
        <ele>514.6</ele>
        <time>2021-04-04T11:03:55Z</time>
      </trkpt>
      <trkpt lat="40.2904780" lon="-3.5505500">
        <ele>514.6</ele>
        <time>2021-04-04T11:03:56Z</time>
      </trkpt>
      <trkpt lat="40.2905430" lon="-3.5505360">
        <ele>514.8</ele>
        <time>2021-04-04T11:03:57Z</time>
      </trkpt>
      <trkpt lat="40.2906040" lon="-3.5505210">
        <ele>514.8</ele>
        <time>2021-04-04T11:03:58Z</time>
      </trkpt>
      <trkpt lat="40.2906690" lon="-3.5505050">
        <ele>514.8</ele>
        <time>2021-04-04T11:03:59Z</time>
      </trkpt>
      <trkpt lat="40.2907300" lon="-3.5504880">
        <ele>514.6</ele>
        <time>2021-04-04T11:04:00Z</time>
      </trkpt>
      <trkpt lat="40.2907940" lon="-3.5504700">
        <ele>514.6</ele>
        <time>2021-04-04T11:04:01Z</time>
      </trkpt>
      <trkpt lat="40.2908550" lon="-3.5504500">
        <ele>514.6</ele>
        <time>2021-04-04T11:04:02Z</time>
      </trkpt>
      <trkpt lat="40.2909200" lon="-3.5504250">
        <ele>514.6</ele>
        <time>2021-04-04T11:04:03Z</time>
      </trkpt>
      <trkpt lat="40.2909810" lon="-3.5503970">
        <ele>514.4</ele>
        <time>2021-04-04T11:04:04Z</time>
      </trkpt>
      <trkpt lat="40.2910420" lon="-3.5503640">
        <ele>514.4</ele>
        <time>2021-04-04T11:04:05Z</time>
      </trkpt>
      <trkpt lat="40.2910960" lon="-3.5503260">
        <ele>514.2</ele>
        <time>2021-04-04T11:04:06Z</time>
      </trkpt>
      <trkpt lat="40.2911530" lon="-3.5502870">
        <ele>514.2</ele>
        <time>2021-04-04T11:04:07Z</time>
      </trkpt>
      <trkpt lat="40.2912100" lon="-3.5502490">
        <ele>514.2</ele>
        <time>2021-04-04T11:04:08Z</time>
      </trkpt>
      <trkpt lat="40.2912670" lon="-3.5502120">
        <ele>514.0</ele>
        <time>2021-04-04T11:04:09Z</time>
      </trkpt>
      <trkpt lat="40.2913250" lon="-3.5501750">
        <ele>514.0</ele>
        <time>2021-04-04T11:04:10Z</time>
      </trkpt>
      <trkpt lat="40.2913820" lon="-3.5501360">
        <ele>514.0</ele>
        <time>2021-04-04T11:04:11Z</time>
      </trkpt>
      <trkpt lat="40.2914350" lon="-3.5500920">
        <ele>514.2</ele>
        <time>2021-04-04T11:04:12Z</time>
      </trkpt>
      <trkpt lat="40.2914890" lon="-3.5500510">
        <ele>514.2</ele>
        <time>2021-04-04T11:04:13Z</time>
      </trkpt>
      <trkpt lat="40.2915380" lon="-3.5500090">
        <ele>514.2</ele>
        <time>2021-04-04T11:04:14Z</time>
      </trkpt>
      <trkpt lat="40.2915880" lon="-3.5499680">
        <ele>514.2</ele>
        <time>2021-04-04T11:04:15Z</time>
      </trkpt>
      <trkpt lat="40.2916370" lon="-3.5499270">
        <ele>514.4</ele>
        <time>2021-04-04T11:04:16Z</time>
      </trkpt>
      <trkpt lat="40.2916830" lon="-3.5498860">
        <ele>514.4</ele>
        <time>2021-04-04T11:04:17Z</time>
      </trkpt>
      <trkpt lat="40.2917290" lon="-3.5498480">
        <ele>514.4</ele>
        <time>2021-04-04T11:04:18Z</time>
      </trkpt>
      <trkpt lat="40.2917790" lon="-3.5498120">
        <ele>514.4</ele>
        <time>2021-04-04T11:04:19Z</time>
      </trkpt>
      <trkpt lat="40.2918280" lon="-3.5497730">
        <ele>514.4</ele>
        <time>2021-04-04T11:04:20Z</time>
      </trkpt>
      <trkpt lat="40.2918780" lon="-3.5497360">
        <ele>514.6</ele>
        <time>2021-04-04T11:04:21Z</time>
      </trkpt>
      <trkpt lat="40.2919240" lon="-3.5496980">
        <ele>514.6</ele>
        <time>2021-04-04T11:04:22Z</time>
      </trkpt>
      <trkpt lat="40.2919730" lon="-3.5496610">
        <ele>514.6</ele>
        <time>2021-04-04T11:04:23Z</time>
      </trkpt>
      <trkpt lat="40.2920190" lon="-3.5496240">
        <ele>514.8</ele>
        <time>2021-04-04T11:04:24Z</time>
      </trkpt>
      <trkpt lat="40.2920680" lon="-3.5495870">
        <ele>514.8</ele>
        <time>2021-04-04T11:04:25Z</time>
      </trkpt>
      <trkpt lat="40.2921180" lon="-3.5495510">
        <ele>515.0</ele>
        <time>2021-04-04T11:04:26Z</time>
      </trkpt>
      <trkpt lat="40.2921640" lon="-3.5495130">
        <ele>515.2</ele>
        <time>2021-04-04T11:04:27Z</time>
      </trkpt>
      <trkpt lat="40.2922100" lon="-3.5494760">
        <ele>515.2</ele>
        <time>2021-04-04T11:04:28Z</time>
      </trkpt>
      <trkpt lat="40.2922520" lon="-3.5494410">
        <ele>515.4</ele>
        <time>2021-04-04T11:04:29Z</time>
      </trkpt>
      <trkpt lat="40.2922970" lon="-3.5494040">
        <ele>515.6</ele>
        <time>2021-04-04T11:04:30Z</time>
      </trkpt>
      <trkpt lat="40.2923430" lon="-3.5493660">
        <ele>515.8</ele>
        <time>2021-04-04T11:04:31Z</time>
      </trkpt>
      <trkpt lat="40.2923890" lon="-3.5493300">
        <ele>516.0</ele>
        <time>2021-04-04T11:04:32Z</time>
      </trkpt>
      <trkpt lat="40.2924350" lon="-3.5492940">
        <ele>516.2</ele>
        <time>2021-04-04T11:04:33Z</time>
      </trkpt>
      <trkpt lat="40.2924840" lon="-3.5492590">
        <ele>516.2</ele>
        <time>2021-04-04T11:04:34Z</time>
      </trkpt>
      <trkpt lat="40.2925300" lon="-3.5492230">
        <ele>516.4</ele>
        <time>2021-04-04T11:04:35Z</time>
      </trkpt>
      <trkpt lat="40.2925760" lon="-3.5491880">
        <ele>516.4</ele>
        <time>2021-04-04T11:04:36Z</time>
      </trkpt>
      <trkpt lat="40.2926220" lon="-3.5491510">
        <ele>516.4</ele>
        <time>2021-04-04T11:04:37Z</time>
      </trkpt>
      <trkpt lat="40.2926710" lon="-3.5491130">
        <ele>516.6</ele>
        <time>2021-04-04T11:04:38Z</time>
      </trkpt>
      <trkpt lat="40.2927210" lon="-3.5490760">
        <ele>516.8</ele>
        <time>2021-04-04T11:04:39Z</time>
      </trkpt>
      <trkpt lat="40.2927670" lon="-3.5490390">
        <ele>516.8</ele>
        <time>2021-04-04T11:04:40Z</time>
      </trkpt>
      <trkpt lat="40.2928090" lon="-3.5489980">
        <ele>517.0</ele>
        <time>2021-04-04T11:04:41Z</time>
      </trkpt>
      <trkpt lat="40.2928470" lon="-3.5489490">
        <ele>517.0</ele>
        <time>2021-04-04T11:04:42Z</time>
      </trkpt>
      <trkpt lat="40.2928810" lon="-3.5488940">
        <ele>517.2</ele>
        <time>2021-04-04T11:04:43Z</time>
      </trkpt>
      <trkpt lat="40.2929120" lon="-3.5488350">
        <ele>517.2</ele>
        <time>2021-04-04T11:04:44Z</time>
      </trkpt>
      <trkpt lat="40.2929420" lon="-3.5487720">
        <ele>517.2</ele>
        <time>2021-04-04T11:04:45Z</time>
      </trkpt>
      <trkpt lat="40.2929650" lon="-3.5487070">
        <ele>517.2</ele>
        <time>2021-04-04T11:04:46Z</time>
      </trkpt>
      <trkpt lat="40.2929880" lon="-3.5486400">
        <ele>517.2</ele>
        <time>2021-04-04T11:04:47Z</time>
      </trkpt>
      <trkpt lat="40.2930030" lon="-3.5485700">
        <ele>517.2</ele>
        <time>2021-04-04T11:04:48Z</time>
      </trkpt>
      <trkpt lat="40.2930150" lon="-3.5484990">
        <ele>517.4</ele>
        <time>2021-04-04T11:04:49Z</time>
      </trkpt>
      <trkpt lat="40.2930220" lon="-3.5484270">
        <ele>517.4</ele>
        <time>2021-04-04T11:04:50Z</time>
      </trkpt>
      <trkpt lat="40.2930300" lon="-3.5483560">
        <ele>517.4</ele>
        <time>2021-04-04T11:04:51Z</time>
      </trkpt>
      <trkpt lat="40.2930410" lon="-3.5482840">
        <ele>517.4</ele>
        <time>2021-04-04T11:04:52Z</time>
      </trkpt>
      <trkpt lat="40.2930490" lon="-3.5482120">
        <ele>517.6</ele>
        <time>2021-04-04T11:04:53Z</time>
      </trkpt>
      <trkpt lat="40.2930600" lon="-3.5481420">
        <ele>517.6</ele>
        <time>2021-04-04T11:04:54Z</time>
      </trkpt>
      <trkpt lat="40.2930680" lon="-3.5480720">
        <ele>517.6</ele>
        <time>2021-04-04T11:04:55Z</time>
      </trkpt>
      <trkpt lat="40.2930790" lon="-3.5480030">
        <ele>517.8</ele>
        <time>2021-04-04T11:04:56Z</time>
      </trkpt>
      <trkpt lat="40.2930950" lon="-3.5479360">
        <ele>517.8</ele>
        <time>2021-04-04T11:04:57Z</time>
      </trkpt>
      <trkpt lat="40.2931140" lon="-3.5478720">
        <ele>517.8</ele>
        <time>2021-04-04T11:04:58Z</time>
      </trkpt>
      <trkpt lat="40.2931400" lon="-3.5478070">
        <ele>517.8</ele>
        <time>2021-04-04T11:04:59Z</time>
      </trkpt>
      <trkpt lat="40.2931670" lon="-3.5477450">
        <ele>517.8</ele>
        <time>2021-04-04T11:05:00Z</time>
      </trkpt>
      <trkpt lat="40.2931980" lon="-3.5476840">
        <ele>518.0</ele>
        <time>2021-04-04T11:05:01Z</time>
      </trkpt>
      <trkpt lat="40.2932320" lon="-3.5476250">
        <ele>518.0</ele>
        <time>2021-04-04T11:05:02Z</time>
      </trkpt>
      <trkpt lat="40.2932700" lon="-3.5475690">
        <ele>518.0</ele>
        <time>2021-04-04T11:05:03Z</time>
      </trkpt>
      <trkpt lat="40.2933120" lon="-3.5475160">
        <ele>518.0</ele>
        <time>2021-04-04T11:05:04Z</time>
      </trkpt>
      <trkpt lat="40.2933540" lon="-3.5474660">
        <ele>518.0</ele>
        <time>2021-04-04T11:05:05Z</time>
      </trkpt>
      <trkpt lat="40.2934000" lon="-3.5474180">
        <ele>518.0</ele>
        <time>2021-04-04T11:05:06Z</time>
      </trkpt>
      <trkpt lat="40.2934490" lon="-3.5473770">
        <ele>518.0</ele>
        <time>2021-04-04T11:05:07Z</time>
      </trkpt>
      <trkpt lat="40.2934990" lon="-3.5473400">
        <ele>518.0</ele>
        <time>2021-04-04T11:05:08Z</time>
      </trkpt>
      <trkpt lat="40.2935520" lon="-3.5473060">
        <ele>518.0</ele>
        <time>2021-04-04T11:05:09Z</time>
      </trkpt>
      <trkpt lat="40.2936060" lon="-3.5472740">
        <ele>517.8</ele>
        <time>2021-04-04T11:05:10Z</time>
      </trkpt>
      <trkpt lat="40.2936590" lon="-3.5472410">
        <ele>517.8</ele>
        <time>2021-04-04T11:05:11Z</time>
      </trkpt>
      <trkpt lat="40.2937160" lon="-3.5472020">
        <ele>517.6</ele>
        <time>2021-04-04T11:05:12Z</time>
      </trkpt>
      <trkpt lat="40.2937770" lon="-3.5471600">
        <ele>517.6</ele>
        <time>2021-04-04T11:05:13Z</time>
      </trkpt>
      <trkpt lat="40.2938350" lon="-3.5471230">
        <ele>517.6</ele>
        <time>2021-04-04T11:05:14Z</time>
      </trkpt>
      <trkpt lat="40.2938920" lon="-3.5470890">
        <ele>517.6</ele>
        <time>2021-04-04T11:05:15Z</time>
      </trkpt>
      <trkpt lat="40.2939490" lon="-3.5470550">
        <ele>517.6</ele>
        <time>2021-04-04T11:05:16Z</time>
      </trkpt>
      <trkpt lat="40.2940030" lon="-3.5470200">
        <ele>517.6</ele>
        <time>2021-04-04T11:05:17Z</time>
      </trkpt>
      <trkpt lat="40.2940560" lon="-3.5469860">
        <ele>517.6</ele>
        <time>2021-04-04T11:05:18Z</time>
      </trkpt>
      <trkpt lat="40.2941090" lon="-3.5469520">
        <ele>517.6</ele>
        <time>2021-04-04T11:05:19Z</time>
      </trkpt>
      <trkpt lat="40.2941670" lon="-3.5469160">
        <ele>517.6</ele>
        <time>2021-04-04T11:05:20Z</time>
      </trkpt>
      <trkpt lat="40.2942200" lon="-3.5468810">
        <ele>517.6</ele>
        <time>2021-04-04T11:05:21Z</time>
      </trkpt>
      <trkpt lat="40.2942730" lon="-3.5468460">
        <ele>517.6</ele>
        <time>2021-04-04T11:05:22Z</time>
      </trkpt>
      <trkpt lat="40.2943270" lon="-3.5468120">
        <ele>517.6</ele>
        <time>2021-04-04T11:05:23Z</time>
      </trkpt>
      <trkpt lat="40.2943800" lon="-3.5467770">
        <ele>517.6</ele>
        <time>2021-04-04T11:05:24Z</time>
      </trkpt>
      <trkpt lat="40.2944340" lon="-3.5467420">
        <ele>517.6</ele>
        <time>2021-04-04T11:05:25Z</time>
      </trkpt>
      <trkpt lat="40.2944910" lon="-3.5467080">
        <ele>517.6</ele>
        <time>2021-04-04T11:05:26Z</time>
      </trkpt>
      <trkpt lat="40.2945440" lon="-3.5466740">
        <ele>517.6</ele>
        <time>2021-04-04T11:05:27Z</time>
      </trkpt>
      <trkpt lat="40.2945980" lon="-3.5466410">
        <ele>517.6</ele>
        <time>2021-04-04T11:05:28Z</time>
      </trkpt>
      <trkpt lat="40.2946510" lon="-3.5466090">
        <ele>517.6</ele>
        <time>2021-04-04T11:05:29Z</time>
      </trkpt>
      <trkpt lat="40.2947040" lon="-3.5465750">
        <ele>517.6</ele>
        <time>2021-04-04T11:05:30Z</time>
      </trkpt>
      <trkpt lat="40.2947580" lon="-3.5465410">
        <ele>517.6</ele>
        <time>2021-04-04T11:05:31Z</time>
      </trkpt>
      <trkpt lat="40.2948150" lon="-3.5465070">
        <ele>517.6</ele>
        <time>2021-04-04T11:05:32Z</time>
      </trkpt>
      <trkpt lat="40.2948680" lon="-3.5464740">
        <ele>517.6</ele>
        <time>2021-04-04T11:05:33Z</time>
      </trkpt>
      <trkpt lat="40.2949260" lon="-3.5464400">
        <ele>517.6</ele>
        <time>2021-04-04T11:05:34Z</time>
      </trkpt>
      <trkpt lat="40.2949790" lon="-3.5464070">
        <ele>517.6</ele>
        <time>2021-04-04T11:05:35Z</time>
      </trkpt>
      <trkpt lat="40.2950320" lon="-3.5463710">
        <ele>517.6</ele>
        <time>2021-04-04T11:05:36Z</time>
      </trkpt>
      <trkpt lat="40.2950860" lon="-3.5463370">
        <ele>517.8</ele>
        <time>2021-04-04T11:05:37Z</time>
      </trkpt>
      <trkpt lat="40.2951390" lon="-3.5463040">
        <ele>517.8</ele>
        <time>2021-04-04T11:05:38Z</time>
      </trkpt>
      <trkpt lat="40.2951970" lon="-3.5462710">
        <ele>517.8</ele>
        <time>2021-04-04T11:05:39Z</time>
      </trkpt>
      <trkpt lat="40.2952540" lon="-3.5462400">
        <ele>518.0</ele>
        <time>2021-04-04T11:05:40Z</time>
      </trkpt>
      <trkpt lat="40.2953070" lon="-3.5462090">
        <ele>518.0</ele>
        <time>2021-04-04T11:05:41Z</time>
      </trkpt>
      <trkpt lat="40.2953610" lon="-3.5461760">
        <ele>518.0</ele>
        <time>2021-04-04T11:05:42Z</time>
      </trkpt>
      <trkpt lat="40.2954180" lon="-3.5461440">
        <ele>518.0</ele>
        <time>2021-04-04T11:05:43Z</time>
      </trkpt>
      <trkpt lat="40.2954750" lon="-3.5461150">
        <ele>518.0</ele>
        <time>2021-04-04T11:05:44Z</time>
      </trkpt>
      <trkpt lat="40.2955280" lon="-3.5460840">
        <ele>518.0</ele>
        <time>2021-04-04T11:05:45Z</time>
      </trkpt>
      <trkpt lat="40.2955860" lon="-3.5460500">
        <ele>518.0</ele>
        <time>2021-04-04T11:05:46Z</time>
      </trkpt>
      <trkpt lat="40.2956390" lon="-3.5460130">
        <ele>518.0</ele>
        <time>2021-04-04T11:05:47Z</time>
      </trkpt>
      <trkpt lat="40.2956960" lon="-3.5459740">
        <ele>517.8</ele>
        <time>2021-04-04T11:05:48Z</time>
      </trkpt>
      <trkpt lat="40.2957500" lon="-3.5459320">
        <ele>517.8</ele>
        <time>2021-04-04T11:05:49Z</time>
      </trkpt>
      <trkpt lat="40.2958070" lon="-3.5458880">
        <ele>517.6</ele>
        <time>2021-04-04T11:05:50Z</time>
      </trkpt>
      <trkpt lat="40.2958640" lon="-3.5458440">
        <ele>517.4</ele>
        <time>2021-04-04T11:05:51Z</time>
      </trkpt>
      <trkpt lat="40.2959180" lon="-3.5457970">
        <ele>517.4</ele>
        <time>2021-04-04T11:05:52Z</time>
      </trkpt>
      <trkpt lat="40.2959710" lon="-3.5457490">
        <ele>517.2</ele>
        <time>2021-04-04T11:05:53Z</time>
      </trkpt>
      <trkpt lat="40.2960280" lon="-3.5457000">
        <ele>517.0</ele>
        <time>2021-04-04T11:05:54Z</time>
      </trkpt>
      <trkpt lat="40.2960890" lon="-3.5456500">
        <ele>516.8</ele>
        <time>2021-04-04T11:05:55Z</time>
      </trkpt>
      <trkpt lat="40.2961430" lon="-3.5456010">
        <ele>516.6</ele>
        <time>2021-04-04T11:05:56Z</time>
      </trkpt>
      <trkpt lat="40.2962000" lon="-3.5455550">
        <ele>516.4</ele>
        <time>2021-04-04T11:05:57Z</time>
      </trkpt>
      <trkpt lat="40.2962610" lon="-3.5455090">
        <ele>516.2</ele>
        <time>2021-04-04T11:05:58Z</time>
      </trkpt>
      <trkpt lat="40.2963220" lon="-3.5454680">
        <ele>516.0</ele>
        <time>2021-04-04T11:05:59Z</time>
      </trkpt>
      <trkpt lat="40.2963870" lon="-3.5454340">
        <ele>516.0</ele>
        <time>2021-04-04T11:06:00Z</time>
      </trkpt>
      <trkpt lat="40.2964550" lon="-3.5454050">
        <ele>515.8</ele>
        <time>2021-04-04T11:06:01Z</time>
      </trkpt>
      <trkpt lat="40.2965240" lon="-3.5453780">
        <ele>515.6</ele>
        <time>2021-04-04T11:06:02Z</time>
      </trkpt>
      <trkpt lat="40.2965850" lon="-3.5453520">
        <ele>515.6</ele>
        <time>2021-04-04T11:06:03Z</time>
      </trkpt>
      <trkpt lat="40.2966540" lon="-3.5453280">
        <ele>515.4</ele>
        <time>2021-04-04T11:06:04Z</time>
      </trkpt>
      <trkpt lat="40.2967190" lon="-3.5453040">
        <ele>515.2</ele>
        <time>2021-04-04T11:06:05Z</time>
      </trkpt>
      <trkpt lat="40.2967830" lon="-3.5452770">
        <ele>515.2</ele>
        <time>2021-04-04T11:06:06Z</time>
      </trkpt>
      <trkpt lat="40.2968440" lon="-3.5452470">
        <ele>515.2</ele>
        <time>2021-04-04T11:06:07Z</time>
      </trkpt>
      <trkpt lat="40.2969050" lon="-3.5452150">
        <ele>515.0</ele>
        <time>2021-04-04T11:06:08Z</time>
      </trkpt>
      <trkpt lat="40.2969670" lon="-3.5451810">
        <ele>515.0</ele>
        <time>2021-04-04T11:06:09Z</time>
      </trkpt>
      <trkpt lat="40.2970240" lon="-3.5451440">
        <ele>515.0</ele>
        <time>2021-04-04T11:06:10Z</time>
      </trkpt>
      <trkpt lat="40.2970810" lon="-3.5451060">
        <ele>514.8</ele>
        <time>2021-04-04T11:06:11Z</time>
      </trkpt>
      <trkpt lat="40.2971420" lon="-3.5450690">
        <ele>514.8</ele>
        <time>2021-04-04T11:06:12Z</time>
      </trkpt>
      <trkpt lat="40.2972030" lon="-3.5450310">
        <ele>514.8</ele>
        <time>2021-04-04T11:06:13Z</time>
      </trkpt>
      <trkpt lat="40.2972600" lon="-3.5449950">
        <ele>514.8</ele>
        <time>2021-04-04T11:06:14Z</time>
      </trkpt>
      <trkpt lat="40.2973210" lon="-3.5449590">
        <ele>514.6</ele>
        <time>2021-04-04T11:06:15Z</time>
      </trkpt>
      <trkpt lat="40.2973820" lon="-3.5449250">
        <ele>514.6</ele>
        <time>2021-04-04T11:06:16Z</time>
      </trkpt>
      <trkpt lat="40.2974400" lon="-3.5448910">
        <ele>514.6</ele>
        <time>2021-04-04T11:06:17Z</time>
      </trkpt>
      <trkpt lat="40.2975010" lon="-3.5448550">
        <ele>514.6</ele>
        <time>2021-04-04T11:06:18Z</time>
      </trkpt>
      <trkpt lat="40.2975620" lon="-3.5448190">
        <ele>514.6</ele>
        <time>2021-04-04T11:06:19Z</time>
      </trkpt>
      <trkpt lat="40.2976230" lon="-3.5447850">
        <ele>514.4</ele>
        <time>2021-04-04T11:06:20Z</time>
      </trkpt>
      <trkpt lat="40.2976800" lon="-3.5447510">
        <ele>514.6</ele>
        <time>2021-04-04T11:06:21Z</time>
      </trkpt>
      <trkpt lat="40.2977370" lon="-3.5447170">
        <ele>514.6</ele>
        <time>2021-04-04T11:06:22Z</time>
      </trkpt>
      <trkpt lat="40.2977910" lon="-3.5446830">
        <ele>514.6</ele>
        <time>2021-04-04T11:06:23Z</time>
      </trkpt>
      <trkpt lat="40.2978520" lon="-3.5446480">
        <ele>514.6</ele>
        <time>2021-04-04T11:06:24Z</time>
      </trkpt>
      <trkpt lat="40.2979050" lon="-3.5446100">
        <ele>514.6</ele>
        <time>2021-04-04T11:06:25Z</time>
      </trkpt>
      <trkpt lat="40.2979580" lon="-3.5445740">
        <ele>514.6</ele>
        <time>2021-04-04T11:06:26Z</time>
      </trkpt>
      <trkpt lat="40.2980160" lon="-3.5445410">
        <ele>514.6</ele>
        <time>2021-04-04T11:06:27Z</time>
      </trkpt>
      <trkpt lat="40.2980690" lon="-3.5445080">
        <ele>514.6</ele>
        <time>2021-04-04T11:06:28Z</time>
      </trkpt>
      <trkpt lat="40.2981220" lon="-3.5444740">
        <ele>514.6</ele>
        <time>2021-04-04T11:06:29Z</time>
      </trkpt>
      <trkpt lat="40.2981760" lon="-3.5444400">
        <ele>514.6</ele>
        <time>2021-04-04T11:06:30Z</time>
      </trkpt>
      <trkpt lat="40.2982290" lon="-3.5444050">
        <ele>514.8</ele>
        <time>2021-04-04T11:06:31Z</time>
      </trkpt>
      <trkpt lat="40.2982790" lon="-3.5443720">
        <ele>514.8</ele>
        <time>2021-04-04T11:06:32Z</time>
      </trkpt>
      <trkpt lat="40.2983280" lon="-3.5443390">
        <ele>514.8</ele>
        <time>2021-04-04T11:06:33Z</time>
      </trkpt>
      <trkpt lat="40.2983740" lon="-3.5443100">
        <ele>515.0</ele>
        <time>2021-04-04T11:06:34Z</time>
      </trkpt>
      <trkpt lat="40.2984200" lon="-3.5442850">
        <ele>515.0</ele>
        <time>2021-04-04T11:06:35Z</time>
      </trkpt>
      <trkpt lat="40.2984660" lon="-3.5442660">
        <ele>515.2</ele>
        <time>2021-04-04T11:06:36Z</time>
      </trkpt>
      <trkpt lat="40.2985110" lon="-3.5442540">
        <ele>515.2</ele>
        <time>2021-04-04T11:06:37Z</time>
      </trkpt>
      <trkpt lat="40.2985530" lon="-3.5442450">
        <ele>515.2</ele>
        <time>2021-04-04T11:06:38Z</time>
      </trkpt>
      <trkpt lat="40.2985950" lon="-3.5442370">
        <ele>515.4</ele>
        <time>2021-04-04T11:06:39Z</time>
      </trkpt>
      <trkpt lat="40.2986340" lon="-3.5442260">
        <ele>515.6</ele>
        <time>2021-04-04T11:06:40Z</time>
      </trkpt>
      <trkpt lat="40.2986680" lon="-3.5442150">
        <ele>515.8</ele>
        <time>2021-04-04T11:06:41Z</time>
      </trkpt>
      <trkpt lat="40.2986980" lon="-3.5442100">
        <ele>516.0</ele>
        <time>2021-04-04T11:06:42Z</time>
      </trkpt>
      <trkpt lat="40.2987290" lon="-3.5442110">
        <ele>516.4</ele>
        <time>2021-04-04T11:06:43Z</time>
      </trkpt>
      <trkpt lat="40.2987590" lon="-3.5442120">
        <ele>516.6</ele>
        <time>2021-04-04T11:06:44Z</time>
      </trkpt>
      <trkpt lat="40.2987900" lon="-3.5442100">
        <ele>517.0</ele>
        <time>2021-04-04T11:06:45Z</time>
      </trkpt>
      <trkpt lat="40.2988170" lon="-3.5442080">
        <ele>517.4</ele>
        <time>2021-04-04T11:06:46Z</time>
      </trkpt>
      <trkpt lat="40.2988430" lon="-3.5442040">
        <ele>517.8</ele>
        <time>2021-04-04T11:06:47Z</time>
      </trkpt>
      <trkpt lat="40.2988700" lon="-3.5441970">
        <ele>518.2</ele>
        <time>2021-04-04T11:06:48Z</time>
      </trkpt>
      <trkpt lat="40.2989010" lon="-3.5441890">
        <ele>518.6</ele>
        <time>2021-04-04T11:06:49Z</time>
      </trkpt>
      <trkpt lat="40.2989270" lon="-3.5441780">
        <ele>518.8</ele>
        <time>2021-04-04T11:06:50Z</time>
      </trkpt>
      <trkpt lat="40.2989580" lon="-3.5441650">
        <ele>519.2</ele>
        <time>2021-04-04T11:06:51Z</time>
      </trkpt>
      <trkpt lat="40.2989850" lon="-3.5441520">
        <ele>519.6</ele>
        <time>2021-04-04T11:06:52Z</time>
      </trkpt>
      <trkpt lat="40.2990110" lon="-3.5441390">
        <ele>520.0</ele>
        <time>2021-04-04T11:06:53Z</time>
      </trkpt>
      <trkpt lat="40.2990380" lon="-3.5441260">
        <ele>520.4</ele>
        <time>2021-04-04T11:06:54Z</time>
      </trkpt>
      <trkpt lat="40.2990650" lon="-3.5441110">
        <ele>520.8</ele>
        <time>2021-04-04T11:06:55Z</time>
      </trkpt>
      <trkpt lat="40.2990880" lon="-3.5440930">
        <ele>521.0</ele>
        <time>2021-04-04T11:06:56Z</time>
      </trkpt>
      <trkpt lat="40.2991140" lon="-3.5440750">
        <ele>521.4</ele>
        <time>2021-04-04T11:06:57Z</time>
      </trkpt>
      <trkpt lat="40.2991370" lon="-3.5440590">
        <ele>521.6</ele>
        <time>2021-04-04T11:06:58Z</time>
      </trkpt>
      <trkpt lat="40.2991640" lon="-3.5440470">
        <ele>522.0</ele>
        <time>2021-04-04T11:06:59Z</time>
      </trkpt>
      <trkpt lat="40.2991870" lon="-3.5440380">
        <ele>522.2</ele>
        <time>2021-04-04T11:07:00Z</time>
      </trkpt>
      <trkpt lat="40.2992130" lon="-3.5440260">
        <ele>522.4</ele>
        <time>2021-04-04T11:07:01Z</time>
      </trkpt>
      <trkpt lat="40.2992400" lon="-3.5440130">
        <ele>522.6</ele>
        <time>2021-04-04T11:07:02Z</time>
      </trkpt>
      <trkpt lat="40.2992670" lon="-3.5440010">
        <ele>522.8</ele>
        <time>2021-04-04T11:07:03Z</time>
      </trkpt>
      <trkpt lat="40.2992940" lon="-3.5439910">
        <ele>523.0</ele>
        <time>2021-04-04T11:07:04Z</time>
      </trkpt>
      <trkpt lat="40.2993200" lon="-3.5439840">
        <ele>523.2</ele>
        <time>2021-04-04T11:07:05Z</time>
      </trkpt>
      <trkpt lat="40.2993470" lon="-3.5439770">
        <ele>523.2</ele>
        <time>2021-04-04T11:07:06Z</time>
      </trkpt>
      <trkpt lat="40.2993740" lon="-3.5439680">
        <ele>523.4</ele>
        <time>2021-04-04T11:07:07Z</time>
      </trkpt>
      <trkpt lat="40.2994000" lon="-3.5439570">
        <ele>523.4</ele>
        <time>2021-04-04T11:07:08Z</time>
      </trkpt>
      <trkpt lat="40.2994310" lon="-3.5439460">
        <ele>523.6</ele>
        <time>2021-04-04T11:07:09Z</time>
      </trkpt>
      <trkpt lat="40.2994610" lon="-3.5439350">
        <ele>523.6</ele>
        <time>2021-04-04T11:07:10Z</time>
      </trkpt>
      <trkpt lat="40.2994920" lon="-3.5439210">
        <ele>523.8</ele>
        <time>2021-04-04T11:07:11Z</time>
      </trkpt>
      <trkpt lat="40.2995190" lon="-3.5439080">
        <ele>524.0</ele>
        <time>2021-04-04T11:07:12Z</time>
      </trkpt>
      <trkpt lat="40.2995490" lon="-3.5438960">
        <ele>524.0</ele>
        <time>2021-04-04T11:07:13Z</time>
      </trkpt>
      <trkpt lat="40.2995760" lon="-3.5438860">
        <ele>524.2</ele>
        <time>2021-04-04T11:07:14Z</time>
      </trkpt>
      <trkpt lat="40.2996030" lon="-3.5438780">
        <ele>524.4</ele>
        <time>2021-04-04T11:07:15Z</time>
      </trkpt>
      <trkpt lat="40.2996330" lon="-3.5438710">
        <ele>524.6</ele>
        <time>2021-04-04T11:07:16Z</time>
      </trkpt>
      <trkpt lat="40.2996600" lon="-3.5438640">
        <ele>524.8</ele>
        <time>2021-04-04T11:07:17Z</time>
      </trkpt>
      <trkpt lat="40.2996860" lon="-3.5438520">
        <ele>525.0</ele>
        <time>2021-04-04T11:07:18Z</time>
      </trkpt>
      <trkpt lat="40.2997130" lon="-3.5438380">
        <ele>525.2</ele>
        <time>2021-04-04T11:07:19Z</time>
      </trkpt>
      <trkpt lat="40.2997400" lon="-3.5438230">
        <ele>525.4</ele>
        <time>2021-04-04T11:07:20Z</time>
      </trkpt>
      <trkpt lat="40.2997670" lon="-3.5438110">
        <ele>525.6</ele>
        <time>2021-04-04T11:07:21Z</time>
      </trkpt>
      <trkpt lat="40.2997930" lon="-3.5438010">
        <ele>525.8</ele>
        <time>2021-04-04T11:07:22Z</time>
      </trkpt>
      <trkpt lat="40.2998240" lon="-3.5437910">
        <ele>526.0</ele>
        <time>2021-04-04T11:07:23Z</time>
      </trkpt>
      <trkpt lat="40.2998500" lon="-3.5437810">
        <ele>526.0</ele>
        <time>2021-04-04T11:07:24Z</time>
      </trkpt>
      <trkpt lat="40.2998810" lon="-3.5437700">
        <ele>526.2</ele>
        <time>2021-04-04T11:07:25Z</time>
      </trkpt>
      <trkpt lat="40.2999080" lon="-3.5437560">
        <ele>526.2</ele>
        <time>2021-04-04T11:07:26Z</time>
      </trkpt>
      <trkpt lat="40.2999340" lon="-3.5437420">
        <ele>526.4</ele>
        <time>2021-04-04T11:07:27Z</time>
      </trkpt>
      <trkpt lat="40.2999650" lon="-3.5437300">
        <ele>526.4</ele>
        <time>2021-04-04T11:07:28Z</time>
      </trkpt>
      <trkpt lat="40.2999950" lon="-3.5437170">
        <ele>526.6</ele>
        <time>2021-04-04T11:07:29Z</time>
      </trkpt>
      <trkpt lat="40.3000260" lon="-3.5437050">
        <ele>526.6</ele>
        <time>2021-04-04T11:07:30Z</time>
      </trkpt>
      <trkpt lat="40.3000560" lon="-3.5436910">
        <ele>526.8</ele>
        <time>2021-04-04T11:07:31Z</time>
      </trkpt>
      <trkpt lat="40.3000910" lon="-3.5436750">
        <ele>526.8</ele>
        <time>2021-04-04T11:07:32Z</time>
      </trkpt>
      <trkpt lat="40.3001250" lon="-3.5436570">
        <ele>526.8</ele>
        <time>2021-04-04T11:07:33Z</time>
      </trkpt>
      <trkpt lat="40.3001590" lon="-3.5436340">
        <ele>526.8</ele>
        <time>2021-04-04T11:07:34Z</time>
      </trkpt>
      <trkpt lat="40.3001860" lon="-3.5436090">
        <ele>526.8</ele>
        <time>2021-04-04T11:07:35Z</time>
      </trkpt>
      <trkpt lat="40.3002130" lon="-3.5435830">
        <ele>526.8</ele>
        <time>2021-04-04T11:07:36Z</time>
      </trkpt>
      <trkpt lat="40.3002400" lon="-3.5435580">
        <ele>526.8</ele>
        <time>2021-04-04T11:07:37Z</time>
      </trkpt>
      <trkpt lat="40.3002660" lon="-3.5435360">
        <ele>526.8</ele>
        <time>2021-04-04T11:07:38Z</time>
      </trkpt>
      <trkpt lat="40.3003010" lon="-3.5435160">
        <ele>526.6</ele>
        <time>2021-04-04T11:07:39Z</time>
      </trkpt>
      <trkpt lat="40.3003310" lon="-3.5434980">
        <ele>526.6</ele>
        <time>2021-04-04T11:07:40Z</time>
      </trkpt>
      <trkpt lat="40.3003620" lon="-3.5434770">
        <ele>526.6</ele>
        <time>2021-04-04T11:07:41Z</time>
      </trkpt>
      <trkpt lat="40.3003920" lon="-3.5434500">
        <ele>526.6</ele>
        <time>2021-04-04T11:07:42Z</time>
      </trkpt>
      <trkpt lat="40.3004230" lon="-3.5434200">
        <ele>526.6</ele>
        <time>2021-04-04T11:07:43Z</time>
      </trkpt>
      <trkpt lat="40.3004530" lon="-3.5433910">
        <ele>526.6</ele>
        <time>2021-04-04T11:07:44Z</time>
      </trkpt>
      <trkpt lat="40.3004840" lon="-3.5433630">
        <ele>526.6</ele>
        <time>2021-04-04T11:07:45Z</time>
      </trkpt>
      <trkpt lat="40.3005100" lon="-3.5433340">
        <ele>526.6</ele>
        <time>2021-04-04T11:07:46Z</time>
      </trkpt>
      <trkpt lat="40.3005370" lon="-3.5433020">
        <ele>526.6</ele>
        <time>2021-04-04T11:07:47Z</time>
      </trkpt>
      <trkpt lat="40.3005680" lon="-3.5432700">
        <ele>526.6</ele>
        <time>2021-04-04T11:07:48Z</time>
      </trkpt>
      <trkpt lat="40.3005940" lon="-3.5432400">
        <ele>526.6</ele>
        <time>2021-04-04T11:07:49Z</time>
      </trkpt>
      <trkpt lat="40.3006250" lon="-3.5432070">
        <ele>526.6</ele>
        <time>2021-04-04T11:07:50Z</time>
      </trkpt>
      <trkpt lat="40.3006520" lon="-3.5431730">
        <ele>526.6</ele>
        <time>2021-04-04T11:07:51Z</time>
      </trkpt>
      <trkpt lat="40.3006820" lon="-3.5431360">
        <ele>526.4</ele>
        <time>2021-04-04T11:07:52Z</time>
      </trkpt>
      <trkpt lat="40.3007130" lon="-3.5431020">
        <ele>526.4</ele>
        <time>2021-04-04T11:07:53Z</time>
      </trkpt>
      <trkpt lat="40.3007430" lon="-3.5430680">
        <ele>526.4</ele>
        <time>2021-04-04T11:07:54Z</time>
      </trkpt>
      <trkpt lat="40.3007770" lon="-3.5430380">
        <ele>526.4</ele>
        <time>2021-04-04T11:07:55Z</time>
      </trkpt>
      <trkpt lat="40.3008160" lon="-3.5430160">
        <ele>526.4</ele>
        <time>2021-04-04T11:07:56Z</time>
      </trkpt>
      <trkpt lat="40.3008500" lon="-3.5430030">
        <ele>526.4</ele>
        <time>2021-04-04T11:07:57Z</time>
      </trkpt>
      <trkpt lat="40.3008840" lon="-3.5429920">
        <ele>526.6</ele>
        <time>2021-04-04T11:07:58Z</time>
      </trkpt>
      <trkpt lat="40.3009220" lon="-3.5429810">
        <ele>526.6</ele>
        <time>2021-04-04T11:07:59Z</time>
      </trkpt>
      <trkpt lat="40.3009610" lon="-3.5429700">
        <ele>526.8</ele>
        <time>2021-04-04T11:08:00Z</time>
      </trkpt>
      <trkpt lat="40.3009950" lon="-3.5429610">
        <ele>527.0</ele>
        <time>2021-04-04T11:08:01Z</time>
      </trkpt>
      <trkpt lat="40.3010290" lon="-3.5429520">
        <ele>527.0</ele>
        <time>2021-04-04T11:08:02Z</time>
      </trkpt>
      <trkpt lat="40.3010670" lon="-3.5429430">
        <ele>527.2</ele>
        <time>2021-04-04T11:08:03Z</time>
      </trkpt>
      <trkpt lat="40.3011020" lon="-3.5429360">
        <ele>527.4</ele>
        <time>2021-04-04T11:08:04Z</time>
      </trkpt>
      <trkpt lat="40.3011360" lon="-3.5429320">
        <ele>527.6</ele>
        <time>2021-04-04T11:08:05Z</time>
      </trkpt>
      <trkpt lat="40.3011700" lon="-3.5429280">
        <ele>527.8</ele>
        <time>2021-04-04T11:08:06Z</time>
      </trkpt>
      <trkpt lat="40.3012050" lon="-3.5429190">
        <ele>528.0</ele>
        <time>2021-04-04T11:08:07Z</time>
      </trkpt>
      <trkpt lat="40.3012390" lon="-3.5429100">
        <ele>528.2</ele>
        <time>2021-04-04T11:08:08Z</time>
      </trkpt>
      <trkpt lat="40.3012770" lon="-3.5429020">
        <ele>528.4</ele>
        <time>2021-04-04T11:08:09Z</time>
      </trkpt>
      <trkpt lat="40.3013150" lon="-3.5428960">
        <ele>528.6</ele>
        <time>2021-04-04T11:08:10Z</time>
      </trkpt>
      <trkpt lat="40.3013500" lon="-3.5428890">
        <ele>528.8</ele>
        <time>2021-04-04T11:08:11Z</time>
      </trkpt>
      <trkpt lat="40.3013880" lon="-3.5428830">
        <ele>528.8</ele>
        <time>2021-04-04T11:08:12Z</time>
      </trkpt>
      <trkpt lat="40.3014260" lon="-3.5428770">
        <ele>529.0</ele>
        <time>2021-04-04T11:08:13Z</time>
      </trkpt>
      <trkpt lat="40.3014640" lon="-3.5428710">
        <ele>529.0</ele>
        <time>2021-04-04T11:08:14Z</time>
      </trkpt>
      <trkpt lat="40.3014980" lon="-3.5428660">
        <ele>529.0</ele>
        <time>2021-04-04T11:08:15Z</time>
      </trkpt>
      <trkpt lat="40.3015370" lon="-3.5428620">
        <ele>529.2</ele>
        <time>2021-04-04T11:08:16Z</time>
      </trkpt>
      <trkpt lat="40.3015710" lon="-3.5428640">
        <ele>529.2</ele>
        <time>2021-04-04T11:08:17Z</time>
      </trkpt>
      <trkpt lat="40.3016090" lon="-3.5428680">
        <ele>529.4</ele>
        <time>2021-04-04T11:08:18Z</time>
      </trkpt>
      <trkpt lat="40.3016360" lon="-3.5428640">
        <ele>529.6</ele>
        <time>2021-04-04T11:08:19Z</time>
      </trkpt>
      <trkpt lat="40.3016620" lon="-3.5428560">
        <ele>529.8</ele>
        <time>2021-04-04T11:08:20Z</time>
      </trkpt>
      <trkpt lat="40.3016890" lon="-3.5428450">
        <ele>530.0</ele>
        <time>2021-04-04T11:08:21Z</time>
      </trkpt>
      <trkpt lat="40.3017200" lon="-3.5428350">
        <ele>530.2</ele>
        <time>2021-04-04T11:08:22Z</time>
      </trkpt>
      <trkpt lat="40.3017540" lon="-3.5428270">
        <ele>530.4</ele>
        <time>2021-04-04T11:08:23Z</time>
      </trkpt>
      <trkpt lat="40.3017880" lon="-3.5428190">
        <ele>530.4</ele>
        <time>2021-04-04T11:08:24Z</time>
      </trkpt>
      <trkpt lat="40.3018230" lon="-3.5428110">
        <ele>530.4</ele>
        <time>2021-04-04T11:08:25Z</time>
      </trkpt>
      <trkpt lat="40.3018610" lon="-3.5428050">
        <ele>530.6</ele>
        <time>2021-04-04T11:08:26Z</time>
      </trkpt>
      <trkpt lat="40.3018990" lon="-3.5427980">
        <ele>530.6</ele>
        <time>2021-04-04T11:08:27Z</time>
      </trkpt>
      <trkpt lat="40.3019370" lon="-3.5427930">
        <ele>530.6</ele>
        <time>2021-04-04T11:08:28Z</time>
      </trkpt>
      <trkpt lat="40.3019750" lon="-3.5427890">
        <ele>530.6</ele>
        <time>2021-04-04T11:08:29Z</time>
      </trkpt>
      <trkpt lat="40.3020130" lon="-3.5427850">
        <ele>530.6</ele>
        <time>2021-04-04T11:08:30Z</time>
      </trkpt>
      <trkpt lat="40.3020520" lon="-3.5427790">
        <ele>530.6</ele>
        <time>2021-04-04T11:08:31Z</time>
      </trkpt>
      <trkpt lat="40.3020900" lon="-3.5427740">
        <ele>530.6</ele>
        <time>2021-04-04T11:08:32Z</time>
      </trkpt>
      <trkpt lat="40.3021320" lon="-3.5427710">
        <ele>530.6</ele>
        <time>2021-04-04T11:08:33Z</time>
      </trkpt>
      <trkpt lat="40.3021660" lon="-3.5427640">
        <ele>530.6</ele>
        <time>2021-04-04T11:08:34Z</time>
      </trkpt>
      <trkpt lat="40.3022000" lon="-3.5427580">
        <ele>530.8</ele>
        <time>2021-04-04T11:08:35Z</time>
      </trkpt>
      <trkpt lat="40.3022380" lon="-3.5427520">
        <ele>531.0</ele>
        <time>2021-04-04T11:08:36Z</time>
      </trkpt>
      <trkpt lat="40.3022730" lon="-3.5427430">
        <ele>531.2</ele>
        <time>2021-04-04T11:08:37Z</time>
      </trkpt>
      <trkpt lat="40.3023110" lon="-3.5427310">
        <ele>531.4</ele>
        <time>2021-04-04T11:08:38Z</time>
      </trkpt>
      <trkpt lat="40.3023450" lon="-3.5427160">
        <ele>531.4</ele>
        <time>2021-04-04T11:08:39Z</time>
      </trkpt>
      <trkpt lat="40.3023800" lon="-3.5427030">
        <ele>531.6</ele>
        <time>2021-04-04T11:08:40Z</time>
      </trkpt>
      <trkpt lat="40.3024100" lon="-3.5426910">
        <ele>531.8</ele>
        <time>2021-04-04T11:08:41Z</time>
      </trkpt>
      <trkpt lat="40.3024440" lon="-3.5426800">
        <ele>531.8</ele>
        <time>2021-04-04T11:08:42Z</time>
      </trkpt>
      <trkpt lat="40.3024790" lon="-3.5426650">
        <ele>532.0</ele>
        <time>2021-04-04T11:08:43Z</time>
      </trkpt>
      <trkpt lat="40.3025090" lon="-3.5426500">
        <ele>532.2</ele>
        <time>2021-04-04T11:08:44Z</time>
      </trkpt>
      <trkpt lat="40.3025400" lon="-3.5426360">
        <ele>532.2</ele>
        <time>2021-04-04T11:08:45Z</time>
      </trkpt>
      <trkpt lat="40.3025740" lon="-3.5426320">
        <ele>532.4</ele>
        <time>2021-04-04T11:08:46Z</time>
      </trkpt>
      <trkpt lat="40.3026050" lon="-3.5426290">
        <ele>532.4</ele>
        <time>2021-04-04T11:08:47Z</time>
      </trkpt>
      <trkpt lat="40.3026390" lon="-3.5426170">
        <ele>532.6</ele>
        <time>2021-04-04T11:08:48Z</time>
      </trkpt>
      <trkpt lat="40.3026700" lon="-3.5426030">
        <ele>532.6</ele>
        <time>2021-04-04T11:08:49Z</time>
      </trkpt>
      <trkpt lat="40.3027000" lon="-3.5425940">
        <ele>532.6</ele>
        <time>2021-04-04T11:08:50Z</time>
      </trkpt>
      <trkpt lat="40.3027310" lon="-3.5425790">
        <ele>532.8</ele>
        <time>2021-04-04T11:08:51Z</time>
      </trkpt>
      <trkpt lat="40.3027530" lon="-3.5425590">
        <ele>532.8</ele>
        <time>2021-04-04T11:08:52Z</time>
      </trkpt>
      <trkpt lat="40.3027800" lon="-3.5425420">
        <ele>533.0</ele>
        <time>2021-04-04T11:08:53Z</time>
      </trkpt>
      <trkpt lat="40.3028110" lon="-3.5425330">
        <ele>533.0</ele>
        <time>2021-04-04T11:08:54Z</time>
      </trkpt>
      <trkpt lat="40.3028410" lon="-3.5425310">
        <ele>533.2</ele>
        <time>2021-04-04T11:08:55Z</time>
      </trkpt>
      <trkpt lat="40.3028640" lon="-3.5425380">
        <ele>533.4</ele>
        <time>2021-04-04T11:08:56Z</time>
      </trkpt>
      <trkpt lat="40.3028870" lon="-3.5425480">
        <ele>533.6</ele>
        <time>2021-04-04T11:08:57Z</time>
      </trkpt>
      <trkpt lat="40.3028950" lon="-3.5425510">
        <ele>533.8</ele>
        <time>2021-04-04T11:08:58Z</time>
      </trkpt>
      <trkpt lat="40.3030130" lon="-3.5426230">
        <ele>534.4</ele>
        <time>2021-04-04T11:09:35Z</time>
      </trkpt>
      <trkpt lat="40.3030130" lon="-3.5426230">
        <ele>534.4</ele>
        <time>2021-04-04T11:09:36Z</time>
      </trkpt>
      <trkpt lat="40.3030360" lon="-3.5425860">
        <ele>534.4</ele>
        <time>2021-04-04T11:09:37Z</time>
      </trkpt>
      <trkpt lat="40.3030740" lon="-3.5425260">
        <ele>534.2</ele>
        <time>2021-04-04T11:09:38Z</time>
      </trkpt>
      <trkpt lat="40.3030780" lon="-3.5425190">
        <ele>534.0</ele>
        <time>2021-04-04T11:09:39Z</time>
      </trkpt>
      <trkpt lat="40.3030780" lon="-3.5425060">
        <ele>533.8</ele>
        <time>2021-04-04T11:09:40Z</time>
      </trkpt>
      <trkpt lat="40.3030820" lon="-3.5424940">
        <ele>533.6</ele>
        <time>2021-04-04T11:09:41Z</time>
      </trkpt>
      <trkpt lat="40.3030820" lon="-3.5424800">
        <ele>533.2</ele>
        <time>2021-04-04T11:09:42Z</time>
      </trkpt>
      <trkpt lat="40.3030850" lon="-3.5424710">
        <ele>533.0</ele>
        <time>2021-04-04T11:09:43Z</time>
      </trkpt>
      <trkpt lat="40.3030930" lon="-3.5424610">
        <ele>532.6</ele>
        <time>2021-04-04T11:09:44Z</time>
      </trkpt>
      <trkpt lat="40.3030970" lon="-3.5424520">
        <ele>532.4</ele>
        <time>2021-04-04T11:09:45Z</time>
      </trkpt>
      <trkpt lat="40.3030970" lon="-3.5424520">
        <ele>532.2</ele>
        <time>2021-04-04T11:09:46Z</time>
      </trkpt>
      <trkpt lat="40.3031080" lon="-3.5424460">
        <ele>531.8</ele>
        <time>2021-04-04T11:09:47Z</time>
      </trkpt>
      <trkpt lat="40.3031270" lon="-3.5424360">
        <ele>531.6</ele>
        <time>2021-04-04T11:09:48Z</time>
      </trkpt>
      <trkpt lat="40.3031350" lon="-3.5424300">
        <ele>531.4</ele>
        <time>2021-04-04T11:09:49Z</time>
      </trkpt>
      <trkpt lat="40.3031430" lon="-3.5424200">
        <ele>531.0</ele>
        <time>2021-04-04T11:09:50Z</time>
      </trkpt>
      <trkpt lat="40.3031500" lon="-3.5424100">
        <ele>530.8</ele>
        <time>2021-04-04T11:09:51Z</time>
      </trkpt>
      <trkpt lat="40.3031580" lon="-3.5424030">
        <ele>530.6</ele>
        <time>2021-04-04T11:09:52Z</time>
      </trkpt>
      <trkpt lat="40.3031690" lon="-3.5424010">
        <ele>530.2</ele>
        <time>2021-04-04T11:09:53Z</time>
      </trkpt>
      <trkpt lat="40.3031810" lon="-3.5424000">
        <ele>530.0</ele>
        <time>2021-04-04T11:09:54Z</time>
      </trkpt>
      <trkpt lat="40.3031880" lon="-3.5423950">
        <ele>529.8</ele>
        <time>2021-04-04T11:09:55Z</time>
      </trkpt>
      <trkpt lat="40.3031920" lon="-3.5423870">
        <ele>529.6</ele>
        <time>2021-04-04T11:09:56Z</time>
      </trkpt>
      <trkpt lat="40.3031960" lon="-3.5423800">
        <ele>529.2</ele>
        <time>2021-04-04T11:09:57Z</time>
      </trkpt>
      <trkpt lat="40.3032000" lon="-3.5423750">
        <ele>529.0</ele>
        <time>2021-04-04T11:09:58Z</time>
      </trkpt>
      <trkpt lat="40.3032070" lon="-3.5423690">
        <ele>528.6</ele>
        <time>2021-04-04T11:09:59Z</time>
      </trkpt>
      <trkpt lat="40.3032230" lon="-3.5423560">
        <ele>528.4</ele>
        <time>2021-04-04T11:10:00Z</time>
      </trkpt>
      <trkpt lat="40.3032340" lon="-3.5423510">
        <ele>528.0</ele>
        <time>2021-04-04T11:10:01Z</time>
      </trkpt>
      <trkpt lat="40.3032380" lon="-3.5423470">
        <ele>527.8</ele>
        <time>2021-04-04T11:10:02Z</time>
      </trkpt>
      <trkpt lat="40.3032420" lon="-3.5423430">
        <ele>527.6</ele>
        <time>2021-04-04T11:10:03Z</time>
      </trkpt>
      <trkpt lat="40.3032530" lon="-3.5423320">
        <ele>527.4</ele>
        <time>2021-04-04T11:10:04Z</time>
      </trkpt>
      <trkpt lat="40.3032840" lon="-3.5423050">
        <ele>527.2</ele>
        <time>2021-04-04T11:10:05Z</time>
      </trkpt>
      <trkpt lat="40.3033100" lon="-3.5422800">
        <ele>527.0</ele>
        <time>2021-04-04T11:10:06Z</time>
      </trkpt>
      <trkpt lat="40.3033370" lon="-3.5422510">
        <ele>526.6</ele>
        <time>2021-04-04T11:10:07Z</time>
      </trkpt>
      <trkpt lat="40.3033750" lon="-3.5422190">
        <ele>526.4</ele>
        <time>2021-04-04T11:10:08Z</time>
      </trkpt>
      <trkpt lat="40.3034100" lon="-3.5421760">
        <ele>526.0</ele>
        <time>2021-04-04T11:10:09Z</time>
      </trkpt>
      <trkpt lat="40.3034440" lon="-3.5421200">
        <ele>525.6</ele>
        <time>2021-04-04T11:10:10Z</time>
      </trkpt>
      <trkpt lat="40.3034740" lon="-3.5420570">
        <ele>525.2</ele>
        <time>2021-04-04T11:10:11Z</time>
      </trkpt>
      <trkpt lat="40.3035010" lon="-3.5419880">
        <ele>524.8</ele>
        <time>2021-04-04T11:10:12Z</time>
      </trkpt>
      <trkpt lat="40.3035280" lon="-3.5419200">
        <ele>524.6</ele>
        <time>2021-04-04T11:10:13Z</time>
      </trkpt>
      <trkpt lat="40.3035580" lon="-3.5418550">
        <ele>524.2</ele>
        <time>2021-04-04T11:10:14Z</time>
      </trkpt>
      <trkpt lat="40.3035890" lon="-3.5417880">
        <ele>524.0</ele>
        <time>2021-04-04T11:10:15Z</time>
      </trkpt>
      <trkpt lat="40.3036230" lon="-3.5417220">
        <ele>523.6</ele>
        <time>2021-04-04T11:10:16Z</time>
      </trkpt>
      <trkpt lat="40.3036580" lon="-3.5416590">
        <ele>523.4</ele>
        <time>2021-04-04T11:10:17Z</time>
      </trkpt>
      <trkpt lat="40.3036960" lon="-3.5415990">
        <ele>523.0</ele>
        <time>2021-04-04T11:10:18Z</time>
      </trkpt>
      <trkpt lat="40.3037340" lon="-3.5415430">
        <ele>522.6</ele>
        <time>2021-04-04T11:10:19Z</time>
      </trkpt>
      <trkpt lat="40.3037800" lon="-3.5414830">
        <ele>522.2</ele>
        <time>2021-04-04T11:10:20Z</time>
      </trkpt>
      <trkpt lat="40.3038220" lon="-3.5414220">
        <ele>521.8</ele>
        <time>2021-04-04T11:10:21Z</time>
      </trkpt>
      <trkpt lat="40.3038640" lon="-3.5413630">
        <ele>521.2</ele>
        <time>2021-04-04T11:10:22Z</time>
      </trkpt>
      <trkpt lat="40.3039020" lon="-3.5413140">
        <ele>520.8</ele>
        <time>2021-04-04T11:10:23Z</time>
      </trkpt>
      <trkpt lat="40.3039470" lon="-3.5412670">
        <ele>520.4</ele>
        <time>2021-04-04T11:10:24Z</time>
      </trkpt>
      <trkpt lat="40.3039890" lon="-3.5412170">
        <ele>519.8</ele>
        <time>2021-04-04T11:10:25Z</time>
      </trkpt>
      <trkpt lat="40.3040350" lon="-3.5411600">
        <ele>519.6</ele>
        <time>2021-04-04T11:10:26Z</time>
      </trkpt>
      <trkpt lat="40.3040810" lon="-3.5410970">
        <ele>519.0</ele>
        <time>2021-04-04T11:10:27Z</time>
      </trkpt>
      <trkpt lat="40.3041230" lon="-3.5410340">
        <ele>518.6</ele>
        <time>2021-04-04T11:10:28Z</time>
      </trkpt>
      <trkpt lat="40.3041690" lon="-3.5409740">
        <ele>518.2</ele>
        <time>2021-04-04T11:10:29Z</time>
      </trkpt>
      <trkpt lat="40.3042180" lon="-3.5409060">
        <ele>517.8</ele>
        <time>2021-04-04T11:10:30Z</time>
      </trkpt>
      <trkpt lat="40.3042640" lon="-3.5408410">
        <ele>517.4</ele>
        <time>2021-04-04T11:10:31Z</time>
      </trkpt>
      <trkpt lat="40.3043140" lon="-3.5407780">
        <ele>517.2</ele>
        <time>2021-04-04T11:10:32Z</time>
      </trkpt>
      <trkpt lat="40.3043590" lon="-3.5407170">
        <ele>516.8</ele>
        <time>2021-04-04T11:10:33Z</time>
      </trkpt>
      <trkpt lat="40.3044090" lon="-3.5406570">
        <ele>516.6</ele>
        <time>2021-04-04T11:10:34Z</time>
      </trkpt>
      <trkpt lat="40.3044550" lon="-3.5405970">
        <ele>516.2</ele>
        <time>2021-04-04T11:10:35Z</time>
      </trkpt>
      <trkpt lat="40.3044970" lon="-3.5405370">
        <ele>516.0</ele>
        <time>2021-04-04T11:10:36Z</time>
      </trkpt>
      <trkpt lat="40.3045430" lon="-3.5404800">
        <ele>515.8</ele>
        <time>2021-04-04T11:10:37Z</time>
      </trkpt>
      <trkpt lat="40.3045920" lon="-3.5404290">
        <ele>515.6</ele>
        <time>2021-04-04T11:10:38Z</time>
      </trkpt>
      <trkpt lat="40.3046530" lon="-3.5403860">
        <ele>515.2</ele>
        <time>2021-04-04T11:10:39Z</time>
      </trkpt>
      <trkpt lat="40.3047140" lon="-3.5403430">
        <ele>515.0</ele>
        <time>2021-04-04T11:10:40Z</time>
      </trkpt>
      <trkpt lat="40.3047710" lon="-3.5402930">
        <ele>514.8</ele>
        <time>2021-04-04T11:10:41Z</time>
      </trkpt>
      <trkpt lat="40.3048290" lon="-3.5402360">
        <ele>514.4</ele>
        <time>2021-04-04T11:10:42Z</time>
      </trkpt>
      <trkpt lat="40.3048860" lon="-3.5401820">
        <ele>514.2</ele>
        <time>2021-04-04T11:10:43Z</time>
      </trkpt>
      <trkpt lat="40.3049430" lon="-3.5401350">
        <ele>513.8</ele>
        <time>2021-04-04T11:10:44Z</time>
      </trkpt>
      <trkpt lat="40.3050080" lon="-3.5401000">
        <ele>513.6</ele>
        <time>2021-04-04T11:10:45Z</time>
      </trkpt>
      <trkpt lat="40.3050690" lon="-3.5400740">
        <ele>513.6</ele>
        <time>2021-04-04T11:10:46Z</time>
      </trkpt>
      <trkpt lat="40.3051300" lon="-3.5400550">
        <ele>513.6</ele>
        <time>2021-04-04T11:10:47Z</time>
      </trkpt>
      <trkpt lat="40.3051870" lon="-3.5400390">
        <ele>513.4</ele>
        <time>2021-04-04T11:10:48Z</time>
      </trkpt>
      <trkpt lat="40.3052410" lon="-3.5400250">
        <ele>513.4</ele>
        <time>2021-04-04T11:10:49Z</time>
      </trkpt>
      <trkpt lat="40.3052940" lon="-3.5400150">
        <ele>513.6</ele>
        <time>2021-04-04T11:10:50Z</time>
      </trkpt>
      <trkpt lat="40.3053440" lon="-3.5400060">
        <ele>513.6</ele>
        <time>2021-04-04T11:10:51Z</time>
      </trkpt>
      <trkpt lat="40.3053890" lon="-3.5400010">
        <ele>513.8</ele>
        <time>2021-04-04T11:10:52Z</time>
      </trkpt>
      <trkpt lat="40.3054350" lon="-3.5399990">
        <ele>514.0</ele>
        <time>2021-04-04T11:10:53Z</time>
      </trkpt>
      <trkpt lat="40.3054770" lon="-3.5399950">
        <ele>514.2</ele>
        <time>2021-04-04T11:10:54Z</time>
      </trkpt>
      <trkpt lat="40.3055150" lon="-3.5399930">
        <ele>514.6</ele>
        <time>2021-04-04T11:10:55Z</time>
      </trkpt>
      <trkpt lat="40.3055570" lon="-3.5399910">
        <ele>514.8</ele>
        <time>2021-04-04T11:10:56Z</time>
      </trkpt>
      <trkpt lat="40.3055950" lon="-3.5399870">
        <ele>515.0</ele>
        <time>2021-04-04T11:10:57Z</time>
      </trkpt>
      <trkpt lat="40.3056340" lon="-3.5399820">
        <ele>515.4</ele>
        <time>2021-04-04T11:10:58Z</time>
      </trkpt>
      <trkpt lat="40.3056750" lon="-3.5399790">
        <ele>515.6</ele>
        <time>2021-04-04T11:10:59Z</time>
      </trkpt>
      <trkpt lat="40.3057140" lon="-3.5399730">
        <ele>516.0</ele>
        <time>2021-04-04T11:11:00Z</time>
      </trkpt>
      <trkpt lat="40.3057520" lon="-3.5399620">
        <ele>516.2</ele>
        <time>2021-04-04T11:11:01Z</time>
      </trkpt>
      <trkpt lat="40.3057900" lon="-3.5399500">
        <ele>516.6</ele>
        <time>2021-04-04T11:11:02Z</time>
      </trkpt>
      <trkpt lat="40.3058280" lon="-3.5399350">
        <ele>516.8</ele>
        <time>2021-04-04T11:11:03Z</time>
      </trkpt>
      <trkpt lat="40.3058620" lon="-3.5399150">
        <ele>517.0</ele>
        <time>2021-04-04T11:11:04Z</time>
      </trkpt>
      <trkpt lat="40.3058970" lon="-3.5398910">
        <ele>517.2</ele>
        <time>2021-04-04T11:11:05Z</time>
      </trkpt>
      <trkpt lat="40.3059350" lon="-3.5398640">
        <ele>517.2</ele>
        <time>2021-04-04T11:11:06Z</time>
      </trkpt>
      <trkpt lat="40.3059730" lon="-3.5398350">
        <ele>517.2</ele>
        <time>2021-04-04T11:11:07Z</time>
      </trkpt>
      <trkpt lat="40.3060110" lon="-3.5398040">
        <ele>517.2</ele>
        <time>2021-04-04T11:11:08Z</time>
      </trkpt>
      <trkpt lat="40.3060490" lon="-3.5397700">
        <ele>517.0</ele>
        <time>2021-04-04T11:11:09Z</time>
      </trkpt>
      <trkpt lat="40.3060870" lon="-3.5397320">
        <ele>516.8</ele>
        <time>2021-04-04T11:11:10Z</time>
      </trkpt>
      <trkpt lat="40.3061290" lon="-3.5396940">
        <ele>516.8</ele>
        <time>2021-04-04T11:11:11Z</time>
      </trkpt>
      <trkpt lat="40.3061750" lon="-3.5396570">
        <ele>516.4</ele>
        <time>2021-04-04T11:11:12Z</time>
      </trkpt>
      <trkpt lat="40.3062210" lon="-3.5396220">
        <ele>516.2</ele>
        <time>2021-04-04T11:11:13Z</time>
      </trkpt>
      <trkpt lat="40.3062710" lon="-3.5395890">
        <ele>516.0</ele>
        <time>2021-04-04T11:11:14Z</time>
      </trkpt>
      <trkpt lat="40.3063200" lon="-3.5395510">
        <ele>515.6</ele>
        <time>2021-04-04T11:11:15Z</time>
      </trkpt>
      <trkpt lat="40.3063740" lon="-3.5395020">
        <ele>515.4</ele>
        <time>2021-04-04T11:11:16Z</time>
      </trkpt>
      <trkpt lat="40.3064120" lon="-3.5394440">
        <ele>515.2</ele>
        <time>2021-04-04T11:11:17Z</time>
      </trkpt>
      <trkpt lat="40.3064460" lon="-3.5393760">
        <ele>514.8</ele>
        <time>2021-04-04T11:11:18Z</time>
      </trkpt>
      <trkpt lat="40.3064770" lon="-3.5393050">
        <ele>514.6</ele>
        <time>2021-04-04T11:11:19Z</time>
      </trkpt>
      <trkpt lat="40.3065150" lon="-3.5392400">
        <ele>514.2</ele>
        <time>2021-04-04T11:11:20Z</time>
      </trkpt>
      <trkpt lat="40.3065610" lon="-3.5391840">
        <ele>514.0</ele>
        <time>2021-04-04T11:11:21Z</time>
      </trkpt>
      <trkpt lat="40.3066100" lon="-3.5391360">
        <ele>513.8</ele>
        <time>2021-04-04T11:11:22Z</time>
      </trkpt>
      <trkpt lat="40.3066640" lon="-3.5390970">
        <ele>513.6</ele>
        <time>2021-04-04T11:11:23Z</time>
      </trkpt>
      <trkpt lat="40.3067170" lon="-3.5390650">
        <ele>513.6</ele>
        <time>2021-04-04T11:11:24Z</time>
      </trkpt>
      <trkpt lat="40.3067630" lon="-3.5390340">
        <ele>513.6</ele>
        <time>2021-04-04T11:11:25Z</time>
      </trkpt>
      <trkpt lat="40.3068120" lon="-3.5390030">
        <ele>513.6</ele>
        <time>2021-04-04T11:11:26Z</time>
      </trkpt>
      <trkpt lat="40.3068620" lon="-3.5389720">
        <ele>513.6</ele>
        <time>2021-04-04T11:11:27Z</time>
      </trkpt>
      <trkpt lat="40.3069110" lon="-3.5389420">
        <ele>513.6</ele>
        <time>2021-04-04T11:11:28Z</time>
      </trkpt>
      <trkpt lat="40.3069530" lon="-3.5389140">
        <ele>513.8</ele>
        <time>2021-04-04T11:11:29Z</time>
      </trkpt>
      <trkpt lat="40.3070030" lon="-3.5388870">
        <ele>513.8</ele>
        <time>2021-04-04T11:11:30Z</time>
      </trkpt>
      <trkpt lat="40.3070530" lon="-3.5388620">
        <ele>513.8</ele>
        <time>2021-04-04T11:11:31Z</time>
      </trkpt>
      <trkpt lat="40.3071020" lon="-3.5388350">
        <ele>513.8</ele>
        <time>2021-04-04T11:11:32Z</time>
      </trkpt>
      <trkpt lat="40.3071520" lon="-3.5388030">
        <ele>513.6</ele>
        <time>2021-04-04T11:11:33Z</time>
      </trkpt>
      <trkpt lat="40.3071980" lon="-3.5387680">
        <ele>513.6</ele>
        <time>2021-04-04T11:11:34Z</time>
      </trkpt>
      <trkpt lat="40.3072470" lon="-3.5387300">
        <ele>513.6</ele>
        <time>2021-04-04T11:11:35Z</time>
      </trkpt>
      <trkpt lat="40.3072930" lon="-3.5386920">
        <ele>513.6</ele>
        <time>2021-04-04T11:11:36Z</time>
      </trkpt>
      <trkpt lat="40.3073430" lon="-3.5386540">
        <ele>513.6</ele>
        <time>2021-04-04T11:11:37Z</time>
      </trkpt>
      <trkpt lat="40.3073880" lon="-3.5386150">
        <ele>513.6</ele>
        <time>2021-04-04T11:11:38Z</time>
      </trkpt>
      <trkpt lat="40.3074340" lon="-3.5385760">
        <ele>513.6</ele>
        <time>2021-04-04T11:11:39Z</time>
      </trkpt>
      <trkpt lat="40.3074800" lon="-3.5385390">
        <ele>513.4</ele>
        <time>2021-04-04T11:11:40Z</time>
      </trkpt>
      <trkpt lat="40.3075290" lon="-3.5385030">
        <ele>513.2</ele>
        <time>2021-04-04T11:11:41Z</time>
      </trkpt>
      <trkpt lat="40.3075790" lon="-3.5384700">
        <ele>513.2</ele>
        <time>2021-04-04T11:11:42Z</time>
      </trkpt>
      <trkpt lat="40.3076320" lon="-3.5384380">
        <ele>513.0</ele>
        <time>2021-04-04T11:11:43Z</time>
      </trkpt>
      <trkpt lat="40.3076860" lon="-3.5384050">
        <ele>512.8</ele>
        <time>2021-04-04T11:11:44Z</time>
      </trkpt>
      <trkpt lat="40.3077390" lon="-3.5383680">
        <ele>512.6</ele>
        <time>2021-04-04T11:11:45Z</time>
      </trkpt>
      <trkpt lat="40.3077850" lon="-3.5383310">
        <ele>512.6</ele>
        <time>2021-04-04T11:11:46Z</time>
      </trkpt>
      <trkpt lat="40.3078350" lon="-3.5382960">
        <ele>512.6</ele>
        <time>2021-04-04T11:11:47Z</time>
      </trkpt>
      <trkpt lat="40.3078840" lon="-3.5382630">
        <ele>512.6</ele>
        <time>2021-04-04T11:11:48Z</time>
      </trkpt>
      <trkpt lat="40.3079380" lon="-3.5382350">
        <ele>512.6</ele>
        <time>2021-04-04T11:11:49Z</time>
      </trkpt>
      <trkpt lat="40.3079870" lon="-3.5382090">
        <ele>512.6</ele>
        <time>2021-04-04T11:11:50Z</time>
      </trkpt>
      <trkpt lat="40.3080410" lon="-3.5381870">
        <ele>512.8</ele>
        <time>2021-04-04T11:11:51Z</time>
      </trkpt>
      <trkpt lat="40.3080940" lon="-3.5381640">
        <ele>513.0</ele>
        <time>2021-04-04T11:11:52Z</time>
      </trkpt>
      <trkpt lat="40.3081470" lon="-3.5381390">
        <ele>513.2</ele>
        <time>2021-04-04T11:11:53Z</time>
      </trkpt>
      <trkpt lat="40.3082010" lon="-3.5381140">
        <ele>513.2</ele>
        <time>2021-04-04T11:11:54Z</time>
      </trkpt>
      <trkpt lat="40.3082500" lon="-3.5380900">
        <ele>513.4</ele>
        <time>2021-04-04T11:11:55Z</time>
      </trkpt>
      <trkpt lat="40.3083000" lon="-3.5380650">
        <ele>513.6</ele>
        <time>2021-04-04T11:11:56Z</time>
      </trkpt>
      <trkpt lat="40.3083460" lon="-3.5380390">
        <ele>513.8</ele>
        <time>2021-04-04T11:11:57Z</time>
      </trkpt>
      <trkpt lat="40.3083950" lon="-3.5380150">
        <ele>514.2</ele>
        <time>2021-04-04T11:11:58Z</time>
      </trkpt>
      <trkpt lat="40.3084410" lon="-3.5379950">
        <ele>514.4</ele>
        <time>2021-04-04T11:11:59Z</time>
      </trkpt>
      <trkpt lat="40.3084870" lon="-3.5379760">
        <ele>514.6</ele>
        <time>2021-04-04T11:12:00Z</time>
      </trkpt>
      <trkpt lat="40.3085330" lon="-3.5379520">
        <ele>514.8</ele>
        <time>2021-04-04T11:12:01Z</time>
      </trkpt>
      <trkpt lat="40.3085780" lon="-3.5379200">
        <ele>515.0</ele>
        <time>2021-04-04T11:12:02Z</time>
      </trkpt>
      <trkpt lat="40.3086240" lon="-3.5378930">
        <ele>515.4</ele>
        <time>2021-04-04T11:12:03Z</time>
      </trkpt>
      <trkpt lat="40.3086700" lon="-3.5378680">
        <ele>515.6</ele>
        <time>2021-04-04T11:12:04Z</time>
      </trkpt>
      <trkpt lat="40.3087120" lon="-3.5378420">
        <ele>515.8</ele>
        <time>2021-04-04T11:12:05Z</time>
      </trkpt>
      <trkpt lat="40.3087540" lon="-3.5378190">
        <ele>516.0</ele>
        <time>2021-04-04T11:12:06Z</time>
      </trkpt>
      <trkpt lat="40.3088000" lon="-3.5378010">
        <ele>516.2</ele>
        <time>2021-04-04T11:12:07Z</time>
      </trkpt>
      <trkpt lat="40.3088420" lon="-3.5377860">
        <ele>516.6</ele>
        <time>2021-04-04T11:12:08Z</time>
      </trkpt>
      <trkpt lat="40.3088880" lon="-3.5377710">
        <ele>516.6</ele>
        <time>2021-04-04T11:12:09Z</time>
      </trkpt>
      <trkpt lat="40.3089330" lon="-3.5377600">
        <ele>516.8</ele>
        <time>2021-04-04T11:12:10Z</time>
      </trkpt>
      <trkpt lat="40.3089790" lon="-3.5377480">
        <ele>517.0</ele>
        <time>2021-04-04T11:12:11Z</time>
      </trkpt>
      <trkpt lat="40.3090290" lon="-3.5377340">
        <ele>517.0</ele>
        <time>2021-04-04T11:12:12Z</time>
      </trkpt>
      <trkpt lat="40.3090740" lon="-3.5377160">
        <ele>517.0</ele>
        <time>2021-04-04T11:12:13Z</time>
      </trkpt>
      <trkpt lat="40.3091240" lon="-3.5376970">
        <ele>517.0</ele>
        <time>2021-04-04T11:12:14Z</time>
      </trkpt>
      <trkpt lat="40.3091770" lon="-3.5376740">
        <ele>517.0</ele>
        <time>2021-04-04T11:12:15Z</time>
      </trkpt>
      <trkpt lat="40.3092270" lon="-3.5376500">
        <ele>517.0</ele>
        <time>2021-04-04T11:12:16Z</time>
      </trkpt>
      <trkpt lat="40.3092770" lon="-3.5376260">
        <ele>517.0</ele>
        <time>2021-04-04T11:12:17Z</time>
      </trkpt>
      <trkpt lat="40.3093260" lon="-3.5375990">
        <ele>517.0</ele>
        <time>2021-04-04T11:12:18Z</time>
      </trkpt>
      <trkpt lat="40.3093760" lon="-3.5375720">
        <ele>517.0</ele>
        <time>2021-04-04T11:12:19Z</time>
      </trkpt>
      <trkpt lat="40.3094250" lon="-3.5375460">
        <ele>517.0</ele>
        <time>2021-04-04T11:12:20Z</time>
      </trkpt>
      <trkpt lat="40.3094750" lon="-3.5375190">
        <ele>517.0</ele>
        <time>2021-04-04T11:12:21Z</time>
      </trkpt>
      <trkpt lat="40.3095170" lon="-3.5374930">
        <ele>517.0</ele>
        <time>2021-04-04T11:12:22Z</time>
      </trkpt>
      <trkpt lat="40.3095590" lon="-3.5374660">
        <ele>517.2</ele>
        <time>2021-04-04T11:12:23Z</time>
      </trkpt>
      <trkpt lat="40.3096010" lon="-3.5374400">
        <ele>517.2</ele>
        <time>2021-04-04T11:12:24Z</time>
      </trkpt>
      <trkpt lat="40.3096470" lon="-3.5374130">
        <ele>517.4</ele>
        <time>2021-04-04T11:12:25Z</time>
      </trkpt>
      <trkpt lat="40.3096890" lon="-3.5373850">
        <ele>517.4</ele>
        <time>2021-04-04T11:12:26Z</time>
      </trkpt>
      <trkpt lat="40.3097340" lon="-3.5373530">
        <ele>517.4</ele>
        <time>2021-04-04T11:12:27Z</time>
      </trkpt>
      <trkpt lat="40.3097760" lon="-3.5373170">
        <ele>517.2</ele>
        <time>2021-04-04T11:12:28Z</time>
      </trkpt>
      <trkpt lat="40.3098180" lon="-3.5372750">
        <ele>517.0</ele>
        <time>2021-04-04T11:12:29Z</time>
      </trkpt>
      <trkpt lat="40.3098600" lon="-3.5372280">
        <ele>517.0</ele>
        <time>2021-04-04T11:12:30Z</time>
      </trkpt>
      <trkpt lat="40.3099060" lon="-3.5371790">
        <ele>516.8</ele>
        <time>2021-04-04T11:12:31Z</time>
      </trkpt>
      <trkpt lat="40.3099520" lon="-3.5371340">
        <ele>516.6</ele>
        <time>2021-04-04T11:12:32Z</time>
      </trkpt>
      <trkpt lat="40.3099980" lon="-3.5370970">
        <ele>516.4</ele>
        <time>2021-04-04T11:12:33Z</time>
      </trkpt>
      <trkpt lat="40.3100510" lon="-3.5370620">
        <ele>516.2</ele>
        <time>2021-04-04T11:12:34Z</time>
      </trkpt>
      <trkpt lat="40.3101080" lon="-3.5370250">
        <ele>516.0</ele>
        <time>2021-04-04T11:12:35Z</time>
      </trkpt>
      <trkpt lat="40.3101620" lon="-3.5369820">
        <ele>515.8</ele>
        <time>2021-04-04T11:12:36Z</time>
      </trkpt>
      <trkpt lat="40.3102150" lon="-3.5369350">
        <ele>515.4</ele>
        <time>2021-04-04T11:12:37Z</time>
      </trkpt>
      <trkpt lat="40.3102680" lon="-3.5368860">
        <ele>515.2</ele>
        <time>2021-04-04T11:12:38Z</time>
      </trkpt>
      <trkpt lat="40.3103260" lon="-3.5368350">
        <ele>515.0</ele>
        <time>2021-04-04T11:12:39Z</time>
      </trkpt>
      <trkpt lat="40.3103790" lon="-3.5367840">
        <ele>514.8</ele>
        <time>2021-04-04T11:12:40Z</time>
      </trkpt>
      <trkpt lat="40.3104360" lon="-3.5367390">
        <ele>514.6</ele>
        <time>2021-04-04T11:12:41Z</time>
      </trkpt>
      <trkpt lat="40.3104930" lon="-3.5366980">
        <ele>514.4</ele>
        <time>2021-04-04T11:12:42Z</time>
      </trkpt>
      <trkpt lat="40.3105470" lon="-3.5366590">
        <ele>514.4</ele>
        <time>2021-04-04T11:12:43Z</time>
      </trkpt>
      <trkpt lat="40.3106040" lon="-3.5366240">
        <ele>514.2</ele>
        <time>2021-04-04T11:12:44Z</time>
      </trkpt>
      <trkpt lat="40.3106580" lon="-3.5365990">
        <ele>514.4</ele>
        <time>2021-04-04T11:12:45Z</time>
      </trkpt>
      <trkpt lat="40.3107110" lon="-3.5365790">
        <ele>514.4</ele>
        <time>2021-04-04T11:12:46Z</time>
      </trkpt>
      <trkpt lat="40.3107680" lon="-3.5365600">
        <ele>514.6</ele>
        <time>2021-04-04T11:12:47Z</time>
      </trkpt>
      <trkpt lat="40.3108250" lon="-3.5365430">
        <ele>514.6</ele>
        <time>2021-04-04T11:12:48Z</time>
      </trkpt>
      <trkpt lat="40.3108900" lon="-3.5365280">
        <ele>514.4</ele>
        <time>2021-04-04T11:12:49Z</time>
      </trkpt>
      <trkpt lat="40.3109550" lon="-3.5365140">
        <ele>514.2</ele>
        <time>2021-04-04T11:12:50Z</time>
      </trkpt>
      <trkpt lat="40.3110200" lon="-3.5364970">
        <ele>514.2</ele>
        <time>2021-04-04T11:12:51Z</time>
      </trkpt>
      <trkpt lat="40.3110850" lon="-3.5364800">
        <ele>514.0</ele>
        <time>2021-04-04T11:12:52Z</time>
      </trkpt>
      <trkpt lat="40.3111500" lon="-3.5364590">
        <ele>514.0</ele>
        <time>2021-04-04T11:12:53Z</time>
      </trkpt>
      <trkpt lat="40.3112110" lon="-3.5364300">
        <ele>513.8</ele>
        <time>2021-04-04T11:12:54Z</time>
      </trkpt>
      <trkpt lat="40.3112680" lon="-3.5363950">
        <ele>513.8</ele>
        <time>2021-04-04T11:12:55Z</time>
      </trkpt>
      <trkpt lat="40.3113210" lon="-3.5363570">
        <ele>514.0</ele>
        <time>2021-04-04T11:12:56Z</time>
      </trkpt>
      <trkpt lat="40.3113710" lon="-3.5363180">
        <ele>514.0</ele>
        <time>2021-04-04T11:12:57Z</time>
      </trkpt>
      <trkpt lat="40.3114170" lon="-3.5362780">
        <ele>514.2</ele>
        <time>2021-04-04T11:12:58Z</time>
      </trkpt>
      <trkpt lat="40.3114660" lon="-3.5362360">
        <ele>514.2</ele>
        <time>2021-04-04T11:12:59Z</time>
      </trkpt>
      <trkpt lat="40.3115160" lon="-3.5362000">
        <ele>514.4</ele>
        <time>2021-04-04T11:13:00Z</time>
      </trkpt>
      <trkpt lat="40.3115620" lon="-3.5361680">
        <ele>514.6</ele>
        <time>2021-04-04T11:13:01Z</time>
      </trkpt>
      <trkpt lat="40.3116150" lon="-3.5361360">
        <ele>514.6</ele>
        <time>2021-04-04T11:13:02Z</time>
      </trkpt>
      <trkpt lat="40.3116650" lon="-3.5361030">
        <ele>514.6</ele>
        <time>2021-04-04T11:13:03Z</time>
      </trkpt>
      <trkpt lat="40.3117180" lon="-3.5360630">
        <ele>514.8</ele>
        <time>2021-04-04T11:13:04Z</time>
      </trkpt>
      <trkpt lat="40.3117680" lon="-3.5360240">
        <ele>514.8</ele>
        <time>2021-04-04T11:13:05Z</time>
      </trkpt>
      <trkpt lat="40.3118170" lon="-3.5359850">
        <ele>514.8</ele>
        <time>2021-04-04T11:13:06Z</time>
      </trkpt>
      <trkpt lat="40.3118670" lon="-3.5359500">
        <ele>515.0</ele>
        <time>2021-04-04T11:13:07Z</time>
      </trkpt>
      <trkpt lat="40.3119200" lon="-3.5359200">
        <ele>515.0</ele>
        <time>2021-04-04T11:13:08Z</time>
      </trkpt>
      <trkpt lat="40.3119740" lon="-3.5358930">
        <ele>515.0</ele>
        <time>2021-04-04T11:13:09Z</time>
      </trkpt>
      <trkpt lat="40.3120230" lon="-3.5358700">
        <ele>515.2</ele>
        <time>2021-04-04T11:13:10Z</time>
      </trkpt>
      <trkpt lat="40.3120730" lon="-3.5358500">
        <ele>515.4</ele>
        <time>2021-04-04T11:13:11Z</time>
      </trkpt>
      <trkpt lat="40.3121190" lon="-3.5358320">
        <ele>515.8</ele>
        <time>2021-04-04T11:13:12Z</time>
      </trkpt>
      <trkpt lat="40.3121600" lon="-3.5358180">
        <ele>516.0</ele>
        <time>2021-04-04T11:13:13Z</time>
      </trkpt>
      <trkpt lat="40.3121990" lon="-3.5358050">
        <ele>516.4</ele>
        <time>2021-04-04T11:13:14Z</time>
      </trkpt>
      <trkpt lat="40.3122370" lon="-3.5357920">
        <ele>516.8</ele>
        <time>2021-04-04T11:13:15Z</time>
      </trkpt>
      <trkpt lat="40.3122710" lon="-3.5357800">
        <ele>517.2</ele>
        <time>2021-04-04T11:13:16Z</time>
      </trkpt>
      <trkpt lat="40.3123050" lon="-3.5357690">
        <ele>517.6</ele>
        <time>2021-04-04T11:13:17Z</time>
      </trkpt>
      <trkpt lat="40.3123400" lon="-3.5357600">
        <ele>518.0</ele>
        <time>2021-04-04T11:13:18Z</time>
      </trkpt>
      <trkpt lat="40.3123700" lon="-3.5357490">
        <ele>518.2</ele>
        <time>2021-04-04T11:13:19Z</time>
      </trkpt>
      <trkpt lat="40.3124050" lon="-3.5357380">
        <ele>518.6</ele>
        <time>2021-04-04T11:13:20Z</time>
      </trkpt>
      <trkpt lat="40.3124350" lon="-3.5357310">
        <ele>519.0</ele>
        <time>2021-04-04T11:13:21Z</time>
      </trkpt>
      <trkpt lat="40.3124700" lon="-3.5357240">
        <ele>519.4</ele>
        <time>2021-04-04T11:13:22Z</time>
      </trkpt>
      <trkpt lat="40.3125040" lon="-3.5357150">
        <ele>519.8</ele>
        <time>2021-04-04T11:13:23Z</time>
      </trkpt>
      <trkpt lat="40.3125380" lon="-3.5357030">
        <ele>520.0</ele>
        <time>2021-04-04T11:13:24Z</time>
      </trkpt>
      <trkpt lat="40.3125720" lon="-3.5356890">
        <ele>520.2</ele>
        <time>2021-04-04T11:13:25Z</time>
      </trkpt>
      <trkpt lat="40.3126110" lon="-3.5356710">
        <ele>520.4</ele>
        <time>2021-04-04T11:13:26Z</time>
      </trkpt>
      <trkpt lat="40.3126450" lon="-3.5356530">
        <ele>520.6</ele>
        <time>2021-04-04T11:13:27Z</time>
      </trkpt>
      <trkpt lat="40.3126790" lon="-3.5356340">
        <ele>520.8</ele>
        <time>2021-04-04T11:13:28Z</time>
      </trkpt>
      <trkpt lat="40.3127170" lon="-3.5356110">
        <ele>520.8</ele>
        <time>2021-04-04T11:13:29Z</time>
      </trkpt>
      <trkpt lat="40.3127560" lon="-3.5355850">
        <ele>520.8</ele>
        <time>2021-04-04T11:13:30Z</time>
      </trkpt>
      <trkpt lat="40.3127940" lon="-3.5355600">
        <ele>520.8</ele>
        <time>2021-04-04T11:13:31Z</time>
      </trkpt>
      <trkpt lat="40.3128320" lon="-3.5355340">
        <ele>520.8</ele>
        <time>2021-04-04T11:13:32Z</time>
      </trkpt>
      <trkpt lat="40.3128700" lon="-3.5355050">
        <ele>520.8</ele>
        <time>2021-04-04T11:13:33Z</time>
      </trkpt>
      <trkpt lat="40.3129040" lon="-3.5354690">
        <ele>520.6</ele>
        <time>2021-04-04T11:13:34Z</time>
      </trkpt>
      <trkpt lat="40.3129270" lon="-3.5354240">
        <ele>520.6</ele>
        <time>2021-04-04T11:13:35Z</time>
      </trkpt>
      <trkpt lat="40.3129350" lon="-3.5353720">
        <ele>520.6</ele>
        <time>2021-04-04T11:13:36Z</time>
      </trkpt>
      <trkpt lat="40.3129310" lon="-3.5353180">
        <ele>520.6</ele>
        <time>2021-04-04T11:13:37Z</time>
      </trkpt>
      <trkpt lat="40.3129080" lon="-3.5352640">
        <ele>520.6</ele>
        <time>2021-04-04T11:13:38Z</time>
      </trkpt>
      <trkpt lat="40.3128810" lon="-3.5352130">
        <ele>520.4</ele>
        <time>2021-04-04T11:13:39Z</time>
      </trkpt>
      <trkpt lat="40.3128430" lon="-3.5351620">
        <ele>520.2</ele>
        <time>2021-04-04T11:13:40Z</time>
      </trkpt>
      <trkpt lat="40.3128010" lon="-3.5351090">
        <ele>520.0</ele>
        <time>2021-04-04T11:13:41Z</time>
      </trkpt>
      <trkpt lat="40.3127670" lon="-3.5350520">
        <ele>519.8</ele>
        <time>2021-04-04T11:13:42Z</time>
      </trkpt>
      <trkpt lat="40.3127330" lon="-3.5349900">
        <ele>519.4</ele>
        <time>2021-04-04T11:13:43Z</time>
      </trkpt>
      <trkpt lat="40.3127100" lon="-3.5349190">
        <ele>519.2</ele>
        <time>2021-04-04T11:13:44Z</time>
      </trkpt>
      <trkpt lat="40.3126950" lon="-3.5348390">
        <ele>519.0</ele>
        <time>2021-04-04T11:13:45Z</time>
      </trkpt>
      <trkpt lat="40.3126950" lon="-3.5347590">
        <ele>518.8</ele>
        <time>2021-04-04T11:13:46Z</time>
      </trkpt>
      <trkpt lat="40.3127060" lon="-3.5346790">
        <ele>518.4</ele>
        <time>2021-04-04T11:13:47Z</time>
      </trkpt>
      <trkpt lat="40.3127250" lon="-3.5346010">
        <ele>518.0</ele>
        <time>2021-04-04T11:13:48Z</time>
      </trkpt>
      <trkpt lat="40.3127520" lon="-3.5345280">
        <ele>517.8</ele>
        <time>2021-04-04T11:13:49Z</time>
      </trkpt>
      <trkpt lat="40.3127860" lon="-3.5344600">
        <ele>517.4</ele>
        <time>2021-04-04T11:13:50Z</time>
      </trkpt>
      <trkpt lat="40.3128240" lon="-3.5343990">
        <ele>517.2</ele>
        <time>2021-04-04T11:13:51Z</time>
      </trkpt>
      <trkpt lat="40.3128620" lon="-3.5343460">
        <ele>517.2</ele>
        <time>2021-04-04T11:13:52Z</time>
      </trkpt>
      <trkpt lat="40.3129040" lon="-3.5342990">
        <ele>517.0</ele>
        <time>2021-04-04T11:13:53Z</time>
      </trkpt>
      <trkpt lat="40.3129500" lon="-3.5342540">
        <ele>516.8</ele>
        <time>2021-04-04T11:13:54Z</time>
      </trkpt>
      <trkpt lat="40.3130040" lon="-3.5342070">
        <ele>516.8</ele>
        <time>2021-04-04T11:13:55Z</time>
      </trkpt>
      <trkpt lat="40.3130490" lon="-3.5341620">
        <ele>516.6</ele>
        <time>2021-04-04T11:13:56Z</time>
      </trkpt>
      <trkpt lat="40.3131030" lon="-3.5341130">
        <ele>516.2</ele>
        <time>2021-04-04T11:13:57Z</time>
      </trkpt>
      <trkpt lat="40.3131640" lon="-3.5340600">
        <ele>515.6</ele>
        <time>2021-04-04T11:13:58Z</time>
      </trkpt>
      <trkpt lat="40.3132250" lon="-3.5340070">
        <ele>515.2</ele>
        <time>2021-04-04T11:13:59Z</time>
      </trkpt>
      <trkpt lat="40.3132930" lon="-3.5339560">
        <ele>514.8</ele>
        <time>2021-04-04T11:14:00Z</time>
      </trkpt>
      <trkpt lat="40.3133620" lon="-3.5339130">
        <ele>514.6</ele>
        <time>2021-04-04T11:14:01Z</time>
      </trkpt>
      <trkpt lat="40.3134310" lon="-3.5338780">
        <ele>514.2</ele>
        <time>2021-04-04T11:14:02Z</time>
      </trkpt>
      <trkpt lat="40.3135030" lon="-3.5338470">
        <ele>514.2</ele>
        <time>2021-04-04T11:14:03Z</time>
      </trkpt>
      <trkpt lat="40.3135680" lon="-3.5338140">
        <ele>513.8</ele>
        <time>2021-04-04T11:14:04Z</time>
      </trkpt>
      <trkpt lat="40.3136330" lon="-3.5337750">
        <ele>513.8</ele>
        <time>2021-04-04T11:14:05Z</time>
      </trkpt>
      <trkpt lat="40.3136940" lon="-3.5337300">
        <ele>513.6</ele>
        <time>2021-04-04T11:14:06Z</time>
      </trkpt>
      <trkpt lat="40.3137470" lon="-3.5336750">
        <ele>513.4</ele>
        <time>2021-04-04T11:14:07Z</time>
      </trkpt>
      <trkpt lat="40.3137970" lon="-3.5336140">
        <ele>513.2</ele>
        <time>2021-04-04T11:14:08Z</time>
      </trkpt>
      <trkpt lat="40.3138470" lon="-3.5335570">
        <ele>513.2</ele>
        <time>2021-04-04T11:14:09Z</time>
      </trkpt>
      <trkpt lat="40.3139000" lon="-3.5335040">
        <ele>513.0</ele>
        <time>2021-04-04T11:14:10Z</time>
      </trkpt>
      <trkpt lat="40.3139500" lon="-3.5334510">
        <ele>513.0</ele>
        <time>2021-04-04T11:14:11Z</time>
      </trkpt>
      <trkpt lat="40.3139990" lon="-3.5334020">
        <ele>513.0</ele>
        <time>2021-04-04T11:14:12Z</time>
      </trkpt>
      <trkpt lat="40.3140490" lon="-3.5333510">
        <ele>513.0</ele>
        <time>2021-04-04T11:14:13Z</time>
      </trkpt>
      <trkpt lat="40.3140950" lon="-3.5333010">
        <ele>513.0</ele>
        <time>2021-04-04T11:14:14Z</time>
      </trkpt>
      <trkpt lat="40.3141480" lon="-3.5332580">
        <ele>513.2</ele>
        <time>2021-04-04T11:14:15Z</time>
      </trkpt>
      <trkpt lat="40.3142090" lon="-3.5332220">
        <ele>513.2</ele>
        <time>2021-04-04T11:14:16Z</time>
      </trkpt>
      <trkpt lat="40.3142660" lon="-3.5331950">
        <ele>513.2</ele>
        <time>2021-04-04T11:14:17Z</time>
      </trkpt>
      <trkpt lat="40.3143270" lon="-3.5331720">
        <ele>513.4</ele>
        <time>2021-04-04T11:14:18Z</time>
      </trkpt>
      <trkpt lat="40.3143810" lon="-3.5331510">
        <ele>513.6</ele>
        <time>2021-04-04T11:14:19Z</time>
      </trkpt>
      <trkpt lat="40.3144340" lon="-3.5331270">
        <ele>513.8</ele>
        <time>2021-04-04T11:14:20Z</time>
      </trkpt>
      <trkpt lat="40.3144910" lon="-3.5330910">
        <ele>513.8</ele>
        <time>2021-04-04T11:14:21Z</time>
      </trkpt>
      <trkpt lat="40.3145450" lon="-3.5330440">
        <ele>514.0</ele>
        <time>2021-04-04T11:14:22Z</time>
      </trkpt>
      <trkpt lat="40.3145940" lon="-3.5329870">
        <ele>514.0</ele>
        <time>2021-04-04T11:14:23Z</time>
      </trkpt>
      <trkpt lat="40.3146400" lon="-3.5329300">
        <ele>514.0</ele>
        <time>2021-04-04T11:14:24Z</time>
      </trkpt>
      <trkpt lat="40.3146900" lon="-3.5328760">
        <ele>514.0</ele>
        <time>2021-04-04T11:14:25Z</time>
      </trkpt>
      <trkpt lat="40.3147430" lon="-3.5328210">
        <ele>514.0</ele>
        <time>2021-04-04T11:14:26Z</time>
      </trkpt>
      <trkpt lat="40.3147960" lon="-3.5327700">
        <ele>514.0</ele>
        <time>2021-04-04T11:14:27Z</time>
      </trkpt>
      <trkpt lat="40.3148540" lon="-3.5327260">
        <ele>514.0</ele>
        <time>2021-04-04T11:14:28Z</time>
      </trkpt>
      <trkpt lat="40.3149110" lon="-3.5326840">
        <ele>514.0</ele>
        <time>2021-04-04T11:14:29Z</time>
      </trkpt>
      <trkpt lat="40.3149680" lon="-3.5326400">
        <ele>514.2</ele>
        <time>2021-04-04T11:14:30Z</time>
      </trkpt>
      <trkpt lat="40.3150250" lon="-3.5325930">
        <ele>514.2</ele>
        <time>2021-04-04T11:14:31Z</time>
      </trkpt>
      <trkpt lat="40.3150790" lon="-3.5325430">
        <ele>514.4</ele>
        <time>2021-04-04T11:14:32Z</time>
      </trkpt>
      <trkpt lat="40.3151320" lon="-3.5324940">
        <ele>514.4</ele>
        <time>2021-04-04T11:14:33Z</time>
      </trkpt>
      <trkpt lat="40.3151860" lon="-3.5324440">
        <ele>514.6</ele>
        <time>2021-04-04T11:14:34Z</time>
      </trkpt>
      <trkpt lat="40.3152390" lon="-3.5323960">
        <ele>514.8</ele>
        <time>2021-04-04T11:14:35Z</time>
      </trkpt>
      <trkpt lat="40.3152960" lon="-3.5323520">
        <ele>514.8</ele>
        <time>2021-04-04T11:14:36Z</time>
      </trkpt>
      <trkpt lat="40.3153530" lon="-3.5323070">
        <ele>515.0</ele>
        <time>2021-04-04T11:14:37Z</time>
      </trkpt>
      <trkpt lat="40.3154110" lon="-3.5322580">
        <ele>515.0</ele>
        <time>2021-04-04T11:14:38Z</time>
      </trkpt>
      <trkpt lat="40.3154680" lon="-3.5322070">
        <ele>515.0</ele>
        <time>2021-04-04T11:14:39Z</time>
      </trkpt>
      <trkpt lat="40.3155210" lon="-3.5321580">
        <ele>515.0</ele>
        <time>2021-04-04T11:14:40Z</time>
      </trkpt>
      <trkpt lat="40.3155780" lon="-3.5321120">
        <ele>515.0</ele>
        <time>2021-04-04T11:14:41Z</time>
      </trkpt>
      <trkpt lat="40.3156390" lon="-3.5320660">
        <ele>515.0</ele>
        <time>2021-04-04T11:14:42Z</time>
      </trkpt>
      <trkpt lat="40.3156970" lon="-3.5320230">
        <ele>515.0</ele>
        <time>2021-04-04T11:14:43Z</time>
      </trkpt>
      <trkpt lat="40.3157620" lon="-3.5319790">
        <ele>515.0</ele>
        <time>2021-04-04T11:14:44Z</time>
      </trkpt>
      <trkpt lat="40.3158230" lon="-3.5319300">
        <ele>514.8</ele>
        <time>2021-04-04T11:14:45Z</time>
      </trkpt>
      <trkpt lat="40.3158840" lon="-3.5318770">
        <ele>514.8</ele>
        <time>2021-04-04T11:14:46Z</time>
      </trkpt>
      <trkpt lat="40.3159450" lon="-3.5318240">
        <ele>514.6</ele>
        <time>2021-04-04T11:14:47Z</time>
      </trkpt>
      <trkpt lat="40.3160100" lon="-3.5317810">
        <ele>514.6</ele>
        <time>2021-04-04T11:14:48Z</time>
      </trkpt>
      <trkpt lat="40.3160780" lon="-3.5317510">
        <ele>514.6</ele>
        <time>2021-04-04T11:14:49Z</time>
      </trkpt>
      <trkpt lat="40.3161430" lon="-3.5317210">
        <ele>514.6</ele>
        <time>2021-04-04T11:14:50Z</time>
      </trkpt>
      <trkpt lat="40.3162080" lon="-3.5316920">
        <ele>514.8</ele>
        <time>2021-04-04T11:14:51Z</time>
      </trkpt>
      <trkpt lat="40.3162730" lon="-3.5316660">
        <ele>514.8</ele>
        <time>2021-04-04T11:14:52Z</time>
      </trkpt>
      <trkpt lat="40.3163410" lon="-3.5316400">
        <ele>514.8</ele>
        <time>2021-04-04T11:14:53Z</time>
      </trkpt>
      <trkpt lat="40.3164060" lon="-3.5316120">
        <ele>514.6</ele>
        <time>2021-04-04T11:14:54Z</time>
      </trkpt>
      <trkpt lat="40.3164710" lon="-3.5315770">
        <ele>514.6</ele>
        <time>2021-04-04T11:14:55Z</time>
      </trkpt>
      <trkpt lat="40.3165360" lon="-3.5315370">
        <ele>514.6</ele>
        <time>2021-04-04T11:14:56Z</time>
      </trkpt>
      <trkpt lat="40.3165930" lon="-3.5314910">
        <ele>514.6</ele>
        <time>2021-04-04T11:14:57Z</time>
      </trkpt>
      <trkpt lat="40.3166500" lon="-3.5314460">
        <ele>514.6</ele>
        <time>2021-04-04T11:14:58Z</time>
      </trkpt>
      <trkpt lat="40.3167150" lon="-3.5314090">
        <ele>514.6</ele>
        <time>2021-04-04T11:14:59Z</time>
      </trkpt>
      <trkpt lat="40.3167800" lon="-3.5313840">
        <ele>514.8</ele>
        <time>2021-04-04T11:15:00Z</time>
      </trkpt>
      <trkpt lat="40.3168450" lon="-3.5313660">
        <ele>514.8</ele>
        <time>2021-04-04T11:15:01Z</time>
      </trkpt>
      <trkpt lat="40.3169060" lon="-3.5313520">
        <ele>514.8</ele>
        <time>2021-04-04T11:15:02Z</time>
      </trkpt>
      <trkpt lat="40.3169710" lon="-3.5313360">
        <ele>515.0</ele>
        <time>2021-04-04T11:15:03Z</time>
      </trkpt>
      <trkpt lat="40.3170320" lon="-3.5313230">
        <ele>515.0</ele>
        <time>2021-04-04T11:15:04Z</time>
      </trkpt>
      <trkpt lat="40.3170890" lon="-3.5313150">
        <ele>515.2</ele>
        <time>2021-04-04T11:15:05Z</time>
      </trkpt>
      <trkpt lat="40.3171430" lon="-3.5313110">
        <ele>515.6</ele>
        <time>2021-04-04T11:15:06Z</time>
      </trkpt>
      <trkpt lat="40.3171920" lon="-3.5313080">
        <ele>515.8</ele>
        <time>2021-04-04T11:15:07Z</time>
      </trkpt>
      <trkpt lat="40.3172380" lon="-3.5313070">
        <ele>516.2</ele>
        <time>2021-04-04T11:15:08Z</time>
      </trkpt>
      <trkpt lat="40.3172800" lon="-3.5313070">
        <ele>516.6</ele>
        <time>2021-04-04T11:15:09Z</time>
      </trkpt>
      <trkpt lat="40.3173220" lon="-3.5313050">
        <ele>517.0</ele>
        <time>2021-04-04T11:15:10Z</time>
      </trkpt>
      <trkpt lat="40.3173600" lon="-3.5313000">
        <ele>517.2</ele>
        <time>2021-04-04T11:15:11Z</time>
      </trkpt>
      <trkpt lat="40.3174020" lon="-3.5312970">
        <ele>517.4</ele>
        <time>2021-04-04T11:15:12Z</time>
      </trkpt>
      <trkpt lat="40.3174440" lon="-3.5312940">
        <ele>517.4</ele>
        <time>2021-04-04T11:15:13Z</time>
      </trkpt>
      <trkpt lat="40.3174900" lon="-3.5312910">
        <ele>517.6</ele>
        <time>2021-04-04T11:15:14Z</time>
      </trkpt>
      <trkpt lat="40.3175350" lon="-3.5312840">
        <ele>517.6</ele>
        <time>2021-04-04T11:15:15Z</time>
      </trkpt>
      <trkpt lat="40.3175770" lon="-3.5312770">
        <ele>517.8</ele>
        <time>2021-04-04T11:15:16Z</time>
      </trkpt>
      <trkpt lat="40.3176230" lon="-3.5312680">
        <ele>517.8</ele>
        <time>2021-04-04T11:15:17Z</time>
      </trkpt>
      <trkpt lat="40.3176650" lon="-3.5312560">
        <ele>518.0</ele>
        <time>2021-04-04T11:15:18Z</time>
      </trkpt>
      <trkpt lat="40.3177110" lon="-3.5312390">
        <ele>518.2</ele>
        <time>2021-04-04T11:15:19Z</time>
      </trkpt>
      <trkpt lat="40.3177530" lon="-3.5312210">
        <ele>518.4</ele>
        <time>2021-04-04T11:15:20Z</time>
      </trkpt>
      <trkpt lat="40.3177910" lon="-3.5312040">
        <ele>518.6</ele>
        <time>2021-04-04T11:15:21Z</time>
      </trkpt>
      <trkpt lat="40.3178220" lon="-3.5311860">
        <ele>519.0</ele>
        <time>2021-04-04T11:15:22Z</time>
      </trkpt>
      <trkpt lat="40.3178520" lon="-3.5311700">
        <ele>519.4</ele>
        <time>2021-04-04T11:15:23Z</time>
      </trkpt>
      <trkpt lat="40.3178790" lon="-3.5311560">
        <ele>519.8</ele>
        <time>2021-04-04T11:15:24Z</time>
      </trkpt>
      <trkpt lat="40.3179020" lon="-3.5311410">
        <ele>520.0</ele>
        <time>2021-04-04T11:15:25Z</time>
      </trkpt>
      <trkpt lat="40.3179240" lon="-3.5311260">
        <ele>520.4</ele>
        <time>2021-04-04T11:15:26Z</time>
      </trkpt>
      <trkpt lat="40.3179470" lon="-3.5311110">
        <ele>520.8</ele>
        <time>2021-04-04T11:15:27Z</time>
      </trkpt>
      <trkpt lat="40.3179660" lon="-3.5310950">
        <ele>521.0</ele>
        <time>2021-04-04T11:15:28Z</time>
      </trkpt>
      <trkpt lat="40.3179930" lon="-3.5310810">
        <ele>521.4</ele>
        <time>2021-04-04T11:15:29Z</time>
      </trkpt>
      <trkpt lat="40.3180200" lon="-3.5310680">
        <ele>521.6</ele>
        <time>2021-04-04T11:15:30Z</time>
      </trkpt>
      <trkpt lat="40.3180470" lon="-3.5310560">
        <ele>521.8</ele>
        <time>2021-04-04T11:15:31Z</time>
      </trkpt>
      <trkpt lat="40.3180730" lon="-3.5310440">
        <ele>522.0</ele>
        <time>2021-04-04T11:15:32Z</time>
      </trkpt>
      <trkpt lat="40.3181000" lon="-3.5310320">
        <ele>522.0</ele>
        <time>2021-04-04T11:15:33Z</time>
      </trkpt>
      <trkpt lat="40.3181300" lon="-3.5310180">
        <ele>522.0</ele>
        <time>2021-04-04T11:15:34Z</time>
      </trkpt>
      <trkpt lat="40.3181690" lon="-3.5309990">
        <ele>522.0</ele>
        <time>2021-04-04T11:15:35Z</time>
      </trkpt>
      <trkpt lat="40.3182070" lon="-3.5309820">
        <ele>522.0</ele>
        <time>2021-04-04T11:15:36Z</time>
      </trkpt>
      <trkpt lat="40.3182450" lon="-3.5309680">
        <ele>521.8</ele>
        <time>2021-04-04T11:15:37Z</time>
      </trkpt>
      <trkpt lat="40.3182910" lon="-3.5309510">
        <ele>521.6</ele>
        <time>2021-04-04T11:15:38Z</time>
      </trkpt>
      <trkpt lat="40.3183370" lon="-3.5309260">
        <ele>521.6</ele>
        <time>2021-04-04T11:15:39Z</time>
      </trkpt>
      <trkpt lat="40.3183820" lon="-3.5309000">
        <ele>521.4</ele>
        <time>2021-04-04T11:15:40Z</time>
      </trkpt>
      <trkpt lat="40.3184240" lon="-3.5308740">
        <ele>521.4</ele>
        <time>2021-04-04T11:15:41Z</time>
      </trkpt>
      <trkpt lat="40.3184660" lon="-3.5308490">
        <ele>521.2</ele>
        <time>2021-04-04T11:15:42Z</time>
      </trkpt>
      <trkpt lat="40.3185040" lon="-3.5308200">
        <ele>521.2</ele>
        <time>2021-04-04T11:15:43Z</time>
      </trkpt>
      <trkpt lat="40.3185420" lon="-3.5307870">
        <ele>521.2</ele>
        <time>2021-04-04T11:15:44Z</time>
      </trkpt>
      <trkpt lat="40.3185810" lon="-3.5307510">
        <ele>521.2</ele>
        <time>2021-04-04T11:15:45Z</time>
      </trkpt>
      <trkpt lat="40.3186150" lon="-3.5307180">
        <ele>521.2</ele>
        <time>2021-04-04T11:15:46Z</time>
      </trkpt>
      <trkpt lat="40.3186530" lon="-3.5306860">
        <ele>521.2</ele>
        <time>2021-04-04T11:15:47Z</time>
      </trkpt>
      <trkpt lat="40.3186910" lon="-3.5306540">
        <ele>521.2</ele>
        <time>2021-04-04T11:15:48Z</time>
      </trkpt>
      <trkpt lat="40.3187290" lon="-3.5306250">
        <ele>521.4</ele>
        <time>2021-04-04T11:15:49Z</time>
      </trkpt>
      <trkpt lat="40.3187640" lon="-3.5305980">
        <ele>521.6</ele>
        <time>2021-04-04T11:15:50Z</time>
      </trkpt>
      <trkpt lat="40.3187980" lon="-3.5305750">
        <ele>521.8</ele>
        <time>2021-04-04T11:15:51Z</time>
      </trkpt>
      <trkpt lat="40.3188320" lon="-3.5305550">
        <ele>522.0</ele>
        <time>2021-04-04T11:15:52Z</time>
      </trkpt>
      <trkpt lat="40.3188630" lon="-3.5305400">
        <ele>522.2</ele>
        <time>2021-04-04T11:15:53Z</time>
      </trkpt>
      <trkpt lat="40.3188930" lon="-3.5305280">
        <ele>522.6</ele>
        <time>2021-04-04T11:15:54Z</time>
      </trkpt>
      <trkpt lat="40.3189240" lon="-3.5305110">
        <ele>522.8</ele>
        <time>2021-04-04T11:15:55Z</time>
      </trkpt>
      <trkpt lat="40.3189510" lon="-3.5304900">
        <ele>523.2</ele>
        <time>2021-04-04T11:15:56Z</time>
      </trkpt>
      <trkpt lat="40.3189770" lon="-3.5304680">
        <ele>523.4</ele>
        <time>2021-04-04T11:15:57Z</time>
      </trkpt>
      <trkpt lat="40.3190080" lon="-3.5304470">
        <ele>523.6</ele>
        <time>2021-04-04T11:15:58Z</time>
      </trkpt>
      <trkpt lat="40.3190380" lon="-3.5304240">
        <ele>523.8</ele>
        <time>2021-04-04T11:15:59Z</time>
      </trkpt>
      <trkpt lat="40.3190730" lon="-3.5304000">
        <ele>524.0</ele>
        <time>2021-04-04T11:16:00Z</time>
      </trkpt>
      <trkpt lat="40.3191030" lon="-3.5303710">
        <ele>524.2</ele>
        <time>2021-04-04T11:16:01Z</time>
      </trkpt>
      <trkpt lat="40.3191380" lon="-3.5303400">
        <ele>524.4</ele>
        <time>2021-04-04T11:16:02Z</time>
      </trkpt>
      <trkpt lat="40.3191680" lon="-3.5303110">
        <ele>524.6</ele>
        <time>2021-04-04T11:16:03Z</time>
      </trkpt>
      <trkpt lat="40.3192020" lon="-3.5302840">
        <ele>524.6</ele>
        <time>2021-04-04T11:16:04Z</time>
      </trkpt>
      <trkpt lat="40.3192330" lon="-3.5302610">
        <ele>524.8</ele>
        <time>2021-04-04T11:16:05Z</time>
      </trkpt>
      <trkpt lat="40.3192600" lon="-3.5302410">
        <ele>524.8</ele>
        <time>2021-04-04T11:16:06Z</time>
      </trkpt>
      <trkpt lat="40.3192860" lon="-3.5302240">
        <ele>524.8</ele>
        <time>2021-04-04T11:16:07Z</time>
      </trkpt>
      <trkpt lat="40.3193130" lon="-3.5302080">
        <ele>524.8</ele>
        <time>2021-04-04T11:16:08Z</time>
      </trkpt>
      <trkpt lat="40.3193400" lon="-3.5301920">
        <ele>524.8</ele>
        <time>2021-04-04T11:16:09Z</time>
      </trkpt>
      <trkpt lat="40.3193700" lon="-3.5301780">
        <ele>525.0</ele>
        <time>2021-04-04T11:16:10Z</time>
      </trkpt>
      <trkpt lat="40.3194050" lon="-3.5301660">
        <ele>525.0</ele>
        <time>2021-04-04T11:16:11Z</time>
      </trkpt>
      <trkpt lat="40.3194390" lon="-3.5301490">
        <ele>525.2</ele>
        <time>2021-04-04T11:16:12Z</time>
      </trkpt>
      <trkpt lat="40.3194770" lon="-3.5301300">
        <ele>525.2</ele>
        <time>2021-04-04T11:16:13Z</time>
      </trkpt>
      <trkpt lat="40.3195150" lon="-3.5301110">
        <ele>525.4</ele>
        <time>2021-04-04T11:16:14Z</time>
      </trkpt>
      <trkpt lat="40.3195530" lon="-3.5300830">
        <ele>525.2</ele>
        <time>2021-04-04T11:16:15Z</time>
      </trkpt>
      <trkpt lat="40.3195950" lon="-3.5300480">
        <ele>525.2</ele>
        <time>2021-04-04T11:16:16Z</time>
      </trkpt>
      <trkpt lat="40.3196410" lon="-3.5300100">
        <ele>525.0</ele>
        <time>2021-04-04T11:16:17Z</time>
      </trkpt>
      <trkpt lat="40.3196910" lon="-3.5299680">
        <ele>524.6</ele>
        <time>2021-04-04T11:16:18Z</time>
      </trkpt>
      <trkpt lat="40.3197480" lon="-3.5299230">
        <ele>524.4</ele>
        <time>2021-04-04T11:16:19Z</time>
      </trkpt>
      <trkpt lat="40.3198090" lon="-3.5298750">
        <ele>524.0</ele>
        <time>2021-04-04T11:16:20Z</time>
      </trkpt>
      <trkpt lat="40.3198660" lon="-3.5298260">
        <ele>523.6</ele>
        <time>2021-04-04T11:16:21Z</time>
      </trkpt>
      <trkpt lat="40.3199270" lon="-3.5297760">
        <ele>523.4</ele>
        <time>2021-04-04T11:16:22Z</time>
      </trkpt>
      <trkpt lat="40.3199840" lon="-3.5297300">
        <ele>523.0</ele>
        <time>2021-04-04T11:16:23Z</time>
      </trkpt>
      <trkpt lat="40.3200420" lon="-3.5296890">
        <ele>522.8</ele>
        <time>2021-04-04T11:16:24Z</time>
      </trkpt>
      <trkpt lat="40.3201030" lon="-3.5296500">
        <ele>522.6</ele>
        <time>2021-04-04T11:16:25Z</time>
      </trkpt>
      <trkpt lat="40.3201560" lon="-3.5296090">
        <ele>522.4</ele>
        <time>2021-04-04T11:16:26Z</time>
      </trkpt>
      <trkpt lat="40.3202100" lon="-3.5295600">
        <ele>522.2</ele>
        <time>2021-04-04T11:16:27Z</time>
      </trkpt>
      <trkpt lat="40.3202590" lon="-3.5295050">
        <ele>522.0</ele>
        <time>2021-04-04T11:16:28Z</time>
      </trkpt>
      <trkpt lat="40.3203010" lon="-3.5294450">
        <ele>521.8</ele>
        <time>2021-04-04T11:16:29Z</time>
      </trkpt>
      <trkpt lat="40.3203390" lon="-3.5293830">
        <ele>521.8</ele>
        <time>2021-04-04T11:16:30Z</time>
      </trkpt>
      <trkpt lat="40.3203740" lon="-3.5293200">
        <ele>521.6</ele>
        <time>2021-04-04T11:16:31Z</time>
      </trkpt>
      <trkpt lat="40.3204080" lon="-3.5292580">
        <ele>521.4</ele>
        <time>2021-04-04T11:16:32Z</time>
      </trkpt>
      <trkpt lat="40.3204420" lon="-3.5291940">
        <ele>521.4</ele>
        <time>2021-04-04T11:16:33Z</time>
      </trkpt>
      <trkpt lat="40.3204760" lon="-3.5291280">
        <ele>521.2</ele>
        <time>2021-04-04T11:16:34Z</time>
      </trkpt>
      <trkpt lat="40.3205150" lon="-3.5290680">
        <ele>521.2</ele>
        <time>2021-04-04T11:16:35Z</time>
      </trkpt>
      <trkpt lat="40.3205530" lon="-3.5290090">
        <ele>521.0</ele>
        <time>2021-04-04T11:16:36Z</time>
      </trkpt>
      <trkpt lat="40.3205950" lon="-3.5289570">
        <ele>521.0</ele>
        <time>2021-04-04T11:16:37Z</time>
      </trkpt>
      <trkpt lat="40.3206410" lon="-3.5289070">
        <ele>520.8</ele>
        <time>2021-04-04T11:16:38Z</time>
      </trkpt>
      <trkpt lat="40.3206900" lon="-3.5288600">
        <ele>520.6</ele>
        <time>2021-04-04T11:16:39Z</time>
      </trkpt>
      <trkpt lat="40.3207440" lon="-3.5288140">
        <ele>520.2</ele>
        <time>2021-04-04T11:16:40Z</time>
      </trkpt>
      <trkpt lat="40.3208010" lon="-3.5287670">
        <ele>520.0</ele>
        <time>2021-04-04T11:16:41Z</time>
      </trkpt>
      <trkpt lat="40.3208620" lon="-3.5287190">
        <ele>519.4</ele>
        <time>2021-04-04T11:16:42Z</time>
      </trkpt>
      <trkpt lat="40.3209300" lon="-3.5286720">
        <ele>519.0</ele>
        <time>2021-04-04T11:16:43Z</time>
      </trkpt>
      <trkpt lat="40.3210030" lon="-3.5286220">
        <ele>518.4</ele>
        <time>2021-04-04T11:16:44Z</time>
      </trkpt>
      <trkpt lat="40.3210750" lon="-3.5285700">
        <ele>517.8</ele>
        <time>2021-04-04T11:16:45Z</time>
      </trkpt>
      <trkpt lat="40.3211480" lon="-3.5285190">
        <ele>517.6</ele>
        <time>2021-04-04T11:16:46Z</time>
      </trkpt>
      <trkpt lat="40.3212170" lon="-3.5284700">
        <ele>517.2</ele>
        <time>2021-04-04T11:16:47Z</time>
      </trkpt>
      <trkpt lat="40.3212850" lon="-3.5284260">
        <ele>517.0</ele>
        <time>2021-04-04T11:16:48Z</time>
      </trkpt>
      <trkpt lat="40.3213540" lon="-3.5283860">
        <ele>516.8</ele>
        <time>2021-04-04T11:16:49Z</time>
      </trkpt>
      <trkpt lat="40.3214190" lon="-3.5283510">
        <ele>516.8</ele>
        <time>2021-04-04T11:16:50Z</time>
      </trkpt>
      <trkpt lat="40.3214910" lon="-3.5283180">
        <ele>516.8</ele>
        <time>2021-04-04T11:16:51Z</time>
      </trkpt>
      <trkpt lat="40.3215600" lon="-3.5282870">
        <ele>516.8</ele>
        <time>2021-04-04T11:16:52Z</time>
      </trkpt>
      <trkpt lat="40.3216250" lon="-3.5282600">
        <ele>516.8</ele>
        <time>2021-04-04T11:16:53Z</time>
      </trkpt>
      <trkpt lat="40.3216930" lon="-3.5282320">
        <ele>516.8</ele>
        <time>2021-04-04T11:16:54Z</time>
      </trkpt>
      <trkpt lat="40.3217580" lon="-3.5282030">
        <ele>516.8</ele>
        <time>2021-04-04T11:16:55Z</time>
      </trkpt>
      <trkpt lat="40.3218230" lon="-3.5281700">
        <ele>516.8</ele>
        <time>2021-04-04T11:16:56Z</time>
      </trkpt>
      <trkpt lat="40.3218840" lon="-3.5281330">
        <ele>516.8</ele>
        <time>2021-04-04T11:16:57Z</time>
      </trkpt>
      <trkpt lat="40.3219450" lon="-3.5280920">
        <ele>516.8</ele>
        <time>2021-04-04T11:16:58Z</time>
      </trkpt>
      <trkpt lat="40.3220060" lon="-3.5280500">
        <ele>516.8</ele>
        <time>2021-04-04T11:16:59Z</time>
      </trkpt>
      <trkpt lat="40.3220670" lon="-3.5280060">
        <ele>516.8</ele>
        <time>2021-04-04T11:17:00Z</time>
      </trkpt>
      <trkpt lat="40.3221240" lon="-3.5279630">
        <ele>516.8</ele>
        <time>2021-04-04T11:17:01Z</time>
      </trkpt>
      <trkpt lat="40.3221890" lon="-3.5279260">
        <ele>516.6</ele>
        <time>2021-04-04T11:17:02Z</time>
      </trkpt>
      <trkpt lat="40.3222500" lon="-3.5278970">
        <ele>516.6</ele>
        <time>2021-04-04T11:17:03Z</time>
      </trkpt>
      <trkpt lat="40.3223110" lon="-3.5278750">
        <ele>516.8</ele>
        <time>2021-04-04T11:17:04Z</time>
      </trkpt>
      <trkpt lat="40.3223720" lon="-3.5278600">
        <ele>516.8</ele>
        <time>2021-04-04T11:17:05Z</time>
      </trkpt>
      <trkpt lat="40.3224340" lon="-3.5278480">
        <ele>516.8</ele>
        <time>2021-04-04T11:17:06Z</time>
      </trkpt>
      <trkpt lat="40.3224980" lon="-3.5278460">
        <ele>516.8</ele>
        <time>2021-04-04T11:17:07Z</time>
      </trkpt>
      <trkpt lat="40.3225590" lon="-3.5278580">
        <ele>517.0</ele>
        <time>2021-04-04T11:17:08Z</time>
      </trkpt>
      <trkpt lat="40.3226200" lon="-3.5278800">
        <ele>517.0</ele>
        <time>2021-04-04T11:17:09Z</time>
      </trkpt>
      <trkpt lat="40.3226780" lon="-3.5279090">
        <ele>517.0</ele>
        <time>2021-04-04T11:17:10Z</time>
      </trkpt>
      <trkpt lat="40.3227310" lon="-3.5279390">
        <ele>517.0</ele>
        <time>2021-04-04T11:17:11Z</time>
      </trkpt>
      <trkpt lat="40.3227840" lon="-3.5279670">
        <ele>517.0</ele>
        <time>2021-04-04T11:17:12Z</time>
      </trkpt>
      <trkpt lat="40.3228420" lon="-3.5279900">
        <ele>517.0</ele>
        <time>2021-04-04T11:17:13Z</time>
      </trkpt>
      <trkpt lat="40.3228990" lon="-3.5280110">
        <ele>517.2</ele>
        <time>2021-04-04T11:17:14Z</time>
      </trkpt>
      <trkpt lat="40.3229560" lon="-3.5280360">
        <ele>517.2</ele>
        <time>2021-04-04T11:17:15Z</time>
      </trkpt>
      <trkpt lat="40.3230100" lon="-3.5280600">
        <ele>517.2</ele>
        <time>2021-04-04T11:17:16Z</time>
      </trkpt>
      <trkpt lat="40.3230670" lon="-3.5280860">
        <ele>517.2</ele>
        <time>2021-04-04T11:17:17Z</time>
      </trkpt>
      <trkpt lat="40.3231240" lon="-3.5281130">
        <ele>517.2</ele>
        <time>2021-04-04T11:17:18Z</time>
      </trkpt>
      <trkpt lat="40.3231770" lon="-3.5281440">
        <ele>517.2</ele>
        <time>2021-04-04T11:17:19Z</time>
      </trkpt>
      <trkpt lat="40.3232350" lon="-3.5281790">
        <ele>517.2</ele>
        <time>2021-04-04T11:17:20Z</time>
      </trkpt>
      <trkpt lat="40.3232920" lon="-3.5282150">
        <ele>517.2</ele>
        <time>2021-04-04T11:17:21Z</time>
      </trkpt>
      <trkpt lat="40.3233530" lon="-3.5282490">
        <ele>517.2</ele>
        <time>2021-04-04T11:17:22Z</time>
      </trkpt>
      <trkpt lat="40.3234100" lon="-3.5282780">
        <ele>517.4</ele>
        <time>2021-04-04T11:17:23Z</time>
      </trkpt>
      <trkpt lat="40.3234630" lon="-3.5283050">
        <ele>517.4</ele>
        <time>2021-04-04T11:17:24Z</time>
      </trkpt>
      <trkpt lat="40.3235170" lon="-3.5283390">
        <ele>517.6</ele>
        <time>2021-04-04T11:17:25Z</time>
      </trkpt>
      <trkpt lat="40.3235660" lon="-3.5283830">
        <ele>517.8</ele>
        <time>2021-04-04T11:17:26Z</time>
      </trkpt>
      <trkpt lat="40.3236160" lon="-3.5284330">
        <ele>517.8</ele>
        <time>2021-04-04T11:17:27Z</time>
      </trkpt>
      <trkpt lat="40.3236620" lon="-3.5284870">
        <ele>517.6</ele>
        <time>2021-04-04T11:17:28Z</time>
      </trkpt>
      <trkpt lat="40.3237110" lon="-3.5285440">
        <ele>517.6</ele>
        <time>2021-04-04T11:17:29Z</time>
      </trkpt>
      <trkpt lat="40.3237570" lon="-3.5286000">
        <ele>517.6</ele>
        <time>2021-04-04T11:17:30Z</time>
      </trkpt>
      <trkpt lat="40.3237990" lon="-3.5286600">
        <ele>517.6</ele>
        <time>2021-04-04T11:17:31Z</time>
      </trkpt>
      <trkpt lat="40.3238490" lon="-3.5287220">
        <ele>517.6</ele>
        <time>2021-04-04T11:17:32Z</time>
      </trkpt>
      <trkpt lat="40.3238940" lon="-3.5287830">
        <ele>517.4</ele>
        <time>2021-04-04T11:17:33Z</time>
      </trkpt>
      <trkpt lat="40.3239360" lon="-3.5288470">
        <ele>517.4</ele>
        <time>2021-04-04T11:17:34Z</time>
      </trkpt>
      <trkpt lat="40.3239820" lon="-3.5289120">
        <ele>517.4</ele>
        <time>2021-04-04T11:17:35Z</time>
      </trkpt>
      <trkpt lat="40.3240240" lon="-3.5289760">
        <ele>517.4</ele>
        <time>2021-04-04T11:17:36Z</time>
      </trkpt>
      <trkpt lat="40.3240700" lon="-3.5290410">
        <ele>517.4</ele>
        <time>2021-04-04T11:17:37Z</time>
      </trkpt>
      <trkpt lat="40.3241160" lon="-3.5291050">
        <ele>517.4</ele>
        <time>2021-04-04T11:17:38Z</time>
      </trkpt>
      <trkpt lat="40.3241620" lon="-3.5291640">
        <ele>517.4</ele>
        <time>2021-04-04T11:17:39Z</time>
      </trkpt>
      <trkpt lat="40.3242040" lon="-3.5292210">
        <ele>517.6</ele>
        <time>2021-04-04T11:17:40Z</time>
      </trkpt>
      <trkpt lat="40.3242450" lon="-3.5292800">
        <ele>517.6</ele>
        <time>2021-04-04T11:17:41Z</time>
      </trkpt>
      <trkpt lat="40.3242840" lon="-3.5293430">
        <ele>517.6</ele>
        <time>2021-04-04T11:17:42Z</time>
      </trkpt>
      <trkpt lat="40.3243220" lon="-3.5294080">
        <ele>517.6</ele>
        <time>2021-04-04T11:17:43Z</time>
      </trkpt>
      <trkpt lat="40.3243600" lon="-3.5294730">
        <ele>517.8</ele>
        <time>2021-04-04T11:17:44Z</time>
      </trkpt>
      <trkpt lat="40.3244020" lon="-3.5295370">
        <ele>517.8</ele>
        <time>2021-04-04T11:17:45Z</time>
      </trkpt>
      <trkpt lat="40.3244400" lon="-3.5295990">
        <ele>517.8</ele>
        <time>2021-04-04T11:17:46Z</time>
      </trkpt>
      <trkpt lat="40.3244820" lon="-3.5296620">
        <ele>517.8</ele>
        <time>2021-04-04T11:17:47Z</time>
      </trkpt>
      <trkpt lat="40.3245240" lon="-3.5297300">
        <ele>517.8</ele>
        <time>2021-04-04T11:17:48Z</time>
      </trkpt>
      <trkpt lat="40.3245660" lon="-3.5297970">
        <ele>517.8</ele>
        <time>2021-04-04T11:17:49Z</time>
      </trkpt>
      <trkpt lat="40.3246040" lon="-3.5298650">
        <ele>517.8</ele>
        <time>2021-04-04T11:17:50Z</time>
      </trkpt>
      <trkpt lat="40.3246460" lon="-3.5299300">
        <ele>517.8</ele>
        <time>2021-04-04T11:17:51Z</time>
      </trkpt>
      <trkpt lat="40.3246880" lon="-3.5299920">
        <ele>517.8</ele>
        <time>2021-04-04T11:17:52Z</time>
      </trkpt>
      <trkpt lat="40.3247340" lon="-3.5300520">
        <ele>517.8</ele>
        <time>2021-04-04T11:17:53Z</time>
      </trkpt>
      <trkpt lat="40.3247800" lon="-3.5301060">
        <ele>518.0</ele>
        <time>2021-04-04T11:17:54Z</time>
      </trkpt>
      <trkpt lat="40.3248220" lon="-3.5301550">
        <ele>518.0</ele>
        <time>2021-04-04T11:17:55Z</time>
      </trkpt>
      <trkpt lat="40.3248630" lon="-3.5302060">
        <ele>518.2</ele>
        <time>2021-04-04T11:17:56Z</time>
      </trkpt>
      <trkpt lat="40.3249050" lon="-3.5302610">
        <ele>518.4</ele>
        <time>2021-04-04T11:17:57Z</time>
      </trkpt>
      <trkpt lat="40.3249440" lon="-3.5303160">
        <ele>518.4</ele>
        <time>2021-04-04T11:17:58Z</time>
      </trkpt>
      <trkpt lat="40.3249820" lon="-3.5303760">
        <ele>518.4</ele>
        <time>2021-04-04T11:17:59Z</time>
      </trkpt>
      <trkpt lat="40.3250200" lon="-3.5304400">
        <ele>518.4</ele>
        <time>2021-04-04T11:18:00Z</time>
      </trkpt>
      <trkpt lat="40.3250620" lon="-3.5305040">
        <ele>518.2</ele>
        <time>2021-04-04T11:18:01Z</time>
      </trkpt>
      <trkpt lat="40.3251040" lon="-3.5305710">
        <ele>518.2</ele>
        <time>2021-04-04T11:18:02Z</time>
      </trkpt>
      <trkpt lat="40.3251380" lon="-3.5306390">
        <ele>518.0</ele>
        <time>2021-04-04T11:18:03Z</time>
      </trkpt>
      <trkpt lat="40.3251690" lon="-3.5307040">
        <ele>518.0</ele>
        <time>2021-04-04T11:18:04Z</time>
      </trkpt>
      <trkpt lat="40.3251950" lon="-3.5307680">
        <ele>518.0</ele>
        <time>2021-04-04T11:18:05Z</time>
      </trkpt>
      <trkpt lat="40.3252220" lon="-3.5308320">
        <ele>518.0</ele>
        <time>2021-04-04T11:18:06Z</time>
      </trkpt>
      <trkpt lat="40.3252410" lon="-3.5308970">
        <ele>518.0</ele>
        <time>2021-04-04T11:18:07Z</time>
      </trkpt>
      <trkpt lat="40.3252600" lon="-3.5309640">
        <ele>518.0</ele>
        <time>2021-04-04T11:18:08Z</time>
      </trkpt>
      <trkpt lat="40.3252790" lon="-3.5310310">
        <ele>518.0</ele>
        <time>2021-04-04T11:18:09Z</time>
      </trkpt>
      <trkpt lat="40.3252950" lon="-3.5310960">
        <ele>518.2</ele>
        <time>2021-04-04T11:18:10Z</time>
      </trkpt>
      <trkpt lat="40.3253140" lon="-3.5311540">
        <ele>518.4</ele>
        <time>2021-04-04T11:18:11Z</time>
      </trkpt>
      <trkpt lat="40.3253360" lon="-3.5312050">
        <ele>518.8</ele>
        <time>2021-04-04T11:18:12Z</time>
      </trkpt>
      <trkpt lat="40.3253630" lon="-3.5312530">
        <ele>519.2</ele>
        <time>2021-04-04T11:18:13Z</time>
      </trkpt>
      <trkpt lat="40.3253900" lon="-3.5312950">
        <ele>519.4</ele>
        <time>2021-04-04T11:18:14Z</time>
      </trkpt>
      <trkpt lat="40.3254170" lon="-3.5313310">
        <ele>519.8</ele>
        <time>2021-04-04T11:18:15Z</time>
      </trkpt>
      <trkpt lat="40.3254510" lon="-3.5313670">
        <ele>520.0</ele>
        <time>2021-04-04T11:18:16Z</time>
      </trkpt>
      <trkpt lat="40.3254890" lon="-3.5314110">
        <ele>520.0</ele>
        <time>2021-04-04T11:18:17Z</time>
      </trkpt>
      <trkpt lat="40.3255200" lon="-3.5314630">
        <ele>520.0</ele>
        <time>2021-04-04T11:18:18Z</time>
      </trkpt>
      <trkpt lat="40.3255540" lon="-3.5315220">
        <ele>519.8</ele>
        <time>2021-04-04T11:18:19Z</time>
      </trkpt>
      <trkpt lat="40.3255880" lon="-3.5315870">
        <ele>519.8</ele>
        <time>2021-04-04T11:18:20Z</time>
      </trkpt>
      <trkpt lat="40.3256230" lon="-3.5316580">
        <ele>519.6</ele>
        <time>2021-04-04T11:18:21Z</time>
      </trkpt>
      <trkpt lat="40.3256570" lon="-3.5317290">
        <ele>519.4</ele>
        <time>2021-04-04T11:18:22Z</time>
      </trkpt>
      <trkpt lat="40.3256870" lon="-3.5318020">
        <ele>519.2</ele>
        <time>2021-04-04T11:18:23Z</time>
      </trkpt>
      <trkpt lat="40.3257180" lon="-3.5318750">
        <ele>519.0</ele>
        <time>2021-04-04T11:18:24Z</time>
      </trkpt>
      <trkpt lat="40.3257480" lon="-3.5319490">
        <ele>519.0</ele>
        <time>2021-04-04T11:18:25Z</time>
      </trkpt>
      <trkpt lat="40.3257750" lon="-3.5320230">
        <ele>518.8</ele>
        <time>2021-04-04T11:18:26Z</time>
      </trkpt>
      <trkpt lat="40.3258020" lon="-3.5320940">
        <ele>518.6</ele>
        <time>2021-04-04T11:18:27Z</time>
      </trkpt>
      <trkpt lat="40.3258360" lon="-3.5321630">
        <ele>518.6</ele>
        <time>2021-04-04T11:18:28Z</time>
      </trkpt>
      <trkpt lat="40.3258670" lon="-3.5322280">
        <ele>518.6</ele>
        <time>2021-04-04T11:18:29Z</time>
      </trkpt>
      <trkpt lat="40.3259010" lon="-3.5322940">
        <ele>518.6</ele>
        <time>2021-04-04T11:18:30Z</time>
      </trkpt>
      <trkpt lat="40.3259320" lon="-3.5323610">
        <ele>518.4</ele>
        <time>2021-04-04T11:18:31Z</time>
      </trkpt>
      <trkpt lat="40.3259580" lon="-3.5324270">
        <ele>518.4</ele>
        <time>2021-04-04T11:18:32Z</time>
      </trkpt>
      <trkpt lat="40.3259850" lon="-3.5324960">
        <ele>518.4</ele>
        <time>2021-04-04T11:18:33Z</time>
      </trkpt>
      <trkpt lat="40.3260080" lon="-3.5325650">
        <ele>518.4</ele>
        <time>2021-04-04T11:18:34Z</time>
      </trkpt>
      <trkpt lat="40.3260310" lon="-3.5326360">
        <ele>518.4</ele>
        <time>2021-04-04T11:18:35Z</time>
      </trkpt>
      <trkpt lat="40.3260500" lon="-3.5327080">
        <ele>518.4</ele>
        <time>2021-04-04T11:18:36Z</time>
      </trkpt>
      <trkpt lat="40.3260650" lon="-3.5327790">
        <ele>518.4</ele>
        <time>2021-04-04T11:18:37Z</time>
      </trkpt>
      <trkpt lat="40.3260840" lon="-3.5328500">
        <ele>518.4</ele>
        <time>2021-04-04T11:18:38Z</time>
      </trkpt>
      <trkpt lat="40.3260990" lon="-3.5329200">
        <ele>518.6</ele>
        <time>2021-04-04T11:18:39Z</time>
      </trkpt>
      <trkpt lat="40.3261180" lon="-3.5329890">
        <ele>518.6</ele>
        <time>2021-04-04T11:18:40Z</time>
      </trkpt>
      <trkpt lat="40.3261380" lon="-3.5330610">
        <ele>518.6</ele>
        <time>2021-04-04T11:18:41Z</time>
      </trkpt>
      <trkpt lat="40.3261530" lon="-3.5331300">
        <ele>518.6</ele>
        <time>2021-04-04T11:18:42Z</time>
      </trkpt>
      <trkpt lat="40.3261720" lon="-3.5331980">
        <ele>518.6</ele>
        <time>2021-04-04T11:18:43Z</time>
      </trkpt>
      <trkpt lat="40.3261950" lon="-3.5332660">
        <ele>518.6</ele>
        <time>2021-04-04T11:18:44Z</time>
      </trkpt>
      <trkpt lat="40.3262180" lon="-3.5333330">
        <ele>518.8</ele>
        <time>2021-04-04T11:18:45Z</time>
      </trkpt>
      <trkpt lat="40.3262370" lon="-3.5334020">
        <ele>518.8</ele>
        <time>2021-04-04T11:18:46Z</time>
      </trkpt>
      <trkpt lat="40.3262560" lon="-3.5334720">
        <ele>518.8</ele>
        <time>2021-04-04T11:18:47Z</time>
      </trkpt>
      <trkpt lat="40.3262750" lon="-3.5335440">
        <ele>518.8</ele>
        <time>2021-04-04T11:18:48Z</time>
      </trkpt>
      <trkpt lat="40.3262900" lon="-3.5336140">
        <ele>519.0</ele>
        <time>2021-04-04T11:18:49Z</time>
      </trkpt>
      <trkpt lat="40.3263020" lon="-3.5336850">
        <ele>519.0</ele>
        <time>2021-04-04T11:18:50Z</time>
      </trkpt>
      <trkpt lat="40.3263130" lon="-3.5337570">
        <ele>519.0</ele>
        <time>2021-04-04T11:18:51Z</time>
      </trkpt>
      <trkpt lat="40.3263280" lon="-3.5338320">
        <ele>519.0</ele>
        <time>2021-04-04T11:18:52Z</time>
      </trkpt>
      <trkpt lat="40.3263400" lon="-3.5339050">
        <ele>519.0</ele>
        <time>2021-04-04T11:18:53Z</time>
      </trkpt>
      <trkpt lat="40.3263470" lon="-3.5339780">
        <ele>519.0</ele>
        <time>2021-04-04T11:18:54Z</time>
      </trkpt>
      <trkpt lat="40.3263510" lon="-3.5340510">
        <ele>519.0</ele>
        <time>2021-04-04T11:18:55Z</time>
      </trkpt>
      <trkpt lat="40.3263550" lon="-3.5341260">
        <ele>519.0</ele>
        <time>2021-04-04T11:18:56Z</time>
      </trkpt>
      <trkpt lat="40.3263630" lon="-3.5341980">
        <ele>519.2</ele>
        <time>2021-04-04T11:18:57Z</time>
      </trkpt>
      <trkpt lat="40.3263740" lon="-3.5342700">
        <ele>519.2</ele>
        <time>2021-04-04T11:18:58Z</time>
      </trkpt>
      <trkpt lat="40.3263850" lon="-3.5343440">
        <ele>519.0</ele>
        <time>2021-04-04T11:18:59Z</time>
      </trkpt>
      <trkpt lat="40.3263970" lon="-3.5344180">
        <ele>519.0</ele>
        <time>2021-04-04T11:19:00Z</time>
      </trkpt>
      <trkpt lat="40.3264080" lon="-3.5344920">
        <ele>519.0</ele>
        <time>2021-04-04T11:19:01Z</time>
      </trkpt>
      <trkpt lat="40.3264120" lon="-3.5345640">
        <ele>519.0</ele>
        <time>2021-04-04T11:19:02Z</time>
      </trkpt>
      <trkpt lat="40.3264160" lon="-3.5346330">
        <ele>519.0</ele>
        <time>2021-04-04T11:19:03Z</time>
      </trkpt>
      <trkpt lat="40.3264080" lon="-3.5347000">
        <ele>519.0</ele>
        <time>2021-04-04T11:19:04Z</time>
      </trkpt>
      <trkpt lat="40.3263970" lon="-3.5347650">
        <ele>519.0</ele>
        <time>2021-04-04T11:19:05Z</time>
      </trkpt>
      <trkpt lat="40.3263780" lon="-3.5348280">
        <ele>519.0</ele>
        <time>2021-04-04T11:19:06Z</time>
      </trkpt>
      <trkpt lat="40.3263590" lon="-3.5348880">
        <ele>518.8</ele>
        <time>2021-04-04T11:19:07Z</time>
      </trkpt>
      <trkpt lat="40.3263320" lon="-3.5349480">
        <ele>518.8</ele>
        <time>2021-04-04T11:19:08Z</time>
      </trkpt>
      <trkpt lat="40.3263090" lon="-3.5350140">
        <ele>518.8</ele>
        <time>2021-04-04T11:19:09Z</time>
      </trkpt>
      <trkpt lat="40.3262860" lon="-3.5350800">
        <ele>518.8</ele>
        <time>2021-04-04T11:19:10Z</time>
      </trkpt>
      <trkpt lat="40.3262670" lon="-3.5351470">
        <ele>518.6</ele>
        <time>2021-04-04T11:19:11Z</time>
      </trkpt>
      <trkpt lat="40.3262480" lon="-3.5352170">
        <ele>518.6</ele>
        <time>2021-04-04T11:19:12Z</time>
      </trkpt>
      <trkpt lat="40.3262370" lon="-3.5352870">
        <ele>518.6</ele>
        <time>2021-04-04T11:19:13Z</time>
      </trkpt>
      <trkpt lat="40.3262250" lon="-3.5353590">
        <ele>518.6</ele>
        <time>2021-04-04T11:19:14Z</time>
      </trkpt>
      <trkpt lat="40.3262140" lon="-3.5354290">
        <ele>518.6</ele>
        <time>2021-04-04T11:19:15Z</time>
      </trkpt>
      <trkpt lat="40.3262060" lon="-3.5355010">
        <ele>518.6</ele>
        <time>2021-04-04T11:19:16Z</time>
      </trkpt>
      <trkpt lat="40.3262020" lon="-3.5355730">
        <ele>518.6</ele>
        <time>2021-04-04T11:19:17Z</time>
      </trkpt>
      <trkpt lat="40.3261990" lon="-3.5356440">
        <ele>518.6</ele>
        <time>2021-04-04T11:19:18Z</time>
      </trkpt>
      <trkpt lat="40.3261990" lon="-3.5357120">
        <ele>518.8</ele>
        <time>2021-04-04T11:19:19Z</time>
      </trkpt>
      <trkpt lat="40.3262020" lon="-3.5357810">
        <ele>518.8</ele>
        <time>2021-04-04T11:19:20Z</time>
      </trkpt>
      <trkpt lat="40.3262020" lon="-3.5358540">
        <ele>518.8</ele>
        <time>2021-04-04T11:19:21Z</time>
      </trkpt>
      <trkpt lat="40.3262020" lon="-3.5359240">
        <ele>518.8</ele>
        <time>2021-04-04T11:19:22Z</time>
      </trkpt>
      <trkpt lat="40.3262020" lon="-3.5359940">
        <ele>518.8</ele>
        <time>2021-04-04T11:19:23Z</time>
      </trkpt>
      <trkpt lat="40.3262060" lon="-3.5360630">
        <ele>518.8</ele>
        <time>2021-04-04T11:19:24Z</time>
      </trkpt>
      <trkpt lat="40.3261990" lon="-3.5361290">
        <ele>519.0</ele>
        <time>2021-04-04T11:19:25Z</time>
      </trkpt>
      <trkpt lat="40.3261830" lon="-3.5361920">
        <ele>519.0</ele>
        <time>2021-04-04T11:19:26Z</time>
      </trkpt>
      <trkpt lat="40.3261720" lon="-3.5362550">
        <ele>519.0</ele>
        <time>2021-04-04T11:19:27Z</time>
      </trkpt>
      <trkpt lat="40.3261600" lon="-3.5363210">
        <ele>519.0</ele>
        <time>2021-04-04T11:19:28Z</time>
      </trkpt>
      <trkpt lat="40.3261450" lon="-3.5363870">
        <ele>519.0</ele>
        <time>2021-04-04T11:19:29Z</time>
      </trkpt>
      <trkpt lat="40.3261300" lon="-3.5364560">
        <ele>519.0</ele>
        <time>2021-04-04T11:19:30Z</time>
      </trkpt>
      <trkpt lat="40.3261110" lon="-3.5365280">
        <ele>519.0</ele>
        <time>2021-04-04T11:19:31Z</time>
      </trkpt>
      <trkpt lat="40.3260990" lon="-3.5366020">
        <ele>518.8</ele>
        <time>2021-04-04T11:19:32Z</time>
      </trkpt>
      <trkpt lat="40.3260920" lon="-3.5366740">
        <ele>518.8</ele>
        <time>2021-04-04T11:19:33Z</time>
      </trkpt>
      <trkpt lat="40.3260840" lon="-3.5367430">
        <ele>518.8</ele>
        <time>2021-04-04T11:19:34Z</time>
      </trkpt>
      <trkpt lat="40.3260800" lon="-3.5368110">
        <ele>518.6</ele>
        <time>2021-04-04T11:19:35Z</time>
      </trkpt>
      <trkpt lat="40.3260770" lon="-3.5368780">
        <ele>518.6</ele>
        <time>2021-04-04T11:19:36Z</time>
      </trkpt>
      <trkpt lat="40.3260800" lon="-3.5369440">
        <ele>518.6</ele>
        <time>2021-04-04T11:19:37Z</time>
      </trkpt>
      <trkpt lat="40.3260730" lon="-3.5370100">
        <ele>518.6</ele>
        <time>2021-04-04T11:19:38Z</time>
      </trkpt>
      <trkpt lat="40.3260690" lon="-3.5370740">
        <ele>518.6</ele>
        <time>2021-04-04T11:19:39Z</time>
      </trkpt>
      <trkpt lat="40.3260770" lon="-3.5371320">
        <ele>518.6</ele>
        <time>2021-04-04T11:19:40Z</time>
      </trkpt>
      <trkpt lat="40.3260880" lon="-3.5371800">
        <ele>518.6</ele>
        <time>2021-04-04T11:19:41Z</time>
      </trkpt>
      <trkpt lat="40.3261110" lon="-3.5372160">
        <ele>518.6</ele>
        <time>2021-04-04T11:19:42Z</time>
      </trkpt>
      <trkpt lat="40.3261220" lon="-3.5372350">
        <ele>518.8</ele>
        <time>2021-04-04T11:19:43Z</time>
      </trkpt>
      <trkpt lat="40.3261340" lon="-3.5372480">
        <ele>519.2</ele>
        <time>2021-04-04T11:20:34Z</time>
      </trkpt>
      <trkpt lat="40.3261220" lon="-3.5372470">
        <ele>519.2</ele>
        <time>2021-04-04T11:20:35Z</time>
      </trkpt>
      <trkpt lat="40.3261070" lon="-3.5372490">
        <ele>519.2</ele>
        <time>2021-04-04T11:20:36Z</time>
      </trkpt>
      <trkpt lat="40.3260960" lon="-3.5372580">
        <ele>519.2</ele>
        <time>2021-04-04T11:20:37Z</time>
      </trkpt>
      <trkpt lat="40.3260840" lon="-3.5372720">
        <ele>519.2</ele>
        <time>2021-04-04T11:20:38Z</time>
      </trkpt>
      <trkpt lat="40.3260690" lon="-3.5372920">
        <ele>519.2</ele>
        <time>2021-04-04T11:20:39Z</time>
      </trkpt>
      <trkpt lat="40.3260540" lon="-3.5373140">
        <ele>519.2</ele>
        <time>2021-04-04T11:20:40Z</time>
      </trkpt>
      <trkpt lat="40.3260380" lon="-3.5373380">
        <ele>519.2</ele>
        <time>2021-04-04T11:20:41Z</time>
      </trkpt>
      <trkpt lat="40.3260190" lon="-3.5373670">
        <ele>519.2</ele>
        <time>2021-04-04T11:20:42Z</time>
      </trkpt>
      <trkpt lat="40.3260000" lon="-3.5373990">
        <ele>519.0</ele>
        <time>2021-04-04T11:20:43Z</time>
      </trkpt>
      <trkpt lat="40.3259770" lon="-3.5374360">
        <ele>519.0</ele>
        <time>2021-04-04T11:20:44Z</time>
      </trkpt>
      <trkpt lat="40.3259540" lon="-3.5374770">
        <ele>519.0</ele>
        <time>2021-04-04T11:20:45Z</time>
      </trkpt>
      <trkpt lat="40.3259390" lon="-3.5375190">
        <ele>519.0</ele>
        <time>2021-04-04T11:20:46Z</time>
      </trkpt>
      <trkpt lat="40.3259280" lon="-3.5375630">
        <ele>519.0</ele>
        <time>2021-04-04T11:20:47Z</time>
      </trkpt>
      <trkpt lat="40.3259160" lon="-3.5376100">
        <ele>519.0</ele>
        <time>2021-04-04T11:20:48Z</time>
      </trkpt>
      <trkpt lat="40.3259090" lon="-3.5376590">
        <ele>519.0</ele>
        <time>2021-04-04T11:20:49Z</time>
      </trkpt>
      <trkpt lat="40.3258970" lon="-3.5377100">
        <ele>519.0</ele>
        <time>2021-04-04T11:20:50Z</time>
      </trkpt>
      <trkpt lat="40.3258900" lon="-3.5377630">
        <ele>519.0</ele>
        <time>2021-04-04T11:20:51Z</time>
      </trkpt>
      <trkpt lat="40.3258780" lon="-3.5378180">
        <ele>519.0</ele>
        <time>2021-04-04T11:20:52Z</time>
      </trkpt>
      <trkpt lat="40.3258740" lon="-3.5378740">
        <ele>518.8</ele>
        <time>2021-04-04T11:20:53Z</time>
      </trkpt>
      <trkpt lat="40.3258710" lon="-3.5379280">
        <ele>518.8</ele>
        <time>2021-04-04T11:20:54Z</time>
      </trkpt>
      <trkpt lat="40.3258670" lon="-3.5379790">
        <ele>518.8</ele>
        <time>2021-04-04T11:20:55Z</time>
      </trkpt>
      <trkpt lat="40.3258670" lon="-3.5380260">
        <ele>518.8</ele>
        <time>2021-04-04T11:20:56Z</time>
      </trkpt>
      <trkpt lat="40.3258630" lon="-3.5380710">
        <ele>518.8</ele>
        <time>2021-04-04T11:20:57Z</time>
      </trkpt>
      <trkpt lat="40.3258550" lon="-3.5381190">
        <ele>518.8</ele>
        <time>2021-04-04T11:20:58Z</time>
      </trkpt>
      <trkpt lat="40.3258440" lon="-3.5381660">
        <ele>518.8</ele>
        <time>2021-04-04T11:20:59Z</time>
      </trkpt>
      <trkpt lat="40.3258320" lon="-3.5382130">
        <ele>518.8</ele>
        <time>2021-04-04T11:21:00Z</time>
      </trkpt>
      <trkpt lat="40.3258290" lon="-3.5382630">
        <ele>519.0</ele>
        <time>2021-04-04T11:21:01Z</time>
      </trkpt>
      <trkpt lat="40.3258250" lon="-3.5383160">
        <ele>518.8</ele>
        <time>2021-04-04T11:21:02Z</time>
      </trkpt>
      <trkpt lat="40.3258210" lon="-3.5383720">
        <ele>518.8</ele>
        <time>2021-04-04T11:21:03Z</time>
      </trkpt>
      <trkpt lat="40.3258250" lon="-3.5384290">
        <ele>518.8</ele>
        <time>2021-04-04T11:21:04Z</time>
      </trkpt>
      <trkpt lat="40.3258320" lon="-3.5384890">
        <ele>518.8</ele>
        <time>2021-04-04T11:21:05Z</time>
      </trkpt>
      <trkpt lat="40.3258360" lon="-3.5385470">
        <ele>518.8</ele>
        <time>2021-04-04T11:21:06Z</time>
      </trkpt>
      <trkpt lat="40.3258400" lon="-3.5386050">
        <ele>518.8</ele>
        <time>2021-04-04T11:21:07Z</time>
      </trkpt>
      <trkpt lat="40.3258480" lon="-3.5386590">
        <ele>519.0</ele>
        <time>2021-04-04T11:21:08Z</time>
      </trkpt>
      <trkpt lat="40.3258510" lon="-3.5387120">
        <ele>519.0</ele>
        <time>2021-04-04T11:21:09Z</time>
      </trkpt>
      <trkpt lat="40.3258480" lon="-3.5387730">
        <ele>519.0</ele>
        <time>2021-04-04T11:21:10Z</time>
      </trkpt>
      <trkpt lat="40.3258480" lon="-3.5388320">
        <ele>519.2</ele>
        <time>2021-04-04T11:21:11Z</time>
      </trkpt>
      <trkpt lat="40.3258440" lon="-3.5388940">
        <ele>519.2</ele>
        <time>2021-04-04T11:21:12Z</time>
      </trkpt>
      <trkpt lat="40.3258400" lon="-3.5389570">
        <ele>519.2</ele>
        <time>2021-04-04T11:21:13Z</time>
      </trkpt>
      <trkpt lat="40.3258360" lon="-3.5390190">
        <ele>519.4</ele>
        <time>2021-04-04T11:21:14Z</time>
      </trkpt>
      <trkpt lat="40.3258320" lon="-3.5390810">
        <ele>519.4</ele>
        <time>2021-04-04T11:21:15Z</time>
      </trkpt>
      <trkpt lat="40.3258290" lon="-3.5391400">
        <ele>519.6</ele>
        <time>2021-04-04T11:21:16Z</time>
      </trkpt>
      <trkpt lat="40.3258250" lon="-3.5391980">
        <ele>519.6</ele>
        <time>2021-04-04T11:21:17Z</time>
      </trkpt>
      <trkpt lat="40.3258290" lon="-3.5392560">
        <ele>519.8</ele>
        <time>2021-04-04T11:21:18Z</time>
      </trkpt>
      <trkpt lat="40.3258360" lon="-3.5393180">
        <ele>519.8</ele>
        <time>2021-04-04T11:21:19Z</time>
      </trkpt>
      <trkpt lat="40.3258440" lon="-3.5393800">
        <ele>520.0</ele>
        <time>2021-04-04T11:21:20Z</time>
      </trkpt>
      <trkpt lat="40.3258510" lon="-3.5394420">
        <ele>520.0</ele>
        <time>2021-04-04T11:21:21Z</time>
      </trkpt>
      <trkpt lat="40.3258630" lon="-3.5395020">
        <ele>520.0</ele>
        <time>2021-04-04T11:21:22Z</time>
      </trkpt>
      <trkpt lat="40.3258710" lon="-3.5395610">
        <ele>520.2</ele>
        <time>2021-04-04T11:21:23Z</time>
      </trkpt>
      <trkpt lat="40.3258780" lon="-3.5396190">
        <ele>520.2</ele>
        <time>2021-04-04T11:21:24Z</time>
      </trkpt>
      <trkpt lat="40.3258780" lon="-3.5396800">
        <ele>520.2</ele>
        <time>2021-04-04T11:21:25Z</time>
      </trkpt>
      <trkpt lat="40.3258740" lon="-3.5397420">
        <ele>520.4</ele>
        <time>2021-04-04T11:21:26Z</time>
      </trkpt>
      <trkpt lat="40.3258670" lon="-3.5398040">
        <ele>520.4</ele>
        <time>2021-04-04T11:21:27Z</time>
      </trkpt>
      <trkpt lat="40.3258590" lon="-3.5398650">
        <ele>520.4</ele>
        <time>2021-04-04T11:21:28Z</time>
      </trkpt>
      <trkpt lat="40.3258440" lon="-3.5399250">
        <ele>520.4</ele>
        <time>2021-04-04T11:21:29Z</time>
      </trkpt>
      <trkpt lat="40.3258250" lon="-3.5399850">
        <ele>520.4</ele>
        <time>2021-04-04T11:21:30Z</time>
      </trkpt>
      <trkpt lat="40.3258170" lon="-3.5400490">
        <ele>520.4</ele>
        <time>2021-04-04T11:21:31Z</time>
      </trkpt>
      <trkpt lat="40.3258130" lon="-3.5401140">
        <ele>520.4</ele>
        <time>2021-04-04T11:21:32Z</time>
      </trkpt>
      <trkpt lat="40.3258020" lon="-3.5401800">
        <ele>520.2</ele>
        <time>2021-04-04T11:21:33Z</time>
      </trkpt>
      <trkpt lat="40.3257900" lon="-3.5402460">
        <ele>520.4</ele>
        <time>2021-04-04T11:21:34Z</time>
      </trkpt>
      <trkpt lat="40.3257750" lon="-3.5403140">
        <ele>520.4</ele>
        <time>2021-04-04T11:21:35Z</time>
      </trkpt>
      <trkpt lat="40.3257600" lon="-3.5403820">
        <ele>520.4</ele>
        <time>2021-04-04T11:21:36Z</time>
      </trkpt>
      <trkpt lat="40.3257450" lon="-3.5404510">
        <ele>520.4</ele>
        <time>2021-04-04T11:21:37Z</time>
      </trkpt>
      <trkpt lat="40.3257260" lon="-3.5405180">
        <ele>520.4</ele>
        <time>2021-04-04T11:21:38Z</time>
      </trkpt>
      <trkpt lat="40.3257100" lon="-3.5405840">
        <ele>520.4</ele>
        <time>2021-04-04T11:21:39Z</time>
      </trkpt>
      <trkpt lat="40.3256950" lon="-3.5406510">
        <ele>520.4</ele>
        <time>2021-04-04T11:21:40Z</time>
      </trkpt>
      <trkpt lat="40.3256840" lon="-3.5407180">
        <ele>520.2</ele>
        <time>2021-04-04T11:21:41Z</time>
      </trkpt>
      <trkpt lat="40.3256680" lon="-3.5407830">
        <ele>520.2</ele>
        <time>2021-04-04T11:21:42Z</time>
      </trkpt>
      <trkpt lat="40.3256530" lon="-3.5408460">
        <ele>520.4</ele>
        <time>2021-04-04T11:21:43Z</time>
      </trkpt>
      <trkpt lat="40.3256380" lon="-3.5409090">
        <ele>520.4</ele>
        <time>2021-04-04T11:21:44Z</time>
      </trkpt>
      <trkpt lat="40.3256230" lon="-3.5409700">
        <ele>520.4</ele>
        <time>2021-04-04T11:21:45Z</time>
      </trkpt>
      <trkpt lat="40.3256030" lon="-3.5410310">
        <ele>520.4</ele>
        <time>2021-04-04T11:21:46Z</time>
      </trkpt>
      <trkpt lat="40.3255840" lon="-3.5410900">
        <ele>520.6</ele>
        <time>2021-04-04T11:21:47Z</time>
      </trkpt>
      <trkpt lat="40.3255650" lon="-3.5411460">
        <ele>520.6</ele>
        <time>2021-04-04T11:21:48Z</time>
      </trkpt>
      <trkpt lat="40.3255390" lon="-3.5412000">
        <ele>520.8</ele>
        <time>2021-04-04T11:21:49Z</time>
      </trkpt>
      <trkpt lat="40.3255160" lon="-3.5412530">
        <ele>520.8</ele>
        <time>2021-04-04T11:21:50Z</time>
      </trkpt>
      <trkpt lat="40.3254850" lon="-3.5413100">
        <ele>521.0</ele>
        <time>2021-04-04T11:21:51Z</time>
      </trkpt>
      <trkpt lat="40.3254590" lon="-3.5413640">
        <ele>521.0</ele>
        <time>2021-04-04T11:21:52Z</time>
      </trkpt>
      <trkpt lat="40.3254320" lon="-3.5414180">
        <ele>521.2</ele>
        <time>2021-04-04T11:21:53Z</time>
      </trkpt>
      <trkpt lat="40.3254050" lon="-3.5414690">
        <ele>521.4</ele>
        <time>2021-04-04T11:21:54Z</time>
      </trkpt>
      <trkpt lat="40.3253780" lon="-3.5415210">
        <ele>521.4</ele>
        <time>2021-04-04T11:21:55Z</time>
      </trkpt>
      <trkpt lat="40.3253480" lon="-3.5415730">
        <ele>521.6</ele>
        <time>2021-04-04T11:21:56Z</time>
      </trkpt>
      <trkpt lat="40.3253210" lon="-3.5416220">
        <ele>521.8</ele>
        <time>2021-04-04T11:21:57Z</time>
      </trkpt>
      <trkpt lat="40.3252910" lon="-3.5416700">
        <ele>522.0</ele>
        <time>2021-04-04T11:21:58Z</time>
      </trkpt>
      <trkpt lat="40.3252600" lon="-3.5417160">
        <ele>522.0</ele>
        <time>2021-04-04T11:21:59Z</time>
      </trkpt>
      <trkpt lat="40.3252300" lon="-3.5417620">
        <ele>522.2</ele>
        <time>2021-04-04T11:22:00Z</time>
      </trkpt>
      <trkpt lat="40.3251950" lon="-3.5418090">
        <ele>522.4</ele>
        <time>2021-04-04T11:22:01Z</time>
      </trkpt>
      <trkpt lat="40.3251650" lon="-3.5418620">
        <ele>522.4</ele>
        <time>2021-04-04T11:22:02Z</time>
      </trkpt>
      <trkpt lat="40.3251420" lon="-3.5419240">
        <ele>522.4</ele>
        <time>2021-04-04T11:22:03Z</time>
      </trkpt>
      <trkpt lat="40.3251270" lon="-3.5419890">
        <ele>522.4</ele>
        <time>2021-04-04T11:22:04Z</time>
      </trkpt>
      <trkpt lat="40.3251190" lon="-3.5420560">
        <ele>522.4</ele>
        <time>2021-04-04T11:22:05Z</time>
      </trkpt>
      <trkpt lat="40.3251150" lon="-3.5421250">
        <ele>522.6</ele>
        <time>2021-04-04T11:22:06Z</time>
      </trkpt>
      <trkpt lat="40.3251110" lon="-3.5421930">
        <ele>522.8</ele>
        <time>2021-04-04T11:22:07Z</time>
      </trkpt>
      <trkpt lat="40.3251080" lon="-3.5422630">
        <ele>522.8</ele>
        <time>2021-04-04T11:22:08Z</time>
      </trkpt>
      <trkpt lat="40.3251000" lon="-3.5423370">
        <ele>522.8</ele>
        <time>2021-04-04T11:22:09Z</time>
      </trkpt>
      <trkpt lat="40.3250920" lon="-3.5424130">
        <ele>522.6</ele>
        <time>2021-04-04T11:22:10Z</time>
      </trkpt>
      <trkpt lat="40.3250810" lon="-3.5424910">
        <ele>522.4</ele>
        <time>2021-04-04T11:22:11Z</time>
      </trkpt>
      <trkpt lat="40.3250620" lon="-3.5425720">
        <ele>522.2</ele>
        <time>2021-04-04T11:22:12Z</time>
      </trkpt>
      <trkpt lat="40.3250430" lon="-3.5426540">
        <ele>522.2</ele>
        <time>2021-04-04T11:22:13Z</time>
      </trkpt>
      <trkpt lat="40.3250200" lon="-3.5427350">
        <ele>522.0</ele>
        <time>2021-04-04T11:22:14Z</time>
      </trkpt>
      <trkpt lat="40.3249930" lon="-3.5428150">
        <ele>521.6</ele>
        <time>2021-04-04T11:22:15Z</time>
      </trkpt>
      <trkpt lat="40.3249630" lon="-3.5428930">
        <ele>521.4</ele>
        <time>2021-04-04T11:22:16Z</time>
      </trkpt>
      <trkpt lat="40.3249320" lon="-3.5429710">
        <ele>521.2</ele>
        <time>2021-04-04T11:22:17Z</time>
      </trkpt>
      <trkpt lat="40.3248980" lon="-3.5430460">
        <ele>521.2</ele>
        <time>2021-04-04T11:22:18Z</time>
      </trkpt>
      <trkpt lat="40.3248670" lon="-3.5431230">
        <ele>521.0</ele>
        <time>2021-04-04T11:22:19Z</time>
      </trkpt>
      <trkpt lat="40.3248330" lon="-3.5431960">
        <ele>521.0</ele>
        <time>2021-04-04T11:22:20Z</time>
      </trkpt>
      <trkpt lat="40.3247990" lon="-3.5432640">
        <ele>521.0</ele>
        <time>2021-04-04T11:22:21Z</time>
      </trkpt>
      <trkpt lat="40.3247640" lon="-3.5433340">
        <ele>521.0</ele>
        <time>2021-04-04T11:22:22Z</time>
      </trkpt>
      <trkpt lat="40.3247300" lon="-3.5434030">
        <ele>521.0</ele>
        <time>2021-04-04T11:22:23Z</time>
      </trkpt>
      <trkpt lat="40.3246990" lon="-3.5434690">
        <ele>521.0</ele>
        <time>2021-04-04T11:22:24Z</time>
      </trkpt>
      <trkpt lat="40.3246650" lon="-3.5435310">
        <ele>521.0</ele>
        <time>2021-04-04T11:22:25Z</time>
      </trkpt>
      <trkpt lat="40.3246310" lon="-3.5435930">
        <ele>521.0</ele>
        <time>2021-04-04T11:22:26Z</time>
      </trkpt>
      <trkpt lat="40.3245930" lon="-3.5436540">
        <ele>521.0</ele>
        <time>2021-04-04T11:22:27Z</time>
      </trkpt>
      <trkpt lat="40.3245540" lon="-3.5437120">
        <ele>521.2</ele>
        <time>2021-04-04T11:22:28Z</time>
      </trkpt>
      <trkpt lat="40.3245200" lon="-3.5437720">
        <ele>521.2</ele>
        <time>2021-04-04T11:22:29Z</time>
      </trkpt>
      <trkpt lat="40.3244900" lon="-3.5438360">
        <ele>521.4</ele>
        <time>2021-04-04T11:22:30Z</time>
      </trkpt>
      <trkpt lat="40.3244630" lon="-3.5439030">
        <ele>521.4</ele>
        <time>2021-04-04T11:22:31Z</time>
      </trkpt>
      <trkpt lat="40.3244360" lon="-3.5439680">
        <ele>521.6</ele>
        <time>2021-04-04T11:22:32Z</time>
      </trkpt>
      <trkpt lat="40.3244130" lon="-3.5440310">
        <ele>521.8</ele>
        <time>2021-04-04T11:22:33Z</time>
      </trkpt>
      <trkpt lat="40.3243900" lon="-3.5440930">
        <ele>522.0</ele>
        <time>2021-04-04T11:22:34Z</time>
      </trkpt>
      <trkpt lat="40.3243710" lon="-3.5441500">
        <ele>522.2</ele>
        <time>2021-04-04T11:22:35Z</time>
      </trkpt>
      <trkpt lat="40.3243480" lon="-3.5442070">
        <ele>522.4</ele>
        <time>2021-04-04T11:22:36Z</time>
      </trkpt>
      <trkpt lat="40.3243220" lon="-3.5442640">
        <ele>522.4</ele>
        <time>2021-04-04T11:22:37Z</time>
      </trkpt>
      <trkpt lat="40.3242950" lon="-3.5443240">
        <ele>522.6</ele>
        <time>2021-04-04T11:22:38Z</time>
      </trkpt>
      <trkpt lat="40.3242680" lon="-3.5443860">
        <ele>522.6</ele>
        <time>2021-04-04T11:22:39Z</time>
      </trkpt>
      <trkpt lat="40.3242420" lon="-3.5444490">
        <ele>522.6</ele>
        <time>2021-04-04T11:22:40Z</time>
      </trkpt>
      <trkpt lat="40.3242110" lon="-3.5445110">
        <ele>522.6</ele>
        <time>2021-04-04T11:22:41Z</time>
      </trkpt>
      <trkpt lat="40.3241810" lon="-3.5445720">
        <ele>522.6</ele>
        <time>2021-04-04T11:22:42Z</time>
      </trkpt>
      <trkpt lat="40.3241460" lon="-3.5446340">
        <ele>522.6</ele>
        <time>2021-04-04T11:22:43Z</time>
      </trkpt>
      <trkpt lat="40.3241160" lon="-3.5446970">
        <ele>522.6</ele>
        <time>2021-04-04T11:22:44Z</time>
      </trkpt>
      <trkpt lat="40.3240850" lon="-3.5447590">
        <ele>522.6</ele>
        <time>2021-04-04T11:22:45Z</time>
      </trkpt>
      <trkpt lat="40.3240550" lon="-3.5448220">
        <ele>522.6</ele>
        <time>2021-04-04T11:22:46Z</time>
      </trkpt>
      <trkpt lat="40.3240240" lon="-3.5448860">
        <ele>522.6</ele>
        <time>2021-04-04T11:22:47Z</time>
      </trkpt>
      <trkpt lat="40.3239970" lon="-3.5449490">
        <ele>522.6</ele>
        <time>2021-04-04T11:22:48Z</time>
      </trkpt>
      <trkpt lat="40.3239710" lon="-3.5450130">
        <ele>522.6</ele>
        <time>2021-04-04T11:22:49Z</time>
      </trkpt>
      <trkpt lat="40.3239400" lon="-3.5450770">
        <ele>522.6</ele>
        <time>2021-04-04T11:22:50Z</time>
      </trkpt>
      <trkpt lat="40.3239140" lon="-3.5451390">
        <ele>522.8</ele>
        <time>2021-04-04T11:22:51Z</time>
      </trkpt>
      <trkpt lat="40.3238790" lon="-3.5452010">
        <ele>522.8</ele>
        <time>2021-04-04T11:22:52Z</time>
      </trkpt>
      <trkpt lat="40.3238490" lon="-3.5452650">
        <ele>522.8</ele>
        <time>2021-04-04T11:22:53Z</time>
      </trkpt>
      <trkpt lat="40.3238220" lon="-3.5453300">
        <ele>522.8</ele>
        <time>2021-04-04T11:22:54Z</time>
      </trkpt>
      <trkpt lat="40.3237920" lon="-3.5453930">
        <ele>522.8</ele>
        <time>2021-04-04T11:22:55Z</time>
      </trkpt>
      <trkpt lat="40.3237610" lon="-3.5454550">
        <ele>522.8</ele>
        <time>2021-04-04T11:22:56Z</time>
      </trkpt>
      <trkpt lat="40.3237270" lon="-3.5455170">
        <ele>523.0</ele>
        <time>2021-04-04T11:22:57Z</time>
      </trkpt>
      <trkpt lat="40.3236960" lon="-3.5455780">
        <ele>523.0</ele>
        <time>2021-04-04T11:22:58Z</time>
      </trkpt>
      <trkpt lat="40.3236660" lon="-3.5456390">
        <ele>523.2</ele>
        <time>2021-04-04T11:22:59Z</time>
      </trkpt>
      <trkpt lat="40.3236310" lon="-3.5457000">
        <ele>523.2</ele>
        <time>2021-04-04T11:23:00Z</time>
      </trkpt>
      <trkpt lat="40.3236010" lon="-3.5457580">
        <ele>523.2</ele>
        <time>2021-04-04T11:23:01Z</time>
      </trkpt>
      <trkpt lat="40.3235660" lon="-3.5458160">
        <ele>523.2</ele>
        <time>2021-04-04T11:23:02Z</time>
      </trkpt>
      <trkpt lat="40.3235360" lon="-3.5458760">
        <ele>523.2</ele>
        <time>2021-04-04T11:23:03Z</time>
      </trkpt>
      <trkpt lat="40.3235050" lon="-3.5459380">
        <ele>523.0</ele>
        <time>2021-04-04T11:23:04Z</time>
      </trkpt>
      <trkpt lat="40.3234710" lon="-3.5460010">
        <ele>523.0</ele>
        <time>2021-04-04T11:23:05Z</time>
      </trkpt>
      <trkpt lat="40.3234330" lon="-3.5460640">
        <ele>522.8</ele>
        <time>2021-04-04T11:23:06Z</time>
      </trkpt>
      <trkpt lat="40.3233950" lon="-3.5461250">
        <ele>522.6</ele>
        <time>2021-04-04T11:23:07Z</time>
      </trkpt>
      <trkpt lat="40.3233600" lon="-3.5461840">
        <ele>522.6</ele>
        <time>2021-04-04T11:23:08Z</time>
      </trkpt>
      <trkpt lat="40.3233260" lon="-3.5462490">
        <ele>522.6</ele>
        <time>2021-04-04T11:23:09Z</time>
      </trkpt>
      <trkpt lat="40.3232960" lon="-3.5463170">
        <ele>522.4</ele>
        <time>2021-04-04T11:23:10Z</time>
      </trkpt>
      <trkpt lat="40.3232650" lon="-3.5463840">
        <ele>522.4</ele>
        <time>2021-04-04T11:23:11Z</time>
      </trkpt>
      <trkpt lat="40.3232380" lon="-3.5464490">
        <ele>522.6</ele>
        <time>2021-04-04T11:23:12Z</time>
      </trkpt>
      <trkpt lat="40.3232120" lon="-3.5465130">
        <ele>522.6</ele>
        <time>2021-04-04T11:23:13Z</time>
      </trkpt>
      <trkpt lat="40.3231810" lon="-3.5465800">
        <ele>522.6</ele>
        <time>2021-04-04T11:23:14Z</time>
      </trkpt>
      <trkpt lat="40.3231470" lon="-3.5466420">
        <ele>522.8</ele>
        <time>2021-04-04T11:23:15Z</time>
      </trkpt>
      <trkpt lat="40.3231130" lon="-3.5467040">
        <ele>522.8</ele>
        <time>2021-04-04T11:23:16Z</time>
      </trkpt>
      <trkpt lat="40.3230820" lon="-3.5467640">
        <ele>522.8</ele>
        <time>2021-04-04T11:23:17Z</time>
      </trkpt>
      <trkpt lat="40.3230510" lon="-3.5468240">
        <ele>523.0</ele>
        <time>2021-04-04T11:23:18Z</time>
      </trkpt>
      <trkpt lat="40.3230250" lon="-3.5468850">
        <ele>523.0</ele>
        <time>2021-04-04T11:23:19Z</time>
      </trkpt>
      <trkpt lat="40.3229940" lon="-3.5469450">
        <ele>523.0</ele>
        <time>2021-04-04T11:23:20Z</time>
      </trkpt>
      <trkpt lat="40.3229640" lon="-3.5470000">
        <ele>523.2</ele>
        <time>2021-04-04T11:23:21Z</time>
      </trkpt>
      <trkpt lat="40.3229290" lon="-3.5470540">
        <ele>523.2</ele>
        <time>2021-04-04T11:23:22Z</time>
      </trkpt>
      <trkpt lat="40.3228990" lon="-3.5471070">
        <ele>523.2</ele>
        <time>2021-04-04T11:23:23Z</time>
      </trkpt>
      <trkpt lat="40.3228650" lon="-3.5471570">
        <ele>523.4</ele>
        <time>2021-04-04T11:23:24Z</time>
      </trkpt>
      <trkpt lat="40.3228340" lon="-3.5472040">
        <ele>523.6</ele>
        <time>2021-04-04T11:23:25Z</time>
      </trkpt>
      <trkpt lat="40.3228030" lon="-3.5472510">
        <ele>523.8</ele>
        <time>2021-04-04T11:23:26Z</time>
      </trkpt>
      <trkpt lat="40.3227650" lon="-3.5472970">
        <ele>524.0</ele>
        <time>2021-04-04T11:23:27Z</time>
      </trkpt>
      <trkpt lat="40.3227310" lon="-3.5473440">
        <ele>524.0</ele>
        <time>2021-04-04T11:23:28Z</time>
      </trkpt>
      <trkpt lat="40.3226970" lon="-3.5473930">
        <ele>524.0</ele>
        <time>2021-04-04T11:23:29Z</time>
      </trkpt>
      <trkpt lat="40.3226620" lon="-3.5474450">
        <ele>524.0</ele>
        <time>2021-04-04T11:23:30Z</time>
      </trkpt>
      <trkpt lat="40.3226240" lon="-3.5474970">
        <ele>524.0</ele>
        <time>2021-04-04T11:23:31Z</time>
      </trkpt>
      <trkpt lat="40.3225900" lon="-3.5475490">
        <ele>524.0</ele>
        <time>2021-04-04T11:23:32Z</time>
      </trkpt>
      <trkpt lat="40.3225520" lon="-3.5476020">
        <ele>524.0</ele>
        <time>2021-04-04T11:23:33Z</time>
      </trkpt>
      <trkpt lat="40.3225170" lon="-3.5476550">
        <ele>524.0</ele>
        <time>2021-04-04T11:23:34Z</time>
      </trkpt>
      <trkpt lat="40.3224830" lon="-3.5477080">
        <ele>524.0</ele>
        <time>2021-04-04T11:23:35Z</time>
      </trkpt>
      <trkpt lat="40.3224490" lon="-3.5477610">
        <ele>524.0</ele>
        <time>2021-04-04T11:23:36Z</time>
      </trkpt>
      <trkpt lat="40.3224180" lon="-3.5478170">
        <ele>524.0</ele>
        <time>2021-04-04T11:23:37Z</time>
      </trkpt>
      <trkpt lat="40.3223880" lon="-3.5478740">
        <ele>524.0</ele>
        <time>2021-04-04T11:23:38Z</time>
      </trkpt>
      <trkpt lat="40.3223530" lon="-3.5479270">
        <ele>524.0</ele>
        <time>2021-04-04T11:23:39Z</time>
      </trkpt>
      <trkpt lat="40.3223190" lon="-3.5479760">
        <ele>524.2</ele>
        <time>2021-04-04T11:23:40Z</time>
      </trkpt>
      <trkpt lat="40.3222850" lon="-3.5480260">
        <ele>524.2</ele>
        <time>2021-04-04T11:23:41Z</time>
      </trkpt>
      <trkpt lat="40.3222500" lon="-3.5480750">
        <ele>524.2</ele>
        <time>2021-04-04T11:23:42Z</time>
      </trkpt>
      <trkpt lat="40.3222200" lon="-3.5481250">
        <ele>524.4</ele>
        <time>2021-04-04T11:23:43Z</time>
      </trkpt>
      <trkpt lat="40.3221890" lon="-3.5481770">
        <ele>524.4</ele>
        <time>2021-04-04T11:23:44Z</time>
      </trkpt>
      <trkpt lat="40.3221630" lon="-3.5482290">
        <ele>524.6</ele>
        <time>2021-04-04T11:23:45Z</time>
      </trkpt>
      <trkpt lat="40.3221360" lon="-3.5482820">
        <ele>524.6</ele>
        <time>2021-04-04T11:23:46Z</time>
      </trkpt>
      <trkpt lat="40.3221090" lon="-3.5483350">
        <ele>524.8</ele>
        <time>2021-04-04T11:23:47Z</time>
      </trkpt>
      <trkpt lat="40.3220830" lon="-3.5483840">
        <ele>524.8</ele>
        <time>2021-04-04T11:23:48Z</time>
      </trkpt>
      <trkpt lat="40.3220560" lon="-3.5484260">
        <ele>525.0</ele>
        <time>2021-04-04T11:23:49Z</time>
      </trkpt>
      <trkpt lat="40.3220210" lon="-3.5484620">
        <ele>525.0</ele>
        <time>2021-04-04T11:23:50Z</time>
      </trkpt>
      <trkpt lat="40.3219950" lon="-3.5484940">
        <ele>525.2</ele>
        <time>2021-04-04T11:23:51Z</time>
      </trkpt>
      <trkpt lat="40.3219760" lon="-3.5485300">
        <ele>525.4</ele>
        <time>2021-04-04T11:23:52Z</time>
      </trkpt>
      <trkpt lat="40.3219570" lon="-3.5485700">
        <ele>525.4</ele>
        <time>2021-04-04T11:23:53Z</time>
      </trkpt>
      <trkpt lat="40.3219380" lon="-3.5486110">
        <ele>525.4</ele>
        <time>2021-04-04T11:23:54Z</time>
      </trkpt>
      <trkpt lat="40.3219150" lon="-3.5486520">
        <ele>525.4</ele>
        <time>2021-04-04T11:23:55Z</time>
      </trkpt>
      <trkpt lat="40.3218920" lon="-3.5486910">
        <ele>525.6</ele>
        <time>2021-04-04T11:23:56Z</time>
      </trkpt>
      <trkpt lat="40.3218690" lon="-3.5487330">
        <ele>525.6</ele>
        <time>2021-04-04T11:23:57Z</time>
      </trkpt>
      <trkpt lat="40.3218460" lon="-3.5487780">
        <ele>525.8</ele>
        <time>2021-04-04T11:23:58Z</time>
      </trkpt>
      <trkpt lat="40.3218350" lon="-3.5488250">
        <ele>525.8</ele>
        <time>2021-04-04T11:23:59Z</time>
      </trkpt>
      <trkpt lat="40.3218310" lon="-3.5488750">
        <ele>526.0</ele>
        <time>2021-04-04T11:24:00Z</time>
      </trkpt>
      <trkpt lat="40.3218350" lon="-3.5489250">
        <ele>526.0</ele>
        <time>2021-04-04T11:24:01Z</time>
      </trkpt>
      <trkpt lat="40.3218420" lon="-3.5489750">
        <ele>526.0</ele>
        <time>2021-04-04T11:24:02Z</time>
      </trkpt>
      <trkpt lat="40.3218570" lon="-3.5490250">
        <ele>526.0</ele>
        <time>2021-04-04T11:24:03Z</time>
      </trkpt>
      <trkpt lat="40.3218770" lon="-3.5490760">
        <ele>526.0</ele>
        <time>2021-04-04T11:24:04Z</time>
      </trkpt>
      <trkpt lat="40.3218990" lon="-3.5491230">
        <ele>526.0</ele>
        <time>2021-04-04T11:24:05Z</time>
      </trkpt>
      <trkpt lat="40.3219190" lon="-3.5491730">
        <ele>526.0</ele>
        <time>2021-04-04T11:24:06Z</time>
      </trkpt>
      <trkpt lat="40.3219380" lon="-3.5492270">
        <ele>526.0</ele>
        <time>2021-04-04T11:24:07Z</time>
      </trkpt>
      <trkpt lat="40.3219490" lon="-3.5492790">
        <ele>526.0</ele>
        <time>2021-04-04T11:24:08Z</time>
      </trkpt>
      <trkpt lat="40.3219640" lon="-3.5493290">
        <ele>526.0</ele>
        <time>2021-04-04T11:24:09Z</time>
      </trkpt>
      <trkpt lat="40.3219830" lon="-3.5493780">
        <ele>526.0</ele>
        <time>2021-04-04T11:24:10Z</time>
      </trkpt>
      <trkpt lat="40.3219990" lon="-3.5494300">
        <ele>526.2</ele>
        <time>2021-04-04T11:24:11Z</time>
      </trkpt>
      <trkpt lat="40.3220060" lon="-3.5494850">
        <ele>526.2</ele>
        <time>2021-04-04T11:24:12Z</time>
      </trkpt>
      <trkpt lat="40.3220100" lon="-3.5495400">
        <ele>526.0</ele>
        <time>2021-04-04T11:24:13Z</time>
      </trkpt>
      <trkpt lat="40.3220100" lon="-3.5495930">
        <ele>526.0</ele>
        <time>2021-04-04T11:24:14Z</time>
      </trkpt>
      <trkpt lat="40.3220100" lon="-3.5496480">
        <ele>526.0</ele>
        <time>2021-04-04T11:24:15Z</time>
      </trkpt>
      <trkpt lat="40.3220100" lon="-3.5497050">
        <ele>526.0</ele>
        <time>2021-04-04T11:24:16Z</time>
      </trkpt>
      <trkpt lat="40.3220100" lon="-3.5497640">
        <ele>526.0</ele>
        <time>2021-04-04T11:24:17Z</time>
      </trkpt>
      <trkpt lat="40.3220100" lon="-3.5498200">
        <ele>525.8</ele>
        <time>2021-04-04T11:24:18Z</time>
      </trkpt>
      <trkpt lat="40.3220060" lon="-3.5498790">
        <ele>525.8</ele>
        <time>2021-04-04T11:24:19Z</time>
      </trkpt>
      <trkpt lat="40.3220060" lon="-3.5499390">
        <ele>525.6</ele>
        <time>2021-04-04T11:24:20Z</time>
      </trkpt>
      <trkpt lat="40.3220060" lon="-3.5500010">
        <ele>525.6</ele>
        <time>2021-04-04T11:24:21Z</time>
      </trkpt>
      <trkpt lat="40.3220060" lon="-3.5500650">
        <ele>525.4</ele>
        <time>2021-04-04T11:24:22Z</time>
      </trkpt>
      <trkpt lat="40.3220100" lon="-3.5501340">
        <ele>525.4</ele>
        <time>2021-04-04T11:24:23Z</time>
      </trkpt>
      <trkpt lat="40.3220140" lon="-3.5502030">
        <ele>525.2</ele>
        <time>2021-04-04T11:24:24Z</time>
      </trkpt>
      <trkpt lat="40.3220250" lon="-3.5502680">
        <ele>525.0</ele>
        <time>2021-04-04T11:24:25Z</time>
      </trkpt>
      <trkpt lat="40.3220410" lon="-3.5503290">
        <ele>525.0</ele>
        <time>2021-04-04T11:24:26Z</time>
      </trkpt>
      <trkpt lat="40.3220630" lon="-3.5503840">
        <ele>524.8</ele>
        <time>2021-04-04T11:24:27Z</time>
      </trkpt>
      <trkpt lat="40.3220900" lon="-3.5504360">
        <ele>524.6</ele>
        <time>2021-04-04T11:24:28Z</time>
      </trkpt>
      <trkpt lat="40.3221170" lon="-3.5504850">
        <ele>524.6</ele>
        <time>2021-04-04T11:24:29Z</time>
      </trkpt>
      <trkpt lat="40.3221470" lon="-3.5505300">
        <ele>524.4</ele>
        <time>2021-04-04T11:24:30Z</time>
      </trkpt>
      <trkpt lat="40.3221740" lon="-3.5505730">
        <ele>524.4</ele>
        <time>2021-04-04T11:24:31Z</time>
      </trkpt>
      <trkpt lat="40.3222050" lon="-3.5506130">
        <ele>524.2</ele>
        <time>2021-04-04T11:24:32Z</time>
      </trkpt>
      <trkpt lat="40.3222310" lon="-3.5506510">
        <ele>524.2</ele>
        <time>2021-04-04T11:24:33Z</time>
      </trkpt>
      <trkpt lat="40.3222580" lon="-3.5506860">
        <ele>524.0</ele>
        <time>2021-04-04T11:24:34Z</time>
      </trkpt>
      <trkpt lat="40.3222850" lon="-3.5507180">
        <ele>524.0</ele>
        <time>2021-04-04T11:24:35Z</time>
      </trkpt>
      <trkpt lat="40.3223110" lon="-3.5507440">
        <ele>524.0</ele>
        <time>2021-04-04T11:24:36Z</time>
      </trkpt>
      <trkpt lat="40.3223380" lon="-3.5507690">
        <ele>523.8</ele>
        <time>2021-04-04T11:24:37Z</time>
      </trkpt>
      <trkpt lat="40.3223610" lon="-3.5507960">
        <ele>523.8</ele>
        <time>2021-04-04T11:24:38Z</time>
      </trkpt>
      <trkpt lat="40.3223840" lon="-3.5508250">
        <ele>523.8</ele>
        <time>2021-04-04T11:24:39Z</time>
      </trkpt>
      <trkpt lat="40.3223990" lon="-3.5508530">
        <ele>523.8</ele>
        <time>2021-04-04T11:24:40Z</time>
      </trkpt>
      <trkpt lat="40.3224110" lon="-3.5508760">
        <ele>523.8</ele>
        <time>2021-04-04T11:24:41Z</time>
      </trkpt>
      <trkpt lat="40.3224260" lon="-3.5508950">
        <ele>523.8</ele>
        <time>2021-04-04T11:24:42Z</time>
      </trkpt>
      <trkpt lat="40.3224370" lon="-3.5509120">
        <ele>523.8</ele>
        <time>2021-04-04T11:24:43Z</time>
      </trkpt>
      <trkpt lat="40.3224450" lon="-3.5509270">
        <ele>523.8</ele>
        <time>2021-04-04T11:24:44Z</time>
      </trkpt>
      <trkpt lat="40.3224490" lon="-3.5509390">
        <ele>523.6</ele>
        <time>2021-04-04T11:24:45Z</time>
      </trkpt>
      <trkpt lat="40.3224530" lon="-3.5509490">
        <ele>523.6</ele>
        <time>2021-04-04T11:24:46Z</time>
      </trkpt>
      <trkpt lat="40.3224560" lon="-3.5509590">
        <ele>523.6</ele>
        <time>2021-04-04T11:24:47Z</time>
      </trkpt>
      <trkpt lat="40.3224600" lon="-3.5509650">
        <ele>523.6</ele>
        <time>2021-04-04T11:24:48Z</time>
      </trkpt>
      <trkpt lat="40.3224600" lon="-3.5509650">
        <ele>523.6</ele>
        <time>2021-04-04T11:24:49Z</time>
      </trkpt>
      <trkpt lat="40.3224680" lon="-3.5509750">
        <ele>523.6</ele>
        <time>2021-04-04T11:24:50Z</time>
      </trkpt>
      <trkpt lat="40.3224830" lon="-3.5509940">
        <ele>523.6</ele>
        <time>2021-04-04T11:24:51Z</time>
      </trkpt>
      <trkpt lat="40.3224870" lon="-3.5510010">
        <ele>523.6</ele>
        <time>2021-04-04T11:24:52Z</time>
      </trkpt>
      <trkpt lat="40.3224750" lon="-3.5509960">
        <ele>523.6</ele>
        <time>2021-04-04T11:25:25Z</time>
      </trkpt>
      <trkpt lat="40.3224530" lon="-3.5509790">
        <ele>523.6</ele>
        <time>2021-04-04T11:25:26Z</time>
      </trkpt>
      <trkpt lat="40.3224410" lon="-3.5509610">
        <ele>523.6</ele>
        <time>2021-04-04T11:25:27Z</time>
      </trkpt>
      <trkpt lat="40.3224300" lon="-3.5509390">
        <ele>523.6</ele>
        <time>2021-04-04T11:25:28Z</time>
      </trkpt>
      <trkpt lat="40.3224110" lon="-3.5509140">
        <ele>523.6</ele>
        <time>2021-04-04T11:25:29Z</time>
      </trkpt>
      <trkpt lat="40.3223950" lon="-3.5508880">
        <ele>523.6</ele>
        <time>2021-04-04T11:25:30Z</time>
      </trkpt>
      <trkpt lat="40.3223720" lon="-3.5508600">
        <ele>523.8</ele>
        <time>2021-04-04T11:25:31Z</time>
      </trkpt>
      <trkpt lat="40.3223570" lon="-3.5508300">
        <ele>523.8</ele>
        <time>2021-04-04T11:25:32Z</time>
      </trkpt>
      <trkpt lat="40.3223340" lon="-3.5508000">
        <ele>523.8</ele>
        <time>2021-04-04T11:25:33Z</time>
      </trkpt>
      <trkpt lat="40.3223110" lon="-3.5507700">
        <ele>523.8</ele>
        <time>2021-04-04T11:25:34Z</time>
      </trkpt>
      <trkpt lat="40.3222880" lon="-3.5507400">
        <ele>523.8</ele>
        <time>2021-04-04T11:25:35Z</time>
      </trkpt>
      <trkpt lat="40.3222620" lon="-3.5507070">
        <ele>523.8</ele>
        <time>2021-04-04T11:25:36Z</time>
      </trkpt>
      <trkpt lat="40.3222350" lon="-3.5506700">
        <ele>524.0</ele>
        <time>2021-04-04T11:25:37Z</time>
      </trkpt>
      <trkpt lat="40.3222080" lon="-3.5506310">
        <ele>524.0</ele>
        <time>2021-04-04T11:25:38Z</time>
      </trkpt>
      <trkpt lat="40.3221820" lon="-3.5505920">
        <ele>524.0</ele>
        <time>2021-04-04T11:25:39Z</time>
      </trkpt>
      <trkpt lat="40.3221550" lon="-3.5505510">
        <ele>524.0</ele>
        <time>2021-04-04T11:25:40Z</time>
      </trkpt>
      <trkpt lat="40.3221440" lon="-3.5505040">
        <ele>524.2</ele>
        <time>2021-04-04T11:25:41Z</time>
      </trkpt>
      <trkpt lat="40.3221210" lon="-3.5504680">
        <ele>524.2</ele>
        <time>2021-04-04T11:25:42Z</time>
      </trkpt>
      <trkpt lat="40.3221020" lon="-3.5504300">
        <ele>524.4</ele>
        <time>2021-04-04T11:25:43Z</time>
      </trkpt>
      <trkpt lat="40.3220860" lon="-3.5503880">
        <ele>524.4</ele>
        <time>2021-04-04T11:25:44Z</time>
      </trkpt>
      <trkpt lat="40.3220630" lon="-3.5503430">
        <ele>524.4</ele>
        <time>2021-04-04T11:25:45Z</time>
      </trkpt>
      <trkpt lat="40.3220480" lon="-3.5502930">
        <ele>524.6</ele>
        <time>2021-04-04T11:25:46Z</time>
      </trkpt>
      <trkpt lat="40.3220370" lon="-3.5502430">
        <ele>524.6</ele>
        <time>2021-04-04T11:25:47Z</time>
      </trkpt>
      <trkpt lat="40.3220290" lon="-3.5501910">
        <ele>524.8</ele>
        <time>2021-04-04T11:25:48Z</time>
      </trkpt>
      <trkpt lat="40.3220180" lon="-3.5501370">
        <ele>524.8</ele>
        <time>2021-04-04T11:25:49Z</time>
      </trkpt>
      <trkpt lat="40.3220060" lon="-3.5500850">
        <ele>525.0</ele>
        <time>2021-04-04T11:25:50Z</time>
      </trkpt>
      <trkpt lat="40.3220020" lon="-3.5500320">
        <ele>525.0</ele>
        <time>2021-04-04T11:25:51Z</time>
      </trkpt>
      <trkpt lat="40.3219990" lon="-3.5499800">
        <ele>525.2</ele>
        <time>2021-04-04T11:25:52Z</time>
      </trkpt>
      <trkpt lat="40.3219950" lon="-3.5499310">
        <ele>525.4</ele>
        <time>2021-04-04T11:25:53Z</time>
      </trkpt>
      <trkpt lat="40.3219990" lon="-3.5498810">
        <ele>525.4</ele>
        <time>2021-04-04T11:25:54Z</time>
      </trkpt>
      <trkpt lat="40.3219950" lon="-3.5498320">
        <ele>525.6</ele>
        <time>2021-04-04T11:25:55Z</time>
      </trkpt>
      <trkpt lat="40.3219950" lon="-3.5497820">
        <ele>525.6</ele>
        <time>2021-04-04T11:25:56Z</time>
      </trkpt>
      <trkpt lat="40.3219910" lon="-3.5497300">
        <ele>525.8</ele>
        <time>2021-04-04T11:25:57Z</time>
      </trkpt>
      <trkpt lat="40.3219910" lon="-3.5496770">
        <ele>525.8</ele>
        <time>2021-04-04T11:25:58Z</time>
      </trkpt>
      <trkpt lat="40.3219910" lon="-3.5496220">
        <ele>526.0</ele>
        <time>2021-04-04T11:25:59Z</time>
      </trkpt>
      <trkpt lat="40.3219950" lon="-3.5495670">
        <ele>526.0</ele>
        <time>2021-04-04T11:26:00Z</time>
      </trkpt>
      <trkpt lat="40.3219910" lon="-3.5495090">
        <ele>526.0</ele>
        <time>2021-04-04T11:26:01Z</time>
      </trkpt>
      <trkpt lat="40.3219950" lon="-3.5494520">
        <ele>526.0</ele>
        <time>2021-04-04T11:26:02Z</time>
      </trkpt>
      <trkpt lat="40.3219950" lon="-3.5493950">
        <ele>526.2</ele>
        <time>2021-04-04T11:26:03Z</time>
      </trkpt>
      <trkpt lat="40.3219830" lon="-3.5493410">
        <ele>526.2</ele>
        <time>2021-04-04T11:26:04Z</time>
      </trkpt>
      <trkpt lat="40.3219680" lon="-3.5492880">
        <ele>526.2</ele>
        <time>2021-04-04T11:26:05Z</time>
      </trkpt>
      <trkpt lat="40.3219490" lon="-3.5492370">
        <ele>526.2</ele>
        <time>2021-04-04T11:26:06Z</time>
      </trkpt>
      <trkpt lat="40.3219300" lon="-3.5491860">
        <ele>526.2</ele>
        <time>2021-04-04T11:26:07Z</time>
      </trkpt>
      <trkpt lat="40.3219110" lon="-3.5491360">
        <ele>526.4</ele>
        <time>2021-04-04T11:26:08Z</time>
      </trkpt>
      <trkpt lat="40.3218880" lon="-3.5490860">
        <ele>526.4</ele>
        <time>2021-04-04T11:26:09Z</time>
      </trkpt>
      <trkpt lat="40.3218650" lon="-3.5490390">
        <ele>526.4</ele>
        <time>2021-04-04T11:26:10Z</time>
      </trkpt>
      <trkpt lat="40.3218380" lon="-3.5489980">
        <ele>526.6</ele>
        <time>2021-04-04T11:26:11Z</time>
      </trkpt>
      <trkpt lat="40.3218080" lon="-3.5489640">
        <ele>526.6</ele>
        <time>2021-04-04T11:26:12Z</time>
      </trkpt>
      <trkpt lat="40.3217700" lon="-3.5489390">
        <ele>526.6</ele>
        <time>2021-04-04T11:26:13Z</time>
      </trkpt>
      <trkpt lat="40.3217320" lon="-3.5489260">
        <ele>526.8</ele>
        <time>2021-04-04T11:26:14Z</time>
      </trkpt>
      <trkpt lat="40.3216900" lon="-3.5489260">
        <ele>526.8</ele>
        <time>2021-04-04T11:26:15Z</time>
      </trkpt>
      <trkpt lat="40.3216480" lon="-3.5489360">
        <ele>527.0</ele>
        <time>2021-04-04T11:26:16Z</time>
      </trkpt>
      <trkpt lat="40.3216090" lon="-3.5489510">
        <ele>527.0</ele>
        <time>2021-04-04T11:26:17Z</time>
      </trkpt>
      <trkpt lat="40.3215680" lon="-3.5489680">
        <ele>527.2</ele>
        <time>2021-04-04T11:26:18Z</time>
      </trkpt>
      <trkpt lat="40.3215260" lon="-3.5489850">
        <ele>527.4</ele>
        <time>2021-04-04T11:26:19Z</time>
      </trkpt>
      <trkpt lat="40.3214870" lon="-3.5490040">
        <ele>527.6</ele>
        <time>2021-04-04T11:26:20Z</time>
      </trkpt>
      <trkpt lat="40.3214450" lon="-3.5490240">
        <ele>527.6</ele>
        <time>2021-04-04T11:26:21Z</time>
      </trkpt>
      <trkpt lat="40.3214070" lon="-3.5490500">
        <ele>527.8</ele>
        <time>2021-04-04T11:26:22Z</time>
      </trkpt>
      <trkpt lat="40.3213770" lon="-3.5490800">
        <ele>528.0</ele>
        <time>2021-04-04T11:26:23Z</time>
      </trkpt>
      <trkpt lat="40.3213460" lon="-3.5491140">
        <ele>528.2</ele>
        <time>2021-04-04T11:26:24Z</time>
      </trkpt>
      <trkpt lat="40.3213160" lon="-3.5491520">
        <ele>528.4</ele>
        <time>2021-04-04T11:26:25Z</time>
      </trkpt>
      <trkpt lat="40.3212890" lon="-3.5491920">
        <ele>528.6</ele>
        <time>2021-04-04T11:26:26Z</time>
      </trkpt>
      <trkpt lat="40.3212590" lon="-3.5492300">
        <ele>528.8</ele>
        <time>2021-04-04T11:26:27Z</time>
      </trkpt>
      <trkpt lat="40.3212360" lon="-3.5492690">
        <ele>529.2</ele>
        <time>2021-04-04T11:26:28Z</time>
      </trkpt>
      <trkpt lat="40.3212130" lon="-3.5493100">
        <ele>529.2</ele>
        <time>2021-04-04T11:26:29Z</time>
      </trkpt>
      <trkpt lat="40.3211860" lon="-3.5493530">
        <ele>529.4</ele>
        <time>2021-04-04T11:26:30Z</time>
      </trkpt>
      <trkpt lat="40.3211590" lon="-3.5493950">
        <ele>529.6</ele>
        <time>2021-04-04T11:26:31Z</time>
      </trkpt>
      <trkpt lat="40.3211290" lon="-3.5494310">
        <ele>529.6</ele>
        <time>2021-04-04T11:26:32Z</time>
      </trkpt>
      <trkpt lat="40.3210910" lon="-3.5494640">
        <ele>529.6</ele>
        <time>2021-04-04T11:26:33Z</time>
      </trkpt>
      <trkpt lat="40.3210560" lon="-3.5494970">
        <ele>529.6</ele>
        <time>2021-04-04T11:26:34Z</time>
      </trkpt>
      <trkpt lat="40.3210220" lon="-3.5495330">
        <ele>529.6</ele>
        <time>2021-04-04T11:26:35Z</time>
      </trkpt>
      <trkpt lat="40.3209910" lon="-3.5495690">
        <ele>529.6</ele>
        <time>2021-04-04T11:26:36Z</time>
      </trkpt>
      <trkpt lat="40.3209530" lon="-3.5496050">
        <ele>529.6</ele>
        <time>2021-04-04T11:26:37Z</time>
      </trkpt>
      <trkpt lat="40.3209190" lon="-3.5496400">
        <ele>529.6</ele>
        <time>2021-04-04T11:26:38Z</time>
      </trkpt>
      <trkpt lat="40.3208850" lon="-3.5496750">
        <ele>529.6</ele>
        <time>2021-04-04T11:26:39Z</time>
      </trkpt>
      <trkpt lat="40.3208470" lon="-3.5497110">
        <ele>529.6</ele>
        <time>2021-04-04T11:26:40Z</time>
      </trkpt>
      <trkpt lat="40.3208050" lon="-3.5497470">
        <ele>529.6</ele>
        <time>2021-04-04T11:26:41Z</time>
      </trkpt>
      <trkpt lat="40.3207700" lon="-3.5497810">
        <ele>529.6</ele>
        <time>2021-04-04T11:26:42Z</time>
      </trkpt>
      <trkpt lat="40.3207320" lon="-3.5498110">
        <ele>529.6</ele>
        <time>2021-04-04T11:26:43Z</time>
      </trkpt>
      <trkpt lat="40.3206980" lon="-3.5498380">
        <ele>529.6</ele>
        <time>2021-04-04T11:26:44Z</time>
      </trkpt>
      <trkpt lat="40.3206600" lon="-3.5498620">
        <ele>529.6</ele>
        <time>2021-04-04T11:26:45Z</time>
      </trkpt>
      <trkpt lat="40.3206220" lon="-3.5498870">
        <ele>529.8</ele>
        <time>2021-04-04T11:26:46Z</time>
      </trkpt>
      <trkpt lat="40.3205870" lon="-3.5499100">
        <ele>529.8</ele>
        <time>2021-04-04T11:26:47Z</time>
      </trkpt>
      <trkpt lat="40.3205490" lon="-3.5499310">
        <ele>529.8</ele>
        <time>2021-04-04T11:26:48Z</time>
      </trkpt>
      <trkpt lat="40.3205110" lon="-3.5499510">
        <ele>529.8</ele>
        <time>2021-04-04T11:26:49Z</time>
      </trkpt>
      <trkpt lat="40.3204730" lon="-3.5499680">
        <ele>530.0</ele>
        <time>2021-04-04T11:26:50Z</time>
      </trkpt>
      <trkpt lat="40.3204350" lon="-3.5499850">
        <ele>530.0</ele>
        <time>2021-04-04T11:26:51Z</time>
      </trkpt>
      <trkpt lat="40.3203960" lon="-3.5500040">
        <ele>530.0</ele>
        <time>2021-04-04T11:26:52Z</time>
      </trkpt>
      <trkpt lat="40.3203580" lon="-3.5500220">
        <ele>530.0</ele>
        <time>2021-04-04T11:26:53Z</time>
      </trkpt>
      <trkpt lat="40.3203160" lon="-3.5500400">
        <ele>530.0</ele>
        <time>2021-04-04T11:26:54Z</time>
      </trkpt>
      <trkpt lat="40.3202780" lon="-3.5500580">
        <ele>530.0</ele>
        <time>2021-04-04T11:26:55Z</time>
      </trkpt>
      <trkpt lat="40.3202400" lon="-3.5500770">
        <ele>530.0</ele>
        <time>2021-04-04T11:26:56Z</time>
      </trkpt>
      <trkpt lat="40.3201980" lon="-3.5500970">
        <ele>530.0</ele>
        <time>2021-04-04T11:26:57Z</time>
      </trkpt>
      <trkpt lat="40.3201600" lon="-3.5501220">
        <ele>530.0</ele>
        <time>2021-04-04T11:26:58Z</time>
      </trkpt>
      <trkpt lat="40.3201180" lon="-3.5501520">
        <ele>530.0</ele>
        <time>2021-04-04T11:26:59Z</time>
      </trkpt>
      <trkpt lat="40.3200870" lon="-3.5501840">
        <ele>530.2</ele>
        <time>2021-04-04T11:27:00Z</time>
      </trkpt>
      <trkpt lat="40.3200490" lon="-3.5502160">
        <ele>530.2</ele>
        <time>2021-04-04T11:27:01Z</time>
      </trkpt>
      <trkpt lat="40.3200110" lon="-3.5502490">
        <ele>530.2</ele>
        <time>2021-04-04T11:27:02Z</time>
      </trkpt>
      <trkpt lat="40.3199770" lon="-3.5502810">
        <ele>530.2</ele>
        <time>2021-04-04T11:27:03Z</time>
      </trkpt>
      <trkpt lat="40.3199390" lon="-3.5503150">
        <ele>530.4</ele>
        <time>2021-04-04T11:27:04Z</time>
      </trkpt>
      <trkpt lat="40.3199040" lon="-3.5503480">
        <ele>530.4</ele>
        <time>2021-04-04T11:27:05Z</time>
      </trkpt>
      <trkpt lat="40.3198620" lon="-3.5503820">
        <ele>530.4</ele>
        <time>2021-04-04T11:27:06Z</time>
      </trkpt>
      <trkpt lat="40.3198240" lon="-3.5504160">
        <ele>530.4</ele>
        <time>2021-04-04T11:27:07Z</time>
      </trkpt>
      <trkpt lat="40.3197900" lon="-3.5504480">
        <ele>530.4</ele>
        <time>2021-04-04T11:27:08Z</time>
      </trkpt>
      <trkpt lat="40.3197560" lon="-3.5504810">
        <ele>530.4</ele>
        <time>2021-04-04T11:27:09Z</time>
      </trkpt>
      <trkpt lat="40.3197210" lon="-3.5505150">
        <ele>530.4</ele>
        <time>2021-04-04T11:27:10Z</time>
      </trkpt>
      <trkpt lat="40.3196870" lon="-3.5505500">
        <ele>530.4</ele>
        <time>2021-04-04T11:27:11Z</time>
      </trkpt>
      <trkpt lat="40.3196530" lon="-3.5505850">
        <ele>530.4</ele>
        <time>2021-04-04T11:27:12Z</time>
      </trkpt>
      <trkpt lat="40.3196180" lon="-3.5506210">
        <ele>530.4</ele>
        <time>2021-04-04T11:27:13Z</time>
      </trkpt>
      <trkpt lat="40.3195800" lon="-3.5506590">
        <ele>530.4</ele>
        <time>2021-04-04T11:27:14Z</time>
      </trkpt>
      <trkpt lat="40.3195460" lon="-3.5506980">
        <ele>530.2</ele>
        <time>2021-04-04T11:27:15Z</time>
      </trkpt>
      <trkpt lat="40.3195080" lon="-3.5507380">
        <ele>530.2</ele>
        <time>2021-04-04T11:27:16Z</time>
      </trkpt>
      <trkpt lat="40.3194660" lon="-3.5507800">
        <ele>530.2</ele>
        <time>2021-04-04T11:27:17Z</time>
      </trkpt>
      <trkpt lat="40.3194280" lon="-3.5508240">
        <ele>530.0</ele>
        <time>2021-04-04T11:27:18Z</time>
      </trkpt>
      <trkpt lat="40.3193860" lon="-3.5508700">
        <ele>530.0</ele>
        <time>2021-04-04T11:27:19Z</time>
      </trkpt>
      <trkpt lat="40.3193470" lon="-3.5509200">
        <ele>530.0</ele>
        <time>2021-04-04T11:27:20Z</time>
      </trkpt>
      <trkpt lat="40.3193130" lon="-3.5509670">
        <ele>530.0</ele>
        <time>2021-04-04T11:27:21Z</time>
      </trkpt>
      <trkpt lat="40.3192790" lon="-3.5510170">
        <ele>530.0</ele>
        <time>2021-04-04T11:27:22Z</time>
      </trkpt>
      <trkpt lat="40.3192480" lon="-3.5510700">
        <ele>530.0</ele>
        <time>2021-04-04T11:27:23Z</time>
      </trkpt>
      <trkpt lat="40.3192140" lon="-3.5511270">
        <ele>530.0</ele>
        <time>2021-04-04T11:27:24Z</time>
      </trkpt>
      <trkpt lat="40.3191870" lon="-3.5511830">
        <ele>530.0</ele>
        <time>2021-04-04T11:27:25Z</time>
      </trkpt>
      <trkpt lat="40.3191640" lon="-3.5512390">
        <ele>530.0</ele>
        <time>2021-04-04T11:27:26Z</time>
      </trkpt>
      <trkpt lat="40.3191410" lon="-3.5512930">
        <ele>530.2</ele>
        <time>2021-04-04T11:27:27Z</time>
      </trkpt>
      <trkpt lat="40.3191180" lon="-3.5513490">
        <ele>530.2</ele>
        <time>2021-04-04T11:27:28Z</time>
      </trkpt>
      <trkpt lat="40.3190920" lon="-3.5514070">
        <ele>530.2</ele>
        <time>2021-04-04T11:27:29Z</time>
      </trkpt>
      <trkpt lat="40.3190650" lon="-3.5514700">
        <ele>530.4</ele>
        <time>2021-04-04T11:27:30Z</time>
      </trkpt>
      <trkpt lat="40.3190420" lon="-3.5515320">
        <ele>530.4</ele>
        <time>2021-04-04T11:27:31Z</time>
      </trkpt>
      <trkpt lat="40.3190190" lon="-3.5515930">
        <ele>530.4</ele>
        <time>2021-04-04T11:27:32Z</time>
      </trkpt>
      <trkpt lat="40.3189960" lon="-3.5516530">
        <ele>530.4</ele>
        <time>2021-04-04T11:27:33Z</time>
      </trkpt>
      <trkpt lat="40.3189770" lon="-3.5517130">
        <ele>530.4</ele>
        <time>2021-04-04T11:27:34Z</time>
      </trkpt>
      <trkpt lat="40.3189540" lon="-3.5517750">
        <ele>530.4</ele>
        <time>2021-04-04T11:27:35Z</time>
      </trkpt>
      <trkpt lat="40.3189350" lon="-3.5518350">
        <ele>530.4</ele>
        <time>2021-04-04T11:27:36Z</time>
      </trkpt>
      <trkpt lat="40.3189200" lon="-3.5518960">
        <ele>530.4</ele>
        <time>2021-04-04T11:27:37Z</time>
      </trkpt>
      <trkpt lat="40.3189090" lon="-3.5519560">
        <ele>530.4</ele>
        <time>2021-04-04T11:27:38Z</time>
      </trkpt>
      <trkpt lat="40.3188900" lon="-3.5520180">
        <ele>530.4</ele>
        <time>2021-04-04T11:27:39Z</time>
      </trkpt>
      <trkpt lat="40.3188710" lon="-3.5520770">
        <ele>530.4</ele>
        <time>2021-04-04T11:27:40Z</time>
      </trkpt>
      <trkpt lat="40.3188550" lon="-3.5521350">
        <ele>530.6</ele>
        <time>2021-04-04T11:27:41Z</time>
      </trkpt>
      <trkpt lat="40.3188360" lon="-3.5521940">
        <ele>530.6</ele>
        <time>2021-04-04T11:27:42Z</time>
      </trkpt>
      <trkpt lat="40.3188210" lon="-3.5522520">
        <ele>530.6</ele>
        <time>2021-04-04T11:27:43Z</time>
      </trkpt>
      <trkpt lat="40.3188100" lon="-3.5523120">
        <ele>530.8</ele>
        <time>2021-04-04T11:27:44Z</time>
      </trkpt>
      <trkpt lat="40.3187940" lon="-3.5523710">
        <ele>531.0</ele>
        <time>2021-04-04T11:27:45Z</time>
      </trkpt>
      <trkpt lat="40.3187830" lon="-3.5524290">
        <ele>531.2</ele>
        <time>2021-04-04T11:27:46Z</time>
      </trkpt>
      <trkpt lat="40.3187710" lon="-3.5524880">
        <ele>531.2</ele>
        <time>2021-04-04T11:27:47Z</time>
      </trkpt>
      <trkpt lat="40.3187600" lon="-3.5525450">
        <ele>531.4</ele>
        <time>2021-04-04T11:27:48Z</time>
      </trkpt>
      <trkpt lat="40.3187450" lon="-3.5526000">
        <ele>531.6</ele>
        <time>2021-04-04T11:27:49Z</time>
      </trkpt>
      <trkpt lat="40.3187260" lon="-3.5526510">
        <ele>531.6</ele>
        <time>2021-04-04T11:27:50Z</time>
      </trkpt>
      <trkpt lat="40.3187060" lon="-3.5527030">
        <ele>531.8</ele>
        <time>2021-04-04T11:27:51Z</time>
      </trkpt>
      <trkpt lat="40.3186870" lon="-3.5527570">
        <ele>532.0</ele>
        <time>2021-04-04T11:27:52Z</time>
      </trkpt>
      <trkpt lat="40.3186720" lon="-3.5528080">
        <ele>532.2</ele>
        <time>2021-04-04T11:27:53Z</time>
      </trkpt>
      <trkpt lat="40.3186530" lon="-3.5528580">
        <ele>532.4</ele>
        <time>2021-04-04T11:27:54Z</time>
      </trkpt>
      <trkpt lat="40.3186300" lon="-3.5529070">
        <ele>532.6</ele>
        <time>2021-04-04T11:27:55Z</time>
      </trkpt>
      <trkpt lat="40.3186030" lon="-3.5529550">
        <ele>532.6</ele>
        <time>2021-04-04T11:27:56Z</time>
      </trkpt>
      <trkpt lat="40.3185770" lon="-3.5530020">
        <ele>532.8</ele>
        <time>2021-04-04T11:27:57Z</time>
      </trkpt>
      <trkpt lat="40.3185540" lon="-3.5530480">
        <ele>533.0</ele>
        <time>2021-04-04T11:27:58Z</time>
      </trkpt>
      <trkpt lat="40.3185230" lon="-3.5530970">
        <ele>533.2</ele>
        <time>2021-04-04T11:27:59Z</time>
      </trkpt>
      <trkpt lat="40.3184930" lon="-3.5531420">
        <ele>533.4</ele>
        <time>2021-04-04T11:28:00Z</time>
      </trkpt>
      <trkpt lat="40.3184620" lon="-3.5531860">
        <ele>533.4</ele>
        <time>2021-04-04T11:28:01Z</time>
      </trkpt>
      <trkpt lat="40.3184320" lon="-3.5532250">
        <ele>533.6</ele>
        <time>2021-04-04T11:28:02Z</time>
      </trkpt>
      <trkpt lat="40.3184010" lon="-3.5532610">
        <ele>533.8</ele>
        <time>2021-04-04T11:28:03Z</time>
      </trkpt>
      <trkpt lat="40.3183750" lon="-3.5532960">
        <ele>534.0</ele>
        <time>2021-04-04T11:28:04Z</time>
      </trkpt>
      <trkpt lat="40.3183480" lon="-3.5533320">
        <ele>534.4</ele>
        <time>2021-04-04T11:28:05Z</time>
      </trkpt>
      <trkpt lat="40.3183210" lon="-3.5533740">
        <ele>534.6</ele>
        <time>2021-04-04T11:28:06Z</time>
      </trkpt>
      <trkpt lat="40.3182950" lon="-3.5534190">
        <ele>534.6</ele>
        <time>2021-04-04T11:28:07Z</time>
      </trkpt>
      <trkpt lat="40.3182640" lon="-3.5534650">
        <ele>534.8</ele>
        <time>2021-04-04T11:28:08Z</time>
      </trkpt>
      <trkpt lat="40.3182340" lon="-3.5535150">
        <ele>534.8</ele>
        <time>2021-04-04T11:28:09Z</time>
      </trkpt>
      <trkpt lat="40.3182070" lon="-3.5535680">
        <ele>534.8</ele>
        <time>2021-04-04T11:28:10Z</time>
      </trkpt>
      <trkpt lat="40.3181800" lon="-3.5536210">
        <ele>534.8</ele>
        <time>2021-04-04T11:28:11Z</time>
      </trkpt>
      <trkpt lat="40.3181500" lon="-3.5536730">
        <ele>534.8</ele>
        <time>2021-04-04T11:28:12Z</time>
      </trkpt>
      <trkpt lat="40.3181190" lon="-3.5537230">
        <ele>535.0</ele>
        <time>2021-04-04T11:28:13Z</time>
      </trkpt>
      <trkpt lat="40.3180880" lon="-3.5537730">
        <ele>535.0</ele>
        <time>2021-04-04T11:28:14Z</time>
      </trkpt>
      <trkpt lat="40.3180620" lon="-3.5538220">
        <ele>535.0</ele>
        <time>2021-04-04T11:28:15Z</time>
      </trkpt>
      <trkpt lat="40.3180390" lon="-3.5538710">
        <ele>535.0</ele>
        <time>2021-04-04T11:28:16Z</time>
      </trkpt>
      <trkpt lat="40.3180160" lon="-3.5539200">
        <ele>535.2</ele>
        <time>2021-04-04T11:28:17Z</time>
      </trkpt>
      <trkpt lat="40.3179970" lon="-3.5539710">
        <ele>535.2</ele>
        <time>2021-04-04T11:28:18Z</time>
      </trkpt>
      <trkpt lat="40.3179780" lon="-3.5540260">
        <ele>535.2</ele>
        <time>2021-04-04T11:28:19Z</time>
      </trkpt>
      <trkpt lat="40.3179630" lon="-3.5540820">
        <ele>535.2</ele>
        <time>2021-04-04T11:28:20Z</time>
      </trkpt>
      <trkpt lat="40.3179510" lon="-3.5541430">
        <ele>535.2</ele>
        <time>2021-04-04T11:28:21Z</time>
      </trkpt>
      <trkpt lat="40.3179360" lon="-3.5542060">
        <ele>535.2</ele>
        <time>2021-04-04T11:28:22Z</time>
      </trkpt>
      <trkpt lat="40.3179210" lon="-3.5542690">
        <ele>535.2</ele>
        <time>2021-04-04T11:28:23Z</time>
      </trkpt>
      <trkpt lat="40.3179050" lon="-3.5543340">
        <ele>535.0</ele>
        <time>2021-04-04T11:28:24Z</time>
      </trkpt>
      <trkpt lat="40.3178860" lon="-3.5544000">
        <ele>535.0</ele>
        <time>2021-04-04T11:28:25Z</time>
      </trkpt>
      <trkpt lat="40.3178710" lon="-3.5544650">
        <ele>535.0</ele>
        <time>2021-04-04T11:28:26Z</time>
      </trkpt>
      <trkpt lat="40.3178560" lon="-3.5545310">
        <ele>535.0</ele>
        <time>2021-04-04T11:28:27Z</time>
      </trkpt>
      <trkpt lat="40.3178290" lon="-3.5545950">
        <ele>535.0</ele>
        <time>2021-04-04T11:28:28Z</time>
      </trkpt>
      <trkpt lat="40.3178020" lon="-3.5546560">
        <ele>535.0</ele>
        <time>2021-04-04T11:28:29Z</time>
      </trkpt>
      <trkpt lat="40.3177720" lon="-3.5547140">
        <ele>534.8</ele>
        <time>2021-04-04T11:28:30Z</time>
      </trkpt>
      <trkpt lat="40.3177410" lon="-3.5547700">
        <ele>534.8</ele>
        <time>2021-04-04T11:28:31Z</time>
      </trkpt>
      <trkpt lat="40.3177030" lon="-3.5548260">
        <ele>534.6</ele>
        <time>2021-04-04T11:28:32Z</time>
      </trkpt>
      <trkpt lat="40.3176650" lon="-3.5548800">
        <ele>534.4</ele>
        <time>2021-04-04T11:28:33Z</time>
      </trkpt>
      <trkpt lat="40.3176270" lon="-3.5549300">
        <ele>534.4</ele>
        <time>2021-04-04T11:28:34Z</time>
      </trkpt>
      <trkpt lat="40.3175890" lon="-3.5549780">
        <ele>534.0</ele>
        <time>2021-04-04T11:28:35Z</time>
      </trkpt>
      <trkpt lat="40.3175510" lon="-3.5550240">
        <ele>533.8</ele>
        <time>2021-04-04T11:28:36Z</time>
      </trkpt>
      <trkpt lat="40.3175120" lon="-3.5550700">
        <ele>533.6</ele>
        <time>2021-04-04T11:28:37Z</time>
      </trkpt>
      <trkpt lat="40.3174820" lon="-3.5551200">
        <ele>533.6</ele>
        <time>2021-04-04T11:28:38Z</time>
      </trkpt>
      <trkpt lat="40.3174590" lon="-3.5551730">
        <ele>533.6</ele>
        <time>2021-04-04T11:28:39Z</time>
      </trkpt>
      <trkpt lat="40.3174400" lon="-3.5552310">
        <ele>533.6</ele>
        <time>2021-04-04T11:28:40Z</time>
      </trkpt>
      <trkpt lat="40.3174170" lon="-3.5552910">
        <ele>533.8</ele>
        <time>2021-04-04T11:28:41Z</time>
      </trkpt>
      <trkpt lat="40.3173980" lon="-3.5553490">
        <ele>533.8</ele>
        <time>2021-04-04T11:28:42Z</time>
      </trkpt>
      <trkpt lat="40.3173750" lon="-3.5554020">
        <ele>533.8</ele>
        <time>2021-04-04T11:28:43Z</time>
      </trkpt>
      <trkpt lat="40.3173520" lon="-3.5554490">
        <ele>533.8</ele>
        <time>2021-04-04T11:28:44Z</time>
      </trkpt>
      <trkpt lat="40.3173330" lon="-3.5554910">
        <ele>534.0</ele>
        <time>2021-04-04T11:28:45Z</time>
      </trkpt>
      <trkpt lat="40.3173100" lon="-3.5555330">
        <ele>534.0</ele>
        <time>2021-04-04T11:28:46Z</time>
      </trkpt>
      <trkpt lat="40.3172910" lon="-3.5555770">
        <ele>534.0</ele>
        <time>2021-04-04T11:28:47Z</time>
      </trkpt>
      <trkpt lat="40.3172720" lon="-3.5556210">
        <ele>534.0</ele>
        <time>2021-04-04T11:28:48Z</time>
      </trkpt>
      <trkpt lat="40.3172490" lon="-3.5556670">
        <ele>534.2</ele>
        <time>2021-04-04T11:28:49Z</time>
      </trkpt>
      <trkpt lat="40.3172230" lon="-3.5557150">
        <ele>534.2</ele>
        <time>2021-04-04T11:28:50Z</time>
      </trkpt>
      <trkpt lat="40.3171960" lon="-3.5557620">
        <ele>534.0</ele>
        <time>2021-04-04T11:28:51Z</time>
      </trkpt>
      <trkpt lat="40.3171620" lon="-3.5558100">
        <ele>534.0</ele>
        <time>2021-04-04T11:28:52Z</time>
      </trkpt>
      <trkpt lat="40.3171310" lon="-3.5558600">
        <ele>534.0</ele>
        <time>2021-04-04T11:28:53Z</time>
      </trkpt>
      <trkpt lat="40.3171010" lon="-3.5559120">
        <ele>534.0</ele>
        <time>2021-04-04T11:28:54Z</time>
      </trkpt>
      <trkpt lat="40.3170660" lon="-3.5559620">
        <ele>534.0</ele>
        <time>2021-04-04T11:28:55Z</time>
      </trkpt>
      <trkpt lat="40.3170320" lon="-3.5560110">
        <ele>533.8</ele>
        <time>2021-04-04T11:28:56Z</time>
      </trkpt>
      <trkpt lat="40.3169980" lon="-3.5560610">
        <ele>533.8</ele>
        <time>2021-04-04T11:28:57Z</time>
      </trkpt>
      <trkpt lat="40.3169630" lon="-3.5561110">
        <ele>533.8</ele>
        <time>2021-04-04T11:28:58Z</time>
      </trkpt>
      <trkpt lat="40.3169250" lon="-3.5561590">
        <ele>533.6</ele>
        <time>2021-04-04T11:28:59Z</time>
      </trkpt>
      <trkpt lat="40.3168910" lon="-3.5562070">
        <ele>533.6</ele>
        <time>2021-04-04T11:29:00Z</time>
      </trkpt>
      <trkpt lat="40.3168560" lon="-3.5562540">
        <ele>533.6</ele>
        <time>2021-04-04T11:29:01Z</time>
      </trkpt>
      <trkpt lat="40.3168180" lon="-3.5562990">
        <ele>533.6</ele>
        <time>2021-04-04T11:29:02Z</time>
      </trkpt>
      <trkpt lat="40.3167840" lon="-3.5563450">
        <ele>533.6</ele>
        <time>2021-04-04T11:29:03Z</time>
      </trkpt>
      <trkpt lat="40.3167530" lon="-3.5563950">
        <ele>533.4</ele>
        <time>2021-04-04T11:29:04Z</time>
      </trkpt>
      <trkpt lat="40.3167300" lon="-3.5564520">
        <ele>533.4</ele>
        <time>2021-04-04T11:29:05Z</time>
      </trkpt>
      <trkpt lat="40.3167040" lon="-3.5565110">
        <ele>533.4</ele>
        <time>2021-04-04T11:29:06Z</time>
      </trkpt>
      <trkpt lat="40.3166770" lon="-3.5565670">
        <ele>533.4</ele>
        <time>2021-04-04T11:29:07Z</time>
      </trkpt>
      <trkpt lat="40.3166470" lon="-3.5566200">
        <ele>533.4</ele>
        <time>2021-04-04T11:29:08Z</time>
      </trkpt>
      <trkpt lat="40.3166080" lon="-3.5566680">
        <ele>533.4</ele>
        <time>2021-04-04T11:29:09Z</time>
      </trkpt>
      <trkpt lat="40.3165780" lon="-3.5567120">
        <ele>533.4</ele>
        <time>2021-04-04T11:29:10Z</time>
      </trkpt>
      <trkpt lat="40.3165440" lon="-3.5567550">
        <ele>533.4</ele>
        <time>2021-04-04T11:29:11Z</time>
      </trkpt>
      <trkpt lat="40.3165130" lon="-3.5568000">
        <ele>533.6</ele>
        <time>2021-04-04T11:29:12Z</time>
      </trkpt>
      <trkpt lat="40.3164830" lon="-3.5568440">
        <ele>533.6</ele>
        <time>2021-04-04T11:29:13Z</time>
      </trkpt>
      <trkpt lat="40.3164440" lon="-3.5568840">
        <ele>533.6</ele>
        <time>2021-04-04T11:29:14Z</time>
      </trkpt>
      <trkpt lat="40.3164100" lon="-3.5569240">
        <ele>533.8</ele>
        <time>2021-04-04T11:29:15Z</time>
      </trkpt>
      <trkpt lat="40.3163760" lon="-3.5569630">
        <ele>533.8</ele>
        <time>2021-04-04T11:29:16Z</time>
      </trkpt>
      <trkpt lat="40.3163380" lon="-3.5569970">
        <ele>534.0</ele>
        <time>2021-04-04T11:29:17Z</time>
      </trkpt>
      <trkpt lat="40.3162990" lon="-3.5570250">
        <ele>534.0</ele>
        <time>2021-04-04T11:29:18Z</time>
      </trkpt>
      <trkpt lat="40.3162570" lon="-3.5570520">
        <ele>534.2</ele>
        <time>2021-04-04T11:29:19Z</time>
      </trkpt>
      <trkpt lat="40.3162190" lon="-3.5570780">
        <ele>534.4</ele>
        <time>2021-04-04T11:29:20Z</time>
      </trkpt>
      <trkpt lat="40.3161810" lon="-3.5571020">
        <ele>534.4</ele>
        <time>2021-04-04T11:29:21Z</time>
      </trkpt>
      <trkpt lat="40.3161430" lon="-3.5571300">
        <ele>534.6</ele>
        <time>2021-04-04T11:29:22Z</time>
      </trkpt>
      <trkpt lat="40.3161010" lon="-3.5571610">
        <ele>534.6</ele>
        <time>2021-04-04T11:29:23Z</time>
      </trkpt>
      <trkpt lat="40.3160590" lon="-3.5571970">
        <ele>534.8</ele>
        <time>2021-04-04T11:29:24Z</time>
      </trkpt>
      <trkpt lat="40.3160210" lon="-3.5572340">
        <ele>534.8</ele>
        <time>2021-04-04T11:29:25Z</time>
      </trkpt>
      <trkpt lat="40.3159790" lon="-3.5572680">
        <ele>534.8</ele>
        <time>2021-04-04T11:29:26Z</time>
      </trkpt>
      <trkpt lat="40.3159370" lon="-3.5573010">
        <ele>534.8</ele>
        <time>2021-04-04T11:29:27Z</time>
      </trkpt>
      <trkpt lat="40.3158990" lon="-3.5573350">
        <ele>534.8</ele>
        <time>2021-04-04T11:29:28Z</time>
      </trkpt>
      <trkpt lat="40.3158610" lon="-3.5573670">
        <ele>534.6</ele>
        <time>2021-04-04T11:29:29Z</time>
      </trkpt>
      <trkpt lat="40.3158190" lon="-3.5573990">
        <ele>534.6</ele>
        <time>2021-04-04T11:29:30Z</time>
      </trkpt>
      <trkpt lat="40.3157770" lon="-3.5574330">
        <ele>534.6</ele>
        <time>2021-04-04T11:29:31Z</time>
      </trkpt>
      <trkpt lat="40.3157390" lon="-3.5574690">
        <ele>534.8</ele>
        <time>2021-04-04T11:29:32Z</time>
      </trkpt>
      <trkpt lat="40.3157000" lon="-3.5575070">
        <ele>534.8</ele>
        <time>2021-04-04T11:29:33Z</time>
      </trkpt>
      <trkpt lat="40.3156620" lon="-3.5575460">
        <ele>534.8</ele>
        <time>2021-04-04T11:29:34Z</time>
      </trkpt>
      <trkpt lat="40.3156280" lon="-3.5575840">
        <ele>534.8</ele>
        <time>2021-04-04T11:29:35Z</time>
      </trkpt>
      <trkpt lat="40.3155900" lon="-3.5576240">
        <ele>534.8</ele>
        <time>2021-04-04T11:29:36Z</time>
      </trkpt>
      <trkpt lat="40.3155560" lon="-3.5576660">
        <ele>535.0</ele>
        <time>2021-04-04T11:29:37Z</time>
      </trkpt>
      <trkpt lat="40.3155210" lon="-3.5577090">
        <ele>535.0</ele>
        <time>2021-04-04T11:29:38Z</time>
      </trkpt>
      <trkpt lat="40.3154870" lon="-3.5577540">
        <ele>535.0</ele>
        <time>2021-04-04T11:29:39Z</time>
      </trkpt>
      <trkpt lat="40.3154530" lon="-3.5578010">
        <ele>535.0</ele>
        <time>2021-04-04T11:29:40Z</time>
      </trkpt>
      <trkpt lat="40.3154220" lon="-3.5578490">
        <ele>535.0</ele>
        <time>2021-04-04T11:29:41Z</time>
      </trkpt>
      <trkpt lat="40.3153950" lon="-3.5578980">
        <ele>535.0</ele>
        <time>2021-04-04T11:29:42Z</time>
      </trkpt>
      <trkpt lat="40.3153650" lon="-3.5579480">
        <ele>535.0</ele>
        <time>2021-04-04T11:29:43Z</time>
      </trkpt>
      <trkpt lat="40.3153380" lon="-3.5579970">
        <ele>535.0</ele>
        <time>2021-04-04T11:29:44Z</time>
      </trkpt>
      <trkpt lat="40.3153080" lon="-3.5580470">
        <ele>534.8</ele>
        <time>2021-04-04T11:29:45Z</time>
      </trkpt>
      <trkpt lat="40.3152810" lon="-3.5580970">
        <ele>534.8</ele>
        <time>2021-04-04T11:29:46Z</time>
      </trkpt>
      <trkpt lat="40.3152500" lon="-3.5581470">
        <ele>534.8</ele>
        <time>2021-04-04T11:29:47Z</time>
      </trkpt>
      <trkpt lat="40.3152240" lon="-3.5581970">
        <ele>534.8</ele>
        <time>2021-04-04T11:29:48Z</time>
      </trkpt>
      <trkpt lat="40.3151970" lon="-3.5582500">
        <ele>534.8</ele>
        <time>2021-04-04T11:29:49Z</time>
      </trkpt>
      <trkpt lat="40.3151700" lon="-3.5583040">
        <ele>534.6</ele>
        <time>2021-04-04T11:29:50Z</time>
      </trkpt>
      <trkpt lat="40.3151470" lon="-3.5583570">
        <ele>534.6</ele>
        <time>2021-04-04T11:29:51Z</time>
      </trkpt>
      <trkpt lat="40.3151240" lon="-3.5584120">
        <ele>534.6</ele>
        <time>2021-04-04T11:29:52Z</time>
      </trkpt>
      <trkpt lat="40.3151050" lon="-3.5584690">
        <ele>534.4</ele>
        <time>2021-04-04T11:29:53Z</time>
      </trkpt>
      <trkpt lat="40.3150860" lon="-3.5585250">
        <ele>534.4</ele>
        <time>2021-04-04T11:29:54Z</time>
      </trkpt>
      <trkpt lat="40.3150790" lon="-3.5585790">
        <ele>534.4</ele>
        <time>2021-04-04T11:29:55Z</time>
      </trkpt>
      <trkpt lat="40.3150830" lon="-3.5586270">
        <ele>534.4</ele>
        <time>2021-04-04T11:29:56Z</time>
      </trkpt>
      <trkpt lat="40.3150940" lon="-3.5586690">
        <ele>534.2</ele>
        <time>2021-04-04T11:29:57Z</time>
      </trkpt>
      <trkpt lat="40.3150980" lon="-3.5587100">
        <ele>534.2</ele>
        <time>2021-04-04T11:29:58Z</time>
      </trkpt>
      <trkpt lat="40.3151050" lon="-3.5587490">
        <ele>534.0</ele>
        <time>2021-04-04T11:29:59Z</time>
      </trkpt>
      <trkpt lat="40.3151170" lon="-3.5587830">
        <ele>534.0</ele>
        <time>2021-04-04T11:30:00Z</time>
      </trkpt>
      <trkpt lat="40.3151320" lon="-3.5588050">
        <ele>533.8</ele>
        <time>2021-04-04T11:30:01Z</time>
      </trkpt>
      <trkpt lat="40.3151510" lon="-3.5588100">
        <ele>533.6</ele>
        <time>2021-04-04T11:30:02Z</time>
      </trkpt>
      <trkpt lat="40.3151740" lon="-3.5588040">
        <ele>533.6</ele>
        <time>2021-04-04T11:30:03Z</time>
      </trkpt>
      <trkpt lat="40.3151890" lon="-3.5587950">
        <ele>533.4</ele>
        <time>2021-04-04T11:30:04Z</time>
      </trkpt>
      <trkpt lat="40.3152120" lon="-3.5587930">
        <ele>533.4</ele>
        <time>2021-04-04T11:30:05Z</time>
      </trkpt>
      <trkpt lat="40.3152310" lon="-3.5588040">
        <ele>533.2</ele>
        <time>2021-04-04T11:30:06Z</time>
      </trkpt>
      <trkpt lat="40.3152580" lon="-3.5588250">
        <ele>533.0</ele>
        <time>2021-04-04T11:30:07Z</time>
      </trkpt>
      <trkpt lat="40.3152890" lon="-3.5588520">
        <ele>533.0</ele>
        <time>2021-04-04T11:30:08Z</time>
      </trkpt>
      <trkpt lat="40.3153230" lon="-3.5588840">
        <ele>532.8</ele>
        <time>2021-04-04T11:30:09Z</time>
      </trkpt>
      <trkpt lat="40.3153570" lon="-3.5589220">
        <ele>532.6</ele>
        <time>2021-04-04T11:30:10Z</time>
      </trkpt>
      <trkpt lat="40.3153950" lon="-3.5589620">
        <ele>532.6</ele>
        <time>2021-04-04T11:30:11Z</time>
      </trkpt>
      <trkpt lat="40.3154340" lon="-3.5590000">
        <ele>532.4</ele>
        <time>2021-04-04T11:30:12Z</time>
      </trkpt>
      <trkpt lat="40.3154750" lon="-3.5590350">
        <ele>532.2</ele>
        <time>2021-04-04T11:30:13Z</time>
      </trkpt>
      <trkpt lat="40.3155170" lon="-3.5590680">
        <ele>532.2</ele>
        <time>2021-04-04T11:30:14Z</time>
      </trkpt>
      <trkpt lat="40.3155560" lon="-3.5591010">
        <ele>532.0</ele>
        <time>2021-04-04T11:30:15Z</time>
      </trkpt>
      <trkpt lat="40.3155980" lon="-3.5591320">
        <ele>531.8</ele>
        <time>2021-04-04T11:30:16Z</time>
      </trkpt>
      <trkpt lat="40.3156360" lon="-3.5591650">
        <ele>531.6</ele>
        <time>2021-04-04T11:30:17Z</time>
      </trkpt>
      <trkpt lat="40.3156700" lon="-3.5592010">
        <ele>531.6</ele>
        <time>2021-04-04T11:30:18Z</time>
      </trkpt>
      <trkpt lat="40.3157040" lon="-3.5592370">
        <ele>531.4</ele>
        <time>2021-04-04T11:30:19Z</time>
      </trkpt>
      <trkpt lat="40.3157420" lon="-3.5592730">
        <ele>531.2</ele>
        <time>2021-04-04T11:30:20Z</time>
      </trkpt>
      <trkpt lat="40.3157810" lon="-3.5593060">
        <ele>531.0</ele>
        <time>2021-04-04T11:30:21Z</time>
      </trkpt>
      <trkpt lat="40.3158230" lon="-3.5593410">
        <ele>530.8</ele>
        <time>2021-04-04T11:30:22Z</time>
      </trkpt>
      <trkpt lat="40.3158680" lon="-3.5593770">
        <ele>530.6</ele>
        <time>2021-04-04T11:30:23Z</time>
      </trkpt>
      <trkpt lat="40.3159140" lon="-3.5594150">
        <ele>530.4</ele>
        <time>2021-04-04T11:30:24Z</time>
      </trkpt>
      <trkpt lat="40.3159600" lon="-3.5594520">
        <ele>530.0</ele>
        <time>2021-04-04T11:30:25Z</time>
      </trkpt>
      <trkpt lat="40.3160020" lon="-3.5594870">
        <ele>530.0</ele>
        <time>2021-04-04T11:30:26Z</time>
      </trkpt>
      <trkpt lat="40.3160440" lon="-3.5595230">
        <ele>529.8</ele>
        <time>2021-04-04T11:30:27Z</time>
      </trkpt>
      <trkpt lat="40.3160860" lon="-3.5595590">
        <ele>529.6</ele>
        <time>2021-04-04T11:30:28Z</time>
      </trkpt>
      <trkpt lat="40.3161320" lon="-3.5595960">
        <ele>529.4</ele>
        <time>2021-04-04T11:30:29Z</time>
      </trkpt>
      <trkpt lat="40.3161700" lon="-3.5596330">
        <ele>529.4</ele>
        <time>2021-04-04T11:30:30Z</time>
      </trkpt>
      <trkpt lat="40.3162080" lon="-3.5596710">
        <ele>529.2</ele>
        <time>2021-04-04T11:30:31Z</time>
      </trkpt>
      <trkpt lat="40.3162460" lon="-3.5597090">
        <ele>529.0</ele>
        <time>2021-04-04T11:30:32Z</time>
      </trkpt>
      <trkpt lat="40.3162880" lon="-3.5597460">
        <ele>529.0</ele>
        <time>2021-04-04T11:30:33Z</time>
      </trkpt>
      <trkpt lat="40.3163220" lon="-3.5597810">
        <ele>528.8</ele>
        <time>2021-04-04T11:30:34Z</time>
      </trkpt>
      <trkpt lat="40.3163570" lon="-3.5598130">
        <ele>528.8</ele>
        <time>2021-04-04T11:30:35Z</time>
      </trkpt>
      <trkpt lat="40.3163950" lon="-3.5598460">
        <ele>528.8</ele>
        <time>2021-04-04T11:30:36Z</time>
      </trkpt>
      <trkpt lat="40.3164250" lon="-3.5598770">
        <ele>528.6</ele>
        <time>2021-04-04T11:30:37Z</time>
      </trkpt>
      <trkpt lat="40.3164630" lon="-3.5599080">
        <ele>528.6</ele>
        <time>2021-04-04T11:30:38Z</time>
      </trkpt>
      <trkpt lat="40.3165050" lon="-3.5599400">
        <ele>528.4</ele>
        <time>2021-04-04T11:30:39Z</time>
      </trkpt>
      <trkpt lat="40.3165440" lon="-3.5599760">
        <ele>528.4</ele>
        <time>2021-04-04T11:30:40Z</time>
      </trkpt>
      <trkpt lat="40.3165820" lon="-3.5600140">
        <ele>528.2</ele>
        <time>2021-04-04T11:30:41Z</time>
      </trkpt>
      <trkpt lat="40.3166240" lon="-3.5600530">
        <ele>528.2</ele>
        <time>2021-04-04T11:30:42Z</time>
      </trkpt>
      <trkpt lat="40.3166620" lon="-3.5600890">
        <ele>528.0</ele>
        <time>2021-04-04T11:30:43Z</time>
      </trkpt>
      <trkpt lat="40.3167040" lon="-3.5601250">
        <ele>528.0</ele>
        <time>2021-04-04T11:30:44Z</time>
      </trkpt>
      <trkpt lat="40.3167420" lon="-3.5601630">
        <ele>527.8</ele>
        <time>2021-04-04T11:30:45Z</time>
      </trkpt>
      <trkpt lat="40.3167840" lon="-3.5602000">
        <ele>527.8</ele>
        <time>2021-04-04T11:30:46Z</time>
      </trkpt>
      <trkpt lat="40.3168220" lon="-3.5602370">
        <ele>527.6</ele>
        <time>2021-04-04T11:30:47Z</time>
      </trkpt>
      <trkpt lat="40.3168640" lon="-3.5602710">
        <ele>527.6</ele>
        <time>2021-04-04T11:30:48Z</time>
      </trkpt>
      <trkpt lat="40.3169020" lon="-3.5603040">
        <ele>527.4</ele>
        <time>2021-04-04T11:30:49Z</time>
      </trkpt>
      <trkpt lat="40.3169400" lon="-3.5603360">
        <ele>527.4</ele>
        <time>2021-04-04T11:30:50Z</time>
      </trkpt>
      <trkpt lat="40.3169780" lon="-3.5603660">
        <ele>527.4</ele>
        <time>2021-04-04T11:30:51Z</time>
      </trkpt>
      <trkpt lat="40.3170240" lon="-3.5603940">
        <ele>527.2</ele>
        <time>2021-04-04T11:30:52Z</time>
      </trkpt>
      <trkpt lat="40.3170700" lon="-3.5604160">
        <ele>527.0</ele>
        <time>2021-04-04T11:30:53Z</time>
      </trkpt>
      <trkpt lat="40.3171160" lon="-3.5604300">
        <ele>527.0</ele>
        <time>2021-04-04T11:30:54Z</time>
      </trkpt>
      <trkpt lat="40.3171690" lon="-3.5604350">
        <ele>527.0</ele>
        <time>2021-04-04T11:30:55Z</time>
      </trkpt>
      <trkpt lat="40.3172230" lon="-3.5604320">
        <ele>526.8</ele>
        <time>2021-04-04T11:30:56Z</time>
      </trkpt>
      <trkpt lat="40.3172720" lon="-3.5604230">
        <ele>526.8</ele>
        <time>2021-04-04T11:30:57Z</time>
      </trkpt>
      <trkpt lat="40.3173140" lon="-3.5604120">
        <ele>526.8</ele>
        <time>2021-04-04T11:30:58Z</time>
      </trkpt>
      <trkpt lat="40.3173600" lon="-3.5603990">
        <ele>526.8</ele>
        <time>2021-04-04T11:30:59Z</time>
      </trkpt>
      <trkpt lat="40.3174020" lon="-3.5603810">
        <ele>526.8</ele>
        <time>2021-04-04T11:31:00Z</time>
      </trkpt>
      <trkpt lat="40.3174400" lon="-3.5603610">
        <ele>526.6</ele>
        <time>2021-04-04T11:31:01Z</time>
      </trkpt>
      <trkpt lat="40.3174740" lon="-3.5603390">
        <ele>526.6</ele>
        <time>2021-04-04T11:31:02Z</time>
      </trkpt>
      <trkpt lat="40.3175050" lon="-3.5603130">
        <ele>526.6</ele>
        <time>2021-04-04T11:31:03Z</time>
      </trkpt>
      <trkpt lat="40.3175390" lon="-3.5602860">
        <ele>526.6</ele>
        <time>2021-04-04T11:31:04Z</time>
      </trkpt>
      <trkpt lat="40.3175740" lon="-3.5602580">
        <ele>526.6</ele>
        <time>2021-04-04T11:31:05Z</time>
      </trkpt>
      <trkpt lat="40.3176080" lon="-3.5602300">
        <ele>526.6</ele>
        <time>2021-04-04T11:31:06Z</time>
      </trkpt>
      <trkpt lat="40.3176350" lon="-3.5602040">
        <ele>526.6</ele>
        <time>2021-04-04T11:31:07Z</time>
      </trkpt>
      <trkpt lat="40.3176650" lon="-3.5601800">
        <ele>526.6</ele>
        <time>2021-04-04T11:31:08Z</time>
      </trkpt>
      <trkpt lat="40.3176990" lon="-3.5601590">
        <ele>526.4</ele>
        <time>2021-04-04T11:31:09Z</time>
      </trkpt>
      <trkpt lat="40.3177300" lon="-3.5601430">
        <ele>526.4</ele>
        <time>2021-04-04T11:31:10Z</time>
      </trkpt>
      <trkpt lat="40.3177640" lon="-3.5601280">
        <ele>526.4</ele>
        <time>2021-04-04T11:31:11Z</time>
      </trkpt>
      <trkpt lat="40.3177990" lon="-3.5601160">
        <ele>526.4</ele>
        <time>2021-04-04T11:31:12Z</time>
      </trkpt>
      <trkpt lat="40.3178330" lon="-3.5601120">
        <ele>526.4</ele>
        <time>2021-04-04T11:31:13Z</time>
      </trkpt>
      <trkpt lat="40.3178670" lon="-3.5601120">
        <ele>526.4</ele>
        <time>2021-04-04T11:31:14Z</time>
      </trkpt>
      <trkpt lat="40.3179050" lon="-3.5601130">
        <ele>526.4</ele>
        <time>2021-04-04T11:31:15Z</time>
      </trkpt>
      <trkpt lat="40.3179400" lon="-3.5601130">
        <ele>526.2</ele>
        <time>2021-04-04T11:31:16Z</time>
      </trkpt>
      <trkpt lat="40.3179740" lon="-3.5601130">
        <ele>526.2</ele>
        <time>2021-04-04T11:31:17Z</time>
      </trkpt>
      <trkpt lat="40.3180120" lon="-3.5601150">
        <ele>526.2</ele>
        <time>2021-04-04T11:31:18Z</time>
      </trkpt>
      <trkpt lat="40.3180470" lon="-3.5601190">
        <ele>526.0</ele>
        <time>2021-04-04T11:31:19Z</time>
      </trkpt>
      <trkpt lat="40.3180770" lon="-3.5601220">
        <ele>526.0</ele>
        <time>2021-04-04T11:31:20Z</time>
      </trkpt>
      <trkpt lat="40.3181080" lon="-3.5601270">
        <ele>526.0</ele>
        <time>2021-04-04T11:31:21Z</time>
      </trkpt>
      <trkpt lat="40.3181420" lon="-3.5601300">
        <ele>525.8</ele>
        <time>2021-04-04T11:31:22Z</time>
      </trkpt>
      <trkpt lat="40.3181840" lon="-3.5601240">
        <ele>525.8</ele>
        <time>2021-04-04T11:31:23Z</time>
      </trkpt>
      <trkpt lat="40.3182220" lon="-3.5601260">
        <ele>525.8</ele>
        <time>2021-04-04T11:31:24Z</time>
      </trkpt>
      <trkpt lat="40.3182560" lon="-3.5601340">
        <ele>525.8</ele>
        <time>2021-04-04T11:31:25Z</time>
      </trkpt>
      <trkpt lat="40.3182910" lon="-3.5601370">
        <ele>525.8</ele>
        <time>2021-04-04T11:31:26Z</time>
      </trkpt>
      <trkpt lat="40.3183250" lon="-3.5601360">
        <ele>525.6</ele>
        <time>2021-04-04T11:31:27Z</time>
      </trkpt>
      <trkpt lat="40.3183670" lon="-3.5601320">
        <ele>525.6</ele>
        <time>2021-04-04T11:31:28Z</time>
      </trkpt>
      <trkpt lat="40.3184090" lon="-3.5601290">
        <ele>525.4</ele>
        <time>2021-04-04T11:31:29Z</time>
      </trkpt>
      <trkpt lat="40.3184550" lon="-3.5601270">
        <ele>525.2</ele>
        <time>2021-04-04T11:31:30Z</time>
      </trkpt>
      <trkpt lat="40.3185010" lon="-3.5601320">
        <ele>525.2</ele>
        <time>2021-04-04T11:31:31Z</time>
      </trkpt>
      <trkpt lat="40.3185460" lon="-3.5601400">
        <ele>525.0</ele>
        <time>2021-04-04T11:31:32Z</time>
      </trkpt>
      <trkpt lat="40.3185880" lon="-3.5601470">
        <ele>524.8</ele>
        <time>2021-04-04T11:31:33Z</time>
      </trkpt>
      <trkpt lat="40.3186300" lon="-3.5601550">
        <ele>524.8</ele>
        <time>2021-04-04T11:31:34Z</time>
      </trkpt>
      <trkpt lat="40.3186760" lon="-3.5601630">
        <ele>524.6</ele>
        <time>2021-04-04T11:31:35Z</time>
      </trkpt>
      <trkpt lat="40.3187140" lon="-3.5601720">
        <ele>524.4</ele>
        <time>2021-04-04T11:31:36Z</time>
      </trkpt>
      <trkpt lat="40.3187520" lon="-3.5601780">
        <ele>524.4</ele>
        <time>2021-04-04T11:31:37Z</time>
      </trkpt>
      <trkpt lat="40.3187900" lon="-3.5601820">
        <ele>524.4</ele>
        <time>2021-04-04T11:31:38Z</time>
      </trkpt>
      <trkpt lat="40.3188290" lon="-3.5601870">
        <ele>524.2</ele>
        <time>2021-04-04T11:31:39Z</time>
      </trkpt>
      <trkpt lat="40.3188590" lon="-3.5601900">
        <ele>524.2</ele>
        <time>2021-04-04T11:31:40Z</time>
      </trkpt>
      <trkpt lat="40.3188900" lon="-3.5601910">
        <ele>524.2</ele>
        <time>2021-04-04T11:31:41Z</time>
      </trkpt>
      <trkpt lat="40.3189240" lon="-3.5601950">
        <ele>524.2</ele>
        <time>2021-04-04T11:31:42Z</time>
      </trkpt>
      <trkpt lat="40.3189470" lon="-3.5602110">
        <ele>524.0</ele>
        <time>2021-04-04T11:31:43Z</time>
      </trkpt>
      <trkpt lat="40.3189660" lon="-3.5602380">
        <ele>524.0</ele>
        <time>2021-04-04T11:31:44Z</time>
      </trkpt>
      <trkpt lat="40.3189770" lon="-3.5602750">
        <ele>524.0</ele>
        <time>2021-04-04T11:31:45Z</time>
      </trkpt>
      <trkpt lat="40.3189850" lon="-3.5603200">
        <ele>524.0</ele>
        <time>2021-04-04T11:31:46Z</time>
      </trkpt>
      <trkpt lat="40.3189890" lon="-3.5603670">
        <ele>524.0</ele>
        <time>2021-04-04T11:31:47Z</time>
      </trkpt>
      <trkpt lat="40.3189810" lon="-3.5604160">
        <ele>523.8</ele>
        <time>2021-04-04T11:31:48Z</time>
      </trkpt>
      <trkpt lat="40.3189700" lon="-3.5604660">
        <ele>524.0</ele>
        <time>2021-04-04T11:31:49Z</time>
      </trkpt>
      <trkpt lat="40.3189580" lon="-3.5605130">
        <ele>524.0</ele>
        <time>2021-04-04T11:31:50Z</time>
      </trkpt>
      <trkpt lat="40.3189510" lon="-3.5605600">
        <ele>524.0</ele>
        <time>2021-04-04T11:31:51Z</time>
      </trkpt>
      <trkpt lat="40.3189470" lon="-3.5606060">
        <ele>524.0</ele>
        <time>2021-04-04T11:31:52Z</time>
      </trkpt>
      <trkpt lat="40.3189390" lon="-3.5606490">
        <ele>524.0</ele>
        <time>2021-04-04T11:31:53Z</time>
      </trkpt>
      <trkpt lat="40.3189320" lon="-3.5606890">
        <ele>524.0</ele>
        <time>2021-04-04T11:31:54Z</time>
      </trkpt>
      <trkpt lat="40.3189240" lon="-3.5607270">
        <ele>524.0</ele>
        <time>2021-04-04T11:31:55Z</time>
      </trkpt>
      <trkpt lat="40.3189200" lon="-3.5607610">
        <ele>524.0</ele>
        <time>2021-04-04T11:31:56Z</time>
      </trkpt>
      <trkpt lat="40.3189160" lon="-3.5607910">
        <ele>524.0</ele>
        <time>2021-04-04T11:31:57Z</time>
      </trkpt>
      <trkpt lat="40.3189090" lon="-3.5608180">
        <ele>524.0</ele>
        <time>2021-04-04T11:31:58Z</time>
      </trkpt>
      <trkpt lat="40.3189050" lon="-3.5608440">
        <ele>524.0</ele>
        <time>2021-04-04T11:31:59Z</time>
      </trkpt>
      <trkpt lat="40.3189010" lon="-3.5608680">
        <ele>524.0</ele>
        <time>2021-04-04T11:32:00Z</time>
      </trkpt>
      <trkpt lat="40.3188970" lon="-3.5608900">
        <ele>524.0</ele>
        <time>2021-04-04T11:32:01Z</time>
      </trkpt>
      <trkpt lat="40.3188930" lon="-3.5609160">
        <ele>524.0</ele>
        <time>2021-04-04T11:32:02Z</time>
      </trkpt>
      <trkpt lat="40.3188860" lon="-3.5609460">
        <ele>524.0</ele>
        <time>2021-04-04T11:32:03Z</time>
      </trkpt>
      <trkpt lat="40.3188780" lon="-3.5609780">
        <ele>524.0</ele>
        <time>2021-04-04T11:32:04Z</time>
      </trkpt>
      <trkpt lat="40.3188710" lon="-3.5610120">
        <ele>524.0</ele>
        <time>2021-04-04T11:32:05Z</time>
      </trkpt>
      <trkpt lat="40.3188630" lon="-3.5610480">
        <ele>524.2</ele>
        <time>2021-04-04T11:32:06Z</time>
      </trkpt>
      <trkpt lat="40.3188550" lon="-3.5610840">
        <ele>524.2</ele>
        <time>2021-04-04T11:32:07Z</time>
      </trkpt>
      <trkpt lat="40.3188480" lon="-3.5611210">
        <ele>524.2</ele>
        <time>2021-04-04T11:32:08Z</time>
      </trkpt>
      <trkpt lat="40.3188440" lon="-3.5611560">
        <ele>524.2</ele>
        <time>2021-04-04T11:32:09Z</time>
      </trkpt>
      <trkpt lat="40.3188360" lon="-3.5611880">
        <ele>524.2</ele>
        <time>2021-04-04T11:32:10Z</time>
      </trkpt>
      <trkpt lat="40.3188320" lon="-3.5612180">
        <ele>524.2</ele>
        <time>2021-04-04T11:32:11Z</time>
      </trkpt>
      <trkpt lat="40.3188290" lon="-3.5612510">
        <ele>524.2</ele>
        <time>2021-04-04T11:32:12Z</time>
      </trkpt>
      <trkpt lat="40.3188210" lon="-3.5612870">
        <ele>524.2</ele>
        <time>2021-04-04T11:32:13Z</time>
      </trkpt>
      <trkpt lat="40.3188170" lon="-3.5613220">
        <ele>524.2</ele>
        <time>2021-04-04T11:32:14Z</time>
      </trkpt>
      <trkpt lat="40.3188100" lon="-3.5613590">
        <ele>524.4</ele>
        <time>2021-04-04T11:32:15Z</time>
      </trkpt>
      <trkpt lat="40.3188060" lon="-3.5613930">
        <ele>524.4</ele>
        <time>2021-04-04T11:32:16Z</time>
      </trkpt>
      <trkpt lat="40.3188100" lon="-3.5614200">
        <ele>524.4</ele>
        <time>2021-04-04T11:32:17Z</time>
      </trkpt>
      <trkpt lat="40.3188210" lon="-3.5614390">
        <ele>524.4</ele>
        <time>2021-04-04T11:32:18Z</time>
      </trkpt>
      <trkpt lat="40.3188360" lon="-3.5614510">
        <ele>524.4</ele>
        <time>2021-04-04T11:32:19Z</time>
      </trkpt>
      <trkpt lat="40.3188510" lon="-3.5614620">
        <ele>524.2</ele>
        <time>2021-04-04T11:32:20Z</time>
      </trkpt>
      <trkpt lat="40.3188780" lon="-3.5614700">
        <ele>524.2</ele>
        <time>2021-04-04T11:32:21Z</time>
      </trkpt>
      <trkpt lat="40.3189010" lon="-3.5614700">
        <ele>524.2</ele>
        <time>2021-04-04T11:32:22Z</time>
      </trkpt>
      <trkpt lat="40.3189280" lon="-3.5614660">
        <ele>524.0</ele>
        <time>2021-04-04T11:32:23Z</time>
      </trkpt>
      <trkpt lat="40.3189510" lon="-3.5614600">
        <ele>524.0</ele>
        <time>2021-04-04T11:32:24Z</time>
      </trkpt>
      <trkpt lat="40.3189770" lon="-3.5614500">
        <ele>524.0</ele>
        <time>2021-04-04T11:32:25Z</time>
      </trkpt>
      <trkpt lat="40.3190040" lon="-3.5614410">
        <ele>524.0</ele>
        <time>2021-04-04T11:32:26Z</time>
      </trkpt>
      <trkpt lat="40.3190350" lon="-3.5614350">
        <ele>524.0</ele>
        <time>2021-04-04T11:32:27Z</time>
      </trkpt>
      <trkpt lat="40.3190610" lon="-3.5614310">
        <ele>524.0</ele>
        <time>2021-04-04T11:32:28Z</time>
      </trkpt>
      <trkpt lat="40.3190880" lon="-3.5614230">
        <ele>524.0</ele>
        <time>2021-04-04T11:32:29Z</time>
      </trkpt>
      <trkpt lat="40.3191150" lon="-3.5614150">
        <ele>524.0</ele>
        <time>2021-04-04T11:32:30Z</time>
      </trkpt>
      <trkpt lat="40.3191410" lon="-3.5614040">
        <ele>524.0</ele>
        <time>2021-04-04T11:32:31Z</time>
      </trkpt>
      <trkpt lat="40.3191680" lon="-3.5613900">
        <ele>524.0</ele>
        <time>2021-04-04T11:32:32Z</time>
      </trkpt>
      <trkpt lat="40.3191950" lon="-3.5613790">
        <ele>524.0</ele>
        <time>2021-04-04T11:32:33Z</time>
      </trkpt>
      <trkpt lat="40.3192180" lon="-3.5613650">
        <ele>524.0</ele>
        <time>2021-04-04T11:32:34Z</time>
      </trkpt>
      <trkpt lat="40.3192370" lon="-3.5613430">
        <ele>524.0</ele>
        <time>2021-04-04T11:32:35Z</time>
      </trkpt>
      <trkpt lat="40.3192600" lon="-3.5613160">
        <ele>524.0</ele>
        <time>2021-04-04T11:32:36Z</time>
      </trkpt>
      <trkpt lat="40.3192860" lon="-3.5612890">
        <ele>524.0</ele>
        <time>2021-04-04T11:32:37Z</time>
      </trkpt>
      <trkpt lat="40.3193210" lon="-3.5612650">
        <ele>524.0</ele>
        <time>2021-04-04T11:32:38Z</time>
      </trkpt>
      <trkpt lat="40.3193630" lon="-3.5612440">
        <ele>524.0</ele>
        <time>2021-04-04T11:32:39Z</time>
      </trkpt>
      <trkpt lat="40.3194050" lon="-3.5612280">
        <ele>524.0</ele>
        <time>2021-04-04T11:32:40Z</time>
      </trkpt>
      <trkpt lat="40.3194430" lon="-3.5612140">
        <ele>523.8</ele>
        <time>2021-04-04T11:32:41Z</time>
      </trkpt>
      <trkpt lat="40.3194770" lon="-3.5611990">
        <ele>523.8</ele>
        <time>2021-04-04T11:32:42Z</time>
      </trkpt>
      <trkpt lat="40.3195110" lon="-3.5611930">
        <ele>523.8</ele>
        <time>2021-04-04T11:32:43Z</time>
      </trkpt>
      <trkpt lat="40.3195420" lon="-3.5611960">
        <ele>523.8</ele>
        <time>2021-04-04T11:32:44Z</time>
      </trkpt>
      <trkpt lat="40.3195650" lon="-3.5611980">
        <ele>524.0</ele>
        <time>2021-04-04T11:32:45Z</time>
      </trkpt>
      <trkpt lat="40.3195800" lon="-3.5611930">
        <ele>524.0</ele>
        <time>2021-04-04T11:32:46Z</time>
      </trkpt>
      <trkpt lat="40.3195880" lon="-3.5611830">
        <ele>524.0</ele>
        <time>2021-04-04T11:32:47Z</time>
      </trkpt>
      <trkpt lat="40.3195950" lon="-3.5611670">
        <ele>524.0</ele>
        <time>2021-04-04T11:32:48Z</time>
      </trkpt>
      <trkpt lat="40.3196070" lon="-3.5611510">
        <ele>524.0</ele>
        <time>2021-04-04T11:32:49Z</time>
      </trkpt>
      <trkpt lat="40.3196220" lon="-3.5611400">
        <ele>524.0</ele>
        <time>2021-04-04T11:32:50Z</time>
      </trkpt>
      <trkpt lat="40.3196450" lon="-3.5611320">
        <ele>524.0</ele>
        <time>2021-04-04T11:32:51Z</time>
      </trkpt>
      <trkpt lat="40.3196720" lon="-3.5611290">
        <ele>524.0</ele>
        <time>2021-04-04T11:32:52Z</time>
      </trkpt>
      <trkpt lat="40.3196980" lon="-3.5611280">
        <ele>524.0</ele>
        <time>2021-04-04T11:32:53Z</time>
      </trkpt>
      <trkpt lat="40.3197290" lon="-3.5611260">
        <ele>524.0</ele>
        <time>2021-04-04T11:32:54Z</time>
      </trkpt>
      <trkpt lat="40.3197590" lon="-3.5611210">
        <ele>524.0</ele>
        <time>2021-04-04T11:32:55Z</time>
      </trkpt>
      <trkpt lat="40.3197860" lon="-3.5611120">
        <ele>523.8</ele>
        <time>2021-04-04T11:32:56Z</time>
      </trkpt>
      <trkpt lat="40.3198130" lon="-3.5611030">
        <ele>523.8</ele>
        <time>2021-04-04T11:32:57Z</time>
      </trkpt>
      <trkpt lat="40.3198430" lon="-3.5610950">
        <ele>523.8</ele>
        <time>2021-04-04T11:32:58Z</time>
      </trkpt>
      <trkpt lat="40.3198660" lon="-3.5610850">
        <ele>523.8</ele>
        <time>2021-04-04T11:32:59Z</time>
      </trkpt>
      <trkpt lat="40.3198930" lon="-3.5610660">
        <ele>523.8</ele>
        <time>2021-04-04T11:33:00Z</time>
      </trkpt>
      <trkpt lat="40.3199270" lon="-3.5610420">
        <ele>523.8</ele>
        <time>2021-04-04T11:33:01Z</time>
      </trkpt>
      <trkpt lat="40.3199540" lon="-3.5610240">
        <ele>524.0</ele>
        <time>2021-04-04T11:33:02Z</time>
      </trkpt>
      <trkpt lat="40.3199810" lon="-3.5610060">
        <ele>524.0</ele>
        <time>2021-04-04T11:33:03Z</time>
      </trkpt>
      <trkpt lat="40.3200110" lon="-3.5609890">
        <ele>524.0</ele>
        <time>2021-04-04T11:33:04Z</time>
      </trkpt>
      <trkpt lat="40.3200420" lon="-3.5609740">
        <ele>524.0</ele>
        <time>2021-04-04T11:33:05Z</time>
      </trkpt>
      <trkpt lat="40.3200720" lon="-3.5609590">
        <ele>524.0</ele>
        <time>2021-04-04T11:33:06Z</time>
      </trkpt>
      <trkpt lat="40.3200990" lon="-3.5609410">
        <ele>524.0</ele>
        <time>2021-04-04T11:33:07Z</time>
      </trkpt>
      <trkpt lat="40.3201290" lon="-3.5609240">
        <ele>524.0</ele>
        <time>2021-04-04T11:33:08Z</time>
      </trkpt>
      <trkpt lat="40.3201600" lon="-3.5609060">
        <ele>524.0</ele>
        <time>2021-04-04T11:33:09Z</time>
      </trkpt>
      <trkpt lat="40.3201870" lon="-3.5608880">
        <ele>524.0</ele>
        <time>2021-04-04T11:33:10Z</time>
      </trkpt>
      <trkpt lat="40.3202130" lon="-3.5608700">
        <ele>524.0</ele>
        <time>2021-04-04T11:33:11Z</time>
      </trkpt>
      <trkpt lat="40.3202400" lon="-3.5608540">
        <ele>524.0</ele>
        <time>2021-04-04T11:33:12Z</time>
      </trkpt>
      <trkpt lat="40.3202630" lon="-3.5608410">
        <ele>524.0</ele>
        <time>2021-04-04T11:33:13Z</time>
      </trkpt>
      <trkpt lat="40.3202900" lon="-3.5608310">
        <ele>524.0</ele>
        <time>2021-04-04T11:33:14Z</time>
      </trkpt>
      <trkpt lat="40.3203120" lon="-3.5608180">
        <ele>524.0</ele>
        <time>2021-04-04T11:33:15Z</time>
      </trkpt>
      <trkpt lat="40.3203350" lon="-3.5608020">
        <ele>524.0</ele>
        <time>2021-04-04T11:33:16Z</time>
      </trkpt>
      <trkpt lat="40.3203510" lon="-3.5607810">
        <ele>524.0</ele>
        <time>2021-04-04T11:33:17Z</time>
      </trkpt>
      <trkpt lat="40.3203660" lon="-3.5607640">
        <ele>524.0</ele>
        <time>2021-04-04T11:33:18Z</time>
      </trkpt>
      <trkpt lat="40.3203850" lon="-3.5607420">
        <ele>524.0</ele>
        <time>2021-04-04T11:33:19Z</time>
      </trkpt>
      <trkpt lat="40.3204080" lon="-3.5607120">
        <ele>524.0</ele>
        <time>2021-04-04T11:33:20Z</time>
      </trkpt>
      <trkpt lat="40.3204310" lon="-3.5606840">
        <ele>524.0</ele>
        <time>2021-04-04T11:33:21Z</time>
      </trkpt>
      <trkpt lat="40.3204540" lon="-3.5606580">
        <ele>524.0</ele>
        <time>2021-04-04T11:33:22Z</time>
      </trkpt>
      <trkpt lat="40.3204800" lon="-3.5606320">
        <ele>524.0</ele>
        <time>2021-04-04T11:33:23Z</time>
      </trkpt>
      <trkpt lat="40.3205070" lon="-3.5606070">
        <ele>523.8</ele>
        <time>2021-04-04T11:33:24Z</time>
      </trkpt>
      <trkpt lat="40.3205380" lon="-3.5605790">
        <ele>523.8</ele>
        <time>2021-04-04T11:33:25Z</time>
      </trkpt>
      <trkpt lat="40.3205640" lon="-3.5605490">
        <ele>523.8</ele>
        <time>2021-04-04T11:33:26Z</time>
      </trkpt>
      <trkpt lat="40.3205950" lon="-3.5605220">
        <ele>523.8</ele>
        <time>2021-04-04T11:33:27Z</time>
      </trkpt>
      <trkpt lat="40.3206220" lon="-3.5604970">
        <ele>523.8</ele>
        <time>2021-04-04T11:33:28Z</time>
      </trkpt>
      <trkpt lat="40.3206480" lon="-3.5604730">
        <ele>523.8</ele>
        <time>2021-04-04T11:33:29Z</time>
      </trkpt>
      <trkpt lat="40.3206790" lon="-3.5604480">
        <ele>523.6</ele>
        <time>2021-04-04T11:33:30Z</time>
      </trkpt>
      <trkpt lat="40.3207050" lon="-3.5604230">
        <ele>523.6</ele>
        <time>2021-04-04T11:33:31Z</time>
      </trkpt>
      <trkpt lat="40.3207320" lon="-3.5603980">
        <ele>523.6</ele>
        <time>2021-04-04T11:33:32Z</time>
      </trkpt>
      <trkpt lat="40.3207630" lon="-3.5603730">
        <ele>523.6</ele>
        <time>2021-04-04T11:33:33Z</time>
      </trkpt>
      <trkpt lat="40.3207930" lon="-3.5603490">
        <ele>523.6</ele>
        <time>2021-04-04T11:33:34Z</time>
      </trkpt>
      <trkpt lat="40.3208200" lon="-3.5603240">
        <ele>523.6</ele>
        <time>2021-04-04T11:33:35Z</time>
      </trkpt>
      <trkpt lat="40.3208500" lon="-3.5602970">
        <ele>523.6</ele>
        <time>2021-04-04T11:33:36Z</time>
      </trkpt>
      <trkpt lat="40.3208770" lon="-3.5602690">
        <ele>523.6</ele>
        <time>2021-04-04T11:33:37Z</time>
      </trkpt>
      <trkpt lat="40.3209040" lon="-3.5602410">
        <ele>523.6</ele>
        <time>2021-04-04T11:33:38Z</time>
      </trkpt>
      <trkpt lat="40.3209300" lon="-3.5602110">
        <ele>523.6</ele>
        <time>2021-04-04T11:33:39Z</time>
      </trkpt>
      <trkpt lat="40.3209570" lon="-3.5601800">
        <ele>523.6</ele>
        <time>2021-04-04T11:33:40Z</time>
      </trkpt>
      <trkpt lat="40.3209800" lon="-3.5601500">
        <ele>523.6</ele>
        <time>2021-04-04T11:33:41Z</time>
      </trkpt>
      <trkpt lat="40.3210030" lon="-3.5601190">
        <ele>523.6</ele>
        <time>2021-04-04T11:33:42Z</time>
      </trkpt>
      <trkpt lat="40.3210260" lon="-3.5600870">
        <ele>523.6</ele>
        <time>2021-04-04T11:33:43Z</time>
      </trkpt>
      <trkpt lat="40.3210490" lon="-3.5600580">
        <ele>523.6</ele>
        <time>2021-04-04T11:33:44Z</time>
      </trkpt>
      <trkpt lat="40.3210680" lon="-3.5600330">
        <ele>523.6</ele>
        <time>2021-04-04T11:33:45Z</time>
      </trkpt>
      <trkpt lat="40.3210830" lon="-3.5600120">
        <ele>523.6</ele>
        <time>2021-04-04T11:33:46Z</time>
      </trkpt>
      <trkpt lat="40.3210940" lon="-3.5599940">
        <ele>523.6</ele>
        <time>2021-04-04T11:33:47Z</time>
      </trkpt>
      <trkpt lat="40.3211060" lon="-3.5599770">
        <ele>523.6</ele>
        <time>2021-04-04T11:33:48Z</time>
      </trkpt>
      <trkpt lat="40.3211170" lon="-3.5599600">
        <ele>523.6</ele>
        <time>2021-04-04T11:33:49Z</time>
      </trkpt>
      <trkpt lat="40.3211290" lon="-3.5599410">
        <ele>523.6</ele>
        <time>2021-04-04T11:33:50Z</time>
      </trkpt>
      <trkpt lat="40.3211400" lon="-3.5599210">
        <ele>523.6</ele>
        <time>2021-04-04T11:33:51Z</time>
      </trkpt>
      <trkpt lat="40.3211560" lon="-3.5598990">
        <ele>523.6</ele>
        <time>2021-04-04T11:33:52Z</time>
      </trkpt>
      <trkpt lat="40.3211710" lon="-3.5598710">
        <ele>523.6</ele>
        <time>2021-04-04T11:33:53Z</time>
      </trkpt>
      <trkpt lat="40.3211820" lon="-3.5598390">
        <ele>523.6</ele>
        <time>2021-04-04T11:33:54Z</time>
      </trkpt>
      <trkpt lat="40.3211940" lon="-3.5598050">
        <ele>523.6</ele>
        <time>2021-04-04T11:33:55Z</time>
      </trkpt>
      <trkpt lat="40.3212090" lon="-3.5597660">
        <ele>523.6</ele>
        <time>2021-04-04T11:33:56Z</time>
      </trkpt>
      <trkpt lat="40.3212240" lon="-3.5597260">
        <ele>523.6</ele>
        <time>2021-04-04T11:33:57Z</time>
      </trkpt>
      <trkpt lat="40.3212360" lon="-3.5596840">
        <ele>523.6</ele>
        <time>2021-04-04T11:33:58Z</time>
      </trkpt>
      <trkpt lat="40.3212510" lon="-3.5596430">
        <ele>523.6</ele>
        <time>2021-04-04T11:33:59Z</time>
      </trkpt>
      <trkpt lat="40.3212620" lon="-3.5596040">
        <ele>523.6</ele>
        <time>2021-04-04T11:34:00Z</time>
      </trkpt>
      <trkpt lat="40.3212740" lon="-3.5595620">
        <ele>523.6</ele>
        <time>2021-04-04T11:34:01Z</time>
      </trkpt>
      <trkpt lat="40.3212810" lon="-3.5595210">
        <ele>523.6</ele>
        <time>2021-04-04T11:34:02Z</time>
      </trkpt>
      <trkpt lat="40.3212890" lon="-3.5594780">
        <ele>523.6</ele>
        <time>2021-04-04T11:34:03Z</time>
      </trkpt>
      <trkpt lat="40.3212970" lon="-3.5594350">
        <ele>523.6</ele>
        <time>2021-04-04T11:34:04Z</time>
      </trkpt>
      <trkpt lat="40.3213040" lon="-3.5593910">
        <ele>523.6</ele>
        <time>2021-04-04T11:34:05Z</time>
      </trkpt>
      <trkpt lat="40.3213120" lon="-3.5593460">
        <ele>523.4</ele>
        <time>2021-04-04T11:34:06Z</time>
      </trkpt>
      <trkpt lat="40.3213230" lon="-3.5593010">
        <ele>523.4</ele>
        <time>2021-04-04T11:34:07Z</time>
      </trkpt>
      <trkpt lat="40.3213350" lon="-3.5592580">
        <ele>523.4</ele>
        <time>2021-04-04T11:34:08Z</time>
      </trkpt>
      <trkpt lat="40.3213420" lon="-3.5592130">
        <ele>523.4</ele>
        <time>2021-04-04T11:34:09Z</time>
      </trkpt>
      <trkpt lat="40.3213460" lon="-3.5591650">
        <ele>523.4</ele>
        <time>2021-04-04T11:34:10Z</time>
      </trkpt>
      <trkpt lat="40.3213460" lon="-3.5591140">
        <ele>523.4</ele>
        <time>2021-04-04T11:34:11Z</time>
      </trkpt>
      <trkpt lat="40.3213460" lon="-3.5590660">
        <ele>523.4</ele>
        <time>2021-04-04T11:34:12Z</time>
      </trkpt>
      <trkpt lat="40.3213500" lon="-3.5590160">
        <ele>523.4</ele>
        <time>2021-04-04T11:34:13Z</time>
      </trkpt>
      <trkpt lat="40.3213540" lon="-3.5589660">
        <ele>523.4</ele>
        <time>2021-04-04T11:34:14Z</time>
      </trkpt>
      <trkpt lat="40.3213690" lon="-3.5589180">
        <ele>523.4</ele>
        <time>2021-04-04T11:34:15Z</time>
      </trkpt>
      <trkpt lat="40.3213840" lon="-3.5588710">
        <ele>523.4</ele>
        <time>2021-04-04T11:34:16Z</time>
      </trkpt>
      <trkpt lat="40.3214000" lon="-3.5588270">
        <ele>523.4</ele>
        <time>2021-04-04T11:34:17Z</time>
      </trkpt>
      <trkpt lat="40.3214230" lon="-3.5587840">
        <ele>523.4</ele>
        <time>2021-04-04T11:34:18Z</time>
      </trkpt>
      <trkpt lat="40.3214380" lon="-3.5587410">
        <ele>523.4</ele>
        <time>2021-04-04T11:34:19Z</time>
      </trkpt>
      <trkpt lat="40.3214610" lon="-3.5587010">
        <ele>523.4</ele>
        <time>2021-04-04T11:34:20Z</time>
      </trkpt>
      <trkpt lat="40.3214840" lon="-3.5586660">
        <ele>523.4</ele>
        <time>2021-04-04T11:34:21Z</time>
      </trkpt>
      <trkpt lat="40.3215030" lon="-3.5586350">
        <ele>523.2</ele>
        <time>2021-04-04T11:34:22Z</time>
      </trkpt>
      <trkpt lat="40.3215180" lon="-3.5586090">
        <ele>523.2</ele>
        <time>2021-04-04T11:34:23Z</time>
      </trkpt>
      <trkpt lat="40.3215290" lon="-3.5585850">
        <ele>523.2</ele>
        <time>2021-04-04T11:34:24Z</time>
      </trkpt>
      <trkpt lat="40.3215410" lon="-3.5585640">
        <ele>523.2</ele>
        <time>2021-04-04T11:34:25Z</time>
      </trkpt>
      <trkpt lat="40.3215520" lon="-3.5585430">
        <ele>523.2</ele>
        <time>2021-04-04T11:34:26Z</time>
      </trkpt>
      <trkpt lat="40.3215680" lon="-3.5585140">
        <ele>523.2</ele>
        <time>2021-04-04T11:34:27Z</time>
      </trkpt>
      <trkpt lat="40.3215830" lon="-3.5584780">
        <ele>523.2</ele>
        <time>2021-04-04T11:34:28Z</time>
      </trkpt>
      <trkpt lat="40.3215980" lon="-3.5584370">
        <ele>523.2</ele>
        <time>2021-04-04T11:34:29Z</time>
      </trkpt>
      <trkpt lat="40.3216130" lon="-3.5583970">
        <ele>523.2</ele>
        <time>2021-04-04T11:34:30Z</time>
      </trkpt>
      <trkpt lat="40.3216290" lon="-3.5583570">
        <ele>523.2</ele>
        <time>2021-04-04T11:34:31Z</time>
      </trkpt>
      <trkpt lat="40.3216400" lon="-3.5583150">
        <ele>523.2</ele>
        <time>2021-04-04T11:34:32Z</time>
      </trkpt>
      <trkpt lat="40.3216510" lon="-3.5582700">
        <ele>523.2</ele>
        <time>2021-04-04T11:34:33Z</time>
      </trkpt>
      <trkpt lat="40.3216670" lon="-3.5582240">
        <ele>523.2</ele>
        <time>2021-04-04T11:34:34Z</time>
      </trkpt>
      <trkpt lat="40.3216820" lon="-3.5581800">
        <ele>523.2</ele>
        <time>2021-04-04T11:34:35Z</time>
      </trkpt>
      <trkpt lat="40.3216970" lon="-3.5581370">
        <ele>523.2</ele>
        <time>2021-04-04T11:34:36Z</time>
      </trkpt>
      <trkpt lat="40.3217160" lon="-3.5580930">
        <ele>523.2</ele>
        <time>2021-04-04T11:34:37Z</time>
      </trkpt>
      <trkpt lat="40.3217390" lon="-3.5580490">
        <ele>523.2</ele>
        <time>2021-04-04T11:34:38Z</time>
      </trkpt>
      <trkpt lat="40.3217510" lon="-3.5580030">
        <ele>523.2</ele>
        <time>2021-04-04T11:34:39Z</time>
      </trkpt>
      <trkpt lat="40.3217660" lon="-3.5579580">
        <ele>523.2</ele>
        <time>2021-04-04T11:34:40Z</time>
      </trkpt>
      <trkpt lat="40.3226690" lon="-3.5555020">
        <ele>539.8</ele>
        <time>2021-04-04T11:35:43Z</time>
      </trkpt>
      <trkpt lat="40.3226750" lon="-3.5554930">
        <ele>539.8</ele>
        <time>2021-04-04T11:35:44Z</time>
      </trkpt>
      <trkpt lat="40.3226820" lon="-3.5554830">
        <ele>539.8</ele>
        <time>2021-04-04T11:35:45Z</time>
      </trkpt>
      <trkpt lat="40.3226880" lon="-3.5554720">
        <ele>539.8</ele>
        <time>2021-04-04T11:35:46Z</time>
      </trkpt>
      <trkpt lat="40.3226940" lon="-3.5554610">
        <ele>539.8</ele>
        <time>2021-04-04T11:35:47Z</time>
      </trkpt>
      <trkpt lat="40.3227140" lon="-3.5554190">
        <ele>539.8</ele>
        <time>2021-04-04T11:35:48Z</time>
      </trkpt>
      <trkpt lat="40.3227220" lon="-3.5554030">
        <ele>539.7</ele>
        <time>2021-04-04T11:35:49Z</time>
      </trkpt>
      <trkpt lat="40.3227440" lon="-3.5553670">
        <ele>539.7</ele>
        <time>2021-04-04T11:35:50Z</time>
      </trkpt>
      <trkpt lat="40.3227680" lon="-3.5553310">
        <ele>539.7</ele>
        <time>2021-04-04T11:35:51Z</time>
      </trkpt>
      <trkpt lat="40.3227940" lon="-3.5552950">
        <ele>539.7</ele>
        <time>2021-04-04T11:35:53Z</time>
      </trkpt>
      <trkpt lat="40.3228270" lon="-3.5552600">
        <ele>539.7</ele>
        <time>2021-04-04T11:35:54Z</time>
      </trkpt>
      <trkpt lat="40.3228570" lon="-3.5552280">
        <ele>539.7</ele>
        <time>2021-04-04T11:35:55Z</time>
      </trkpt>
      <trkpt lat="40.3228850" lon="-3.5551990">
        <ele>539.7</ele>
        <time>2021-04-04T11:35:56Z</time>
      </trkpt>
      <trkpt lat="40.3229090" lon="-3.5551670">
        <ele>539.7</ele>
        <time>2021-04-04T11:35:57Z</time>
      </trkpt>
      <trkpt lat="40.3229140" lon="-3.5551570">
        <ele>539.7</ele>
        <time>2021-04-04T11:35:58Z</time>
      </trkpt>
      <trkpt lat="40.3229200" lon="-3.5551410">
        <ele>539.8</ele>
        <time>2021-04-04T11:35:59Z</time>
      </trkpt>
      <trkpt lat="40.3229270" lon="-3.5551250">
        <ele>539.8</ele>
        <time>2021-04-04T11:36:00Z</time>
      </trkpt>
      <trkpt lat="40.3229390" lon="-3.5551060">
        <ele>539.8</ele>
        <time>2021-04-04T11:36:01Z</time>
      </trkpt>
      <trkpt lat="40.3229480" lon="-3.5550900">
        <ele>539.8</ele>
        <time>2021-04-04T11:36:02Z</time>
      </trkpt>
      <trkpt lat="40.3229530" lon="-3.5550560">
        <ele>539.9</ele>
        <time>2021-04-04T11:36:03Z</time>
      </trkpt>
      <trkpt lat="40.3229530" lon="-3.5550410">
        <ele>539.9</ele>
        <time>2021-04-04T11:36:04Z</time>
      </trkpt>
      <trkpt lat="40.3229760" lon="-3.5549960">
        <ele>540.0</ele>
        <time>2021-04-04T11:36:05Z</time>
      </trkpt>
      <trkpt lat="40.3229870" lon="-3.5549790">
        <ele>540.0</ele>
        <time>2021-04-04T11:36:06Z</time>
      </trkpt>
      <trkpt lat="40.3230180" lon="-3.5549480">
        <ele>540.1</ele>
        <time>2021-04-04T11:36:07Z</time>
      </trkpt>
      <trkpt lat="40.3230500" lon="-3.5549200">
        <ele>540.2</ele>
        <time>2021-04-04T11:36:08Z</time>
      </trkpt>
      <trkpt lat="40.3230770" lon="-3.5548930">
        <ele>540.2</ele>
        <time>2021-04-04T11:36:09Z</time>
      </trkpt>
      <trkpt lat="40.3231040" lon="-3.5548660">
        <ele>540.3</ele>
        <time>2021-04-04T11:36:10Z</time>
      </trkpt>
      <trkpt lat="40.3231310" lon="-3.5548400">
        <ele>540.4</ele>
        <time>2021-04-04T11:36:11Z</time>
      </trkpt>
      <trkpt lat="40.3231560" lon="-3.5548150">
        <ele>540.4</ele>
        <time>2021-04-04T11:36:12Z</time>
      </trkpt>
      <trkpt lat="40.3231710" lon="-3.5547980">
        <ele>540.5</ele>
        <time>2021-04-04T11:36:13Z</time>
      </trkpt>
      <trkpt lat="40.3231820" lon="-3.5547850">
        <ele>540.5</ele>
        <time>2021-04-04T11:36:14Z</time>
      </trkpt>
      <trkpt lat="40.3231950" lon="-3.5547700">
        <ele>540.5</ele>
        <time>2021-04-04T11:36:15Z</time>
      </trkpt>
      <trkpt lat="40.3232050" lon="-3.5547560">
        <ele>540.6</ele>
        <time>2021-04-04T11:36:16Z</time>
      </trkpt>
      <trkpt lat="40.3232150" lon="-3.5547310">
        <ele>540.6</ele>
        <time>2021-04-04T11:36:17Z</time>
      </trkpt>
      <trkpt lat="40.3232190" lon="-3.5547180">
        <ele>540.6</ele>
        <time>2021-04-04T11:36:18Z</time>
      </trkpt>
      <trkpt lat="40.3232220" lon="-3.5547060">
        <ele>540.6</ele>
        <time>2021-04-04T11:36:19Z</time>
      </trkpt>
      <trkpt lat="40.3232410" lon="-3.5546710">
        <ele>540.7</ele>
        <time>2021-04-04T11:36:20Z</time>
      </trkpt>
      <trkpt lat="40.3232490" lon="-3.5546600">
        <ele>540.7</ele>
        <time>2021-04-04T11:36:21Z</time>
      </trkpt>
      <trkpt lat="40.3232850" lon="-3.5546340">
        <ele>540.8</ele>
        <time>2021-04-04T11:36:22Z</time>
      </trkpt>
      <trkpt lat="40.3232980" lon="-3.5546260">
        <ele>540.8</ele>
        <time>2021-04-04T11:36:23Z</time>
      </trkpt>
      <trkpt lat="40.3233220" lon="-3.5546090">
        <ele>540.8</ele>
        <time>2021-04-04T11:36:24Z</time>
      </trkpt>
      <trkpt lat="40.3233460" lon="-3.5545870">
        <ele>540.9</ele>
        <time>2021-04-04T11:36:25Z</time>
      </trkpt>
      <trkpt lat="40.3233760" lon="-3.5545550">
        <ele>540.8</ele>
        <time>2021-04-04T11:36:26Z</time>
      </trkpt>
      <trkpt lat="40.3233860" lon="-3.5545460">
        <ele>540.9</ele>
        <time>2021-04-04T11:36:27Z</time>
      </trkpt>
      <trkpt lat="40.3234170" lon="-3.5545370">
        <ele>540.8</ele>
        <time>2021-04-04T11:36:28Z</time>
      </trkpt>
      <trkpt lat="40.3234280" lon="-3.5545350">
        <ele>540.8</ele>
        <time>2021-04-04T11:36:29Z</time>
      </trkpt>
      <trkpt lat="40.3234580" lon="-3.5545400">
        <ele>540.7</ele>
        <time>2021-04-04T11:36:30Z</time>
      </trkpt>
      <trkpt lat="40.3234670" lon="-3.5545430">
        <ele>540.7</ele>
        <time>2021-04-04T11:36:31Z</time>
      </trkpt>
      <trkpt lat="40.3234780" lon="-3.5545420">
        <ele>540.7</ele>
        <time>2021-04-04T11:36:32Z</time>
      </trkpt>
      <trkpt lat="40.3234850" lon="-3.5545360">
        <ele>540.6</ele>
        <time>2021-04-04T11:36:33Z</time>
      </trkpt>
      <trkpt lat="40.3234850" lon="-3.5545360">
        <ele>540.6</ele>
        <time>2021-04-04T11:36:34Z</time>
      </trkpt>
      <trkpt lat="40.3234850" lon="-3.5545360">
        <ele>540.6</ele>
        <time>2021-04-04T11:36:35Z</time>
      </trkpt>
      <trkpt lat="40.3234850" lon="-3.5545360">
        <ele>540.6</ele>
        <time>2021-04-04T11:36:36Z</time>
      </trkpt>
      <trkpt lat="40.3234940" lon="-3.5545440">
        <ele>540.6</ele>
        <time>2021-04-04T11:36:37Z</time>
      </trkpt>
      <trkpt lat="40.3235000" lon="-3.5545450">
        <ele>540.6</ele>
        <time>2021-04-04T11:36:38Z</time>
      </trkpt>
      <trkpt lat="40.3235070" lon="-3.5545370">
        <ele>540.6</ele>
        <time>2021-04-04T11:36:39Z</time>
      </trkpt>
      <trkpt lat="40.3235140" lon="-3.5545250">
        <ele>540.6</ele>
        <time>2021-04-04T11:36:40Z</time>
      </trkpt>
      <trkpt lat="40.3235180" lon="-3.5545120">
        <ele>540.6</ele>
        <time>2021-04-04T11:36:41Z</time>
      </trkpt>
      <trkpt lat="40.3235240" lon="-3.5544960">
        <ele>540.7</ele>
        <time>2021-04-04T11:36:42Z</time>
      </trkpt>
      <trkpt lat="40.3235350" lon="-3.5544810">
        <ele>540.7</ele>
        <time>2021-04-04T11:36:43Z</time>
      </trkpt>
      <trkpt lat="40.3235710" lon="-3.5544670">
        <ele>540.6</ele>
        <time>2021-04-04T11:36:44Z</time>
      </trkpt>
      <trkpt lat="40.3235860" lon="-3.5544650">
        <ele>540.6</ele>
        <time>2021-04-04T11:36:45Z</time>
      </trkpt>
      <trkpt lat="40.3236150" lon="-3.5544760">
        <ele>540.7</ele>
        <time>2021-04-04T11:36:46Z</time>
      </trkpt>
      <trkpt lat="40.3236410" lon="-3.5544970">
        <ele>540.7</ele>
        <time>2021-04-04T11:36:47Z</time>
      </trkpt>
      <trkpt lat="40.3236630" lon="-3.5545230">
        <ele>540.8</ele>
        <time>2021-04-04T11:36:48Z</time>
      </trkpt>
      <trkpt lat="40.3236830" lon="-3.5545520">
        <ele>540.8</ele>
        <time>2021-04-04T11:36:49Z</time>
      </trkpt>
      <trkpt lat="40.3237100" lon="-3.5545800">
        <ele>540.8</ele>
        <time>2021-04-04T11:36:50Z</time>
      </trkpt>
      <trkpt lat="40.3237180" lon="-3.5545860">
        <ele>540.9</ele>
        <time>2021-04-04T11:36:51Z</time>
      </trkpt>
      <trkpt lat="40.3237480" lon="-3.5546060">
        <ele>540.9</ele>
        <time>2021-04-04T11:36:52Z</time>
      </trkpt>
      <trkpt lat="40.3237590" lon="-3.5546150">
        <ele>540.9</ele>
        <time>2021-04-04T11:36:53Z</time>
      </trkpt>
      <trkpt lat="40.3237840" lon="-3.5546410">
        <ele>540.9</ele>
        <time>2021-04-04T11:36:54Z</time>
      </trkpt>
      <trkpt lat="40.3238080" lon="-3.5546690">
        <ele>540.9</ele>
        <time>2021-04-04T11:36:55Z</time>
      </trkpt>
      <trkpt lat="40.3238320" lon="-3.5546990">
        <ele>540.9</ele>
        <time>2021-04-04T11:36:56Z</time>
      </trkpt>
      <trkpt lat="40.3238570" lon="-3.5547280">
        <ele>540.9</ele>
        <time>2021-04-04T11:36:57Z</time>
      </trkpt>
      <trkpt lat="40.3238830" lon="-3.5547560">
        <ele>540.9</ele>
        <time>2021-04-04T11:36:58Z</time>
      </trkpt>
      <trkpt lat="40.3239100" lon="-3.5547870">
        <ele>540.9</ele>
        <time>2021-04-04T11:36:59Z</time>
      </trkpt>
      <trkpt lat="40.3239400" lon="-3.5548180">
        <ele>540.8</ele>
        <time>2021-04-04T11:37:00Z</time>
      </trkpt>
      <trkpt lat="40.3239740" lon="-3.5548480">
        <ele>540.7</ele>
        <time>2021-04-04T11:37:01Z</time>
      </trkpt>
      <trkpt lat="40.3240160" lon="-3.5548800">
        <ele>540.6</ele>
        <time>2021-04-04T11:37:02Z</time>
      </trkpt>
      <trkpt lat="40.3240650" lon="-3.5549170">
        <ele>540.4</ele>
        <time>2021-04-04T11:37:03Z</time>
      </trkpt>
      <trkpt lat="40.3241140" lon="-3.5549590">
        <ele>540.2</ele>
        <time>2021-04-04T11:37:04Z</time>
      </trkpt>
      <trkpt lat="40.3241640" lon="-3.5550090">
        <ele>540.0</ele>
        <time>2021-04-04T11:37:05Z</time>
      </trkpt>
      <trkpt lat="40.3242120" lon="-3.5550660">
        <ele>539.8</ele>
        <time>2021-04-04T11:37:06Z</time>
      </trkpt>
      <trkpt lat="40.3242570" lon="-3.5551250">
        <ele>539.7</ele>
        <time>2021-04-04T11:37:07Z</time>
      </trkpt>
      <trkpt lat="40.3242980" lon="-3.5551860">
        <ele>539.5</ele>
        <time>2021-04-04T11:37:08Z</time>
      </trkpt>
      <trkpt lat="40.3243160" lon="-3.5552800">
        <ele>539.4</ele>
        <time>2021-04-04T11:37:09Z</time>
      </trkpt>
      <trkpt lat="40.3243510" lon="-3.5553280">
        <ele>539.4</ele>
        <time>2021-04-04T11:37:10Z</time>
      </trkpt>
      <trkpt lat="40.3243810" lon="-3.5554070">
        <ele>539.3</ele>
        <time>2021-04-04T11:37:11Z</time>
      </trkpt>
      <trkpt lat="40.3243910" lon="-3.5554830">
        <ele>539.3</ele>
        <time>2021-04-04T11:37:12Z</time>
      </trkpt>
      <trkpt lat="40.3244130" lon="-3.5555600">
        <ele>539.2</ele>
        <time>2021-04-04T11:37:13Z</time>
      </trkpt>
      <trkpt lat="40.3244430" lon="-3.5556240">
        <ele>539.2</ele>
        <time>2021-04-04T11:37:14Z</time>
      </trkpt>
      <trkpt lat="40.3244650" lon="-3.5557230">
        <ele>539.1</ele>
        <time>2021-04-04T11:37:15Z</time>
      </trkpt>
      <trkpt lat="40.3244720" lon="-3.5557860">
        <ele>539.1</ele>
        <time>2021-04-04T11:37:16Z</time>
      </trkpt>
      <trkpt lat="40.3244740" lon="-3.5558580">
        <ele>539.1</ele>
        <time>2021-04-04T11:37:17Z</time>
      </trkpt>
      <trkpt lat="40.3244780" lon="-3.5559370">
        <ele>539.1</ele>
        <time>2021-04-04T11:37:18Z</time>
      </trkpt>
      <trkpt lat="40.3244830" lon="-3.5559910">
        <ele>539.1</ele>
        <time>2021-04-04T11:37:19Z</time>
      </trkpt>
      <trkpt lat="40.3244880" lon="-3.5560620">
        <ele>539.1</ele>
        <time>2021-04-04T11:37:20Z</time>
      </trkpt>
      <trkpt lat="40.3244860" lon="-3.5561300">
        <ele>539.1</ele>
        <time>2021-04-04T11:37:21Z</time>
      </trkpt>
      <trkpt lat="40.3244860" lon="-3.5562160">
        <ele>539.2</ele>
        <time>2021-04-04T11:37:22Z</time>
      </trkpt>
      <trkpt lat="40.3244910" lon="-3.5562910">
        <ele>539.3</ele>
        <time>2021-04-04T11:37:23Z</time>
      </trkpt>
      <trkpt lat="40.3244640" lon="-3.5563500">
        <ele>539.3</ele>
        <time>2021-04-04T11:37:24Z</time>
      </trkpt>
      <trkpt lat="40.3244620" lon="-3.5564250">
        <ele>539.4</ele>
        <time>2021-04-04T11:37:25Z</time>
      </trkpt>
      <trkpt lat="40.3244570" lon="-3.5564830">
        <ele>539.4</ele>
        <time>2021-04-04T11:37:26Z</time>
      </trkpt>
      <trkpt lat="40.3244350" lon="-3.5565520">
        <ele>539.5</ele>
        <time>2021-04-04T11:37:27Z</time>
      </trkpt>
      <trkpt lat="40.3244370" lon="-3.5566250">
        <ele>539.6</ele>
        <time>2021-04-04T11:37:28Z</time>
      </trkpt>
      <trkpt lat="40.3244320" lon="-3.5566900">
        <ele>539.7</ele>
        <time>2021-04-04T11:37:29Z</time>
      </trkpt>
      <trkpt lat="40.3244260" lon="-3.5567720">
        <ele>539.8</ele>
        <time>2021-04-04T11:37:30Z</time>
      </trkpt>
      <trkpt lat="40.3244200" lon="-3.5568300">
        <ele>539.9</ele>
        <time>2021-04-04T11:37:31Z</time>
      </trkpt>
      <trkpt lat="40.3244130" lon="-3.5568980">
        <ele>540.0</ele>
        <time>2021-04-04T11:37:32Z</time>
      </trkpt>
      <trkpt lat="40.3244050" lon="-3.5569380">
        <ele>540.1</ele>
        <time>2021-04-04T11:37:33Z</time>
      </trkpt>
      <trkpt lat="40.3243980" lon="-3.5569840">
        <ele>540.1</ele>
        <time>2021-04-04T11:37:34Z</time>
      </trkpt>
      <trkpt lat="40.3243590" lon="-3.5570420">
        <ele>540.3</ele>
        <time>2021-04-04T11:37:35Z</time>
      </trkpt>
      <trkpt lat="40.3243620" lon="-3.5571350">
        <ele>540.5</ele>
        <time>2021-04-04T11:37:36Z</time>
      </trkpt>
      <trkpt lat="40.3243710" lon="-3.5571950">
        <ele>540.6</ele>
        <time>2021-04-04T11:37:37Z</time>
      </trkpt>
      <trkpt lat="40.3243780" lon="-3.5572470">
        <ele>540.7</ele>
        <time>2021-04-04T11:37:38Z</time>
      </trkpt>
      <trkpt lat="40.3243770" lon="-3.5573080">
        <ele>540.9</ele>
        <time>2021-04-04T11:37:39Z</time>
      </trkpt>
      <trkpt lat="40.3244090" lon="-3.5573730">
        <ele>541.1</ele>
        <time>2021-04-04T11:37:40Z</time>
      </trkpt>
      <trkpt lat="40.3244140" lon="-3.5574290">
        <ele>541.1</ele>
        <time>2021-04-04T11:37:41Z</time>
      </trkpt>
      <trkpt lat="40.3244420" lon="-3.5574750">
        <ele>541.2</ele>
        <time>2021-04-04T11:37:42Z</time>
      </trkpt>
      <trkpt lat="40.3245260" lon="-3.5574530">
        <ele>541.2</ele>
        <time>2021-04-04T11:37:43Z</time>
      </trkpt>
      <trkpt lat="40.3245690" lon="-3.5574750">
        <ele>541.3</ele>
        <time>2021-04-04T11:37:44Z</time>
      </trkpt>
      <trkpt lat="40.3246320" lon="-3.5574370">
        <ele>541.4</ele>
        <time>2021-04-04T11:37:45Z</time>
      </trkpt>
      <trkpt lat="40.3246700" lon="-3.5574240">
        <ele>541.5</ele>
        <time>2021-04-04T11:37:46Z</time>
      </trkpt>
      <trkpt lat="40.3247160" lon="-3.5574120">
        <ele>541.6</ele>
        <time>2021-04-04T11:37:47Z</time>
      </trkpt>
      <trkpt lat="40.3247490" lon="-3.5573900">
        <ele>541.8</ele>
        <time>2021-04-04T11:37:48Z</time>
      </trkpt>
      <trkpt lat="40.3247920" lon="-3.5573650">
        <ele>541.9</ele>
        <time>2021-04-04T11:37:49Z</time>
      </trkpt>
      <trkpt lat="40.3248330" lon="-3.5573350">
        <ele>542.1</ele>
        <time>2021-04-04T11:37:50Z</time>
      </trkpt>
      <trkpt lat="40.3248730" lon="-3.5573130">
        <ele>542.3</ele>
        <time>2021-04-04T11:37:51Z</time>
      </trkpt>
      <trkpt lat="40.3249020" lon="-3.5572890">
        <ele>542.4</ele>
        <time>2021-04-04T11:37:52Z</time>
      </trkpt>
      <trkpt lat="40.3249220" lon="-3.5572540">
        <ele>542.5</ele>
        <time>2021-04-04T11:37:53Z</time>
      </trkpt>
      <trkpt lat="40.3249500" lon="-3.5572130">
        <ele>542.7</ele>
        <time>2021-04-04T11:37:54Z</time>
      </trkpt>
      <trkpt lat="40.3249910" lon="-3.5571620">
        <ele>542.9</ele>
        <time>2021-04-04T11:37:55Z</time>
      </trkpt>
      <trkpt lat="40.3250260" lon="-3.5571290">
        <ele>543.0</ele>
        <time>2021-04-04T11:37:56Z</time>
      </trkpt>
      <trkpt lat="40.3250600" lon="-3.5571070">
        <ele>543.2</ele>
        <time>2021-04-04T11:37:57Z</time>
      </trkpt>
      <trkpt lat="40.3250870" lon="-3.5570550">
        <ele>543.3</ele>
        <time>2021-04-04T11:37:58Z</time>
      </trkpt>
      <trkpt lat="40.3251300" lon="-3.5570180">
        <ele>543.4</ele>
        <time>2021-04-04T11:37:59Z</time>
      </trkpt>
      <trkpt lat="40.3251620" lon="-3.5569780">
        <ele>543.6</ele>
        <time>2021-04-04T11:38:00Z</time>
      </trkpt>
      <trkpt lat="40.3251920" lon="-3.5569500">
        <ele>543.7</ele>
        <time>2021-04-04T11:38:01Z</time>
      </trkpt>
      <trkpt lat="40.3252180" lon="-3.5568930">
        <ele>543.8</ele>
        <time>2021-04-04T11:38:02Z</time>
      </trkpt>
      <trkpt lat="40.3252460" lon="-3.5568470">
        <ele>543.9</ele>
        <time>2021-04-04T11:38:03Z</time>
      </trkpt>
      <trkpt lat="40.3252890" lon="-3.5567840">
        <ele>544.1</ele>
        <time>2021-04-04T11:38:04Z</time>
      </trkpt>
      <trkpt lat="40.3253110" lon="-3.5567350">
        <ele>544.1</ele>
        <time>2021-04-04T11:38:05Z</time>
      </trkpt>
      <trkpt lat="40.3253430" lon="-3.5566910">
        <ele>544.2</ele>
        <time>2021-04-04T11:38:06Z</time>
      </trkpt>
      <trkpt lat="40.3253700" lon="-3.5566450">
        <ele>544.3</ele>
        <time>2021-04-04T11:38:07Z</time>
      </trkpt>
      <trkpt lat="40.3253700" lon="-3.5566050">
        <ele>544.3</ele>
        <time>2021-04-04T11:38:08Z</time>
      </trkpt>
      <trkpt lat="40.3254190" lon="-3.5565560">
        <ele>544.3</ele>
        <time>2021-04-04T11:38:09Z</time>
      </trkpt>
      <trkpt lat="40.3254780" lon="-3.5565140">
        <ele>544.3</ele>
        <time>2021-04-04T11:38:10Z</time>
      </trkpt>
      <trkpt lat="40.3255040" lon="-3.5564540">
        <ele>544.3</ele>
        <time>2021-04-04T11:38:11Z</time>
      </trkpt>
      <trkpt lat="40.3255270" lon="-3.5564050">
        <ele>544.2</ele>
        <time>2021-04-04T11:38:12Z</time>
      </trkpt>
      <trkpt lat="40.3255730" lon="-3.5563480">
        <ele>544.1</ele>
        <time>2021-04-04T11:38:13Z</time>
      </trkpt>
      <trkpt lat="40.3256050" lon="-3.5562980">
        <ele>544.0</ele>
        <time>2021-04-04T11:38:14Z</time>
      </trkpt>
      <trkpt lat="40.3256430" lon="-3.5562450">
        <ele>544.0</ele>
        <time>2021-04-04T11:38:15Z</time>
      </trkpt>
      <trkpt lat="40.3256720" lon="-3.5561930">
        <ele>544.1</ele>
        <time>2021-04-04T11:38:16Z</time>
      </trkpt>
      <trkpt lat="40.3257060" lon="-3.5561460">
        <ele>544.1</ele>
        <time>2021-04-04T11:38:17Z</time>
      </trkpt>
      <trkpt lat="40.3257350" lon="-3.5561000">
        <ele>544.1</ele>
        <time>2021-04-04T11:38:18Z</time>
      </trkpt>
      <trkpt lat="40.3257450" lon="-3.5560620">
        <ele>544.1</ele>
        <time>2021-04-04T11:38:19Z</time>
      </trkpt>
      <trkpt lat="40.3257910" lon="-3.5560190">
        <ele>544.1</ele>
        <time>2021-04-04T11:38:20Z</time>
      </trkpt>
      <trkpt lat="40.3258190" lon="-3.5559650">
        <ele>544.1</ele>
        <time>2021-04-04T11:38:21Z</time>
      </trkpt>
      <trkpt lat="40.3258730" lon="-3.5559180">
        <ele>544.1</ele>
        <time>2021-04-04T11:38:22Z</time>
      </trkpt>
      <trkpt lat="40.3259510" lon="-3.5558720">
        <ele>544.1</ele>
        <time>2021-04-04T11:38:23Z</time>
      </trkpt>
      <trkpt lat="40.3259780" lon="-3.5558210">
        <ele>544.1</ele>
        <time>2021-04-04T11:38:24Z</time>
      </trkpt>
      <trkpt lat="40.3260060" lon="-3.5557660">
        <ele>544.1</ele>
        <time>2021-04-04T11:38:25Z</time>
      </trkpt>
      <trkpt lat="40.3260550" lon="-3.5556930">
        <ele>544.0</ele>
        <time>2021-04-04T11:38:26Z</time>
      </trkpt>
      <trkpt lat="40.3260900" lon="-3.5556440">
        <ele>543.9</ele>
        <time>2021-04-04T11:38:27Z</time>
      </trkpt>
      <trkpt lat="40.3261180" lon="-3.5555800">
        <ele>543.9</ele>
        <time>2021-04-04T11:38:28Z</time>
      </trkpt>
      <trkpt lat="40.3261540" lon="-3.5555330">
        <ele>543.8</ele>
        <time>2021-04-04T11:38:29Z</time>
      </trkpt>
      <trkpt lat="40.3261910" lon="-3.5554940">
        <ele>543.8</ele>
        <time>2021-04-04T11:38:30Z</time>
      </trkpt>
      <trkpt lat="40.3262410" lon="-3.5554440">
        <ele>543.7</ele>
        <time>2021-04-04T11:38:31Z</time>
      </trkpt>
      <trkpt lat="40.3262710" lon="-3.5553910">
        <ele>543.7</ele>
        <time>2021-04-04T11:38:32Z</time>
      </trkpt>
      <trkpt lat="40.3263220" lon="-3.5553150">
        <ele>543.7</ele>
        <time>2021-04-04T11:38:33Z</time>
      </trkpt>
      <trkpt lat="40.3263500" lon="-3.5552760">
        <ele>543.7</ele>
        <time>2021-04-04T11:38:34Z</time>
      </trkpt>
      <trkpt lat="40.3264300" lon="-3.5552240">
        <ele>543.7</ele>
        <time>2021-04-04T11:38:35Z</time>
      </trkpt>
      <trkpt lat="40.3264990" lon="-3.5551640">
        <ele>543.7</ele>
        <time>2021-04-04T11:38:36Z</time>
      </trkpt>
      <trkpt lat="40.3265260" lon="-3.5550970">
        <ele>543.6</ele>
        <time>2021-04-04T11:38:37Z</time>
      </trkpt>
      <trkpt lat="40.3266040" lon="-3.5550420">
        <ele>543.6</ele>
        <time>2021-04-04T11:38:38Z</time>
      </trkpt>
      <trkpt lat="40.3266470" lon="-3.5549980">
        <ele>543.6</ele>
        <time>2021-04-04T11:38:39Z</time>
      </trkpt>
      <trkpt lat="40.3267100" lon="-3.5549450">
        <ele>543.6</ele>
        <time>2021-04-04T11:38:40Z</time>
      </trkpt>
      <trkpt lat="40.3267550" lon="-3.5549100">
        <ele>543.5</ele>
        <time>2021-04-04T11:38:41Z</time>
      </trkpt>
      <trkpt lat="40.3268300" lon="-3.5548400">
        <ele>543.5</ele>
        <time>2021-04-04T11:38:42Z</time>
      </trkpt>
      <trkpt lat="40.3268630" lon="-3.5547830">
        <ele>543.5</ele>
        <time>2021-04-04T11:38:43Z</time>
      </trkpt>
      <trkpt lat="40.3268750" lon="-3.5547270">
        <ele>543.5</ele>
        <time>2021-04-04T11:38:44Z</time>
      </trkpt>
      <trkpt lat="40.3268980" lon="-3.5546740">
        <ele>543.5</ele>
        <time>2021-04-04T11:38:45Z</time>
      </trkpt>
      <trkpt lat="40.3269420" lon="-3.5546080">
        <ele>543.5</ele>
        <time>2021-04-04T11:38:46Z</time>
      </trkpt>
      <trkpt lat="40.3269910" lon="-3.5545640">
        <ele>543.5</ele>
        <time>2021-04-04T11:38:47Z</time>
      </trkpt>
      <trkpt lat="40.3270430" lon="-3.5545150">
        <ele>543.5</ele>
        <time>2021-04-04T11:38:48Z</time>
      </trkpt>
      <trkpt lat="40.3270870" lon="-3.5544680">
        <ele>543.5</ele>
        <time>2021-04-04T11:38:49Z</time>
      </trkpt>
      <trkpt lat="40.3271170" lon="-3.5544290">
        <ele>543.5</ele>
        <time>2021-04-04T11:38:50Z</time>
      </trkpt>
      <trkpt lat="40.3271600" lon="-3.5543600">
        <ele>543.5</ele>
        <time>2021-04-04T11:38:51Z</time>
      </trkpt>
      <trkpt lat="40.3271930" lon="-3.5543060">
        <ele>543.5</ele>
        <time>2021-04-04T11:38:52Z</time>
      </trkpt>
      <trkpt lat="40.3272790" lon="-3.5542590">
        <ele>543.6</ele>
        <time>2021-04-04T11:38:53Z</time>
      </trkpt>
      <trkpt lat="40.3273390" lon="-3.5542080">
        <ele>543.6</ele>
        <time>2021-04-04T11:38:54Z</time>
      </trkpt>
      <trkpt lat="40.3274030" lon="-3.5541410">
        <ele>543.7</ele>
        <time>2021-04-04T11:38:55Z</time>
      </trkpt>
      <trkpt lat="40.3274390" lon="-3.5540840">
        <ele>543.7</ele>
        <time>2021-04-04T11:38:56Z</time>
      </trkpt>
      <trkpt lat="40.3274890" lon="-3.5540280">
        <ele>543.7</ele>
        <time>2021-04-04T11:38:57Z</time>
      </trkpt>
      <trkpt lat="40.3275440" lon="-3.5539730">
        <ele>543.7</ele>
        <time>2021-04-04T11:38:58Z</time>
      </trkpt>
      <trkpt lat="40.3275710" lon="-3.5539220">
        <ele>543.7</ele>
        <time>2021-04-04T11:38:59Z</time>
      </trkpt>
      <trkpt lat="40.3275910" lon="-3.5538630">
        <ele>543.7</ele>
        <time>2021-04-04T11:39:00Z</time>
      </trkpt>
      <trkpt lat="40.3276120" lon="-3.5537900">
        <ele>543.7</ele>
        <time>2021-04-04T11:39:01Z</time>
      </trkpt>
      <trkpt lat="40.3277030" lon="-3.5537200">
        <ele>543.7</ele>
        <time>2021-04-04T11:39:02Z</time>
      </trkpt>
      <trkpt lat="40.3277750" lon="-3.5536340">
        <ele>543.6</ele>
        <time>2021-04-04T11:39:03Z</time>
      </trkpt>
      <trkpt lat="40.3278120" lon="-3.5535660">
        <ele>543.6</ele>
        <time>2021-04-04T11:39:04Z</time>
      </trkpt>
      <trkpt lat="40.3278700" lon="-3.5535030">
        <ele>543.6</ele>
        <time>2021-04-04T11:39:05Z</time>
      </trkpt>
      <trkpt lat="40.3279140" lon="-3.5534480">
        <ele>543.6</ele>
        <time>2021-04-04T11:39:06Z</time>
      </trkpt>
      <trkpt lat="40.3279860" lon="-3.5533840">
        <ele>543.6</ele>
        <time>2021-04-04T11:39:07Z</time>
      </trkpt>
      <trkpt lat="40.3280360" lon="-3.5533120">
        <ele>543.5</ele>
        <time>2021-04-04T11:39:08Z</time>
      </trkpt>
      <trkpt lat="40.3280460" lon="-3.5532510">
        <ele>543.5</ele>
        <time>2021-04-04T11:39:09Z</time>
      </trkpt>
      <trkpt lat="40.3280550" lon="-3.5532080">
        <ele>543.5</ele>
        <time>2021-04-04T11:39:10Z</time>
      </trkpt>
      <trkpt lat="40.3280740" lon="-3.5531440">
        <ele>543.4</ele>
        <time>2021-04-04T11:39:11Z</time>
      </trkpt>
      <trkpt lat="40.3280910" lon="-3.5530880">
        <ele>543.3</ele>
        <time>2021-04-04T11:39:12Z</time>
      </trkpt>
      <trkpt lat="40.3281430" lon="-3.5530410">
        <ele>543.3</ele>
        <time>2021-04-04T11:39:13Z</time>
      </trkpt>
      <trkpt lat="40.3281900" lon="-3.5529730">
        <ele>543.2</ele>
        <time>2021-04-04T11:39:14Z</time>
      </trkpt>
      <trkpt lat="40.3282250" lon="-3.5528930">
        <ele>543.2</ele>
        <time>2021-04-04T11:39:15Z</time>
      </trkpt>
      <trkpt lat="40.3282850" lon="-3.5528070">
        <ele>543.2</ele>
        <time>2021-04-04T11:39:16Z</time>
      </trkpt>
      <trkpt lat="40.3283290" lon="-3.5527300">
        <ele>543.2</ele>
        <time>2021-04-04T11:39:17Z</time>
      </trkpt>
      <trkpt lat="40.3283840" lon="-3.5526420">
        <ele>543.2</ele>
        <time>2021-04-04T11:39:18Z</time>
      </trkpt>
      <trkpt lat="40.3284370" lon="-3.5525660">
        <ele>543.2</ele>
        <time>2021-04-04T11:39:19Z</time>
      </trkpt>
      <trkpt lat="40.3284570" lon="-3.5524740">
        <ele>543.2</ele>
        <time>2021-04-04T11:39:20Z</time>
      </trkpt>
      <trkpt lat="40.3285070" lon="-3.5524050">
        <ele>543.2</ele>
        <time>2021-04-04T11:39:21Z</time>
      </trkpt>
      <trkpt lat="40.3285320" lon="-3.5523200">
        <ele>543.2</ele>
        <time>2021-04-04T11:39:22Z</time>
      </trkpt>
      <trkpt lat="40.3285360" lon="-3.5522250">
        <ele>543.1</ele>
        <time>2021-04-04T11:39:23Z</time>
      </trkpt>
      <trkpt lat="40.3285850" lon="-3.5521350">
        <ele>543.1</ele>
        <time>2021-04-04T11:39:24Z</time>
      </trkpt>
      <trkpt lat="40.3286250" lon="-3.5520510">
        <ele>543.1</ele>
        <time>2021-04-04T11:39:25Z</time>
      </trkpt>
      <trkpt lat="40.3286750" lon="-3.5519710">
        <ele>543.1</ele>
        <time>2021-04-04T11:39:26Z</time>
      </trkpt>
      <trkpt lat="40.3287470" lon="-3.5518890">
        <ele>543.0</ele>
        <time>2021-04-04T11:39:27Z</time>
      </trkpt>
      <trkpt lat="40.3287840" lon="-3.5518050">
        <ele>543.0</ele>
        <time>2021-04-04T11:39:28Z</time>
      </trkpt>
      <trkpt lat="40.3288130" lon="-3.5517270">
        <ele>542.9</ele>
        <time>2021-04-04T11:39:29Z</time>
      </trkpt>
      <trkpt lat="40.3288840" lon="-3.5516890">
        <ele>542.9</ele>
        <time>2021-04-04T11:39:30Z</time>
      </trkpt>
      <trkpt lat="40.3289040" lon="-3.5516100">
        <ele>542.8</ele>
        <time>2021-04-04T11:39:31Z</time>
      </trkpt>
      <trkpt lat="40.3289550" lon="-3.5515320">
        <ele>542.8</ele>
        <time>2021-04-04T11:39:32Z</time>
      </trkpt>
      <trkpt lat="40.3289940" lon="-3.5514530">
        <ele>542.7</ele>
        <time>2021-04-04T11:39:33Z</time>
      </trkpt>
      <trkpt lat="40.3290380" lon="-3.5513840">
        <ele>542.7</ele>
        <time>2021-04-04T11:39:34Z</time>
      </trkpt>
      <trkpt lat="40.3290700" lon="-3.5513090">
        <ele>542.6</ele>
        <time>2021-04-04T11:39:35Z</time>
      </trkpt>
      <trkpt lat="40.3291110" lon="-3.5512390">
        <ele>542.5</ele>
        <time>2021-04-04T11:39:36Z</time>
      </trkpt>
      <trkpt lat="40.3291790" lon="-3.5511630">
        <ele>542.5</ele>
        <time>2021-04-04T11:39:37Z</time>
      </trkpt>
      <trkpt lat="40.3292280" lon="-3.5510830">
        <ele>542.4</ele>
        <time>2021-04-04T11:39:38Z</time>
      </trkpt>
      <trkpt lat="40.3292710" lon="-3.5510080">
        <ele>542.3</ele>
        <time>2021-04-04T11:39:39Z</time>
      </trkpt>
      <trkpt lat="40.3292780" lon="-3.5509350">
        <ele>542.3</ele>
        <time>2021-04-04T11:39:40Z</time>
      </trkpt>
      <trkpt lat="40.3293260" lon="-3.5508570">
        <ele>542.2</ele>
        <time>2021-04-04T11:39:41Z</time>
      </trkpt>
      <trkpt lat="40.3293760" lon="-3.5507840">
        <ele>542.2</ele>
        <time>2021-04-04T11:39:42Z</time>
      </trkpt>
      <trkpt lat="40.3294100" lon="-3.5507260">
        <ele>542.1</ele>
        <time>2021-04-04T11:39:43Z</time>
      </trkpt>
      <trkpt lat="40.3294460" lon="-3.5506670">
        <ele>542.1</ele>
        <time>2021-04-04T11:39:44Z</time>
      </trkpt>
      <trkpt lat="40.3294990" lon="-3.5505780">
        <ele>542.1</ele>
        <time>2021-04-04T11:39:45Z</time>
      </trkpt>
      <trkpt lat="40.3295910" lon="-3.5504860">
        <ele>542.1</ele>
        <time>2021-04-04T11:39:46Z</time>
      </trkpt>
      <trkpt lat="40.3296630" lon="-3.5504020">
        <ele>542.1</ele>
        <time>2021-04-04T11:39:47Z</time>
      </trkpt>
      <trkpt lat="40.3296930" lon="-3.5503240">
        <ele>542.2</ele>
        <time>2021-04-04T11:39:48Z</time>
      </trkpt>
      <trkpt lat="40.3297360" lon="-3.5502380">
        <ele>542.2</ele>
        <time>2021-04-04T11:39:49Z</time>
      </trkpt>
      <trkpt lat="40.3297720" lon="-3.5501660">
        <ele>542.3</ele>
        <time>2021-04-04T11:39:50Z</time>
      </trkpt>
      <trkpt lat="40.3298470" lon="-3.5500880">
        <ele>542.4</ele>
        <time>2021-04-04T11:39:51Z</time>
      </trkpt>
      <trkpt lat="40.3298760" lon="-3.5500020">
        <ele>542.6</ele>
        <time>2021-04-04T11:39:52Z</time>
      </trkpt>
      <trkpt lat="40.3299130" lon="-3.5499260">
        <ele>542.7</ele>
        <time>2021-04-04T11:39:53Z</time>
      </trkpt>
      <trkpt lat="40.3299290" lon="-3.5498350">
        <ele>542.8</ele>
        <time>2021-04-04T11:39:54Z</time>
      </trkpt>
      <trkpt lat="40.3299860" lon="-3.5497610">
        <ele>543.0</ele>
        <time>2021-04-04T11:39:55Z</time>
      </trkpt>
      <trkpt lat="40.3300250" lon="-3.5496850">
        <ele>543.1</ele>
        <time>2021-04-04T11:39:56Z</time>
      </trkpt>
      <trkpt lat="40.3301250" lon="-3.5496180">
        <ele>543.2</ele>
        <time>2021-04-04T11:39:57Z</time>
      </trkpt>
      <trkpt lat="40.3301770" lon="-3.5495410">
        <ele>543.3</ele>
        <time>2021-04-04T11:39:58Z</time>
      </trkpt>
      <trkpt lat="40.3302010" lon="-3.5494480">
        <ele>543.4</ele>
        <time>2021-04-04T11:39:59Z</time>
      </trkpt>
      <trkpt lat="40.3302530" lon="-3.5493900">
        <ele>543.5</ele>
        <time>2021-04-04T11:40:00Z</time>
      </trkpt>
      <trkpt lat="40.3302780" lon="-3.5493080">
        <ele>543.5</ele>
        <time>2021-04-04T11:40:01Z</time>
      </trkpt>
      <trkpt lat="40.3303180" lon="-3.5492180">
        <ele>543.6</ele>
        <time>2021-04-04T11:40:02Z</time>
      </trkpt>
      <trkpt lat="40.3303380" lon="-3.5491550">
        <ele>543.6</ele>
        <time>2021-04-04T11:40:03Z</time>
      </trkpt>
      <trkpt lat="40.3303750" lon="-3.5490980">
        <ele>543.6</ele>
        <time>2021-04-04T11:40:04Z</time>
      </trkpt>
      <trkpt lat="40.3304170" lon="-3.5490150">
        <ele>543.6</ele>
        <time>2021-04-04T11:40:05Z</time>
      </trkpt>
      <trkpt lat="40.3304340" lon="-3.5489520">
        <ele>543.5</ele>
        <time>2021-04-04T11:40:06Z</time>
      </trkpt>
      <trkpt lat="40.3304280" lon="-3.5488700">
        <ele>543.5</ele>
        <time>2021-04-04T11:40:07Z</time>
      </trkpt>
      <trkpt lat="40.3304740" lon="-3.5487900">
        <ele>543.4</ele>
        <time>2021-04-04T11:40:08Z</time>
      </trkpt>
      <trkpt lat="40.3305350" lon="-3.5487100">
        <ele>543.3</ele>
        <time>2021-04-04T11:40:09Z</time>
      </trkpt>
      <trkpt lat="40.3305720" lon="-3.5486220">
        <ele>543.3</ele>
        <time>2021-04-04T11:40:10Z</time>
      </trkpt>
      <trkpt lat="40.3305970" lon="-3.5485420">
        <ele>543.2</ele>
        <time>2021-04-04T11:40:11Z</time>
      </trkpt>
      <trkpt lat="40.3306520" lon="-3.5484590">
        <ele>543.2</ele>
        <time>2021-04-04T11:40:12Z</time>
      </trkpt>
      <trkpt lat="40.3306810" lon="-3.5483620">
        <ele>543.3</ele>
        <time>2021-04-04T11:40:13Z</time>
      </trkpt>
      <trkpt lat="40.3307220" lon="-3.5482700">
        <ele>543.3</ele>
        <time>2021-04-04T11:40:14Z</time>
      </trkpt>
      <trkpt lat="40.3307500" lon="-3.5481740">
        <ele>543.4</ele>
        <time>2021-04-04T11:40:15Z</time>
      </trkpt>
      <trkpt lat="40.3307640" lon="-3.5480750">
        <ele>543.5</ele>
        <time>2021-04-04T11:40:16Z</time>
      </trkpt>
      <trkpt lat="40.3307600" lon="-3.5480060">
        <ele>543.6</ele>
        <time>2021-04-04T11:40:17Z</time>
      </trkpt>
      <trkpt lat="40.3307850" lon="-3.5479280">
        <ele>543.7</ele>
        <time>2021-04-04T11:40:18Z</time>
      </trkpt>
      <trkpt lat="40.3307900" lon="-3.5478440">
        <ele>543.7</ele>
        <time>2021-04-04T11:40:19Z</time>
      </trkpt>
      <trkpt lat="40.3308130" lon="-3.5477560">
        <ele>543.8</ele>
        <time>2021-04-04T11:40:20Z</time>
      </trkpt>
      <trkpt lat="40.3308040" lon="-3.5476990">
        <ele>543.8</ele>
        <time>2021-04-04T11:40:21Z</time>
      </trkpt>
      <trkpt lat="40.3308110" lon="-3.5476270">
        <ele>543.9</ele>
        <time>2021-04-04T11:40:22Z</time>
      </trkpt>
      <trkpt lat="40.3308170" lon="-3.5475850">
        <ele>543.9</ele>
        <time>2021-04-04T11:40:23Z</time>
      </trkpt>
      <trkpt lat="40.3308380" lon="-3.5475060">
        <ele>543.9</ele>
        <time>2021-04-04T11:40:24Z</time>
      </trkpt>
      <trkpt lat="40.3308460" lon="-3.5474260">
        <ele>543.9</ele>
        <time>2021-04-04T11:40:25Z</time>
      </trkpt>
      <trkpt lat="40.3308660" lon="-3.5473570">
        <ele>543.9</ele>
        <time>2021-04-04T11:40:26Z</time>
      </trkpt>
      <trkpt lat="40.3309480" lon="-3.5472710">
        <ele>543.9</ele>
        <time>2021-04-04T11:40:27Z</time>
      </trkpt>
      <trkpt lat="40.3310010" lon="-3.5472080">
        <ele>543.8</ele>
        <time>2021-04-04T11:40:28Z</time>
      </trkpt>
      <trkpt lat="40.3310420" lon="-3.5471250">
        <ele>543.8</ele>
        <time>2021-04-04T11:40:29Z</time>
      </trkpt>
      <trkpt lat="40.3310720" lon="-3.5470670">
        <ele>543.8</ele>
        <time>2021-04-04T11:40:30Z</time>
      </trkpt>
      <trkpt lat="40.3311130" lon="-3.5469760">
        <ele>543.7</ele>
        <time>2021-04-04T11:40:31Z</time>
      </trkpt>
      <trkpt lat="40.3311750" lon="-3.5468850">
        <ele>543.7</ele>
        <time>2021-04-04T11:40:32Z</time>
      </trkpt>
      <trkpt lat="40.3312100" lon="-3.5468240">
        <ele>543.6</ele>
        <time>2021-04-04T11:40:33Z</time>
      </trkpt>
      <trkpt lat="40.3312450" lon="-3.5467410">
        <ele>543.6</ele>
        <time>2021-04-04T11:40:34Z</time>
      </trkpt>
      <trkpt lat="40.3312730" lon="-3.5466680">
        <ele>543.6</ele>
        <time>2021-04-04T11:40:35Z</time>
      </trkpt>
      <trkpt lat="40.3313030" lon="-3.5465860">
        <ele>543.6</ele>
        <time>2021-04-04T11:40:36Z</time>
      </trkpt>
      <trkpt lat="40.3313470" lon="-3.5464800">
        <ele>543.5</ele>
        <time>2021-04-04T11:40:37Z</time>
      </trkpt>
      <trkpt lat="40.3313970" lon="-3.5464470">
        <ele>543.4</ele>
        <time>2021-04-04T11:40:38Z</time>
      </trkpt>
      <trkpt lat="40.3314520" lon="-3.5463820">
        <ele>543.4</ele>
        <time>2021-04-04T11:40:39Z</time>
      </trkpt>
      <trkpt lat="40.3314900" lon="-3.5463110">
        <ele>543.3</ele>
        <time>2021-04-04T11:40:40Z</time>
      </trkpt>
      <trkpt lat="40.3315160" lon="-3.5462160">
        <ele>543.2</ele>
        <time>2021-04-04T11:40:41Z</time>
      </trkpt>
      <trkpt lat="40.3315240" lon="-3.5460940">
        <ele>543.1</ele>
        <time>2021-04-04T11:40:42Z</time>
      </trkpt>
      <trkpt lat="40.3315440" lon="-3.5460090">
        <ele>543.0</ele>
        <time>2021-04-04T11:40:43Z</time>
      </trkpt>
      <trkpt lat="40.3315930" lon="-3.5459070">
        <ele>542.9</ele>
        <time>2021-04-04T11:40:44Z</time>
      </trkpt>
      <trkpt lat="40.3316070" lon="-3.5457710">
        <ele>542.8</ele>
        <time>2021-04-04T11:40:45Z</time>
      </trkpt>
      <trkpt lat="40.3316030" lon="-3.5456680">
        <ele>542.6</ele>
        <time>2021-04-04T11:40:46Z</time>
      </trkpt>
      <trkpt lat="40.3316040" lon="-3.5455850">
        <ele>542.5</ele>
        <time>2021-04-04T11:40:47Z</time>
      </trkpt>
      <trkpt lat="40.3315970" lon="-3.5455120">
        <ele>542.4</ele>
        <time>2021-04-04T11:40:48Z</time>
      </trkpt>
      <trkpt lat="40.3316070" lon="-3.5454230">
        <ele>542.2</ele>
        <time>2021-04-04T11:40:49Z</time>
      </trkpt>
      <trkpt lat="40.3316160" lon="-3.5453240">
        <ele>542.1</ele>
        <time>2021-04-04T11:40:50Z</time>
      </trkpt>
      <trkpt lat="40.3316290" lon="-3.5452280">
        <ele>541.9</ele>
        <time>2021-04-04T11:40:51Z</time>
      </trkpt>
      <trkpt lat="40.3316600" lon="-3.5451120">
        <ele>541.8</ele>
        <time>2021-04-04T11:40:52Z</time>
      </trkpt>
      <trkpt lat="40.3316670" lon="-3.5450380">
        <ele>541.7</ele>
        <time>2021-04-04T11:40:53Z</time>
      </trkpt>
      <trkpt lat="40.3316900" lon="-3.5449360">
        <ele>541.6</ele>
        <time>2021-04-04T11:40:54Z</time>
      </trkpt>
      <trkpt lat="40.3316900" lon="-3.5448630">
        <ele>541.5</ele>
        <time>2021-04-04T11:40:55Z</time>
      </trkpt>
      <trkpt lat="40.3317200" lon="-3.5447720">
        <ele>541.4</ele>
        <time>2021-04-04T11:40:56Z</time>
      </trkpt>
      <trkpt lat="40.3317110" lon="-3.5446510">
        <ele>541.3</ele>
        <time>2021-04-04T11:40:57Z</time>
      </trkpt>
      <trkpt lat="40.3317090" lon="-3.5445540">
        <ele>541.2</ele>
        <time>2021-04-04T11:40:58Z</time>
      </trkpt>
      <trkpt lat="40.3317140" lon="-3.5444650">
        <ele>541.1</ele>
        <time>2021-04-04T11:40:59Z</time>
      </trkpt>
      <trkpt lat="40.3317250" lon="-3.5443800">
        <ele>541.1</ele>
        <time>2021-04-04T11:41:00Z</time>
      </trkpt>
      <trkpt lat="40.3317300" lon="-3.5442830">
        <ele>541.0</ele>
        <time>2021-04-04T11:41:01Z</time>
      </trkpt>
      <trkpt lat="40.3317610" lon="-3.5441820">
        <ele>541.0</ele>
        <time>2021-04-04T11:41:02Z</time>
      </trkpt>
      <trkpt lat="40.3318040" lon="-3.5440560">
        <ele>540.9</ele>
        <time>2021-04-04T11:41:03Z</time>
      </trkpt>
      <trkpt lat="40.3318030" lon="-3.5439680">
        <ele>540.8</ele>
        <time>2021-04-04T11:41:04Z</time>
      </trkpt>
      <trkpt lat="40.3318190" lon="-3.5438890">
        <ele>540.8</ele>
        <time>2021-04-04T11:41:05Z</time>
      </trkpt>
      <trkpt lat="40.3318160" lon="-3.5438070">
        <ele>540.7</ele>
        <time>2021-04-04T11:41:06Z</time>
      </trkpt>
      <trkpt lat="40.3318290" lon="-3.5437180">
        <ele>540.6</ele>
        <time>2021-04-04T11:41:07Z</time>
      </trkpt>
      <trkpt lat="40.3318440" lon="-3.5436160">
        <ele>540.6</ele>
        <time>2021-04-04T11:41:08Z</time>
      </trkpt>
      <trkpt lat="40.3318430" lon="-3.5435210">
        <ele>540.5</ele>
        <time>2021-04-04T11:41:09Z</time>
      </trkpt>
      <trkpt lat="40.3318500" lon="-3.5434200">
        <ele>540.4</ele>
        <time>2021-04-04T11:41:10Z</time>
      </trkpt>
      <trkpt lat="40.3318580" lon="-3.5433290">
        <ele>540.4</ele>
        <time>2021-04-04T11:41:11Z</time>
      </trkpt>
      <trkpt lat="40.3318580" lon="-3.5432340">
        <ele>540.3</ele>
        <time>2021-04-04T11:41:12Z</time>
      </trkpt>
      <trkpt lat="40.3318520" lon="-3.5431370">
        <ele>540.3</ele>
        <time>2021-04-04T11:41:13Z</time>
      </trkpt>
      <trkpt lat="40.3318780" lon="-3.5430280">
        <ele>540.2</ele>
        <time>2021-04-04T11:41:14Z</time>
      </trkpt>
      <trkpt lat="40.3319070" lon="-3.5429160">
        <ele>540.2</ele>
        <time>2021-04-04T11:41:15Z</time>
      </trkpt>
      <trkpt lat="40.3319210" lon="-3.5427970">
        <ele>540.2</ele>
        <time>2021-04-04T11:41:16Z</time>
      </trkpt>
      <trkpt lat="40.3319690" lon="-3.5426720">
        <ele>540.2</ele>
        <time>2021-04-04T11:41:17Z</time>
      </trkpt>
      <trkpt lat="40.3320110" lon="-3.5425380">
        <ele>540.3</ele>
        <time>2021-04-04T11:41:18Z</time>
      </trkpt>
      <trkpt lat="40.3319960" lon="-3.5424720">
        <ele>540.3</ele>
        <time>2021-04-04T11:41:19Z</time>
      </trkpt>
      <trkpt lat="40.3320000" lon="-3.5423860">
        <ele>540.3</ele>
        <time>2021-04-04T11:41:20Z</time>
      </trkpt>
      <trkpt lat="40.3320470" lon="-3.5422770">
        <ele>540.4</ele>
        <time>2021-04-04T11:41:21Z</time>
      </trkpt>
      <trkpt lat="40.3320690" lon="-3.5422020">
        <ele>540.4</ele>
        <time>2021-04-04T11:41:22Z</time>
      </trkpt>
      <trkpt lat="40.3321020" lon="-3.5421180">
        <ele>540.4</ele>
        <time>2021-04-04T11:41:23Z</time>
      </trkpt>
      <trkpt lat="40.3321270" lon="-3.5420190">
        <ele>540.5</ele>
        <time>2021-04-04T11:41:24Z</time>
      </trkpt>
      <trkpt lat="40.3321190" lon="-3.5419190">
        <ele>540.6</ele>
        <time>2021-04-04T11:41:25Z</time>
      </trkpt>
      <trkpt lat="40.3321560" lon="-3.5418350">
        <ele>540.6</ele>
        <time>2021-04-04T11:41:26Z</time>
      </trkpt>
      <trkpt lat="40.3321790" lon="-3.5417380">
        <ele>540.7</ele>
        <time>2021-04-04T11:41:27Z</time>
      </trkpt>
      <trkpt lat="40.3321810" lon="-3.5416650">
        <ele>540.8</ele>
        <time>2021-04-04T11:41:28Z</time>
      </trkpt>
      <trkpt lat="40.3321920" lon="-3.5415660">
        <ele>540.8</ele>
        <time>2021-04-04T11:41:29Z</time>
      </trkpt>
      <trkpt lat="40.3322020" lon="-3.5414790">
        <ele>540.9</ele>
        <time>2021-04-04T11:41:30Z</time>
      </trkpt>
      <trkpt lat="40.3322140" lon="-3.5414040">
        <ele>540.9</ele>
        <time>2021-04-04T11:41:31Z</time>
      </trkpt>
      <trkpt lat="40.3322120" lon="-3.5413230">
        <ele>540.9</ele>
        <time>2021-04-04T11:41:32Z</time>
      </trkpt>
      <trkpt lat="40.3322410" lon="-3.5412380">
        <ele>540.9</ele>
        <time>2021-04-04T11:41:33Z</time>
      </trkpt>
      <trkpt lat="40.3322460" lon="-3.5411430">
        <ele>540.9</ele>
        <time>2021-04-04T11:41:34Z</time>
      </trkpt>
      <trkpt lat="40.3322620" lon="-3.5410890">
        <ele>540.9</ele>
        <time>2021-04-04T11:41:35Z</time>
      </trkpt>
      <trkpt lat="40.3322970" lon="-3.5409960">
        <ele>540.9</ele>
        <time>2021-04-04T11:41:36Z</time>
      </trkpt>
      <trkpt lat="40.3322870" lon="-3.5409330">
        <ele>540.8</ele>
        <time>2021-04-04T11:41:37Z</time>
      </trkpt>
      <trkpt lat="40.3322960" lon="-3.5408550">
        <ele>540.8</ele>
        <time>2021-04-04T11:41:38Z</time>
      </trkpt>
      <trkpt lat="40.3322960" lon="-3.5407670">
        <ele>540.8</ele>
        <time>2021-04-04T11:41:39Z</time>
      </trkpt>
      <trkpt lat="40.3323070" lon="-3.5406890">
        <ele>540.8</ele>
        <time>2021-04-04T11:41:40Z</time>
      </trkpt>
      <trkpt lat="40.3323400" lon="-3.5405960">
        <ele>540.8</ele>
        <time>2021-04-04T11:41:41Z</time>
      </trkpt>
      <trkpt lat="40.3323350" lon="-3.5405280">
        <ele>540.7</ele>
        <time>2021-04-04T11:41:42Z</time>
      </trkpt>
      <trkpt lat="40.3323270" lon="-3.5404520">
        <ele>540.7</ele>
        <time>2021-04-04T11:41:43Z</time>
      </trkpt>
      <trkpt lat="40.3323520" lon="-3.5403790">
        <ele>540.7</ele>
        <time>2021-04-04T11:41:44Z</time>
      </trkpt>
      <trkpt lat="40.3323540" lon="-3.5402980">
        <ele>540.7</ele>
        <time>2021-04-04T11:41:45Z</time>
      </trkpt>
      <trkpt lat="40.3323550" lon="-3.5402260">
        <ele>540.6</ele>
        <time>2021-04-04T11:41:46Z</time>
      </trkpt>
      <trkpt lat="40.3323600" lon="-3.5401380">
        <ele>540.6</ele>
        <time>2021-04-04T11:41:47Z</time>
      </trkpt>
      <trkpt lat="40.3323350" lon="-3.5400810">
        <ele>540.6</ele>
        <time>2021-04-04T11:41:48Z</time>
      </trkpt>
      <trkpt lat="40.3323530" lon="-3.5399980">
        <ele>540.5</ele>
        <time>2021-04-04T11:41:49Z</time>
      </trkpt>
      <trkpt lat="40.3323500" lon="-3.5399100">
        <ele>540.5</ele>
        <time>2021-04-04T11:41:50Z</time>
      </trkpt>
      <trkpt lat="40.3323720" lon="-3.5397880">
        <ele>540.5</ele>
        <time>2021-04-04T11:41:51Z</time>
      </trkpt>
      <trkpt lat="40.3323870" lon="-3.5396890">
        <ele>540.5</ele>
        <time>2021-04-04T11:41:52Z</time>
      </trkpt>
      <trkpt lat="40.3324090" lon="-3.5396080">
        <ele>540.4</ele>
        <time>2021-04-04T11:41:53Z</time>
      </trkpt>
      <trkpt lat="40.3324210" lon="-3.5395200">
        <ele>540.4</ele>
        <time>2021-04-04T11:41:54Z</time>
      </trkpt>
      <trkpt lat="40.3324280" lon="-3.5394310">
        <ele>540.4</ele>
        <time>2021-04-04T11:41:55Z</time>
      </trkpt>
      <trkpt lat="40.3324440" lon="-3.5393440">
        <ele>540.4</ele>
        <time>2021-04-04T11:41:56Z</time>
      </trkpt>
      <trkpt lat="40.3324560" lon="-3.5392710">
        <ele>540.3</ele>
        <time>2021-04-04T11:41:57Z</time>
      </trkpt>
      <trkpt lat="40.3324580" lon="-3.5391960">
        <ele>540.3</ele>
        <time>2021-04-04T11:41:58Z</time>
      </trkpt>
      <trkpt lat="40.3324880" lon="-3.5391000">
        <ele>540.4</ele>
        <time>2021-04-04T11:41:59Z</time>
      </trkpt>
      <trkpt lat="40.3324890" lon="-3.5390360">
        <ele>540.4</ele>
        <time>2021-04-04T11:42:00Z</time>
      </trkpt>
      <trkpt lat="40.3325090" lon="-3.5389450">
        <ele>540.5</ele>
        <time>2021-04-04T11:42:01Z</time>
      </trkpt>
      <trkpt lat="40.3325300" lon="-3.5388490">
        <ele>540.6</ele>
        <time>2021-04-04T11:42:02Z</time>
      </trkpt>
      <trkpt lat="40.3325520" lon="-3.5387350">
        <ele>540.7</ele>
        <time>2021-04-04T11:42:03Z</time>
      </trkpt>
      <trkpt lat="40.3325550" lon="-3.5386650">
        <ele>540.8</ele>
        <time>2021-04-04T11:42:04Z</time>
      </trkpt>
      <trkpt lat="40.3325700" lon="-3.5385820">
        <ele>540.9</ele>
        <time>2021-04-04T11:42:05Z</time>
      </trkpt>
      <trkpt lat="40.3325690" lon="-3.5384970">
        <ele>540.8</ele>
        <time>2021-04-04T11:42:06Z</time>
      </trkpt>
      <trkpt lat="40.3325690" lon="-3.5384130">
        <ele>540.8</ele>
        <time>2021-04-04T11:42:07Z</time>
      </trkpt>
      <trkpt lat="40.3325760" lon="-3.5383580">
        <ele>540.7</ele>
        <time>2021-04-04T11:42:08Z</time>
      </trkpt>
      <trkpt lat="40.3326070" lon="-3.5382840">
        <ele>540.6</ele>
        <time>2021-04-04T11:42:09Z</time>
      </trkpt>
      <trkpt lat="40.3326200" lon="-3.5382110">
        <ele>540.5</ele>
        <time>2021-04-04T11:42:10Z</time>
      </trkpt>
      <trkpt lat="40.3326270" lon="-3.5381160">
        <ele>540.3</ele>
        <time>2021-04-04T11:42:11Z</time>
      </trkpt>
      <trkpt lat="40.3326280" lon="-3.5380320">
        <ele>540.2</ele>
        <time>2021-04-04T11:42:12Z</time>
      </trkpt>
      <trkpt lat="40.3326360" lon="-3.5379450">
        <ele>540.2</ele>
        <time>2021-04-04T11:42:13Z</time>
      </trkpt>
      <trkpt lat="40.3326520" lon="-3.5378610">
        <ele>540.1</ele>
        <time>2021-04-04T11:42:14Z</time>
      </trkpt>
      <trkpt lat="40.3326730" lon="-3.5377650">
        <ele>540.0</ele>
        <time>2021-04-04T11:42:15Z</time>
      </trkpt>
      <trkpt lat="40.3326840" lon="-3.5376730">
        <ele>540.0</ele>
        <time>2021-04-04T11:42:16Z</time>
      </trkpt>
      <trkpt lat="40.3327090" lon="-3.5375910">
        <ele>539.9</ele>
        <time>2021-04-04T11:42:17Z</time>
      </trkpt>
      <trkpt lat="40.3327270" lon="-3.5375140">
        <ele>539.9</ele>
        <time>2021-04-04T11:42:18Z</time>
      </trkpt>
      <trkpt lat="40.3327430" lon="-3.5374320">
        <ele>539.9</ele>
        <time>2021-04-04T11:42:19Z</time>
      </trkpt>
      <trkpt lat="40.3327650" lon="-3.5373400">
        <ele>539.8</ele>
        <time>2021-04-04T11:42:20Z</time>
      </trkpt>
      <trkpt lat="40.3327800" lon="-3.5372380">
        <ele>539.8</ele>
        <time>2021-04-04T11:42:21Z</time>
      </trkpt>
      <trkpt lat="40.3327870" lon="-3.5371440">
        <ele>539.8</ele>
        <time>2021-04-04T11:42:22Z</time>
      </trkpt>
      <trkpt lat="40.3327940" lon="-3.5370640">
        <ele>539.8</ele>
        <time>2021-04-04T11:42:23Z</time>
      </trkpt>
      <trkpt lat="40.3327930" lon="-3.5369970">
        <ele>539.8</ele>
        <time>2021-04-04T11:42:24Z</time>
      </trkpt>
      <trkpt lat="40.3328130" lon="-3.5369110">
        <ele>539.9</ele>
        <time>2021-04-04T11:42:25Z</time>
      </trkpt>
      <trkpt lat="40.3328210" lon="-3.5368290">
        <ele>540.0</ele>
        <time>2021-04-04T11:42:26Z</time>
      </trkpt>
      <trkpt lat="40.3328630" lon="-3.5367420">
        <ele>540.1</ele>
        <time>2021-04-04T11:42:27Z</time>
      </trkpt>
      <trkpt lat="40.3328710" lon="-3.5366690">
        <ele>540.2</ele>
        <time>2021-04-04T11:42:28Z</time>
      </trkpt>
      <trkpt lat="40.3328730" lon="-3.5365860">
        <ele>540.3</ele>
        <time>2021-04-04T11:42:29Z</time>
      </trkpt>
      <trkpt lat="40.3328770" lon="-3.5365050">
        <ele>540.3</ele>
        <time>2021-04-04T11:42:30Z</time>
      </trkpt>
      <trkpt lat="40.3328980" lon="-3.5364220">
        <ele>540.4</ele>
        <time>2021-04-04T11:42:31Z</time>
      </trkpt>
      <trkpt lat="40.3329050" lon="-3.5363410">
        <ele>540.4</ele>
        <time>2021-04-04T11:42:32Z</time>
      </trkpt>
      <trkpt lat="40.3329210" lon="-3.5361950">
        <ele>540.4</ele>
        <time>2021-04-04T11:42:33Z</time>
      </trkpt>
      <trkpt lat="40.3328990" lon="-3.5361410">
        <ele>540.5</ele>
        <time>2021-04-04T11:42:34Z</time>
      </trkpt>
      <trkpt lat="40.3328390" lon="-3.5361290">
        <ele>540.6</ele>
        <time>2021-04-04T11:42:35Z</time>
      </trkpt>
      <trkpt lat="40.3328000" lon="-3.5360960">
        <ele>540.6</ele>
        <time>2021-04-04T11:42:36Z</time>
      </trkpt>
      <trkpt lat="40.3327800" lon="-3.5360510">
        <ele>540.8</ele>
        <time>2021-04-04T11:42:37Z</time>
      </trkpt>
      <trkpt lat="40.3327400" lon="-3.5360090">
        <ele>540.9</ele>
        <time>2021-04-04T11:42:38Z</time>
      </trkpt>
      <trkpt lat="40.3327180" lon="-3.5359920">
        <ele>540.9</ele>
        <time>2021-04-04T11:42:39Z</time>
      </trkpt>
      <trkpt lat="40.3326540" lon="-3.5359880">
        <ele>540.9</ele>
        <time>2021-04-04T11:42:40Z</time>
      </trkpt>
      <trkpt lat="40.3325980" lon="-3.5359880">
        <ele>540.9</ele>
        <time>2021-04-04T11:42:41Z</time>
      </trkpt>
      <trkpt lat="40.3325440" lon="-3.5359720">
        <ele>540.9</ele>
        <time>2021-04-04T11:42:42Z</time>
      </trkpt>
      <trkpt lat="40.3324750" lon="-3.5359720">
        <ele>540.8</ele>
        <time>2021-04-04T11:42:43Z</time>
      </trkpt>
      <trkpt lat="40.3324210" lon="-3.5359690">
        <ele>540.7</ele>
        <time>2021-04-04T11:42:44Z</time>
      </trkpt>
      <trkpt lat="40.3323640" lon="-3.5359020">
        <ele>540.9</ele>
        <time>2021-04-04T11:42:45Z</time>
      </trkpt>
      <trkpt lat="40.3323040" lon="-3.5358830">
        <ele>540.8</ele>
        <time>2021-04-04T11:42:46Z</time>
      </trkpt>
      <trkpt lat="40.3322540" lon="-3.5358710">
        <ele>540.8</ele>
        <time>2021-04-04T11:42:47Z</time>
      </trkpt>
      <trkpt lat="40.3322060" lon="-3.5358780">
        <ele>540.7</ele>
        <time>2021-04-04T11:42:48Z</time>
      </trkpt>
      <trkpt lat="40.3321640" lon="-3.5358030">
        <ele>540.7</ele>
        <time>2021-04-04T11:42:49Z</time>
      </trkpt>
      <trkpt lat="40.3321170" lon="-3.5357150">
        <ele>540.6</ele>
        <time>2021-04-04T11:42:50Z</time>
      </trkpt>
      <trkpt lat="40.3320850" lon="-3.5356640">
        <ele>540.6</ele>
        <time>2021-04-04T11:42:51Z</time>
      </trkpt>
      <trkpt lat="40.3320500" lon="-3.5355920">
        <ele>540.6</ele>
        <time>2021-04-04T11:42:52Z</time>
      </trkpt>
      <trkpt lat="40.3320300" lon="-3.5355190">
        <ele>540.7</ele>
        <time>2021-04-04T11:42:53Z</time>
      </trkpt>
      <trkpt lat="40.3320040" lon="-3.5354430">
        <ele>540.6</ele>
        <time>2021-04-04T11:42:54Z</time>
      </trkpt>
      <trkpt lat="40.3319780" lon="-3.5353850">
        <ele>540.5</ele>
        <time>2021-04-04T11:42:55Z</time>
      </trkpt>
      <trkpt lat="40.3319560" lon="-3.5353200">
        <ele>540.5</ele>
        <time>2021-04-04T11:42:56Z</time>
      </trkpt>
      <trkpt lat="40.3319460" lon="-3.5352670">
        <ele>540.3</ele>
        <time>2021-04-04T11:42:57Z</time>
      </trkpt>
      <trkpt lat="40.3319500" lon="-3.5351870">
        <ele>540.3</ele>
        <time>2021-04-04T11:42:58Z</time>
      </trkpt>
      <trkpt lat="40.3319260" lon="-3.5351280">
        <ele>540.3</ele>
        <time>2021-04-04T11:42:59Z</time>
      </trkpt>
      <trkpt lat="40.3319010" lon="-3.5350370">
        <ele>540.2</ele>
        <time>2021-04-04T11:43:00Z</time>
      </trkpt>
      <trkpt lat="40.3318820" lon="-3.5349540">
        <ele>540.2</ele>
        <time>2021-04-04T11:43:01Z</time>
      </trkpt>
      <trkpt lat="40.3318570" lon="-3.5348870">
        <ele>540.3</ele>
        <time>2021-04-04T11:43:02Z</time>
      </trkpt>
      <trkpt lat="40.3318300" lon="-3.5348220">
        <ele>540.2</ele>
        <time>2021-04-04T11:43:03Z</time>
      </trkpt>
      <trkpt lat="40.3318090" lon="-3.5347590">
        <ele>540.3</ele>
        <time>2021-04-04T11:43:04Z</time>
      </trkpt>
      <trkpt lat="40.3317860" lon="-3.5346700">
        <ele>540.3</ele>
        <time>2021-04-04T11:43:05Z</time>
      </trkpt>
      <trkpt lat="40.3317820" lon="-3.5345980">
        <ele>540.4</ele>
        <time>2021-04-04T11:43:06Z</time>
      </trkpt>
      <trkpt lat="40.3317630" lon="-3.5344910">
        <ele>540.7</ele>
        <time>2021-04-04T11:43:07Z</time>
      </trkpt>
      <trkpt lat="40.3317420" lon="-3.5344140">
        <ele>540.9</ele>
        <time>2021-04-04T11:43:08Z</time>
      </trkpt>
      <trkpt lat="40.3317240" lon="-3.5343230">
        <ele>541.1</ele>
        <time>2021-04-04T11:43:09Z</time>
      </trkpt>
      <trkpt lat="40.3317040" lon="-3.5342490">
        <ele>541.3</ele>
        <time>2021-04-04T11:43:10Z</time>
      </trkpt>
      <trkpt lat="40.3316800" lon="-3.5341910">
        <ele>541.4</ele>
        <time>2021-04-04T11:43:11Z</time>
      </trkpt>
      <trkpt lat="40.3316710" lon="-3.5341320">
        <ele>541.5</ele>
        <time>2021-04-04T11:43:12Z</time>
      </trkpt>
      <trkpt lat="40.3316400" lon="-3.5340550">
        <ele>541.7</ele>
        <time>2021-04-04T11:43:13Z</time>
      </trkpt>
      <trkpt lat="40.3316140" lon="-3.5339810">
        <ele>541.8</ele>
        <time>2021-04-04T11:43:14Z</time>
      </trkpt>
      <trkpt lat="40.3315930" lon="-3.5338920">
        <ele>541.8</ele>
        <time>2021-04-04T11:43:15Z</time>
      </trkpt>
      <trkpt lat="40.3315760" lon="-3.5338120">
        <ele>541.9</ele>
        <time>2021-04-04T11:43:16Z</time>
      </trkpt>
      <trkpt lat="40.3315490" lon="-3.5337490">
        <ele>541.9</ele>
        <time>2021-04-04T11:43:17Z</time>
      </trkpt>
      <trkpt lat="40.3315410" lon="-3.5336570">
        <ele>542.0</ele>
        <time>2021-04-04T11:43:18Z</time>
      </trkpt>
      <trkpt lat="40.3315260" lon="-3.5335850">
        <ele>542.0</ele>
        <time>2021-04-04T11:43:19Z</time>
      </trkpt>
      <trkpt lat="40.3315070" lon="-3.5334970">
        <ele>542.0</ele>
        <time>2021-04-04T11:43:20Z</time>
      </trkpt>
      <trkpt lat="40.3314860" lon="-3.5334310">
        <ele>542.0</ele>
        <time>2021-04-04T11:43:21Z</time>
      </trkpt>
      <trkpt lat="40.3314600" lon="-3.5333530">
        <ele>541.9</ele>
        <time>2021-04-04T11:43:22Z</time>
      </trkpt>
      <trkpt lat="40.3314340" lon="-3.5332920">
        <ele>542.0</ele>
        <time>2021-04-04T11:43:23Z</time>
      </trkpt>
      <trkpt lat="40.3314190" lon="-3.5332090">
        <ele>542.0</ele>
        <time>2021-04-04T11:43:24Z</time>
      </trkpt>
      <trkpt lat="40.3313970" lon="-3.5331270">
        <ele>541.9</ele>
        <time>2021-04-04T11:43:25Z</time>
      </trkpt>
      <trkpt lat="40.3313760" lon="-3.5330710">
        <ele>541.9</ele>
        <time>2021-04-04T11:43:26Z</time>
      </trkpt>
      <trkpt lat="40.3313540" lon="-3.5330080">
        <ele>541.9</ele>
        <time>2021-04-04T11:43:27Z</time>
      </trkpt>
      <trkpt lat="40.3313390" lon="-3.5329190">
        <ele>541.8</ele>
        <time>2021-04-04T11:43:28Z</time>
      </trkpt>
      <trkpt lat="40.3313170" lon="-3.5328290">
        <ele>541.8</ele>
        <time>2021-04-04T11:43:29Z</time>
      </trkpt>
      <trkpt lat="40.3312930" lon="-3.5327440">
        <ele>541.7</ele>
        <time>2021-04-04T11:43:30Z</time>
      </trkpt>
      <trkpt lat="40.3312690" lon="-3.5326710">
        <ele>541.7</ele>
        <time>2021-04-04T11:43:31Z</time>
      </trkpt>
      <trkpt lat="40.3312530" lon="-3.5325880">
        <ele>541.7</ele>
        <time>2021-04-04T11:43:32Z</time>
      </trkpt>
      <trkpt lat="40.3312440" lon="-3.5325100">
        <ele>541.7</ele>
        <time>2021-04-04T11:43:33Z</time>
      </trkpt>
      <trkpt lat="40.3312310" lon="-3.5324490">
        <ele>541.8</ele>
        <time>2021-04-04T11:43:34Z</time>
      </trkpt>
      <trkpt lat="40.3312140" lon="-3.5323710">
        <ele>541.8</ele>
        <time>2021-04-04T11:43:35Z</time>
      </trkpt>
      <trkpt lat="40.3311940" lon="-3.5322960">
        <ele>541.8</ele>
        <time>2021-04-04T11:43:36Z</time>
      </trkpt>
      <trkpt lat="40.3311590" lon="-3.5322450">
        <ele>541.9</ele>
        <time>2021-04-04T11:43:37Z</time>
      </trkpt>
      <trkpt lat="40.3311390" lon="-3.5321450">
        <ele>541.9</ele>
        <time>2021-04-04T11:43:38Z</time>
      </trkpt>
      <trkpt lat="40.3311040" lon="-3.5320630">
        <ele>542.0</ele>
        <time>2021-04-04T11:43:39Z</time>
      </trkpt>
      <trkpt lat="40.3310870" lon="-3.5319580">
        <ele>542.0</ele>
        <time>2021-04-04T11:43:40Z</time>
      </trkpt>
      <trkpt lat="40.3310570" lon="-3.5318970">
        <ele>542.0</ele>
        <time>2021-04-04T11:43:41Z</time>
      </trkpt>
      <trkpt lat="40.3310240" lon="-3.5318300">
        <ele>542.1</ele>
        <time>2021-04-04T11:43:42Z</time>
      </trkpt>
      <trkpt lat="40.3309980" lon="-3.5317640">
        <ele>542.1</ele>
        <time>2021-04-04T11:43:43Z</time>
      </trkpt>
      <trkpt lat="40.3309740" lon="-3.5316870">
        <ele>542.1</ele>
        <time>2021-04-04T11:43:44Z</time>
      </trkpt>
      <trkpt lat="40.3309480" lon="-3.5316330">
        <ele>542.2</ele>
        <time>2021-04-04T11:43:45Z</time>
      </trkpt>
      <trkpt lat="40.3309230" lon="-3.5315730">
        <ele>542.2</ele>
        <time>2021-04-04T11:43:46Z</time>
      </trkpt>
      <trkpt lat="40.3308950" lon="-3.5315020">
        <ele>542.3</ele>
        <time>2021-04-04T11:43:47Z</time>
      </trkpt>
      <trkpt lat="40.3308680" lon="-3.5314310">
        <ele>542.3</ele>
        <time>2021-04-04T11:43:48Z</time>
      </trkpt>
      <trkpt lat="40.3308650" lon="-3.5313520">
        <ele>542.3</ele>
        <time>2021-04-04T11:43:49Z</time>
      </trkpt>
      <trkpt lat="40.3308430" lon="-3.5312770">
        <ele>542.4</ele>
        <time>2021-04-04T11:43:50Z</time>
      </trkpt>
      <trkpt lat="40.3308210" lon="-3.5312170">
        <ele>542.4</ele>
        <time>2021-04-04T11:43:51Z</time>
      </trkpt>
      <trkpt lat="40.3307990" lon="-3.5311650">
        <ele>542.4</ele>
        <time>2021-04-04T11:43:52Z</time>
      </trkpt>
      <trkpt lat="40.3307830" lon="-3.5310910">
        <ele>542.4</ele>
        <time>2021-04-04T11:43:53Z</time>
      </trkpt>
      <trkpt lat="40.3307670" lon="-3.5310320">
        <ele>542.3</ele>
        <time>2021-04-04T11:43:54Z</time>
      </trkpt>
      <trkpt lat="40.3307570" lon="-3.5309690">
        <ele>542.3</ele>
        <time>2021-04-04T11:43:55Z</time>
      </trkpt>
      <trkpt lat="40.3307400" lon="-3.5309120">
        <ele>542.3</ele>
        <time>2021-04-04T11:43:56Z</time>
      </trkpt>
      <trkpt lat="40.3307250" lon="-3.5309160">
        <ele>542.3</ele>
        <time>2021-04-04T11:43:57Z</time>
      </trkpt>
      <trkpt lat="40.3307110" lon="-3.5308960">
        <ele>542.2</ele>
        <time>2021-04-04T11:43:58Z</time>
      </trkpt>
      <trkpt lat="40.3306940" lon="-3.5308510">
        <ele>542.1</ele>
        <time>2021-04-04T11:43:59Z</time>
      </trkpt>
      <trkpt lat="40.3306770" lon="-3.5308040">
        <ele>542.0</ele>
        <time>2021-04-04T11:44:00Z</time>
      </trkpt>
      <trkpt lat="40.3306610" lon="-3.5307520">
        <ele>542.0</ele>
        <time>2021-04-04T11:44:01Z</time>
      </trkpt>
      <trkpt lat="40.3306490" lon="-3.5306880">
        <ele>541.9</ele>
        <time>2021-04-04T11:44:02Z</time>
      </trkpt>
      <trkpt lat="40.3306230" lon="-3.5306230">
        <ele>541.7</ele>
        <time>2021-04-04T11:44:03Z</time>
      </trkpt>
      <trkpt lat="40.3305950" lon="-3.5305420">
        <ele>541.4</ele>
        <time>2021-04-04T11:44:04Z</time>
      </trkpt>
      <trkpt lat="40.3305670" lon="-3.5305010">
        <ele>541.2</ele>
        <time>2021-04-04T11:44:05Z</time>
      </trkpt>
      <trkpt lat="40.3305430" lon="-3.5304350">
        <ele>541.0</ele>
        <time>2021-04-04T11:44:06Z</time>
      </trkpt>
      <trkpt lat="40.3305300" lon="-3.5303330">
        <ele>540.7</ele>
        <time>2021-04-04T11:44:07Z</time>
      </trkpt>
      <trkpt lat="40.3305140" lon="-3.5302530">
        <ele>540.5</ele>
        <time>2021-04-04T11:44:08Z</time>
      </trkpt>
      <trkpt lat="40.3305090" lon="-3.5301780">
        <ele>540.5</ele>
        <time>2021-04-04T11:44:09Z</time>
      </trkpt>
      <trkpt lat="40.3304960" lon="-3.5301020">
        <ele>540.4</ele>
        <time>2021-04-04T11:44:10Z</time>
      </trkpt>
      <trkpt lat="40.3304930" lon="-3.5300230">
        <ele>540.3</ele>
        <time>2021-04-04T11:44:11Z</time>
      </trkpt>
      <trkpt lat="40.3304910" lon="-3.5299450">
        <ele>540.3</ele>
        <time>2021-04-04T11:44:12Z</time>
      </trkpt>
      <trkpt lat="40.3304860" lon="-3.5298670">
        <ele>540.3</ele>
        <time>2021-04-04T11:44:13Z</time>
      </trkpt>
      <trkpt lat="40.3305230" lon="-3.5297850">
        <ele>540.4</ele>
        <time>2021-04-04T11:44:14Z</time>
      </trkpt>
      <trkpt lat="40.3305360" lon="-3.5297010">
        <ele>540.5</ele>
        <time>2021-04-04T11:44:15Z</time>
      </trkpt>
      <trkpt lat="40.3305720" lon="-3.5296040">
        <ele>540.6</ele>
        <time>2021-04-04T11:44:16Z</time>
      </trkpt>
      <trkpt lat="40.3305920" lon="-3.5295100">
        <ele>540.7</ele>
        <time>2021-04-04T11:44:17Z</time>
      </trkpt>
      <trkpt lat="40.3305730" lon="-3.5294580">
        <ele>540.7</ele>
        <time>2021-04-04T11:44:18Z</time>
      </trkpt>
      <trkpt lat="40.3305780" lon="-3.5293890">
        <ele>540.7</ele>
        <time>2021-04-04T11:44:19Z</time>
      </trkpt>
      <trkpt lat="40.3305760" lon="-3.5292850">
        <ele>540.7</ele>
        <time>2021-04-04T11:44:20Z</time>
      </trkpt>
      <trkpt lat="40.3305490" lon="-3.5292070">
        <ele>540.7</ele>
        <time>2021-04-04T11:44:21Z</time>
      </trkpt>
      <trkpt lat="40.3305230" lon="-3.5291360">
        <ele>540.8</ele>
        <time>2021-04-04T11:44:22Z</time>
      </trkpt>
      <trkpt lat="40.3305040" lon="-3.5290630">
        <ele>540.8</ele>
        <time>2021-04-04T11:44:23Z</time>
      </trkpt>
      <trkpt lat="40.3304970" lon="-3.5289960">
        <ele>540.9</ele>
        <time>2021-04-04T11:44:24Z</time>
      </trkpt>
      <trkpt lat="40.3304790" lon="-3.5289310">
        <ele>541.0</ele>
        <time>2021-04-04T11:44:25Z</time>
      </trkpt>
      <trkpt lat="40.3304720" lon="-3.5288560">
        <ele>541.1</ele>
        <time>2021-04-04T11:44:26Z</time>
      </trkpt>
      <trkpt lat="40.3304520" lon="-3.5287980">
        <ele>541.2</ele>
        <time>2021-04-04T11:44:27Z</time>
      </trkpt>
      <trkpt lat="40.3304640" lon="-3.5287290">
        <ele>541.3</ele>
        <time>2021-04-04T11:44:28Z</time>
      </trkpt>
      <trkpt lat="40.3304610" lon="-3.5286610">
        <ele>541.5</ele>
        <time>2021-04-04T11:44:29Z</time>
      </trkpt>
      <trkpt lat="40.3304460" lon="-3.5285800">
        <ele>541.6</ele>
        <time>2021-04-04T11:44:30Z</time>
      </trkpt>
      <trkpt lat="40.3304390" lon="-3.5284860">
        <ele>541.8</ele>
        <time>2021-04-04T11:44:31Z</time>
      </trkpt>
      <trkpt lat="40.3304030" lon="-3.5284260">
        <ele>541.8</ele>
        <time>2021-04-04T11:44:32Z</time>
      </trkpt>
      <trkpt lat="40.3303960" lon="-3.5283650">
        <ele>542.0</ele>
        <time>2021-04-04T11:44:33Z</time>
      </trkpt>
      <trkpt lat="40.3304030" lon="-3.5282900">
        <ele>542.1</ele>
        <time>2021-04-04T11:44:34Z</time>
      </trkpt>
      <trkpt lat="40.3304020" lon="-3.5282500">
        <ele>542.2</ele>
        <time>2021-04-04T11:44:35Z</time>
      </trkpt>
      <trkpt lat="40.3304260" lon="-3.5281710">
        <ele>542.4</ele>
        <time>2021-04-04T11:44:36Z</time>
      </trkpt>
      <trkpt lat="40.3304400" lon="-3.5281000">
        <ele>542.6</ele>
        <time>2021-04-04T11:44:37Z</time>
      </trkpt>
      <trkpt lat="40.3304510" lon="-3.5280550">
        <ele>542.7</ele>
        <time>2021-04-04T11:44:38Z</time>
      </trkpt>
      <trkpt lat="40.3304600" lon="-3.5280130">
        <ele>542.7</ele>
        <time>2021-04-04T11:44:39Z</time>
      </trkpt>
      <trkpt lat="40.3304500" lon="-3.5279510">
        <ele>542.7</ele>
        <time>2021-04-04T11:44:40Z</time>
      </trkpt>
      <trkpt lat="40.3304170" lon="-3.5279040">
        <ele>542.7</ele>
        <time>2021-04-04T11:44:41Z</time>
      </trkpt>
      <trkpt lat="40.3303730" lon="-3.5279080">
        <ele>542.7</ele>
        <time>2021-04-04T11:44:42Z</time>
      </trkpt>
      <trkpt lat="40.3303370" lon="-3.5278670">
        <ele>542.7</ele>
        <time>2021-04-04T11:44:43Z</time>
      </trkpt>
      <trkpt lat="40.3302910" lon="-3.5278450">
        <ele>542.6</ele>
        <time>2021-04-04T11:44:44Z</time>
      </trkpt>
      <trkpt lat="40.3302460" lon="-3.5278130">
        <ele>542.6</ele>
        <time>2021-04-04T11:44:45Z</time>
      </trkpt>
      <trkpt lat="40.3302150" lon="-3.5277640">
        <ele>542.6</ele>
        <time>2021-04-04T11:44:46Z</time>
      </trkpt>
      <trkpt lat="40.3301700" lon="-3.5277140">
        <ele>542.5</ele>
        <time>2021-04-04T11:44:47Z</time>
      </trkpt>
      <trkpt lat="40.3301200" lon="-3.5276860">
        <ele>542.5</ele>
        <time>2021-04-04T11:44:48Z</time>
      </trkpt>
      <trkpt lat="40.3300750" lon="-3.5276580">
        <ele>542.5</ele>
        <time>2021-04-04T11:44:49Z</time>
      </trkpt>
      <trkpt lat="40.3300280" lon="-3.5275740">
        <ele>542.4</ele>
        <time>2021-04-04T11:44:50Z</time>
      </trkpt>
      <trkpt lat="40.3299850" lon="-3.5274930">
        <ele>542.3</ele>
        <time>2021-04-04T11:44:51Z</time>
      </trkpt>
      <trkpt lat="40.3299390" lon="-3.5274380">
        <ele>542.3</ele>
        <time>2021-04-04T11:44:52Z</time>
      </trkpt>
      <trkpt lat="40.3298980" lon="-3.5273850">
        <ele>542.2</ele>
        <time>2021-04-04T11:44:53Z</time>
      </trkpt>
      <trkpt lat="40.3298540" lon="-3.5273480">
        <ele>542.2</ele>
        <time>2021-04-04T11:44:54Z</time>
      </trkpt>
      <trkpt lat="40.3298110" lon="-3.5273040">
        <ele>542.2</ele>
        <time>2021-04-04T11:44:55Z</time>
      </trkpt>
      <trkpt lat="40.3297700" lon="-3.5272440">
        <ele>542.2</ele>
        <time>2021-04-04T11:44:56Z</time>
      </trkpt>
      <trkpt lat="40.3297270" lon="-3.5271860">
        <ele>542.2</ele>
        <time>2021-04-04T11:44:57Z</time>
      </trkpt>
      <trkpt lat="40.3296760" lon="-3.5271520">
        <ele>542.2</ele>
        <time>2021-04-04T11:44:58Z</time>
      </trkpt>
      <trkpt lat="40.3296370" lon="-3.5270960">
        <ele>542.2</ele>
        <time>2021-04-04T11:44:59Z</time>
      </trkpt>
      <trkpt lat="40.3296050" lon="-3.5270510">
        <ele>542.2</ele>
        <time>2021-04-04T11:45:00Z</time>
      </trkpt>
      <trkpt lat="40.3295750" lon="-3.5269950">
        <ele>542.2</ele>
        <time>2021-04-04T11:45:01Z</time>
      </trkpt>
      <trkpt lat="40.3295300" lon="-3.5269440">
        <ele>542.1</ele>
        <time>2021-04-04T11:45:02Z</time>
      </trkpt>
      <trkpt lat="40.3294900" lon="-3.5268890">
        <ele>542.1</ele>
        <time>2021-04-04T11:45:03Z</time>
      </trkpt>
      <trkpt lat="40.3294550" lon="-3.5268400">
        <ele>542.1</ele>
        <time>2021-04-04T11:45:04Z</time>
      </trkpt>
      <trkpt lat="40.3294130" lon="-3.5267790">
        <ele>542.1</ele>
        <time>2021-04-04T11:45:05Z</time>
      </trkpt>
      <trkpt lat="40.3293670" lon="-3.5267200">
        <ele>542.1</ele>
        <time>2021-04-04T11:45:06Z</time>
      </trkpt>
      <trkpt lat="40.3293200" lon="-3.5266630">
        <ele>542.1</ele>
        <time>2021-04-04T11:45:07Z</time>
      </trkpt>
      <trkpt lat="40.3292760" lon="-3.5266080">
        <ele>542.0</ele>
        <time>2021-04-04T11:45:08Z</time>
      </trkpt>
      <trkpt lat="40.3292300" lon="-3.5265460">
        <ele>542.0</ele>
        <time>2021-04-04T11:45:09Z</time>
      </trkpt>
      <trkpt lat="40.3291920" lon="-3.5264910">
        <ele>542.0</ele>
        <time>2021-04-04T11:45:10Z</time>
      </trkpt>
      <trkpt lat="40.3291470" lon="-3.5264400">
        <ele>542.0</ele>
        <time>2021-04-04T11:45:11Z</time>
      </trkpt>
      <trkpt lat="40.3291010" lon="-3.5263900">
        <ele>542.0</ele>
        <time>2021-04-04T11:45:12Z</time>
      </trkpt>
      <trkpt lat="40.3290560" lon="-3.5263480">
        <ele>542.0</ele>
        <time>2021-04-04T11:45:13Z</time>
      </trkpt>
      <trkpt lat="40.3290040" lon="-3.5262880">
        <ele>542.0</ele>
        <time>2021-04-04T11:45:14Z</time>
      </trkpt>
      <trkpt lat="40.3289510" lon="-3.5262450">
        <ele>542.0</ele>
        <time>2021-04-04T11:45:15Z</time>
      </trkpt>
      <trkpt lat="40.3288950" lon="-3.5262010">
        <ele>542.0</ele>
        <time>2021-04-04T11:45:16Z</time>
      </trkpt>
      <trkpt lat="40.3288460" lon="-3.5261600">
        <ele>541.9</ele>
        <time>2021-04-04T11:45:17Z</time>
      </trkpt>
      <trkpt lat="40.3287990" lon="-3.5261280">
        <ele>541.9</ele>
        <time>2021-04-04T11:45:18Z</time>
      </trkpt>
      <trkpt lat="40.3287430" lon="-3.5261070">
        <ele>541.8</ele>
        <time>2021-04-04T11:45:19Z</time>
      </trkpt>
      <trkpt lat="40.3286950" lon="-3.5260900">
        <ele>541.7</ele>
        <time>2021-04-04T11:45:20Z</time>
      </trkpt>
      <trkpt lat="40.3286430" lon="-3.5260720">
        <ele>541.6</ele>
        <time>2021-04-04T11:45:21Z</time>
      </trkpt>
      <trkpt lat="40.3285910" lon="-3.5260520">
        <ele>541.5</ele>
        <time>2021-04-04T11:45:22Z</time>
      </trkpt>
      <trkpt lat="40.3285310" lon="-3.5260370">
        <ele>541.4</ele>
        <time>2021-04-04T11:45:23Z</time>
      </trkpt>
      <trkpt lat="40.3284730" lon="-3.5260140">
        <ele>541.2</ele>
        <time>2021-04-04T11:45:24Z</time>
      </trkpt>
      <trkpt lat="40.3284160" lon="-3.5259960">
        <ele>541.1</ele>
        <time>2021-04-04T11:45:25Z</time>
      </trkpt>
      <trkpt lat="40.3283630" lon="-3.5259660">
        <ele>541.0</ele>
        <time>2021-04-04T11:45:26Z</time>
      </trkpt>
      <trkpt lat="40.3283090" lon="-3.5259210">
        <ele>540.9</ele>
        <time>2021-04-04T11:45:27Z</time>
      </trkpt>
      <trkpt lat="40.3282550" lon="-3.5258870">
        <ele>540.8</ele>
        <time>2021-04-04T11:45:28Z</time>
      </trkpt>
      <trkpt lat="40.3281970" lon="-3.5258350">
        <ele>540.7</ele>
        <time>2021-04-04T11:45:29Z</time>
      </trkpt>
      <trkpt lat="40.3281390" lon="-3.5257840">
        <ele>540.6</ele>
        <time>2021-04-04T11:45:30Z</time>
      </trkpt>
      <trkpt lat="40.3280880" lon="-3.5257420">
        <ele>540.5</ele>
        <time>2021-04-04T11:45:31Z</time>
      </trkpt>
      <trkpt lat="40.3280390" lon="-3.5257070">
        <ele>540.4</ele>
        <time>2021-04-04T11:45:32Z</time>
      </trkpt>
      <trkpt lat="40.3279910" lon="-3.5256630">
        <ele>540.3</ele>
        <time>2021-04-04T11:45:33Z</time>
      </trkpt>
      <trkpt lat="40.3279360" lon="-3.5256010">
        <ele>540.2</ele>
        <time>2021-04-04T11:45:34Z</time>
      </trkpt>
      <trkpt lat="40.3278930" lon="-3.5255310">
        <ele>540.1</ele>
        <time>2021-04-04T11:45:35Z</time>
      </trkpt>
      <trkpt lat="40.3278410" lon="-3.5254680">
        <ele>540.0</ele>
        <time>2021-04-04T11:45:36Z</time>
      </trkpt>
      <trkpt lat="40.3277920" lon="-3.5254180">
        <ele>539.9</ele>
        <time>2021-04-04T11:45:37Z</time>
      </trkpt>
      <trkpt lat="40.3277510" lon="-3.5253580">
        <ele>539.8</ele>
        <time>2021-04-04T11:45:38Z</time>
      </trkpt>
      <trkpt lat="40.3276970" lon="-3.5252840">
        <ele>539.8</ele>
        <time>2021-04-04T11:45:39Z</time>
      </trkpt>
      <trkpt lat="40.3276490" lon="-3.5252390">
        <ele>539.7</ele>
        <time>2021-04-04T11:45:40Z</time>
      </trkpt>
      <trkpt lat="40.3276040" lon="-3.5251850">
        <ele>539.7</ele>
        <time>2021-04-04T11:45:41Z</time>
      </trkpt>
      <trkpt lat="40.3275470" lon="-3.5251430">
        <ele>539.6</ele>
        <time>2021-04-04T11:45:42Z</time>
      </trkpt>
      <trkpt lat="40.3275000" lon="-3.5250900">
        <ele>539.6</ele>
        <time>2021-04-04T11:45:43Z</time>
      </trkpt>
      <trkpt lat="40.3274450" lon="-3.5250550">
        <ele>539.5</ele>
        <time>2021-04-04T11:45:44Z</time>
      </trkpt>
      <trkpt lat="40.3273980" lon="-3.5249890">
        <ele>539.5</ele>
        <time>2021-04-04T11:45:45Z</time>
      </trkpt>
      <trkpt lat="40.3273520" lon="-3.5249580">
        <ele>539.4</ele>
        <time>2021-04-04T11:45:46Z</time>
      </trkpt>
      <trkpt lat="40.3273250" lon="-3.5249210">
        <ele>539.4</ele>
        <time>2021-04-04T11:45:47Z</time>
      </trkpt>
      <trkpt lat="40.3272790" lon="-3.5248640">
        <ele>539.3</ele>
        <time>2021-04-04T11:45:48Z</time>
      </trkpt>
      <trkpt lat="40.3272260" lon="-3.5248520">
        <ele>539.3</ele>
        <time>2021-04-04T11:45:49Z</time>
      </trkpt>
      <trkpt lat="40.3272020" lon="-3.5247620">
        <ele>539.3</ele>
        <time>2021-04-04T11:45:50Z</time>
      </trkpt>
      <trkpt lat="40.3271680" lon="-3.5247070">
        <ele>539.2</ele>
        <time>2021-04-04T11:45:51Z</time>
      </trkpt>
      <trkpt lat="40.3271210" lon="-3.5246500">
        <ele>539.2</ele>
        <time>2021-04-04T11:45:52Z</time>
      </trkpt>
      <trkpt lat="40.3270830" lon="-3.5245890">
        <ele>539.2</ele>
        <time>2021-04-04T11:45:53Z</time>
      </trkpt>
      <trkpt lat="40.3270240" lon="-3.5245290">
        <ele>539.1</ele>
        <time>2021-04-04T11:45:54Z</time>
      </trkpt>
      <trkpt lat="40.3269730" lon="-3.5244510">
        <ele>539.1</ele>
        <time>2021-04-04T11:45:55Z</time>
      </trkpt>
      <trkpt lat="40.3269060" lon="-3.5244180">
        <ele>539.0</ele>
        <time>2021-04-04T11:45:56Z</time>
      </trkpt>
      <trkpt lat="40.3268430" lon="-3.5243710">
        <ele>539.0</ele>
        <time>2021-04-04T11:45:57Z</time>
      </trkpt>
      <trkpt lat="40.3267780" lon="-3.5242970">
        <ele>538.9</ele>
        <time>2021-04-04T11:45:58Z</time>
      </trkpt>
      <trkpt lat="40.3267490" lon="-3.5242220">
        <ele>538.9</ele>
        <time>2021-04-04T11:45:59Z</time>
      </trkpt>
      <trkpt lat="40.3267240" lon="-3.5241830">
        <ele>538.8</ele>
        <time>2021-04-04T11:46:00Z</time>
      </trkpt>
      <trkpt lat="40.3266760" lon="-3.5241400">
        <ele>538.8</ele>
        <time>2021-04-04T11:46:01Z</time>
      </trkpt>
      <trkpt lat="40.3266130" lon="-3.5240660">
        <ele>538.7</ele>
        <time>2021-04-04T11:46:02Z</time>
      </trkpt>
      <trkpt lat="40.3265800" lon="-3.5240010">
        <ele>538.7</ele>
        <time>2021-04-04T11:46:03Z</time>
      </trkpt>
      <trkpt lat="40.3265250" lon="-3.5239560">
        <ele>538.6</ele>
        <time>2021-04-04T11:46:04Z</time>
      </trkpt>
      <trkpt lat="40.3264770" lon="-3.5238930">
        <ele>538.6</ele>
        <time>2021-04-04T11:46:05Z</time>
      </trkpt>
      <trkpt lat="40.3264240" lon="-3.5238430">
        <ele>538.6</ele>
        <time>2021-04-04T11:46:06Z</time>
      </trkpt>
      <trkpt lat="40.3263710" lon="-3.5237760">
        <ele>538.5</ele>
        <time>2021-04-04T11:46:07Z</time>
      </trkpt>
      <trkpt lat="40.3263330" lon="-3.5237160">
        <ele>538.5</ele>
        <time>2021-04-04T11:46:08Z</time>
      </trkpt>
      <trkpt lat="40.3262730" lon="-3.5236700">
        <ele>538.5</ele>
        <time>2021-04-04T11:46:09Z</time>
      </trkpt>
      <trkpt lat="40.3262210" lon="-3.5236200">
        <ele>538.5</ele>
        <time>2021-04-04T11:46:10Z</time>
      </trkpt>
      <trkpt lat="40.3261740" lon="-3.5235750">
        <ele>538.4</ele>
        <time>2021-04-04T11:46:11Z</time>
      </trkpt>
      <trkpt lat="40.3261260" lon="-3.5235090">
        <ele>538.4</ele>
        <time>2021-04-04T11:46:12Z</time>
      </trkpt>
      <trkpt lat="40.3260710" lon="-3.5234700">
        <ele>538.4</ele>
        <time>2021-04-04T11:46:13Z</time>
      </trkpt>
      <trkpt lat="40.3260320" lon="-3.5234140">
        <ele>538.4</ele>
        <time>2021-04-04T11:46:14Z</time>
      </trkpt>
      <trkpt lat="40.3259830" lon="-3.5233740">
        <ele>538.3</ele>
        <time>2021-04-04T11:46:15Z</time>
      </trkpt>
      <trkpt lat="40.3259370" lon="-3.5233320">
        <ele>538.3</ele>
        <time>2021-04-04T11:46:16Z</time>
      </trkpt>
      <trkpt lat="40.3259020" lon="-3.5232620">
        <ele>538.3</ele>
        <time>2021-04-04T11:46:17Z</time>
      </trkpt>
      <trkpt lat="40.3258640" lon="-3.5231980">
        <ele>538.3</ele>
        <time>2021-04-04T11:46:18Z</time>
      </trkpt>
      <trkpt lat="40.3258260" lon="-3.5231400">
        <ele>538.3</ele>
        <time>2021-04-04T11:46:19Z</time>
      </trkpt>
      <trkpt lat="40.3257990" lon="-3.5230630">
        <ele>538.3</ele>
        <time>2021-04-04T11:46:20Z</time>
      </trkpt>
      <trkpt lat="40.3257660" lon="-3.5230010">
        <ele>538.3</ele>
        <time>2021-04-04T11:46:21Z</time>
      </trkpt>
      <trkpt lat="40.3257270" lon="-3.5229130">
        <ele>538.3</ele>
        <time>2021-04-04T11:46:22Z</time>
      </trkpt>
      <trkpt lat="40.3257000" lon="-3.5228590">
        <ele>538.3</ele>
        <time>2021-04-04T11:46:23Z</time>
      </trkpt>
      <trkpt lat="40.3256640" lon="-3.5227770">
        <ele>538.3</ele>
        <time>2021-04-04T11:46:24Z</time>
      </trkpt>
      <trkpt lat="40.3256900" lon="-3.5227260">
        <ele>538.3</ele>
        <time>2021-04-04T11:46:25Z</time>
      </trkpt>
      <trkpt lat="40.3256660" lon="-3.5226070">
        <ele>538.4</ele>
        <time>2021-04-04T11:46:26Z</time>
      </trkpt>
      <trkpt lat="40.3256390" lon="-3.5225220">
        <ele>538.5</ele>
        <time>2021-04-04T11:46:27Z</time>
      </trkpt>
      <trkpt lat="40.3256590" lon="-3.5224490">
        <ele>538.5</ele>
        <time>2021-04-04T11:46:28Z</time>
      </trkpt>
      <trkpt lat="40.3256870" lon="-3.5223730">
        <ele>538.6</ele>
        <time>2021-04-04T11:46:29Z</time>
      </trkpt>
      <trkpt lat="40.3256880" lon="-3.5223090">
        <ele>538.7</ele>
        <time>2021-04-04T11:46:30Z</time>
      </trkpt>
      <trkpt lat="40.3256850" lon="-3.5222290">
        <ele>538.8</ele>
        <time>2021-04-04T11:46:31Z</time>
      </trkpt>
      <trkpt lat="40.3256810" lon="-3.5221780">
        <ele>538.9</ele>
        <time>2021-04-04T11:46:32Z</time>
      </trkpt>
      <trkpt lat="40.3257030" lon="-3.5221310">
        <ele>539.0</ele>
        <time>2021-04-04T11:46:33Z</time>
      </trkpt>
      <trkpt lat="40.3257270" lon="-3.5220800">
        <ele>539.0</ele>
        <time>2021-04-04T11:46:34Z</time>
      </trkpt>
      <trkpt lat="40.3257440" lon="-3.5220190">
        <ele>539.1</ele>
        <time>2021-04-04T11:46:35Z</time>
      </trkpt>
      <trkpt lat="40.3257680" lon="-3.5219570">
        <ele>539.3</ele>
        <time>2021-04-04T11:46:36Z</time>
      </trkpt>
      <trkpt lat="40.3257840" lon="-3.5218830">
        <ele>539.4</ele>
        <time>2021-04-04T11:46:37Z</time>
      </trkpt>
      <trkpt lat="40.3258040" lon="-3.5218380">
        <ele>539.5</ele>
        <time>2021-04-04T11:46:38Z</time>
      </trkpt>
      <trkpt lat="40.3257930" lon="-3.5217810">
        <ele>539.6</ele>
        <time>2021-04-04T11:46:39Z</time>
      </trkpt>
      <trkpt lat="40.3258000" lon="-3.5217360">
        <ele>539.7</ele>
        <time>2021-04-04T11:46:40Z</time>
      </trkpt>
      <trkpt lat="40.3257960" lon="-3.5217160">
        <ele>539.7</ele>
        <time>2021-04-04T11:46:41Z</time>
      </trkpt>
      <trkpt lat="40.3257980" lon="-3.5216690">
        <ele>539.7</ele>
        <time>2021-04-04T11:46:42Z</time>
      </trkpt>
      <trkpt lat="40.3257910" lon="-3.5216510">
        <ele>539.6</ele>
        <time>2021-04-04T11:46:43Z</time>
      </trkpt>
      <trkpt lat="40.3257760" lon="-3.5216150">
        <ele>539.5</ele>
        <time>2021-04-04T11:46:44Z</time>
      </trkpt>
      <trkpt lat="40.3257340" lon="-3.5215490">
        <ele>539.3</ele>
        <time>2021-04-04T11:46:45Z</time>
      </trkpt>
      <trkpt lat="40.3257160" lon="-3.5214920">
        <ele>539.1</ele>
        <time>2021-04-04T11:46:46Z</time>
      </trkpt>
      <trkpt lat="40.3256920" lon="-3.5214140">
        <ele>538.9</ele>
        <time>2021-04-04T11:46:47Z</time>
      </trkpt>
      <trkpt lat="40.3256700" lon="-3.5213380">
        <ele>538.7</ele>
        <time>2021-04-04T11:46:48Z</time>
      </trkpt>
      <trkpt lat="40.3256850" lon="-3.5212470">
        <ele>538.6</ele>
        <time>2021-04-04T11:46:49Z</time>
      </trkpt>
      <trkpt lat="40.3256890" lon="-3.5211700">
        <ele>538.4</ele>
        <time>2021-04-04T11:46:50Z</time>
      </trkpt>
      <trkpt lat="40.3257060" lon="-3.5210920">
        <ele>538.3</ele>
        <time>2021-04-04T11:46:51Z</time>
      </trkpt>
      <trkpt lat="40.3257180" lon="-3.5210050">
        <ele>538.1</ele>
        <time>2021-04-04T11:46:52Z</time>
      </trkpt>
      <trkpt lat="40.3257480" lon="-3.5209200">
        <ele>538.0</ele>
        <time>2021-04-04T11:46:53Z</time>
      </trkpt>
      <trkpt lat="40.3257870" lon="-3.5208350">
        <ele>537.8</ele>
        <time>2021-04-04T11:46:54Z</time>
      </trkpt>
      <trkpt lat="40.3258200" lon="-3.5207660">
        <ele>537.6</ele>
        <time>2021-04-04T11:46:55Z</time>
      </trkpt>
      <trkpt lat="40.3258680" lon="-3.5206980">
        <ele>537.5</ele>
        <time>2021-04-04T11:46:56Z</time>
      </trkpt>
      <trkpt lat="40.3259180" lon="-3.5206270">
        <ele>537.4</ele>
        <time>2021-04-04T11:46:57Z</time>
      </trkpt>
      <trkpt lat="40.3259730" lon="-3.5205460">
        <ele>537.3</ele>
        <time>2021-04-04T11:46:58Z</time>
      </trkpt>
      <trkpt lat="40.3260240" lon="-3.5204780">
        <ele>537.3</ele>
        <time>2021-04-04T11:46:59Z</time>
      </trkpt>
      <trkpt lat="40.3260760" lon="-3.5204130">
        <ele>537.2</ele>
        <time>2021-04-04T11:47:00Z</time>
      </trkpt>
      <trkpt lat="40.3261160" lon="-3.5203440">
        <ele>537.2</ele>
        <time>2021-04-04T11:47:01Z</time>
      </trkpt>
      <trkpt lat="40.3261580" lon="-3.5202710">
        <ele>537.2</ele>
        <time>2021-04-04T11:47:02Z</time>
      </trkpt>
      <trkpt lat="40.3263840" lon="-3.5199160">
        <ele>537.6</ele>
        <time>2021-04-04T11:47:07Z</time>
      </trkpt>
      <trkpt lat="40.3264750" lon="-3.5198780">
        <ele>537.9</ele>
        <time>2021-04-04T11:47:08Z</time>
      </trkpt>
      <trkpt lat="40.3265160" lon="-3.5198010">
        <ele>538.1</ele>
        <time>2021-04-04T11:47:09Z</time>
      </trkpt>
      <trkpt lat="40.3266000" lon="-3.5197700">
        <ele>538.4</ele>
        <time>2021-04-04T11:47:10Z</time>
      </trkpt>
      <trkpt lat="40.3266780" lon="-3.5197970">
        <ele>538.7</ele>
        <time>2021-04-04T11:47:11Z</time>
      </trkpt>
      <trkpt lat="40.3267190" lon="-3.5197860">
        <ele>538.8</ele>
        <time>2021-04-04T11:47:12Z</time>
      </trkpt>
      <trkpt lat="40.3267630" lon="-3.5197870">
        <ele>539.0</ele>
        <time>2021-04-04T11:47:13Z</time>
      </trkpt>
      <trkpt lat="40.3268300" lon="-3.5198160">
        <ele>539.2</ele>
        <time>2021-04-04T11:47:14Z</time>
      </trkpt>
      <trkpt lat="40.3268960" lon="-3.5198480">
        <ele>539.5</ele>
        <time>2021-04-04T11:47:15Z</time>
      </trkpt>
      <trkpt lat="40.3269440" lon="-3.5198790">
        <ele>539.6</ele>
        <time>2021-04-04T11:47:16Z</time>
      </trkpt>
      <trkpt lat="40.3270230" lon="-3.5199340">
        <ele>539.9</ele>
        <time>2021-04-04T11:47:17Z</time>
      </trkpt>
      <trkpt lat="40.3270960" lon="-3.5199520">
        <ele>540.1</ele>
        <time>2021-04-04T11:47:18Z</time>
      </trkpt>
      <trkpt lat="40.3271440" lon="-3.5199810">
        <ele>540.3</ele>
        <time>2021-04-04T11:47:19Z</time>
      </trkpt>
      <trkpt lat="40.3272010" lon="-3.5200280">
        <ele>540.4</ele>
        <time>2021-04-04T11:47:20Z</time>
      </trkpt>
      <trkpt lat="40.3272470" lon="-3.5200690">
        <ele>540.4</ele>
        <time>2021-04-04T11:47:21Z</time>
      </trkpt>
      <trkpt lat="40.3272930" lon="-3.5201270">
        <ele>540.4</ele>
        <time>2021-04-04T11:47:22Z</time>
      </trkpt>
      <trkpt lat="40.3273530" lon="-3.5201830">
        <ele>540.7</ele>
        <time>2021-04-04T11:47:23Z</time>
      </trkpt>
      <trkpt lat="40.3274020" lon="-3.5202220">
        <ele>541.0</ele>
        <time>2021-04-04T11:47:24Z</time>
      </trkpt>
      <trkpt lat="40.3274720" lon="-3.5202340">
        <ele>541.4</ele>
        <time>2021-04-04T11:47:25Z</time>
      </trkpt>
      <trkpt lat="40.3275090" lon="-3.5202550">
        <ele>541.6</ele>
        <time>2021-04-04T11:47:26Z</time>
      </trkpt>
      <trkpt lat="40.3275810" lon="-3.5202610">
        <ele>541.9</ele>
        <time>2021-04-04T11:47:27Z</time>
      </trkpt>
      <trkpt lat="40.3276130" lon="-3.5202680">
        <ele>542.0</ele>
        <time>2021-04-04T11:47:28Z</time>
      </trkpt>
      <trkpt lat="40.3276700" lon="-3.5202350">
        <ele>542.1</ele>
        <time>2021-04-04T11:47:29Z</time>
      </trkpt>
      <trkpt lat="40.3277170" lon="-3.5201780">
        <ele>542.3</ele>
        <time>2021-04-04T11:47:30Z</time>
      </trkpt>
      <trkpt lat="40.3277600" lon="-3.5201490">
        <ele>542.4</ele>
        <time>2021-04-04T11:47:31Z</time>
      </trkpt>
      <trkpt lat="40.3277950" lon="-3.5201080">
        <ele>542.7</ele>
        <time>2021-04-04T11:47:32Z</time>
      </trkpt>
      <trkpt lat="40.3278110" lon="-3.5200650">
        <ele>542.8</ele>
        <time>2021-04-04T11:47:33Z</time>
      </trkpt>
      <trkpt lat="40.3276540" lon="-3.5199460">
        <ele>543.2</ele>
        <time>2021-04-04T11:47:34Z</time>
      </trkpt>
      <trkpt lat="40.3276220" lon="-3.5199310">
        <ele>543.3</ele>
        <time>2021-04-04T11:47:35Z</time>
      </trkpt>
      <trkpt lat="40.3276040" lon="-3.5198800">
        <ele>543.4</ele>
        <time>2021-04-04T11:47:36Z</time>
      </trkpt>
      <trkpt lat="40.3275430" lon="-3.5198490">
        <ele>544.1</ele>
        <time>2021-04-04T11:47:37Z</time>
      </trkpt>
      <trkpt lat="40.3274910" lon="-3.5198090">
        <ele>544.7</ele>
        <time>2021-04-04T11:47:38Z</time>
      </trkpt>
      <trkpt lat="40.3274590" lon="-3.5197890">
        <ele>545.0</ele>
        <time>2021-04-04T11:47:39Z</time>
      </trkpt>
      <trkpt lat="40.3273890" lon="-3.5197370">
        <ele>545.8</ele>
        <time>2021-04-04T11:47:40Z</time>
      </trkpt>
      <trkpt lat="40.3273370" lon="-3.5196680">
        <ele>546.3</ele>
        <time>2021-04-04T11:47:41Z</time>
      </trkpt>
      <trkpt lat="40.3272750" lon="-3.5196320">
        <ele>546.6</ele>
        <time>2021-04-04T11:47:42Z</time>
      </trkpt>
      <trkpt lat="40.3272230" lon="-3.5195810">
        <ele>547.0</ele>
        <time>2021-04-04T11:47:43Z</time>
      </trkpt>
      <trkpt lat="40.3271670" lon="-3.5195660">
        <ele>547.3</ele>
        <time>2021-04-04T11:47:44Z</time>
      </trkpt>
      <trkpt lat="40.3271330" lon="-3.5195360">
        <ele>547.5</ele>
        <time>2021-04-04T11:47:45Z</time>
      </trkpt>
      <trkpt lat="40.3270800" lon="-3.5195140">
        <ele>547.7</ele>
        <time>2021-04-04T11:47:46Z</time>
      </trkpt>
      <trkpt lat="40.3270440" lon="-3.5194720">
        <ele>547.9</ele>
        <time>2021-04-04T11:47:47Z</time>
      </trkpt>
      <trkpt lat="40.3269880" lon="-3.5194440">
        <ele>548.1</ele>
        <time>2021-04-04T11:47:48Z</time>
      </trkpt>
      <trkpt lat="40.3269390" lon="-3.5194280">
        <ele>548.3</ele>
        <time>2021-04-04T11:47:49Z</time>
      </trkpt>
      <trkpt lat="40.3268880" lon="-3.5193790">
        <ele>548.4</ele>
        <time>2021-04-04T11:47:50Z</time>
      </trkpt>
      <trkpt lat="40.3268480" lon="-3.5193430">
        <ele>548.5</ele>
        <time>2021-04-04T11:47:51Z</time>
      </trkpt>
      <trkpt lat="40.3268000" lon="-3.5193050">
        <ele>548.6</ele>
        <time>2021-04-04T11:47:52Z</time>
      </trkpt>
      <trkpt lat="40.3267620" lon="-3.5192670">
        <ele>548.6</ele>
        <time>2021-04-04T11:47:53Z</time>
      </trkpt>
      <trkpt lat="40.3266980" lon="-3.5192410">
        <ele>548.6</ele>
        <time>2021-04-04T11:47:54Z</time>
      </trkpt>
      <trkpt lat="40.3266510" lon="-3.5192410">
        <ele>548.6</ele>
        <time>2021-04-04T11:47:55Z</time>
      </trkpt>
      <trkpt lat="40.3265970" lon="-3.5192150">
        <ele>548.6</ele>
        <time>2021-04-04T11:47:56Z</time>
      </trkpt>
      <trkpt lat="40.3265430" lon="-3.5192050">
        <ele>548.5</ele>
        <time>2021-04-04T11:47:57Z</time>
      </trkpt>
      <trkpt lat="40.3264930" lon="-3.5191520">
        <ele>548.4</ele>
        <time>2021-04-04T11:47:58Z</time>
      </trkpt>
      <trkpt lat="40.3264590" lon="-3.5191090">
        <ele>548.4</ele>
        <time>2021-04-04T11:47:59Z</time>
      </trkpt>
      <trkpt lat="40.3264130" lon="-3.5190820">
        <ele>548.3</ele>
        <time>2021-04-04T11:48:00Z</time>
      </trkpt>
      <trkpt lat="40.3263330" lon="-3.5190440">
        <ele>548.1</ele>
        <time>2021-04-04T11:48:01Z</time>
      </trkpt>
      <trkpt lat="40.3262520" lon="-3.5190090">
        <ele>547.9</ele>
        <time>2021-04-04T11:48:02Z</time>
      </trkpt>
      <trkpt lat="40.3262050" lon="-3.5189530">
        <ele>547.8</ele>
        <time>2021-04-04T11:48:03Z</time>
      </trkpt>
      <trkpt lat="40.3261560" lon="-3.5188860">
        <ele>547.7</ele>
        <time>2021-04-04T11:48:04Z</time>
      </trkpt>
      <trkpt lat="40.3260980" lon="-3.5189080">
        <ele>547.5</ele>
        <time>2021-04-04T11:48:05Z</time>
      </trkpt>
      <trkpt lat="40.3260500" lon="-3.5189250">
        <ele>547.4</ele>
        <time>2021-04-04T11:48:06Z</time>
      </trkpt>
      <trkpt lat="40.3260000" lon="-3.5188650">
        <ele>547.3</ele>
        <time>2021-04-04T11:48:07Z</time>
      </trkpt>
      <trkpt lat="40.3259550" lon="-3.5188430">
        <ele>547.2</ele>
        <time>2021-04-04T11:48:08Z</time>
      </trkpt>
      <trkpt lat="40.3259220" lon="-3.5187940">
        <ele>547.1</ele>
        <time>2021-04-04T11:48:09Z</time>
      </trkpt>
      <trkpt lat="40.3258680" lon="-3.5187450">
        <ele>547.0</ele>
        <time>2021-04-04T11:48:10Z</time>
      </trkpt>
      <trkpt lat="40.3258150" lon="-3.5187130">
        <ele>546.9</ele>
        <time>2021-04-04T11:48:11Z</time>
      </trkpt>
      <trkpt lat="40.3257370" lon="-3.5186650">
        <ele>546.7</ele>
        <time>2021-04-04T11:48:12Z</time>
      </trkpt>
      <trkpt lat="40.3256510" lon="-3.5186280">
        <ele>546.6</ele>
        <time>2021-04-04T11:48:13Z</time>
      </trkpt>
      <trkpt lat="40.3255860" lon="-3.5185720">
        <ele>546.4</ele>
        <time>2021-04-04T11:48:14Z</time>
      </trkpt>
      <trkpt lat="40.3255120" lon="-3.5185290">
        <ele>546.3</ele>
        <time>2021-04-04T11:48:15Z</time>
      </trkpt>
      <trkpt lat="40.3254320" lon="-3.5184630">
        <ele>546.1</ele>
        <time>2021-04-04T11:48:16Z</time>
      </trkpt>
      <trkpt lat="40.3253760" lon="-3.5184290">
        <ele>546.1</ele>
        <time>2021-04-04T11:48:17Z</time>
      </trkpt>
      <trkpt lat="40.3253300" lon="-3.5184130">
        <ele>546.0</ele>
        <time>2021-04-04T11:48:18Z</time>
      </trkpt>
      <trkpt lat="40.3252850" lon="-3.5183580">
        <ele>545.9</ele>
        <time>2021-04-04T11:48:19Z</time>
      </trkpt>
      <trkpt lat="40.3252650" lon="-3.5182730">
        <ele>545.9</ele>
        <time>2021-04-04T11:48:20Z</time>
      </trkpt>
      <trkpt lat="40.3252500" lon="-3.5182050">
        <ele>545.9</ele>
        <time>2021-04-04T11:48:21Z</time>
      </trkpt>
      <trkpt lat="40.3251710" lon="-3.5181390">
        <ele>545.8</ele>
        <time>2021-04-04T11:48:22Z</time>
      </trkpt>
      <trkpt lat="40.3251330" lon="-3.5180830">
        <ele>545.8</ele>
        <time>2021-04-04T11:48:23Z</time>
      </trkpt>
      <trkpt lat="40.3250670" lon="-3.5180310">
        <ele>545.9</ele>
        <time>2021-04-04T11:48:24Z</time>
      </trkpt>
      <trkpt lat="40.3249940" lon="-3.5179820">
        <ele>545.9</ele>
        <time>2021-04-04T11:48:25Z</time>
      </trkpt>
      <trkpt lat="40.3249590" lon="-3.5179380">
        <ele>545.9</ele>
        <time>2021-04-04T11:48:26Z</time>
      </trkpt>
      <trkpt lat="40.3249040" lon="-3.5178740">
        <ele>545.9</ele>
        <time>2021-04-04T11:48:27Z</time>
      </trkpt>
      <trkpt lat="40.3248590" lon="-3.5178280">
        <ele>545.9</ele>
        <time>2021-04-04T11:48:28Z</time>
      </trkpt>
      <trkpt lat="40.3248070" lon="-3.5177600">
        <ele>545.9</ele>
        <time>2021-04-04T11:48:29Z</time>
      </trkpt>
      <trkpt lat="40.3247640" lon="-3.5177020">
        <ele>545.9</ele>
        <time>2021-04-04T11:48:30Z</time>
      </trkpt>
      <trkpt lat="40.3247390" lon="-3.5176310">
        <ele>545.9</ele>
        <time>2021-04-04T11:48:31Z</time>
      </trkpt>
      <trkpt lat="40.3246960" lon="-3.5175820">
        <ele>545.9</ele>
        <time>2021-04-04T11:48:32Z</time>
      </trkpt>
      <trkpt lat="40.3246610" lon="-3.5175590">
        <ele>545.9</ele>
        <time>2021-04-04T11:48:33Z</time>
      </trkpt>
      <trkpt lat="40.3246020" lon="-3.5175050">
        <ele>545.9</ele>
        <time>2021-04-04T11:48:34Z</time>
      </trkpt>
      <trkpt lat="40.3245680" lon="-3.5174580">
        <ele>546.0</ele>
        <time>2021-04-04T11:48:35Z</time>
      </trkpt>
      <trkpt lat="40.3245330" lon="-3.5174080">
        <ele>546.0</ele>
        <time>2021-04-04T11:48:36Z</time>
      </trkpt>
      <trkpt lat="40.3244930" lon="-3.5173680">
        <ele>546.0</ele>
        <time>2021-04-04T11:48:37Z</time>
      </trkpt>
      <trkpt lat="40.3244170" lon="-3.5173150">
        <ele>546.0</ele>
        <time>2021-04-04T11:48:38Z</time>
      </trkpt>
      <trkpt lat="40.3243810" lon="-3.5172700">
        <ele>546.0</ele>
        <time>2021-04-04T11:48:39Z</time>
      </trkpt>
      <trkpt lat="40.3243510" lon="-3.5172170">
        <ele>546.0</ele>
        <time>2021-04-04T11:48:40Z</time>
      </trkpt>
      <trkpt lat="40.3242980" lon="-3.5171630">
        <ele>546.0</ele>
        <time>2021-04-04T11:48:41Z</time>
      </trkpt>
      <trkpt lat="40.3242580" lon="-3.5171200">
        <ele>546.0</ele>
        <time>2021-04-04T11:48:42Z</time>
      </trkpt>
      <trkpt lat="40.3242350" lon="-3.5170700">
        <ele>546.0</ele>
        <time>2021-04-04T11:48:43Z</time>
      </trkpt>
      <trkpt lat="40.3241810" lon="-3.5170170">
        <ele>545.9</ele>
        <time>2021-04-04T11:48:44Z</time>
      </trkpt>
      <trkpt lat="40.3241210" lon="-3.5169670">
        <ele>545.8</ele>
        <time>2021-04-04T11:48:45Z</time>
      </trkpt>
      <trkpt lat="40.3240660" lon="-3.5169020">
        <ele>545.7</ele>
        <time>2021-04-04T11:48:46Z</time>
      </trkpt>
      <trkpt lat="40.3240300" lon="-3.5168330">
        <ele>545.6</ele>
        <time>2021-04-04T11:48:47Z</time>
      </trkpt>
      <trkpt lat="40.3239840" lon="-3.5167760">
        <ele>545.5</ele>
        <time>2021-04-04T11:48:48Z</time>
      </trkpt>
      <trkpt lat="40.3239520" lon="-3.5167170">
        <ele>545.3</ele>
        <time>2021-04-04T11:48:49Z</time>
      </trkpt>
      <trkpt lat="40.3239030" lon="-3.5166640">
        <ele>545.2</ele>
        <time>2021-04-04T11:48:50Z</time>
      </trkpt>
      <trkpt lat="40.3238540" lon="-3.5166050">
        <ele>545.0</ele>
        <time>2021-04-04T11:48:51Z</time>
      </trkpt>
      <trkpt lat="40.3238090" lon="-3.5165300">
        <ele>544.8</ele>
        <time>2021-04-04T11:48:52Z</time>
      </trkpt>
      <trkpt lat="40.3237540" lon="-3.5164730">
        <ele>544.6</ele>
        <time>2021-04-04T11:48:53Z</time>
      </trkpt>
      <trkpt lat="40.3236940" lon="-3.5164100">
        <ele>544.3</ele>
        <time>2021-04-04T11:48:54Z</time>
      </trkpt>
      <trkpt lat="40.3236370" lon="-3.5163600">
        <ele>544.1</ele>
        <time>2021-04-04T11:48:55Z</time>
      </trkpt>
      <trkpt lat="40.3235590" lon="-3.5163040">
        <ele>543.8</ele>
        <time>2021-04-04T11:48:56Z</time>
      </trkpt>
      <trkpt lat="40.3234920" lon="-3.5162500">
        <ele>543.5</ele>
        <time>2021-04-04T11:48:57Z</time>
      </trkpt>
      <trkpt lat="40.3234520" lon="-3.5161820">
        <ele>543.3</ele>
        <time>2021-04-04T11:48:58Z</time>
      </trkpt>
      <trkpt lat="40.3234080" lon="-3.5161240">
        <ele>543.1</ele>
        <time>2021-04-04T11:48:59Z</time>
      </trkpt>
      <trkpt lat="40.3233620" lon="-3.5160690">
        <ele>542.9</ele>
        <time>2021-04-04T11:49:00Z</time>
      </trkpt>
      <trkpt lat="40.3232970" lon="-3.5160020">
        <ele>542.7</ele>
        <time>2021-04-04T11:49:01Z</time>
      </trkpt>
      <trkpt lat="40.3232390" lon="-3.5159200">
        <ele>542.5</ele>
        <time>2021-04-04T11:49:02Z</time>
      </trkpt>
      <trkpt lat="40.3231950" lon="-3.5158560">
        <ele>542.3</ele>
        <time>2021-04-04T11:49:03Z</time>
      </trkpt>
      <trkpt lat="40.3231470" lon="-3.5157880">
        <ele>542.1</ele>
        <time>2021-04-04T11:49:04Z</time>
      </trkpt>
      <trkpt lat="40.3230860" lon="-3.5157310">
        <ele>541.9</ele>
        <time>2021-04-04T11:49:05Z</time>
      </trkpt>
      <trkpt lat="40.3230300" lon="-3.5156640">
        <ele>541.8</ele>
        <time>2021-04-04T11:49:06Z</time>
      </trkpt>
      <trkpt lat="40.3229760" lon="-3.5156040">
        <ele>541.6</ele>
        <time>2021-04-04T11:49:07Z</time>
      </trkpt>
      <trkpt lat="40.3229220" lon="-3.5155480">
        <ele>541.4</ele>
        <time>2021-04-04T11:49:08Z</time>
      </trkpt>
      <trkpt lat="40.3228680" lon="-3.5154890">
        <ele>541.3</ele>
        <time>2021-04-04T11:49:09Z</time>
      </trkpt>
      <trkpt lat="40.3228090" lon="-3.5154180">
        <ele>541.1</ele>
        <time>2021-04-04T11:49:10Z</time>
      </trkpt>
      <trkpt lat="40.3227490" lon="-3.5153330">
        <ele>540.8</ele>
        <time>2021-04-04T11:49:11Z</time>
      </trkpt>
      <trkpt lat="40.3227000" lon="-3.5152590">
        <ele>540.7</ele>
        <time>2021-04-04T11:49:12Z</time>
      </trkpt>
      <trkpt lat="40.3226540" lon="-3.5151920">
        <ele>540.5</ele>
        <time>2021-04-04T11:49:13Z</time>
      </trkpt>
      <trkpt lat="40.3226140" lon="-3.5151140">
        <ele>540.4</ele>
        <time>2021-04-04T11:49:14Z</time>
      </trkpt>
      <trkpt lat="40.3225670" lon="-3.5150430">
        <ele>540.2</ele>
        <time>2021-04-04T11:49:15Z</time>
      </trkpt>
      <trkpt lat="40.3225380" lon="-3.5149740">
        <ele>540.1</ele>
        <time>2021-04-04T11:49:16Z</time>
      </trkpt>
      <trkpt lat="40.3224890" lon="-3.5149040">
        <ele>540.0</ele>
        <time>2021-04-04T11:49:17Z</time>
      </trkpt>
      <trkpt lat="40.3224610" lon="-3.5148280">
        <ele>539.8</ele>
        <time>2021-04-04T11:49:18Z</time>
      </trkpt>
      <trkpt lat="40.3224380" lon="-3.5147510">
        <ele>539.7</ele>
        <time>2021-04-04T11:49:19Z</time>
      </trkpt>
      <trkpt lat="40.3224130" lon="-3.5146690">
        <ele>539.5</ele>
        <time>2021-04-04T11:49:20Z</time>
      </trkpt>
      <trkpt lat="40.3223830" lon="-3.5146060">
        <ele>539.4</ele>
        <time>2021-04-04T11:49:21Z</time>
      </trkpt>
      <trkpt lat="40.3223600" lon="-3.5145490">
        <ele>539.2</ele>
        <time>2021-04-04T11:49:22Z</time>
      </trkpt>
      <trkpt lat="40.3223260" lon="-3.5144860">
        <ele>539.1</ele>
        <time>2021-04-04T11:49:23Z</time>
      </trkpt>
      <trkpt lat="40.3222990" lon="-3.5144470">
        <ele>539.1</ele>
        <time>2021-04-04T11:49:24Z</time>
      </trkpt>
      <trkpt lat="40.3222790" lon="-3.5144060">
        <ele>539.0</ele>
        <time>2021-04-04T11:49:25Z</time>
      </trkpt>
      <trkpt lat="40.3222680" lon="-3.5143640">
        <ele>538.9</ele>
        <time>2021-04-04T11:49:26Z</time>
      </trkpt>
      <trkpt lat="40.3222470" lon="-3.5142920">
        <ele>538.8</ele>
        <time>2021-04-04T11:49:27Z</time>
      </trkpt>
      <trkpt lat="40.3222300" lon="-3.5142110">
        <ele>538.7</ele>
        <time>2021-04-04T11:49:28Z</time>
      </trkpt>
      <trkpt lat="40.3222080" lon="-3.5141370">
        <ele>538.6</ele>
        <time>2021-04-04T11:49:29Z</time>
      </trkpt>
      <trkpt lat="40.3222050" lon="-3.5140720">
        <ele>538.5</ele>
        <time>2021-04-04T11:49:30Z</time>
      </trkpt>
      <trkpt lat="40.3222010" lon="-3.5139920">
        <ele>538.4</ele>
        <time>2021-04-04T11:49:31Z</time>
      </trkpt>
      <trkpt lat="40.3221650" lon="-3.5139130">
        <ele>538.3</ele>
        <time>2021-04-04T11:49:32Z</time>
      </trkpt>
      <trkpt lat="40.3222260" lon="-3.5138230">
        <ele>538.1</ele>
        <time>2021-04-04T11:49:33Z</time>
      </trkpt>
      <trkpt lat="40.3222260" lon="-3.5137160">
        <ele>538.8</ele>
        <time>2021-04-04T11:49:34Z</time>
      </trkpt>
      <trkpt lat="40.3222080" lon="-3.5136590">
        <ele>539.3</ele>
        <time>2021-04-04T11:49:35Z</time>
      </trkpt>
      <trkpt lat="40.3222060" lon="-3.5136130">
        <ele>539.7</ele>
        <time>2021-04-04T11:49:36Z</time>
      </trkpt>
      <trkpt lat="40.3222070" lon="-3.5135550">
        <ele>540.2</ele>
        <time>2021-04-04T11:49:37Z</time>
      </trkpt>
      <trkpt lat="40.3222070" lon="-3.5135110">
        <ele>540.7</ele>
        <time>2021-04-04T11:49:38Z</time>
      </trkpt>
      <trkpt lat="40.3222040" lon="-3.5134690">
        <ele>541.1</ele>
        <time>2021-04-04T11:49:39Z</time>
      </trkpt>
      <trkpt lat="40.3222190" lon="-3.5134270">
        <ele>541.6</ele>
        <time>2021-04-04T11:49:40Z</time>
      </trkpt>
      <trkpt lat="40.3222370" lon="-3.5133950">
        <ele>542.0</ele>
        <time>2021-04-04T11:49:41Z</time>
      </trkpt>
      <trkpt lat="40.3222520" lon="-3.5133510">
        <ele>542.5</ele>
        <time>2021-04-04T11:49:42Z</time>
      </trkpt>
      <trkpt lat="40.3222650" lon="-3.5133130">
        <ele>543.0</ele>
        <time>2021-04-04T11:49:43Z</time>
      </trkpt>
      <trkpt lat="40.3222820" lon="-3.5132820">
        <ele>543.4</ele>
        <time>2021-04-04T11:49:44Z</time>
      </trkpt>
      <trkpt lat="40.3223080" lon="-3.5132400">
        <ele>543.9</ele>
        <time>2021-04-04T11:49:45Z</time>
      </trkpt>
      <trkpt lat="40.3222800" lon="-3.5132010">
        <ele>544.5</ele>
        <time>2021-04-04T11:49:46Z</time>
      </trkpt>
      <trkpt lat="40.3222770" lon="-3.5131600">
        <ele>544.9</ele>
        <time>2021-04-04T11:49:47Z</time>
      </trkpt>
      <trkpt lat="40.3222920" lon="-3.5131130">
        <ele>545.4</ele>
        <time>2021-04-04T11:49:48Z</time>
      </trkpt>
      <trkpt lat="40.3222980" lon="-3.5130970">
        <ele>545.6</ele>
        <time>2021-04-04T11:49:49Z</time>
      </trkpt>
      <trkpt lat="40.3223050" lon="-3.5130490">
        <ele>546.1</ele>
        <time>2021-04-04T11:49:50Z</time>
      </trkpt>
      <trkpt lat="40.3223060" lon="-3.5130340">
        <ele>546.2</ele>
        <time>2021-04-04T11:49:51Z</time>
      </trkpt>
      <trkpt lat="40.3223080" lon="-3.5129900">
        <ele>546.7</ele>
        <time>2021-04-04T11:49:52Z</time>
      </trkpt>
      <trkpt lat="40.3223080" lon="-3.5129740">
        <ele>546.8</ele>
        <time>2021-04-04T11:49:53Z</time>
      </trkpt>
      <trkpt lat="40.3223130" lon="-3.5129520">
        <ele>547.1</ele>
        <time>2021-04-04T11:49:54Z</time>
      </trkpt>
      <trkpt lat="40.3223160" lon="-3.5129310">
        <ele>547.3</ele>
        <time>2021-04-04T11:49:55Z</time>
      </trkpt>
      <trkpt lat="40.3223230" lon="-3.5129100">
        <ele>547.6</ele>
        <time>2021-04-04T11:49:56Z</time>
      </trkpt>
      <trkpt lat="40.3223280" lon="-3.5128880">
        <ele>547.8</ele>
        <time>2021-04-04T11:49:57Z</time>
      </trkpt>
      <trkpt lat="40.3223300" lon="-3.5128690">
        <ele>547.9</ele>
        <time>2021-04-04T11:49:58Z</time>
      </trkpt>
      <trkpt lat="40.3223290" lon="-3.5128520">
        <ele>548.1</ele>
        <time>2021-04-04T11:49:59Z</time>
      </trkpt>
      <trkpt lat="40.3223360" lon="-3.5128100">
        <ele>548.5</ele>
        <time>2021-04-04T11:50:00Z</time>
      </trkpt>
      <trkpt lat="40.3223390" lon="-3.5127910">
        <ele>548.7</ele>
        <time>2021-04-04T11:50:01Z</time>
      </trkpt>
      <trkpt lat="40.3223640" lon="-3.5127600">
        <ele>549.0</ele>
        <time>2021-04-04T11:50:02Z</time>
      </trkpt>
      <trkpt lat="40.3223790" lon="-3.5127180">
        <ele>549.4</ele>
        <time>2021-04-04T11:50:03Z</time>
      </trkpt>
      <trkpt lat="40.3223830" lon="-3.5127050">
        <ele>549.5</ele>
        <time>2021-04-04T11:50:04Z</time>
      </trkpt>
      <trkpt lat="40.3223900" lon="-3.5126650">
        <ele>549.8</ele>
        <time>2021-04-04T11:50:05Z</time>
      </trkpt>
      <trkpt lat="40.3223910" lon="-3.5126520">
        <ele>549.9</ele>
        <time>2021-04-04T11:50:06Z</time>
      </trkpt>
      <trkpt lat="40.3224090" lon="-3.5126140">
        <ele>550.3</ele>
        <time>2021-04-04T11:50:07Z</time>
      </trkpt>
      <trkpt lat="40.3224250" lon="-3.5125720">
        <ele>550.6</ele>
        <time>2021-04-04T11:50:08Z</time>
      </trkpt>
      <trkpt lat="40.3224330" lon="-3.5125330">
        <ele>550.9</ele>
        <time>2021-04-04T11:50:09Z</time>
      </trkpt>
      <trkpt lat="40.3224370" lon="-3.5124970">
        <ele>551.2</ele>
        <time>2021-04-04T11:50:10Z</time>
      </trkpt>
      <trkpt lat="40.3224290" lon="-3.5124500">
        <ele>551.6</ele>
        <time>2021-04-04T11:50:11Z</time>
      </trkpt>
      <trkpt lat="40.3224230" lon="-3.5124370">
        <ele>551.7</ele>
        <time>2021-04-04T11:50:12Z</time>
      </trkpt>
      <trkpt lat="40.3224160" lon="-3.5124160">
        <ele>551.9</ele>
        <time>2021-04-04T11:50:13Z</time>
      </trkpt>
      <trkpt lat="40.3224120" lon="-3.5123950">
        <ele>552.1</ele>
        <time>2021-04-04T11:50:14Z</time>
      </trkpt>
      <trkpt lat="40.3224160" lon="-3.5123610">
        <ele>552.3</ele>
        <time>2021-04-04T11:50:15Z</time>
      </trkpt>
      <trkpt lat="40.3224180" lon="-3.5123480">
        <ele>552.4</ele>
        <time>2021-04-04T11:50:16Z</time>
      </trkpt>
      <trkpt lat="40.3224210" lon="-3.5123220">
        <ele>552.6</ele>
        <time>2021-04-04T11:50:17Z</time>
      </trkpt>
      <trkpt lat="40.3224180" lon="-3.5123000">
        <ele>552.8</ele>
        <time>2021-04-04T11:50:18Z</time>
      </trkpt>
      <trkpt lat="40.3224140" lon="-3.5122800">
        <ele>553.0</ele>
        <time>2021-04-04T11:50:19Z</time>
      </trkpt>
      <trkpt lat="40.3224100" lon="-3.5122620">
        <ele>553.1</ele>
        <time>2021-04-04T11:50:20Z</time>
      </trkpt>
      <trkpt lat="40.3224030" lon="-3.5122270">
        <ele>553.4</ele>
        <time>2021-04-04T11:50:21Z</time>
      </trkpt>
      <trkpt lat="40.3224000" lon="-3.5122140">
        <ele>553.5</ele>
        <time>2021-04-04T11:50:22Z</time>
      </trkpt>
      <trkpt lat="40.3223890" lon="-3.5121760">
        <ele>553.8</ele>
        <time>2021-04-04T11:50:23Z</time>
      </trkpt>
      <trkpt lat="40.3223860" lon="-3.5121630">
        <ele>553.9</ele>
        <time>2021-04-04T11:50:24Z</time>
      </trkpt>
      <trkpt lat="40.3223830" lon="-3.5121480">
        <ele>554.0</ele>
        <time>2021-04-04T11:50:25Z</time>
      </trkpt>
      <trkpt lat="40.3223860" lon="-3.5121270">
        <ele>554.1</ele>
        <time>2021-04-04T11:50:26Z</time>
      </trkpt>
      <trkpt lat="40.3223910" lon="-3.5120850">
        <ele>554.4</ele>
        <time>2021-04-04T11:50:27Z</time>
      </trkpt>
      <trkpt lat="40.3223950" lon="-3.5120710">
        <ele>554.5</ele>
        <time>2021-04-04T11:50:28Z</time>
      </trkpt>
      <trkpt lat="40.3224220" lon="-3.5120380">
        <ele>554.9</ele>
        <time>2021-04-04T11:50:29Z</time>
      </trkpt>
      <trkpt lat="40.3224300" lon="-3.5120280">
        <ele>555.0</ele>
        <time>2021-04-04T11:50:30Z</time>
      </trkpt>
      <trkpt lat="40.3224430" lon="-3.5120120">
        <ele>555.1</ele>
        <time>2021-04-04T11:50:31Z</time>
      </trkpt>
      <trkpt lat="40.3224530" lon="-3.5119910">
        <ele>555.3</ele>
        <time>2021-04-04T11:50:32Z</time>
      </trkpt>
      <trkpt lat="40.3224540" lon="-3.5119690">
        <ele>555.5</ele>
        <time>2021-04-04T11:50:33Z</time>
      </trkpt>
      <trkpt lat="40.3224490" lon="-3.5119450">
        <ele>555.7</ele>
        <time>2021-04-04T11:50:34Z</time>
      </trkpt>
      <trkpt lat="40.3224370" lon="-3.5119080">
        <ele>555.9</ele>
        <time>2021-04-04T11:50:35Z</time>
      </trkpt>
      <trkpt lat="40.3224330" lon="-3.5118960">
        <ele>556.0</ele>
        <time>2021-04-04T11:50:36Z</time>
      </trkpt>
      <trkpt lat="40.3224330" lon="-3.5118570">
        <ele>556.3</ele>
        <time>2021-04-04T11:50:37Z</time>
      </trkpt>
      <trkpt lat="40.3224340" lon="-3.5118430">
        <ele>556.4</ele>
        <time>2021-04-04T11:50:38Z</time>
      </trkpt>
      <trkpt lat="40.3224400" lon="-3.5117940">
        <ele>556.8</ele>
        <time>2021-04-04T11:50:39Z</time>
      </trkpt>
      <trkpt lat="40.3224430" lon="-3.5117770">
        <ele>556.9</ele>
        <time>2021-04-04T11:50:40Z</time>
      </trkpt>
      <trkpt lat="40.3224440" lon="-3.5117300">
        <ele>557.3</ele>
        <time>2021-04-04T11:50:41Z</time>
      </trkpt>
      <trkpt lat="40.3224390" lon="-3.5116940">
        <ele>557.5</ele>
        <time>2021-04-04T11:50:42Z</time>
      </trkpt>
      <trkpt lat="40.3224210" lon="-3.5116520">
        <ele>557.9</ele>
        <time>2021-04-04T11:50:43Z</time>
      </trkpt>
      <trkpt lat="40.3224140" lon="-3.5116400">
        <ele>558.0</ele>
        <time>2021-04-04T11:50:44Z</time>
      </trkpt>
      <trkpt lat="40.3223880" lon="-3.5116060">
        <ele>558.4</ele>
        <time>2021-04-04T11:50:45Z</time>
      </trkpt>
      <trkpt lat="40.3223770" lon="-3.5115950">
        <ele>558.5</ele>
        <time>2021-04-04T11:50:46Z</time>
      </trkpt>
      <trkpt lat="40.3223520" lon="-3.5115640">
        <ele>558.8</ele>
        <time>2021-04-04T11:50:47Z</time>
      </trkpt>
      <trkpt lat="40.3223480" lon="-3.5115530">
        <ele>558.9</ele>
        <time>2021-04-04T11:50:48Z</time>
      </trkpt>
      <trkpt lat="40.3223390" lon="-3.5115370">
        <ele>559.1</ele>
        <time>2021-04-04T11:50:49Z</time>
      </trkpt>
      <trkpt lat="40.3223360" lon="-3.5115180">
        <ele>559.2</ele>
        <time>2021-04-04T11:50:50Z</time>
      </trkpt>
      <trkpt lat="40.3223500" lon="-3.5114770">
        <ele>559.6</ele>
        <time>2021-04-04T11:50:51Z</time>
      </trkpt>
      <trkpt lat="40.3223580" lon="-3.5114630">
        <ele>559.7</ele>
        <time>2021-04-04T11:50:52Z</time>
      </trkpt>
      <trkpt lat="40.3223850" lon="-3.5114290">
        <ele>560.0</ele>
        <time>2021-04-04T11:50:53Z</time>
      </trkpt>
      <trkpt lat="40.3223930" lon="-3.5114190">
        <ele>560.1</ele>
        <time>2021-04-04T11:50:54Z</time>
      </trkpt>
      <trkpt lat="40.3224000" lon="-3.5113900">
        <ele>560.3</ele>
        <time>2021-04-04T11:50:55Z</time>
      </trkpt>
      <trkpt lat="40.3224000" lon="-3.5113760">
        <ele>560.4</ele>
        <time>2021-04-04T11:50:56Z</time>
      </trkpt>
      <trkpt lat="40.3224010" lon="-3.5113630">
        <ele>560.5</ele>
        <time>2021-04-04T11:50:57Z</time>
      </trkpt>
      <trkpt lat="40.3224120" lon="-3.5113240">
        <ele>560.8</ele>
        <time>2021-04-04T11:50:58Z</time>
      </trkpt>
      <trkpt lat="40.3224160" lon="-3.5113090">
        <ele>560.9</ele>
        <time>2021-04-04T11:50:59Z</time>
      </trkpt>
      <trkpt lat="40.3224370" lon="-3.5112700">
        <ele>561.3</ele>
        <time>2021-04-04T11:51:00Z</time>
      </trkpt>
      <trkpt lat="40.3224430" lon="-3.5112580">
        <ele>561.4</ele>
        <time>2021-04-04T11:51:01Z</time>
      </trkpt>
      <trkpt lat="40.3224560" lon="-3.5112190">
        <ele>561.7</ele>
        <time>2021-04-04T11:51:02Z</time>
      </trkpt>
      <trkpt lat="40.3224590" lon="-3.5112060">
        <ele>561.8</ele>
        <time>2021-04-04T11:51:03Z</time>
      </trkpt>
      <trkpt lat="40.3224650" lon="-3.5111590">
        <ele>562.1</ele>
        <time>2021-04-04T11:51:04Z</time>
      </trkpt>
      <trkpt lat="40.3224660" lon="-3.5111440">
        <ele>562.3</ele>
        <time>2021-04-04T11:51:05Z</time>
      </trkpt>
      <trkpt lat="40.3224740" lon="-3.5110970">
        <ele>562.6</ele>
        <time>2021-04-04T11:51:06Z</time>
      </trkpt>
      <trkpt lat="40.3224760" lon="-3.5110800">
        <ele>562.7</ele>
        <time>2021-04-04T11:51:07Z</time>
      </trkpt>
      <trkpt lat="40.3224820" lon="-3.5110340">
        <ele>563.0</ele>
        <time>2021-04-04T11:51:08Z</time>
      </trkpt>
      <trkpt lat="40.3224840" lon="-3.5110190">
        <ele>563.1</ele>
        <time>2021-04-04T11:51:09Z</time>
      </trkpt>
      <trkpt lat="40.3224940" lon="-3.5109830">
        <ele>563.4</ele>
        <time>2021-04-04T11:51:10Z</time>
      </trkpt>
      <trkpt lat="40.3224970" lon="-3.5109690">
        <ele>563.5</ele>
        <time>2021-04-04T11:51:11Z</time>
      </trkpt>
      <trkpt lat="40.3225030" lon="-3.5109200">
        <ele>563.8</ele>
        <time>2021-04-04T11:51:12Z</time>
      </trkpt>
      <trkpt lat="40.3225050" lon="-3.5109040">
        <ele>563.9</ele>
        <time>2021-04-04T11:51:13Z</time>
      </trkpt>
      <trkpt lat="40.3225050" lon="-3.5108610">
        <ele>564.2</ele>
        <time>2021-04-04T11:51:14Z</time>
      </trkpt>
      <trkpt lat="40.3225040" lon="-3.5108470">
        <ele>564.3</ele>
        <time>2021-04-04T11:51:15Z</time>
      </trkpt>
      <trkpt lat="40.3225060" lon="-3.5108040">
        <ele>564.5</ele>
        <time>2021-04-04T11:51:16Z</time>
      </trkpt>
      <trkpt lat="40.3225060" lon="-3.5107890">
        <ele>564.6</ele>
        <time>2021-04-04T11:51:17Z</time>
      </trkpt>
      <trkpt lat="40.3224990" lon="-3.5107480">
        <ele>564.9</ele>
        <time>2021-04-04T11:51:18Z</time>
      </trkpt>
      <trkpt lat="40.3224870" lon="-3.5107040">
        <ele>565.2</ele>
        <time>2021-04-04T11:51:19Z</time>
      </trkpt>
      <trkpt lat="40.3224670" lon="-3.5106630">
        <ele>565.5</ele>
        <time>2021-04-04T11:51:20Z</time>
      </trkpt>
      <trkpt lat="40.3224470" lon="-3.5106280">
        <ele>565.8</ele>
        <time>2021-04-04T11:51:21Z</time>
      </trkpt>
      <trkpt lat="40.3224370" lon="-3.5105940">
        <ele>566.0</ele>
        <time>2021-04-04T11:51:22Z</time>
      </trkpt>
      <trkpt lat="40.3224350" lon="-3.5105830">
        <ele>566.1</ele>
        <time>2021-04-04T11:51:23Z</time>
      </trkpt>
      <trkpt lat="40.3224340" lon="-3.5105480">
        <ele>566.3</ele>
        <time>2021-04-04T11:51:24Z</time>
      </trkpt>
      <trkpt lat="40.3224350" lon="-3.5105340">
        <ele>566.4</ele>
        <time>2021-04-04T11:51:25Z</time>
      </trkpt>
      <trkpt lat="40.3224320" lon="-3.5104890">
        <ele>566.7</ele>
        <time>2021-04-04T11:51:26Z</time>
      </trkpt>
      <trkpt lat="40.3224280" lon="-3.5104740">
        <ele>566.8</ele>
        <time>2021-04-04T11:51:27Z</time>
      </trkpt>
      <trkpt lat="40.3224150" lon="-3.5104310">
        <ele>567.1</ele>
        <time>2021-04-04T11:51:28Z</time>
      </trkpt>
      <trkpt lat="40.3224120" lon="-3.5104170">
        <ele>567.1</ele>
        <time>2021-04-04T11:51:29Z</time>
      </trkpt>
      <trkpt lat="40.3224150" lon="-3.5103660">
        <ele>567.4</ele>
        <time>2021-04-04T11:51:30Z</time>
      </trkpt>
      <trkpt lat="40.3224200" lon="-3.5103440">
        <ele>567.6</ele>
        <time>2021-04-04T11:51:31Z</time>
      </trkpt>
      <trkpt lat="40.3224280" lon="-3.5103040">
        <ele>567.8</ele>
        <time>2021-04-04T11:51:32Z</time>
      </trkpt>
      <trkpt lat="40.3224420" lon="-3.5102650">
        <ele>568.1</ele>
        <time>2021-04-04T11:51:33Z</time>
      </trkpt>
      <trkpt lat="40.3224450" lon="-3.5102530">
        <ele>568.1</ele>
        <time>2021-04-04T11:51:34Z</time>
      </trkpt>
      <trkpt lat="40.3224600" lon="-3.5102170">
        <ele>568.4</ele>
        <time>2021-04-04T11:51:35Z</time>
      </trkpt>
      <trkpt lat="40.3224640" lon="-3.5102040">
        <ele>568.4</ele>
        <time>2021-04-04T11:51:36Z</time>
      </trkpt>
      <trkpt lat="40.3224710" lon="-3.5101830">
        <ele>568.6</ele>
        <time>2021-04-04T11:51:37Z</time>
      </trkpt>
      <trkpt lat="40.3224760" lon="-3.5101600">
        <ele>568.7</ele>
        <time>2021-04-04T11:51:38Z</time>
      </trkpt>
      <trkpt lat="40.3224770" lon="-3.5101350">
        <ele>568.8</ele>
        <time>2021-04-04T11:51:39Z</time>
      </trkpt>
      <trkpt lat="40.3224800" lon="-3.5101130">
        <ele>569.0</ele>
        <time>2021-04-04T11:51:40Z</time>
      </trkpt>
      <trkpt lat="40.3224870" lon="-3.5100730">
        <ele>569.2</ele>
        <time>2021-04-04T11:51:41Z</time>
      </trkpt>
      <trkpt lat="40.3224890" lon="-3.5100590">
        <ele>569.3</ele>
        <time>2021-04-04T11:51:42Z</time>
      </trkpt>
      <trkpt lat="40.3225060" lon="-3.5100210">
        <ele>569.5</ele>
        <time>2021-04-04T11:51:43Z</time>
      </trkpt>
      <trkpt lat="40.3225120" lon="-3.5100080">
        <ele>569.6</ele>
        <time>2021-04-04T11:51:44Z</time>
      </trkpt>
      <trkpt lat="40.3225320" lon="-3.5099790">
        <ele>569.9</ele>
        <time>2021-04-04T11:51:45Z</time>
      </trkpt>
      <trkpt lat="40.3225380" lon="-3.5099700">
        <ele>569.9</ele>
        <time>2021-04-04T11:51:46Z</time>
      </trkpt>
      <trkpt lat="40.3225580" lon="-3.5099420">
        <ele>570.2</ele>
        <time>2021-04-04T11:51:47Z</time>
      </trkpt>
      <trkpt lat="40.3225640" lon="-3.5099330">
        <ele>570.2</ele>
        <time>2021-04-04T11:51:48Z</time>
      </trkpt>
      <trkpt lat="40.3225710" lon="-3.5099150">
        <ele>570.3</ele>
        <time>2021-04-04T11:51:49Z</time>
      </trkpt>
      <trkpt lat="40.3225730" lon="-3.5098980">
        <ele>570.4</ele>
        <time>2021-04-04T11:51:50Z</time>
      </trkpt>
      <trkpt lat="40.3225770" lon="-3.5098790">
        <ele>570.6</ele>
        <time>2021-04-04T11:51:51Z</time>
      </trkpt>
      <trkpt lat="40.3225810" lon="-3.5098590">
        <ele>570.7</ele>
        <time>2021-04-04T11:51:52Z</time>
      </trkpt>
      <trkpt lat="40.3225840" lon="-3.5098390">
        <ele>570.8</ele>
        <time>2021-04-04T11:51:53Z</time>
      </trkpt>
      <trkpt lat="40.3225830" lon="-3.5098140">
        <ele>571.0</ele>
        <time>2021-04-04T11:51:54Z</time>
      </trkpt>
      <trkpt lat="40.3225780" lon="-3.5097740">
        <ele>571.2</ele>
        <time>2021-04-04T11:51:55Z</time>
      </trkpt>
      <trkpt lat="40.3225770" lon="-3.5097590">
        <ele>571.3</ele>
        <time>2021-04-04T11:51:56Z</time>
      </trkpt>
      <trkpt lat="40.3225820" lon="-3.5097210">
        <ele>571.5</ele>
        <time>2021-04-04T11:51:57Z</time>
      </trkpt>
      <trkpt lat="40.3225830" lon="-3.5097080">
        <ele>571.6</ele>
        <time>2021-04-04T11:51:58Z</time>
      </trkpt>
      <trkpt lat="40.3225930" lon="-3.5096710">
        <ele>571.8</ele>
        <time>2021-04-04T11:51:59Z</time>
      </trkpt>
      <trkpt lat="40.3225970" lon="-3.5096600">
        <ele>571.8</ele>
        <time>2021-04-04T11:52:00Z</time>
      </trkpt>
      <trkpt lat="40.3226110" lon="-3.5096240">
        <ele>572.1</ele>
        <time>2021-04-04T11:52:01Z</time>
      </trkpt>
      <trkpt lat="40.3226160" lon="-3.5096120">
        <ele>572.1</ele>
        <time>2021-04-04T11:52:02Z</time>
      </trkpt>
      <trkpt lat="40.3226240" lon="-3.5095910">
        <ele>572.3</ele>
        <time>2021-04-04T11:52:03Z</time>
      </trkpt>
      <trkpt lat="40.3226300" lon="-3.5095720">
        <ele>572.4</ele>
        <time>2021-04-04T11:52:04Z</time>
      </trkpt>
      <trkpt lat="40.3226330" lon="-3.5095520">
        <ele>572.5</ele>
        <time>2021-04-04T11:52:05Z</time>
      </trkpt>
      <trkpt lat="40.3226350" lon="-3.5095270">
        <ele>572.6</ele>
        <time>2021-04-04T11:52:06Z</time>
      </trkpt>
      <trkpt lat="40.3226380" lon="-3.5095040">
        <ele>572.8</ele>
        <time>2021-04-04T11:52:07Z</time>
      </trkpt>
      <trkpt lat="40.3226440" lon="-3.5094840">
        <ele>572.9</ele>
        <time>2021-04-04T11:52:08Z</time>
      </trkpt>
      <trkpt lat="40.3226530" lon="-3.5094490">
        <ele>573.1</ele>
        <time>2021-04-04T11:52:09Z</time>
      </trkpt>
      <trkpt lat="40.3226560" lon="-3.5094370">
        <ele>573.2</ele>
        <time>2021-04-04T11:52:10Z</time>
      </trkpt>
      <trkpt lat="40.3226650" lon="-3.5094170">
        <ele>573.3</ele>
        <time>2021-04-04T11:52:11Z</time>
      </trkpt>
      <trkpt lat="40.3226760" lon="-3.5093980">
        <ele>573.4</ele>
        <time>2021-04-04T11:52:12Z</time>
      </trkpt>
      <trkpt lat="40.3226950" lon="-3.5093620">
        <ele>573.7</ele>
        <time>2021-04-04T11:52:13Z</time>
      </trkpt>
      <trkpt lat="40.3227020" lon="-3.5093480">
        <ele>573.8</ele>
        <time>2021-04-04T11:52:14Z</time>
      </trkpt>
      <trkpt lat="40.3227150" lon="-3.5093110">
        <ele>574.0</ele>
        <time>2021-04-04T11:52:15Z</time>
      </trkpt>
      <trkpt lat="40.3227180" lon="-3.5093000">
        <ele>574.1</ele>
        <time>2021-04-04T11:52:16Z</time>
      </trkpt>
      <trkpt lat="40.3227240" lon="-3.5092590">
        <ele>574.3</ele>
        <time>2021-04-04T11:52:17Z</time>
      </trkpt>
      <trkpt lat="40.3227240" lon="-3.5092450">
        <ele>574.4</ele>
        <time>2021-04-04T11:52:18Z</time>
      </trkpt>
      <trkpt lat="40.3227250" lon="-3.5092200">
        <ele>574.6</ele>
        <time>2021-04-04T11:52:19Z</time>
      </trkpt>
      <trkpt lat="40.3227280" lon="-3.5091990">
        <ele>574.7</ele>
        <time>2021-04-04T11:52:20Z</time>
      </trkpt>
      <trkpt lat="40.3227340" lon="-3.5091800">
        <ele>574.8</ele>
        <time>2021-04-04T11:52:21Z</time>
      </trkpt>
      <trkpt lat="40.3227390" lon="-3.5091600">
        <ele>574.9</ele>
        <time>2021-04-04T11:52:22Z</time>
      </trkpt>
      <trkpt lat="40.3227450" lon="-3.5091370">
        <ele>575.1</ele>
        <time>2021-04-04T11:52:23Z</time>
      </trkpt>
      <trkpt lat="40.3227490" lon="-3.5091140">
        <ele>575.2</ele>
        <time>2021-04-04T11:52:24Z</time>
      </trkpt>
      <trkpt lat="40.3227510" lon="-3.5090930">
        <ele>575.3</ele>
        <time>2021-04-04T11:52:25Z</time>
      </trkpt>
      <trkpt lat="40.3227560" lon="-3.5090690">
        <ele>575.5</ele>
        <time>2021-04-04T11:52:26Z</time>
      </trkpt>
      <trkpt lat="40.3227700" lon="-3.5090310">
        <ele>575.7</ele>
        <time>2021-04-04T11:52:27Z</time>
      </trkpt>
      <trkpt lat="40.3227740" lon="-3.5090180">
        <ele>575.8</ele>
        <time>2021-04-04T11:52:28Z</time>
      </trkpt>
      <trkpt lat="40.3227920" lon="-3.5089770">
        <ele>576.1</ele>
        <time>2021-04-04T11:52:29Z</time>
      </trkpt>
      <trkpt lat="40.3227970" lon="-3.5089640">
        <ele>576.2</ele>
        <time>2021-04-04T11:52:30Z</time>
      </trkpt>
      <trkpt lat="40.3228100" lon="-3.5089290">
        <ele>576.5</ele>
        <time>2021-04-04T11:52:31Z</time>
      </trkpt>
      <trkpt lat="40.3228130" lon="-3.5089170">
        <ele>576.6</ele>
        <time>2021-04-04T11:52:32Z</time>
      </trkpt>
      <trkpt lat="40.3228180" lon="-3.5088960">
        <ele>576.7</ele>
        <time>2021-04-04T11:52:33Z</time>
      </trkpt>
      <trkpt lat="40.3228200" lon="-3.5088710">
        <ele>576.9</ele>
        <time>2021-04-04T11:52:34Z</time>
      </trkpt>
      <trkpt lat="40.3228240" lon="-3.5088320">
        <ele>577.2</ele>
        <time>2021-04-04T11:52:35Z</time>
      </trkpt>
      <trkpt lat="40.3228240" lon="-3.5088190">
        <ele>577.3</ele>
        <time>2021-04-04T11:52:36Z</time>
      </trkpt>
      <trkpt lat="40.3228230" lon="-3.5087740">
        <ele>577.6</ele>
        <time>2021-04-04T11:52:37Z</time>
      </trkpt>
      <trkpt lat="40.3228220" lon="-3.5087580">
        <ele>577.7</ele>
        <time>2021-04-04T11:52:38Z</time>
      </trkpt>
      <trkpt lat="40.3228230" lon="-3.5087140">
        <ele>578.0</ele>
        <time>2021-04-04T11:52:39Z</time>
      </trkpt>
      <trkpt lat="40.3228230" lon="-3.5086990">
        <ele>578.1</ele>
        <time>2021-04-04T11:52:40Z</time>
      </trkpt>
      <trkpt lat="40.3228320" lon="-3.5086550">
        <ele>578.5</ele>
        <time>2021-04-04T11:52:41Z</time>
      </trkpt>
      <trkpt lat="40.3228370" lon="-3.5086400">
        <ele>578.6</ele>
        <time>2021-04-04T11:52:42Z</time>
      </trkpt>
      <trkpt lat="40.3228480" lon="-3.5085930">
        <ele>579.0</ele>
        <time>2021-04-04T11:52:43Z</time>
      </trkpt>
      <trkpt lat="40.3228510" lon="-3.5085770">
        <ele>579.1</ele>
        <time>2021-04-04T11:52:44Z</time>
      </trkpt>
      <trkpt lat="40.3228530" lon="-3.5085390">
        <ele>579.4</ele>
        <time>2021-04-04T11:52:45Z</time>
      </trkpt>
      <trkpt lat="40.3228520" lon="-3.5085260">
        <ele>579.5</ele>
        <time>2021-04-04T11:52:46Z</time>
      </trkpt>
      <trkpt lat="40.3228470" lon="-3.5084840">
        <ele>579.9</ele>
        <time>2021-04-04T11:52:47Z</time>
      </trkpt>
      <trkpt lat="40.3228430" lon="-3.5084700">
        <ele>580.0</ele>
        <time>2021-04-04T11:52:48Z</time>
      </trkpt>
      <trkpt lat="40.3228490" lon="-3.5084280">
        <ele>580.3</ele>
        <time>2021-04-04T11:52:49Z</time>
      </trkpt>
      <trkpt lat="40.3228540" lon="-3.5084140">
        <ele>580.5</ele>
        <time>2021-04-04T11:52:50Z</time>
      </trkpt>
      <trkpt lat="40.3228660" lon="-3.5083740">
        <ele>580.9</ele>
        <time>2021-04-04T11:52:51Z</time>
      </trkpt>
      <trkpt lat="40.3228700" lon="-3.5083610">
        <ele>581.0</ele>
        <time>2021-04-04T11:52:52Z</time>
      </trkpt>
      <trkpt lat="40.3228830" lon="-3.5083240">
        <ele>581.3</ele>
        <time>2021-04-04T11:52:53Z</time>
      </trkpt>
      <trkpt lat="40.3228870" lon="-3.5083120">
        <ele>581.4</ele>
        <time>2021-04-04T11:52:54Z</time>
      </trkpt>
      <trkpt lat="40.3228980" lon="-3.5082760">
        <ele>581.8</ele>
        <time>2021-04-04T11:52:55Z</time>
      </trkpt>
      <trkpt lat="40.3229020" lon="-3.5082630">
        <ele>581.9</ele>
        <time>2021-04-04T11:52:56Z</time>
      </trkpt>
      <trkpt lat="40.3229220" lon="-3.5082220">
        <ele>582.4</ele>
        <time>2021-04-04T11:52:57Z</time>
      </trkpt>
      <trkpt lat="40.3229290" lon="-3.5082070">
        <ele>582.5</ele>
        <time>2021-04-04T11:52:58Z</time>
      </trkpt>
      <trkpt lat="40.3229410" lon="-3.5081690">
        <ele>582.9</ele>
        <time>2021-04-04T11:52:59Z</time>
      </trkpt>
      <trkpt lat="40.3229430" lon="-3.5081560">
        <ele>583.0</ele>
        <time>2021-04-04T11:53:00Z</time>
      </trkpt>
      <trkpt lat="40.3229480" lon="-3.5081170">
        <ele>583.4</ele>
        <time>2021-04-04T11:53:01Z</time>
      </trkpt>
      <trkpt lat="40.3229480" lon="-3.5081030">
        <ele>583.5</ele>
        <time>2021-04-04T11:53:02Z</time>
      </trkpt>
      <trkpt lat="40.3229510" lon="-3.5080670">
        <ele>583.9</ele>
        <time>2021-04-04T11:53:03Z</time>
      </trkpt>
      <trkpt lat="40.3229530" lon="-3.5080540">
        <ele>584.0</ele>
        <time>2021-04-04T11:53:04Z</time>
      </trkpt>
      <trkpt lat="40.3229640" lon="-3.5080170">
        <ele>584.4</ele>
        <time>2021-04-04T11:53:05Z</time>
      </trkpt>
      <trkpt lat="40.3229670" lon="-3.5080040">
        <ele>584.5</ele>
        <time>2021-04-04T11:53:06Z</time>
      </trkpt>
      <trkpt lat="40.3229730" lon="-3.5079810">
        <ele>584.7</ele>
        <time>2021-04-04T11:53:07Z</time>
      </trkpt>
      <trkpt lat="40.3229770" lon="-3.5079600">
        <ele>584.9</ele>
        <time>2021-04-04T11:53:08Z</time>
      </trkpt>
      <trkpt lat="40.3229800" lon="-3.5079400">
        <ele>585.1</ele>
        <time>2021-04-04T11:53:09Z</time>
      </trkpt>
      <trkpt lat="40.3229840" lon="-3.5079220">
        <ele>585.3</ele>
        <time>2021-04-04T11:53:10Z</time>
      </trkpt>
      <trkpt lat="40.3229880" lon="-3.5078860">
        <ele>585.7</ele>
        <time>2021-04-04T11:53:11Z</time>
      </trkpt>
      <trkpt lat="40.3229890" lon="-3.5078710">
        <ele>585.8</ele>
        <time>2021-04-04T11:53:12Z</time>
      </trkpt>
      <trkpt lat="40.3229950" lon="-3.5078340">
        <ele>586.2</ele>
        <time>2021-04-04T11:53:13Z</time>
      </trkpt>
      <trkpt lat="40.3229960" lon="-3.5078200">
        <ele>586.3</ele>
        <time>2021-04-04T11:53:14Z</time>
      </trkpt>
      <trkpt lat="40.3230040" lon="-3.5077760">
        <ele>586.8</ele>
        <time>2021-04-04T11:53:15Z</time>
      </trkpt>
      <trkpt lat="40.3230070" lon="-3.5077630">
        <ele>586.9</ele>
        <time>2021-04-04T11:53:16Z</time>
      </trkpt>
      <trkpt lat="40.3230230" lon="-3.5077260">
        <ele>587.4</ele>
        <time>2021-04-04T11:53:17Z</time>
      </trkpt>
      <trkpt lat="40.3230280" lon="-3.5077140">
        <ele>587.4</ele>
        <time>2021-04-04T11:53:18Z</time>
      </trkpt>
      <trkpt lat="40.3230390" lon="-3.5076770">
        <ele>587.7</ele>
        <time>2021-04-04T11:53:19Z</time>
      </trkpt>
      <trkpt lat="40.3230430" lon="-3.5076640">
        <ele>587.8</ele>
        <time>2021-04-04T11:53:20Z</time>
      </trkpt>
      <trkpt lat="40.3230530" lon="-3.5076260">
        <ele>588.1</ele>
        <time>2021-04-04T11:53:21Z</time>
      </trkpt>
      <trkpt lat="40.3230560" lon="-3.5076140">
        <ele>588.2</ele>
        <time>2021-04-04T11:53:22Z</time>
      </trkpt>
      <trkpt lat="40.3230680" lon="-3.5075770">
        <ele>588.4</ele>
        <time>2021-04-04T11:53:23Z</time>
      </trkpt>
      <trkpt lat="40.3230710" lon="-3.5075630">
        <ele>588.5</ele>
        <time>2021-04-04T11:53:24Z</time>
      </trkpt>
      <trkpt lat="40.3230790" lon="-3.5075370">
        <ele>588.7</ele>
        <time>2021-04-04T11:53:25Z</time>
      </trkpt>
      <trkpt lat="40.3230840" lon="-3.5075200">
        <ele>588.8</ele>
        <time>2021-04-04T11:53:26Z</time>
      </trkpt>
      <trkpt lat="40.3230920" lon="-3.5075060">
        <ele>588.9</ele>
        <time>2021-04-04T11:53:27Z</time>
      </trkpt>
      <trkpt lat="40.3231030" lon="-3.5074900">
        <ele>589.0</ele>
        <time>2021-04-04T11:53:28Z</time>
      </trkpt>
      <trkpt lat="40.3231150" lon="-3.5074750">
        <ele>589.1</ele>
        <time>2021-04-04T11:53:29Z</time>
      </trkpt>
      <trkpt lat="40.3231280" lon="-3.5074580">
        <ele>589.3</ele>
        <time>2021-04-04T11:53:30Z</time>
      </trkpt>
      <trkpt lat="40.3231480" lon="-3.5074310">
        <ele>589.5</ele>
        <time>2021-04-04T11:53:31Z</time>
      </trkpt>
      <trkpt lat="40.3231550" lon="-3.5074230">
        <ele>589.5</ele>
        <time>2021-04-04T11:53:32Z</time>
      </trkpt>
      <trkpt lat="40.3231740" lon="-3.5073860">
        <ele>589.7</ele>
        <time>2021-04-04T11:53:33Z</time>
      </trkpt>
      <trkpt lat="40.3231810" lon="-3.5073750">
        <ele>589.8</ele>
        <time>2021-04-04T11:53:34Z</time>
      </trkpt>
      <trkpt lat="40.3232060" lon="-3.5073490">
        <ele>590.0</ele>
        <time>2021-04-04T11:53:35Z</time>
      </trkpt>
      <trkpt lat="40.3232160" lon="-3.5073410">
        <ele>590.1</ele>
        <time>2021-04-04T11:53:36Z</time>
      </trkpt>
      <trkpt lat="40.3232410" lon="-3.5073120">
        <ele>590.2</ele>
        <time>2021-04-04T11:53:37Z</time>
      </trkpt>
      <trkpt lat="40.3232470" lon="-3.5073010">
        <ele>590.3</ele>
        <time>2021-04-04T11:53:38Z</time>
      </trkpt>
      <trkpt lat="40.3232620" lon="-3.5072610">
        <ele>590.5</ele>
        <time>2021-04-04T11:53:39Z</time>
      </trkpt>
      <trkpt lat="40.3232650" lon="-3.5072440">
        <ele>590.5</ele>
        <time>2021-04-04T11:53:40Z</time>
      </trkpt>
      <trkpt lat="40.3232680" lon="-3.5071910">
        <ele>590.7</ele>
        <time>2021-04-04T11:53:41Z</time>
      </trkpt>
      <trkpt lat="40.3232690" lon="-3.5071720">
        <ele>590.7</ele>
        <time>2021-04-04T11:53:42Z</time>
      </trkpt>
      <trkpt lat="40.3232750" lon="-3.5071350">
        <ele>590.9</ele>
        <time>2021-04-04T11:53:43Z</time>
      </trkpt>
      <trkpt lat="40.3232800" lon="-3.5070890">
        <ele>591.0</ele>
        <time>2021-04-04T11:53:44Z</time>
      </trkpt>
      <trkpt lat="40.3232790" lon="-3.5070460">
        <ele>591.1</ele>
        <time>2021-04-04T11:53:45Z</time>
      </trkpt>
      <trkpt lat="40.3232750" lon="-3.5070070">
        <ele>591.2</ele>
        <time>2021-04-04T11:53:46Z</time>
      </trkpt>
      <trkpt lat="40.3232720" lon="-3.5069720">
        <ele>591.3</ele>
        <time>2021-04-04T11:53:47Z</time>
      </trkpt>
      <trkpt lat="40.3232690" lon="-3.5069230">
        <ele>591.4</ele>
        <time>2021-04-04T11:53:48Z</time>
      </trkpt>
      <trkpt lat="40.3232690" lon="-3.5069070">
        <ele>591.4</ele>
        <time>2021-04-04T11:53:49Z</time>
      </trkpt>
      <trkpt lat="40.3232730" lon="-3.5068600">
        <ele>591.5</ele>
        <time>2021-04-04T11:53:50Z</time>
      </trkpt>
      <trkpt lat="40.3232760" lon="-3.5068440">
        <ele>591.5</ele>
        <time>2021-04-04T11:53:51Z</time>
      </trkpt>
      <trkpt lat="40.3232820" lon="-3.5068090">
        <ele>591.6</ele>
        <time>2021-04-04T11:53:52Z</time>
      </trkpt>
      <trkpt lat="40.3232920" lon="-3.5067760">
        <ele>591.6</ele>
        <time>2021-04-04T11:53:53Z</time>
      </trkpt>
      <trkpt lat="40.3233010" lon="-3.5067370">
        <ele>591.6</ele>
        <time>2021-04-04T11:53:54Z</time>
      </trkpt>
      <trkpt lat="40.3233090" lon="-3.5066970">
        <ele>591.7</ele>
        <time>2021-04-04T11:53:55Z</time>
      </trkpt>
      <trkpt lat="40.3233150" lon="-3.5066570">
        <ele>591.7</ele>
        <time>2021-04-04T11:53:56Z</time>
      </trkpt>
      <trkpt lat="40.3233210" lon="-3.5066200">
        <ele>591.7</ele>
        <time>2021-04-04T11:53:57Z</time>
      </trkpt>
      <trkpt lat="40.3233280" lon="-3.5065800">
        <ele>591.8</ele>
        <time>2021-04-04T11:53:58Z</time>
      </trkpt>
      <trkpt lat="40.3233330" lon="-3.5065400">
        <ele>591.8</ele>
        <time>2021-04-04T11:53:59Z</time>
      </trkpt>
      <trkpt lat="40.3233350" lon="-3.5064950">
        <ele>591.8</ele>
        <time>2021-04-04T11:54:00Z</time>
      </trkpt>
      <trkpt lat="40.3233380" lon="-3.5064490">
        <ele>591.8</ele>
        <time>2021-04-04T11:54:01Z</time>
      </trkpt>
      <trkpt lat="40.3233460" lon="-3.5064060">
        <ele>591.8</ele>
        <time>2021-04-04T11:54:02Z</time>
      </trkpt>
      <trkpt lat="40.3233600" lon="-3.5063650">
        <ele>591.8</ele>
        <time>2021-04-04T11:54:03Z</time>
      </trkpt>
      <trkpt lat="40.3233720" lon="-3.5063230">
        <ele>591.8</ele>
        <time>2021-04-04T11:54:04Z</time>
      </trkpt>
      <trkpt lat="40.3233830" lon="-3.5062830">
        <ele>591.8</ele>
        <time>2021-04-04T11:54:05Z</time>
      </trkpt>
      <trkpt lat="40.3233940" lon="-3.5062410">
        <ele>591.8</ele>
        <time>2021-04-04T11:54:06Z</time>
      </trkpt>
      <trkpt lat="40.3234050" lon="-3.5062020">
        <ele>591.8</ele>
        <time>2021-04-04T11:54:07Z</time>
      </trkpt>
      <trkpt lat="40.3234200" lon="-3.5061680">
        <ele>591.8</ele>
        <time>2021-04-04T11:54:08Z</time>
      </trkpt>
      <trkpt lat="40.3234410" lon="-3.5061320">
        <ele>591.8</ele>
        <time>2021-04-04T11:54:09Z</time>
      </trkpt>
      <trkpt lat="40.3234670" lon="-3.5060950">
        <ele>591.8</ele>
        <time>2021-04-04T11:54:10Z</time>
      </trkpt>
      <trkpt lat="40.3234990" lon="-3.5060590">
        <ele>591.8</ele>
        <time>2021-04-04T11:54:11Z</time>
      </trkpt>
      <trkpt lat="40.3235270" lon="-3.5060270">
        <ele>591.9</ele>
        <time>2021-04-04T11:54:12Z</time>
      </trkpt>
      <trkpt lat="40.3235510" lon="-3.5059920">
        <ele>591.9</ele>
        <time>2021-04-04T11:54:13Z</time>
      </trkpt>
      <trkpt lat="40.3235740" lon="-3.5059600">
        <ele>591.9</ele>
        <time>2021-04-04T11:54:14Z</time>
      </trkpt>
      <trkpt lat="40.3235970" lon="-3.5059270">
        <ele>591.9</ele>
        <time>2021-04-04T11:54:15Z</time>
      </trkpt>
      <trkpt lat="40.3236170" lon="-3.5058930">
        <ele>591.9</ele>
        <time>2021-04-04T11:54:16Z</time>
      </trkpt>
      <trkpt lat="40.3236350" lon="-3.5058620">
        <ele>591.9</ele>
        <time>2021-04-04T11:54:17Z</time>
      </trkpt>
      <trkpt lat="40.3236540" lon="-3.5058280">
        <ele>592.0</ele>
        <time>2021-04-04T11:54:18Z</time>
      </trkpt>
      <trkpt lat="40.3236750" lon="-3.5058000">
        <ele>592.0</ele>
        <time>2021-04-04T11:54:19Z</time>
      </trkpt>
      <trkpt lat="40.3236970" lon="-3.5057750">
        <ele>592.0</ele>
        <time>2021-04-04T11:54:20Z</time>
      </trkpt>
      <trkpt lat="40.3237190" lon="-3.5057480">
        <ele>592.0</ele>
        <time>2021-04-04T11:54:21Z</time>
      </trkpt>
      <trkpt lat="40.3237410" lon="-3.5057180">
        <ele>592.0</ele>
        <time>2021-04-04T11:54:22Z</time>
      </trkpt>
      <trkpt lat="40.3237630" lon="-3.5056890">
        <ele>592.0</ele>
        <time>2021-04-04T11:54:23Z</time>
      </trkpt>
      <trkpt lat="40.3237850" lon="-3.5056590">
        <ele>592.0</ele>
        <time>2021-04-04T11:54:24Z</time>
      </trkpt>
      <trkpt lat="40.3238080" lon="-3.5056260">
        <ele>592.1</ele>
        <time>2021-04-04T11:54:25Z</time>
      </trkpt>
      <trkpt lat="40.3238320" lon="-3.5055950">
        <ele>592.1</ele>
        <time>2021-04-04T11:54:26Z</time>
      </trkpt>
      <trkpt lat="40.3238580" lon="-3.5055630">
        <ele>592.1</ele>
        <time>2021-04-04T11:54:27Z</time>
      </trkpt>
      <trkpt lat="40.3238850" lon="-3.5055300">
        <ele>592.1</ele>
        <time>2021-04-04T11:54:28Z</time>
      </trkpt>
      <trkpt lat="40.3239110" lon="-3.5054960">
        <ele>592.0</ele>
        <time>2021-04-04T11:54:29Z</time>
      </trkpt>
      <trkpt lat="40.3239350" lon="-3.5054630">
        <ele>592.0</ele>
        <time>2021-04-04T11:54:30Z</time>
      </trkpt>
      <trkpt lat="40.3239570" lon="-3.5054270">
        <ele>592.0</ele>
        <time>2021-04-04T11:54:31Z</time>
      </trkpt>
      <trkpt lat="40.3239840" lon="-3.5053900">
        <ele>592.0</ele>
        <time>2021-04-04T11:54:32Z</time>
      </trkpt>
      <trkpt lat="40.3240110" lon="-3.5053480">
        <ele>592.0</ele>
        <time>2021-04-04T11:54:33Z</time>
      </trkpt>
      <trkpt lat="40.3240380" lon="-3.5053080">
        <ele>592.0</ele>
        <time>2021-04-04T11:54:34Z</time>
      </trkpt>
      <trkpt lat="40.3240630" lon="-3.5052630">
        <ele>592.0</ele>
        <time>2021-04-04T11:54:35Z</time>
      </trkpt>
      <trkpt lat="40.3240840" lon="-3.5052130">
        <ele>592.1</ele>
        <time>2021-04-04T11:54:36Z</time>
      </trkpt>
      <trkpt lat="40.3241020" lon="-3.5051640">
        <ele>592.1</ele>
        <time>2021-04-04T11:54:37Z</time>
      </trkpt>
      <trkpt lat="40.3241120" lon="-3.5051140">
        <ele>592.2</ele>
        <time>2021-04-04T11:54:38Z</time>
      </trkpt>
      <trkpt lat="40.3241180" lon="-3.5050630">
        <ele>592.3</ele>
        <time>2021-04-04T11:54:39Z</time>
      </trkpt>
      <trkpt lat="40.3241660" lon="-3.5049930">
        <ele>592.5</ele>
        <time>2021-04-04T11:54:40Z</time>
      </trkpt>
      <trkpt lat="40.3241450" lon="-3.5049550">
        <ele>592.6</ele>
        <time>2021-04-04T11:54:41Z</time>
      </trkpt>
      <trkpt lat="40.3241320" lon="-3.5049050">
        <ele>592.8</ele>
        <time>2021-04-04T11:54:42Z</time>
      </trkpt>
      <trkpt lat="40.3241620" lon="-3.5048560">
        <ele>593.0</ele>
        <time>2021-04-04T11:54:43Z</time>
      </trkpt>
      <trkpt lat="40.3241260" lon="-3.5047840">
        <ele>593.4</ele>
        <time>2021-04-04T11:54:44Z</time>
      </trkpt>
      <trkpt lat="40.3240820" lon="-3.5047250">
        <ele>593.8</ele>
        <time>2021-04-04T11:54:45Z</time>
      </trkpt>
      <trkpt lat="40.3240720" lon="-3.5046890">
        <ele>593.9</ele>
        <time>2021-04-04T11:54:46Z</time>
      </trkpt>
      <trkpt lat="40.3240670" lon="-3.5046650">
        <ele>594.0</ele>
        <time>2021-04-04T11:54:47Z</time>
      </trkpt>
      <trkpt lat="40.3240650" lon="-3.5046210">
        <ele>594.3</ele>
        <time>2021-04-04T11:54:48Z</time>
      </trkpt>
      <trkpt lat="40.3240460" lon="-3.5045640">
        <ele>594.6</ele>
        <time>2021-04-04T11:54:49Z</time>
      </trkpt>
      <trkpt lat="40.3240350" lon="-3.5045390">
        <ele>594.7</ele>
        <time>2021-04-04T11:54:50Z</time>
      </trkpt>
      <trkpt lat="40.3240180" lon="-3.5045050">
        <ele>594.9</ele>
        <time>2021-04-04T11:54:51Z</time>
      </trkpt>
      <trkpt lat="40.3240110" lon="-3.5044650">
        <ele>595.2</ele>
        <time>2021-04-04T11:54:52Z</time>
      </trkpt>
      <trkpt lat="40.3240040" lon="-3.5044300">
        <ele>595.4</ele>
        <time>2021-04-04T11:54:53Z</time>
      </trkpt>
      <trkpt lat="40.3239930" lon="-3.5043940">
        <ele>595.6</ele>
        <time>2021-04-04T11:54:54Z</time>
      </trkpt>
      <trkpt lat="40.3239810" lon="-3.5043580">
        <ele>595.8</ele>
        <time>2021-04-04T11:54:55Z</time>
      </trkpt>
      <trkpt lat="40.3239640" lon="-3.5043180">
        <ele>596.1</ele>
        <time>2021-04-04T11:54:56Z</time>
      </trkpt>
      <trkpt lat="40.3239590" lon="-3.5043060">
        <ele>596.2</ele>
        <time>2021-04-04T11:54:57Z</time>
      </trkpt>
      <trkpt lat="40.3239430" lon="-3.5042610">
        <ele>596.5</ele>
        <time>2021-04-04T11:54:58Z</time>
      </trkpt>
      <trkpt lat="40.3239370" lon="-3.5042440">
        <ele>596.6</ele>
        <time>2021-04-04T11:54:59Z</time>
      </trkpt>
      <trkpt lat="40.3239270" lon="-3.5041980">
        <ele>596.9</ele>
        <time>2021-04-04T11:55:00Z</time>
      </trkpt>
      <trkpt lat="40.3239220" lon="-3.5041600">
        <ele>597.2</ele>
        <time>2021-04-04T11:55:01Z</time>
      </trkpt>
      <trkpt lat="40.3239160" lon="-3.5041120">
        <ele>597.5</ele>
        <time>2021-04-04T11:55:02Z</time>
      </trkpt>
      <trkpt lat="40.3239140" lon="-3.5040980">
        <ele>597.6</ele>
        <time>2021-04-04T11:55:03Z</time>
      </trkpt>
      <trkpt lat="40.3239090" lon="-3.5040580">
        <ele>597.8</ele>
        <time>2021-04-04T11:55:04Z</time>
      </trkpt>
      <trkpt lat="40.3239080" lon="-3.5040440">
        <ele>597.9</ele>
        <time>2021-04-04T11:55:05Z</time>
      </trkpt>
      <trkpt lat="40.3239040" lon="-3.5040010">
        <ele>598.2</ele>
        <time>2021-04-04T11:55:06Z</time>
      </trkpt>
      <trkpt lat="40.3239030" lon="-3.5039890">
        <ele>598.3</ele>
        <time>2021-04-04T11:55:07Z</time>
      </trkpt>
      <trkpt lat="40.3239040" lon="-3.5039510">
        <ele>598.6</ele>
        <time>2021-04-04T11:55:08Z</time>
      </trkpt>
      <trkpt lat="40.3239060" lon="-3.5039380">
        <ele>598.7</ele>
        <time>2021-04-04T11:55:09Z</time>
      </trkpt>
      <trkpt lat="40.3239150" lon="-3.5038990">
        <ele>598.9</ele>
        <time>2021-04-04T11:55:10Z</time>
      </trkpt>
      <trkpt lat="40.3239180" lon="-3.5038860">
        <ele>599.0</ele>
        <time>2021-04-04T11:55:11Z</time>
      </trkpt>
      <trkpt lat="40.3239230" lon="-3.5038630">
        <ele>599.2</ele>
        <time>2021-04-04T11:55:12Z</time>
      </trkpt>
      <trkpt lat="40.3239280" lon="-3.5038410">
        <ele>599.4</ele>
        <time>2021-04-04T11:55:13Z</time>
      </trkpt>
      <trkpt lat="40.3239380" lon="-3.5038040">
        <ele>599.6</ele>
        <time>2021-04-04T11:55:14Z</time>
      </trkpt>
      <trkpt lat="40.3239420" lon="-3.5037910">
        <ele>599.7</ele>
        <time>2021-04-04T11:55:15Z</time>
      </trkpt>
      <trkpt lat="40.3239590" lon="-3.5037540">
        <ele>600.0</ele>
        <time>2021-04-04T11:55:16Z</time>
      </trkpt>
      <trkpt lat="40.3239650" lon="-3.5037440">
        <ele>600.1</ele>
        <time>2021-04-04T11:55:17Z</time>
      </trkpt>
      <trkpt lat="40.3239840" lon="-3.5037120">
        <ele>600.4</ele>
        <time>2021-04-04T11:55:18Z</time>
      </trkpt>
      <trkpt lat="40.3239890" lon="-3.5037000">
        <ele>600.5</ele>
        <time>2021-04-04T11:55:19Z</time>
      </trkpt>
      <trkpt lat="40.3240090" lon="-3.5036610">
        <ele>600.8</ele>
        <time>2021-04-04T11:55:20Z</time>
      </trkpt>
      <trkpt lat="40.3240160" lon="-3.5036470">
        <ele>601.0</ele>
        <time>2021-04-04T11:55:21Z</time>
      </trkpt>
      <trkpt lat="40.3240330" lon="-3.5036050">
        <ele>601.3</ele>
        <time>2021-04-04T11:55:22Z</time>
      </trkpt>
      <trkpt lat="40.3240370" lon="-3.5035900">
        <ele>601.4</ele>
        <time>2021-04-04T11:55:23Z</time>
      </trkpt>
      <trkpt lat="40.3240490" lon="-3.5035520">
        <ele>601.7</ele>
        <time>2021-04-04T11:55:24Z</time>
      </trkpt>
      <trkpt lat="40.3240520" lon="-3.5035400">
        <ele>601.8</ele>
        <time>2021-04-04T11:55:25Z</time>
      </trkpt>
      <trkpt lat="40.3240600" lon="-3.5035040">
        <ele>602.1</ele>
        <time>2021-04-04T11:55:26Z</time>
      </trkpt>
      <trkpt lat="40.3240620" lon="-3.5034920">
        <ele>602.2</ele>
        <time>2021-04-04T11:55:27Z</time>
      </trkpt>
      <trkpt lat="40.3240760" lon="-3.5034590">
        <ele>602.5</ele>
        <time>2021-04-04T11:55:28Z</time>
      </trkpt>
      <trkpt lat="40.3240810" lon="-3.5034480">
        <ele>602.6</ele>
        <time>2021-04-04T11:55:29Z</time>
      </trkpt>
      <trkpt lat="40.3240900" lon="-3.5034280">
        <ele>602.8</ele>
        <time>2021-04-04T11:55:30Z</time>
      </trkpt>
      <trkpt lat="40.3240960" lon="-3.5034070">
        <ele>603.0</ele>
        <time>2021-04-04T11:55:31Z</time>
      </trkpt>
      <trkpt lat="40.3241020" lon="-3.5033850">
        <ele>603.2</ele>
        <time>2021-04-04T11:55:32Z</time>
      </trkpt>
      <trkpt lat="40.3241060" lon="-3.5033620">
        <ele>603.4</ele>
        <time>2021-04-04T11:55:33Z</time>
      </trkpt>
      <trkpt lat="40.3241100" lon="-3.5033420">
        <ele>603.5</ele>
        <time>2021-04-04T11:55:34Z</time>
      </trkpt>
      <trkpt lat="40.3241130" lon="-3.5033210">
        <ele>603.7</ele>
        <time>2021-04-04T11:55:35Z</time>
      </trkpt>
      <trkpt lat="40.3241150" lon="-3.5033020">
        <ele>603.8</ele>
        <time>2021-04-04T11:55:36Z</time>
      </trkpt>
      <trkpt lat="40.3241210" lon="-3.5032800">
        <ele>604.0</ele>
        <time>2021-04-04T11:55:37Z</time>
      </trkpt>
      <trkpt lat="40.3241330" lon="-3.5032470">
        <ele>604.3</ele>
        <time>2021-04-04T11:55:38Z</time>
      </trkpt>
      <trkpt lat="40.3241360" lon="-3.5032350">
        <ele>604.4</ele>
        <time>2021-04-04T11:55:39Z</time>
      </trkpt>
      <trkpt lat="40.3241470" lon="-3.5032010">
        <ele>604.6</ele>
        <time>2021-04-04T11:55:40Z</time>
      </trkpt>
      <trkpt lat="40.3241500" lon="-3.5031890">
        <ele>604.7</ele>
        <time>2021-04-04T11:55:41Z</time>
      </trkpt>
      <trkpt lat="40.3241610" lon="-3.5031520">
        <ele>605.0</ele>
        <time>2021-04-04T11:55:42Z</time>
      </trkpt>
      <trkpt lat="40.3241650" lon="-3.5031380">
        <ele>605.1</ele>
        <time>2021-04-04T11:55:43Z</time>
      </trkpt>
      <trkpt lat="40.3241740" lon="-3.5030960">
        <ele>605.4</ele>
        <time>2021-04-04T11:55:44Z</time>
      </trkpt>
      <trkpt lat="40.3241750" lon="-3.5030820">
        <ele>605.5</ele>
        <time>2021-04-04T11:55:45Z</time>
      </trkpt>
      <trkpt lat="40.3241740" lon="-3.5030370">
        <ele>605.7</ele>
        <time>2021-04-04T11:55:46Z</time>
      </trkpt>
      <trkpt lat="40.3241720" lon="-3.5030220">
        <ele>605.8</ele>
        <time>2021-04-04T11:55:47Z</time>
      </trkpt>
      <trkpt lat="40.3241730" lon="-3.5029810">
        <ele>606.1</ele>
        <time>2021-04-04T11:55:48Z</time>
      </trkpt>
      <trkpt lat="40.3241750" lon="-3.5029690">
        <ele>606.2</ele>
        <time>2021-04-04T11:55:49Z</time>
      </trkpt>
      <trkpt lat="40.3241830" lon="-3.5029270">
        <ele>606.4</ele>
        <time>2021-04-04T11:55:50Z</time>
      </trkpt>
      <trkpt lat="40.3241850" lon="-3.5029120">
        <ele>606.5</ele>
        <time>2021-04-04T11:55:51Z</time>
      </trkpt>
      <trkpt lat="40.3241880" lon="-3.5028850">
        <ele>606.6</ele>
        <time>2021-04-04T11:55:52Z</time>
      </trkpt>
      <trkpt lat="40.3241900" lon="-3.5028560">
        <ele>606.8</ele>
        <time>2021-04-04T11:55:54Z</time>
      </trkpt>
      <trkpt lat="40.3242010" lon="-3.5028110">
        <ele>607.0</ele>
        <time>2021-04-04T11:55:55Z</time>
      </trkpt>
      <trkpt lat="40.3242050" lon="-3.5027960">
        <ele>607.0</ele>
        <time>2021-04-04T11:55:56Z</time>
      </trkpt>
      <trkpt lat="40.3242230" lon="-3.5027570">
        <ele>607.2</ele>
        <time>2021-04-04T11:55:57Z</time>
      </trkpt>
      <trkpt lat="40.3242290" lon="-3.5027430">
        <ele>607.2</ele>
        <time>2021-04-04T11:55:58Z</time>
      </trkpt>
      <trkpt lat="40.3242500" lon="-3.5027060">
        <ele>607.4</ele>
        <time>2021-04-04T11:55:59Z</time>
      </trkpt>
      <trkpt lat="40.3242580" lon="-3.5026940">
        <ele>607.4</ele>
        <time>2021-04-04T11:56:00Z</time>
      </trkpt>
      <trkpt lat="40.3242820" lon="-3.5026580">
        <ele>607.6</ele>
        <time>2021-04-04T11:56:01Z</time>
      </trkpt>
      <trkpt lat="40.3242900" lon="-3.5026440">
        <ele>607.6</ele>
        <time>2021-04-04T11:56:02Z</time>
      </trkpt>
      <trkpt lat="40.3243100" lon="-3.5026000">
        <ele>607.7</ele>
        <time>2021-04-04T11:56:03Z</time>
      </trkpt>
      <trkpt lat="40.3243150" lon="-3.5025850">
        <ele>607.8</ele>
        <time>2021-04-04T11:56:04Z</time>
      </trkpt>
      <trkpt lat="40.3243320" lon="-3.5025480">
        <ele>607.9</ele>
        <time>2021-04-04T11:56:05Z</time>
      </trkpt>
      <trkpt lat="40.3243370" lon="-3.5025360">
        <ele>607.9</ele>
        <time>2021-04-04T11:56:06Z</time>
      </trkpt>
      <trkpt lat="40.3243460" lon="-3.5024930">
        <ele>608.0</ele>
        <time>2021-04-04T11:56:07Z</time>
      </trkpt>
      <trkpt lat="40.3243480" lon="-3.5024790">
        <ele>608.0</ele>
        <time>2021-04-04T11:56:08Z</time>
      </trkpt>
      <trkpt lat="40.3243610" lon="-3.5024340">
        <ele>608.1</ele>
        <time>2021-04-04T11:56:09Z</time>
      </trkpt>
      <trkpt lat="40.3243670" lon="-3.5024170">
        <ele>608.1</ele>
        <time>2021-04-04T11:56:10Z</time>
      </trkpt>
      <trkpt lat="40.3243800" lon="-3.5023830">
        <ele>608.1</ele>
        <time>2021-04-04T11:56:11Z</time>
      </trkpt>
      <trkpt lat="40.3243990" lon="-3.5023490">
        <ele>608.2</ele>
        <time>2021-04-04T11:56:12Z</time>
      </trkpt>
      <trkpt lat="40.3244120" lon="-3.5023110">
        <ele>608.2</ele>
        <time>2021-04-04T11:56:13Z</time>
      </trkpt>
      <trkpt lat="40.3244260" lon="-3.5022700">
        <ele>608.2</ele>
        <time>2021-04-04T11:56:14Z</time>
      </trkpt>
      <trkpt lat="40.3244380" lon="-3.5022280">
        <ele>608.3</ele>
        <time>2021-04-04T11:56:15Z</time>
      </trkpt>
      <trkpt lat="40.3244440" lon="-3.5021850">
        <ele>608.3</ele>
        <time>2021-04-04T11:56:16Z</time>
      </trkpt>
      <trkpt lat="40.3244470" lon="-3.5021340">
        <ele>608.3</ele>
        <time>2021-04-04T11:56:17Z</time>
      </trkpt>
      <trkpt lat="40.3244450" lon="-3.5020800">
        <ele>608.2</ele>
        <time>2021-04-04T11:56:18Z</time>
      </trkpt>
      <trkpt lat="40.3244410" lon="-3.5020260">
        <ele>608.0</ele>
        <time>2021-04-04T11:56:19Z</time>
      </trkpt>
      <trkpt lat="40.3244320" lon="-3.5019790">
        <ele>607.8</ele>
        <time>2021-04-04T11:56:20Z</time>
      </trkpt>
      <trkpt lat="40.3244240" lon="-3.5019380">
        <ele>607.7</ele>
        <time>2021-04-04T11:56:21Z</time>
      </trkpt>
      <trkpt lat="40.3244150" lon="-3.5018900">
        <ele>607.4</ele>
        <time>2021-04-04T11:56:22Z</time>
      </trkpt>
      <trkpt lat="40.3243950" lon="-3.5018100">
        <ele>607.1</ele>
        <time>2021-04-04T11:56:23Z</time>
      </trkpt>
      <trkpt lat="40.3243800" lon="-3.5017540">
        <ele>606.8</ele>
        <time>2021-04-04T11:56:24Z</time>
      </trkpt>
      <trkpt lat="40.3244070" lon="-3.5016960">
        <ele>606.5</ele>
        <time>2021-04-04T11:56:25Z</time>
      </trkpt>
      <trkpt lat="40.3244500" lon="-3.5016160">
        <ele>606.0</ele>
        <time>2021-04-04T11:56:26Z</time>
      </trkpt>
      <trkpt lat="40.3244590" lon="-3.5015510">
        <ele>605.7</ele>
        <time>2021-04-04T11:56:27Z</time>
      </trkpt>
      <trkpt lat="40.3244920" lon="-3.5014760">
        <ele>605.3</ele>
        <time>2021-04-04T11:56:28Z</time>
      </trkpt>
      <trkpt lat="40.3245220" lon="-3.5014130">
        <ele>605.0</ele>
        <time>2021-04-04T11:56:29Z</time>
      </trkpt>
      <trkpt lat="40.3245290" lon="-3.5013290">
        <ele>604.6</ele>
        <time>2021-04-04T11:56:30Z</time>
      </trkpt>
      <trkpt lat="40.3245600" lon="-3.5012730">
        <ele>604.2</ele>
        <time>2021-04-04T11:56:31Z</time>
      </trkpt>
      <trkpt lat="40.3246000" lon="-3.5012330">
        <ele>604.0</ele>
        <time>2021-04-04T11:56:32Z</time>
      </trkpt>
      <trkpt lat="40.3246370" lon="-3.5011730">
        <ele>603.7</ele>
        <time>2021-04-04T11:56:33Z</time>
      </trkpt>
      <trkpt lat="40.3246620" lon="-3.5011070">
        <ele>603.4</ele>
        <time>2021-04-04T11:56:34Z</time>
      </trkpt>
      <trkpt lat="40.3247050" lon="-3.5010650">
        <ele>603.2</ele>
        <time>2021-04-04T11:56:35Z</time>
      </trkpt>
      <trkpt lat="40.3247620" lon="-3.5010480">
        <ele>602.9</ele>
        <time>2021-04-04T11:56:36Z</time>
      </trkpt>
      <trkpt lat="40.3248140" lon="-3.5010270">
        <ele>602.6</ele>
        <time>2021-04-04T11:56:37Z</time>
      </trkpt>
      <trkpt lat="40.3248810" lon="-3.5010520">
        <ele>602.2</ele>
        <time>2021-04-04T11:56:38Z</time>
      </trkpt>
      <trkpt lat="40.3249310" lon="-3.5010760">
        <ele>602.0</ele>
        <time>2021-04-04T11:56:39Z</time>
      </trkpt>
      <trkpt lat="40.3249720" lon="-3.5010970">
        <ele>601.9</ele>
        <time>2021-04-04T11:56:40Z</time>
      </trkpt>
      <trkpt lat="40.3250350" lon="-3.5011220">
        <ele>601.7</ele>
        <time>2021-04-04T11:56:41Z</time>
      </trkpt>
      <trkpt lat="40.3250850" lon="-3.5011320">
        <ele>601.5</ele>
        <time>2021-04-04T11:56:42Z</time>
      </trkpt>
      <trkpt lat="40.3251330" lon="-3.5011630">
        <ele>601.3</ele>
        <time>2021-04-04T11:56:43Z</time>
      </trkpt>
      <trkpt lat="40.3251960" lon="-3.5011870">
        <ele>601.1</ele>
        <time>2021-04-04T11:56:44Z</time>
      </trkpt>
      <trkpt lat="40.3252490" lon="-3.5012180">
        <ele>600.9</ele>
        <time>2021-04-04T11:56:45Z</time>
      </trkpt>
      <trkpt lat="40.3253100" lon="-3.5012240">
        <ele>600.7</ele>
        <time>2021-04-04T11:56:46Z</time>
      </trkpt>
      <trkpt lat="40.3253670" lon="-3.5012330">
        <ele>600.4</ele>
        <time>2021-04-04T11:56:47Z</time>
      </trkpt>
      <trkpt lat="40.3254220" lon="-3.5012470">
        <ele>600.2</ele>
        <time>2021-04-04T11:56:48Z</time>
      </trkpt>
      <trkpt lat="40.3254910" lon="-3.5012720">
        <ele>599.8</ele>
        <time>2021-04-04T11:56:49Z</time>
      </trkpt>
      <trkpt lat="40.3255550" lon="-3.5012940">
        <ele>599.4</ele>
        <time>2021-04-04T11:56:50Z</time>
      </trkpt>
      <trkpt lat="40.3256300" lon="-3.5013100">
        <ele>598.8</ele>
        <time>2021-04-04T11:56:51Z</time>
      </trkpt>
      <trkpt lat="40.3257090" lon="-3.5013140">
        <ele>598.2</ele>
        <time>2021-04-04T11:56:52Z</time>
      </trkpt>
      <trkpt lat="40.3257890" lon="-3.5013260">
        <ele>597.5</ele>
        <time>2021-04-04T11:56:53Z</time>
      </trkpt>
      <trkpt lat="40.3258450" lon="-3.5013090">
        <ele>597.0</ele>
        <time>2021-04-04T11:56:54Z</time>
      </trkpt>
      <trkpt lat="40.3259310" lon="-3.5013010">
        <ele>596.3</ele>
        <time>2021-04-04T11:56:55Z</time>
      </trkpt>
      <trkpt lat="40.3260150" lon="-3.5013080">
        <ele>595.5</ele>
        <time>2021-04-04T11:56:56Z</time>
      </trkpt>
      <trkpt lat="40.3260860" lon="-3.5013160">
        <ele>594.9</ele>
        <time>2021-04-04T11:56:57Z</time>
      </trkpt>
      <trkpt lat="40.3261470" lon="-3.5012960">
        <ele>594.4</ele>
        <time>2021-04-04T11:56:58Z</time>
      </trkpt>
      <trkpt lat="40.3262040" lon="-3.5012750">
        <ele>593.9</ele>
        <time>2021-04-04T11:56:59Z</time>
      </trkpt>
      <trkpt lat="40.3262610" lon="-3.5012620">
        <ele>593.5</ele>
        <time>2021-04-04T11:57:00Z</time>
      </trkpt>
      <trkpt lat="40.3263190" lon="-3.5012330">
        <ele>593.0</ele>
        <time>2021-04-04T11:57:01Z</time>
      </trkpt>
      <trkpt lat="40.3263860" lon="-3.5012290">
        <ele>592.4</ele>
        <time>2021-04-04T11:57:02Z</time>
      </trkpt>
      <trkpt lat="40.3264440" lon="-3.5011900">
        <ele>591.9</ele>
        <time>2021-04-04T11:57:03Z</time>
      </trkpt>
      <trkpt lat="40.3264870" lon="-3.5011390">
        <ele>591.4</ele>
        <time>2021-04-04T11:57:04Z</time>
      </trkpt>
      <trkpt lat="40.3265210" lon="-3.5010700">
        <ele>590.7</ele>
        <time>2021-04-04T11:57:05Z</time>
      </trkpt>
      <trkpt lat="40.3265560" lon="-3.5009730">
        <ele>590.0</ele>
        <time>2021-04-04T11:57:06Z</time>
      </trkpt>
      <trkpt lat="40.3265930" lon="-3.5008990">
        <ele>589.4</ele>
        <time>2021-04-04T11:57:07Z</time>
      </trkpt>
      <trkpt lat="40.3266010" lon="-3.5007610">
        <ele>588.6</ele>
        <time>2021-04-04T11:57:08Z</time>
      </trkpt>
      <trkpt lat="40.3265800" lon="-3.5006370">
        <ele>588.0</ele>
        <time>2021-04-04T11:57:09Z</time>
      </trkpt>
      <trkpt lat="40.3265930" lon="-3.5005130">
        <ele>587.6</ele>
        <time>2021-04-04T11:57:10Z</time>
      </trkpt>
      <trkpt lat="40.3265800" lon="-3.5003920">
        <ele>587.2</ele>
        <time>2021-04-04T11:57:11Z</time>
      </trkpt>
      <trkpt lat="40.3265830" lon="-3.5002900">
        <ele>587.0</ele>
        <time>2021-04-04T11:57:12Z</time>
      </trkpt>
      <trkpt lat="40.3265690" lon="-3.5001500">
        <ele>586.9</ele>
        <time>2021-04-04T11:57:13Z</time>
      </trkpt>
      <trkpt lat="40.3265570" lon="-3.5000480">
        <ele>586.9</ele>
        <time>2021-04-04T11:57:14Z</time>
      </trkpt>
      <trkpt lat="40.3265580" lon="-3.4999490">
        <ele>586.9</ele>
        <time>2021-04-04T11:57:15Z</time>
      </trkpt>
      <trkpt lat="40.3265910" lon="-3.4998320">
        <ele>587.1</ele>
        <time>2021-04-04T11:57:16Z</time>
      </trkpt>
      <trkpt lat="40.3266370" lon="-3.4997080">
        <ele>587.6</ele>
        <time>2021-04-04T11:57:17Z</time>
      </trkpt>
      <trkpt lat="40.3266330" lon="-3.4996220">
        <ele>588.0</ele>
        <time>2021-04-04T11:57:18Z</time>
      </trkpt>
      <trkpt lat="40.3266150" lon="-3.4995590">
        <ele>588.4</ele>
        <time>2021-04-04T11:57:19Z</time>
      </trkpt>
      <trkpt lat="40.3266150" lon="-3.4994930">
        <ele>588.9</ele>
        <time>2021-04-04T11:57:20Z</time>
      </trkpt>
      <trkpt lat="40.3266300" lon="-3.4994170">
        <ele>589.5</ele>
        <time>2021-04-04T11:57:21Z</time>
      </trkpt>
      <trkpt lat="40.3266200" lon="-3.4993510">
        <ele>590.0</ele>
        <time>2021-04-04T11:57:22Z</time>
      </trkpt>
      <trkpt lat="40.3266250" lon="-3.4993010">
        <ele>590.5</ele>
        <time>2021-04-04T11:57:23Z</time>
      </trkpt>
      <trkpt lat="40.3266140" lon="-3.4992480">
        <ele>590.9</ele>
        <time>2021-04-04T11:57:24Z</time>
      </trkpt>
      <trkpt lat="40.3266160" lon="-3.4991980">
        <ele>591.4</ele>
        <time>2021-04-04T11:57:25Z</time>
      </trkpt>
      <trkpt lat="40.3266130" lon="-3.4991820">
        <ele>591.5</ele>
        <time>2021-04-04T11:57:26Z</time>
      </trkpt>
      <trkpt lat="40.3266130" lon="-3.4991370">
        <ele>592.0</ele>
        <time>2021-04-04T11:57:27Z</time>
      </trkpt>
      <trkpt lat="40.3266180" lon="-3.4991190">
        <ele>592.1</ele>
        <time>2021-04-04T11:57:28Z</time>
      </trkpt>
      <trkpt lat="40.3265950" lon="-3.4990930">
        <ele>592.5</ele>
        <time>2021-04-04T11:57:29Z</time>
      </trkpt>
      <trkpt lat="40.3265830" lon="-3.4990740">
        <ele>592.7</ele>
        <time>2021-04-04T11:57:30Z</time>
      </trkpt>
      <trkpt lat="40.3265790" lon="-3.4990560">
        <ele>592.9</ele>
        <time>2021-04-04T11:57:31Z</time>
      </trkpt>
      <trkpt lat="40.3265710" lon="-3.4990390">
        <ele>593.1</ele>
        <time>2021-04-04T11:57:32Z</time>
      </trkpt>
      <trkpt lat="40.3265520" lon="-3.4990070">
        <ele>593.5</ele>
        <time>2021-04-04T11:57:33Z</time>
      </trkpt>
      <trkpt lat="40.3265420" lon="-3.4989970">
        <ele>593.6</ele>
        <time>2021-04-04T11:57:34Z</time>
      </trkpt>
      <trkpt lat="40.3265170" lon="-3.4989750">
        <ele>594.0</ele>
        <time>2021-04-04T11:57:35Z</time>
      </trkpt>
      <trkpt lat="40.3265080" lon="-3.4989710">
        <ele>594.1</ele>
        <time>2021-04-04T11:57:36Z</time>
      </trkpt>
      <trkpt lat="40.3264940" lon="-3.4989600">
        <ele>594.3</ele>
        <time>2021-04-04T11:57:37Z</time>
      </trkpt>
      <trkpt lat="40.3264820" lon="-3.4989480">
        <ele>594.5</ele>
        <time>2021-04-04T11:57:38Z</time>
      </trkpt>
      <trkpt lat="40.3264690" lon="-3.4989320">
        <ele>594.7</ele>
        <time>2021-04-04T11:57:39Z</time>
      </trkpt>
      <trkpt lat="40.3264540" lon="-3.4989170">
        <ele>594.9</ele>
        <time>2021-04-04T11:57:40Z</time>
      </trkpt>
      <trkpt lat="40.3264400" lon="-3.4989040">
        <ele>595.1</ele>
        <time>2021-04-04T11:57:41Z</time>
      </trkpt>
      <trkpt lat="40.3264260" lon="-3.4988950">
        <ele>595.3</ele>
        <time>2021-04-04T11:57:42Z</time>
      </trkpt>
      <trkpt lat="40.3264140" lon="-3.4988900">
        <ele>595.4</ele>
        <time>2021-04-04T11:57:43Z</time>
      </trkpt>
      <trkpt lat="40.3263990" lon="-3.4988820">
        <ele>595.6</ele>
        <time>2021-04-04T11:57:44Z</time>
      </trkpt>
      <trkpt lat="40.3263730" lon="-3.4988600">
        <ele>596.0</ele>
        <time>2021-04-04T11:57:45Z</time>
      </trkpt>
      <trkpt lat="40.3263630" lon="-3.4988530">
        <ele>596.1</ele>
        <time>2021-04-04T11:57:46Z</time>
      </trkpt>
      <trkpt lat="40.3263480" lon="-3.4988400">
        <ele>596.4</ele>
        <time>2021-04-04T11:57:47Z</time>
      </trkpt>
      <trkpt lat="40.3263360" lon="-3.4988280">
        <ele>596.5</ele>
        <time>2021-04-04T11:57:48Z</time>
      </trkpt>
      <trkpt lat="40.3263250" lon="-3.4988170">
        <ele>596.7</ele>
        <time>2021-04-04T11:57:49Z</time>
      </trkpt>
      <trkpt lat="40.3263140" lon="-3.4988070">
        <ele>596.8</ele>
        <time>2021-04-04T11:57:50Z</time>
      </trkpt>
      <trkpt lat="40.3262960" lon="-3.4987910">
        <ele>597.1</ele>
        <time>2021-04-04T11:57:51Z</time>
      </trkpt>
      <trkpt lat="40.3262890" lon="-3.4987860">
        <ele>597.2</ele>
        <time>2021-04-04T11:57:52Z</time>
      </trkpt>
      <trkpt lat="40.3262820" lon="-3.4987800">
        <ele>597.3</ele>
        <time>2021-04-04T11:57:53Z</time>
      </trkpt>
      <trkpt lat="40.3262720" lon="-3.4987660">
        <ele>597.5</ele>
        <time>2021-04-04T11:57:54Z</time>
      </trkpt>
      <trkpt lat="40.3262630" lon="-3.4987440">
        <ele>597.7</ele>
        <time>2021-04-04T11:57:55Z</time>
      </trkpt>
      <trkpt lat="40.3262540" lon="-3.4987270">
        <ele>597.9</ele>
        <time>2021-04-04T11:57:56Z</time>
      </trkpt>
      <trkpt lat="40.3262460" lon="-3.4987130">
        <ele>598.0</ele>
        <time>2021-04-04T11:57:57Z</time>
      </trkpt>
      <trkpt lat="40.3262350" lon="-3.4986970">
        <ele>598.2</ele>
        <time>2021-04-04T11:57:58Z</time>
      </trkpt>
      <trkpt lat="40.3262230" lon="-3.4986780">
        <ele>598.4</ele>
        <time>2021-04-04T11:57:59Z</time>
      </trkpt>
      <trkpt lat="40.3262110" lon="-3.4986610">
        <ele>598.6</ele>
        <time>2021-04-04T11:58:00Z</time>
      </trkpt>
      <trkpt lat="40.3262000" lon="-3.4986490">
        <ele>598.8</ele>
        <time>2021-04-04T11:58:01Z</time>
      </trkpt>
      <trkpt lat="40.3261880" lon="-3.4986380">
        <ele>599.0</ele>
        <time>2021-04-04T11:58:02Z</time>
      </trkpt>
      <trkpt lat="40.3261770" lon="-3.4986260">
        <ele>599.2</ele>
        <time>2021-04-04T11:58:03Z</time>
      </trkpt>
      <trkpt lat="40.3261650" lon="-3.4986120">
        <ele>599.3</ele>
        <time>2021-04-04T11:58:04Z</time>
      </trkpt>
      <trkpt lat="40.3261520" lon="-3.4985980">
        <ele>599.6</ele>
        <time>2021-04-04T11:58:05Z</time>
      </trkpt>
      <trkpt lat="40.3261390" lon="-3.4985870">
        <ele>599.7</ele>
        <time>2021-04-04T11:58:06Z</time>
      </trkpt>
      <trkpt lat="40.3261250" lon="-3.4985780">
        <ele>599.9</ele>
        <time>2021-04-04T11:58:07Z</time>
      </trkpt>
      <trkpt lat="40.3261100" lon="-3.4985690">
        <ele>600.1</ele>
        <time>2021-04-04T11:58:08Z</time>
      </trkpt>
      <trkpt lat="40.3260930" lon="-3.4985590">
        <ele>600.4</ele>
        <time>2021-04-04T11:58:09Z</time>
      </trkpt>
      <trkpt lat="40.3260780" lon="-3.4985490">
        <ele>600.6</ele>
        <time>2021-04-04T11:58:10Z</time>
      </trkpt>
      <trkpt lat="40.3260670" lon="-3.4985380">
        <ele>600.8</ele>
        <time>2021-04-04T11:58:11Z</time>
      </trkpt>
      <trkpt lat="40.3260570" lon="-3.4985250">
        <ele>600.9</ele>
        <time>2021-04-04T11:58:12Z</time>
      </trkpt>
      <trkpt lat="40.3260460" lon="-3.4985110">
        <ele>601.1</ele>
        <time>2021-04-04T11:58:13Z</time>
      </trkpt>
      <trkpt lat="40.3260320" lon="-3.4984810">
        <ele>601.4</ele>
        <time>2021-04-04T11:58:14Z</time>
      </trkpt>
      <trkpt lat="40.3260260" lon="-3.4984700">
        <ele>601.6</ele>
        <time>2021-04-04T11:58:15Z</time>
      </trkpt>
      <trkpt lat="40.3260060" lon="-3.4984400">
        <ele>601.9</ele>
        <time>2021-04-04T11:58:16Z</time>
      </trkpt>
      <trkpt lat="40.3259980" lon="-3.4984300">
        <ele>602.1</ele>
        <time>2021-04-04T11:58:17Z</time>
      </trkpt>
      <trkpt lat="40.3259730" lon="-3.4984050">
        <ele>602.5</ele>
        <time>2021-04-04T11:58:18Z</time>
      </trkpt>
      <trkpt lat="40.3259640" lon="-3.4983980">
        <ele>602.6</ele>
        <time>2021-04-04T11:58:19Z</time>
      </trkpt>
      <trkpt lat="40.3259390" lon="-3.4983720">
        <ele>603.0</ele>
        <time>2021-04-04T11:58:20Z</time>
      </trkpt>
      <trkpt lat="40.3259310" lon="-3.4983610">
        <ele>603.1</ele>
        <time>2021-04-04T11:58:21Z</time>
      </trkpt>
      <trkpt lat="40.3259180" lon="-3.4983420">
        <ele>603.3</ele>
        <time>2021-04-04T11:58:22Z</time>
      </trkpt>
      <trkpt lat="40.3259080" lon="-3.4983270">
        <ele>603.5</ele>
        <time>2021-04-04T11:58:23Z</time>
      </trkpt>
      <trkpt lat="40.3258930" lon="-3.4982970">
        <ele>603.8</ele>
        <time>2021-04-04T11:58:24Z</time>
      </trkpt>
      <trkpt lat="40.3258870" lon="-3.4982880">
        <ele>603.9</ele>
        <time>2021-04-04T11:58:25Z</time>
      </trkpt>
      <trkpt lat="40.3258680" lon="-3.4982560">
        <ele>604.2</ele>
        <time>2021-04-04T11:58:26Z</time>
      </trkpt>
      <trkpt lat="40.3258600" lon="-3.4982470">
        <ele>604.3</ele>
        <time>2021-04-04T11:58:27Z</time>
      </trkpt>
      <trkpt lat="40.3258330" lon="-3.4982200">
        <ele>604.7</ele>
        <time>2021-04-04T11:58:28Z</time>
      </trkpt>
      <trkpt lat="40.3258240" lon="-3.4982110">
        <ele>604.8</ele>
        <time>2021-04-04T11:58:29Z</time>
      </trkpt>
      <trkpt lat="40.3258090" lon="-3.4981960">
        <ele>605.0</ele>
        <time>2021-04-04T11:58:30Z</time>
      </trkpt>
      <trkpt lat="40.3257970" lon="-3.4981840">
        <ele>605.1</ele>
        <time>2021-04-04T11:58:31Z</time>
      </trkpt>
      <trkpt lat="40.3257800" lon="-3.4981560">
        <ele>605.4</ele>
        <time>2021-04-04T11:58:32Z</time>
      </trkpt>
      <trkpt lat="40.3257740" lon="-3.4981460">
        <ele>605.5</ele>
        <time>2021-04-04T11:58:33Z</time>
      </trkpt>
      <trkpt lat="40.3257650" lon="-3.4981290">
        <ele>605.7</ele>
        <time>2021-04-04T11:58:34Z</time>
      </trkpt>
      <trkpt lat="40.3257580" lon="-3.4981150">
        <ele>605.8</ele>
        <time>2021-04-04T11:58:35Z</time>
      </trkpt>
      <trkpt lat="40.3257520" lon="-3.4980980">
        <ele>605.9</ele>
        <time>2021-04-04T11:58:36Z</time>
      </trkpt>
      <trkpt lat="40.3257500" lon="-3.4980780">
        <ele>606.1</ele>
        <time>2021-04-04T11:58:37Z</time>
      </trkpt>
      <trkpt lat="40.3257470" lon="-3.4980600">
        <ele>606.2</ele>
        <time>2021-04-04T11:58:38Z</time>
      </trkpt>
      <trkpt lat="40.3257410" lon="-3.4980430">
        <ele>606.4</ele>
        <time>2021-04-04T11:58:39Z</time>
      </trkpt>
      <trkpt lat="40.3257340" lon="-3.4980290">
        <ele>606.5</ele>
        <time>2021-04-04T11:58:40Z</time>
      </trkpt>
      <trkpt lat="40.3257280" lon="-3.4980110">
        <ele>606.6</ele>
        <time>2021-04-04T11:58:41Z</time>
      </trkpt>
      <trkpt lat="40.3257220" lon="-3.4979750">
        <ele>606.9</ele>
        <time>2021-04-04T11:58:42Z</time>
      </trkpt>
      <trkpt lat="40.3257190" lon="-3.4979640">
        <ele>607.0</ele>
        <time>2021-04-04T11:58:43Z</time>
      </trkpt>
      <trkpt lat="40.3257130" lon="-3.4979430">
        <ele>607.1</ele>
        <time>2021-04-04T11:58:44Z</time>
      </trkpt>
      <trkpt lat="40.3257100" lon="-3.4979210">
        <ele>607.3</ele>
        <time>2021-04-04T11:58:45Z</time>
      </trkpt>
      <trkpt lat="40.3257090" lon="-3.4978970">
        <ele>607.4</ele>
        <time>2021-04-04T11:58:46Z</time>
      </trkpt>
      <trkpt lat="40.3257130" lon="-3.4978740">
        <ele>607.6</ele>
        <time>2021-04-04T11:58:47Z</time>
      </trkpt>
      <trkpt lat="40.3257120" lon="-3.4978500">
        <ele>607.8</ele>
        <time>2021-04-04T11:58:48Z</time>
      </trkpt>
      <trkpt lat="40.3257050" lon="-3.4978300">
        <ele>607.9</ele>
        <time>2021-04-04T11:58:49Z</time>
      </trkpt>
      <trkpt lat="40.3257020" lon="-3.4978110">
        <ele>608.0</ele>
        <time>2021-04-04T11:58:50Z</time>
      </trkpt>
      <trkpt lat="40.3256950" lon="-3.4977910">
        <ele>608.1</ele>
        <time>2021-04-04T11:58:51Z</time>
      </trkpt>
      <trkpt lat="40.3256880" lon="-3.4977730">
        <ele>608.3</ele>
        <time>2021-04-04T11:58:52Z</time>
      </trkpt>
      <trkpt lat="40.3256820" lon="-3.4977570">
        <ele>608.4</ele>
        <time>2021-04-04T11:58:53Z</time>
      </trkpt>
      <trkpt lat="40.3256750" lon="-3.4977390">
        <ele>608.5</ele>
        <time>2021-04-04T11:58:54Z</time>
      </trkpt>
      <trkpt lat="40.3256670" lon="-3.4977180">
        <ele>608.6</ele>
        <time>2021-04-04T11:58:55Z</time>
      </trkpt>
      <trkpt lat="40.3256500" lon="-3.4976880">
        <ele>608.9</ele>
        <time>2021-04-04T11:58:56Z</time>
      </trkpt>
      <trkpt lat="40.3256440" lon="-3.4976780">
        <ele>608.9</ele>
        <time>2021-04-04T11:58:57Z</time>
      </trkpt>
      <trkpt lat="40.3256320" lon="-3.4976420">
        <ele>609.2</ele>
        <time>2021-04-04T11:58:58Z</time>
      </trkpt>
      <trkpt lat="40.3256280" lon="-3.4976300">
        <ele>609.2</ele>
        <time>2021-04-04T11:58:59Z</time>
      </trkpt>
      <trkpt lat="40.3256150" lon="-3.4975940">
        <ele>609.5</ele>
        <time>2021-04-04T11:59:00Z</time>
      </trkpt>
      <trkpt lat="40.3256100" lon="-3.4975830">
        <ele>609.5</ele>
        <time>2021-04-04T11:59:01Z</time>
      </trkpt>
      <trkpt lat="40.3255990" lon="-3.4975640">
        <ele>609.7</ele>
        <time>2021-04-04T11:59:02Z</time>
      </trkpt>
      <trkpt lat="40.3255900" lon="-3.4975440">
        <ele>609.8</ele>
        <time>2021-04-04T11:59:03Z</time>
      </trkpt>
      <trkpt lat="40.3255800" lon="-3.4975110">
        <ele>610.0</ele>
        <time>2021-04-04T11:59:04Z</time>
      </trkpt>
      <trkpt lat="40.3255770" lon="-3.4975000">
        <ele>610.1</ele>
        <time>2021-04-04T11:59:05Z</time>
      </trkpt>
      <trkpt lat="40.3255740" lon="-3.4974600">
        <ele>610.3</ele>
        <time>2021-04-04T11:59:06Z</time>
      </trkpt>
      <trkpt lat="40.3255740" lon="-3.4974460">
        <ele>610.3</ele>
        <time>2021-04-04T11:59:07Z</time>
      </trkpt>
      <trkpt lat="40.3255770" lon="-3.4974090">
        <ele>610.5</ele>
        <time>2021-04-04T11:59:08Z</time>
      </trkpt>
      <trkpt lat="40.3255780" lon="-3.4973960">
        <ele>610.6</ele>
        <time>2021-04-04T11:59:09Z</time>
      </trkpt>
      <trkpt lat="40.3255760" lon="-3.4973560">
        <ele>610.8</ele>
        <time>2021-04-04T11:59:10Z</time>
      </trkpt>
      <trkpt lat="40.3255750" lon="-3.4973440">
        <ele>610.8</ele>
        <time>2021-04-04T11:59:11Z</time>
      </trkpt>
      <trkpt lat="40.3255720" lon="-3.4973200">
        <ele>611.0</ele>
        <time>2021-04-04T11:59:12Z</time>
      </trkpt>
      <trkpt lat="40.3255670" lon="-3.4972980">
        <ele>611.1</ele>
        <time>2021-04-04T11:59:13Z</time>
      </trkpt>
      <trkpt lat="40.3255610" lon="-3.4972770">
        <ele>611.2</ele>
        <time>2021-04-04T11:59:14Z</time>
      </trkpt>
      <trkpt lat="40.3255610" lon="-3.4972560">
        <ele>611.3</ele>
        <time>2021-04-04T11:59:15Z</time>
      </trkpt>
      <trkpt lat="40.3255650" lon="-3.4972360">
        <ele>611.4</ele>
        <time>2021-04-04T11:59:16Z</time>
      </trkpt>
      <trkpt lat="40.3255730" lon="-3.4972130">
        <ele>611.5</ele>
        <time>2021-04-04T11:59:17Z</time>
      </trkpt>
      <trkpt lat="40.3255880" lon="-3.4971790">
        <ele>611.7</ele>
        <time>2021-04-04T11:59:18Z</time>
      </trkpt>
      <trkpt lat="40.3255920" lon="-3.4971670">
        <ele>611.7</ele>
        <time>2021-04-04T11:59:19Z</time>
      </trkpt>
      <trkpt lat="40.3256050" lon="-3.4971310">
        <ele>611.9</ele>
        <time>2021-04-04T11:59:20Z</time>
      </trkpt>
      <trkpt lat="40.3256090" lon="-3.4971180">
        <ele>611.9</ele>
        <time>2021-04-04T11:59:21Z</time>
      </trkpt>
      <trkpt lat="40.3256300" lon="-3.4970790">
        <ele>612.2</ele>
        <time>2021-04-04T11:59:22Z</time>
      </trkpt>
      <trkpt lat="40.3256360" lon="-3.4970650">
        <ele>612.2</ele>
        <time>2021-04-04T11:59:23Z</time>
      </trkpt>
      <trkpt lat="40.3256500" lon="-3.4970260">
        <ele>612.4</ele>
        <time>2021-04-04T11:59:24Z</time>
      </trkpt>
      <trkpt lat="40.3256530" lon="-3.4970130">
        <ele>612.4</ele>
        <time>2021-04-04T11:59:25Z</time>
      </trkpt>
      <trkpt lat="40.3256570" lon="-3.4969730">
        <ele>612.6</ele>
        <time>2021-04-04T11:59:26Z</time>
      </trkpt>
      <trkpt lat="40.3256570" lon="-3.4969600">
        <ele>612.7</ele>
        <time>2021-04-04T11:59:27Z</time>
      </trkpt>
      <trkpt lat="40.3256530" lon="-3.4969170">
        <ele>612.8</ele>
        <time>2021-04-04T11:59:28Z</time>
      </trkpt>
      <trkpt lat="40.3256510" lon="-3.4969030">
        <ele>612.9</ele>
        <time>2021-04-04T11:59:29Z</time>
      </trkpt>
      <trkpt lat="40.3256410" lon="-3.4968590">
        <ele>613.0</ele>
        <time>2021-04-04T11:59:30Z</time>
      </trkpt>
      <trkpt lat="40.3256380" lon="-3.4968440">
        <ele>613.1</ele>
        <time>2021-04-04T11:59:31Z</time>
      </trkpt>
      <trkpt lat="40.3256380" lon="-3.4967990">
        <ele>613.2</ele>
        <time>2021-04-04T11:59:32Z</time>
      </trkpt>
      <trkpt lat="40.3256400" lon="-3.4967840">
        <ele>613.3</ele>
        <time>2021-04-04T11:59:33Z</time>
      </trkpt>
      <trkpt lat="40.3256520" lon="-3.4967390">
        <ele>613.4</ele>
        <time>2021-04-04T11:59:34Z</time>
      </trkpt>
      <trkpt lat="40.3256560" lon="-3.4967240">
        <ele>613.5</ele>
        <time>2021-04-04T11:59:35Z</time>
      </trkpt>
      <trkpt lat="40.3256680" lon="-3.4966810">
        <ele>613.6</ele>
        <time>2021-04-04T11:59:36Z</time>
      </trkpt>
      <trkpt lat="40.3256710" lon="-3.4966660">
        <ele>613.7</ele>
        <time>2021-04-04T11:59:37Z</time>
      </trkpt>
      <trkpt lat="40.3256790" lon="-3.4966200">
        <ele>613.8</ele>
        <time>2021-04-04T11:59:38Z</time>
      </trkpt>
      <trkpt lat="40.3256820" lon="-3.4966040">
        <ele>613.9</ele>
        <time>2021-04-04T11:59:39Z</time>
      </trkpt>
      <trkpt lat="40.3256870" lon="-3.4965570">
        <ele>614.0</ele>
        <time>2021-04-04T11:59:40Z</time>
      </trkpt>
      <trkpt lat="40.3256900" lon="-3.4965420">
        <ele>614.1</ele>
        <time>2021-04-04T11:59:41Z</time>
      </trkpt>
      <trkpt lat="40.3256960" lon="-3.4964930">
        <ele>614.2</ele>
        <time>2021-04-04T11:59:42Z</time>
      </trkpt>
      <trkpt lat="40.3256990" lon="-3.4964760">
        <ele>614.3</ele>
        <time>2021-04-04T11:59:43Z</time>
      </trkpt>
      <trkpt lat="40.3257030" lon="-3.4964390">
        <ele>614.4</ele>
        <time>2021-04-04T11:59:44Z</time>
      </trkpt>
      <trkpt lat="40.3257150" lon="-3.4964040">
        <ele>614.5</ele>
        <time>2021-04-04T11:59:45Z</time>
      </trkpt>
      <trkpt lat="40.3257270" lon="-3.4963710">
        <ele>614.6</ele>
        <time>2021-04-04T11:59:46Z</time>
      </trkpt>
      <trkpt lat="40.3257420" lon="-3.4963400">
        <ele>614.7</ele>
        <time>2021-04-04T11:59:47Z</time>
      </trkpt>
      <trkpt lat="40.3257710" lon="-3.4963040">
        <ele>614.9</ele>
        <time>2021-04-04T11:59:48Z</time>
      </trkpt>
      <trkpt lat="40.3257810" lon="-3.4962930">
        <ele>614.9</ele>
        <time>2021-04-04T11:59:49Z</time>
      </trkpt>
      <trkpt lat="40.3258090" lon="-3.4962590">
        <ele>615.1</ele>
        <time>2021-04-04T11:59:50Z</time>
      </trkpt>
      <trkpt lat="40.3258180" lon="-3.4962460">
        <ele>615.1</ele>
        <time>2021-04-04T11:59:51Z</time>
      </trkpt>
      <trkpt lat="40.3258410" lon="-3.4962060">
        <ele>615.3</ele>
        <time>2021-04-04T11:59:52Z</time>
      </trkpt>
      <trkpt lat="40.3258480" lon="-3.4961930">
        <ele>615.3</ele>
        <time>2021-04-04T11:59:53Z</time>
      </trkpt>
      <trkpt lat="40.3258690" lon="-3.4961560">
        <ele>615.5</ele>
        <time>2021-04-04T11:59:54Z</time>
      </trkpt>
      <trkpt lat="40.3258760" lon="-3.4961420">
        <ele>615.5</ele>
        <time>2021-04-04T11:59:55Z</time>
      </trkpt>
      <trkpt lat="40.3258910" lon="-3.4961110">
        <ele>615.6</ele>
        <time>2021-04-04T11:59:56Z</time>
      </trkpt>
      <trkpt lat="40.3259070" lon="-3.4960810">
        <ele>615.7</ele>
        <time>2021-04-04T11:59:57Z</time>
      </trkpt>
      <trkpt lat="40.3259240" lon="-3.4960540">
        <ele>615.8</ele>
        <time>2021-04-04T11:59:58Z</time>
      </trkpt>
      <trkpt lat="40.3259510" lon="-3.4960190">
        <ele>616.0</ele>
        <time>2021-04-04T11:59:59Z</time>
      </trkpt>
      <trkpt lat="40.3259580" lon="-3.4960060">
        <ele>616.0</ele>
        <time>2021-04-04T12:00:00Z</time>
      </trkpt>
      <trkpt lat="40.3259690" lon="-3.4959720">
        <ele>616.1</ele>
        <time>2021-04-04T12:00:01Z</time>
      </trkpt>
      <trkpt lat="40.3259800" lon="-3.4959360">
        <ele>616.2</ele>
        <time>2021-04-04T12:00:02Z</time>
      </trkpt>
      <trkpt lat="40.3259920" lon="-3.4958860">
        <ele>616.3</ele>
        <time>2021-04-04T12:00:03Z</time>
      </trkpt>
      <trkpt lat="40.3259970" lon="-3.4958700">
        <ele>616.4</ele>
        <time>2021-04-04T12:00:04Z</time>
      </trkpt>
      <trkpt lat="40.3260040" lon="-3.4958130">
        <ele>616.5</ele>
        <time>2021-04-04T12:00:05Z</time>
      </trkpt>
      <trkpt lat="40.3260030" lon="-3.4957900">
        <ele>616.6</ele>
        <time>2021-04-04T12:00:06Z</time>
      </trkpt>
      <trkpt lat="40.3260090" lon="-3.4957420">
        <ele>616.7</ele>
        <time>2021-04-04T12:00:07Z</time>
      </trkpt>
      <trkpt lat="40.3260130" lon="-3.4957000">
        <ele>616.7</ele>
        <time>2021-04-04T12:00:08Z</time>
      </trkpt>
      <trkpt lat="40.3260220" lon="-3.4956620">
        <ele>616.8</ele>
        <time>2021-04-04T12:00:09Z</time>
      </trkpt>
      <trkpt lat="40.3260310" lon="-3.4956230">
        <ele>616.8</ele>
        <time>2021-04-04T12:00:10Z</time>
      </trkpt>
      <trkpt lat="40.3260420" lon="-3.4955860">
        <ele>616.9</ele>
        <time>2021-04-04T12:00:11Z</time>
      </trkpt>
      <trkpt lat="40.3260510" lon="-3.4955510">
        <ele>616.9</ele>
        <time>2021-04-04T12:00:12Z</time>
      </trkpt>
      <trkpt lat="40.3260620" lon="-3.4955150">
        <ele>616.9</ele>
        <time>2021-04-04T12:00:13Z</time>
      </trkpt>
      <trkpt lat="40.3260710" lon="-3.4954760">
        <ele>616.9</ele>
        <time>2021-04-04T12:00:14Z</time>
      </trkpt>
      <trkpt lat="40.3260750" lon="-3.4954340">
        <ele>617.0</ele>
        <time>2021-04-04T12:00:15Z</time>
      </trkpt>
      <trkpt lat="40.3260770" lon="-3.4953930">
        <ele>617.0</ele>
        <time>2021-04-04T12:00:16Z</time>
      </trkpt>
      <trkpt lat="40.3260750" lon="-3.4953530">
        <ele>617.0</ele>
        <time>2021-04-04T12:00:17Z</time>
      </trkpt>
      <trkpt lat="40.3260730" lon="-3.4953140">
        <ele>617.0</ele>
        <time>2021-04-04T12:00:18Z</time>
      </trkpt>
      <trkpt lat="40.3260690" lon="-3.4952760">
        <ele>616.9</ele>
        <time>2021-04-04T12:00:19Z</time>
      </trkpt>
      <trkpt lat="40.3260670" lon="-3.4952270">
        <ele>616.9</ele>
        <time>2021-04-04T12:00:20Z</time>
      </trkpt>
      <trkpt lat="40.3260670" lon="-3.4952110">
        <ele>616.9</ele>
        <time>2021-04-04T12:00:21Z</time>
      </trkpt>
      <trkpt lat="40.3260710" lon="-3.4951570">
        <ele>616.8</ele>
        <time>2021-04-04T12:00:22Z</time>
      </trkpt>
      <trkpt lat="40.3260710" lon="-3.4951370">
        <ele>616.8</ele>
        <time>2021-04-04T12:00:23Z</time>
      </trkpt>
      <trkpt lat="40.3260700" lon="-3.4950980">
        <ele>616.7</ele>
        <time>2021-04-04T12:00:24Z</time>
      </trkpt>
      <trkpt lat="40.3260710" lon="-3.4950590">
        <ele>616.6</ele>
        <time>2021-04-04T12:00:25Z</time>
      </trkpt>
      <trkpt lat="40.3260730" lon="-3.4950150">
        <ele>616.4</ele>
        <time>2021-04-04T12:00:26Z</time>
      </trkpt>
      <trkpt lat="40.3260760" lon="-3.4949700">
        <ele>616.3</ele>
        <time>2021-04-04T12:00:27Z</time>
      </trkpt>
      <trkpt lat="40.3260770" lon="-3.4949190">
        <ele>616.1</ele>
        <time>2021-04-04T12:00:28Z</time>
      </trkpt>
      <trkpt lat="40.3260840" lon="-3.4948620">
        <ele>615.8</ele>
        <time>2021-04-04T12:00:29Z</time>
      </trkpt>
      <trkpt lat="40.3260920" lon="-3.4948000">
        <ele>615.6</ele>
        <time>2021-04-04T12:00:30Z</time>
      </trkpt>
      <trkpt lat="40.3261020" lon="-3.4947350">
        <ele>615.3</ele>
        <time>2021-04-04T12:00:31Z</time>
      </trkpt>
      <trkpt lat="40.3261130" lon="-3.4946680">
        <ele>615.0</ele>
        <time>2021-04-04T12:00:32Z</time>
      </trkpt>
      <trkpt lat="40.3261270" lon="-3.4945960">
        <ele>614.7</ele>
        <time>2021-04-04T12:00:33Z</time>
      </trkpt>
      <trkpt lat="40.3261420" lon="-3.4945250">
        <ele>614.4</ele>
        <time>2021-04-04T12:00:34Z</time>
      </trkpt>
      <trkpt lat="40.3261560" lon="-3.4944610">
        <ele>614.2</ele>
        <time>2021-04-04T12:00:35Z</time>
      </trkpt>
      <trkpt lat="40.3261750" lon="-3.4943950">
        <ele>613.9</ele>
        <time>2021-04-04T12:00:36Z</time>
      </trkpt>
      <trkpt lat="40.3261960" lon="-3.4943260">
        <ele>613.7</ele>
        <time>2021-04-04T12:00:37Z</time>
      </trkpt>
      <trkpt lat="40.3262250" lon="-3.4942610">
        <ele>613.6</ele>
        <time>2021-04-04T12:00:38Z</time>
      </trkpt>
      <trkpt lat="40.3262630" lon="-3.4942040">
        <ele>613.4</ele>
        <time>2021-04-04T12:00:39Z</time>
      </trkpt>
      <trkpt lat="40.3263050" lon="-3.4941540">
        <ele>613.3</ele>
        <time>2021-04-04T12:00:40Z</time>
      </trkpt>
      <trkpt lat="40.3263880" lon="-3.4941250">
        <ele>613.2</ele>
        <time>2021-04-04T12:00:41Z</time>
      </trkpt>
      <trkpt lat="40.3264480" lon="-3.4940970">
        <ele>613.2</ele>
        <time>2021-04-04T12:00:42Z</time>
      </trkpt>
      <trkpt lat="40.3265000" lon="-3.4940770">
        <ele>613.1</ele>
        <time>2021-04-04T12:00:43Z</time>
      </trkpt>
      <trkpt lat="40.3265480" lon="-3.4940510">
        <ele>613.1</ele>
        <time>2021-04-04T12:00:44Z</time>
      </trkpt>
      <trkpt lat="40.3265840" lon="-3.4940290">
        <ele>613.1</ele>
        <time>2021-04-04T12:00:45Z</time>
      </trkpt>
      <trkpt lat="40.3266240" lon="-3.4939910">
        <ele>613.2</ele>
        <time>2021-04-04T12:00:46Z</time>
      </trkpt>
      <trkpt lat="40.3266410" lon="-3.4939590">
        <ele>613.2</ele>
        <time>2021-04-04T12:00:47Z</time>
      </trkpt>
      <trkpt lat="40.3266820" lon="-3.4939330">
        <ele>613.3</ele>
        <time>2021-04-04T12:00:48Z</time>
      </trkpt>
      <trkpt lat="40.3267200" lon="-3.4939020">
        <ele>613.4</ele>
        <time>2021-04-04T12:00:49Z</time>
      </trkpt>
      <trkpt lat="40.3267550" lon="-3.4938680">
        <ele>613.5</ele>
        <time>2021-04-04T12:00:50Z</time>
      </trkpt>
      <trkpt lat="40.3268030" lon="-3.4938370">
        <ele>613.6</ele>
        <time>2021-04-04T12:00:51Z</time>
      </trkpt>
      <trkpt lat="40.3268250" lon="-3.4938060">
        <ele>613.7</ele>
        <time>2021-04-04T12:00:52Z</time>
      </trkpt>
      <trkpt lat="40.3268560" lon="-3.4937870">
        <ele>613.8</ele>
        <time>2021-04-04T12:00:53Z</time>
      </trkpt>
      <trkpt lat="40.3268950" lon="-3.4937680">
        <ele>613.8</ele>
        <time>2021-04-04T12:00:54Z</time>
      </trkpt>
      <trkpt lat="40.3269140" lon="-3.4937350">
        <ele>613.9</ele>
        <time>2021-04-04T12:00:55Z</time>
      </trkpt>
      <trkpt lat="40.3269430" lon="-3.4937040">
        <ele>614.0</ele>
        <time>2021-04-04T12:00:56Z</time>
      </trkpt>
      <trkpt lat="40.3269690" lon="-3.4936670">
        <ele>614.0</ele>
        <time>2021-04-04T12:00:57Z</time>
      </trkpt>
      <trkpt lat="40.3269860" lon="-3.4936220">
        <ele>614.1</ele>
        <time>2021-04-04T12:00:58Z</time>
      </trkpt>
      <trkpt lat="40.3270050" lon="-3.4935730">
        <ele>614.2</ele>
        <time>2021-04-04T12:00:59Z</time>
      </trkpt>
      <trkpt lat="40.3270200" lon="-3.4935260">
        <ele>614.2</ele>
        <time>2021-04-04T12:01:00Z</time>
      </trkpt>
      <trkpt lat="40.3270290" lon="-3.4934780">
        <ele>614.3</ele>
        <time>2021-04-04T12:01:01Z</time>
      </trkpt>
      <trkpt lat="40.3270320" lon="-3.4934290">
        <ele>614.3</ele>
        <time>2021-04-04T12:01:02Z</time>
      </trkpt>
      <trkpt lat="40.3270340" lon="-3.4933790">
        <ele>614.4</ele>
        <time>2021-04-04T12:01:03Z</time>
      </trkpt>
      <trkpt lat="40.3270360" lon="-3.4933240">
        <ele>614.5</ele>
        <time>2021-04-04T12:01:04Z</time>
      </trkpt>
      <trkpt lat="40.3270370" lon="-3.4932680">
        <ele>614.7</ele>
        <time>2021-04-04T12:01:05Z</time>
      </trkpt>
      <trkpt lat="40.3270360" lon="-3.4932170">
        <ele>614.8</ele>
        <time>2021-04-04T12:01:06Z</time>
      </trkpt>
      <trkpt lat="40.3270330" lon="-3.4931680">
        <ele>615.0</ele>
        <time>2021-04-04T12:01:07Z</time>
      </trkpt>
      <trkpt lat="40.3270230" lon="-3.4931190">
        <ele>615.1</ele>
        <time>2021-04-04T12:01:08Z</time>
      </trkpt>
      <trkpt lat="40.3270130" lon="-3.4930730">
        <ele>615.3</ele>
        <time>2021-04-04T12:01:09Z</time>
      </trkpt>
      <trkpt lat="40.3269950" lon="-3.4930290">
        <ele>615.4</ele>
        <time>2021-04-04T12:01:10Z</time>
      </trkpt>
      <trkpt lat="40.3269730" lon="-3.4929850">
        <ele>615.6</ele>
        <time>2021-04-04T12:01:11Z</time>
      </trkpt>
      <trkpt lat="40.3269460" lon="-3.4929480">
        <ele>615.8</ele>
        <time>2021-04-04T12:01:12Z</time>
      </trkpt>
      <trkpt lat="40.3269180" lon="-3.4929170">
        <ele>616.0</ele>
        <time>2021-04-04T12:01:13Z</time>
      </trkpt>
      <trkpt lat="40.3268880" lon="-3.4928800">
        <ele>616.3</ele>
        <time>2021-04-04T12:01:14Z</time>
      </trkpt>
      <trkpt lat="40.3268600" lon="-3.4928470">
        <ele>616.5</ele>
        <time>2021-04-04T12:01:15Z</time>
      </trkpt>
      <trkpt lat="40.3268280" lon="-3.4928130">
        <ele>616.8</ele>
        <time>2021-04-04T12:01:16Z</time>
      </trkpt>
      <trkpt lat="40.3267920" lon="-3.4927820">
        <ele>617.1</ele>
        <time>2021-04-04T12:01:17Z</time>
      </trkpt>
      <trkpt lat="40.3267680" lon="-3.4927520">
        <ele>617.4</ele>
        <time>2021-04-04T12:01:18Z</time>
      </trkpt>
      <trkpt lat="40.3267510" lon="-3.4927210">
        <ele>617.6</ele>
        <time>2021-04-04T12:01:19Z</time>
      </trkpt>
      <trkpt lat="40.3267370" lon="-3.4926880">
        <ele>617.9</ele>
        <time>2021-04-04T12:01:20Z</time>
      </trkpt>
      <trkpt lat="40.3267280" lon="-3.4926470">
        <ele>618.1</ele>
        <time>2021-04-04T12:01:21Z</time>
      </trkpt>
      <trkpt lat="40.3267190" lon="-3.4926080">
        <ele>618.4</ele>
        <time>2021-04-04T12:01:22Z</time>
      </trkpt>
      <trkpt lat="40.3267120" lon="-3.4925720">
        <ele>618.7</ele>
        <time>2021-04-04T12:01:23Z</time>
      </trkpt>
      <trkpt lat="40.3267130" lon="-3.4925210">
        <ele>619.0</ele>
        <time>2021-04-04T12:01:24Z</time>
      </trkpt>
      <trkpt lat="40.3267150" lon="-3.4925020">
        <ele>619.2</ele>
        <time>2021-04-04T12:01:25Z</time>
      </trkpt>
      <trkpt lat="40.3267200" lon="-3.4924590">
        <ele>619.5</ele>
        <time>2021-04-04T12:01:26Z</time>
      </trkpt>
      <trkpt lat="40.3267330" lon="-3.4924210">
        <ele>619.8</ele>
        <time>2021-04-04T12:01:27Z</time>
      </trkpt>
      <trkpt lat="40.3267410" lon="-3.4923870">
        <ele>620.0</ele>
        <time>2021-04-04T12:01:28Z</time>
      </trkpt>
      <trkpt lat="40.3267530" lon="-3.4923420">
        <ele>620.4</ele>
        <time>2021-04-04T12:01:29Z</time>
      </trkpt>
      <trkpt lat="40.3267560" lon="-3.4923280">
        <ele>620.5</ele>
        <time>2021-04-04T12:01:30Z</time>
      </trkpt>
      <trkpt lat="40.3267620" lon="-3.4922860">
        <ele>620.9</ele>
        <time>2021-04-04T12:01:31Z</time>
      </trkpt>
      <trkpt lat="40.3267630" lon="-3.4922720">
        <ele>621.0</ele>
        <time>2021-04-04T12:01:32Z</time>
      </trkpt>
      <trkpt lat="40.3267670" lon="-3.4922500">
        <ele>621.2</ele>
        <time>2021-04-04T12:01:33Z</time>
      </trkpt>
      <trkpt lat="40.3267770" lon="-3.4922320">
        <ele>621.3</ele>
        <time>2021-04-04T12:01:34Z</time>
      </trkpt>
      <trkpt lat="40.3267950" lon="-3.4922000">
        <ele>621.7</ele>
        <time>2021-04-04T12:01:35Z</time>
      </trkpt>
      <trkpt lat="40.3268000" lon="-3.4921890">
        <ele>621.8</ele>
        <time>2021-04-04T12:01:36Z</time>
      </trkpt>
      <trkpt lat="40.3268090" lon="-3.4921480">
        <ele>622.2</ele>
        <time>2021-04-04T12:01:37Z</time>
      </trkpt>
      <trkpt lat="40.3268120" lon="-3.4921330">
        <ele>622.3</ele>
        <time>2021-04-04T12:01:38Z</time>
      </trkpt>
      <trkpt lat="40.3268210" lon="-3.4920950">
        <ele>622.7</ele>
        <time>2021-04-04T12:01:39Z</time>
      </trkpt>
      <trkpt lat="40.3268240" lon="-3.4920830">
        <ele>622.8</ele>
        <time>2021-04-04T12:01:40Z</time>
      </trkpt>
      <trkpt lat="40.3268360" lon="-3.4920490">
        <ele>623.1</ele>
        <time>2021-04-04T12:01:41Z</time>
      </trkpt>
      <trkpt lat="40.3268400" lon="-3.4920370">
        <ele>623.3</ele>
        <time>2021-04-04T12:01:42Z</time>
      </trkpt>
      <trkpt lat="40.3268480" lon="-3.4920130">
        <ele>623.5</ele>
        <time>2021-04-04T12:01:43Z</time>
      </trkpt>
      <trkpt lat="40.3268550" lon="-3.4919930">
        <ele>623.7</ele>
        <time>2021-04-04T12:01:44Z</time>
      </trkpt>
      <trkpt lat="40.3268710" lon="-3.4919770">
        <ele>624.0</ele>
        <time>2021-04-04T12:01:45Z</time>
      </trkpt>
      <trkpt lat="40.3268790" lon="-3.4919710">
        <ele>624.1</ele>
        <time>2021-04-04T12:01:46Z</time>
      </trkpt>
      <trkpt lat="40.3268860" lon="-3.4919640">
        <ele>624.2</ele>
        <time>2021-04-04T12:01:47Z</time>
      </trkpt>
      <trkpt lat="40.3268930" lon="-3.4919520">
        <ele>624.4</ele>
        <time>2021-04-04T12:01:48Z</time>
      </trkpt>
      <trkpt lat="40.3268970" lon="-3.4919390">
        <ele>624.5</ele>
        <time>2021-04-04T12:01:49Z</time>
      </trkpt>
      <trkpt lat="40.3268990" lon="-3.4919230">
        <ele>624.7</ele>
        <time>2021-04-04T12:01:50Z</time>
      </trkpt>
      <trkpt lat="40.3269110" lon="-3.4918990">
        <ele>625.0</ele>
        <time>2021-04-04T12:01:51Z</time>
      </trkpt>
      <trkpt lat="40.3269170" lon="-3.4918910">
        <ele>625.1</ele>
        <time>2021-04-04T12:01:52Z</time>
      </trkpt>
      <trkpt lat="40.3269220" lon="-3.4918830">
        <ele>625.3</ele>
        <time>2021-04-04T12:01:53Z</time>
      </trkpt>
      <trkpt lat="40.3269250" lon="-3.4918640">
        <ele>625.5</ele>
        <time>2021-04-04T12:01:54Z</time>
      </trkpt>
      <trkpt lat="40.3269290" lon="-3.4918420">
        <ele>625.7</ele>
        <time>2021-04-04T12:01:55Z</time>
      </trkpt>
      <trkpt lat="40.3269330" lon="-3.4918190">
        <ele>626.0</ele>
        <time>2021-04-04T12:01:56Z</time>
      </trkpt>
      <trkpt lat="40.3269390" lon="-3.4917980">
        <ele>626.2</ele>
        <time>2021-04-04T12:01:57Z</time>
      </trkpt>
      <trkpt lat="40.3269450" lon="-3.4917820">
        <ele>626.4</ele>
        <time>2021-04-04T12:01:58Z</time>
      </trkpt>
      <trkpt lat="40.3269530" lon="-3.4917630">
        <ele>626.7</ele>
        <time>2021-04-04T12:01:59Z</time>
      </trkpt>
      <trkpt lat="40.3269600" lon="-3.4917440">
        <ele>626.9</ele>
        <time>2021-04-04T12:02:00Z</time>
      </trkpt>
      <trkpt lat="40.3269670" lon="-3.4917280">
        <ele>627.1</ele>
        <time>2021-04-04T12:02:01Z</time>
      </trkpt>
      <trkpt lat="40.3269700" lon="-3.4917120">
        <ele>627.3</ele>
        <time>2021-04-04T12:02:02Z</time>
      </trkpt>
      <trkpt lat="40.3269720" lon="-3.4916890">
        <ele>627.6</ele>
        <time>2021-04-04T12:02:03Z</time>
      </trkpt>
      <trkpt lat="40.3269760" lon="-3.4916530">
        <ele>628.0</ele>
        <time>2021-04-04T12:02:04Z</time>
      </trkpt>
      <trkpt lat="40.3269760" lon="-3.4916400">
        <ele>628.2</ele>
        <time>2021-04-04T12:02:05Z</time>
      </trkpt>
      <trkpt lat="40.3269740" lon="-3.4916160">
        <ele>628.5</ele>
        <time>2021-04-04T12:02:06Z</time>
      </trkpt>
      <trkpt lat="40.3269730" lon="-3.4915990">
        <ele>628.7</ele>
        <time>2021-04-04T12:02:07Z</time>
      </trkpt>
      <trkpt lat="40.3269770" lon="-3.4915710">
        <ele>629.0</ele>
        <time>2021-04-04T12:02:08Z</time>
      </trkpt>
      <trkpt lat="40.3269790" lon="-3.4915600">
        <ele>629.2</ele>
        <time>2021-04-04T12:02:09Z</time>
      </trkpt>
      <trkpt lat="40.3269810" lon="-3.4915500">
        <ele>629.3</ele>
        <time>2021-04-04T12:02:10Z</time>
      </trkpt>
      <trkpt lat="40.3269890" lon="-3.4915350">
        <ele>629.5</ele>
        <time>2021-04-04T12:02:11Z</time>
      </trkpt>
      <trkpt lat="40.3269940" lon="-3.4915190">
        <ele>629.7</ele>
        <time>2021-04-04T12:02:12Z</time>
      </trkpt>
      <trkpt lat="40.3269980" lon="-3.4915000">
        <ele>629.9</ele>
        <time>2021-04-04T12:02:13Z</time>
      </trkpt>
      <trkpt lat="40.3270000" lon="-3.4914770">
        <ele>630.2</ele>
        <time>2021-04-04T12:02:14Z</time>
      </trkpt>
      <trkpt lat="40.3270050" lon="-3.4914570">
        <ele>630.5</ele>
        <time>2021-04-04T12:02:15Z</time>
      </trkpt>
      <trkpt lat="40.3270150" lon="-3.4914400">
        <ele>630.7</ele>
        <time>2021-04-04T12:02:16Z</time>
      </trkpt>
      <trkpt lat="40.3270240" lon="-3.4914190">
        <ele>631.0</ele>
        <time>2021-04-04T12:02:17Z</time>
      </trkpt>
      <trkpt lat="40.3270320" lon="-3.4913980">
        <ele>631.3</ele>
        <time>2021-04-04T12:02:18Z</time>
      </trkpt>
      <trkpt lat="40.3270370" lon="-3.4913630">
        <ele>631.7</ele>
        <time>2021-04-04T12:02:19Z</time>
      </trkpt>
      <trkpt lat="40.3270370" lon="-3.4913500">
        <ele>631.8</ele>
        <time>2021-04-04T12:02:20Z</time>
      </trkpt>
      <trkpt lat="40.3270500" lon="-3.4913170">
        <ele>632.3</ele>
        <time>2021-04-04T12:02:21Z</time>
      </trkpt>
      <trkpt lat="40.3270550" lon="-3.4913060">
        <ele>632.4</ele>
        <time>2021-04-04T12:02:22Z</time>
      </trkpt>
      <trkpt lat="40.3270710" lon="-3.4912750">
        <ele>632.8</ele>
        <time>2021-04-04T12:02:23Z</time>
      </trkpt>
      <trkpt lat="40.3270780" lon="-3.4912650">
        <ele>633.0</ele>
        <time>2021-04-04T12:02:24Z</time>
      </trkpt>
      <trkpt lat="40.3270860" lon="-3.4912430">
        <ele>633.3</ele>
        <time>2021-04-04T12:02:25Z</time>
      </trkpt>
      <trkpt lat="40.3270910" lon="-3.4912210">
        <ele>633.6</ele>
        <time>2021-04-04T12:02:26Z</time>
      </trkpt>
      <trkpt lat="40.3270890" lon="-3.4911840">
        <ele>634.0</ele>
        <time>2021-04-04T12:02:27Z</time>
      </trkpt>
      <trkpt lat="40.3270860" lon="-3.4911710">
        <ele>634.1</ele>
        <time>2021-04-04T12:02:28Z</time>
      </trkpt>
      <trkpt lat="40.3270670" lon="-3.4911390">
        <ele>634.6</ele>
        <time>2021-04-04T12:02:29Z</time>
      </trkpt>
      <trkpt lat="40.3270590" lon="-3.4911300">
        <ele>634.8</ele>
        <time>2021-04-04T12:02:30Z</time>
      </trkpt>
      <trkpt lat="40.3270390" lon="-3.4910990">
        <ele>635.2</ele>
        <time>2021-04-04T12:02:31Z</time>
      </trkpt>
      <trkpt lat="40.3270320" lon="-3.4910890">
        <ele>635.4</ele>
        <time>2021-04-04T12:02:32Z</time>
      </trkpt>
      <trkpt lat="40.3270170" lon="-3.4910590">
        <ele>635.8</ele>
        <time>2021-04-04T12:02:33Z</time>
      </trkpt>
      <trkpt lat="40.3270110" lon="-3.4910490">
        <ele>635.9</ele>
        <time>2021-04-04T12:02:34Z</time>
      </trkpt>
      <trkpt lat="40.3270010" lon="-3.4910100">
        <ele>636.3</ele>
        <time>2021-04-04T12:02:35Z</time>
      </trkpt>
      <trkpt lat="40.3269980" lon="-3.4909960">
        <ele>636.5</ele>
        <time>2021-04-04T12:02:36Z</time>
      </trkpt>
      <trkpt lat="40.3269920" lon="-3.4909750">
        <ele>636.7</ele>
        <time>2021-04-04T12:02:37Z</time>
      </trkpt>
      <trkpt lat="40.3269900" lon="-3.4909530">
        <ele>636.9</ele>
        <time>2021-04-04T12:02:38Z</time>
      </trkpt>
      <trkpt lat="40.3269850" lon="-3.4909330">
        <ele>637.1</ele>
        <time>2021-04-04T12:02:39Z</time>
      </trkpt>
      <trkpt lat="40.3269810" lon="-3.4909140">
        <ele>637.3</ele>
        <time>2021-04-04T12:02:40Z</time>
      </trkpt>
      <trkpt lat="40.3269750" lon="-3.4908970">
        <ele>637.5</ele>
        <time>2021-04-04T12:02:41Z</time>
      </trkpt>
      <trkpt lat="40.3269690" lon="-3.4908810">
        <ele>637.7</ele>
        <time>2021-04-04T12:02:42Z</time>
      </trkpt>
      <trkpt lat="40.3269690" lon="-3.4908650">
        <ele>637.9</ele>
        <time>2021-04-04T12:02:43Z</time>
      </trkpt>
      <trkpt lat="40.3269670" lon="-3.4908450">
        <ele>638.1</ele>
        <time>2021-04-04T12:02:44Z</time>
      </trkpt>
      <trkpt lat="40.3269630" lon="-3.4908260">
        <ele>638.3</ele>
        <time>2021-04-04T12:02:45Z</time>
      </trkpt>
      <trkpt lat="40.3269610" lon="-3.4908060">
        <ele>638.5</ele>
        <time>2021-04-04T12:02:46Z</time>
      </trkpt>
      <trkpt lat="40.3269640" lon="-3.4907850">
        <ele>638.7</ele>
        <time>2021-04-04T12:02:47Z</time>
      </trkpt>
      <trkpt lat="40.3269680" lon="-3.4907640">
        <ele>638.9</ele>
        <time>2021-04-04T12:02:48Z</time>
      </trkpt>
      <trkpt lat="40.3269730" lon="-3.4907480">
        <ele>639.0</ele>
        <time>2021-04-04T12:02:49Z</time>
      </trkpt>
      <trkpt lat="40.3269710" lon="-3.4907290">
        <ele>639.2</ele>
        <time>2021-04-04T12:02:50Z</time>
      </trkpt>
      <trkpt lat="40.3269720" lon="-3.4906980">
        <ele>639.5</ele>
        <time>2021-04-04T12:02:51Z</time>
      </trkpt>
      <trkpt lat="40.3269730" lon="-3.4906870">
        <ele>639.6</ele>
        <time>2021-04-04T12:02:52Z</time>
      </trkpt>
      <trkpt lat="40.3269750" lon="-3.4906750">
        <ele>639.7</ele>
        <time>2021-04-04T12:02:53Z</time>
      </trkpt>
      <trkpt lat="40.3269860" lon="-3.4906580">
        <ele>639.9</ele>
        <time>2021-04-04T12:02:54Z</time>
      </trkpt>
      <trkpt lat="40.3269970" lon="-3.4906460">
        <ele>640.1</ele>
        <time>2021-04-04T12:02:55Z</time>
      </trkpt>
      <trkpt lat="40.3270140" lon="-3.4906400">
        <ele>640.3</ele>
        <time>2021-04-04T12:02:56Z</time>
      </trkpt>
      <trkpt lat="40.3270230" lon="-3.4906340">
        <ele>640.4</ele>
        <time>2021-04-04T12:02:57Z</time>
      </trkpt>
      <trkpt lat="40.3270420" lon="-3.4906300">
        <ele>640.6</ele>
        <time>2021-04-04T12:02:58Z</time>
      </trkpt>
      <trkpt lat="40.3270540" lon="-3.4906210">
        <ele>640.8</ele>
        <time>2021-04-04T12:02:59Z</time>
      </trkpt>
      <trkpt lat="40.3270640" lon="-3.4906100">
        <ele>640.9</ele>
        <time>2021-04-04T12:03:00Z</time>
      </trkpt>
      <trkpt lat="40.3270670" lon="-3.4905930">
        <ele>641.0</ele>
        <time>2021-04-04T12:03:01Z</time>
      </trkpt>
      <trkpt lat="40.3270630" lon="-3.4905750">
        <ele>641.2</ele>
        <time>2021-04-04T12:03:02Z</time>
      </trkpt>
      <trkpt lat="40.3270510" lon="-3.4905390">
        <ele>641.4</ele>
        <time>2021-04-04T12:03:03Z</time>
      </trkpt>
      <trkpt lat="40.3270470" lon="-3.4905280">
        <ele>641.5</ele>
        <time>2021-04-04T12:03:04Z</time>
      </trkpt>
      <trkpt lat="40.3270390" lon="-3.4905110">
        <ele>641.6</ele>
        <time>2021-04-04T12:03:05Z</time>
      </trkpt>
      <trkpt lat="40.3270300" lon="-3.4904940">
        <ele>641.8</ele>
        <time>2021-04-04T12:03:06Z</time>
      </trkpt>
      <trkpt lat="40.3270270" lon="-3.4904750">
        <ele>641.9</ele>
        <time>2021-04-04T12:03:07Z</time>
      </trkpt>
      <trkpt lat="40.3270260" lon="-3.4904530">
        <ele>642.0</ele>
        <time>2021-04-04T12:03:08Z</time>
      </trkpt>
      <trkpt lat="40.3270250" lon="-3.4904310">
        <ele>642.2</ele>
        <time>2021-04-04T12:03:09Z</time>
      </trkpt>
      <trkpt lat="40.3270260" lon="-3.4904110">
        <ele>642.3</ele>
        <time>2021-04-04T12:03:10Z</time>
      </trkpt>
      <trkpt lat="40.3270310" lon="-3.4903930">
        <ele>642.4</ele>
        <time>2021-04-04T12:03:11Z</time>
      </trkpt>
      <trkpt lat="40.3270380" lon="-3.4903780">
        <ele>642.5</ele>
        <time>2021-04-04T12:03:12Z</time>
      </trkpt>
      <trkpt lat="40.3270510" lon="-3.4903550">
        <ele>642.7</ele>
        <time>2021-04-04T12:03:13Z</time>
      </trkpt>
      <trkpt lat="40.3270570" lon="-3.4903460">
        <ele>642.7</ele>
        <time>2021-04-04T12:03:14Z</time>
      </trkpt>
      <trkpt lat="40.3270620" lon="-3.4903360">
        <ele>642.8</ele>
        <time>2021-04-04T12:03:15Z</time>
      </trkpt>
      <trkpt lat="40.3270690" lon="-3.4903240">
        <ele>642.9</ele>
        <time>2021-04-04T12:03:16Z</time>
      </trkpt>
      <trkpt lat="40.3270760" lon="-3.4903150">
        <ele>643.0</ele>
        <time>2021-04-04T12:03:17Z</time>
      </trkpt>
      <trkpt lat="40.3270870" lon="-3.4903030">
        <ele>643.1</ele>
        <time>2021-04-04T12:03:18Z</time>
      </trkpt>
      <trkpt lat="40.3270970" lon="-3.4902880">
        <ele>643.2</ele>
        <time>2021-04-04T12:03:19Z</time>
      </trkpt>
      <trkpt lat="40.3271020" lon="-3.4902690">
        <ele>643.3</ele>
        <time>2021-04-04T12:03:20Z</time>
      </trkpt>
      <trkpt lat="40.3271070" lon="-3.4902500">
        <ele>643.4</ele>
        <time>2021-04-04T12:03:21Z</time>
      </trkpt>
      <trkpt lat="40.3271130" lon="-3.4902260">
        <ele>643.6</ele>
        <time>2021-04-04T12:03:22Z</time>
      </trkpt>
      <trkpt lat="40.3271200" lon="-3.4902050">
        <ele>643.7</ele>
        <time>2021-04-04T12:03:23Z</time>
      </trkpt>
      <trkpt lat="40.3271270" lon="-3.4901870">
        <ele>643.8</ele>
        <time>2021-04-04T12:03:24Z</time>
      </trkpt>
      <trkpt lat="40.3271320" lon="-3.4901670">
        <ele>644.0</ele>
        <time>2021-04-04T12:03:25Z</time>
      </trkpt>
      <trkpt lat="40.3271360" lon="-3.4901440">
        <ele>644.1</ele>
        <time>2021-04-04T12:03:26Z</time>
      </trkpt>
      <trkpt lat="40.3271390" lon="-3.4901060">
        <ele>644.3</ele>
        <time>2021-04-04T12:03:27Z</time>
      </trkpt>
      <trkpt lat="40.3271390" lon="-3.4900930">
        <ele>644.4</ele>
        <time>2021-04-04T12:03:28Z</time>
      </trkpt>
      <trkpt lat="40.3271430" lon="-3.4900730">
        <ele>644.5</ele>
        <time>2021-04-04T12:03:29Z</time>
      </trkpt>
      <trkpt lat="40.3271470" lon="-3.4900550">
        <ele>644.6</ele>
        <time>2021-04-04T12:03:30Z</time>
      </trkpt>
      <trkpt lat="40.3271600" lon="-3.4900230">
        <ele>644.8</ele>
        <time>2021-04-04T12:03:31Z</time>
      </trkpt>
      <trkpt lat="40.3271630" lon="-3.4900120">
        <ele>644.9</ele>
        <time>2021-04-04T12:03:32Z</time>
      </trkpt>
      <trkpt lat="40.3271810" lon="-3.4899840">
        <ele>645.1</ele>
        <time>2021-04-04T12:03:33Z</time>
      </trkpt>
      <trkpt lat="40.3271860" lon="-3.4899740">
        <ele>645.2</ele>
        <time>2021-04-04T12:03:34Z</time>
      </trkpt>
      <trkpt lat="40.3272050" lon="-3.4899450">
        <ele>645.4</ele>
        <time>2021-04-04T12:03:35Z</time>
      </trkpt>
      <trkpt lat="40.3272110" lon="-3.4899360">
        <ele>645.5</ele>
        <time>2021-04-04T12:03:36Z</time>
      </trkpt>
      <trkpt lat="40.3272320" lon="-3.4899130">
        <ele>645.7</ele>
        <time>2021-04-04T12:03:37Z</time>
      </trkpt>
      <trkpt lat="40.3272380" lon="-3.4899050">
        <ele>645.7</ele>
        <time>2021-04-04T12:03:38Z</time>
      </trkpt>
      <trkpt lat="40.3272610" lon="-3.4898840">
        <ele>645.9</ele>
        <time>2021-04-04T12:03:39Z</time>
      </trkpt>
      <trkpt lat="40.3272670" lon="-3.4898750">
        <ele>646.0</ele>
        <time>2021-04-04T12:03:40Z</time>
      </trkpt>
      <trkpt lat="40.3272760" lon="-3.4898600">
        <ele>646.1</ele>
        <time>2021-04-04T12:03:41Z</time>
      </trkpt>
      <trkpt lat="40.3272810" lon="-3.4898420">
        <ele>646.2</ele>
        <time>2021-04-04T12:03:42Z</time>
      </trkpt>
      <trkpt lat="40.3272890" lon="-3.4898200">
        <ele>646.3</ele>
        <time>2021-04-04T12:03:43Z</time>
      </trkpt>
      <trkpt lat="40.3272980" lon="-3.4898010">
        <ele>646.4</ele>
        <time>2021-04-04T12:03:44Z</time>
      </trkpt>
      <trkpt lat="40.3273070" lon="-3.4897830">
        <ele>646.5</ele>
        <time>2021-04-04T12:03:45Z</time>
      </trkpt>
      <trkpt lat="40.3273150" lon="-3.4897680">
        <ele>646.5</ele>
        <time>2021-04-04T12:03:46Z</time>
      </trkpt>
      <trkpt lat="40.3273230" lon="-3.4897530">
        <ele>646.6</ele>
        <time>2021-04-04T12:03:47Z</time>
      </trkpt>
      <trkpt lat="40.3273300" lon="-3.4897340">
        <ele>646.7</ele>
        <time>2021-04-04T12:03:48Z</time>
      </trkpt>
      <trkpt lat="40.3273380" lon="-3.4897090">
        <ele>646.8</ele>
        <time>2021-04-04T12:03:49Z</time>
      </trkpt>
      <trkpt lat="40.3273420" lon="-3.4896990">
        <ele>646.9</ele>
        <time>2021-04-04T12:03:50Z</time>
      </trkpt>
      <trkpt lat="40.3273450" lon="-3.4896890">
        <ele>646.9</ele>
        <time>2021-04-04T12:03:51Z</time>
      </trkpt>
      <trkpt lat="40.3273590" lon="-3.4896740">
        <ele>647.0</ele>
        <time>2021-04-04T12:03:52Z</time>
      </trkpt>
      <trkpt lat="40.3273710" lon="-3.4896610">
        <ele>647.1</ele>
        <time>2021-04-04T12:03:53Z</time>
      </trkpt>
      <trkpt lat="40.3273790" lon="-3.4896460">
        <ele>647.1</ele>
        <time>2021-04-04T12:03:54Z</time>
      </trkpt>
      <trkpt lat="40.3273880" lon="-3.4896270">
        <ele>647.2</ele>
        <time>2021-04-04T12:03:55Z</time>
      </trkpt>
      <trkpt lat="40.3274050" lon="-3.4895950">
        <ele>647.4</ele>
        <time>2021-04-04T12:03:56Z</time>
      </trkpt>
      <trkpt lat="40.3274110" lon="-3.4895850">
        <ele>647.4</ele>
        <time>2021-04-04T12:03:57Z</time>
      </trkpt>
      <trkpt lat="40.3274240" lon="-3.4895710">
        <ele>647.5</ele>
        <time>2021-04-04T12:03:58Z</time>
      </trkpt>
      <trkpt lat="40.3274360" lon="-3.4895600">
        <ele>647.6</ele>
        <time>2021-04-04T12:03:59Z</time>
      </trkpt>
      <trkpt lat="40.3274490" lon="-3.4895490">
        <ele>647.7</ele>
        <time>2021-04-04T12:04:00Z</time>
      </trkpt>
      <trkpt lat="40.3274620" lon="-3.4895340">
        <ele>647.8</ele>
        <time>2021-04-04T12:04:01Z</time>
      </trkpt>
      <trkpt lat="40.3274720" lon="-3.4895180">
        <ele>647.8</ele>
        <time>2021-04-04T12:04:02Z</time>
      </trkpt>
      <trkpt lat="40.3274830" lon="-3.4894990">
        <ele>647.9</ele>
        <time>2021-04-04T12:04:03Z</time>
      </trkpt>
      <trkpt lat="40.3274940" lon="-3.4894800">
        <ele>648.0</ele>
        <time>2021-04-04T12:04:04Z</time>
      </trkpt>
      <trkpt lat="40.3275030" lon="-3.4894610">
        <ele>648.1</ele>
        <time>2021-04-04T12:04:05Z</time>
      </trkpt>
      <trkpt lat="40.3275140" lon="-3.4894460">
        <ele>648.2</ele>
        <time>2021-04-04T12:04:06Z</time>
      </trkpt>
      <trkpt lat="40.3275220" lon="-3.4894320">
        <ele>648.2</ele>
        <time>2021-04-04T12:04:07Z</time>
      </trkpt>
      <trkpt lat="40.3275320" lon="-3.4894150">
        <ele>648.3</ele>
        <time>2021-04-04T12:04:08Z</time>
      </trkpt>
      <trkpt lat="40.3275430" lon="-3.4893980">
        <ele>648.4</ele>
        <time>2021-04-04T12:04:09Z</time>
      </trkpt>
      <trkpt lat="40.3275510" lon="-3.4893590">
        <ele>648.5</ele>
        <time>2021-04-04T12:04:10Z</time>
      </trkpt>
      <trkpt lat="40.3275550" lon="-3.4893450">
        <ele>648.6</ele>
        <time>2021-04-04T12:04:11Z</time>
      </trkpt>
      <trkpt lat="40.3275660" lon="-3.4893100">
        <ele>648.7</ele>
        <time>2021-04-04T12:04:12Z</time>
      </trkpt>
      <trkpt lat="40.3275680" lon="-3.4892970">
        <ele>648.7</ele>
        <time>2021-04-04T12:04:13Z</time>
      </trkpt>
      <trkpt lat="40.3275790" lon="-3.4892620">
        <ele>648.9</ele>
        <time>2021-04-04T12:04:14Z</time>
      </trkpt>
      <trkpt lat="40.3275870" lon="-3.4892280">
        <ele>649.0</ele>
        <time>2021-04-04T12:04:15Z</time>
      </trkpt>
      <trkpt lat="40.3275990" lon="-3.4891800">
        <ele>649.2</ele>
        <time>2021-04-04T12:04:16Z</time>
      </trkpt>
      <trkpt lat="40.3276040" lon="-3.4891630">
        <ele>649.2</ele>
        <time>2021-04-04T12:04:17Z</time>
      </trkpt>
      <trkpt lat="40.3276250" lon="-3.4891350">
        <ele>649.3</ele>
        <time>2021-04-04T12:04:18Z</time>
      </trkpt>
      <trkpt lat="40.3276500" lon="-3.4891150">
        <ele>649.4</ele>
        <time>2021-04-04T12:04:19Z</time>
      </trkpt>
      <trkpt lat="40.3276830" lon="-3.4890890">
        <ele>649.6</ele>
        <time>2021-04-04T12:04:20Z</time>
      </trkpt>
      <trkpt lat="40.3276920" lon="-3.4890800">
        <ele>649.6</ele>
        <time>2021-04-04T12:04:21Z</time>
      </trkpt>
      <trkpt lat="40.3277210" lon="-3.4890480">
        <ele>649.7</ele>
        <time>2021-04-04T12:04:22Z</time>
      </trkpt>
      <trkpt lat="40.3277300" lon="-3.4890370">
        <ele>649.8</ele>
        <time>2021-04-04T12:04:23Z</time>
      </trkpt>
      <trkpt lat="40.3277640" lon="-3.4890070">
        <ele>649.9</ele>
        <time>2021-04-04T12:04:24Z</time>
      </trkpt>
      <trkpt lat="40.3277770" lon="-3.4889970">
        <ele>650.0</ele>
        <time>2021-04-04T12:04:25Z</time>
      </trkpt>
      <trkpt lat="40.3278020" lon="-3.4889750">
        <ele>650.1</ele>
        <time>2021-04-04T12:04:26Z</time>
      </trkpt>
      <trkpt lat="40.3278350" lon="-3.4889460">
        <ele>650.2</ele>
        <time>2021-04-04T12:04:27Z</time>
      </trkpt>
      <trkpt lat="40.3278460" lon="-3.4889350">
        <ele>650.3</ele>
        <time>2021-04-04T12:04:28Z</time>
      </trkpt>
      <trkpt lat="40.3278660" lon="-3.4889110">
        <ele>650.4</ele>
        <time>2021-04-04T12:04:29Z</time>
      </trkpt>
      <trkpt lat="40.3278850" lon="-3.4888810">
        <ele>650.5</ele>
        <time>2021-04-04T12:04:30Z</time>
      </trkpt>
      <trkpt lat="40.3279030" lon="-3.4888510">
        <ele>650.6</ele>
        <time>2021-04-04T12:04:31Z</time>
      </trkpt>
      <trkpt lat="40.3279210" lon="-3.4888200">
        <ele>650.8</ele>
        <time>2021-04-04T12:04:32Z</time>
      </trkpt>
      <trkpt lat="40.3279340" lon="-3.4887870">
        <ele>650.9</ele>
        <time>2021-04-04T12:04:33Z</time>
      </trkpt>
      <trkpt lat="40.3279430" lon="-3.4887500">
        <ele>651.0</ele>
        <time>2021-04-04T12:04:34Z</time>
      </trkpt>
      <trkpt lat="40.3279510" lon="-3.4887150">
        <ele>651.2</ele>
        <time>2021-04-04T12:04:35Z</time>
      </trkpt>
      <trkpt lat="40.3279630" lon="-3.4886710">
        <ele>651.4</ele>
        <time>2021-04-04T12:04:36Z</time>
      </trkpt>
      <trkpt lat="40.3279680" lon="-3.4886560">
        <ele>651.4</ele>
        <time>2021-04-04T12:04:37Z</time>
      </trkpt>
      <trkpt lat="40.3279880" lon="-3.4886120">
        <ele>651.6</ele>
        <time>2021-04-04T12:04:38Z</time>
      </trkpt>
      <trkpt lat="40.3279960" lon="-3.4885970">
        <ele>651.7</ele>
        <time>2021-04-04T12:04:39Z</time>
      </trkpt>
      <trkpt lat="40.3280250" lon="-3.4885610">
        <ele>651.9</ele>
        <time>2021-04-04T12:04:40Z</time>
      </trkpt>
      <trkpt lat="40.3280340" lon="-3.4885490">
        <ele>652.0</ele>
        <time>2021-04-04T12:04:41Z</time>
      </trkpt>
      <trkpt lat="40.3280690" lon="-3.4885200">
        <ele>652.2</ele>
        <time>2021-04-04T12:04:42Z</time>
      </trkpt>
      <trkpt lat="40.3280820" lon="-3.4885120">
        <ele>652.3</ele>
        <time>2021-04-04T12:04:43Z</time>
      </trkpt>
      <trkpt lat="40.3281070" lon="-3.4884970">
        <ele>652.4</ele>
        <time>2021-04-04T12:04:44Z</time>
      </trkpt>
      <trkpt lat="40.3281320" lon="-3.4884830">
        <ele>652.6</ele>
        <time>2021-04-04T12:04:45Z</time>
      </trkpt>
      <trkpt lat="40.3281570" lon="-3.4884660">
        <ele>652.7</ele>
        <time>2021-04-04T12:04:46Z</time>
      </trkpt>
      <trkpt lat="40.3281840" lon="-3.4884370">
        <ele>652.8</ele>
        <time>2021-04-04T12:04:47Z</time>
      </trkpt>
      <trkpt lat="40.3281910" lon="-3.4884250">
        <ele>652.9</ele>
        <time>2021-04-04T12:04:48Z</time>
      </trkpt>
      <trkpt lat="40.3282050" lon="-3.4883950">
        <ele>652.9</ele>
        <time>2021-04-04T12:04:49Z</time>
      </trkpt>
      <trkpt lat="40.3282240" lon="-3.4883640">
        <ele>653.0</ele>
        <time>2021-04-04T12:04:50Z</time>
      </trkpt>
      <trkpt lat="40.3282440" lon="-3.4883360">
        <ele>653.1</ele>
        <time>2021-04-04T12:04:51Z</time>
      </trkpt>
      <trkpt lat="40.3282670" lon="-3.4883140">
        <ele>653.1</ele>
        <time>2021-04-04T12:04:52Z</time>
      </trkpt>
      <trkpt lat="40.3282920" lon="-3.4882950">
        <ele>653.1</ele>
        <time>2021-04-04T12:04:53Z</time>
      </trkpt>
      <trkpt lat="40.3283190" lon="-3.4882740">
        <ele>653.2</ele>
        <time>2021-04-04T12:04:54Z</time>
      </trkpt>
      <trkpt lat="40.3283420" lon="-3.4882510">
        <ele>653.2</ele>
        <time>2021-04-04T12:04:55Z</time>
      </trkpt>
      <trkpt lat="40.3283710" lon="-3.4882250">
        <ele>653.2</ele>
        <time>2021-04-04T12:04:56Z</time>
      </trkpt>
      <trkpt lat="40.3283950" lon="-3.4881840">
        <ele>653.2</ele>
        <time>2021-04-04T12:04:57Z</time>
      </trkpt>
      <trkpt lat="40.3284210" lon="-3.4881430">
        <ele>653.1</ele>
        <time>2021-04-04T12:04:58Z</time>
      </trkpt>
      <trkpt lat="40.3284440" lon="-3.4881030">
        <ele>653.1</ele>
        <time>2021-04-04T12:04:59Z</time>
      </trkpt>
      <trkpt lat="40.3284640" lon="-3.4880650">
        <ele>653.1</ele>
        <time>2021-04-04T12:05:00Z</time>
      </trkpt>
      <trkpt lat="40.3284810" lon="-3.4880290">
        <ele>653.1</ele>
        <time>2021-04-04T12:05:01Z</time>
      </trkpt>
      <trkpt lat="40.3284980" lon="-3.4879890">
        <ele>653.1</ele>
        <time>2021-04-04T12:05:02Z</time>
      </trkpt>
      <trkpt lat="40.3285150" lon="-3.4879500">
        <ele>653.1</ele>
        <time>2021-04-04T12:05:03Z</time>
      </trkpt>
      <trkpt lat="40.3285340" lon="-3.4879120">
        <ele>653.1</ele>
        <time>2021-04-04T12:05:04Z</time>
      </trkpt>
      <trkpt lat="40.3285540" lon="-3.4878810">
        <ele>653.1</ele>
        <time>2021-04-04T12:05:05Z</time>
      </trkpt>
      <trkpt lat="40.3285770" lon="-3.4878440">
        <ele>653.1</ele>
        <time>2021-04-04T12:05:06Z</time>
      </trkpt>
      <trkpt lat="40.3286040" lon="-3.4878090">
        <ele>653.1</ele>
        <time>2021-04-04T12:05:07Z</time>
      </trkpt>
      <trkpt lat="40.3286320" lon="-3.4877810">
        <ele>653.1</ele>
        <time>2021-04-04T12:05:08Z</time>
      </trkpt>
      <trkpt lat="40.3286590" lon="-3.4877470">
        <ele>653.1</ele>
        <time>2021-04-04T12:05:09Z</time>
      </trkpt>
      <trkpt lat="40.3286860" lon="-3.4877090">
        <ele>653.0</ele>
        <time>2021-04-04T12:05:10Z</time>
      </trkpt>
      <trkpt lat="40.3287100" lon="-3.4876720">
        <ele>653.0</ele>
        <time>2021-04-04T12:05:11Z</time>
      </trkpt>
      <trkpt lat="40.3287350" lon="-3.4876390">
        <ele>653.0</ele>
        <time>2021-04-04T12:05:12Z</time>
      </trkpt>
      <trkpt lat="40.3287640" lon="-3.4876040">
        <ele>653.0</ele>
        <time>2021-04-04T12:05:13Z</time>
      </trkpt>
      <trkpt lat="40.3287920" lon="-3.4875690">
        <ele>652.9</ele>
        <time>2021-04-04T12:05:14Z</time>
      </trkpt>
      <trkpt lat="40.3288210" lon="-3.4875300">
        <ele>652.9</ele>
        <time>2021-04-04T12:05:15Z</time>
      </trkpt>
      <trkpt lat="40.3288430" lon="-3.4874920">
        <ele>652.9</ele>
        <time>2021-04-04T12:05:16Z</time>
      </trkpt>
      <trkpt lat="40.3288620" lon="-3.4874500">
        <ele>652.8</ele>
        <time>2021-04-04T12:05:17Z</time>
      </trkpt>
      <trkpt lat="40.3288800" lon="-3.4874030">
        <ele>652.7</ele>
        <time>2021-04-04T12:05:18Z</time>
      </trkpt>
      <trkpt lat="40.3288970" lon="-3.4873520">
        <ele>652.7</ele>
        <time>2021-04-04T12:05:19Z</time>
      </trkpt>
      <trkpt lat="40.3289340" lon="-3.4872520">
        <ele>652.5</ele>
        <time>2021-04-04T12:05:20Z</time>
      </trkpt>
      <trkpt lat="40.3289510" lon="-3.4872090">
        <ele>652.4</ele>
        <time>2021-04-04T12:05:21Z</time>
      </trkpt>
      <trkpt lat="40.3289690" lon="-3.4871700">
        <ele>652.3</ele>
        <time>2021-04-04T12:05:22Z</time>
      </trkpt>
      <trkpt lat="40.3289890" lon="-3.4871310">
        <ele>652.2</ele>
        <time>2021-04-04T12:05:23Z</time>
      </trkpt>
      <trkpt lat="40.3290090" lon="-3.4870920">
        <ele>652.1</ele>
        <time>2021-04-04T12:05:24Z</time>
      </trkpt>
      <trkpt lat="40.3290270" lon="-3.4870530">
        <ele>652.0</ele>
        <time>2021-04-04T12:05:25Z</time>
      </trkpt>
      <trkpt lat="40.3290430" lon="-3.4870160">
        <ele>651.9</ele>
        <time>2021-04-04T12:05:26Z</time>
      </trkpt>
      <trkpt lat="40.3290580" lon="-3.4869750">
        <ele>651.8</ele>
        <time>2021-04-04T12:05:27Z</time>
      </trkpt>
      <trkpt lat="40.3290700" lon="-3.4869320">
        <ele>651.6</ele>
        <time>2021-04-04T12:05:28Z</time>
      </trkpt>
      <trkpt lat="40.3290790" lon="-3.4868850">
        <ele>651.5</ele>
        <time>2021-04-04T12:05:29Z</time>
      </trkpt>
      <trkpt lat="40.3290880" lon="-3.4868350">
        <ele>651.4</ele>
        <time>2021-04-04T12:05:30Z</time>
      </trkpt>
      <trkpt lat="40.3291030" lon="-3.4867880">
        <ele>651.2</ele>
        <time>2021-04-04T12:05:31Z</time>
      </trkpt>
      <trkpt lat="40.3291180" lon="-3.4867410">
        <ele>651.1</ele>
        <time>2021-04-04T12:05:32Z</time>
      </trkpt>
      <trkpt lat="40.3291330" lon="-3.4866930">
        <ele>650.9</ele>
        <time>2021-04-04T12:05:33Z</time>
      </trkpt>
      <trkpt lat="40.3291310" lon="-3.4866280">
        <ele>650.7</ele>
        <time>2021-04-04T12:05:34Z</time>
      </trkpt>
      <trkpt lat="40.3291680" lon="-3.4865830">
        <ele>650.6</ele>
        <time>2021-04-04T12:05:35Z</time>
      </trkpt>
      <trkpt lat="40.3291880" lon="-3.4865260">
        <ele>650.4</ele>
        <time>2021-04-04T12:05:36Z</time>
      </trkpt>
      <trkpt lat="40.3292130" lon="-3.4864590">
        <ele>650.3</ele>
        <time>2021-04-04T12:05:37Z</time>
      </trkpt>
      <trkpt lat="40.3292420" lon="-3.4863940">
        <ele>650.1</ele>
        <time>2021-04-04T12:05:38Z</time>
      </trkpt>
      <trkpt lat="40.3292700" lon="-3.4863270">
        <ele>650.0</ele>
        <time>2021-04-04T12:05:39Z</time>
      </trkpt>
      <trkpt lat="40.3292900" lon="-3.4862580">
        <ele>649.9</ele>
        <time>2021-04-04T12:05:40Z</time>
      </trkpt>
      <trkpt lat="40.3293560" lon="-3.4862250">
        <ele>649.8</ele>
        <time>2021-04-04T12:05:41Z</time>
      </trkpt>
      <trkpt lat="40.3293720" lon="-3.4861550">
        <ele>649.7</ele>
        <time>2021-04-04T12:05:42Z</time>
      </trkpt>
      <trkpt lat="40.3294150" lon="-3.4861050">
        <ele>649.7</ele>
        <time>2021-04-04T12:05:43Z</time>
      </trkpt>
      <trkpt lat="40.3294220" lon="-3.4860480">
        <ele>649.7</ele>
        <time>2021-04-04T12:05:44Z</time>
      </trkpt>
      <trkpt lat="40.3294330" lon="-3.4859790">
        <ele>649.7</ele>
        <time>2021-04-04T12:05:45Z</time>
      </trkpt>
      <trkpt lat="40.3294390" lon="-3.4859020">
        <ele>649.8</ele>
        <time>2021-04-04T12:05:46Z</time>
      </trkpt>
      <trkpt lat="40.3294500" lon="-3.4858380">
        <ele>649.8</ele>
        <time>2021-04-04T12:05:47Z</time>
      </trkpt>
      <trkpt lat="40.3294430" lon="-3.4857640">
        <ele>649.9</ele>
        <time>2021-04-04T12:05:48Z</time>
      </trkpt>
      <trkpt lat="40.3294440" lon="-3.4856790">
        <ele>650.0</ele>
        <time>2021-04-04T12:05:49Z</time>
      </trkpt>
      <trkpt lat="40.3295150" lon="-3.4856680">
        <ele>650.2</ele>
        <time>2021-04-04T12:05:50Z</time>
      </trkpt>
      <trkpt lat="40.3295590" lon="-3.4856190">
        <ele>650.3</ele>
        <time>2021-04-04T12:05:51Z</time>
      </trkpt>
      <trkpt lat="40.3295960" lon="-3.4855040">
        <ele>650.7</ele>
        <time>2021-04-04T12:05:52Z</time>
      </trkpt>
      <trkpt lat="40.3296070" lon="-3.4854120">
        <ele>651.0</ele>
        <time>2021-04-04T12:05:53Z</time>
      </trkpt>
      <trkpt lat="40.3295860" lon="-3.4853400">
        <ele>651.2</ele>
        <time>2021-04-04T12:05:54Z</time>
      </trkpt>
      <trkpt lat="40.3295580" lon="-3.4853110">
        <ele>651.4</ele>
        <time>2021-04-04T12:05:55Z</time>
      </trkpt>
      <trkpt lat="40.3294980" lon="-3.4852660">
        <ele>651.7</ele>
        <time>2021-04-04T12:05:56Z</time>
      </trkpt>
      <trkpt lat="40.3294710" lon="-3.4852120">
        <ele>651.9</ele>
        <time>2021-04-04T12:05:57Z</time>
      </trkpt>
      <trkpt lat="40.3294300" lon="-3.4851490">
        <ele>652.2</ele>
        <time>2021-04-04T12:05:58Z</time>
      </trkpt>
      <trkpt lat="40.3294310" lon="-3.4850690">
        <ele>652.5</ele>
        <time>2021-04-04T12:05:59Z</time>
      </trkpt>
      <trkpt lat="40.3294440" lon="-3.4850210">
        <ele>652.7</ele>
        <time>2021-04-04T12:06:00Z</time>
      </trkpt>
      <trkpt lat="40.3294270" lon="-3.4849410">
        <ele>652.9</ele>
        <time>2021-04-04T12:06:01Z</time>
      </trkpt>
      <trkpt lat="40.3294030" lon="-3.4849040">
        <ele>653.1</ele>
        <time>2021-04-04T12:06:02Z</time>
      </trkpt>
      <trkpt lat="40.3294140" lon="-3.4848420">
        <ele>653.2</ele>
        <time>2021-04-04T12:06:03Z</time>
      </trkpt>
      <trkpt lat="40.3293900" lon="-3.4847870">
        <ele>653.3</ele>
        <time>2021-04-04T12:06:04Z</time>
      </trkpt>
      <trkpt lat="40.3294090" lon="-3.4847450">
        <ele>653.4</ele>
        <time>2021-04-04T12:06:05Z</time>
      </trkpt>
      <trkpt lat="40.3294540" lon="-3.4846980">
        <ele>653.4</ele>
        <time>2021-04-04T12:06:06Z</time>
      </trkpt>
      <trkpt lat="40.3294830" lon="-3.4846420">
        <ele>653.4</ele>
        <time>2021-04-04T12:06:07Z</time>
      </trkpt>
      <trkpt lat="40.3295240" lon="-3.4846220">
        <ele>653.4</ele>
        <time>2021-04-04T12:06:08Z</time>
      </trkpt>
      <trkpt lat="40.3295780" lon="-3.4846170">
        <ele>653.3</ele>
        <time>2021-04-04T12:06:09Z</time>
      </trkpt>
      <trkpt lat="40.3296230" lon="-3.4846060">
        <ele>653.2</ele>
        <time>2021-04-04T12:06:10Z</time>
      </trkpt>
      <trkpt lat="40.3296730" lon="-3.4846040">
        <ele>653.0</ele>
        <time>2021-04-04T12:06:11Z</time>
      </trkpt>
      <trkpt lat="40.3297250" lon="-3.4846120">
        <ele>652.8</ele>
        <time>2021-04-04T12:06:12Z</time>
      </trkpt>
      <trkpt lat="40.3297710" lon="-3.4846030">
        <ele>652.6</ele>
        <time>2021-04-04T12:06:13Z</time>
      </trkpt>
      <trkpt lat="40.3298180" lon="-3.4845960">
        <ele>652.4</ele>
        <time>2021-04-04T12:06:14Z</time>
      </trkpt>
      <trkpt lat="40.3298760" lon="-3.4846040">
        <ele>652.1</ele>
        <time>2021-04-04T12:06:15Z</time>
      </trkpt>
      <trkpt lat="40.3299380" lon="-3.4846060">
        <ele>651.9</ele>
        <time>2021-04-04T12:06:16Z</time>
      </trkpt>
      <trkpt lat="40.3300130" lon="-3.4846440">
        <ele>651.6</ele>
        <time>2021-04-04T12:06:17Z</time>
      </trkpt>
      <trkpt lat="40.3300820" lon="-3.4846250">
        <ele>651.3</ele>
        <time>2021-04-04T12:06:18Z</time>
      </trkpt>
      <trkpt lat="40.3301530" lon="-3.4846240">
        <ele>651.3</ele>
        <time>2021-04-04T12:06:19Z</time>
      </trkpt>
      <trkpt lat="40.3302340" lon="-3.4846340">
        <ele>651.3</ele>
        <time>2021-04-04T12:06:20Z</time>
      </trkpt>
      <trkpt lat="40.3303120" lon="-3.4846430">
        <ele>651.4</ele>
        <time>2021-04-04T12:06:21Z</time>
      </trkpt>
      <trkpt lat="40.3303750" lon="-3.4846390">
        <ele>651.6</ele>
        <time>2021-04-04T12:06:22Z</time>
      </trkpt>
      <trkpt lat="40.3304280" lon="-3.4846130">
        <ele>651.7</ele>
        <time>2021-04-04T12:06:23Z</time>
      </trkpt>
      <trkpt lat="40.3304930" lon="-3.4845850">
        <ele>651.9</ele>
        <time>2021-04-04T12:06:24Z</time>
      </trkpt>
      <trkpt lat="40.3305300" lon="-3.4845530">
        <ele>652.0</ele>
        <time>2021-04-04T12:06:25Z</time>
      </trkpt>
      <trkpt lat="40.3305750" lon="-3.4844950">
        <ele>652.2</ele>
        <time>2021-04-04T12:06:26Z</time>
      </trkpt>
      <trkpt lat="40.3306270" lon="-3.4844770">
        <ele>652.3</ele>
        <time>2021-04-04T12:06:27Z</time>
      </trkpt>
      <trkpt lat="40.3306710" lon="-3.4844380">
        <ele>652.4</ele>
        <time>2021-04-04T12:06:28Z</time>
      </trkpt>
      <trkpt lat="40.3307130" lon="-3.4843730">
        <ele>652.4</ele>
        <time>2021-04-04T12:06:29Z</time>
      </trkpt>
      <trkpt lat="40.3307320" lon="-3.4842990">
        <ele>652.5</ele>
        <time>2021-04-04T12:06:30Z</time>
      </trkpt>
      <trkpt lat="40.3307520" lon="-3.4842250">
        <ele>652.6</ele>
        <time>2021-04-04T12:06:31Z</time>
      </trkpt>
      <trkpt lat="40.3307840" lon="-3.4841650">
        <ele>652.7</ele>
        <time>2021-04-04T12:06:32Z</time>
      </trkpt>
      <trkpt lat="40.3308160" lon="-3.4840990">
        <ele>652.8</ele>
        <time>2021-04-04T12:06:33Z</time>
      </trkpt>
      <trkpt lat="40.3308270" lon="-3.4840040">
        <ele>652.9</ele>
        <time>2021-04-04T12:06:34Z</time>
      </trkpt>
      <trkpt lat="40.3308840" lon="-3.4839630">
        <ele>653.0</ele>
        <time>2021-04-04T12:06:35Z</time>
      </trkpt>
      <trkpt lat="40.3309390" lon="-3.4839230">
        <ele>653.1</ele>
        <time>2021-04-04T12:06:36Z</time>
      </trkpt>
      <trkpt lat="40.3309860" lon="-3.4838690">
        <ele>653.2</ele>
        <time>2021-04-04T12:06:37Z</time>
      </trkpt>
      <trkpt lat="40.3310430" lon="-3.4838530">
        <ele>653.3</ele>
        <time>2021-04-04T12:06:38Z</time>
      </trkpt>
      <trkpt lat="40.3310860" lon="-3.4838390">
        <ele>653.3</ele>
        <time>2021-04-04T12:06:39Z</time>
      </trkpt>
      <trkpt lat="40.3311270" lon="-3.4838200">
        <ele>653.4</ele>
        <time>2021-04-04T12:06:40Z</time>
      </trkpt>
      <trkpt lat="40.3311690" lon="-3.4838180">
        <ele>653.4</ele>
        <time>2021-04-04T12:06:41Z</time>
      </trkpt>
      <trkpt lat="40.3312340" lon="-3.4838380">
        <ele>653.5</ele>
        <time>2021-04-04T12:06:42Z</time>
      </trkpt>
      <trkpt lat="40.3312750" lon="-3.4838830">
        <ele>653.6</ele>
        <time>2021-04-04T12:06:43Z</time>
      </trkpt>
      <trkpt lat="40.3313260" lon="-3.4839330">
        <ele>653.8</ele>
        <time>2021-04-04T12:06:44Z</time>
      </trkpt>
      <trkpt lat="40.3313670" lon="-3.4839590">
        <ele>653.9</ele>
        <time>2021-04-04T12:06:45Z</time>
      </trkpt>
      <trkpt lat="40.3314150" lon="-3.4839700">
        <ele>654.0</ele>
        <time>2021-04-04T12:06:46Z</time>
      </trkpt>
      <trkpt lat="40.3314470" lon="-3.4840140">
        <ele>654.1</ele>
        <time>2021-04-04T12:06:47Z</time>
      </trkpt>
      <trkpt lat="40.3315050" lon="-3.4840480">
        <ele>654.3</ele>
        <time>2021-04-04T12:06:48Z</time>
      </trkpt>
      <trkpt lat="40.3315650" lon="-3.4841160">
        <ele>654.5</ele>
        <time>2021-04-04T12:06:49Z</time>
      </trkpt>
      <trkpt lat="40.3315970" lon="-3.4841420">
        <ele>654.6</ele>
        <time>2021-04-04T12:06:50Z</time>
      </trkpt>
      <trkpt lat="40.3316240" lon="-3.4841700">
        <ele>654.7</ele>
        <time>2021-04-04T12:06:51Z</time>
      </trkpt>
      <trkpt lat="40.3316540" lon="-3.4842190">
        <ele>654.8</ele>
        <time>2021-04-04T12:06:52Z</time>
      </trkpt>
      <trkpt lat="40.3316860" lon="-3.4842450">
        <ele>654.9</ele>
        <time>2021-04-04T12:06:53Z</time>
      </trkpt>
      <trkpt lat="40.3317250" lon="-3.4842690">
        <ele>655.1</ele>
        <time>2021-04-04T12:06:54Z</time>
      </trkpt>
      <trkpt lat="40.3317590" lon="-3.4842730">
        <ele>655.2</ele>
        <time>2021-04-04T12:06:55Z</time>
      </trkpt>
      <trkpt lat="40.3317630" lon="-3.4842820">
        <ele>655.2</ele>
        <time>2021-04-04T12:06:56Z</time>
      </trkpt>
      <trkpt lat="40.3317600" lon="-3.4842670">
        <ele>655.3</ele>
        <time>2021-04-04T12:06:57Z</time>
      </trkpt>
      <trkpt lat="40.3317620" lon="-3.4842690">
        <ele>655.3</ele>
        <time>2021-04-04T12:06:58Z</time>
      </trkpt>
      <trkpt lat="40.3317620" lon="-3.4842690">
        <ele>655.3</ele>
        <time>2021-04-04T12:06:59Z</time>
      </trkpt>
      <trkpt lat="40.3317630" lon="-3.4842530">
        <ele>655.3</ele>
        <time>2021-04-04T12:07:00Z</time>
      </trkpt>
      <trkpt lat="40.3317600" lon="-3.4842490">
        <ele>655.4</ele>
        <time>2021-04-04T12:07:01Z</time>
      </trkpt>
      <trkpt lat="40.3317450" lon="-3.4842530">
        <ele>655.4</ele>
        <time>2021-04-04T12:07:02Z</time>
      </trkpt>
      <trkpt lat="40.3317410" lon="-3.4842610">
        <ele>655.4</ele>
        <time>2021-04-04T12:07:03Z</time>
      </trkpt>
      <trkpt lat="40.3317320" lon="-3.4842550">
        <ele>655.5</ele>
        <time>2021-04-04T12:07:04Z</time>
      </trkpt>
      <trkpt lat="40.3317250" lon="-3.4842470">
        <ele>655.5</ele>
        <time>2021-04-04T12:07:05Z</time>
      </trkpt>
      <trkpt lat="40.3317140" lon="-3.4842350">
        <ele>655.6</ele>
        <time>2021-04-04T12:07:06Z</time>
      </trkpt>
      <trkpt lat="40.3317060" lon="-3.4842220">
        <ele>655.6</ele>
        <time>2021-04-04T12:07:07Z</time>
      </trkpt>
      <trkpt lat="40.3317090" lon="-3.4842160">
        <ele>655.6</ele>
        <time>2021-04-04T12:07:08Z</time>
      </trkpt>
      <trkpt lat="40.3317140" lon="-3.4842180">
        <ele>655.7</ele>
        <time>2021-04-04T12:07:09Z</time>
      </trkpt>
      <trkpt lat="40.3317190" lon="-3.4842200">
        <ele>655.7</ele>
        <time>2021-04-04T12:07:10Z</time>
      </trkpt>
      <trkpt lat="40.3317230" lon="-3.4842220">
        <ele>655.7</ele>
        <time>2021-04-04T12:07:11Z</time>
      </trkpt>
      <trkpt lat="40.3317280" lon="-3.4842240">
        <ele>655.7</ele>
        <time>2021-04-04T12:07:12Z</time>
      </trkpt>
      <trkpt lat="40.3317330" lon="-3.4842260">
        <ele>655.7</ele>
        <time>2021-04-04T12:07:13Z</time>
      </trkpt>
      <trkpt lat="40.3317380" lon="-3.4842290">
        <ele>655.7</ele>
        <time>2021-04-04T12:07:14Z</time>
      </trkpt>
      <trkpt lat="40.3317430" lon="-3.4842310">
        <ele>655.8</ele>
        <time>2021-04-04T12:07:15Z</time>
      </trkpt>
      <trkpt lat="40.3317480" lon="-3.4842330">
        <ele>655.8</ele>
        <time>2021-04-04T12:07:16Z</time>
      </trkpt>
      <trkpt lat="40.3317520" lon="-3.4842350">
        <ele>655.8</ele>
        <time>2021-04-04T12:07:17Z</time>
      </trkpt>
      <trkpt lat="40.3317570" lon="-3.4842370">
        <ele>655.8</ele>
        <time>2021-04-04T12:07:18Z</time>
      </trkpt>
      <trkpt lat="40.3317620" lon="-3.4842390">
        <ele>655.8</ele>
        <time>2021-04-04T12:09:27Z</time>
      </trkpt>
      <trkpt lat="40.3317670" lon="-3.4842410">
        <ele>655.9</ele>
        <time>2021-04-04T12:09:28Z</time>
      </trkpt>
      <trkpt lat="40.3318040" lon="-3.4842690">
        <ele>656.0</ele>
        <time>2021-04-04T12:09:29Z</time>
      </trkpt>
      <trkpt lat="40.3318180" lon="-3.4842810">
        <ele>656.1</ele>
        <time>2021-04-04T12:09:30Z</time>
      </trkpt>
      <trkpt lat="40.3318470" lon="-3.4843020">
        <ele>656.2</ele>
        <time>2021-04-04T12:09:31Z</time>
      </trkpt>
      <trkpt lat="40.3318790" lon="-3.4843270">
        <ele>656.4</ele>
        <time>2021-04-04T12:09:32Z</time>
      </trkpt>
      <trkpt lat="40.3319150" lon="-3.4843590">
        <ele>656.6</ele>
        <time>2021-04-04T12:09:33Z</time>
      </trkpt>
      <trkpt lat="40.3319540" lon="-3.4843880">
        <ele>656.8</ele>
        <time>2021-04-04T12:09:34Z</time>
      </trkpt>
      <trkpt lat="40.3319980" lon="-3.4844200">
        <ele>657.0</ele>
        <time>2021-04-04T12:09:35Z</time>
      </trkpt>
      <trkpt lat="40.3320440" lon="-3.4844490">
        <ele>657.2</ele>
        <time>2021-04-04T12:09:36Z</time>
      </trkpt>
      <trkpt lat="40.3320930" lon="-3.4844790">
        <ele>657.5</ele>
        <time>2021-04-04T12:09:37Z</time>
      </trkpt>
      <trkpt lat="40.3321380" lon="-3.4845080">
        <ele>657.7</ele>
        <time>2021-04-04T12:09:38Z</time>
      </trkpt>
      <trkpt lat="40.3321830" lon="-3.4845340">
        <ele>657.9</ele>
        <time>2021-04-04T12:09:39Z</time>
      </trkpt>
      <trkpt lat="40.3322300" lon="-3.4845600">
        <ele>658.2</ele>
        <time>2021-04-04T12:09:40Z</time>
      </trkpt>
      <trkpt lat="40.3322950" lon="-3.4846090">
        <ele>658.5</ele>
        <time>2021-04-04T12:09:41Z</time>
      </trkpt>
      <trkpt lat="40.3323450" lon="-3.4846220">
        <ele>658.8</ele>
        <time>2021-04-04T12:09:42Z</time>
      </trkpt>
      <trkpt lat="40.3323970" lon="-3.4846640">
        <ele>659.1</ele>
        <time>2021-04-04T12:09:43Z</time>
      </trkpt>
      <trkpt lat="40.3324540" lon="-3.4847010">
        <ele>659.4</ele>
        <time>2021-04-04T12:09:44Z</time>
      </trkpt>
      <trkpt lat="40.3325050" lon="-3.4847400">
        <ele>659.6</ele>
        <time>2021-04-04T12:09:45Z</time>
      </trkpt>
      <trkpt lat="40.3325250" lon="-3.4847880">
        <ele>659.8</ele>
        <time>2021-04-04T12:09:46Z</time>
      </trkpt>
      <trkpt lat="40.3325530" lon="-3.4848550">
        <ele>660.0</ele>
        <time>2021-04-04T12:09:47Z</time>
      </trkpt>
      <trkpt lat="40.3325750" lon="-3.4848920">
        <ele>660.1</ele>
        <time>2021-04-04T12:09:48Z</time>
      </trkpt>
      <trkpt lat="40.3326020" lon="-3.4849320">
        <ele>660.2</ele>
        <time>2021-04-04T12:09:49Z</time>
      </trkpt>
      <trkpt lat="40.3326020" lon="-3.4849680">
        <ele>660.3</ele>
        <time>2021-04-04T12:09:50Z</time>
      </trkpt>
      <trkpt lat="40.3326230" lon="-3.4850150">
        <ele>660.4</ele>
        <time>2021-04-04T12:09:51Z</time>
      </trkpt>
      <trkpt lat="40.3326360" lon="-3.4850340">
        <ele>660.4</ele>
        <time>2021-04-04T12:09:52Z</time>
      </trkpt>
      <trkpt lat="40.3326790" lon="-3.4850600">
        <ele>660.6</ele>
        <time>2021-04-04T12:09:53Z</time>
      </trkpt>
      <trkpt lat="40.3327120" lon="-3.4850840">
        <ele>660.7</ele>
        <time>2021-04-04T12:09:54Z</time>
      </trkpt>
      <trkpt lat="40.3327450" lon="-3.4851230">
        <ele>660.8</ele>
        <time>2021-04-04T12:09:55Z</time>
      </trkpt>
      <trkpt lat="40.3327790" lon="-3.4851610">
        <ele>660.9</ele>
        <time>2021-04-04T12:09:56Z</time>
      </trkpt>
      <trkpt lat="40.3328100" lon="-3.4852050">
        <ele>661.0</ele>
        <time>2021-04-04T12:09:57Z</time>
      </trkpt>
      <trkpt lat="40.3328420" lon="-3.4852450">
        <ele>661.0</ele>
        <time>2021-04-04T12:09:58Z</time>
      </trkpt>
      <trkpt lat="40.3328750" lon="-3.4852760">
        <ele>661.1</ele>
        <time>2021-04-04T12:09:59Z</time>
      </trkpt>
      <trkpt lat="40.3329060" lon="-3.4853060">
        <ele>661.1</ele>
        <time>2021-04-04T12:10:00Z</time>
      </trkpt>
      <trkpt lat="40.3329410" lon="-3.4853350">
        <ele>661.2</ele>
        <time>2021-04-04T12:10:01Z</time>
      </trkpt>
      <trkpt lat="40.3329730" lon="-3.4853650">
        <ele>661.3</ele>
        <time>2021-04-04T12:10:02Z</time>
      </trkpt>
      <trkpt lat="40.3330050" lon="-3.4853930">
        <ele>661.3</ele>
        <time>2021-04-04T12:10:03Z</time>
      </trkpt>
      <trkpt lat="40.3330400" lon="-3.4854210">
        <ele>661.3</ele>
        <time>2021-04-04T12:10:04Z</time>
      </trkpt>
      <trkpt lat="40.3330770" lon="-3.4854480">
        <ele>661.4</ele>
        <time>2021-04-04T12:10:05Z</time>
      </trkpt>
      <trkpt lat="40.3331070" lon="-3.4854700">
        <ele>661.4</ele>
        <time>2021-04-04T12:10:06Z</time>
      </trkpt>
      <trkpt lat="40.3331350" lon="-3.4854900">
        <ele>661.4</ele>
        <time>2021-04-04T12:10:07Z</time>
      </trkpt>
      <trkpt lat="40.3331610" lon="-3.4855130">
        <ele>661.5</ele>
        <time>2021-04-04T12:10:08Z</time>
      </trkpt>
      <trkpt lat="40.3331970" lon="-3.4855340">
        <ele>661.5</ele>
        <time>2021-04-04T12:10:09Z</time>
      </trkpt>
      <trkpt lat="40.3332710" lon="-3.4855660">
        <ele>661.6</ele>
        <time>2021-04-04T12:10:10Z</time>
      </trkpt>
      <trkpt lat="40.3333230" lon="-3.4856100">
        <ele>661.6</ele>
        <time>2021-04-04T12:10:11Z</time>
      </trkpt>
      <trkpt lat="40.3333400" lon="-3.4856550">
        <ele>661.7</ele>
        <time>2021-04-04T12:10:12Z</time>
      </trkpt>
      <trkpt lat="40.3333260" lon="-3.4857070">
        <ele>661.7</ele>
        <time>2021-04-04T12:10:13Z</time>
      </trkpt>
      <trkpt lat="40.3333640" lon="-3.4857580">
        <ele>661.7</ele>
        <time>2021-04-04T12:10:14Z</time>
      </trkpt>
      <trkpt lat="40.3333710" lon="-3.4858240">
        <ele>661.8</ele>
        <time>2021-04-04T12:10:15Z</time>
      </trkpt>
      <trkpt lat="40.3333990" lon="-3.4858840">
        <ele>661.8</ele>
        <time>2021-04-04T12:10:16Z</time>
      </trkpt>
      <trkpt lat="40.3334390" lon="-3.4859530">
        <ele>661.9</ele>
        <time>2021-04-04T12:10:17Z</time>
      </trkpt>
      <trkpt lat="40.3334630" lon="-3.4860050">
        <ele>661.9</ele>
        <time>2021-04-04T12:10:18Z</time>
      </trkpt>
      <trkpt lat="40.3335050" lon="-3.4860590">
        <ele>661.9</ele>
        <time>2021-04-04T12:10:19Z</time>
      </trkpt>
      <trkpt lat="40.3335380" lon="-3.4861020">
        <ele>661.9</ele>
        <time>2021-04-04T12:10:20Z</time>
      </trkpt>
      <trkpt lat="40.3335670" lon="-3.4861630">
        <ele>661.8</ele>
        <time>2021-04-04T12:10:21Z</time>
      </trkpt>
      <trkpt lat="40.3336080" lon="-3.4862330">
        <ele>661.7</ele>
        <time>2021-04-04T12:10:22Z</time>
      </trkpt>
      <trkpt lat="40.3336350" lon="-3.4862870">
        <ele>661.6</ele>
        <time>2021-04-04T12:10:23Z</time>
      </trkpt>
      <trkpt lat="40.3336600" lon="-3.4863380">
        <ele>661.5</ele>
        <time>2021-04-04T12:10:24Z</time>
      </trkpt>
      <trkpt lat="40.3336860" lon="-3.4864040">
        <ele>661.3</ele>
        <time>2021-04-04T12:10:25Z</time>
      </trkpt>
      <trkpt lat="40.3337220" lon="-3.4864450">
        <ele>661.1</ele>
        <time>2021-04-04T12:10:26Z</time>
      </trkpt>
      <trkpt lat="40.3337590" lon="-3.4864820">
        <ele>661.0</ele>
        <time>2021-04-04T12:10:27Z</time>
      </trkpt>
      <trkpt lat="40.3337810" lon="-3.4865360">
        <ele>660.8</ele>
        <time>2021-04-04T12:10:28Z</time>
      </trkpt>
      <trkpt lat="40.3338080" lon="-3.4865980">
        <ele>660.6</ele>
        <time>2021-04-04T12:10:29Z</time>
      </trkpt>
      <trkpt lat="40.3338390" lon="-3.4866500">
        <ele>660.5</ele>
        <time>2021-04-04T12:10:30Z</time>
      </trkpt>
      <trkpt lat="40.3338710" lon="-3.4867120">
        <ele>660.3</ele>
        <time>2021-04-04T12:10:31Z</time>
      </trkpt>
      <trkpt lat="40.3339050" lon="-3.4867760">
        <ele>660.1</ele>
        <time>2021-04-04T12:10:32Z</time>
      </trkpt>
      <trkpt lat="40.3339580" lon="-3.4868350">
        <ele>659.8</ele>
        <time>2021-04-04T12:10:33Z</time>
      </trkpt>
      <trkpt lat="40.3339900" lon="-3.4868950">
        <ele>659.6</ele>
        <time>2021-04-04T12:10:34Z</time>
      </trkpt>
      <trkpt lat="40.3340300" lon="-3.4869630">
        <ele>659.3</ele>
        <time>2021-04-04T12:10:35Z</time>
      </trkpt>
      <trkpt lat="40.3340770" lon="-3.4870180">
        <ele>659.0</ele>
        <time>2021-04-04T12:10:36Z</time>
      </trkpt>
      <trkpt lat="40.3340990" lon="-3.4870890">
        <ele>658.7</ele>
        <time>2021-04-04T12:10:37Z</time>
      </trkpt>
      <trkpt lat="40.3341420" lon="-3.4871490">
        <ele>658.4</ele>
        <time>2021-04-04T12:10:38Z</time>
      </trkpt>
      <trkpt lat="40.3341890" lon="-3.4872230">
        <ele>658.0</ele>
        <time>2021-04-04T12:10:39Z</time>
      </trkpt>
      <trkpt lat="40.3342410" lon="-3.4872930">
        <ele>657.5</ele>
        <time>2021-04-04T12:10:40Z</time>
      </trkpt>
      <trkpt lat="40.3342770" lon="-3.4873680">
        <ele>657.1</ele>
        <time>2021-04-04T12:10:41Z</time>
      </trkpt>
      <trkpt lat="40.3342990" lon="-3.4874400">
        <ele>656.7</ele>
        <time>2021-04-04T12:10:42Z</time>
      </trkpt>
      <trkpt lat="40.3343350" lon="-3.4875110">
        <ele>656.3</ele>
        <time>2021-04-04T12:10:43Z</time>
      </trkpt>
      <trkpt lat="40.3343570" lon="-3.4875980">
        <ele>655.8</ele>
        <time>2021-04-04T12:10:44Z</time>
      </trkpt>
      <trkpt lat="40.3343860" lon="-3.4876830">
        <ele>655.5</ele>
        <time>2021-04-04T12:10:45Z</time>
      </trkpt>
      <trkpt lat="40.3344230" lon="-3.4877770">
        <ele>655.3</ele>
        <time>2021-04-04T12:10:46Z</time>
      </trkpt>
      <trkpt lat="40.3344300" lon="-3.4878780">
        <ele>655.1</ele>
        <time>2021-04-04T12:10:47Z</time>
      </trkpt>
      <trkpt lat="40.3344430" lon="-3.4879790">
        <ele>655.1</ele>
        <time>2021-04-04T12:10:48Z</time>
      </trkpt>
      <trkpt lat="40.3344650" lon="-3.4880850">
        <ele>655.3</ele>
        <time>2021-04-04T12:10:49Z</time>
      </trkpt>
      <trkpt lat="40.3344880" lon="-3.4882030">
        <ele>655.5</ele>
        <time>2021-04-04T12:10:50Z</time>
      </trkpt>
      <trkpt lat="40.3345170" lon="-3.4883110">
        <ele>655.7</ele>
        <time>2021-04-04T12:10:51Z</time>
      </trkpt>
      <trkpt lat="40.3345360" lon="-3.4884120">
        <ele>655.7</ele>
        <time>2021-04-04T12:10:52Z</time>
      </trkpt>
      <trkpt lat="40.3345580" lon="-3.4884810">
        <ele>655.7</ele>
        <time>2021-04-04T12:10:53Z</time>
      </trkpt>
      <trkpt lat="40.3345650" lon="-3.4885560">
        <ele>655.6</ele>
        <time>2021-04-04T12:10:54Z</time>
      </trkpt>
      <trkpt lat="40.3345760" lon="-3.4886470">
        <ele>655.4</ele>
        <time>2021-04-04T12:10:55Z</time>
      </trkpt>
      <trkpt lat="40.3346110" lon="-3.4887190">
        <ele>655.1</ele>
        <time>2021-04-04T12:10:56Z</time>
      </trkpt>
      <trkpt lat="40.3346640" lon="-3.4887740">
        <ele>654.6</ele>
        <time>2021-04-04T12:10:57Z</time>
      </trkpt>
      <trkpt lat="40.3347070" lon="-3.4888270">
        <ele>654.1</ele>
        <time>2021-04-04T12:10:58Z</time>
      </trkpt>
      <trkpt lat="40.3347680" lon="-3.4888870">
        <ele>653.3</ele>
        <time>2021-04-04T12:10:59Z</time>
      </trkpt>
      <trkpt lat="40.3348270" lon="-3.4889230">
        <ele>652.5</ele>
        <time>2021-04-04T12:11:00Z</time>
      </trkpt>
      <trkpt lat="40.3348890" lon="-3.4889730">
        <ele>651.6</ele>
        <time>2021-04-04T12:11:01Z</time>
      </trkpt>
      <trkpt lat="40.3349530" lon="-3.4890100">
        <ele>650.7</ele>
        <time>2021-04-04T12:11:02Z</time>
      </trkpt>
      <trkpt lat="40.3350340" lon="-3.4890780">
        <ele>649.4</ele>
        <time>2021-04-04T12:11:03Z</time>
      </trkpt>
      <trkpt lat="40.3351070" lon="-3.4891490">
        <ele>648.1</ele>
        <time>2021-04-04T12:11:04Z</time>
      </trkpt>
      <trkpt lat="40.3351860" lon="-3.4892410">
        <ele>646.7</ele>
        <time>2021-04-04T12:11:05Z</time>
      </trkpt>
      <trkpt lat="40.3352400" lon="-3.4893220">
        <ele>645.9</ele>
        <time>2021-04-04T12:11:06Z</time>
      </trkpt>
      <trkpt lat="40.3353210" lon="-3.4894260">
        <ele>644.9</ele>
        <time>2021-04-04T12:11:07Z</time>
      </trkpt>
      <trkpt lat="40.3353510" lon="-3.4895390">
        <ele>644.2</ele>
        <time>2021-04-04T12:11:08Z</time>
      </trkpt>
      <trkpt lat="40.3354190" lon="-3.4896610">
        <ele>643.5</ele>
        <time>2021-04-04T12:11:09Z</time>
      </trkpt>
      <trkpt lat="40.3354700" lon="-3.4897870">
        <ele>643.0</ele>
        <time>2021-04-04T12:11:10Z</time>
      </trkpt>
      <trkpt lat="40.3355140" lon="-3.4899120">
        <ele>642.7</ele>
        <time>2021-04-04T12:11:11Z</time>
      </trkpt>
      <trkpt lat="40.3355600" lon="-3.4900350">
        <ele>642.4</ele>
        <time>2021-04-04T12:11:12Z</time>
      </trkpt>
      <trkpt lat="40.3356200" lon="-3.4901310">
        <ele>642.2</ele>
        <time>2021-04-04T12:11:13Z</time>
      </trkpt>
      <trkpt lat="40.3356640" lon="-3.4902230">
        <ele>642.1</ele>
        <time>2021-04-04T12:11:14Z</time>
      </trkpt>
      <trkpt lat="40.3357070" lon="-3.4903130">
        <ele>642.1</ele>
        <time>2021-04-04T12:11:15Z</time>
      </trkpt>
      <trkpt lat="40.3357080" lon="-3.4903750">
        <ele>642.1</ele>
        <time>2021-04-04T12:11:16Z</time>
      </trkpt>
      <trkpt lat="40.3357460" lon="-3.4904390">
        <ele>642.1</ele>
        <time>2021-04-04T12:11:17Z</time>
      </trkpt>
      <trkpt lat="40.3357660" lon="-3.4904900">
        <ele>642.2</ele>
        <time>2021-04-04T12:11:18Z</time>
      </trkpt>
      <trkpt lat="40.3358030" lon="-3.4905450">
        <ele>642.3</ele>
        <time>2021-04-04T12:11:19Z</time>
      </trkpt>
      <trkpt lat="40.3358310" lon="-3.4905970">
        <ele>642.4</ele>
        <time>2021-04-04T12:11:20Z</time>
      </trkpt>
      <trkpt lat="40.3358640" lon="-3.4906580">
        <ele>642.6</ele>
        <time>2021-04-04T12:11:21Z</time>
      </trkpt>
      <trkpt lat="40.3358960" lon="-3.4907020">
        <ele>642.7</ele>
        <time>2021-04-04T12:11:22Z</time>
      </trkpt>
      <trkpt lat="40.3359510" lon="-3.4907450">
        <ele>643.0</ele>
        <time>2021-04-04T12:11:23Z</time>
      </trkpt>
      <trkpt lat="40.3359970" lon="-3.4907790">
        <ele>643.2</ele>
        <time>2021-04-04T12:11:24Z</time>
      </trkpt>
      <trkpt lat="40.3360360" lon="-3.4908120">
        <ele>643.4</ele>
        <time>2021-04-04T12:11:25Z</time>
      </trkpt>
      <trkpt lat="40.3360750" lon="-3.4908340">
        <ele>643.6</ele>
        <time>2021-04-04T12:11:26Z</time>
      </trkpt>
      <trkpt lat="40.3361530" lon="-3.4908460">
        <ele>644.0</ele>
        <time>2021-04-04T12:11:27Z</time>
      </trkpt>
      <trkpt lat="40.3362040" lon="-3.4908580">
        <ele>644.2</ele>
        <time>2021-04-04T12:11:28Z</time>
      </trkpt>
      <trkpt lat="40.3362700" lon="-3.4908850">
        <ele>644.5</ele>
        <time>2021-04-04T12:11:29Z</time>
      </trkpt>
      <trkpt lat="40.3363160" lon="-3.4909250">
        <ele>644.7</ele>
        <time>2021-04-04T12:11:30Z</time>
      </trkpt>
      <trkpt lat="40.3363580" lon="-3.4909510">
        <ele>644.9</ele>
        <time>2021-04-04T12:11:31Z</time>
      </trkpt>
      <trkpt lat="40.3364100" lon="-3.4909760">
        <ele>645.0</ele>
        <time>2021-04-04T12:11:32Z</time>
      </trkpt>
      <trkpt lat="40.3364590" lon="-3.4910010">
        <ele>645.2</ele>
        <time>2021-04-04T12:11:33Z</time>
      </trkpt>
      <trkpt lat="40.3365010" lon="-3.4909910">
        <ele>645.4</ele>
        <time>2021-04-04T12:11:34Z</time>
      </trkpt>
      <trkpt lat="40.3365450" lon="-3.4910180">
        <ele>645.6</ele>
        <time>2021-04-04T12:11:35Z</time>
      </trkpt>
      <trkpt lat="40.3365760" lon="-3.4910350">
        <ele>645.7</ele>
        <time>2021-04-04T12:11:36Z</time>
      </trkpt>
      <trkpt lat="40.3366130" lon="-3.4910380">
        <ele>645.9</ele>
        <time>2021-04-04T12:11:37Z</time>
      </trkpt>
      <trkpt lat="40.3366600" lon="-3.4910710">
        <ele>646.1</ele>
        <time>2021-04-04T12:11:38Z</time>
      </trkpt>
      <trkpt lat="40.3366940" lon="-3.4910930">
        <ele>646.3</ele>
        <time>2021-04-04T12:11:40Z</time>
      </trkpt>
      <trkpt lat="40.3367400" lon="-3.4911020">
        <ele>646.5</ele>
        <time>2021-04-04T12:11:41Z</time>
      </trkpt>
      <trkpt lat="40.3367700" lon="-3.4911190">
        <ele>646.6</ele>
        <time>2021-04-04T12:11:42Z</time>
      </trkpt>
      <trkpt lat="40.3368170" lon="-3.4911370">
        <ele>646.9</ele>
        <time>2021-04-04T12:11:43Z</time>
      </trkpt>
      <trkpt lat="40.3368440" lon="-3.4911620">
        <ele>647.1</ele>
        <time>2021-04-04T12:11:44Z</time>
      </trkpt>
      <trkpt lat="40.3368880" lon="-3.4911790">
        <ele>647.3</ele>
        <time>2021-04-04T12:11:45Z</time>
      </trkpt>
      <trkpt lat="40.3369250" lon="-3.4912050">
        <ele>647.6</ele>
        <time>2021-04-04T12:11:46Z</time>
      </trkpt>
      <trkpt lat="40.3369630" lon="-3.4912190">
        <ele>647.8</ele>
        <time>2021-04-04T12:11:47Z</time>
      </trkpt>
      <trkpt lat="40.3370040" lon="-3.4912430">
        <ele>648.1</ele>
        <time>2021-04-04T12:11:48Z</time>
      </trkpt>
      <trkpt lat="40.3370450" lon="-3.4912670">
        <ele>648.3</ele>
        <time>2021-04-04T12:11:49Z</time>
      </trkpt>
      <trkpt lat="40.3370770" lon="-3.4912870">
        <ele>648.5</ele>
        <time>2021-04-04T12:11:50Z</time>
      </trkpt>
      <trkpt lat="40.3371080" lon="-3.4913090">
        <ele>648.7</ele>
        <time>2021-04-04T12:11:51Z</time>
      </trkpt>
      <trkpt lat="40.3371450" lon="-3.4913320">
        <ele>649.0</ele>
        <time>2021-04-04T12:11:52Z</time>
      </trkpt>
      <trkpt lat="40.3371810" lon="-3.4913550">
        <ele>649.2</ele>
        <time>2021-04-04T12:11:53Z</time>
      </trkpt>
      <trkpt lat="40.3372160" lon="-3.4913730">
        <ele>649.4</ele>
        <time>2021-04-04T12:11:54Z</time>
      </trkpt>
      <trkpt lat="40.3372510" lon="-3.4913930">
        <ele>649.6</ele>
        <time>2021-04-04T12:11:55Z</time>
      </trkpt>
      <trkpt lat="40.3372880" lon="-3.4914150">
        <ele>649.9</ele>
        <time>2021-04-04T12:11:56Z</time>
      </trkpt>
      <trkpt lat="40.3373200" lon="-3.4914380">
        <ele>650.1</ele>
        <time>2021-04-04T12:11:57Z</time>
      </trkpt>
      <trkpt lat="40.3373470" lon="-3.4914620">
        <ele>650.3</ele>
        <time>2021-04-04T12:11:58Z</time>
      </trkpt>
      <trkpt lat="40.3373760" lon="-3.4914890">
        <ele>650.4</ele>
        <time>2021-04-04T12:11:59Z</time>
      </trkpt>
      <trkpt lat="40.3374080" lon="-3.4915180">
        <ele>650.7</ele>
        <time>2021-04-04T12:12:00Z</time>
      </trkpt>
      <trkpt lat="40.3374400" lon="-3.4915430">
        <ele>650.9</ele>
        <time>2021-04-04T12:12:01Z</time>
      </trkpt>
      <trkpt lat="40.3374750" lon="-3.4915690">
        <ele>651.1</ele>
        <time>2021-04-04T12:12:02Z</time>
      </trkpt>
      <trkpt lat="40.3375100" lon="-3.4915910">
        <ele>651.3</ele>
        <time>2021-04-04T12:12:03Z</time>
      </trkpt>
      <trkpt lat="40.3375730" lon="-3.4916390">
        <ele>651.6</ele>
        <time>2021-04-04T12:12:04Z</time>
      </trkpt>
      <trkpt lat="40.3376030" lon="-3.4916680">
        <ele>651.8</ele>
        <time>2021-04-04T12:12:05Z</time>
      </trkpt>
      <trkpt lat="40.3376320" lon="-3.4916950">
        <ele>651.9</ele>
        <time>2021-04-04T12:12:06Z</time>
      </trkpt>
      <trkpt lat="40.3376640" lon="-3.4917230">
        <ele>652.1</ele>
        <time>2021-04-04T12:12:07Z</time>
      </trkpt>
      <trkpt lat="40.3376920" lon="-3.4917490">
        <ele>652.2</ele>
        <time>2021-04-04T12:12:08Z</time>
      </trkpt>
      <trkpt lat="40.3377190" lon="-3.4917770">
        <ele>652.4</ele>
        <time>2021-04-04T12:12:09Z</time>
      </trkpt>
      <trkpt lat="40.3377410" lon="-3.4918060">
        <ele>652.5</ele>
        <time>2021-04-04T12:12:10Z</time>
      </trkpt>
      <trkpt lat="40.3377640" lon="-3.4918340">
        <ele>652.7</ele>
        <time>2021-04-04T12:12:11Z</time>
      </trkpt>
      <trkpt lat="40.3377890" lon="-3.4918620">
        <ele>652.9</ele>
        <time>2021-04-04T12:12:12Z</time>
      </trkpt>
      <trkpt lat="40.3378160" lon="-3.4918940">
        <ele>653.1</ele>
        <time>2021-04-04T12:12:13Z</time>
      </trkpt>
      <trkpt lat="40.3378390" lon="-3.4919260">
        <ele>653.3</ele>
        <time>2021-04-04T12:12:14Z</time>
      </trkpt>
      <trkpt lat="40.3378620" lon="-3.4919530">
        <ele>653.6</ele>
        <time>2021-04-04T12:12:15Z</time>
      </trkpt>
      <trkpt lat="40.3378900" lon="-3.4919890">
        <ele>653.9</ele>
        <time>2021-04-04T12:12:16Z</time>
      </trkpt>
      <trkpt lat="40.3379000" lon="-3.4920000">
        <ele>654.0</ele>
        <time>2021-04-04T12:12:17Z</time>
      </trkpt>
      <trkpt lat="40.3379270" lon="-3.4920400">
        <ele>654.4</ele>
        <time>2021-04-04T12:12:18Z</time>
      </trkpt>
      <trkpt lat="40.3379360" lon="-3.4920540">
        <ele>654.5</ele>
        <time>2021-04-04T12:12:19Z</time>
      </trkpt>
      <trkpt lat="40.3379530" lon="-3.4920820">
        <ele>654.8</ele>
        <time>2021-04-04T12:12:20Z</time>
      </trkpt>
      <trkpt lat="40.3379720" lon="-3.4921150">
        <ele>655.1</ele>
        <time>2021-04-04T12:12:21Z</time>
      </trkpt>
      <trkpt lat="40.3379770" lon="-3.4921260">
        <ele>655.2</ele>
        <time>2021-04-04T12:12:22Z</time>
      </trkpt>
      <trkpt lat="40.3379880" lon="-3.4921440">
        <ele>655.4</ele>
        <time>2021-04-04T12:12:23Z</time>
      </trkpt>
      <trkpt lat="40.3379960" lon="-3.4921580">
        <ele>655.5</ele>
        <time>2021-04-04T12:12:24Z</time>
      </trkpt>
      <trkpt lat="40.3380030" lon="-3.4921720">
        <ele>655.7</ele>
        <time>2021-04-04T12:12:25Z</time>
      </trkpt>
      <trkpt lat="40.3380100" lon="-3.4921910">
        <ele>655.9</ele>
        <time>2021-04-04T12:12:26Z</time>
      </trkpt>
      <trkpt lat="40.3380200" lon="-3.4922090">
        <ele>656.0</ele>
        <time>2021-04-04T12:12:27Z</time>
      </trkpt>
      <trkpt lat="40.3380350" lon="-3.4922240">
        <ele>656.3</ele>
        <time>2021-04-04T12:12:28Z</time>
      </trkpt>
      <trkpt lat="40.3380470" lon="-3.4922350">
        <ele>656.4</ele>
        <time>2021-04-04T12:12:29Z</time>
      </trkpt>
      <trkpt lat="40.3380600" lon="-3.4922460">
        <ele>656.6</ele>
        <time>2021-04-04T12:12:30Z</time>
      </trkpt>
      <trkpt lat="40.3380720" lon="-3.4922600">
        <ele>656.8</ele>
        <time>2021-04-04T12:12:31Z</time>
      </trkpt>
      <trkpt lat="40.3380850" lon="-3.4922750">
        <ele>657.0</ele>
        <time>2021-04-04T12:12:32Z</time>
      </trkpt>
      <trkpt lat="40.3380990" lon="-3.4922880">
        <ele>657.2</ele>
        <time>2021-04-04T12:12:33Z</time>
      </trkpt>
      <trkpt lat="40.3381070" lon="-3.4923020">
        <ele>657.4</ele>
        <time>2021-04-04T12:12:34Z</time>
      </trkpt>
      <trkpt lat="40.3381370" lon="-3.4923250">
        <ele>657.8</ele>
        <time>2021-04-04T12:12:35Z</time>
      </trkpt>
      <trkpt lat="40.3381470" lon="-3.4923320">
        <ele>657.9</ele>
        <time>2021-04-04T12:12:36Z</time>
      </trkpt>
      <trkpt lat="40.3381630" lon="-3.4923420">
        <ele>658.1</ele>
        <time>2021-04-04T12:12:37Z</time>
      </trkpt>
      <trkpt lat="40.3381780" lon="-3.4923510">
        <ele>658.3</ele>
        <time>2021-04-04T12:12:38Z</time>
      </trkpt>
      <trkpt lat="40.3381900" lon="-3.4923600">
        <ele>658.4</ele>
        <time>2021-04-04T12:12:39Z</time>
      </trkpt>
      <trkpt lat="40.3382050" lon="-3.4923720">
        <ele>658.6</ele>
        <time>2021-04-04T12:12:40Z</time>
      </trkpt>
      <trkpt lat="40.3382240" lon="-3.4923940">
        <ele>658.9</ele>
        <time>2021-04-04T12:12:41Z</time>
      </trkpt>
      <trkpt lat="40.3382320" lon="-3.4924040">
        <ele>659.1</ele>
        <time>2021-04-04T12:12:42Z</time>
      </trkpt>
      <trkpt lat="40.3382550" lon="-3.4924230">
        <ele>659.3</ele>
        <time>2021-04-04T12:12:43Z</time>
      </trkpt>
      <trkpt lat="40.3382850" lon="-3.4924510">
        <ele>659.7</ele>
        <time>2021-04-04T12:12:44Z</time>
      </trkpt>
      <trkpt lat="40.3382920" lon="-3.4924630">
        <ele>659.9</ele>
        <time>2021-04-04T12:12:45Z</time>
      </trkpt>
      <trkpt lat="40.3383080" lon="-3.4925050">
        <ele>660.2</ele>
        <time>2021-04-04T12:12:46Z</time>
      </trkpt>
      <trkpt lat="40.3383130" lon="-3.4925180">
        <ele>660.3</ele>
        <time>2021-04-04T12:12:47Z</time>
      </trkpt>
      <trkpt lat="40.3383330" lon="-3.4925560">
        <ele>660.6</ele>
        <time>2021-04-04T12:12:48Z</time>
      </trkpt>
      <trkpt lat="40.3383400" lon="-3.4925660">
        <ele>660.7</ele>
        <time>2021-04-04T12:12:49Z</time>
      </trkpt>
      <trkpt lat="40.3383620" lon="-3.4926010">
        <ele>661.0</ele>
        <time>2021-04-04T12:12:50Z</time>
      </trkpt>
      <trkpt lat="40.3383680" lon="-3.4926150">
        <ele>661.1</ele>
        <time>2021-04-04T12:12:51Z</time>
      </trkpt>
      <trkpt lat="40.3383890" lon="-3.4926500">
        <ele>661.4</ele>
        <time>2021-04-04T12:12:52Z</time>
      </trkpt>
      <trkpt lat="40.3383950" lon="-3.4926600">
        <ele>661.5</ele>
        <time>2021-04-04T12:12:53Z</time>
      </trkpt>
      <trkpt lat="40.3384070" lon="-3.4926740">
        <ele>661.6</ele>
        <time>2021-04-04T12:12:54Z</time>
      </trkpt>
      <trkpt lat="40.3384210" lon="-3.4926870">
        <ele>661.7</ele>
        <time>2021-04-04T12:12:55Z</time>
      </trkpt>
      <trkpt lat="40.3384460" lon="-3.4927070">
        <ele>661.9</ele>
        <time>2021-04-04T12:12:56Z</time>
      </trkpt>
      <trkpt lat="40.3384540" lon="-3.4927140">
        <ele>661.9</ele>
        <time>2021-04-04T12:12:57Z</time>
      </trkpt>
      <trkpt lat="40.3384670" lon="-3.4927240">
        <ele>662.0</ele>
        <time>2021-04-04T12:12:58Z</time>
      </trkpt>
      <trkpt lat="40.3384830" lon="-3.4927310">
        <ele>662.1</ele>
        <time>2021-04-04T12:12:59Z</time>
      </trkpt>
      <trkpt lat="40.3385120" lon="-3.4927390">
        <ele>662.2</ele>
        <time>2021-04-04T12:13:00Z</time>
      </trkpt>
      <trkpt lat="40.3385220" lon="-3.4927460">
        <ele>662.2</ele>
        <time>2021-04-04T12:13:01Z</time>
      </trkpt>
      <trkpt lat="40.3385540" lon="-3.4927680">
        <ele>662.4</ele>
        <time>2021-04-04T12:13:02Z</time>
      </trkpt>
      <trkpt lat="40.3385640" lon="-3.4927750">
        <ele>662.4</ele>
        <time>2021-04-04T12:13:03Z</time>
      </trkpt>
      <trkpt lat="40.3385920" lon="-3.4927910">
        <ele>662.5</ele>
        <time>2021-04-04T12:13:04Z</time>
      </trkpt>
      <trkpt lat="40.3386230" lon="-3.4928110">
        <ele>662.6</ele>
        <time>2021-04-04T12:13:05Z</time>
      </trkpt>
      <trkpt lat="40.3386520" lon="-3.4928290">
        <ele>662.6</ele>
        <time>2021-04-04T12:13:06Z</time>
      </trkpt>
      <trkpt lat="40.3386870" lon="-3.4928490">
        <ele>662.7</ele>
        <time>2021-04-04T12:13:07Z</time>
      </trkpt>
      <trkpt lat="40.3387230" lon="-3.4928680">
        <ele>662.8</ele>
        <time>2021-04-04T12:13:08Z</time>
      </trkpt>
      <trkpt lat="40.3387610" lon="-3.4928880">
        <ele>662.8</ele>
        <time>2021-04-04T12:13:09Z</time>
      </trkpt>
      <trkpt lat="40.3387990" lon="-3.4929110">
        <ele>662.9</ele>
        <time>2021-04-04T12:13:10Z</time>
      </trkpt>
      <trkpt lat="40.3388350" lon="-3.4929350">
        <ele>663.0</ele>
        <time>2021-04-04T12:13:11Z</time>
      </trkpt>
      <trkpt lat="40.3388700" lon="-3.4929530">
        <ele>663.0</ele>
        <time>2021-04-04T12:13:12Z</time>
      </trkpt>
      <trkpt lat="40.3389130" lon="-3.4929690">
        <ele>663.1</ele>
        <time>2021-04-04T12:13:13Z</time>
      </trkpt>
      <trkpt lat="40.3389540" lon="-3.4929840">
        <ele>663.2</ele>
        <time>2021-04-04T12:13:14Z</time>
      </trkpt>
      <trkpt lat="40.3389950" lon="-3.4929990">
        <ele>663.2</ele>
        <time>2021-04-04T12:13:15Z</time>
      </trkpt>
      <trkpt lat="40.3390330" lon="-3.4930160">
        <ele>663.3</ele>
        <time>2021-04-04T12:13:16Z</time>
      </trkpt>
      <trkpt lat="40.3390710" lon="-3.4930330">
        <ele>663.3</ele>
        <time>2021-04-04T12:13:17Z</time>
      </trkpt>
      <trkpt lat="40.3391110" lon="-3.4930470">
        <ele>663.4</ele>
        <time>2021-04-04T12:13:18Z</time>
      </trkpt>
      <trkpt lat="40.3391490" lon="-3.4930640">
        <ele>663.4</ele>
        <time>2021-04-04T12:13:19Z</time>
      </trkpt>
      <trkpt lat="40.3391880" lon="-3.4930870">
        <ele>663.4</ele>
        <time>2021-04-04T12:13:20Z</time>
      </trkpt>
      <trkpt lat="40.3392260" lon="-3.4931110">
        <ele>663.4</ele>
        <time>2021-04-04T12:13:21Z</time>
      </trkpt>
      <trkpt lat="40.3392640" lon="-3.4931340">
        <ele>663.4</ele>
        <time>2021-04-04T12:13:22Z</time>
      </trkpt>
      <trkpt lat="40.3393020" lon="-3.4931500">
        <ele>663.3</ele>
        <time>2021-04-04T12:13:23Z</time>
      </trkpt>
      <trkpt lat="40.3393400" lon="-3.4931670">
        <ele>663.3</ele>
        <time>2021-04-04T12:13:24Z</time>
      </trkpt>
      <trkpt lat="40.3393810" lon="-3.4931870">
        <ele>663.1</ele>
        <time>2021-04-04T12:13:25Z</time>
      </trkpt>
      <trkpt lat="40.3394260" lon="-3.4932060">
        <ele>662.9</ele>
        <time>2021-04-04T12:13:26Z</time>
      </trkpt>
      <trkpt lat="40.3394770" lon="-3.4932250">
        <ele>662.7</ele>
        <time>2021-04-04T12:13:27Z</time>
      </trkpt>
      <trkpt lat="40.3395120" lon="-3.4932210">
        <ele>662.5</ele>
        <time>2021-04-04T12:13:28Z</time>
      </trkpt>
      <trkpt lat="40.3395650" lon="-3.4932250">
        <ele>662.2</ele>
        <time>2021-04-04T12:13:29Z</time>
      </trkpt>
      <trkpt lat="40.3396040" lon="-3.4932290">
        <ele>662.0</ele>
        <time>2021-04-04T12:13:30Z</time>
      </trkpt>
      <trkpt lat="40.3396560" lon="-3.4932450">
        <ele>661.7</ele>
        <time>2021-04-04T12:13:31Z</time>
      </trkpt>
      <trkpt lat="40.3397080" lon="-3.4932640">
        <ele>661.4</ele>
        <time>2021-04-04T12:13:32Z</time>
      </trkpt>
      <trkpt lat="40.3397600" lon="-3.4932860">
        <ele>661.1</ele>
        <time>2021-04-04T12:13:33Z</time>
      </trkpt>
      <trkpt lat="40.3398160" lon="-3.4933090">
        <ele>660.9</ele>
        <time>2021-04-04T12:13:34Z</time>
      </trkpt>
      <trkpt lat="40.3398740" lon="-3.4933330">
        <ele>660.7</ele>
        <time>2021-04-04T12:13:35Z</time>
      </trkpt>
      <trkpt lat="40.3399570" lon="-3.4933660">
        <ele>660.6</ele>
        <time>2021-04-04T12:13:36Z</time>
      </trkpt>
      <trkpt lat="40.3400070" lon="-3.4933980">
        <ele>660.6</ele>
        <time>2021-04-04T12:13:37Z</time>
      </trkpt>
      <trkpt lat="40.3400600" lon="-3.4934170">
        <ele>660.7</ele>
        <time>2021-04-04T12:13:38Z</time>
      </trkpt>
      <trkpt lat="40.3401160" lon="-3.4934480">
        <ele>660.9</ele>
        <time>2021-04-04T12:13:39Z</time>
      </trkpt>
      <trkpt lat="40.3401760" lon="-3.4934850">
        <ele>661.1</ele>
        <time>2021-04-04T12:13:40Z</time>
      </trkpt>
      <trkpt lat="40.3402360" lon="-3.4935160">
        <ele>661.5</ele>
        <time>2021-04-04T12:13:41Z</time>
      </trkpt>
      <trkpt lat="40.3402760" lon="-3.4935240">
        <ele>661.7</ele>
        <time>2021-04-04T12:13:42Z</time>
      </trkpt>
      <trkpt lat="40.3403290" lon="-3.4935640">
        <ele>662.1</ele>
        <time>2021-04-04T12:13:43Z</time>
      </trkpt>
      <trkpt lat="40.3403730" lon="-3.4935840">
        <ele>662.4</ele>
        <time>2021-04-04T12:13:44Z</time>
      </trkpt>
      <trkpt lat="40.3404230" lon="-3.4935950">
        <ele>662.8</ele>
        <time>2021-04-04T12:13:45Z</time>
      </trkpt>
      <trkpt lat="40.3404820" lon="-3.4935890">
        <ele>663.2</ele>
        <time>2021-04-04T12:13:46Z</time>
      </trkpt>
      <trkpt lat="40.3405200" lon="-3.4936200">
        <ele>663.5</ele>
        <time>2021-04-04T12:13:47Z</time>
      </trkpt>
      <trkpt lat="40.3405680" lon="-3.4936350">
        <ele>663.8</ele>
        <time>2021-04-04T12:13:48Z</time>
      </trkpt>
      <trkpt lat="40.3405910" lon="-3.4936450">
        <ele>664.0</ele>
        <time>2021-04-04T12:13:49Z</time>
      </trkpt>
      <trkpt lat="40.3406320" lon="-3.4936600">
        <ele>664.2</ele>
        <time>2021-04-04T12:13:50Z</time>
      </trkpt>
      <trkpt lat="40.3406740" lon="-3.4936650">
        <ele>664.4</ele>
        <time>2021-04-04T12:13:51Z</time>
      </trkpt>
      <trkpt lat="40.3407220" lon="-3.4936830">
        <ele>664.6</ele>
        <time>2021-04-04T12:13:52Z</time>
      </trkpt>
      <trkpt lat="40.3407640" lon="-3.4937000">
        <ele>664.8</ele>
        <time>2021-04-04T12:13:53Z</time>
      </trkpt>
      <trkpt lat="40.3408040" lon="-3.4937260">
        <ele>665.0</ele>
        <time>2021-04-04T12:13:54Z</time>
      </trkpt>
      <trkpt lat="40.3408600" lon="-3.4937750">
        <ele>665.2</ele>
        <time>2021-04-04T12:13:55Z</time>
      </trkpt>
      <trkpt lat="40.3408920" lon="-3.4937950">
        <ele>665.3</ele>
        <time>2021-04-04T12:13:56Z</time>
      </trkpt>
      <trkpt lat="40.3409460" lon="-3.4938380">
        <ele>665.5</ele>
        <time>2021-04-04T12:13:57Z</time>
      </trkpt>
      <trkpt lat="40.3409920" lon="-3.4938420">
        <ele>665.6</ele>
        <time>2021-04-04T12:13:58Z</time>
      </trkpt>
      <trkpt lat="40.3410400" lon="-3.4938740">
        <ele>665.7</ele>
        <time>2021-04-04T12:13:59Z</time>
      </trkpt>
      <trkpt lat="40.3410790" lon="-3.4938980">
        <ele>665.7</ele>
        <time>2021-04-04T12:14:00Z</time>
      </trkpt>
      <trkpt lat="40.3411230" lon="-3.4939230">
        <ele>665.8</ele>
        <time>2021-04-04T12:14:01Z</time>
      </trkpt>
      <trkpt lat="40.3411610" lon="-3.4939400">
        <ele>665.8</ele>
        <time>2021-04-04T12:14:02Z</time>
      </trkpt>
      <trkpt lat="40.3411950" lon="-3.4939870">
        <ele>665.8</ele>
        <time>2021-04-04T12:14:03Z</time>
      </trkpt>
      <trkpt lat="40.3412130" lon="-3.4940190">
        <ele>665.8</ele>
        <time>2021-04-04T12:14:04Z</time>
      </trkpt>
      <trkpt lat="40.3412940" lon="-3.4940690">
        <ele>665.7</ele>
        <time>2021-04-04T12:14:05Z</time>
      </trkpt>
      <trkpt lat="40.3413480" lon="-3.4940860">
        <ele>665.6</ele>
        <time>2021-04-04T12:14:06Z</time>
      </trkpt>
      <trkpt lat="40.3414150" lon="-3.4941520">
        <ele>665.6</ele>
        <time>2021-04-04T12:14:07Z</time>
      </trkpt>
      <trkpt lat="40.3414720" lon="-3.4941660">
        <ele>665.5</ele>
        <time>2021-04-04T12:14:08Z</time>
      </trkpt>
      <trkpt lat="40.3414720" lon="-3.4942120">
        <ele>665.5</ele>
        <time>2021-04-04T12:14:09Z</time>
      </trkpt>
      <trkpt lat="40.3414980" lon="-3.4942480">
        <ele>665.5</ele>
        <time>2021-04-04T12:14:10Z</time>
      </trkpt>
      <trkpt lat="40.3415360" lon="-3.4943170">
        <ele>665.5</ele>
        <time>2021-04-04T12:14:11Z</time>
      </trkpt>
      <trkpt lat="40.3415890" lon="-3.4943400">
        <ele>665.5</ele>
        <time>2021-04-04T12:14:12Z</time>
      </trkpt>
      <trkpt lat="40.3416300" lon="-3.4944000">
        <ele>665.5</ele>
        <time>2021-04-04T12:14:13Z</time>
      </trkpt>
      <trkpt lat="40.3416930" lon="-3.4944230">
        <ele>665.5</ele>
        <time>2021-04-04T12:14:14Z</time>
      </trkpt>
      <trkpt lat="40.3417440" lon="-3.4944800">
        <ele>665.6</ele>
        <time>2021-04-04T12:14:15Z</time>
      </trkpt>
      <trkpt lat="40.3417800" lon="-3.4945020">
        <ele>665.6</ele>
        <time>2021-04-04T12:14:16Z</time>
      </trkpt>
      <trkpt lat="40.3418310" lon="-3.4945230">
        <ele>665.7</ele>
        <time>2021-04-04T12:14:17Z</time>
      </trkpt>
      <trkpt lat="40.3418960" lon="-3.4945600">
        <ele>665.9</ele>
        <time>2021-04-04T12:14:18Z</time>
      </trkpt>
      <trkpt lat="40.3419540" lon="-3.4945810">
        <ele>666.1</ele>
        <time>2021-04-04T12:14:19Z</time>
      </trkpt>
      <trkpt lat="40.3420060" lon="-3.4946210">
        <ele>666.3</ele>
        <time>2021-04-04T12:14:20Z</time>
      </trkpt>
      <trkpt lat="40.3420450" lon="-3.4946670">
        <ele>666.5</ele>
        <time>2021-04-04T12:14:21Z</time>
      </trkpt>
      <trkpt lat="40.3420870" lon="-3.4946960">
        <ele>666.7</ele>
        <time>2021-04-04T12:14:22Z</time>
      </trkpt>
      <trkpt lat="40.3421390" lon="-3.4947150">
        <ele>666.8</ele>
        <time>2021-04-04T12:14:23Z</time>
      </trkpt>
      <trkpt lat="40.3421800" lon="-3.4947670">
        <ele>667.0</ele>
        <time>2021-04-04T12:14:24Z</time>
      </trkpt>
      <trkpt lat="40.3422120" lon="-3.4948140">
        <ele>667.2</ele>
        <time>2021-04-04T12:14:25Z</time>
      </trkpt>
      <trkpt lat="40.3422620" lon="-3.4948630">
        <ele>667.4</ele>
        <time>2021-04-04T12:14:26Z</time>
      </trkpt>
      <trkpt lat="40.3422760" lon="-3.4949030">
        <ele>667.5</ele>
        <time>2021-04-04T12:14:27Z</time>
      </trkpt>
      <trkpt lat="40.3423000" lon="-3.4949490">
        <ele>667.6</ele>
        <time>2021-04-04T12:14:28Z</time>
      </trkpt>
      <trkpt lat="40.3423180" lon="-3.4950110">
        <ele>667.7</ele>
        <time>2021-04-04T12:14:29Z</time>
      </trkpt>
      <trkpt lat="40.3423080" lon="-3.4950690">
        <ele>667.8</ele>
        <time>2021-04-04T12:14:30Z</time>
      </trkpt>
      <trkpt lat="40.3422800" lon="-3.4951310">
        <ele>667.8</ele>
        <time>2021-04-04T12:14:31Z</time>
      </trkpt>
      <trkpt lat="40.3423210" lon="-3.4952140">
        <ele>667.9</ele>
        <time>2021-04-04T12:14:32Z</time>
      </trkpt>
      <trkpt lat="40.3423720" lon="-3.4952760">
        <ele>667.9</ele>
        <time>2021-04-04T12:14:33Z</time>
      </trkpt>
      <trkpt lat="40.3424000" lon="-3.4953360">
        <ele>667.9</ele>
        <time>2021-04-04T12:14:34Z</time>
      </trkpt>
      <trkpt lat="40.3424360" lon="-3.4953890">
        <ele>667.7</ele>
        <time>2021-04-04T12:14:35Z</time>
      </trkpt>
      <trkpt lat="40.3424800" lon="-3.4954570">
        <ele>667.5</ele>
        <time>2021-04-04T12:14:36Z</time>
      </trkpt>
      <trkpt lat="40.3425230" lon="-3.4955050">
        <ele>667.3</ele>
        <time>2021-04-04T12:14:37Z</time>
      </trkpt>
      <trkpt lat="40.3425300" lon="-3.4955680">
        <ele>667.1</ele>
        <time>2021-04-04T12:14:38Z</time>
      </trkpt>
      <trkpt lat="40.3425750" lon="-3.4956290">
        <ele>666.8</ele>
        <time>2021-04-04T12:14:39Z</time>
      </trkpt>
      <trkpt lat="40.3426230" lon="-3.4956920">
        <ele>666.6</ele>
        <time>2021-04-04T12:14:40Z</time>
      </trkpt>
      <trkpt lat="40.3426720" lon="-3.4957900">
        <ele>666.2</ele>
        <time>2021-04-04T12:14:41Z</time>
      </trkpt>
      <trkpt lat="40.3427120" lon="-3.4958390">
        <ele>666.0</ele>
        <time>2021-04-04T12:14:42Z</time>
      </trkpt>
      <trkpt lat="40.3427430" lon="-3.4958930">
        <ele>665.8</ele>
        <time>2021-04-04T12:14:43Z</time>
      </trkpt>
      <trkpt lat="40.3427860" lon="-3.4959600">
        <ele>665.5</ele>
        <time>2021-04-04T12:14:44Z</time>
      </trkpt>
      <trkpt lat="40.3428300" lon="-3.4960210">
        <ele>665.2</ele>
        <time>2021-04-04T12:14:45Z</time>
      </trkpt>
      <trkpt lat="40.3428600" lon="-3.4960970">
        <ele>664.9</ele>
        <time>2021-04-04T12:14:46Z</time>
      </trkpt>
      <trkpt lat="40.3429090" lon="-3.4961500">
        <ele>664.7</ele>
        <time>2021-04-04T12:14:47Z</time>
      </trkpt>
      <trkpt lat="40.3429670" lon="-3.4962230">
        <ele>664.4</ele>
        <time>2021-04-04T12:14:48Z</time>
      </trkpt>
      <trkpt lat="40.3430230" lon="-3.4963060">
        <ele>664.2</ele>
        <time>2021-04-04T12:14:49Z</time>
      </trkpt>
      <trkpt lat="40.3430640" lon="-3.4963960">
        <ele>664.1</ele>
        <time>2021-04-04T12:14:50Z</time>
      </trkpt>
      <trkpt lat="40.3430880" lon="-3.4964840">
        <ele>664.0</ele>
        <time>2021-04-04T12:14:51Z</time>
      </trkpt>
      <trkpt lat="40.3431120" lon="-3.4965850">
        <ele>664.0</ele>
        <time>2021-04-04T12:14:52Z</time>
      </trkpt>
      <trkpt lat="40.3431700" lon="-3.4966580">
        <ele>664.0</ele>
        <time>2021-04-04T12:14:53Z</time>
      </trkpt>
      <trkpt lat="40.3431800" lon="-3.4967280">
        <ele>664.0</ele>
        <time>2021-04-04T12:14:54Z</time>
      </trkpt>
      <trkpt lat="40.3432170" lon="-3.4968020">
        <ele>664.1</ele>
        <time>2021-04-04T12:14:55Z</time>
      </trkpt>
      <trkpt lat="40.3432670" lon="-3.4968650">
        <ele>664.1</ele>
        <time>2021-04-04T12:14:56Z</time>
      </trkpt>
      <trkpt lat="40.3433150" lon="-3.4969340">
        <ele>664.1</ele>
        <time>2021-04-04T12:14:57Z</time>
      </trkpt>
      <trkpt lat="40.3433550" lon="-3.4969930">
        <ele>664.0</ele>
        <time>2021-04-04T12:14:58Z</time>
      </trkpt>
      <trkpt lat="40.3434070" lon="-3.4970730">
        <ele>664.0</ele>
        <time>2021-04-04T12:14:59Z</time>
      </trkpt>
      <trkpt lat="40.3434310" lon="-3.4971460">
        <ele>664.0</ele>
        <time>2021-04-04T12:15:00Z</time>
      </trkpt>
      <trkpt lat="40.3434390" lon="-3.4972140">
        <ele>664.0</ele>
        <time>2021-04-04T12:15:01Z</time>
      </trkpt>
      <trkpt lat="40.3434970" lon="-3.4972910">
        <ele>664.0</ele>
        <time>2021-04-04T12:15:02Z</time>
      </trkpt>
      <trkpt lat="40.3435440" lon="-3.4973620">
        <ele>664.1</ele>
        <time>2021-04-04T12:15:03Z</time>
      </trkpt>
      <trkpt lat="40.3435890" lon="-3.4974250">
        <ele>664.3</ele>
        <time>2021-04-04T12:15:04Z</time>
      </trkpt>
      <trkpt lat="40.3436340" lon="-3.4974850">
        <ele>664.4</ele>
        <time>2021-04-04T12:15:05Z</time>
      </trkpt>
      <trkpt lat="40.3437020" lon="-3.4975280">
        <ele>664.6</ele>
        <time>2021-04-04T12:15:06Z</time>
      </trkpt>
      <trkpt lat="40.3437790" lon="-3.4975720">
        <ele>664.9</ele>
        <time>2021-04-04T12:15:07Z</time>
      </trkpt>
      <trkpt lat="40.3438020" lon="-3.4976420">
        <ele>665.1</ele>
        <time>2021-04-04T12:15:08Z</time>
      </trkpt>
      <trkpt lat="40.3438410" lon="-3.4976940">
        <ele>665.2</ele>
        <time>2021-04-04T12:15:09Z</time>
      </trkpt>
      <trkpt lat="40.3439110" lon="-3.4977300">
        <ele>665.5</ele>
        <time>2021-04-04T12:15:10Z</time>
      </trkpt>
      <trkpt lat="40.3439650" lon="-3.4977960">
        <ele>665.8</ele>
        <time>2021-04-04T12:15:11Z</time>
      </trkpt>
      <trkpt lat="40.3439900" lon="-3.4978520">
        <ele>666.0</ele>
        <time>2021-04-04T12:15:12Z</time>
      </trkpt>
      <trkpt lat="40.3440470" lon="-3.4979190">
        <ele>666.3</ele>
        <time>2021-04-04T12:15:13Z</time>
      </trkpt>
      <trkpt lat="40.3440870" lon="-3.4979870">
        <ele>666.5</ele>
        <time>2021-04-04T12:15:14Z</time>
      </trkpt>
      <trkpt lat="40.3441180" lon="-3.4980420">
        <ele>666.7</ele>
        <time>2021-04-04T12:15:15Z</time>
      </trkpt>
      <trkpt lat="40.3441330" lon="-3.4981110">
        <ele>666.9</ele>
        <time>2021-04-04T12:15:16Z</time>
      </trkpt>
      <trkpt lat="40.3441660" lon="-3.4981660">
        <ele>667.0</ele>
        <time>2021-04-04T12:15:17Z</time>
      </trkpt>
      <trkpt lat="40.3442020" lon="-3.4982150">
        <ele>667.2</ele>
        <time>2021-04-04T12:15:18Z</time>
      </trkpt>
      <trkpt lat="40.3442220" lon="-3.4982700">
        <ele>667.3</ele>
        <time>2021-04-04T12:15:19Z</time>
      </trkpt>
      <trkpt lat="40.3442670" lon="-3.4983340">
        <ele>667.3</ele>
        <time>2021-04-04T12:15:20Z</time>
      </trkpt>
      <trkpt lat="40.3443140" lon="-3.4983910">
        <ele>667.4</ele>
        <time>2021-04-04T12:15:21Z</time>
      </trkpt>
      <trkpt lat="40.3443480" lon="-3.4984340">
        <ele>667.4</ele>
        <time>2021-04-04T12:15:22Z</time>
      </trkpt>
      <trkpt lat="40.3443900" lon="-3.4985130">
        <ele>667.3</ele>
        <time>2021-04-04T12:15:23Z</time>
      </trkpt>
      <trkpt lat="40.3444100" lon="-3.4985610">
        <ele>667.2</ele>
        <time>2021-04-04T12:15:24Z</time>
      </trkpt>
      <trkpt lat="40.3444270" lon="-3.4986270">
        <ele>667.1</ele>
        <time>2021-04-04T12:15:25Z</time>
      </trkpt>
      <trkpt lat="40.3444560" lon="-3.4986810">
        <ele>666.9</ele>
        <time>2021-04-04T12:15:26Z</time>
      </trkpt>
      <trkpt lat="40.3444750" lon="-3.4987320">
        <ele>666.8</ele>
        <time>2021-04-04T12:15:27Z</time>
      </trkpt>
      <trkpt lat="40.3445070" lon="-3.4988050">
        <ele>666.5</ele>
        <time>2021-04-04T12:15:28Z</time>
      </trkpt>
      <trkpt lat="40.3445410" lon="-3.4988550">
        <ele>666.3</ele>
        <time>2021-04-04T12:15:29Z</time>
      </trkpt>
      <trkpt lat="40.3445580" lon="-3.4989200">
        <ele>666.2</ele>
        <time>2021-04-04T12:15:30Z</time>
      </trkpt>
      <trkpt lat="40.3446030" lon="-3.4989840">
        <ele>666.0</ele>
        <time>2021-04-04T12:15:31Z</time>
      </trkpt>
      <trkpt lat="40.3446520" lon="-3.4990690">
        <ele>665.8</ele>
        <time>2021-04-04T12:15:32Z</time>
      </trkpt>
      <trkpt lat="40.3446400" lon="-3.4991340">
        <ele>665.8</ele>
        <time>2021-04-04T12:15:33Z</time>
      </trkpt>
      <trkpt lat="40.3446430" lon="-3.4992310">
        <ele>665.7</ele>
        <time>2021-04-04T12:15:34Z</time>
      </trkpt>
      <trkpt lat="40.3446500" lon="-3.4993110">
        <ele>665.6</ele>
        <time>2021-04-04T12:15:35Z</time>
      </trkpt>
      <trkpt lat="40.3446660" lon="-3.4993830">
        <ele>665.5</ele>
        <time>2021-04-04T12:15:36Z</time>
      </trkpt>
      <trkpt lat="40.3446640" lon="-3.4994440">
        <ele>665.5</ele>
        <time>2021-04-04T12:15:37Z</time>
      </trkpt>
      <trkpt lat="40.3446650" lon="-3.4995240">
        <ele>665.4</ele>
        <time>2021-04-04T12:15:38Z</time>
      </trkpt>
      <trkpt lat="40.3446620" lon="-3.4996030">
        <ele>665.4</ele>
        <time>2021-04-04T12:15:39Z</time>
      </trkpt>
      <trkpt lat="40.3446740" lon="-3.4996840">
        <ele>665.4</ele>
        <time>2021-04-04T12:15:40Z</time>
      </trkpt>
      <trkpt lat="40.3446750" lon="-3.4997500">
        <ele>665.4</ele>
        <time>2021-04-04T12:15:41Z</time>
      </trkpt>
      <trkpt lat="40.3446310" lon="-3.4998210">
        <ele>665.4</ele>
        <time>2021-04-04T12:15:42Z</time>
      </trkpt>
      <trkpt lat="40.3446090" lon="-3.4998920">
        <ele>665.4</ele>
        <time>2021-04-04T12:15:43Z</time>
      </trkpt>
      <trkpt lat="40.3445870" lon="-3.4999530">
        <ele>665.4</ele>
        <time>2021-04-04T12:15:44Z</time>
      </trkpt>
      <trkpt lat="40.3445740" lon="-3.5000090">
        <ele>665.3</ele>
        <time>2021-04-04T12:15:45Z</time>
      </trkpt>
      <trkpt lat="40.3445630" lon="-3.5000690">
        <ele>665.2</ele>
        <time>2021-04-04T12:15:46Z</time>
      </trkpt>
      <trkpt lat="40.3445470" lon="-3.5001170">
        <ele>665.1</ele>
        <time>2021-04-04T12:15:47Z</time>
      </trkpt>
      <trkpt lat="40.3445320" lon="-3.5001720">
        <ele>665.0</ele>
        <time>2021-04-04T12:15:48Z</time>
      </trkpt>
      <trkpt lat="40.3445260" lon="-3.5002340">
        <ele>664.9</ele>
        <time>2021-04-04T12:15:49Z</time>
      </trkpt>
      <trkpt lat="40.3445150" lon="-3.5002930">
        <ele>664.8</ele>
        <time>2021-04-04T12:15:50Z</time>
      </trkpt>
      <trkpt lat="40.3444950" lon="-3.5003640">
        <ele>664.7</ele>
        <time>2021-04-04T12:15:51Z</time>
      </trkpt>
      <trkpt lat="40.3445140" lon="-3.5004530">
        <ele>664.6</ele>
        <time>2021-04-04T12:15:52Z</time>
      </trkpt>
      <trkpt lat="40.3445390" lon="-3.5005340">
        <ele>664.5</ele>
        <time>2021-04-04T12:15:53Z</time>
      </trkpt>
      <trkpt lat="40.3445470" lon="-3.5006060">
        <ele>664.4</ele>
        <time>2021-04-04T12:15:54Z</time>
      </trkpt>
      <trkpt lat="40.3445280" lon="-3.5006710">
        <ele>664.4</ele>
        <time>2021-04-04T12:15:55Z</time>
      </trkpt>
      <trkpt lat="40.3445730" lon="-3.5007500">
        <ele>664.2</ele>
        <time>2021-04-04T12:15:56Z</time>
      </trkpt>
      <trkpt lat="40.3446110" lon="-3.5008190">
        <ele>664.1</ele>
        <time>2021-04-04T12:15:57Z</time>
      </trkpt>
      <trkpt lat="40.3446480" lon="-3.5008820">
        <ele>663.9</ele>
        <time>2021-04-04T12:15:58Z</time>
      </trkpt>
      <trkpt lat="40.3446860" lon="-3.5009330">
        <ele>663.8</ele>
        <time>2021-04-04T12:15:59Z</time>
      </trkpt>
      <trkpt lat="40.3447330" lon="-3.5010040">
        <ele>663.6</ele>
        <time>2021-04-04T12:16:00Z</time>
      </trkpt>
      <trkpt lat="40.3448020" lon="-3.5010950">
        <ele>663.3</ele>
        <time>2021-04-04T12:16:01Z</time>
      </trkpt>
      <trkpt lat="40.3448880" lon="-3.5011240">
        <ele>663.0</ele>
        <time>2021-04-04T12:16:02Z</time>
      </trkpt>
      <trkpt lat="40.3449120" lon="-3.5011760">
        <ele>662.8</ele>
        <time>2021-04-04T12:16:03Z</time>
      </trkpt>
      <trkpt lat="40.3449670" lon="-3.5012730">
        <ele>662.5</ele>
        <time>2021-04-04T12:16:04Z</time>
      </trkpt>
      <trkpt lat="40.3450200" lon="-3.5013450">
        <ele>662.1</ele>
        <time>2021-04-04T12:16:05Z</time>
      </trkpt>
      <trkpt lat="40.3450540" lon="-3.5013950">
        <ele>661.9</ele>
        <time>2021-04-04T12:16:06Z</time>
      </trkpt>
      <trkpt lat="40.3450950" lon="-3.5014530">
        <ele>661.6</ele>
        <time>2021-04-04T12:16:07Z</time>
      </trkpt>
      <trkpt lat="40.3451420" lon="-3.5014850">
        <ele>661.4</ele>
        <time>2021-04-04T12:16:08Z</time>
      </trkpt>
      <trkpt lat="40.3451980" lon="-3.5015220">
        <ele>661.1</ele>
        <time>2021-04-04T12:16:09Z</time>
      </trkpt>
      <trkpt lat="40.3452610" lon="-3.5015870">
        <ele>660.6</ele>
        <time>2021-04-04T12:16:10Z</time>
      </trkpt>
      <trkpt lat="40.3453300" lon="-3.5016550">
        <ele>660.1</ele>
        <time>2021-04-04T12:16:11Z</time>
      </trkpt>
      <trkpt lat="40.3453940" lon="-3.5017120">
        <ele>659.6</ele>
        <time>2021-04-04T12:16:12Z</time>
      </trkpt>
      <trkpt lat="40.3454640" lon="-3.5017480">
        <ele>659.2</ele>
        <time>2021-04-04T12:16:13Z</time>
      </trkpt>
      <trkpt lat="40.3455380" lon="-3.5018020">
        <ele>658.8</ele>
        <time>2021-04-04T12:16:14Z</time>
      </trkpt>
      <trkpt lat="40.3456180" lon="-3.5018240">
        <ele>658.6</ele>
        <time>2021-04-04T12:16:15Z</time>
      </trkpt>
      <trkpt lat="40.3456950" lon="-3.5018430">
        <ele>658.6</ele>
        <time>2021-04-04T12:16:16Z</time>
      </trkpt>
      <trkpt lat="40.3457810" lon="-3.5018860">
        <ele>658.8</ele>
        <time>2021-04-04T12:16:17Z</time>
      </trkpt>
      <trkpt lat="40.3458270" lon="-3.5019350">
        <ele>659.0</ele>
        <time>2021-04-04T12:16:18Z</time>
      </trkpt>
      <trkpt lat="40.3458480" lon="-3.5019980">
        <ele>659.3</ele>
        <time>2021-04-04T12:16:19Z</time>
      </trkpt>
      <trkpt lat="40.3459100" lon="-3.5020920">
        <ele>660.0</ele>
        <time>2021-04-04T12:16:20Z</time>
      </trkpt>
      <trkpt lat="40.3459410" lon="-3.5021340">
        <ele>660.3</ele>
        <time>2021-04-04T12:16:21Z</time>
      </trkpt>
      <trkpt lat="40.3459580" lon="-3.5021680">
        <ele>660.5</ele>
        <time>2021-04-04T12:16:22Z</time>
      </trkpt>
      <trkpt lat="40.3460020" lon="-3.5022060">
        <ele>660.8</ele>
        <time>2021-04-04T12:16:23Z</time>
      </trkpt>
      <trkpt lat="40.3460220" lon="-3.5022250">
        <ele>661.0</ele>
        <time>2021-04-04T12:16:24Z</time>
      </trkpt>
      <trkpt lat="40.3460490" lon="-3.5022360">
        <ele>661.2</ele>
        <time>2021-04-04T12:16:25Z</time>
      </trkpt>
      <trkpt lat="40.3460690" lon="-3.5022400">
        <ele>661.3</ele>
        <time>2021-04-04T12:16:26Z</time>
      </trkpt>
      <trkpt lat="40.3461040" lon="-3.5022510">
        <ele>661.5</ele>
        <time>2021-04-04T12:16:27Z</time>
      </trkpt>
      <trkpt lat="40.3461180" lon="-3.5022610">
        <ele>661.6</ele>
        <time>2021-04-04T12:16:28Z</time>
      </trkpt>
      <trkpt lat="40.3461560" lon="-3.5022830">
        <ele>661.8</ele>
        <time>2021-04-04T12:16:29Z</time>
      </trkpt>
      <trkpt lat="40.3462000" lon="-3.5023100">
        <ele>662.0</ele>
        <time>2021-04-04T12:16:30Z</time>
      </trkpt>
      <trkpt lat="40.3462350" lon="-3.5023240">
        <ele>662.2</ele>
        <time>2021-04-04T12:16:31Z</time>
      </trkpt>
      <trkpt lat="40.3462700" lon="-3.5023480">
        <ele>662.4</ele>
        <time>2021-04-04T12:16:32Z</time>
      </trkpt>
      <trkpt lat="40.3463040" lon="-3.5023700">
        <ele>662.5</ele>
        <time>2021-04-04T12:16:33Z</time>
      </trkpt>
      <trkpt lat="40.3463370" lon="-3.5023930">
        <ele>662.7</ele>
        <time>2021-04-04T12:16:34Z</time>
      </trkpt>
      <trkpt lat="40.3463700" lon="-3.5024140">
        <ele>662.9</ele>
        <time>2021-04-04T12:16:35Z</time>
      </trkpt>
      <trkpt lat="40.3464050" lon="-3.5024340">
        <ele>663.0</ele>
        <time>2021-04-04T12:16:36Z</time>
      </trkpt>
      <trkpt lat="40.3464370" lon="-3.5024570">
        <ele>663.2</ele>
        <time>2021-04-04T12:16:37Z</time>
      </trkpt>
      <trkpt lat="40.3464680" lon="-3.5024790">
        <ele>663.3</ele>
        <time>2021-04-04T12:16:38Z</time>
      </trkpt>
      <trkpt lat="40.3465020" lon="-3.5025030">
        <ele>663.4</ele>
        <time>2021-04-04T12:16:39Z</time>
      </trkpt>
      <trkpt lat="40.3465360" lon="-3.5025250">
        <ele>663.6</ele>
        <time>2021-04-04T12:16:40Z</time>
      </trkpt>
      <trkpt lat="40.3465720" lon="-3.5025460">
        <ele>663.7</ele>
        <time>2021-04-04T12:16:41Z</time>
      </trkpt>
      <trkpt lat="40.3466010" lon="-3.5025650">
        <ele>663.8</ele>
        <time>2021-04-04T12:16:42Z</time>
      </trkpt>
      <trkpt lat="40.3466290" lon="-3.5025850">
        <ele>663.9</ele>
        <time>2021-04-04T12:16:43Z</time>
      </trkpt>
      <trkpt lat="40.3466630" lon="-3.5026110">
        <ele>663.9</ele>
        <time>2021-04-04T12:16:44Z</time>
      </trkpt>
      <trkpt lat="40.3467010" lon="-3.5026380">
        <ele>664.0</ele>
        <time>2021-04-04T12:16:45Z</time>
      </trkpt>
      <trkpt lat="40.3467380" lon="-3.5026640">
        <ele>664.1</ele>
        <time>2021-04-04T12:16:46Z</time>
      </trkpt>
      <trkpt lat="40.3467760" lon="-3.5026890">
        <ele>664.2</ele>
        <time>2021-04-04T12:16:47Z</time>
      </trkpt>
      <trkpt lat="40.3468110" lon="-3.5027100">
        <ele>664.2</ele>
        <time>2021-04-04T12:16:48Z</time>
      </trkpt>
      <trkpt lat="40.3468450" lon="-3.5027340">
        <ele>664.2</ele>
        <time>2021-04-04T12:16:49Z</time>
      </trkpt>
      <trkpt lat="40.3468750" lon="-3.5027590">
        <ele>664.3</ele>
        <time>2021-04-04T12:16:50Z</time>
      </trkpt>
      <trkpt lat="40.3469060" lon="-3.5027840">
        <ele>664.3</ele>
        <time>2021-04-04T12:16:51Z</time>
      </trkpt>
      <trkpt lat="40.3469410" lon="-3.5028110">
        <ele>664.3</ele>
        <time>2021-04-04T12:16:52Z</time>
      </trkpt>
      <trkpt lat="40.3469820" lon="-3.5028400">
        <ele>664.2</ele>
        <time>2021-04-04T12:16:53Z</time>
      </trkpt>
      <trkpt lat="40.3470380" lon="-3.5028720">
        <ele>664.2</ele>
        <time>2021-04-04T12:16:54Z</time>
      </trkpt>
      <trkpt lat="40.3470910" lon="-3.5029240">
        <ele>664.1</ele>
        <time>2021-04-04T12:16:55Z</time>
      </trkpt>
      <trkpt lat="40.3471290" lon="-3.5029510">
        <ele>664.1</ele>
        <time>2021-04-04T12:16:56Z</time>
      </trkpt>
      <trkpt lat="40.3471860" lon="-3.5029890">
        <ele>664.0</ele>
        <time>2021-04-04T12:16:57Z</time>
      </trkpt>
      <trkpt lat="40.3472370" lon="-3.5030200">
        <ele>664.0</ele>
        <time>2021-04-04T12:16:58Z</time>
      </trkpt>
      <trkpt lat="40.3472930" lon="-3.5030580">
        <ele>664.0</ele>
        <time>2021-04-04T12:16:59Z</time>
      </trkpt>
      <trkpt lat="40.3473510" lon="-3.5030700">
        <ele>664.0</ele>
        <time>2021-04-04T12:17:00Z</time>
      </trkpt>
      <trkpt lat="40.3474120" lon="-3.5031170">
        <ele>664.0</ele>
        <time>2021-04-04T12:17:01Z</time>
      </trkpt>
      <trkpt lat="40.3474410" lon="-3.5031680">
        <ele>664.0</ele>
        <time>2021-04-04T12:17:02Z</time>
      </trkpt>
      <trkpt lat="40.3474820" lon="-3.5032260">
        <ele>664.0</ele>
        <time>2021-04-04T12:17:03Z</time>
      </trkpt>
      <trkpt lat="40.3475270" lon="-3.5032460">
        <ele>664.0</ele>
        <time>2021-04-04T12:17:04Z</time>
      </trkpt>
      <trkpt lat="40.3475830" lon="-3.5032810">
        <ele>664.0</ele>
        <time>2021-04-04T12:17:05Z</time>
      </trkpt>
      <trkpt lat="40.3476290" lon="-3.5033130">
        <ele>664.0</ele>
        <time>2021-04-04T12:17:06Z</time>
      </trkpt>
      <trkpt lat="40.3476820" lon="-3.5033370">
        <ele>664.0</ele>
        <time>2021-04-04T12:17:07Z</time>
      </trkpt>
      <trkpt lat="40.3477290" lon="-3.5033850">
        <ele>664.0</ele>
        <time>2021-04-04T12:17:08Z</time>
      </trkpt>
      <trkpt lat="40.3477920" lon="-3.5034450">
        <ele>664.1</ele>
        <time>2021-04-04T12:17:09Z</time>
      </trkpt>
      <trkpt lat="40.3478170" lon="-3.5034690">
        <ele>664.1</ele>
        <time>2021-04-04T12:17:10Z</time>
      </trkpt>
      <trkpt lat="40.3478480" lon="-3.5034810">
        <ele>664.1</ele>
        <time>2021-04-04T12:17:11Z</time>
      </trkpt>
      <trkpt lat="40.3479080" lon="-3.5034920">
        <ele>664.2</ele>
        <time>2021-04-04T12:17:12Z</time>
      </trkpt>
      <trkpt lat="40.3479420" lon="-3.5035190">
        <ele>664.3</ele>
        <time>2021-04-04T12:17:13Z</time>
      </trkpt>
      <trkpt lat="40.3479790" lon="-3.5035370">
        <ele>664.4</ele>
        <time>2021-04-04T12:17:14Z</time>
      </trkpt>
      <trkpt lat="40.3480250" lon="-3.5035460">
        <ele>664.5</ele>
        <time>2021-04-04T12:17:15Z</time>
      </trkpt>
      <trkpt lat="40.3480590" lon="-3.5035740">
        <ele>664.5</ele>
        <time>2021-04-04T12:17:16Z</time>
      </trkpt>
      <trkpt lat="40.3481310" lon="-3.5036370">
        <ele>664.7</ele>
        <time>2021-04-04T12:17:17Z</time>
      </trkpt>
      <trkpt lat="40.3481910" lon="-3.5036550">
        <ele>664.7</ele>
        <time>2021-04-04T12:17:18Z</time>
      </trkpt>
      <trkpt lat="40.3482210" lon="-3.5036790">
        <ele>664.7</ele>
        <time>2021-04-04T12:17:19Z</time>
      </trkpt>
      <trkpt lat="40.3482910" lon="-3.5037270">
        <ele>664.7</ele>
        <time>2021-04-04T12:17:20Z</time>
      </trkpt>
      <trkpt lat="40.3483310" lon="-3.5037530">
        <ele>664.7</ele>
        <time>2021-04-04T12:17:21Z</time>
      </trkpt>
      <trkpt lat="40.3483850" lon="-3.5038220">
        <ele>664.6</ele>
        <time>2021-04-04T12:17:22Z</time>
      </trkpt>
      <trkpt lat="40.3484180" lon="-3.5038520">
        <ele>664.6</ele>
        <time>2021-04-04T12:17:23Z</time>
      </trkpt>
      <trkpt lat="40.3484290" lon="-3.5038940">
        <ele>664.6</ele>
        <time>2021-04-04T12:17:24Z</time>
      </trkpt>
      <trkpt lat="40.3484530" lon="-3.5039250">
        <ele>664.6</ele>
        <time>2021-04-04T12:17:25Z</time>
      </trkpt>
      <trkpt lat="40.3484840" lon="-3.5039960">
        <ele>664.6</ele>
        <time>2021-04-04T12:17:26Z</time>
      </trkpt>
      <trkpt lat="40.3485040" lon="-3.5040730">
        <ele>664.6</ele>
        <time>2021-04-04T12:17:27Z</time>
      </trkpt>
      <trkpt lat="40.3485450" lon="-3.5041110">
        <ele>664.6</ele>
        <time>2021-04-04T12:17:28Z</time>
      </trkpt>
      <trkpt lat="40.3485880" lon="-3.5041550">
        <ele>664.7</ele>
        <time>2021-04-04T12:17:29Z</time>
      </trkpt>
      <trkpt lat="40.3486460" lon="-3.5041970">
        <ele>664.7</ele>
        <time>2021-04-04T12:17:30Z</time>
      </trkpt>
      <trkpt lat="40.3486980" lon="-3.5042170">
        <ele>664.8</ele>
        <time>2021-04-04T12:17:31Z</time>
      </trkpt>
      <trkpt lat="40.3486840" lon="-3.5042750">
        <ele>664.8</ele>
        <time>2021-04-04T12:17:32Z</time>
      </trkpt>
      <trkpt lat="40.3487320" lon="-3.5043190">
        <ele>665.0</ele>
        <time>2021-04-04T12:17:33Z</time>
      </trkpt>
      <trkpt lat="40.3487760" lon="-3.5043580">
        <ele>665.1</ele>
        <time>2021-04-04T12:17:34Z</time>
      </trkpt>
      <trkpt lat="40.3488240" lon="-3.5044360">
        <ele>665.3</ele>
        <time>2021-04-04T12:17:35Z</time>
      </trkpt>
      <trkpt lat="40.3488620" lon="-3.5044920">
        <ele>665.5</ele>
        <time>2021-04-04T12:17:36Z</time>
      </trkpt>
      <trkpt lat="40.3488890" lon="-3.5045370">
        <ele>665.6</ele>
        <time>2021-04-04T12:17:37Z</time>
      </trkpt>
      <trkpt lat="40.3489010" lon="-3.5045930">
        <ele>665.8</ele>
        <time>2021-04-04T12:17:38Z</time>
      </trkpt>
      <trkpt lat="40.3489440" lon="-3.5046570">
        <ele>666.0</ele>
        <time>2021-04-04T12:17:39Z</time>
      </trkpt>
      <trkpt lat="40.3489710" lon="-3.5047150">
        <ele>666.3</ele>
        <time>2021-04-04T12:17:40Z</time>
      </trkpt>
      <trkpt lat="40.3489780" lon="-3.5047700">
        <ele>666.4</ele>
        <time>2021-04-04T12:17:41Z</time>
      </trkpt>
      <trkpt lat="40.3489890" lon="-3.5048270">
        <ele>666.6</ele>
        <time>2021-04-04T12:17:42Z</time>
      </trkpt>
      <trkpt lat="40.3490030" lon="-3.5048800">
        <ele>666.8</ele>
        <time>2021-04-04T12:17:43Z</time>
      </trkpt>
      <trkpt lat="40.3490270" lon="-3.5049240">
        <ele>666.9</ele>
        <time>2021-04-04T12:17:44Z</time>
      </trkpt>
      <trkpt lat="40.3490660" lon="-3.5049670">
        <ele>667.1</ele>
        <time>2021-04-04T12:17:45Z</time>
      </trkpt>
      <trkpt lat="40.3490960" lon="-3.5050380">
        <ele>667.3</ele>
        <time>2021-04-04T12:17:46Z</time>
      </trkpt>
      <trkpt lat="40.3491400" lon="-3.5050800">
        <ele>667.5</ele>
        <time>2021-04-04T12:17:47Z</time>
      </trkpt>
      <trkpt lat="40.3491810" lon="-3.5051240">
        <ele>667.7</ele>
        <time>2021-04-04T12:17:48Z</time>
      </trkpt>
      <trkpt lat="40.3492020" lon="-3.5051470">
        <ele>667.7</ele>
        <time>2021-04-04T12:17:49Z</time>
      </trkpt>
      <trkpt lat="40.3492000" lon="-3.5051950">
        <ele>667.9</ele>
        <time>2021-04-04T12:17:50Z</time>
      </trkpt>
      <trkpt lat="40.3492350" lon="-3.5052390">
        <ele>668.0</ele>
        <time>2021-04-04T12:17:51Z</time>
      </trkpt>
      <trkpt lat="40.3492770" lon="-3.5052860">
        <ele>668.1</ele>
        <time>2021-04-04T12:17:52Z</time>
      </trkpt>
      <trkpt lat="40.3493180" lon="-3.5053110">
        <ele>668.2</ele>
        <time>2021-04-04T12:17:53Z</time>
      </trkpt>
      <trkpt lat="40.3493680" lon="-3.5053470">
        <ele>668.3</ele>
        <time>2021-04-04T12:17:54Z</time>
      </trkpt>
      <trkpt lat="40.3493840" lon="-3.5053950">
        <ele>668.4</ele>
        <time>2021-04-04T12:17:55Z</time>
      </trkpt>
      <trkpt lat="40.3494360" lon="-3.5054410">
        <ele>668.5</ele>
        <time>2021-04-04T12:17:56Z</time>
      </trkpt>
      <trkpt lat="40.3494450" lon="-3.5054800">
        <ele>668.5</ele>
        <time>2021-04-04T12:17:57Z</time>
      </trkpt>
      <trkpt lat="40.3494740" lon="-3.5055150">
        <ele>668.5</ele>
        <time>2021-04-04T12:17:58Z</time>
      </trkpt>
      <trkpt lat="40.3495200" lon="-3.5055460">
        <ele>668.6</ele>
        <time>2021-04-04T12:17:59Z</time>
      </trkpt>
      <trkpt lat="40.3495500" lon="-3.5055750">
        <ele>668.6</ele>
        <time>2021-04-04T12:18:00Z</time>
      </trkpt>
      <trkpt lat="40.3495720" lon="-3.5056080">
        <ele>668.6</ele>
        <time>2021-04-04T12:18:01Z</time>
      </trkpt>
      <trkpt lat="40.3496210" lon="-3.5056340">
        <ele>668.7</ele>
        <time>2021-04-04T12:18:02Z</time>
      </trkpt>
      <trkpt lat="40.3496480" lon="-3.5056830">
        <ele>668.7</ele>
        <time>2021-04-04T12:18:03Z</time>
      </trkpt>
      <trkpt lat="40.3496840" lon="-3.5057300">
        <ele>668.7</ele>
        <time>2021-04-04T12:18:04Z</time>
      </trkpt>
      <trkpt lat="40.3497040" lon="-3.5057690">
        <ele>668.7</ele>
        <time>2021-04-04T12:18:05Z</time>
      </trkpt>
      <trkpt lat="40.3497200" lon="-3.5058170">
        <ele>668.7</ele>
        <time>2021-04-04T12:18:06Z</time>
      </trkpt>
      <trkpt lat="40.3497380" lon="-3.5058310">
        <ele>668.7</ele>
        <time>2021-04-04T12:18:07Z</time>
      </trkpt>
      <trkpt lat="40.3497780" lon="-3.5058560">
        <ele>668.8</ele>
        <time>2021-04-04T12:18:08Z</time>
      </trkpt>
      <trkpt lat="40.3498110" lon="-3.5058850">
        <ele>668.8</ele>
        <time>2021-04-04T12:18:09Z</time>
      </trkpt>
      <trkpt lat="40.3498490" lon="-3.5059120">
        <ele>668.8</ele>
        <time>2021-04-04T12:18:10Z</time>
      </trkpt>
      <trkpt lat="40.3498870" lon="-3.5059400">
        <ele>668.9</ele>
        <time>2021-04-04T12:18:11Z</time>
      </trkpt>
      <trkpt lat="40.3499440" lon="-3.5059600">
        <ele>669.0</ele>
        <time>2021-04-04T12:18:12Z</time>
      </trkpt>
      <trkpt lat="40.3499700" lon="-3.5059890">
        <ele>669.1</ele>
        <time>2021-04-04T12:18:13Z</time>
      </trkpt>
      <trkpt lat="40.3500380" lon="-3.5060120">
        <ele>669.2</ele>
        <time>2021-04-04T12:18:14Z</time>
      </trkpt>
      <trkpt lat="40.3500790" lon="-3.5060590">
        <ele>669.4</ele>
        <time>2021-04-04T12:18:15Z</time>
      </trkpt>
      <trkpt lat="40.3501170" lon="-3.5060920">
        <ele>669.6</ele>
        <time>2021-04-04T12:18:16Z</time>
      </trkpt>
      <trkpt lat="40.3501510" lon="-3.5061340">
        <ele>669.8</ele>
        <time>2021-04-04T12:18:17Z</time>
      </trkpt>
      <trkpt lat="40.3501670" lon="-3.5061500">
        <ele>669.9</ele>
        <time>2021-04-04T12:18:18Z</time>
      </trkpt>
      <trkpt lat="40.3501850" lon="-3.5061630">
        <ele>670.0</ele>
        <time>2021-04-04T12:18:19Z</time>
      </trkpt>
      <trkpt lat="40.3502060" lon="-3.5061710">
        <ele>670.1</ele>
        <time>2021-04-04T12:18:20Z</time>
      </trkpt>
      <trkpt lat="40.3502660" lon="-3.5061680">
        <ele>670.5</ele>
        <time>2021-04-04T12:18:21Z</time>
      </trkpt>
      <trkpt lat="40.3502770" lon="-3.5061640">
        <ele>670.5</ele>
        <time>2021-04-04T12:18:22Z</time>
      </trkpt>
      <trkpt lat="40.3503010" lon="-3.5061700">
        <ele>670.7</ele>
        <time>2021-04-04T12:18:23Z</time>
      </trkpt>
      <trkpt lat="40.3503240" lon="-3.5061770">
        <ele>670.8</ele>
        <time>2021-04-04T12:18:24Z</time>
      </trkpt>
      <trkpt lat="40.3503470" lon="-3.5062110">
        <ele>671.0</ele>
        <time>2021-04-04T12:18:25Z</time>
      </trkpt>
      <trkpt lat="40.3503810" lon="-3.5062400">
        <ele>671.3</ele>
        <time>2021-04-04T12:18:26Z</time>
      </trkpt>
      <trkpt lat="40.3503960" lon="-3.5062490">
        <ele>671.4</ele>
        <time>2021-04-04T12:18:27Z</time>
      </trkpt>
      <trkpt lat="40.3504250" lon="-3.5062630">
        <ele>671.6</ele>
        <time>2021-04-04T12:18:28Z</time>
      </trkpt>
      <trkpt lat="40.3504590" lon="-3.5062850">
        <ele>671.8</ele>
        <time>2021-04-04T12:18:29Z</time>
      </trkpt>
      <trkpt lat="40.3504700" lon="-3.5062920">
        <ele>671.9</ele>
        <time>2021-04-04T12:18:30Z</time>
      </trkpt>
      <trkpt lat="40.3505080" lon="-3.5063100">
        <ele>672.1</ele>
        <time>2021-04-04T12:18:31Z</time>
      </trkpt>
      <trkpt lat="40.3505200" lon="-3.5063150">
        <ele>672.2</ele>
        <time>2021-04-04T12:18:32Z</time>
      </trkpt>
      <trkpt lat="40.3505550" lon="-3.5063240">
        <ele>672.4</ele>
        <time>2021-04-04T12:18:33Z</time>
      </trkpt>
      <trkpt lat="40.3505660" lon="-3.5063270">
        <ele>672.5</ele>
        <time>2021-04-04T12:18:34Z</time>
      </trkpt>
      <trkpt lat="40.3506070" lon="-3.5063360">
        <ele>672.7</ele>
        <time>2021-04-04T12:18:35Z</time>
      </trkpt>
      <trkpt lat="40.3506210" lon="-3.5063400">
        <ele>672.8</ele>
        <time>2021-04-04T12:18:36Z</time>
      </trkpt>
      <trkpt lat="40.3506510" lon="-3.5063470">
        <ele>672.9</ele>
        <time>2021-04-04T12:18:37Z</time>
      </trkpt>
      <trkpt lat="40.3506850" lon="-3.5063540">
        <ele>673.1</ele>
        <time>2021-04-04T12:18:38Z</time>
      </trkpt>
      <trkpt lat="40.3507230" lon="-3.5063610">
        <ele>673.3</ele>
        <time>2021-04-04T12:18:39Z</time>
      </trkpt>
      <trkpt lat="40.3507570" lon="-3.5063610">
        <ele>673.4</ele>
        <time>2021-04-04T12:18:40Z</time>
      </trkpt>
      <trkpt lat="40.3507930" lon="-3.5063580">
        <ele>673.5</ele>
        <time>2021-04-04T12:18:41Z</time>
      </trkpt>
      <trkpt lat="40.3508270" lon="-3.5063520">
        <ele>673.6</ele>
        <time>2021-04-04T12:18:42Z</time>
      </trkpt>
      <trkpt lat="40.3508610" lon="-3.5063470">
        <ele>673.7</ele>
        <time>2021-04-04T12:18:43Z</time>
      </trkpt>
      <trkpt lat="40.3508960" lon="-3.5063400">
        <ele>673.8</ele>
        <time>2021-04-04T12:18:44Z</time>
      </trkpt>
      <trkpt lat="40.3509310" lon="-3.5063350">
        <ele>673.9</ele>
        <time>2021-04-04T12:18:45Z</time>
      </trkpt>
      <trkpt lat="40.3509630" lon="-3.5063270">
        <ele>673.9</ele>
        <time>2021-04-04T12:18:46Z</time>
      </trkpt>
      <trkpt lat="40.3510040" lon="-3.5063220">
        <ele>674.0</ele>
        <time>2021-04-04T12:18:47Z</time>
      </trkpt>
      <trkpt lat="40.3510460" lon="-3.5063180">
        <ele>674.1</ele>
        <time>2021-04-04T12:18:48Z</time>
      </trkpt>
      <trkpt lat="40.3510870" lon="-3.5063170">
        <ele>674.1</ele>
        <time>2021-04-04T12:18:49Z</time>
      </trkpt>
      <trkpt lat="40.3511310" lon="-3.5063180">
        <ele>674.2</ele>
        <time>2021-04-04T12:18:50Z</time>
      </trkpt>
      <trkpt lat="40.3511710" lon="-3.5063220">
        <ele>674.3</ele>
        <time>2021-04-04T12:18:51Z</time>
      </trkpt>
      <trkpt lat="40.3512070" lon="-3.5063280">
        <ele>674.3</ele>
        <time>2021-04-04T12:18:52Z</time>
      </trkpt>
      <trkpt lat="40.3512420" lon="-3.5063360">
        <ele>674.4</ele>
        <time>2021-04-04T12:18:53Z</time>
      </trkpt>
      <trkpt lat="40.3512790" lon="-3.5063460">
        <ele>674.4</ele>
        <time>2021-04-04T12:18:54Z</time>
      </trkpt>
      <trkpt lat="40.3513140" lon="-3.5063630">
        <ele>674.5</ele>
        <time>2021-04-04T12:18:55Z</time>
      </trkpt>
      <trkpt lat="40.3513480" lon="-3.5063900">
        <ele>674.5</ele>
        <time>2021-04-04T12:18:56Z</time>
      </trkpt>
      <trkpt lat="40.3513730" lon="-3.5064200">
        <ele>674.6</ele>
        <time>2021-04-04T12:18:57Z</time>
      </trkpt>
      <trkpt lat="40.3513890" lon="-3.5064660">
        <ele>674.6</ele>
        <time>2021-04-04T12:18:58Z</time>
      </trkpt>
      <trkpt lat="40.3514040" lon="-3.5065220">
        <ele>674.7</ele>
        <time>2021-04-04T12:18:59Z</time>
      </trkpt>
      <trkpt lat="40.3514130" lon="-3.5065810">
        <ele>674.7</ele>
        <time>2021-04-04T12:19:00Z</time>
      </trkpt>
      <trkpt lat="40.3514230" lon="-3.5066360">
        <ele>674.7</ele>
        <time>2021-04-04T12:19:01Z</time>
      </trkpt>
      <trkpt lat="40.3514310" lon="-3.5066890">
        <ele>674.8</ele>
        <time>2021-04-04T12:19:02Z</time>
      </trkpt>
      <trkpt lat="40.3514090" lon="-3.5068210">
        <ele>674.9</ele>
        <time>2021-04-04T12:19:03Z</time>
      </trkpt>
      <trkpt lat="40.3514280" lon="-3.5068540">
        <ele>675.0</ele>
        <time>2021-04-04T12:19:04Z</time>
      </trkpt>
      <trkpt lat="40.3514580" lon="-3.5069020">
        <ele>675.0</ele>
        <time>2021-04-04T12:19:05Z</time>
      </trkpt>
      <trkpt lat="40.3514470" lon="-3.5069570">
        <ele>675.1</ele>
        <time>2021-04-04T12:19:06Z</time>
      </trkpt>
      <trkpt lat="40.3514780" lon="-3.5070170">
        <ele>675.2</ele>
        <time>2021-04-04T12:19:07Z</time>
      </trkpt>
      <trkpt lat="40.3514820" lon="-3.5070740">
        <ele>675.2</ele>
        <time>2021-04-04T12:19:08Z</time>
      </trkpt>
      <trkpt lat="40.3515090" lon="-3.5071060">
        <ele>675.2</ele>
        <time>2021-04-04T12:19:09Z</time>
      </trkpt>
      <trkpt lat="40.3515170" lon="-3.5071550">
        <ele>675.2</ele>
        <time>2021-04-04T12:19:10Z</time>
      </trkpt>
      <trkpt lat="40.3515360" lon="-3.5072230">
        <ele>675.2</ele>
        <time>2021-04-04T12:19:11Z</time>
      </trkpt>
      <trkpt lat="40.3515020" lon="-3.5072830">
        <ele>675.2</ele>
        <time>2021-04-04T12:19:12Z</time>
      </trkpt>
      <trkpt lat="40.3514980" lon="-3.5073350">
        <ele>675.2</ele>
        <time>2021-04-04T12:19:13Z</time>
      </trkpt>
      <trkpt lat="40.3514990" lon="-3.5073980">
        <ele>675.1</ele>
        <time>2021-04-04T12:19:14Z</time>
      </trkpt>
      <trkpt lat="40.3515040" lon="-3.5074630">
        <ele>675.1</ele>
        <time>2021-04-04T12:19:15Z</time>
      </trkpt>
      <trkpt lat="40.3515040" lon="-3.5075100">
        <ele>675.1</ele>
        <time>2021-04-04T12:19:16Z</time>
      </trkpt>
      <trkpt lat="40.3514960" lon="-3.5075650">
        <ele>675.1</ele>
        <time>2021-04-04T12:19:17Z</time>
      </trkpt>
      <trkpt lat="40.3514860" lon="-3.5076150">
        <ele>675.2</ele>
        <time>2021-04-04T12:19:18Z</time>
      </trkpt>
      <trkpt lat="40.3514830" lon="-3.5076740">
        <ele>675.2</ele>
        <time>2021-04-04T12:19:19Z</time>
      </trkpt>
      <trkpt lat="40.3514700" lon="-3.5077270">
        <ele>675.2</ele>
        <time>2021-04-04T12:19:20Z</time>
      </trkpt>
      <trkpt lat="40.3514820" lon="-3.5077810">
        <ele>675.2</ele>
        <time>2021-04-04T12:19:21Z</time>
      </trkpt>
      <trkpt lat="40.3514860" lon="-3.5078350">
        <ele>675.2</ele>
        <time>2021-04-04T12:19:22Z</time>
      </trkpt>
      <trkpt lat="40.3514950" lon="-3.5079020">
        <ele>675.2</ele>
        <time>2021-04-04T12:19:23Z</time>
      </trkpt>
      <trkpt lat="40.3514730" lon="-3.5079640">
        <ele>675.2</ele>
        <time>2021-04-04T12:19:24Z</time>
      </trkpt>
      <trkpt lat="40.3514870" lon="-3.5080120">
        <ele>675.2</ele>
        <time>2021-04-04T12:19:25Z</time>
      </trkpt>
      <trkpt lat="40.3514950" lon="-3.5080730">
        <ele>675.3</ele>
        <time>2021-04-04T12:19:26Z</time>
      </trkpt>
      <trkpt lat="40.3515220" lon="-3.5081360">
        <ele>675.3</ele>
        <time>2021-04-04T12:19:27Z</time>
      </trkpt>
      <trkpt lat="40.3515350" lon="-3.5081840">
        <ele>675.4</ele>
        <time>2021-04-04T12:19:28Z</time>
      </trkpt>
      <trkpt lat="40.3515230" lon="-3.5082280">
        <ele>675.4</ele>
        <time>2021-04-04T12:19:29Z</time>
      </trkpt>
      <trkpt lat="40.3515400" lon="-3.5082920">
        <ele>675.6</ele>
        <time>2021-04-04T12:19:30Z</time>
      </trkpt>
      <trkpt lat="40.3515550" lon="-3.5083390">
        <ele>675.7</ele>
        <time>2021-04-04T12:19:31Z</time>
      </trkpt>
      <trkpt lat="40.3515900" lon="-3.5083900">
        <ele>675.8</ele>
        <time>2021-04-04T12:19:32Z</time>
      </trkpt>
      <trkpt lat="40.3516100" lon="-3.5084390">
        <ele>676.0</ele>
        <time>2021-04-04T12:19:33Z</time>
      </trkpt>
      <trkpt lat="40.3516320" lon="-3.5084870">
        <ele>676.1</ele>
        <time>2021-04-04T12:19:34Z</time>
      </trkpt>
      <trkpt lat="40.3516400" lon="-3.5085440">
        <ele>676.4</ele>
        <time>2021-04-04T12:19:35Z</time>
      </trkpt>
      <trkpt lat="40.3516730" lon="-3.5085880">
        <ele>676.6</ele>
        <time>2021-04-04T12:19:36Z</time>
      </trkpt>
      <trkpt lat="40.3517110" lon="-3.5086360">
        <ele>676.8</ele>
        <time>2021-04-04T12:19:37Z</time>
      </trkpt>
      <trkpt lat="40.3517380" lon="-3.5086850">
        <ele>676.9</ele>
        <time>2021-04-04T12:19:38Z</time>
      </trkpt>
      <trkpt lat="40.3517810" lon="-3.5087210">
        <ele>677.0</ele>
        <time>2021-04-04T12:19:39Z</time>
      </trkpt>
      <trkpt lat="40.3518190" lon="-3.5087580">
        <ele>677.0</ele>
        <time>2021-04-04T12:19:40Z</time>
      </trkpt>
      <trkpt lat="40.3518850" lon="-3.5088070">
        <ele>676.9</ele>
        <time>2021-04-04T12:19:41Z</time>
      </trkpt>
      <trkpt lat="40.3519060" lon="-3.5088400">
        <ele>676.7</ele>
        <time>2021-04-04T12:19:42Z</time>
      </trkpt>
      <trkpt lat="40.3519630" lon="-3.5088750">
        <ele>676.4</ele>
        <time>2021-04-04T12:19:43Z</time>
      </trkpt>
      <trkpt lat="40.3520000" lon="-3.5089140">
        <ele>676.1</ele>
        <time>2021-04-04T12:19:44Z</time>
      </trkpt>
      <trkpt lat="40.3520310" lon="-3.5089360">
        <ele>675.8</ele>
        <time>2021-04-04T12:19:45Z</time>
      </trkpt>
      <trkpt lat="40.3520970" lon="-3.5089530">
        <ele>675.2</ele>
        <time>2021-04-04T12:19:46Z</time>
      </trkpt>
      <trkpt lat="40.3521300" lon="-3.5089760">
        <ele>674.9</ele>
        <time>2021-04-04T12:19:47Z</time>
      </trkpt>
      <trkpt lat="40.3521940" lon="-3.5089850">
        <ele>674.2</ele>
        <time>2021-04-04T12:19:48Z</time>
      </trkpt>
      <trkpt lat="40.3522260" lon="-3.5090070">
        <ele>673.8</ele>
        <time>2021-04-04T12:19:49Z</time>
      </trkpt>
      <trkpt lat="40.3522720" lon="-3.5090060">
        <ele>673.3</ele>
        <time>2021-04-04T12:19:50Z</time>
      </trkpt>
      <trkpt lat="40.3523140" lon="-3.5090050">
        <ele>672.8</ele>
        <time>2021-04-04T12:19:51Z</time>
      </trkpt>
      <trkpt lat="40.3523620" lon="-3.5090020">
        <ele>672.3</ele>
        <time>2021-04-04T12:19:52Z</time>
      </trkpt>
      <trkpt lat="40.3524030" lon="-3.5089750">
        <ele>671.8</ele>
        <time>2021-04-04T12:19:53Z</time>
      </trkpt>
      <trkpt lat="40.3524840" lon="-3.5089610">
        <ele>671.0</ele>
        <time>2021-04-04T12:19:54Z</time>
      </trkpt>
      <trkpt lat="40.3525680" lon="-3.5089640">
        <ele>670.4</ele>
        <time>2021-04-04T12:19:55Z</time>
      </trkpt>
      <trkpt lat="40.3526660" lon="-3.5089710">
        <ele>669.8</ele>
        <time>2021-04-04T12:19:56Z</time>
      </trkpt>
      <trkpt lat="40.3527640" lon="-3.5089750">
        <ele>669.6</ele>
        <time>2021-04-04T12:19:57Z</time>
      </trkpt>
      <trkpt lat="40.3528620" lon="-3.5089920">
        <ele>669.5</ele>
        <time>2021-04-04T12:19:58Z</time>
      </trkpt>
      <trkpt lat="40.3529080" lon="-3.5090020">
        <ele>669.6</ele>
        <time>2021-04-04T12:19:59Z</time>
      </trkpt>
      <trkpt lat="40.3529840" lon="-3.5090340">
        <ele>669.8</ele>
        <time>2021-04-04T12:20:00Z</time>
      </trkpt>
      <trkpt lat="40.3530720" lon="-3.5090540">
        <ele>670.2</ele>
        <time>2021-04-04T12:20:01Z</time>
      </trkpt>
      <trkpt lat="40.3531290" lon="-3.5090630">
        <ele>670.5</ele>
        <time>2021-04-04T12:20:02Z</time>
      </trkpt>
      <trkpt lat="40.3531810" lon="-3.5091060">
        <ele>670.9</ele>
        <time>2021-04-04T12:20:03Z</time>
      </trkpt>
      <trkpt lat="40.3532240" lon="-3.5091040">
        <ele>671.3</ele>
        <time>2021-04-04T12:20:04Z</time>
      </trkpt>
      <trkpt lat="40.3532510" lon="-3.5091080">
        <ele>671.5</ele>
        <time>2021-04-04T12:20:05Z</time>
      </trkpt>
      <trkpt lat="40.3532870" lon="-3.5091230">
        <ele>671.8</ele>
        <time>2021-04-04T12:20:06Z</time>
      </trkpt>
      <trkpt lat="40.3533190" lon="-3.5091240">
        <ele>672.1</ele>
        <time>2021-04-04T12:20:07Z</time>
      </trkpt>
      <trkpt lat="40.3533940" lon="-3.5091660">
        <ele>672.7</ele>
        <time>2021-04-04T12:20:08Z</time>
      </trkpt>
      <trkpt lat="40.3534490" lon="-3.5091980">
        <ele>673.3</ele>
        <time>2021-04-04T12:20:09Z</time>
      </trkpt>
      <trkpt lat="40.3535450" lon="-3.5092500">
        <ele>674.2</ele>
        <time>2021-04-04T12:20:10Z</time>
      </trkpt>
      <trkpt lat="40.3535470" lon="-3.5092210">
        <ele>674.4</ele>
        <time>2021-04-04T12:20:11Z</time>
      </trkpt>
      <trkpt lat="40.3535590" lon="-3.5092230">
        <ele>674.5</ele>
        <time>2021-04-04T12:20:12Z</time>
      </trkpt>
      <trkpt lat="40.3535700" lon="-3.5092260">
        <ele>674.5</ele>
        <time>2021-04-04T12:20:13Z</time>
      </trkpt>
      <trkpt lat="40.3535820" lon="-3.5092280">
        <ele>674.6</ele>
        <time>2021-04-04T12:20:14Z</time>
      </trkpt>
      <trkpt lat="40.3536210" lon="-3.5092540">
        <ele>674.9</ele>
        <time>2021-04-04T12:20:15Z</time>
      </trkpt>
      <trkpt lat="40.3536420" lon="-3.5092750">
        <ele>675.0</ele>
        <time>2021-04-04T12:20:16Z</time>
      </trkpt>
      <trkpt lat="40.3536630" lon="-3.5092960">
        <ele>675.1</ele>
        <time>2021-04-04T12:20:17Z</time>
      </trkpt>
      <trkpt lat="40.3536860" lon="-3.5093280">
        <ele>675.2</ele>
        <time>2021-04-04T12:20:18Z</time>
      </trkpt>
      <trkpt lat="40.3537190" lon="-3.5093350">
        <ele>675.2</ele>
        <time>2021-04-04T12:20:19Z</time>
      </trkpt>
      <trkpt lat="40.3537480" lon="-3.5093370">
        <ele>675.3</ele>
        <time>2021-04-04T12:20:20Z</time>
      </trkpt>
      <trkpt lat="40.3537850" lon="-3.5093430">
        <ele>675.2</ele>
        <time>2021-04-04T12:20:21Z</time>
      </trkpt>
      <trkpt lat="40.3538170" lon="-3.5093540">
        <ele>675.2</ele>
        <time>2021-04-04T12:20:22Z</time>
      </trkpt>
      <trkpt lat="40.3538310" lon="-3.5093610">
        <ele>675.1</ele>
        <time>2021-04-04T12:20:23Z</time>
      </trkpt>
      <trkpt lat="40.3538650" lon="-3.5093730">
        <ele>675.1</ele>
        <time>2021-04-04T12:20:24Z</time>
      </trkpt>
      <trkpt lat="40.3538960" lon="-3.5093860">
        <ele>675.0</ele>
        <time>2021-04-04T12:20:25Z</time>
      </trkpt>
      <trkpt lat="40.3539320" lon="-3.5093980">
        <ele>674.9</ele>
        <time>2021-04-04T12:20:26Z</time>
      </trkpt>
      <trkpt lat="40.3539910" lon="-3.5094270">
        <ele>674.8</ele>
        <time>2021-04-04T12:20:27Z</time>
      </trkpt>
      <trkpt lat="40.3540300" lon="-3.5094330">
        <ele>674.7</ele>
        <time>2021-04-04T12:20:28Z</time>
      </trkpt>
      <trkpt lat="40.3540530" lon="-3.5094490">
        <ele>674.7</ele>
        <time>2021-04-04T12:20:29Z</time>
      </trkpt>
      <trkpt lat="40.3540980" lon="-3.5094470">
        <ele>674.6</ele>
        <time>2021-04-04T12:20:30Z</time>
      </trkpt>
      <trkpt lat="40.3541630" lon="-3.5094540">
        <ele>674.5</ele>
        <time>2021-04-04T12:20:31Z</time>
      </trkpt>
      <trkpt lat="40.3542250" lon="-3.5094250">
        <ele>674.5</ele>
        <time>2021-04-04T12:20:32Z</time>
      </trkpt>
      <trkpt lat="40.3542690" lon="-3.5094210">
        <ele>674.5</ele>
        <time>2021-04-04T12:20:33Z</time>
      </trkpt>
      <trkpt lat="40.3543500" lon="-3.5094490">
        <ele>674.6</ele>
        <time>2021-04-04T12:20:34Z</time>
      </trkpt>
      <trkpt lat="40.3544000" lon="-3.5094380">
        <ele>674.7</ele>
        <time>2021-04-04T12:20:35Z</time>
      </trkpt>
      <trkpt lat="40.3544270" lon="-3.5094300">
        <ele>674.7</ele>
        <time>2021-04-04T12:20:36Z</time>
      </trkpt>
      <trkpt lat="40.3544810" lon="-3.5093950">
        <ele>674.8</ele>
        <time>2021-04-04T12:20:37Z</time>
      </trkpt>
      <trkpt lat="40.3545240" lon="-3.5093580">
        <ele>674.9</ele>
        <time>2021-04-04T12:20:38Z</time>
      </trkpt>
      <trkpt lat="40.3545540" lon="-3.5093980">
        <ele>675.0</ele>
        <time>2021-04-04T12:20:39Z</time>
      </trkpt>
      <trkpt lat="40.3545990" lon="-3.5093800">
        <ele>675.2</ele>
        <time>2021-04-04T12:20:40Z</time>
      </trkpt>
      <trkpt lat="40.3546490" lon="-3.5093920">
        <ele>675.4</ele>
        <time>2021-04-04T12:20:41Z</time>
      </trkpt>
      <trkpt lat="40.3546920" lon="-3.5094160">
        <ele>675.6</ele>
        <time>2021-04-04T12:20:42Z</time>
      </trkpt>
      <trkpt lat="40.3547420" lon="-3.5094250">
        <ele>675.8</ele>
        <time>2021-04-04T12:20:43Z</time>
      </trkpt>
      <trkpt lat="40.3547840" lon="-3.5094410">
        <ele>676.1</ele>
        <time>2021-04-04T12:20:44Z</time>
      </trkpt>
      <trkpt lat="40.3548010" lon="-3.5094490">
        <ele>676.2</ele>
        <time>2021-04-04T12:20:45Z</time>
      </trkpt>
      <trkpt lat="40.3548310" lon="-3.5094630">
        <ele>676.3</ele>
        <time>2021-04-04T12:20:46Z</time>
      </trkpt>
      <trkpt lat="40.3548440" lon="-3.5094510">
        <ele>676.4</ele>
        <time>2021-04-04T12:20:47Z</time>
      </trkpt>
      <trkpt lat="40.3548740" lon="-3.5094310">
        <ele>676.6</ele>
        <time>2021-04-04T12:20:48Z</time>
      </trkpt>
      <trkpt lat="40.3548810" lon="-3.5094180">
        <ele>676.7</ele>
        <time>2021-04-04T12:20:49Z</time>
      </trkpt>
      <trkpt lat="40.3548890" lon="-3.5094060">
        <ele>676.7</ele>
        <time>2021-04-04T12:20:50Z</time>
      </trkpt>
      <trkpt lat="40.3549240" lon="-3.5093960">
        <ele>676.9</ele>
        <time>2021-04-04T12:20:51Z</time>
      </trkpt>
      <trkpt lat="40.3549620" lon="-3.5093890">
        <ele>677.1</ele>
        <time>2021-04-04T12:20:52Z</time>
      </trkpt>
      <trkpt lat="40.3550090" lon="-3.5093880">
        <ele>677.3</ele>
        <time>2021-04-04T12:20:53Z</time>
      </trkpt>
      <trkpt lat="40.3550470" lon="-3.5093960">
        <ele>677.5</ele>
        <time>2021-04-04T12:20:54Z</time>
      </trkpt>
      <trkpt lat="40.3550890" lon="-3.5094040">
        <ele>677.7</ele>
        <time>2021-04-04T12:20:55Z</time>
      </trkpt>
      <trkpt lat="40.3551350" lon="-3.5094110">
        <ele>677.9</ele>
        <time>2021-04-04T12:20:56Z</time>
      </trkpt>
      <trkpt lat="40.3551820" lon="-3.5094200">
        <ele>678.0</ele>
        <time>2021-04-04T12:20:57Z</time>
      </trkpt>
      <trkpt lat="40.3552310" lon="-3.5094280">
        <ele>678.1</ele>
        <time>2021-04-04T12:20:58Z</time>
      </trkpt>
      <trkpt lat="40.3552790" lon="-3.5094370">
        <ele>678.2</ele>
        <time>2021-04-04T12:20:59Z</time>
      </trkpt>
      <trkpt lat="40.3553260" lon="-3.5094450">
        <ele>678.2</ele>
        <time>2021-04-04T12:21:00Z</time>
      </trkpt>
      <trkpt lat="40.3553720" lon="-3.5094510">
        <ele>678.3</ele>
        <time>2021-04-04T12:21:01Z</time>
      </trkpt>
      <trkpt lat="40.3554170" lon="-3.5094570">
        <ele>678.3</ele>
        <time>2021-04-04T12:21:02Z</time>
      </trkpt>
      <trkpt lat="40.3554600" lon="-3.5094580">
        <ele>678.4</ele>
        <time>2021-04-04T12:21:03Z</time>
      </trkpt>
      <trkpt lat="40.3555040" lon="-3.5094640">
        <ele>678.5</ele>
        <time>2021-04-04T12:21:04Z</time>
      </trkpt>
      <trkpt lat="40.3555440" lon="-3.5094580">
        <ele>678.5</ele>
        <time>2021-04-04T12:21:05Z</time>
      </trkpt>
      <trkpt lat="40.3555820" lon="-3.5094550">
        <ele>678.6</ele>
        <time>2021-04-04T12:21:06Z</time>
      </trkpt>
      <trkpt lat="40.3556260" lon="-3.5094520">
        <ele>678.7</ele>
        <time>2021-04-04T12:21:07Z</time>
      </trkpt>
      <trkpt lat="40.3556770" lon="-3.5094520">
        <ele>678.8</ele>
        <time>2021-04-04T12:21:08Z</time>
      </trkpt>
      <trkpt lat="40.3557230" lon="-3.5094420">
        <ele>678.8</ele>
        <time>2021-04-04T12:21:09Z</time>
      </trkpt>
      <trkpt lat="40.3557670" lon="-3.5094200">
        <ele>678.9</ele>
        <time>2021-04-04T12:21:10Z</time>
      </trkpt>
      <trkpt lat="40.3558080" lon="-3.5093970">
        <ele>679.0</ele>
        <time>2021-04-04T12:21:11Z</time>
      </trkpt>
      <trkpt lat="40.3558870" lon="-3.5093910">
        <ele>679.0</ele>
        <time>2021-04-04T12:21:12Z</time>
      </trkpt>
      <trkpt lat="40.3559330" lon="-3.5093680">
        <ele>679.0</ele>
        <time>2021-04-04T12:21:13Z</time>
      </trkpt>
      <trkpt lat="40.3559830" lon="-3.5093630">
        <ele>679.0</ele>
        <time>2021-04-04T12:21:14Z</time>
      </trkpt>
      <trkpt lat="40.3560370" lon="-3.5093400">
        <ele>678.9</ele>
        <time>2021-04-04T12:21:15Z</time>
      </trkpt>
      <trkpt lat="40.3560960" lon="-3.5093160">
        <ele>678.7</ele>
        <time>2021-04-04T12:21:16Z</time>
      </trkpt>
      <trkpt lat="40.3561550" lon="-3.5092980">
        <ele>678.5</ele>
        <time>2021-04-04T12:21:17Z</time>
      </trkpt>
      <trkpt lat="40.3562060" lon="-3.5092590">
        <ele>678.4</ele>
        <time>2021-04-04T12:21:18Z</time>
      </trkpt>
      <trkpt lat="40.3562450" lon="-3.5092160">
        <ele>678.2</ele>
        <time>2021-04-04T12:21:19Z</time>
      </trkpt>
      <trkpt lat="40.3562850" lon="-3.5091470">
        <ele>678.1</ele>
        <time>2021-04-04T12:21:20Z</time>
      </trkpt>
      <trkpt lat="40.3563310" lon="-3.5091400">
        <ele>678.0</ele>
        <time>2021-04-04T12:21:21Z</time>
      </trkpt>
      <trkpt lat="40.3563980" lon="-3.5091580">
        <ele>678.0</ele>
        <time>2021-04-04T12:21:22Z</time>
      </trkpt>
      <trkpt lat="40.3564420" lon="-3.5091270">
        <ele>678.0</ele>
        <time>2021-04-04T12:21:23Z</time>
      </trkpt>
      <trkpt lat="40.3564820" lon="-3.5091280">
        <ele>678.1</ele>
        <time>2021-04-04T12:21:24Z</time>
      </trkpt>
      <trkpt lat="40.3565210" lon="-3.5091180">
        <ele>678.1</ele>
        <time>2021-04-04T12:21:25Z</time>
      </trkpt>
      <trkpt lat="40.3565670" lon="-3.5091090">
        <ele>678.2</ele>
        <time>2021-04-04T12:21:26Z</time>
      </trkpt>
      <trkpt lat="40.3566150" lon="-3.5091020">
        <ele>678.3</ele>
        <time>2021-04-04T12:21:27Z</time>
      </trkpt>
      <trkpt lat="40.3566370" lon="-3.5090910">
        <ele>678.3</ele>
        <time>2021-04-04T12:21:28Z</time>
      </trkpt>
      <trkpt lat="40.3566890" lon="-3.5090810">
        <ele>678.4</ele>
        <time>2021-04-04T12:21:29Z</time>
      </trkpt>
      <trkpt lat="40.3567260" lon="-3.5090620">
        <ele>678.4</ele>
        <time>2021-04-04T12:21:30Z</time>
      </trkpt>
      <trkpt lat="40.3567400" lon="-3.5090620">
        <ele>678.4</ele>
        <time>2021-04-04T12:21:31Z</time>
      </trkpt>
      <trkpt lat="40.3567930" lon="-3.5090900">
        <ele>678.4</ele>
        <time>2021-04-04T12:21:32Z</time>
      </trkpt>
      <trkpt lat="40.3568440" lon="-3.5090900">
        <ele>678.3</ele>
        <time>2021-04-04T12:21:33Z</time>
      </trkpt>
      <trkpt lat="40.3569110" lon="-3.5091040">
        <ele>678.2</ele>
        <time>2021-04-04T12:21:34Z</time>
      </trkpt>
      <trkpt lat="40.3569710" lon="-3.5091330">
        <ele>678.0</ele>
        <time>2021-04-04T12:21:35Z</time>
      </trkpt>
      <trkpt lat="40.3570030" lon="-3.5091670">
        <ele>677.9</ele>
        <time>2021-04-04T12:21:36Z</time>
      </trkpt>
      <trkpt lat="40.3570470" lon="-3.5092400">
        <ele>677.6</ele>
        <time>2021-04-04T12:21:37Z</time>
      </trkpt>
      <trkpt lat="40.3571060" lon="-3.5092890">
        <ele>677.3</ele>
        <time>2021-04-04T12:21:38Z</time>
      </trkpt>
      <trkpt lat="40.3571720" lon="-3.5093620">
        <ele>677.0</ele>
        <time>2021-04-04T12:21:39Z</time>
      </trkpt>
      <trkpt lat="40.3572130" lon="-3.5094440">
        <ele>676.6</ele>
        <time>2021-04-04T12:21:40Z</time>
      </trkpt>
      <trkpt lat="40.3572380" lon="-3.5095030">
        <ele>676.3</ele>
        <time>2021-04-04T12:21:41Z</time>
      </trkpt>
      <trkpt lat="40.3572240" lon="-3.5095520">
        <ele>676.1</ele>
        <time>2021-04-04T12:21:42Z</time>
      </trkpt>
      <trkpt lat="40.3572570" lon="-3.5095920">
        <ele>675.8</ele>
        <time>2021-04-04T12:21:43Z</time>
      </trkpt>
      <trkpt lat="40.3572960" lon="-3.5096190">
        <ele>675.4</ele>
        <time>2021-04-04T12:21:44Z</time>
      </trkpt>
      <trkpt lat="40.3573370" lon="-3.5096610">
        <ele>674.9</ele>
        <time>2021-04-04T12:21:45Z</time>
      </trkpt>
      <trkpt lat="40.3573530" lon="-3.5096930">
        <ele>674.6</ele>
        <time>2021-04-04T12:21:46Z</time>
      </trkpt>
      <trkpt lat="40.3573790" lon="-3.5097370">
        <ele>674.1</ele>
        <time>2021-04-04T12:21:47Z</time>
      </trkpt>
      <trkpt lat="40.3574060" lon="-3.5097800">
        <ele>673.6</ele>
        <time>2021-04-04T12:21:48Z</time>
      </trkpt>
      <trkpt lat="40.3574350" lon="-3.5098640">
        <ele>672.5</ele>
        <time>2021-04-04T12:21:49Z</time>
      </trkpt>
      <trkpt lat="40.3574890" lon="-3.5099290">
        <ele>671.4</ele>
        <time>2021-04-04T12:21:50Z</time>
      </trkpt>
      <trkpt lat="40.3575110" lon="-3.5100060">
        <ele>670.5</ele>
        <time>2021-04-04T12:21:51Z</time>
      </trkpt>
      <trkpt lat="40.3575020" lon="-3.5100880">
        <ele>669.6</ele>
        <time>2021-04-04T12:21:52Z</time>
      </trkpt>
      <trkpt lat="40.3574980" lon="-3.5101770">
        <ele>668.8</ele>
        <time>2021-04-04T12:21:53Z</time>
      </trkpt>
      <trkpt lat="40.3575470" lon="-3.5102600">
        <ele>667.8</ele>
        <time>2021-04-04T12:21:54Z</time>
      </trkpt>
      <trkpt lat="40.3575030" lon="-3.5103880">
        <ele>666.6</ele>
        <time>2021-04-04T12:21:55Z</time>
      </trkpt>
      <trkpt lat="40.3575120" lon="-3.5104980">
        <ele>665.8</ele>
        <time>2021-04-04T12:21:56Z</time>
      </trkpt>
      <trkpt lat="40.3575130" lon="-3.5105870">
        <ele>665.3</ele>
        <time>2021-04-04T12:21:57Z</time>
      </trkpt>
      <trkpt lat="40.3575400" lon="-3.5106460">
        <ele>664.9</ele>
        <time>2021-04-04T12:21:58Z</time>
      </trkpt>
      <trkpt lat="40.3574870" lon="-3.5107030">
        <ele>664.4</ele>
        <time>2021-04-04T12:21:59Z</time>
      </trkpt>
      <trkpt lat="40.3574670" lon="-3.5107560">
        <ele>664.2</ele>
        <time>2021-04-04T12:22:00Z</time>
      </trkpt>
      <trkpt lat="40.3574520" lon="-3.5108130">
        <ele>664.0</ele>
        <time>2021-04-04T12:22:01Z</time>
      </trkpt>
      <trkpt lat="40.3574330" lon="-3.5108720">
        <ele>663.7</ele>
        <time>2021-04-04T12:22:02Z</time>
      </trkpt>
      <trkpt lat="40.3574250" lon="-3.5109290">
        <ele>663.6</ele>
        <time>2021-04-04T12:22:03Z</time>
      </trkpt>
      <trkpt lat="40.3574100" lon="-3.5109630">
        <ele>663.5</ele>
        <time>2021-04-04T12:22:04Z</time>
      </trkpt>
      <trkpt lat="40.3573820" lon="-3.5110160">
        <ele>663.4</ele>
        <time>2021-04-04T12:22:05Z</time>
      </trkpt>
      <trkpt lat="40.3573790" lon="-3.5110610">
        <ele>663.4</ele>
        <time>2021-04-04T12:22:06Z</time>
      </trkpt>
      <trkpt lat="40.3573660" lon="-3.5111510">
        <ele>663.3</ele>
        <time>2021-04-04T12:22:07Z</time>
      </trkpt>
      <trkpt lat="40.3573890" lon="-3.5112190">
        <ele>663.2</ele>
        <time>2021-04-04T12:22:08Z</time>
      </trkpt>
      <trkpt lat="40.3574020" lon="-3.5112990">
        <ele>663.1</ele>
        <time>2021-04-04T12:22:09Z</time>
      </trkpt>
      <trkpt lat="40.3574210" lon="-3.5113570">
        <ele>663.0</ele>
        <time>2021-04-04T12:22:10Z</time>
      </trkpt>
      <trkpt lat="40.3574570" lon="-3.5114230">
        <ele>662.7</ele>
        <time>2021-04-04T12:22:11Z</time>
      </trkpt>
      <trkpt lat="40.3575160" lon="-3.5114610">
        <ele>662.3</ele>
        <time>2021-04-04T12:22:12Z</time>
      </trkpt>
      <trkpt lat="40.3575540" lon="-3.5115360">
        <ele>661.7</ele>
        <time>2021-04-04T12:22:13Z</time>
      </trkpt>
      <trkpt lat="40.3575730" lon="-3.5116010">
        <ele>661.2</ele>
        <time>2021-04-04T12:22:14Z</time>
      </trkpt>
      <trkpt lat="40.3575940" lon="-3.5116630">
        <ele>660.7</ele>
        <time>2021-04-04T12:22:15Z</time>
      </trkpt>
      <trkpt lat="40.3576310" lon="-3.5117130">
        <ele>660.1</ele>
        <time>2021-04-04T12:22:16Z</time>
      </trkpt>
      <trkpt lat="40.3576310" lon="-3.5117850">
        <ele>659.7</ele>
        <time>2021-04-04T12:22:17Z</time>
      </trkpt>
      <trkpt lat="40.3576130" lon="-3.5118950">
        <ele>659.2</ele>
        <time>2021-04-04T12:22:18Z</time>
      </trkpt>
      <trkpt lat="40.3576480" lon="-3.5119780">
        <ele>658.8</ele>
        <time>2021-04-04T12:22:19Z</time>
      </trkpt>
      <trkpt lat="40.3575900" lon="-3.5121100">
        <ele>658.2</ele>
        <time>2021-04-04T12:22:20Z</time>
      </trkpt>
      <trkpt lat="40.3575940" lon="-3.5122090">
        <ele>657.8</ele>
        <time>2021-04-04T12:22:21Z</time>
      </trkpt>
      <trkpt lat="40.3576280" lon="-3.5123110">
        <ele>657.4</ele>
        <time>2021-04-04T12:22:22Z</time>
      </trkpt>
      <trkpt lat="40.3576760" lon="-3.5124000">
        <ele>656.9</ele>
        <time>2021-04-04T12:22:23Z</time>
      </trkpt>
      <trkpt lat="40.3577050" lon="-3.5124940">
        <ele>656.4</ele>
        <time>2021-04-04T12:22:24Z</time>
      </trkpt>
      <trkpt lat="40.3577230" lon="-3.5125830">
        <ele>655.8</ele>
        <time>2021-04-04T12:22:25Z</time>
      </trkpt>
      <trkpt lat="40.3577150" lon="-3.5126580">
        <ele>655.2</ele>
        <time>2021-04-04T12:22:26Z</time>
      </trkpt>
      <trkpt lat="40.3577700" lon="-3.5127430">
        <ele>654.3</ele>
        <time>2021-04-04T12:22:27Z</time>
      </trkpt>
      <trkpt lat="40.3578330" lon="-3.5128060">
        <ele>653.5</ele>
        <time>2021-04-04T12:22:28Z</time>
      </trkpt>
      <trkpt lat="40.3579040" lon="-3.5128880">
        <ele>652.5</ele>
        <time>2021-04-04T12:22:29Z</time>
      </trkpt>
      <trkpt lat="40.3579710" lon="-3.5129650">
        <ele>651.7</ele>
        <time>2021-04-04T12:22:30Z</time>
      </trkpt>
      <trkpt lat="40.3579920" lon="-3.5130400">
        <ele>651.3</ele>
        <time>2021-04-04T12:22:31Z</time>
      </trkpt>
      <trkpt lat="40.3580540" lon="-3.5131410">
        <ele>650.7</ele>
        <time>2021-04-04T12:22:32Z</time>
      </trkpt>
      <trkpt lat="40.3580970" lon="-3.5132460">
        <ele>650.4</ele>
        <time>2021-04-04T12:22:33Z</time>
      </trkpt>
      <trkpt lat="40.3581390" lon="-3.5133520">
        <ele>650.2</ele>
        <time>2021-04-04T12:22:34Z</time>
      </trkpt>
      <trkpt lat="40.3581910" lon="-3.5134300">
        <ele>650.1</ele>
        <time>2021-04-04T12:22:35Z</time>
      </trkpt>
      <trkpt lat="40.3582220" lon="-3.5135140">
        <ele>650.1</ele>
        <time>2021-04-04T12:22:36Z</time>
      </trkpt>
      <trkpt lat="40.3583020" lon="-3.5135810">
        <ele>650.1</ele>
        <time>2021-04-04T12:22:37Z</time>
      </trkpt>
      <trkpt lat="40.3584080" lon="-3.5136350">
        <ele>650.0</ele>
        <time>2021-04-04T12:22:38Z</time>
      </trkpt>
      <trkpt lat="40.3584640" lon="-3.5136360">
        <ele>649.9</ele>
        <time>2021-04-04T12:22:39Z</time>
      </trkpt>
      <trkpt lat="40.3584670" lon="-3.5136940">
        <ele>649.9</ele>
        <time>2021-04-04T12:22:40Z</time>
      </trkpt>
      <trkpt lat="40.3585260" lon="-3.5137170">
        <ele>649.8</ele>
        <time>2021-04-04T12:22:41Z</time>
      </trkpt>
      <trkpt lat="40.3585860" lon="-3.5137070">
        <ele>649.5</ele>
        <time>2021-04-04T12:22:42Z</time>
      </trkpt>
      <trkpt lat="40.3586690" lon="-3.5136900">
        <ele>649.1</ele>
        <time>2021-04-04T12:22:43Z</time>
      </trkpt>
      <trkpt lat="40.3587460" lon="-3.5136240">
        <ele>648.6</ele>
        <time>2021-04-04T12:22:44Z</time>
      </trkpt>
      <trkpt lat="40.3587750" lon="-3.5135470">
        <ele>648.1</ele>
        <time>2021-04-04T12:22:45Z</time>
      </trkpt>
      <trkpt lat="40.3588780" lon="-3.5135440">
        <ele>647.4</ele>
        <time>2021-04-04T12:22:46Z</time>
      </trkpt>
      <trkpt lat="40.3589760" lon="-3.5135380">
        <ele>646.7</ele>
        <time>2021-04-04T12:22:47Z</time>
      </trkpt>
      <trkpt lat="40.3590650" lon="-3.5135000">
        <ele>646.2</ele>
        <time>2021-04-04T12:22:48Z</time>
      </trkpt>
      <trkpt lat="40.3591580" lon="-3.5134810">
        <ele>645.8</ele>
        <time>2021-04-04T12:22:49Z</time>
      </trkpt>
      <trkpt lat="40.3592350" lon="-3.5134460">
        <ele>645.5</ele>
        <time>2021-04-04T12:22:50Z</time>
      </trkpt>
      <trkpt lat="40.3593210" lon="-3.5134790">
        <ele>645.1</ele>
        <time>2021-04-04T12:22:51Z</time>
      </trkpt>
      <trkpt lat="40.3594260" lon="-3.5135160">
        <ele>644.7</ele>
        <time>2021-04-04T12:22:52Z</time>
      </trkpt>
      <trkpt lat="40.3595150" lon="-3.5136390">
        <ele>644.1</ele>
        <time>2021-04-04T12:22:53Z</time>
      </trkpt>
      <trkpt lat="40.3595840" lon="-3.5137450">
        <ele>643.8</ele>
        <time>2021-04-04T12:22:54Z</time>
      </trkpt>
      <trkpt lat="40.3596080" lon="-3.5138650">
        <ele>643.6</ele>
        <time>2021-04-04T12:22:55Z</time>
      </trkpt>
      <trkpt lat="40.3596600" lon="-3.5139590">
        <ele>643.6</ele>
        <time>2021-04-04T12:22:56Z</time>
      </trkpt>
      <trkpt lat="40.3596280" lon="-3.5140490">
        <ele>643.5</ele>
        <time>2021-04-04T12:22:57Z</time>
      </trkpt>
      <trkpt lat="40.3596330" lon="-3.5141220">
        <ele>643.6</ele>
        <time>2021-04-04T12:22:58Z</time>
      </trkpt>
      <trkpt lat="40.3596870" lon="-3.5141760">
        <ele>643.6</ele>
        <time>2021-04-04T12:22:59Z</time>
      </trkpt>
      <trkpt lat="40.3595940" lon="-3.5142370">
        <ele>643.6</ele>
        <time>2021-04-04T12:23:00Z</time>
      </trkpt>
      <trkpt lat="40.3595680" lon="-3.5142750">
        <ele>643.6</ele>
        <time>2021-04-04T12:23:01Z</time>
      </trkpt>
      <trkpt lat="40.3595740" lon="-3.5142680">
        <ele>643.6</ele>
        <time>2021-04-04T12:23:02Z</time>
      </trkpt>
      <trkpt lat="40.3595830" lon="-3.5142680">
        <ele>643.6</ele>
        <time>2021-04-04T12:23:03Z</time>
      </trkpt>
      <trkpt lat="40.3595920" lon="-3.5142680">
        <ele>643.6</ele>
        <time>2021-04-04T12:23:04Z</time>
      </trkpt>
      <trkpt lat="40.3596010" lon="-3.5142680">
        <ele>643.6</ele>
        <time>2021-04-04T12:23:05Z</time>
      </trkpt>
      <trkpt lat="40.3596100" lon="-3.5142680">
        <ele>643.6</ele>
        <time>2021-04-04T12:23:06Z</time>
      </trkpt>
      <trkpt lat="40.3596490" lon="-3.5142890">
        <ele>643.6</ele>
        <time>2021-04-04T12:23:07Z</time>
      </trkpt>
      <trkpt lat="40.3596660" lon="-3.5142940">
        <ele>643.6</ele>
        <time>2021-04-04T12:23:08Z</time>
      </trkpt>
      <trkpt lat="40.3597180" lon="-3.5143060">
        <ele>643.6</ele>
        <time>2021-04-04T12:23:09Z</time>
      </trkpt>
      <trkpt lat="40.3597620" lon="-3.5143140">
        <ele>643.6</ele>
        <time>2021-04-04T12:23:10Z</time>
      </trkpt>
      <trkpt lat="40.3597800" lon="-3.5143150">
        <ele>643.6</ele>
        <time>2021-04-04T12:23:11Z</time>
      </trkpt>
      <trkpt lat="40.3598210" lon="-3.5143210">
        <ele>643.6</ele>
        <time>2021-04-04T12:23:12Z</time>
      </trkpt>
      <trkpt lat="40.3598640" lon="-3.5143290">
        <ele>643.6</ele>
        <time>2021-04-04T12:23:13Z</time>
      </trkpt>
      <trkpt lat="40.3599110" lon="-3.5143310">
        <ele>643.7</ele>
        <time>2021-04-04T12:23:14Z</time>
      </trkpt>
      <trkpt lat="40.3599550" lon="-3.5143390">
        <ele>643.7</ele>
        <time>2021-04-04T12:23:15Z</time>
      </trkpt>
      <trkpt lat="40.3599930" lon="-3.5143420">
        <ele>643.7</ele>
        <time>2021-04-04T12:23:16Z</time>
      </trkpt>
      <trkpt lat="40.3600100" lon="-3.5143410">
        <ele>643.7</ele>
        <time>2021-04-04T12:23:17Z</time>
      </trkpt>
      <trkpt lat="40.3600120" lon="-3.5143380">
        <ele>643.7</ele>
        <time>2021-04-04T12:23:18Z</time>
      </trkpt>
      <trkpt lat="40.3600150" lon="-3.5143390">
        <ele>643.7</ele>
        <time>2021-04-04T12:23:19Z</time>
      </trkpt>
      <trkpt lat="40.3600200" lon="-3.5143470">
        <ele>643.7</ele>
        <time>2021-04-04T12:23:20Z</time>
      </trkpt>
      <trkpt lat="40.3600210" lon="-3.5143500">
        <ele>643.7</ele>
        <time>2021-04-04T12:23:21Z</time>
      </trkpt>
      <trkpt lat="40.3600220" lon="-3.5143460">
        <ele>643.7</ele>
        <time>2021-04-04T12:23:22Z</time>
      </trkpt>
      <trkpt lat="40.3600220" lon="-3.5143420">
        <ele>643.7</ele>
        <time>2021-04-04T12:23:23Z</time>
      </trkpt>
      <trkpt lat="40.3600230" lon="-3.5143380">
        <ele>643.7</ele>
        <time>2021-04-04T12:23:24Z</time>
      </trkpt>
      <trkpt lat="40.3600240" lon="-3.5143340">
        <ele>643.7</ele>
        <time>2021-04-04T12:23:25Z</time>
      </trkpt>
      <trkpt lat="40.3600250" lon="-3.5143300">
        <ele>643.7</ele>
        <time>2021-04-04T12:23:26Z</time>
      </trkpt>
      <trkpt lat="40.3600250" lon="-3.5143260">
        <ele>643.7</ele>
        <time>2021-04-04T12:23:27Z</time>
      </trkpt>
      <trkpt lat="40.3600260" lon="-3.5143220">
        <ele>643.7</ele>
        <time>2021-04-04T12:23:28Z</time>
      </trkpt>
      <trkpt lat="40.3600270" lon="-3.5143180">
        <ele>643.7</ele>
        <time>2021-04-04T12:23:29Z</time>
      </trkpt>
      <trkpt lat="40.3600280" lon="-3.5143140">
        <ele>643.7</ele>
        <time>2021-04-04T12:23:30Z</time>
      </trkpt>
      <trkpt lat="40.3600280" lon="-3.5143100">
        <ele>643.7</ele>
        <time>2021-04-04T12:23:31Z</time>
      </trkpt>
      <trkpt lat="40.3600290" lon="-3.5143060">
        <ele>643.7</ele>
        <time>2021-04-04T12:23:32Z</time>
      </trkpt>
      <trkpt lat="40.3600300" lon="-3.5143020">
        <ele>643.7</ele>
        <time>2021-04-04T12:23:33Z</time>
      </trkpt>
      <trkpt lat="40.3600310" lon="-3.5142980">
        <ele>643.7</ele>
        <time>2021-04-04T12:23:34Z</time>
      </trkpt>
      <trkpt lat="40.3600310" lon="-3.5142940">
        <ele>643.7</ele>
        <time>2021-04-04T12:23:35Z</time>
      </trkpt>
      <trkpt lat="40.3600320" lon="-3.5142900">
        <ele>643.7</ele>
        <time>2021-04-04T12:23:36Z</time>
      </trkpt>
      <trkpt lat="40.3600330" lon="-3.5142860">
        <ele>643.7</ele>
        <time>2021-04-04T12:23:37Z</time>
      </trkpt>
      <trkpt lat="40.3600340" lon="-3.5142820">
        <ele>643.8</ele>
        <time>2021-04-04T12:23:38Z</time>
      </trkpt>
      <trkpt lat="40.3600340" lon="-3.5142780">
        <ele>643.8</ele>
        <time>2021-04-04T12:23:43Z</time>
      </trkpt>
      <trkpt lat="40.3600350" lon="-3.5142740">
        <ele>643.8</ele>
        <time>2021-04-04T12:23:44Z</time>
      </trkpt>
      <trkpt lat="40.3600360" lon="-3.5142700">
        <ele>643.8</ele>
        <time>2021-04-04T12:23:45Z</time>
      </trkpt>
      <trkpt lat="40.3600600" lon="-3.5142360">
        <ele>643.8</ele>
        <time>2021-04-04T12:23:46Z</time>
      </trkpt>
      <trkpt lat="40.3600710" lon="-3.5142230">
        <ele>643.8</ele>
        <time>2021-04-04T12:23:47Z</time>
      </trkpt>
      <trkpt lat="40.3601040" lon="-3.5141990">
        <ele>643.9</ele>
        <time>2021-04-04T12:23:48Z</time>
      </trkpt>
      <trkpt lat="40.3601400" lon="-3.5141820">
        <ele>644.0</ele>
        <time>2021-04-04T12:23:49Z</time>
      </trkpt>
      <trkpt lat="40.3601740" lon="-3.5141610">
        <ele>644.0</ele>
        <time>2021-04-04T12:23:50Z</time>
      </trkpt>
      <trkpt lat="40.3602080" lon="-3.5141370">
        <ele>644.1</ele>
        <time>2021-04-04T12:23:51Z</time>
      </trkpt>
      <trkpt lat="40.3602380" lon="-3.5140980">
        <ele>644.2</ele>
        <time>2021-04-04T12:23:52Z</time>
      </trkpt>
      <trkpt lat="40.3602510" lon="-3.5140580">
        <ele>644.2</ele>
        <time>2021-04-04T12:23:53Z</time>
      </trkpt>
      <trkpt lat="40.3602750" lon="-3.5140270">
        <ele>644.3</ele>
        <time>2021-04-04T12:23:54Z</time>
      </trkpt>
      <trkpt lat="40.3602990" lon="-3.5140030">
        <ele>644.4</ele>
        <time>2021-04-04T12:23:55Z</time>
      </trkpt>
      <trkpt lat="40.3603350" lon="-3.5139810">
        <ele>644.4</ele>
        <time>2021-04-04T12:23:56Z</time>
      </trkpt>
      <trkpt lat="40.3603840" lon="-3.5139880">
        <ele>644.5</ele>
        <time>2021-04-04T12:23:57Z</time>
      </trkpt>
      <trkpt lat="40.3604250" lon="-3.5139940">
        <ele>644.6</ele>
        <time>2021-04-04T12:23:58Z</time>
      </trkpt>
      <trkpt lat="40.3604570" lon="-3.5139970">
        <ele>644.6</ele>
        <time>2021-04-04T12:23:59Z</time>
      </trkpt>
      <trkpt lat="40.3604930" lon="-3.5140180">
        <ele>644.7</ele>
        <time>2021-04-04T12:24:00Z</time>
      </trkpt>
      <trkpt lat="40.3605310" lon="-3.5140530">
        <ele>644.8</ele>
        <time>2021-04-04T12:24:01Z</time>
      </trkpt>
      <trkpt lat="40.3605660" lon="-3.5140950">
        <ele>644.9</ele>
        <time>2021-04-04T12:24:02Z</time>
      </trkpt>
      <trkpt lat="40.3606040" lon="-3.5141390">
        <ele>645.1</ele>
        <time>2021-04-04T12:24:03Z</time>
      </trkpt>
      <trkpt lat="40.3606490" lon="-3.5141910">
        <ele>645.2</ele>
        <time>2021-04-04T12:24:04Z</time>
      </trkpt>
      <trkpt lat="40.3606880" lon="-3.5142430">
        <ele>645.4</ele>
        <time>2021-04-04T12:24:05Z</time>
      </trkpt>
      <trkpt lat="40.3607160" lon="-3.5142920">
        <ele>645.6</ele>
        <time>2021-04-04T12:24:06Z</time>
      </trkpt>
      <trkpt lat="40.3607400" lon="-3.5143330">
        <ele>645.7</ele>
        <time>2021-04-04T12:24:07Z</time>
      </trkpt>
      <trkpt lat="40.3607650" lon="-3.5143700">
        <ele>645.8</ele>
        <time>2021-04-04T12:24:08Z</time>
      </trkpt>
      <trkpt lat="40.3607950" lon="-3.5144030">
        <ele>645.9</ele>
        <time>2021-04-04T12:24:09Z</time>
      </trkpt>
      <trkpt lat="40.3608320" lon="-3.5144310">
        <ele>646.1</ele>
        <time>2021-04-04T12:24:10Z</time>
      </trkpt>
      <trkpt lat="40.3608750" lon="-3.5144530">
        <ele>646.2</ele>
        <time>2021-04-04T12:24:11Z</time>
      </trkpt>
      <trkpt lat="40.3609240" lon="-3.5144770">
        <ele>646.3</ele>
        <time>2021-04-04T12:24:12Z</time>
      </trkpt>
      <trkpt lat="40.3609690" lon="-3.5144860">
        <ele>646.4</ele>
        <time>2021-04-04T12:24:13Z</time>
      </trkpt>
      <trkpt lat="40.3610130" lon="-3.5144920">
        <ele>646.5</ele>
        <time>2021-04-04T12:24:14Z</time>
      </trkpt>
      <trkpt lat="40.3610710" lon="-3.5144460">
        <ele>646.7</ele>
        <time>2021-04-04T12:24:15Z</time>
      </trkpt>
      <trkpt lat="40.3611110" lon="-3.5144360">
        <ele>646.8</ele>
        <time>2021-04-04T12:24:16Z</time>
      </trkpt>
      <trkpt lat="40.3611390" lon="-3.5144230">
        <ele>646.9</ele>
        <time>2021-04-04T12:24:17Z</time>
      </trkpt>
      <trkpt lat="40.3612150" lon="-3.5144230">
        <ele>647.1</ele>
        <time>2021-04-04T12:24:18Z</time>
      </trkpt>
      <trkpt lat="40.3612490" lon="-3.5144140">
        <ele>647.2</ele>
        <time>2021-04-04T12:24:19Z</time>
      </trkpt>
      <trkpt lat="40.3613140" lon="-3.5144060">
        <ele>647.3</ele>
        <time>2021-04-04T12:24:20Z</time>
      </trkpt>
      <trkpt lat="40.3613750" lon="-3.5143930">
        <ele>647.4</ele>
        <time>2021-04-04T12:24:21Z</time>
      </trkpt>
      <trkpt lat="40.3614140" lon="-3.5143360">
        <ele>647.4</ele>
        <time>2021-04-04T12:24:22Z</time>
      </trkpt>
      <trkpt lat="40.3614760" lon="-3.5142830">
        <ele>647.3</ele>
        <time>2021-04-04T12:24:23Z</time>
      </trkpt>
      <trkpt lat="40.3614870" lon="-3.5141850">
        <ele>647.2</ele>
        <time>2021-04-04T12:24:24Z</time>
      </trkpt>
      <trkpt lat="40.3615490" lon="-3.5141530">
        <ele>647.0</ele>
        <time>2021-04-04T12:24:25Z</time>
      </trkpt>
      <trkpt lat="40.3615990" lon="-3.5141050">
        <ele>646.9</ele>
        <time>2021-04-04T12:24:26Z</time>
      </trkpt>
      <trkpt lat="40.3616580" lon="-3.5140750">
        <ele>646.8</ele>
        <time>2021-04-04T12:24:27Z</time>
      </trkpt>
      <trkpt lat="40.3617320" lon="-3.5140340">
        <ele>646.7</ele>
        <time>2021-04-04T12:24:28Z</time>
      </trkpt>
      <trkpt lat="40.3617970" lon="-3.5139830">
        <ele>646.6</ele>
        <time>2021-04-04T12:24:29Z</time>
      </trkpt>
      <trkpt lat="40.3618380" lon="-3.5139200">
        <ele>646.6</ele>
        <time>2021-04-04T12:24:30Z</time>
      </trkpt>
      <trkpt lat="40.3618690" lon="-3.5138770">
        <ele>646.6</ele>
        <time>2021-04-04T12:24:31Z</time>
      </trkpt>
      <trkpt lat="40.3618960" lon="-3.5138080">
        <ele>646.5</ele>
        <time>2021-04-04T12:24:32Z</time>
      </trkpt>
      <trkpt lat="40.3619050" lon="-3.5137540">
        <ele>646.5</ele>
        <time>2021-04-04T12:24:33Z</time>
      </trkpt>
      <trkpt lat="40.3619150" lon="-3.5136880">
        <ele>646.5</ele>
        <time>2021-04-04T12:24:34Z</time>
      </trkpt>
      <trkpt lat="40.3619480" lon="-3.5136230">
        <ele>646.4</ele>
        <time>2021-04-04T12:24:35Z</time>
      </trkpt>
      <trkpt lat="40.3619670" lon="-3.5135430">
        <ele>646.4</ele>
        <time>2021-04-04T12:24:36Z</time>
      </trkpt>
      <trkpt lat="40.3619940" lon="-3.5134840">
        <ele>646.3</ele>
        <time>2021-04-04T12:24:37Z</time>
      </trkpt>
      <trkpt lat="40.3620420" lon="-3.5134540">
        <ele>646.2</ele>
        <time>2021-04-04T12:24:38Z</time>
      </trkpt>
      <trkpt lat="40.3620910" lon="-3.5134190">
        <ele>646.1</ele>
        <time>2021-04-04T12:24:39Z</time>
      </trkpt>
      <trkpt lat="40.3621330" lon="-3.5133650">
        <ele>645.9</ele>
        <time>2021-04-04T12:24:40Z</time>
      </trkpt>
      <trkpt lat="40.3621900" lon="-3.5133430">
        <ele>645.6</ele>
        <time>2021-04-04T12:24:41Z</time>
      </trkpt>
      <trkpt lat="40.3622440" lon="-3.5133280">
        <ele>645.4</ele>
        <time>2021-04-04T12:24:42Z</time>
      </trkpt>
      <trkpt lat="40.3623310" lon="-3.5133890">
        <ele>645.0</ele>
        <time>2021-04-04T12:24:43Z</time>
      </trkpt>
      <trkpt lat="40.3623760" lon="-3.5134140">
        <ele>644.8</ele>
        <time>2021-04-04T12:24:44Z</time>
      </trkpt>
      <trkpt lat="40.3624430" lon="-3.5134870">
        <ele>644.3</ele>
        <time>2021-04-04T12:24:45Z</time>
      </trkpt>
      <trkpt lat="40.3625060" lon="-3.5135480">
        <ele>644.0</ele>
        <time>2021-04-04T12:24:46Z</time>
      </trkpt>
      <trkpt lat="40.3625880" lon="-3.5136670">
        <ele>643.6</ele>
        <time>2021-04-04T12:24:47Z</time>
      </trkpt>
      <trkpt lat="40.3626240" lon="-3.5137180">
        <ele>643.5</ele>
        <time>2021-04-04T12:24:48Z</time>
      </trkpt>
      <trkpt lat="40.3626520" lon="-3.5138330">
        <ele>643.4</ele>
        <time>2021-04-04T12:24:49Z</time>
      </trkpt>
      <trkpt lat="40.3626940" lon="-3.5139000">
        <ele>643.4</ele>
        <time>2021-04-04T12:24:50Z</time>
      </trkpt>
      <trkpt lat="40.3627400" lon="-3.5139690">
        <ele>643.5</ele>
        <time>2021-04-04T12:24:51Z</time>
      </trkpt>
      <trkpt lat="40.3627130" lon="-3.5140400">
        <ele>643.6</ele>
        <time>2021-04-04T12:24:52Z</time>
      </trkpt>
      <trkpt lat="40.3627210" lon="-3.5141150">
        <ele>643.8</ele>
        <time>2021-04-04T12:24:53Z</time>
      </trkpt>
      <trkpt lat="40.3627490" lon="-3.5141810">
        <ele>643.9</ele>
        <time>2021-04-04T12:24:54Z</time>
      </trkpt>
      <trkpt lat="40.3627830" lon="-3.5142440">
        <ele>644.1</ele>
        <time>2021-04-04T12:24:55Z</time>
      </trkpt>
      <trkpt lat="40.3628280" lon="-3.5142990">
        <ele>644.2</ele>
        <time>2021-04-04T12:24:56Z</time>
      </trkpt>
      <trkpt lat="40.3628580" lon="-3.5143550">
        <ele>644.4</ele>
        <time>2021-04-04T12:24:57Z</time>
      </trkpt>
      <trkpt lat="40.3628880" lon="-3.5144140">
        <ele>644.3</ele>
        <time>2021-04-04T12:24:58Z</time>
      </trkpt>
      <trkpt lat="40.3629020" lon="-3.5144930">
        <ele>644.3</ele>
        <time>2021-04-04T12:24:59Z</time>
      </trkpt>
      <trkpt lat="40.3629410" lon="-3.5145660">
        <ele>644.2</ele>
        <time>2021-04-04T12:25:00Z</time>
      </trkpt>
      <trkpt lat="40.3629860" lon="-3.5146270">
        <ele>644.1</ele>
        <time>2021-04-04T12:25:01Z</time>
      </trkpt>
      <trkpt lat="40.3630200" lon="-3.5146700">
        <ele>644.2</ele>
        <time>2021-04-04T12:25:02Z</time>
      </trkpt>
      <trkpt lat="40.3630380" lon="-3.5147270">
        <ele>644.2</ele>
        <time>2021-04-04T12:25:03Z</time>
      </trkpt>
      <trkpt lat="40.3630950" lon="-3.5147040">
        <ele>644.4</ele>
        <time>2021-04-04T12:25:04Z</time>
      </trkpt>
      <trkpt lat="40.3631660" lon="-3.5146810">
        <ele>644.6</ele>
        <time>2021-04-04T12:25:05Z</time>
      </trkpt>
      <trkpt lat="40.3632140" lon="-3.5146680">
        <ele>644.8</ele>
        <time>2021-04-04T12:25:06Z</time>
      </trkpt>
      <trkpt lat="40.3632570" lon="-3.5146260">
        <ele>645.0</ele>
        <time>2021-04-04T12:25:07Z</time>
      </trkpt>
      <trkpt lat="40.3633050" lon="-3.5146050">
        <ele>645.2</ele>
        <time>2021-04-04T12:25:08Z</time>
      </trkpt>
      <trkpt lat="40.3633390" lon="-3.5146380">
        <ele>645.3</ele>
        <time>2021-04-04T12:25:09Z</time>
      </trkpt>
      <trkpt lat="40.3633660" lon="-3.5146710">
        <ele>645.4</ele>
        <time>2021-04-04T12:25:10Z</time>
      </trkpt>
      <trkpt lat="40.3633760" lon="-3.5146930">
        <ele>645.5</ele>
        <time>2021-04-04T12:25:11Z</time>
      </trkpt>
      <trkpt lat="40.3634130" lon="-3.5147310">
        <ele>645.6</ele>
        <time>2021-04-04T12:25:12Z</time>
      </trkpt>
      <trkpt lat="40.3634340" lon="-3.5147450">
        <ele>645.7</ele>
        <time>2021-04-04T12:25:13Z</time>
      </trkpt>
      <trkpt lat="40.3634650" lon="-3.5147800">
        <ele>645.8</ele>
        <time>2021-04-04T12:25:14Z</time>
      </trkpt>
      <trkpt lat="40.3634860" lon="-3.5148040">
        <ele>645.9</ele>
        <time>2021-04-04T12:25:15Z</time>
      </trkpt>
      <trkpt lat="40.3635020" lon="-3.5148620">
        <ele>646.1</ele>
        <time>2021-04-04T12:25:16Z</time>
      </trkpt>
      <trkpt lat="40.3635150" lon="-3.5148990">
        <ele>646.2</ele>
        <time>2021-04-04T12:25:17Z</time>
      </trkpt>
      <trkpt lat="40.3635620" lon="-3.5149220">
        <ele>646.5</ele>
        <time>2021-04-04T12:25:18Z</time>
      </trkpt>
      <trkpt lat="40.3635980" lon="-3.5149490">
        <ele>646.8</ele>
        <time>2021-04-04T12:25:19Z</time>
      </trkpt>
      <trkpt lat="40.3636400" lon="-3.5149700">
        <ele>647.1</ele>
        <time>2021-04-04T12:25:20Z</time>
      </trkpt>
      <trkpt lat="40.3636730" lon="-3.5149690">
        <ele>647.4</ele>
        <time>2021-04-04T12:25:21Z</time>
      </trkpt>
      <trkpt lat="40.3637010" lon="-3.5149740">
        <ele>647.6</ele>
        <time>2021-04-04T12:25:22Z</time>
      </trkpt>
      <trkpt lat="40.3637340" lon="-3.5149910">
        <ele>647.8</ele>
        <time>2021-04-04T12:25:23Z</time>
      </trkpt>
      <trkpt lat="40.3637500" lon="-3.5150220">
        <ele>648.0</ele>
        <time>2021-04-04T12:25:24Z</time>
      </trkpt>
      <trkpt lat="40.3637780" lon="-3.5150730">
        <ele>648.3</ele>
        <time>2021-04-04T12:25:25Z</time>
      </trkpt>
      <trkpt lat="40.3638080" lon="-3.5151210">
        <ele>648.5</ele>
        <time>2021-04-04T12:25:26Z</time>
      </trkpt>
      <trkpt lat="40.3638410" lon="-3.5151670">
        <ele>648.6</ele>
        <time>2021-04-04T12:25:27Z</time>
      </trkpt>
      <trkpt lat="40.3638790" lon="-3.5152130">
        <ele>648.6</ele>
        <time>2021-04-04T12:25:28Z</time>
      </trkpt>
      <trkpt lat="40.3639200" lon="-3.5152590">
        <ele>648.5</ele>
        <time>2021-04-04T12:25:29Z</time>
      </trkpt>
      <trkpt lat="40.3639840" lon="-3.5153600">
        <ele>648.0</ele>
        <time>2021-04-04T12:25:30Z</time>
      </trkpt>
      <trkpt lat="40.3640070" lon="-3.5154230">
        <ele>647.7</ele>
        <time>2021-04-04T12:25:31Z</time>
      </trkpt>
      <trkpt lat="40.3640350" lon="-3.5154760">
        <ele>647.3</ele>
        <time>2021-04-04T12:25:32Z</time>
      </trkpt>
      <trkpt lat="40.3640420" lon="-3.5155440">
        <ele>646.9</ele>
        <time>2021-04-04T12:25:33Z</time>
      </trkpt>
      <trkpt lat="40.3640450" lon="-3.5156100">
        <ele>646.5</ele>
        <time>2021-04-04T12:25:34Z</time>
      </trkpt>
      <trkpt lat="40.3640100" lon="-3.5156980">
        <ele>645.7</ele>
        <time>2021-04-04T12:25:35Z</time>
      </trkpt>
      <trkpt lat="40.3639950" lon="-3.5157680">
        <ele>645.2</ele>
        <time>2021-04-04T12:25:36Z</time>
      </trkpt>
      <trkpt lat="40.3639910" lon="-3.5158710">
        <ele>644.4</ele>
        <time>2021-04-04T12:25:37Z</time>
      </trkpt>
      <trkpt lat="40.3640160" lon="-3.5159830">
        <ele>643.6</ele>
        <time>2021-04-04T12:25:38Z</time>
      </trkpt>
      <trkpt lat="40.3639740" lon="-3.5160840">
        <ele>643.0</ele>
        <time>2021-04-04T12:25:39Z</time>
      </trkpt>
      <trkpt lat="40.3640210" lon="-3.5161940">
        <ele>642.5</ele>
        <time>2021-04-04T12:25:40Z</time>
      </trkpt>
      <trkpt lat="40.3640340" lon="-3.5162970">
        <ele>642.1</ele>
        <time>2021-04-04T12:25:41Z</time>
      </trkpt>
      <trkpt lat="40.3640550" lon="-3.5164030">
        <ele>641.9</ele>
        <time>2021-04-04T12:25:42Z</time>
      </trkpt>
      <trkpt lat="40.3641040" lon="-3.5164980">
        <ele>641.7</ele>
        <time>2021-04-04T12:25:43Z</time>
      </trkpt>
      <trkpt lat="40.3641090" lon="-3.5165920">
        <ele>641.5</ele>
        <time>2021-04-04T12:25:44Z</time>
      </trkpt>
      <trkpt lat="40.3641300" lon="-3.5166900">
        <ele>641.4</ele>
        <time>2021-04-04T12:25:45Z</time>
      </trkpt>
      <trkpt lat="40.3641900" lon="-3.5167770">
        <ele>641.3</ele>
        <time>2021-04-04T12:25:46Z</time>
      </trkpt>
      <trkpt lat="40.3642220" lon="-3.5168290">
        <ele>641.2</ele>
        <time>2021-04-04T12:25:47Z</time>
      </trkpt>
      <trkpt lat="40.3642470" lon="-3.5169460">
        <ele>641.2</ele>
        <time>2021-04-04T12:25:48Z</time>
      </trkpt>
      <trkpt lat="40.3642120" lon="-3.5170430">
        <ele>641.2</ele>
        <time>2021-04-04T12:25:49Z</time>
      </trkpt>
      <trkpt lat="40.3642370" lon="-3.5171260">
        <ele>641.2</ele>
        <time>2021-04-04T12:25:50Z</time>
      </trkpt>
      <trkpt lat="40.3642570" lon="-3.5171790">
        <ele>641.2</ele>
        <time>2021-04-04T12:25:51Z</time>
      </trkpt>
      <trkpt lat="40.3642580" lon="-3.5172610">
        <ele>641.3</ele>
        <time>2021-04-04T12:25:52Z</time>
      </trkpt>
      <trkpt lat="40.3642640" lon="-3.5173350">
        <ele>641.3</ele>
        <time>2021-04-04T12:25:53Z</time>
      </trkpt>
      <trkpt lat="40.3642540" lon="-3.5174060">
        <ele>641.4</ele>
        <time>2021-04-04T12:25:54Z</time>
      </trkpt>
      <trkpt lat="40.3642540" lon="-3.5174740">
        <ele>641.4</ele>
        <time>2021-04-04T12:25:55Z</time>
      </trkpt>
      <trkpt lat="40.3642410" lon="-3.5175410">
        <ele>641.5</ele>
        <time>2021-04-04T12:25:56Z</time>
      </trkpt>
      <trkpt lat="40.3642530" lon="-3.5176010">
        <ele>641.6</ele>
        <time>2021-04-04T12:25:57Z</time>
      </trkpt>
      <trkpt lat="40.3642560" lon="-3.5176650">
        <ele>641.6</ele>
        <time>2021-04-04T12:25:58Z</time>
      </trkpt>
      <trkpt lat="40.3642610" lon="-3.5177320">
        <ele>641.7</ele>
        <time>2021-04-04T12:25:59Z</time>
      </trkpt>
      <trkpt lat="40.3643070" lon="-3.5177800">
        <ele>641.7</ele>
        <time>2021-04-04T12:26:00Z</time>
      </trkpt>
      <trkpt lat="40.3643300" lon="-3.5178540">
        <ele>641.8</ele>
        <time>2021-04-04T12:26:01Z</time>
      </trkpt>
      <trkpt lat="40.3643790" lon="-3.5179230">
        <ele>641.8</ele>
        <time>2021-04-04T12:26:02Z</time>
      </trkpt>
      <trkpt lat="40.3644060" lon="-3.5179780">
        <ele>641.8</ele>
        <time>2021-04-04T12:26:03Z</time>
      </trkpt>
      <trkpt lat="40.3644760" lon="-3.5179970">
        <ele>641.9</ele>
        <time>2021-04-04T12:26:04Z</time>
      </trkpt>
      <trkpt lat="40.3644980" lon="-3.5180250">
        <ele>641.9</ele>
        <time>2021-04-04T12:26:05Z</time>
      </trkpt>
      <trkpt lat="40.3645500" lon="-3.5180380">
        <ele>641.9</ele>
        <time>2021-04-04T12:26:06Z</time>
      </trkpt>
      <trkpt lat="40.3646180" lon="-3.5180500">
        <ele>641.9</ele>
        <time>2021-04-04T12:26:07Z</time>
      </trkpt>
      <trkpt lat="40.3646870" lon="-3.5180550">
        <ele>641.9</ele>
        <time>2021-04-04T12:26:08Z</time>
      </trkpt>
      <trkpt lat="40.3647480" lon="-3.5180560">
        <ele>641.9</ele>
        <time>2021-04-04T12:26:09Z</time>
      </trkpt>
      <trkpt lat="40.3648090" lon="-3.5180660">
        <ele>641.9</ele>
        <time>2021-04-04T12:26:10Z</time>
      </trkpt>
      <trkpt lat="40.3648650" lon="-3.5180500">
        <ele>641.8</ele>
        <time>2021-04-04T12:26:11Z</time>
      </trkpt>
      <trkpt lat="40.3649390" lon="-3.5180280">
        <ele>641.8</ele>
        <time>2021-04-04T12:26:12Z</time>
      </trkpt>
      <trkpt lat="40.3649960" lon="-3.5180090">
        <ele>641.7</ele>
        <time>2021-04-04T12:26:13Z</time>
      </trkpt>
      <trkpt lat="40.3650870" lon="-3.5180380">
        <ele>641.8</ele>
        <time>2021-04-04T12:26:14Z</time>
      </trkpt>
      <trkpt lat="40.3651330" lon="-3.5181220">
        <ele>641.8</ele>
        <time>2021-04-04T12:26:15Z</time>
      </trkpt>
      <trkpt lat="40.3652170" lon="-3.5181880">
        <ele>642.0</ele>
        <time>2021-04-04T12:26:16Z</time>
      </trkpt>
      <trkpt lat="40.3652920" lon="-3.5182590">
        <ele>642.2</ele>
        <time>2021-04-04T12:26:17Z</time>
      </trkpt>
      <trkpt lat="40.3653740" lon="-3.5183200">
        <ele>642.5</ele>
        <time>2021-04-04T12:26:18Z</time>
      </trkpt>
      <trkpt lat="40.3653620" lon="-3.5184520">
        <ele>642.8</ele>
        <time>2021-04-04T12:26:19Z</time>
      </trkpt>
      <trkpt lat="40.3654480" lon="-3.5184810">
        <ele>643.2</ele>
        <time>2021-04-04T12:26:20Z</time>
      </trkpt>
      <trkpt lat="40.3655100" lon="-3.5185330">
        <ele>643.5</ele>
        <time>2021-04-04T12:26:21Z</time>
      </trkpt>
      <trkpt lat="40.3654810" lon="-3.5185940">
        <ele>643.8</ele>
        <time>2021-04-04T12:26:22Z</time>
      </trkpt>
      <trkpt lat="40.3654720" lon="-3.5186490">
        <ele>644.1</ele>
        <time>2021-04-04T12:26:23Z</time>
      </trkpt>
      <trkpt lat="40.3654870" lon="-3.5187100">
        <ele>644.4</ele>
        <time>2021-04-04T12:26:24Z</time>
      </trkpt>
      <trkpt lat="40.3654710" lon="-3.5187470">
        <ele>644.7</ele>
        <time>2021-04-04T12:26:25Z</time>
      </trkpt>
      <trkpt lat="40.3655070" lon="-3.5187830">
        <ele>645.0</ele>
        <time>2021-04-04T12:26:26Z</time>
      </trkpt>
      <trkpt lat="40.3655560" lon="-3.5188180">
        <ele>645.4</ele>
        <time>2021-04-04T12:26:27Z</time>
      </trkpt>
      <trkpt lat="40.3655460" lon="-3.5188550">
        <ele>645.6</ele>
        <time>2021-04-04T12:26:28Z</time>
      </trkpt>
      <trkpt lat="40.3655680" lon="-3.5188990">
        <ele>645.9</ele>
        <time>2021-04-04T12:26:29Z</time>
      </trkpt>
      <trkpt lat="40.3655490" lon="-3.5189490">
        <ele>646.2</ele>
        <time>2021-04-04T12:26:30Z</time>
      </trkpt>
      <trkpt lat="40.3655740" lon="-3.5189950">
        <ele>646.6</ele>
        <time>2021-04-04T12:26:31Z</time>
      </trkpt>
      <trkpt lat="40.3655960" lon="-3.5190090">
        <ele>646.7</ele>
        <time>2021-04-04T12:26:32Z</time>
      </trkpt>
      <trkpt lat="40.3656330" lon="-3.5190340">
        <ele>647.1</ele>
        <time>2021-04-04T12:26:33Z</time>
      </trkpt>
      <trkpt lat="40.3656860" lon="-3.5190560">
        <ele>647.5</ele>
        <time>2021-04-04T12:26:34Z</time>
      </trkpt>
      <trkpt lat="40.3657170" lon="-3.5190870">
        <ele>647.8</ele>
        <time>2021-04-04T12:26:35Z</time>
      </trkpt>
      <trkpt lat="40.3657390" lon="-3.5191240">
        <ele>648.0</ele>
        <time>2021-04-04T12:26:36Z</time>
      </trkpt>
      <trkpt lat="40.3657580" lon="-3.5191580">
        <ele>648.3</ele>
        <time>2021-04-04T12:26:37Z</time>
      </trkpt>
      <trkpt lat="40.3657770" lon="-3.5191910">
        <ele>648.5</ele>
        <time>2021-04-04T12:26:38Z</time>
      </trkpt>
      <trkpt lat="40.3657920" lon="-3.5192240">
        <ele>648.6</ele>
        <time>2021-04-04T12:26:39Z</time>
      </trkpt>
      <trkpt lat="40.3658030" lon="-3.5192610">
        <ele>648.8</ele>
        <time>2021-04-04T12:26:40Z</time>
      </trkpt>
      <trkpt lat="40.3658150" lon="-3.5193000">
        <ele>649.0</ele>
        <time>2021-04-04T12:26:41Z</time>
      </trkpt>
      <trkpt lat="40.3658260" lon="-3.5193390">
        <ele>649.2</ele>
        <time>2021-04-04T12:26:42Z</time>
      </trkpt>
      <trkpt lat="40.3658370" lon="-3.5193780">
        <ele>649.4</ele>
        <time>2021-04-04T12:26:43Z</time>
      </trkpt>
      <trkpt lat="40.3658500" lon="-3.5194180">
        <ele>649.6</ele>
        <time>2021-04-04T12:26:44Z</time>
      </trkpt>
      <trkpt lat="40.3658680" lon="-3.5194600">
        <ele>649.8</ele>
        <time>2021-04-04T12:26:46Z</time>
      </trkpt>
      <trkpt lat="40.3658880" lon="-3.5195040">
        <ele>650.0</ele>
        <time>2021-04-04T12:26:47Z</time>
      </trkpt>
      <trkpt lat="40.3659120" lon="-3.5195450">
        <ele>650.2</ele>
        <time>2021-04-04T12:26:48Z</time>
      </trkpt>
      <trkpt lat="40.3659400" lon="-3.5195850">
        <ele>650.4</ele>
        <time>2021-04-04T12:26:49Z</time>
      </trkpt>
      <trkpt lat="40.3659660" lon="-3.5196280">
        <ele>650.6</ele>
        <time>2021-04-04T12:26:50Z</time>
      </trkpt>
      <trkpt lat="40.3659990" lon="-3.5196730">
        <ele>650.8</ele>
        <time>2021-04-04T12:26:51Z</time>
      </trkpt>
      <trkpt lat="40.3660300" lon="-3.5197120">
        <ele>651.0</ele>
        <time>2021-04-04T12:26:52Z</time>
      </trkpt>
      <trkpt lat="40.3660570" lon="-3.5197490">
        <ele>651.1</ele>
        <time>2021-04-04T12:26:53Z</time>
      </trkpt>
      <trkpt lat="40.3660800" lon="-3.5197870">
        <ele>651.2</ele>
        <time>2021-04-04T12:26:54Z</time>
      </trkpt>
      <trkpt lat="40.3660980" lon="-3.5198290">
        <ele>651.2</ele>
        <time>2021-04-04T12:26:55Z</time>
      </trkpt>
      <trkpt lat="40.3661080" lon="-3.5198720">
        <ele>651.1</ele>
        <time>2021-04-04T12:26:56Z</time>
      </trkpt>
      <trkpt lat="40.3661190" lon="-3.5199140">
        <ele>651.0</ele>
        <time>2021-04-04T12:26:57Z</time>
      </trkpt>
      <trkpt lat="40.3661270" lon="-3.5199580">
        <ele>651.0</ele>
        <time>2021-04-04T12:26:58Z</time>
      </trkpt>
      <trkpt lat="40.3661450" lon="-3.5200010">
        <ele>650.9</ele>
        <time>2021-04-04T12:26:59Z</time>
      </trkpt>
      <trkpt lat="40.3661790" lon="-3.5200560">
        <ele>650.8</ele>
        <time>2021-04-04T12:27:00Z</time>
      </trkpt>
      <trkpt lat="40.3661950" lon="-3.5201010">
        <ele>650.7</ele>
        <time>2021-04-04T12:27:01Z</time>
      </trkpt>
      <trkpt lat="40.3662490" lon="-3.5201440">
        <ele>650.6</ele>
        <time>2021-04-04T12:27:02Z</time>
      </trkpt>
      <trkpt lat="40.3662890" lon="-3.5201830">
        <ele>650.6</ele>
        <time>2021-04-04T12:27:03Z</time>
      </trkpt>
      <trkpt lat="40.3663470" lon="-3.5202580">
        <ele>650.3</ele>
        <time>2021-04-04T12:27:04Z</time>
      </trkpt>
      <trkpt lat="40.3664100" lon="-3.5202770">
        <ele>650.1</ele>
        <time>2021-04-04T12:27:05Z</time>
      </trkpt>
      <trkpt lat="40.3664260" lon="-3.5203290">
        <ele>650.0</ele>
        <time>2021-04-04T12:27:06Z</time>
      </trkpt>
      <trkpt lat="40.3664840" lon="-3.5203860">
        <ele>649.7</ele>
        <time>2021-04-04T12:27:07Z</time>
      </trkpt>
      <trkpt lat="40.3665380" lon="-3.5204290">
        <ele>649.5</ele>
        <time>2021-04-04T12:27:08Z</time>
      </trkpt>
      <trkpt lat="40.3665920" lon="-3.5204750">
        <ele>649.4</ele>
        <time>2021-04-04T12:27:09Z</time>
      </trkpt>
      <trkpt lat="40.3666320" lon="-3.5205040">
        <ele>649.2</ele>
        <time>2021-04-04T12:27:10Z</time>
      </trkpt>
      <trkpt lat="40.3666720" lon="-3.5205570">
        <ele>649.1</ele>
        <time>2021-04-04T12:27:11Z</time>
      </trkpt>
      <trkpt lat="40.3667010" lon="-3.5206060">
        <ele>648.9</ele>
        <time>2021-04-04T12:27:12Z</time>
      </trkpt>
      <trkpt lat="40.3667340" lon="-3.5206470">
        <ele>648.8</ele>
        <time>2021-04-04T12:27:13Z</time>
      </trkpt>
      <trkpt lat="40.3667940" lon="-3.5207000">
        <ele>648.6</ele>
        <time>2021-04-04T12:27:14Z</time>
      </trkpt>
      <trkpt lat="40.3668690" lon="-3.5207350">
        <ele>648.4</ele>
        <time>2021-04-04T12:27:15Z</time>
      </trkpt>
      <trkpt lat="40.3669260" lon="-3.5207840">
        <ele>648.3</ele>
        <time>2021-04-04T12:27:16Z</time>
      </trkpt>
      <trkpt lat="40.3670100" lon="-3.5208000">
        <ele>648.2</ele>
        <time>2021-04-04T12:27:17Z</time>
      </trkpt>
      <trkpt lat="40.3670940" lon="-3.5208200">
        <ele>648.1</ele>
        <time>2021-04-04T12:27:18Z</time>
      </trkpt>
      <trkpt lat="40.3671510" lon="-3.5208530">
        <ele>648.1</ele>
        <time>2021-04-04T12:27:19Z</time>
      </trkpt>
      <trkpt lat="40.3672100" lon="-3.5208550">
        <ele>648.2</ele>
        <time>2021-04-04T12:27:20Z</time>
      </trkpt>
      <trkpt lat="40.3672790" lon="-3.5208750">
        <ele>648.3</ele>
        <time>2021-04-04T12:27:21Z</time>
      </trkpt>
      <trkpt lat="40.3673260" lon="-3.5208800">
        <ele>648.4</ele>
        <time>2021-04-04T12:27:22Z</time>
      </trkpt>
      <trkpt lat="40.3673960" lon="-3.5208970">
        <ele>648.6</ele>
        <time>2021-04-04T12:27:23Z</time>
      </trkpt>
      <trkpt lat="40.3674600" lon="-3.5208890">
        <ele>648.8</ele>
        <time>2021-04-04T12:27:24Z</time>
      </trkpt>
      <trkpt lat="40.3675240" lon="-3.5208970">
        <ele>649.0</ele>
        <time>2021-04-04T12:27:25Z</time>
      </trkpt>
      <trkpt lat="40.3675660" lon="-3.5208950">
        <ele>649.1</ele>
        <time>2021-04-04T12:27:26Z</time>
      </trkpt>
      <trkpt lat="40.3676160" lon="-3.5208770">
        <ele>649.3</ele>
        <time>2021-04-04T12:27:27Z</time>
      </trkpt>
      <trkpt lat="40.3676470" lon="-3.5208650">
        <ele>649.4</ele>
        <time>2021-04-04T12:27:28Z</time>
      </trkpt>
      <trkpt lat="40.3676740" lon="-3.5208480">
        <ele>649.5</ele>
        <time>2021-04-04T12:27:29Z</time>
      </trkpt>
      <trkpt lat="40.3677360" lon="-3.5208670">
        <ele>649.8</ele>
        <time>2021-04-04T12:27:30Z</time>
      </trkpt>
      <trkpt lat="40.3677940" lon="-3.5208920">
        <ele>650.0</ele>
        <time>2021-04-04T12:27:31Z</time>
      </trkpt>
      <trkpt lat="40.3678580" lon="-3.5209270">
        <ele>650.2</ele>
        <time>2021-04-04T12:27:32Z</time>
      </trkpt>
      <trkpt lat="40.3679220" lon="-3.5209710">
        <ele>650.5</ele>
        <time>2021-04-04T12:27:33Z</time>
      </trkpt>
      <trkpt lat="40.3679660" lon="-3.5209770">
        <ele>650.6</ele>
        <time>2021-04-04T12:27:34Z</time>
      </trkpt>
      <trkpt lat="40.3679940" lon="-3.5209950">
        <ele>650.6</ele>
        <time>2021-04-04T12:27:35Z</time>
      </trkpt>
      <trkpt lat="40.3680540" lon="-3.5210310">
        <ele>650.8</ele>
        <time>2021-04-04T12:27:36Z</time>
      </trkpt>
      <trkpt lat="40.3681230" lon="-3.5211150">
        <ele>650.9</ele>
        <time>2021-04-04T12:27:37Z</time>
      </trkpt>
      <trkpt lat="40.3681440" lon="-3.5211620">
        <ele>650.9</ele>
        <time>2021-04-04T12:27:38Z</time>
      </trkpt>
      <trkpt lat="40.3682000" lon="-3.5211590">
        <ele>650.9</ele>
        <time>2021-04-04T12:27:39Z</time>
      </trkpt>
      <trkpt lat="40.3682460" lon="-3.5211780">
        <ele>650.8</ele>
        <time>2021-04-04T12:27:40Z</time>
      </trkpt>
      <trkpt lat="40.3683020" lon="-3.5212180">
        <ele>650.7</ele>
        <time>2021-04-04T12:27:41Z</time>
      </trkpt>
      <trkpt lat="40.3683460" lon="-3.5212350">
        <ele>650.6</ele>
        <time>2021-04-04T12:27:42Z</time>
      </trkpt>
      <trkpt lat="40.3684070" lon="-3.5212730">
        <ele>650.5</ele>
        <time>2021-04-04T12:27:43Z</time>
      </trkpt>
      <trkpt lat="40.3684890" lon="-3.5213270">
        <ele>650.4</ele>
        <time>2021-04-04T12:27:44Z</time>
      </trkpt>
      <trkpt lat="40.3685410" lon="-3.5213570">
        <ele>650.3</ele>
        <time>2021-04-04T12:27:45Z</time>
      </trkpt>
      <trkpt lat="40.3685710" lon="-3.5214050">
        <ele>650.3</ele>
        <time>2021-04-04T12:27:46Z</time>
      </trkpt>
      <trkpt lat="40.3686280" lon="-3.5214420">
        <ele>650.2</ele>
        <time>2021-04-04T12:27:47Z</time>
      </trkpt>
      <trkpt lat="40.3686570" lon="-3.5214680">
        <ele>650.2</ele>
        <time>2021-04-04T12:27:48Z</time>
      </trkpt>
      <trkpt lat="40.3686720" lon="-3.5214870">
        <ele>650.2</ele>
        <time>2021-04-04T12:27:49Z</time>
      </trkpt>
      <trkpt lat="40.3687380" lon="-3.5215240">
        <ele>650.2</ele>
        <time>2021-04-04T12:27:50Z</time>
      </trkpt>
      <trkpt lat="40.3687940" lon="-3.5215540">
        <ele>650.2</ele>
        <time>2021-04-04T12:27:51Z</time>
      </trkpt>
      <trkpt lat="40.3688580" lon="-3.5216220">
        <ele>650.3</ele>
        <time>2021-04-04T12:27:52Z</time>
      </trkpt>
      <trkpt lat="40.3689120" lon="-3.5216840">
        <ele>650.3</ele>
        <time>2021-04-04T12:27:53Z</time>
      </trkpt>
      <trkpt lat="40.3689720" lon="-3.5217280">
        <ele>650.5</ele>
        <time>2021-04-04T12:27:54Z</time>
      </trkpt>
      <trkpt lat="40.3690090" lon="-3.5217680">
        <ele>650.5</ele>
        <time>2021-04-04T12:27:55Z</time>
      </trkpt>
      <trkpt lat="40.3690200" lon="-3.5218100">
        <ele>650.6</ele>
        <time>2021-04-04T12:27:56Z</time>
      </trkpt>
      <trkpt lat="40.3690690" lon="-3.5218370">
        <ele>650.8</ele>
        <time>2021-04-04T12:27:57Z</time>
      </trkpt>
      <trkpt lat="40.3691140" lon="-3.5219170">
        <ele>651.3</ele>
        <time>2021-04-04T12:27:58Z</time>
      </trkpt>
      <trkpt lat="40.3691530" lon="-3.5219590">
        <ele>651.6</ele>
        <time>2021-04-04T12:27:59Z</time>
      </trkpt>
      <trkpt lat="40.3691740" lon="-3.5220340">
        <ele>652.1</ele>
        <time>2021-04-04T12:28:00Z</time>
      </trkpt>
      <trkpt lat="40.3691880" lon="-3.5220980">
        <ele>652.5</ele>
        <time>2021-04-04T12:28:01Z</time>
      </trkpt>
      <trkpt lat="40.3692050" lon="-3.5221490">
        <ele>652.9</ele>
        <time>2021-04-04T12:28:02Z</time>
      </trkpt>
      <trkpt lat="40.3692220" lon="-3.5222070">
        <ele>653.3</ele>
        <time>2021-04-04T12:28:03Z</time>
      </trkpt>
      <trkpt lat="40.3692340" lon="-3.5222440">
        <ele>653.6</ele>
        <time>2021-04-04T12:28:04Z</time>
      </trkpt>
      <trkpt lat="40.3692700" lon="-3.5222850">
        <ele>654.0</ele>
        <time>2021-04-04T12:28:05Z</time>
      </trkpt>
      <trkpt lat="40.3692880" lon="-3.5223360">
        <ele>654.4</ele>
        <time>2021-04-04T12:28:06Z</time>
      </trkpt>
      <trkpt lat="40.3692990" lon="-3.5223860">
        <ele>654.8</ele>
        <time>2021-04-04T12:28:07Z</time>
      </trkpt>
      <trkpt lat="40.3693270" lon="-3.5224250">
        <ele>655.2</ele>
        <time>2021-04-04T12:28:08Z</time>
      </trkpt>
      <trkpt lat="40.3693160" lon="-3.5224770">
        <ele>655.6</ele>
        <time>2021-04-04T12:28:09Z</time>
      </trkpt>
      <trkpt lat="40.3693350" lon="-3.5225210">
        <ele>656.2</ele>
        <time>2021-04-04T12:28:10Z</time>
      </trkpt>
      <trkpt lat="40.3693430" lon="-3.5225690">
        <ele>656.5</ele>
        <time>2021-04-04T12:28:11Z</time>
      </trkpt>
      <trkpt lat="40.3693440" lon="-3.5226150">
        <ele>656.9</ele>
        <time>2021-04-04T12:28:12Z</time>
      </trkpt>
      <trkpt lat="40.3693440" lon="-3.5226600">
        <ele>657.2</ele>
        <time>2021-04-04T12:28:13Z</time>
      </trkpt>
      <trkpt lat="40.3693450" lon="-3.5227080">
        <ele>657.5</ele>
        <time>2021-04-04T12:28:14Z</time>
      </trkpt>
      <trkpt lat="40.3693440" lon="-3.5227530">
        <ele>657.8</ele>
        <time>2021-04-04T12:28:15Z</time>
      </trkpt>
      <trkpt lat="40.3693520" lon="-3.5227920">
        <ele>658.1</ele>
        <time>2021-04-04T12:28:16Z</time>
      </trkpt>
      <trkpt lat="40.3693750" lon="-3.5228300">
        <ele>658.4</ele>
        <time>2021-04-04T12:28:17Z</time>
      </trkpt>
      <trkpt lat="40.3694010" lon="-3.5228640">
        <ele>658.7</ele>
        <time>2021-04-04T12:28:18Z</time>
      </trkpt>
      <trkpt lat="40.3694260" lon="-3.5228870">
        <ele>658.9</ele>
        <time>2021-04-04T12:28:19Z</time>
      </trkpt>
      <trkpt lat="40.3694500" lon="-3.5229050">
        <ele>659.1</ele>
        <time>2021-04-04T12:28:20Z</time>
      </trkpt>
      <trkpt lat="40.3694940" lon="-3.5229120">
        <ele>659.5</ele>
        <time>2021-04-04T12:28:21Z</time>
      </trkpt>
      <trkpt lat="40.3695430" lon="-3.5229070">
        <ele>659.7</ele>
        <time>2021-04-04T12:28:22Z</time>
      </trkpt>
      <trkpt lat="40.3695910" lon="-3.5228870">
        <ele>659.6</ele>
        <time>2021-04-04T12:28:23Z</time>
      </trkpt>
      <trkpt lat="40.3696370" lon="-3.5228570">
        <ele>659.5</ele>
        <time>2021-04-04T12:28:24Z</time>
      </trkpt>
      <trkpt lat="40.3696800" lon="-3.5228170">
        <ele>659.5</ele>
        <time>2021-04-04T12:28:25Z</time>
      </trkpt>
      <trkpt lat="40.3697610" lon="-3.5226970">
        <ele>659.3</ele>
        <time>2021-04-04T12:28:26Z</time>
      </trkpt>
      <trkpt lat="40.3697910" lon="-3.5226480">
        <ele>659.2</ele>
        <time>2021-04-04T12:28:27Z</time>
      </trkpt>
      <trkpt lat="40.3698150" lon="-3.5226130">
        <ele>659.2</ele>
        <time>2021-04-04T12:28:28Z</time>
      </trkpt>
      <trkpt lat="40.3698350" lon="-3.5225650">
        <ele>659.1</ele>
        <time>2021-04-04T12:28:29Z</time>
      </trkpt>
      <trkpt lat="40.3698760" lon="-3.5225250">
        <ele>659.0</ele>
        <time>2021-04-04T12:28:30Z</time>
      </trkpt>
      <trkpt lat="40.3699160" lon="-3.5224850">
        <ele>659.0</ele>
        <time>2021-04-04T12:28:31Z</time>
      </trkpt>
      <trkpt lat="40.3699680" lon="-3.5224610">
        <ele>658.8</ele>
        <time>2021-04-04T12:28:32Z</time>
      </trkpt>
      <trkpt lat="40.3700290" lon="-3.5224280">
        <ele>658.7</ele>
        <time>2021-04-04T12:28:33Z</time>
      </trkpt>
      <trkpt lat="40.3700870" lon="-3.5224040">
        <ele>658.5</ele>
        <time>2021-04-04T12:28:34Z</time>
      </trkpt>
      <trkpt lat="40.3701310" lon="-3.5223540">
        <ele>658.4</ele>
        <time>2021-04-04T12:28:35Z</time>
      </trkpt>
      <trkpt lat="40.3701620" lon="-3.5223240">
        <ele>658.2</ele>
        <time>2021-04-04T12:28:36Z</time>
      </trkpt>
      <trkpt lat="40.3702070" lon="-3.5222730">
        <ele>658.0</ele>
        <time>2021-04-04T12:28:37Z</time>
      </trkpt>
      <trkpt lat="40.3702750" lon="-3.5222860">
        <ele>657.8</ele>
        <time>2021-04-04T12:28:38Z</time>
      </trkpt>
      <trkpt lat="40.3703140" lon="-3.5222240">
        <ele>657.5</ele>
        <time>2021-04-04T12:28:39Z</time>
      </trkpt>
      <trkpt lat="40.3703610" lon="-3.5221690">
        <ele>657.3</ele>
        <time>2021-04-04T12:28:40Z</time>
      </trkpt>
      <trkpt lat="40.3704130" lon="-3.5221270">
        <ele>657.0</ele>
        <time>2021-04-04T12:28:41Z</time>
      </trkpt>
      <trkpt lat="40.3704650" lon="-3.5220810">
        <ele>656.8</ele>
        <time>2021-04-04T12:28:42Z</time>
      </trkpt>
      <trkpt lat="40.3705190" lon="-3.5220480">
        <ele>656.6</ele>
        <time>2021-04-04T12:28:43Z</time>
      </trkpt>
      <trkpt lat="40.3705890" lon="-3.5220080">
        <ele>656.3</ele>
        <time>2021-04-04T12:28:44Z</time>
      </trkpt>
      <trkpt lat="40.3706400" lon="-3.5219680">
        <ele>656.1</ele>
        <time>2021-04-04T12:28:45Z</time>
      </trkpt>
      <trkpt lat="40.3706940" lon="-3.5219080">
        <ele>655.9</ele>
        <time>2021-04-04T12:28:46Z</time>
      </trkpt>
      <trkpt lat="40.3707530" lon="-3.5218570">
        <ele>655.7</ele>
        <time>2021-04-04T12:28:47Z</time>
      </trkpt>
      <trkpt lat="40.3708060" lon="-3.5218090">
        <ele>655.5</ele>
        <time>2021-04-04T12:28:48Z</time>
      </trkpt>
      <trkpt lat="40.3708700" lon="-3.5217730">
        <ele>655.3</ele>
        <time>2021-04-04T12:28:49Z</time>
      </trkpt>
      <trkpt lat="40.3709220" lon="-3.5217260">
        <ele>655.2</ele>
        <time>2021-04-04T12:28:50Z</time>
      </trkpt>
      <trkpt lat="40.3709840" lon="-3.5216790">
        <ele>655.0</ele>
        <time>2021-04-04T12:28:51Z</time>
      </trkpt>
      <trkpt lat="40.3710410" lon="-3.5216280">
        <ele>654.9</ele>
        <time>2021-04-04T12:28:52Z</time>
      </trkpt>
      <trkpt lat="40.3710930" lon="-3.5215810">
        <ele>654.8</ele>
        <time>2021-04-04T12:28:53Z</time>
      </trkpt>
      <trkpt lat="40.3711440" lon="-3.5215450">
        <ele>654.7</ele>
        <time>2021-04-04T12:28:54Z</time>
      </trkpt>
      <trkpt lat="40.3711970" lon="-3.5214960">
        <ele>654.7</ele>
        <time>2021-04-04T12:28:55Z</time>
      </trkpt>
      <trkpt lat="40.3712430" lon="-3.5214300">
        <ele>654.7</ele>
        <time>2021-04-04T12:28:56Z</time>
      </trkpt>
      <trkpt lat="40.3712890" lon="-3.5213830">
        <ele>654.7</ele>
        <time>2021-04-04T12:28:57Z</time>
      </trkpt>
      <trkpt lat="40.3713310" lon="-3.5213370">
        <ele>654.6</ele>
        <time>2021-04-04T12:28:58Z</time>
      </trkpt>
      <trkpt lat="40.3713800" lon="-3.5213050">
        <ele>654.6</ele>
        <time>2021-04-04T12:28:59Z</time>
      </trkpt>
      <trkpt lat="40.3714170" lon="-3.5212430">
        <ele>654.6</ele>
        <time>2021-04-04T12:29:00Z</time>
      </trkpt>
      <trkpt lat="40.3714530" lon="-3.5211940">
        <ele>654.5</ele>
        <time>2021-04-04T12:29:01Z</time>
      </trkpt>
      <trkpt lat="40.3714920" lon="-3.5211420">
        <ele>654.5</ele>
        <time>2021-04-04T12:29:02Z</time>
      </trkpt>
      <trkpt lat="40.3715330" lon="-3.5211100">
        <ele>654.4</ele>
        <time>2021-04-04T12:29:03Z</time>
      </trkpt>
      <trkpt lat="40.3715640" lon="-3.5210570">
        <ele>654.3</ele>
        <time>2021-04-04T12:29:04Z</time>
      </trkpt>
      <trkpt lat="40.3715900" lon="-3.5209870">
        <ele>654.3</ele>
        <time>2021-04-04T12:29:05Z</time>
      </trkpt>
      <trkpt lat="40.3716160" lon="-3.5209400">
        <ele>654.2</ele>
        <time>2021-04-04T12:29:06Z</time>
      </trkpt>
      <trkpt lat="40.3716380" lon="-3.5208970">
        <ele>654.1</ele>
        <time>2021-04-04T12:29:07Z</time>
      </trkpt>
      <trkpt lat="40.3716780" lon="-3.5208600">
        <ele>654.0</ele>
        <time>2021-04-04T12:29:08Z</time>
      </trkpt>
      <trkpt lat="40.3717090" lon="-3.5208140">
        <ele>653.9</ele>
        <time>2021-04-04T12:29:09Z</time>
      </trkpt>
      <trkpt lat="40.3717240" lon="-3.5207480">
        <ele>653.8</ele>
        <time>2021-04-04T12:29:10Z</time>
      </trkpt>
      <trkpt lat="40.3717680" lon="-3.5207130">
        <ele>653.7</ele>
        <time>2021-04-04T12:29:11Z</time>
      </trkpt>
      <trkpt lat="40.3718050" lon="-3.5206680">
        <ele>653.6</ele>
        <time>2021-04-04T12:29:12Z</time>
      </trkpt>
      <trkpt lat="40.3718470" lon="-3.5206420">
        <ele>653.5</ele>
        <time>2021-04-04T12:29:13Z</time>
      </trkpt>
      <trkpt lat="40.3719100" lon="-3.5206750">
        <ele>653.6</ele>
        <time>2021-04-04T12:29:14Z</time>
      </trkpt>
      <trkpt lat="40.3719710" lon="-3.5206910">
        <ele>653.8</ele>
        <time>2021-04-04T12:29:15Z</time>
      </trkpt>
      <trkpt lat="40.3720430" lon="-3.5207190">
        <ele>654.0</ele>
        <time>2021-04-04T12:29:16Z</time>
      </trkpt>
      <trkpt lat="40.3720790" lon="-3.5207320">
        <ele>654.1</ele>
        <time>2021-04-04T12:29:17Z</time>
      </trkpt>
      <trkpt lat="40.3721160" lon="-3.5207370">
        <ele>654.2</ele>
        <time>2021-04-04T12:29:18Z</time>
      </trkpt>
      <trkpt lat="40.3721630" lon="-3.5207650">
        <ele>654.4</ele>
        <time>2021-04-04T12:29:19Z</time>
      </trkpt>
      <trkpt lat="40.3721860" lon="-3.5207620">
        <ele>654.5</ele>
        <time>2021-04-04T12:29:20Z</time>
      </trkpt>
      <trkpt lat="40.3722030" lon="-3.5207640">
        <ele>654.5</ele>
        <time>2021-04-04T12:29:21Z</time>
      </trkpt>
      <trkpt lat="40.3722310" lon="-3.5207770">
        <ele>654.6</ele>
        <time>2021-04-04T12:29:22Z</time>
      </trkpt>
      <trkpt lat="40.3722440" lon="-3.5207930">
        <ele>654.7</ele>
        <time>2021-04-04T12:29:23Z</time>
      </trkpt>
      <trkpt lat="40.3722760" lon="-3.5208090">
        <ele>654.8</ele>
        <time>2021-04-04T12:29:24Z</time>
      </trkpt>
      <trkpt lat="40.3723190" lon="-3.5208220">
        <ele>654.9</ele>
        <time>2021-04-04T12:29:25Z</time>
      </trkpt>
      <trkpt lat="40.3723480" lon="-3.5208300">
        <ele>654.9</ele>
        <time>2021-04-04T12:29:26Z</time>
      </trkpt>
      <trkpt lat="40.3723920" lon="-3.5208490">
        <ele>655.1</ele>
        <time>2021-04-04T12:29:27Z</time>
      </trkpt>
      <trkpt lat="40.3724280" lon="-3.5208660">
        <ele>655.1</ele>
        <time>2021-04-04T12:29:28Z</time>
      </trkpt>
      <trkpt lat="40.3724690" lon="-3.5208820">
        <ele>655.2</ele>
        <time>2021-04-04T12:29:29Z</time>
      </trkpt>
      <trkpt lat="40.3725130" lon="-3.5208980">
        <ele>655.3</ele>
        <time>2021-04-04T12:29:30Z</time>
      </trkpt>
      <trkpt lat="40.3725580" lon="-3.5209140">
        <ele>655.4</ele>
        <time>2021-04-04T12:29:31Z</time>
      </trkpt>
      <trkpt lat="40.3726040" lon="-3.5209240">
        <ele>655.4</ele>
        <time>2021-04-04T12:29:32Z</time>
      </trkpt>
      <trkpt lat="40.3726560" lon="-3.5209440">
        <ele>655.5</ele>
        <time>2021-04-04T12:29:33Z</time>
      </trkpt>
      <trkpt lat="40.3726910" lon="-3.5209710">
        <ele>655.6</ele>
        <time>2021-04-04T12:29:34Z</time>
      </trkpt>
      <trkpt lat="40.3727440" lon="-3.5209920">
        <ele>655.7</ele>
        <time>2021-04-04T12:29:35Z</time>
      </trkpt>
      <trkpt lat="40.3727820" lon="-3.5210050">
        <ele>655.7</ele>
        <time>2021-04-04T12:29:36Z</time>
      </trkpt>
      <trkpt lat="40.3728240" lon="-3.5209790">
        <ele>655.8</ele>
        <time>2021-04-04T12:29:37Z</time>
      </trkpt>
      <trkpt lat="40.3729200" lon="-3.5209950">
        <ele>655.9</ele>
        <time>2021-04-04T12:29:38Z</time>
      </trkpt>
      <trkpt lat="40.3729450" lon="-3.5209990">
        <ele>655.9</ele>
        <time>2021-04-04T12:29:39Z</time>
      </trkpt>
      <trkpt lat="40.3729700" lon="-3.5210190">
        <ele>656.0</ele>
        <time>2021-04-04T12:29:40Z</time>
      </trkpt>
      <trkpt lat="40.3730170" lon="-3.5210190">
        <ele>656.0</ele>
        <time>2021-04-04T12:29:41Z</time>
      </trkpt>
      <trkpt lat="40.3730770" lon="-3.5210500">
        <ele>656.1</ele>
        <time>2021-04-04T12:29:42Z</time>
      </trkpt>
      <trkpt lat="40.3731210" lon="-3.5211980">
        <ele>656.3</ele>
        <time>2021-04-04T12:29:43Z</time>
      </trkpt>
      <trkpt lat="40.3731520" lon="-3.5211860">
        <ele>656.4</ele>
        <time>2021-04-04T12:29:44Z</time>
      </trkpt>
      <trkpt lat="40.3732120" lon="-3.5212060">
        <ele>656.5</ele>
        <time>2021-04-04T12:29:45Z</time>
      </trkpt>
      <trkpt lat="40.3732560" lon="-3.5212470">
        <ele>656.6</ele>
        <time>2021-04-04T12:29:46Z</time>
      </trkpt>
      <trkpt lat="40.3733060" lon="-3.5212630">
        <ele>656.6</ele>
        <time>2021-04-04T12:29:47Z</time>
      </trkpt>
      <trkpt lat="40.3733550" lon="-3.5212820">
        <ele>656.7</ele>
        <time>2021-04-04T12:29:48Z</time>
      </trkpt>
      <trkpt lat="40.3733880" lon="-3.5212910">
        <ele>656.7</ele>
        <time>2021-04-04T12:29:49Z</time>
      </trkpt>
      <trkpt lat="40.3734150" lon="-3.5213050">
        <ele>656.7</ele>
        <time>2021-04-04T12:29:50Z</time>
      </trkpt>
      <trkpt lat="40.3734540" lon="-3.5213030">
        <ele>656.7</ele>
        <time>2021-04-04T12:29:51Z</time>
      </trkpt>
      <trkpt lat="40.3734970" lon="-3.5213030">
        <ele>656.6</ele>
        <time>2021-04-04T12:29:52Z</time>
      </trkpt>
      <trkpt lat="40.3735280" lon="-3.5212960">
        <ele>656.6</ele>
        <time>2021-04-04T12:29:53Z</time>
      </trkpt>
      <trkpt lat="40.3735740" lon="-3.5212750">
        <ele>656.5</ele>
        <time>2021-04-04T12:29:54Z</time>
      </trkpt>
      <trkpt lat="40.3736260" lon="-3.5212790">
        <ele>656.3</ele>
        <time>2021-04-04T12:29:55Z</time>
      </trkpt>
      <trkpt lat="40.3736710" lon="-3.5212730">
        <ele>656.1</ele>
        <time>2021-04-04T12:29:56Z</time>
      </trkpt>
      <trkpt lat="40.3737310" lon="-3.5212310">
        <ele>655.8</ele>
        <time>2021-04-04T12:29:57Z</time>
      </trkpt>
      <trkpt lat="40.3737980" lon="-3.5212350">
        <ele>655.5</ele>
        <time>2021-04-04T12:29:58Z</time>
      </trkpt>
      <trkpt lat="40.3738620" lon="-3.5212300">
        <ele>655.1</ele>
        <time>2021-04-04T12:29:59Z</time>
      </trkpt>
      <trkpt lat="40.3739340" lon="-3.5212350">
        <ele>654.7</ele>
        <time>2021-04-04T12:30:00Z</time>
      </trkpt>
      <trkpt lat="40.3740040" lon="-3.5212520">
        <ele>654.3</ele>
        <time>2021-04-04T12:30:01Z</time>
      </trkpt>
      <trkpt lat="40.3740780" lon="-3.5212450">
        <ele>653.8</ele>
        <time>2021-04-04T12:30:02Z</time>
      </trkpt>
      <trkpt lat="40.3741410" lon="-3.5212810">
        <ele>653.3</ele>
        <time>2021-04-04T12:30:03Z</time>
      </trkpt>
      <trkpt lat="40.3742150" lon="-3.5212800">
        <ele>652.8</ele>
        <time>2021-04-04T12:30:04Z</time>
      </trkpt>
      <trkpt lat="40.3742850" lon="-3.5212830">
        <ele>652.3</ele>
        <time>2021-04-04T12:30:05Z</time>
      </trkpt>
      <trkpt lat="40.3743670" lon="-3.5212850">
        <ele>651.7</ele>
        <time>2021-04-04T12:30:06Z</time>
      </trkpt>
      <trkpt lat="40.3744560" lon="-3.5213200">
        <ele>651.0</ele>
        <time>2021-04-04T12:30:07Z</time>
      </trkpt>
      <trkpt lat="40.3745390" lon="-3.5213110">
        <ele>650.4</ele>
        <time>2021-04-04T12:30:08Z</time>
      </trkpt>
      <trkpt lat="40.3746120" lon="-3.5212940">
        <ele>649.9</ele>
        <time>2021-04-04T12:30:09Z</time>
      </trkpt>
      <trkpt lat="40.3747170" lon="-3.5213130">
        <ele>649.4</ele>
        <time>2021-04-04T12:30:10Z</time>
      </trkpt>
      <trkpt lat="40.3748020" lon="-3.5213150">
        <ele>649.0</ele>
        <time>2021-04-04T12:30:11Z</time>
      </trkpt>
      <trkpt lat="40.3748780" lon="-3.5213050">
        <ele>648.8</ele>
        <time>2021-04-04T12:30:12Z</time>
      </trkpt>
      <trkpt lat="40.3749560" lon="-3.5213180">
        <ele>648.6</ele>
        <time>2021-04-04T12:30:13Z</time>
      </trkpt>
      <trkpt lat="40.3750560" lon="-3.5213040">
        <ele>648.6</ele>
        <time>2021-04-04T12:30:14Z</time>
      </trkpt>
      <trkpt lat="40.3751170" lon="-3.5212990">
        <ele>648.5</ele>
        <time>2021-04-04T12:30:15Z</time>
      </trkpt>
      <trkpt lat="40.3751760" lon="-3.5213270">
        <ele>648.5</ele>
        <time>2021-04-04T12:30:16Z</time>
      </trkpt>
      <trkpt lat="40.3752340" lon="-3.5213590">
        <ele>648.6</ele>
        <time>2021-04-04T12:30:17Z</time>
      </trkpt>
      <trkpt lat="40.3753140" lon="-3.5213940">
        <ele>648.6</ele>
        <time>2021-04-04T12:30:18Z</time>
      </trkpt>
      <trkpt lat="40.3753740" lon="-3.5214060">
        <ele>648.6</ele>
        <time>2021-04-04T12:30:19Z</time>
      </trkpt>
      <trkpt lat="40.3754170" lon="-3.5213900">
        <ele>648.7</ele>
        <time>2021-04-04T12:30:20Z</time>
      </trkpt>
      <trkpt lat="40.3754730" lon="-3.5214010">
        <ele>648.7</ele>
        <time>2021-04-04T12:30:21Z</time>
      </trkpt>
      <trkpt lat="40.3755360" lon="-3.5214350">
        <ele>648.8</ele>
        <time>2021-04-04T12:30:22Z</time>
      </trkpt>
      <trkpt lat="40.3755790" lon="-3.5214430">
        <ele>648.9</ele>
        <time>2021-04-04T12:30:23Z</time>
      </trkpt>
      <trkpt lat="40.3756410" lon="-3.5214750">
        <ele>649.1</ele>
        <time>2021-04-04T12:30:24Z</time>
      </trkpt>
      <trkpt lat="40.3757110" lon="-3.5214950">
        <ele>649.2</ele>
        <time>2021-04-04T12:30:25Z</time>
      </trkpt>
      <trkpt lat="40.3757670" lon="-3.5215590">
        <ele>649.4</ele>
        <time>2021-04-04T12:30:26Z</time>
      </trkpt>
      <trkpt lat="40.3758480" lon="-3.5215890">
        <ele>649.6</ele>
        <time>2021-04-04T12:30:27Z</time>
      </trkpt>
      <trkpt lat="40.3758970" lon="-3.5216460">
        <ele>649.7</ele>
        <time>2021-04-04T12:30:28Z</time>
      </trkpt>
      <trkpt lat="40.3759530" lon="-3.5217110">
        <ele>650.0</ele>
        <time>2021-04-04T12:30:29Z</time>
      </trkpt>
      <trkpt lat="40.3760560" lon="-3.5217650">
        <ele>650.3</ele>
        <time>2021-04-04T12:30:30Z</time>
      </trkpt>
      <trkpt lat="40.3761130" lon="-3.5218260">
        <ele>650.6</ele>
        <time>2021-04-04T12:30:31Z</time>
      </trkpt>
      <trkpt lat="40.3760800" lon="-3.5218890">
        <ele>650.8</ele>
        <time>2021-04-04T12:30:32Z</time>
      </trkpt>
      <trkpt lat="40.3761010" lon="-3.5219650">
        <ele>651.0</ele>
        <time>2021-04-04T12:30:33Z</time>
      </trkpt>
      <trkpt lat="40.3760530" lon="-3.5220270">
        <ele>651.2</ele>
        <time>2021-04-04T12:30:34Z</time>
      </trkpt>
      <trkpt lat="40.3759990" lon="-3.5221220">
        <ele>651.4</ele>
        <time>2021-04-04T12:30:35Z</time>
      </trkpt>
      <trkpt lat="40.3759940" lon="-3.5221880">
        <ele>651.6</ele>
        <time>2021-04-04T12:30:36Z</time>
      </trkpt>
      <trkpt lat="40.3759650" lon="-3.5222530">
        <ele>651.7</ele>
        <time>2021-04-04T12:30:37Z</time>
      </trkpt>
      <trkpt lat="40.3759690" lon="-3.5223490">
        <ele>651.9</ele>
        <time>2021-04-04T12:30:38Z</time>
      </trkpt>
      <trkpt lat="40.3759280" lon="-3.5224130">
        <ele>652.1</ele>
        <time>2021-04-04T12:30:39Z</time>
      </trkpt>
      <trkpt lat="40.3759290" lon="-3.5224770">
        <ele>652.2</ele>
        <time>2021-04-04T12:30:40Z</time>
      </trkpt>
      <trkpt lat="40.3758910" lon="-3.5225360">
        <ele>652.4</ele>
        <time>2021-04-04T12:30:41Z</time>
      </trkpt>
      <trkpt lat="40.3758880" lon="-3.5225910">
        <ele>652.4</ele>
        <time>2021-04-04T12:30:42Z</time>
      </trkpt>
      <trkpt lat="40.3758650" lon="-3.5226450">
        <ele>652.5</ele>
        <time>2021-04-04T12:30:43Z</time>
      </trkpt>
      <trkpt lat="40.3758430" lon="-3.5227070">
        <ele>652.6</ele>
        <time>2021-04-04T12:30:44Z</time>
      </trkpt>
      <trkpt lat="40.3758410" lon="-3.5227760">
        <ele>652.7</ele>
        <time>2021-04-04T12:30:45Z</time>
      </trkpt>
      <trkpt lat="40.3758540" lon="-3.5228530">
        <ele>652.7</ele>
        <time>2021-04-04T12:30:46Z</time>
      </trkpt>
      <trkpt lat="40.3758450" lon="-3.5229330">
        <ele>652.7</ele>
        <time>2021-04-04T12:30:47Z</time>
      </trkpt>
      <trkpt lat="40.3758180" lon="-3.5229960">
        <ele>652.6</ele>
        <time>2021-04-04T12:30:48Z</time>
      </trkpt>
      <trkpt lat="40.3758070" lon="-3.5230700">
        <ele>652.6</ele>
        <time>2021-04-04T12:30:49Z</time>
      </trkpt>
      <trkpt lat="40.3758050" lon="-3.5231460">
        <ele>652.6</ele>
        <time>2021-04-04T12:30:50Z</time>
      </trkpt>
      <trkpt lat="40.3757950" lon="-3.5232350">
        <ele>652.6</ele>
        <time>2021-04-04T12:30:51Z</time>
      </trkpt>
      <trkpt lat="40.3758230" lon="-3.5232740">
        <ele>652.6</ele>
        <time>2021-04-04T12:30:52Z</time>
      </trkpt>
      <trkpt lat="40.3758680" lon="-3.5233450">
        <ele>652.6</ele>
        <time>2021-04-04T12:30:53Z</time>
      </trkpt>
      <trkpt lat="40.3759050" lon="-3.5233190">
        <ele>652.6</ele>
        <time>2021-04-04T12:30:54Z</time>
      </trkpt>
      <trkpt lat="40.3759450" lon="-3.5233260">
        <ele>652.7</ele>
        <time>2021-04-04T12:30:55Z</time>
      </trkpt>
      <trkpt lat="40.3759840" lon="-3.5233460">
        <ele>652.7</ele>
        <time>2021-04-04T12:30:56Z</time>
      </trkpt>
      <trkpt lat="40.3760050" lon="-3.5233840">
        <ele>652.7</ele>
        <time>2021-04-04T12:30:57Z</time>
      </trkpt>
      <trkpt lat="40.3760000" lon="-3.5234430">
        <ele>652.7</ele>
        <time>2021-04-04T12:30:58Z</time>
      </trkpt>
      <trkpt lat="40.3760090" lon="-3.5235130">
        <ele>652.8</ele>
        <time>2021-04-04T12:30:59Z</time>
      </trkpt>
      <trkpt lat="40.3760110" lon="-3.5235640">
        <ele>652.9</ele>
        <time>2021-04-04T12:31:00Z</time>
      </trkpt>
      <trkpt lat="40.3759810" lon="-3.5236160">
        <ele>653.0</ele>
        <time>2021-04-04T12:31:01Z</time>
      </trkpt>
      <trkpt lat="40.3759590" lon="-3.5236760">
        <ele>653.0</ele>
        <time>2021-04-04T12:31:02Z</time>
      </trkpt>
      <trkpt lat="40.3759500" lon="-3.5237460">
        <ele>653.1</ele>
        <time>2021-04-04T12:31:03Z</time>
      </trkpt>
      <trkpt lat="40.3759620" lon="-3.5238270">
        <ele>653.2</ele>
        <time>2021-04-04T12:31:04Z</time>
      </trkpt>
      <trkpt lat="40.3759630" lon="-3.5238910">
        <ele>653.3</ele>
        <time>2021-04-04T12:31:05Z</time>
      </trkpt>
      <trkpt lat="40.3759700" lon="-3.5240480">
        <ele>653.4</ele>
        <time>2021-04-04T12:31:06Z</time>
      </trkpt>
      <trkpt lat="40.3759750" lon="-3.5241240">
        <ele>653.5</ele>
        <time>2021-04-04T12:31:07Z</time>
      </trkpt>
      <trkpt lat="40.3759700" lon="-3.5242040">
        <ele>653.5</ele>
        <time>2021-04-04T12:31:08Z</time>
      </trkpt>
      <trkpt lat="40.3759320" lon="-3.5242570">
        <ele>653.5</ele>
        <time>2021-04-04T12:31:09Z</time>
      </trkpt>
      <trkpt lat="40.3759270" lon="-3.5243360">
        <ele>653.5</ele>
        <time>2021-04-04T12:31:10Z</time>
      </trkpt>
      <trkpt lat="40.3758870" lon="-3.5244110">
        <ele>653.5</ele>
        <time>2021-04-04T12:31:11Z</time>
      </trkpt>
      <trkpt lat="40.3759180" lon="-3.5244920">
        <ele>653.4</ele>
        <time>2021-04-04T12:31:12Z</time>
      </trkpt>
      <trkpt lat="40.3759280" lon="-3.5245820">
        <ele>653.4</ele>
        <time>2021-04-04T12:31:13Z</time>
      </trkpt>
      <trkpt lat="40.3759160" lon="-3.5246520">
        <ele>653.4</ele>
        <time>2021-04-04T12:31:14Z</time>
      </trkpt>
      <trkpt lat="40.3758880" lon="-3.5247440">
        <ele>653.4</ele>
        <time>2021-04-04T12:31:15Z</time>
      </trkpt>
      <trkpt lat="40.3758900" lon="-3.5248330">
        <ele>653.3</ele>
        <time>2021-04-04T12:31:16Z</time>
      </trkpt>
      <trkpt lat="40.3758870" lon="-3.5249200">
        <ele>653.2</ele>
        <time>2021-04-04T12:31:17Z</time>
      </trkpt>
      <trkpt lat="40.3758530" lon="-3.5250150">
        <ele>653.1</ele>
        <time>2021-04-04T12:31:18Z</time>
      </trkpt>
      <trkpt lat="40.3758340" lon="-3.5251140">
        <ele>652.9</ele>
        <time>2021-04-04T12:31:19Z</time>
      </trkpt>
      <trkpt lat="40.3758210" lon="-3.5252110">
        <ele>652.8</ele>
        <time>2021-04-04T12:31:20Z</time>
      </trkpt>
      <trkpt lat="40.3758240" lon="-3.5253050">
        <ele>652.7</ele>
        <time>2021-04-04T12:31:21Z</time>
      </trkpt>
      <trkpt lat="40.3758130" lon="-3.5254080">
        <ele>652.5</ele>
        <time>2021-04-04T12:31:22Z</time>
      </trkpt>
      <trkpt lat="40.3758120" lon="-3.5255160">
        <ele>652.3</ele>
        <time>2021-04-04T12:31:23Z</time>
      </trkpt>
      <trkpt lat="40.3758030" lon="-3.5256280">
        <ele>652.0</ele>
        <time>2021-04-04T12:31:24Z</time>
      </trkpt>
      <trkpt lat="40.3757720" lon="-3.5257470">
        <ele>651.7</ele>
        <time>2021-04-04T12:31:25Z</time>
      </trkpt>
      <trkpt lat="40.3757700" lon="-3.5258580">
        <ele>651.4</ele>
        <time>2021-04-04T12:31:26Z</time>
      </trkpt>
      <trkpt lat="40.3757740" lon="-3.5259760">
        <ele>651.0</ele>
        <time>2021-04-04T12:31:27Z</time>
      </trkpt>
      <trkpt lat="40.3757580" lon="-3.5261000">
        <ele>650.6</ele>
        <time>2021-04-04T12:31:28Z</time>
      </trkpt>
      <trkpt lat="40.3757570" lon="-3.5262220">
        <ele>650.2</ele>
        <time>2021-04-04T12:31:29Z</time>
      </trkpt>
      <trkpt lat="40.3757570" lon="-3.5263530">
        <ele>649.8</ele>
        <time>2021-04-04T12:31:30Z</time>
      </trkpt>
      <trkpt lat="40.3757530" lon="-3.5264830">
        <ele>649.4</ele>
        <time>2021-04-04T12:31:31Z</time>
      </trkpt>
      <trkpt lat="40.3757530" lon="-3.5266080">
        <ele>649.0</ele>
        <time>2021-04-04T12:31:32Z</time>
      </trkpt>
      <trkpt lat="40.3757380" lon="-3.5267400">
        <ele>648.7</ele>
        <time>2021-04-04T12:31:33Z</time>
      </trkpt>
      <trkpt lat="40.3757370" lon="-3.5268740">
        <ele>648.3</ele>
        <time>2021-04-04T12:31:34Z</time>
      </trkpt>
      <trkpt lat="40.3757250" lon="-3.5270090">
        <ele>648.1</ele>
        <time>2021-04-04T12:31:35Z</time>
      </trkpt>
      <trkpt lat="40.3757180" lon="-3.5271480">
        <ele>647.9</ele>
        <time>2021-04-04T12:31:36Z</time>
      </trkpt>
      <trkpt lat="40.3757220" lon="-3.5272860">
        <ele>647.8</ele>
        <time>2021-04-04T12:31:37Z</time>
      </trkpt>
      <trkpt lat="40.3757000" lon="-3.5274120">
        <ele>647.7</ele>
        <time>2021-04-04T12:31:38Z</time>
      </trkpt>
      <trkpt lat="40.3756950" lon="-3.5275540">
        <ele>647.6</ele>
        <time>2021-04-04T12:31:39Z</time>
      </trkpt>
      <trkpt lat="40.3756700" lon="-3.5276740">
        <ele>647.6</ele>
        <time>2021-04-04T12:31:40Z</time>
      </trkpt>
      <trkpt lat="40.3756700" lon="-3.5277950">
        <ele>647.6</ele>
        <time>2021-04-04T12:31:41Z</time>
      </trkpt>
      <trkpt lat="40.3756380" lon="-3.5279410">
        <ele>647.6</ele>
        <time>2021-04-04T12:31:42Z</time>
      </trkpt>
      <trkpt lat="40.3756250" lon="-3.5280540">
        <ele>647.7</ele>
        <time>2021-04-04T12:31:43Z</time>
      </trkpt>
      <trkpt lat="40.3756190" lon="-3.5281850">
        <ele>647.7</ele>
        <time>2021-04-04T12:31:44Z</time>
      </trkpt>
      <trkpt lat="40.3756340" lon="-3.5283180">
        <ele>647.6</ele>
        <time>2021-04-04T12:31:45Z</time>
      </trkpt>
      <trkpt lat="40.3756430" lon="-3.5284340">
        <ele>647.6</ele>
        <time>2021-04-04T12:31:46Z</time>
      </trkpt>
      <trkpt lat="40.3756540" lon="-3.5285500">
        <ele>647.6</ele>
        <time>2021-04-04T12:31:47Z</time>
      </trkpt>
      <trkpt lat="40.3756390" lon="-3.5286770">
        <ele>647.5</ele>
        <time>2021-04-04T12:31:48Z</time>
      </trkpt>
      <trkpt lat="40.3756200" lon="-3.5287910">
        <ele>647.5</ele>
        <time>2021-04-04T12:31:49Z</time>
      </trkpt>
      <trkpt lat="40.3755970" lon="-3.5289120">
        <ele>647.4</ele>
        <time>2021-04-04T12:31:50Z</time>
      </trkpt>
      <trkpt lat="40.3755570" lon="-3.5290330">
        <ele>647.3</ele>
        <time>2021-04-04T12:31:51Z</time>
      </trkpt>
      <trkpt lat="40.3755480" lon="-3.5291540">
        <ele>647.3</ele>
        <time>2021-04-04T12:31:52Z</time>
      </trkpt>
      <trkpt lat="40.3755310" lon="-3.5292760">
        <ele>647.2</ele>
        <time>2021-04-04T12:31:53Z</time>
      </trkpt>
      <trkpt lat="40.3755200" lon="-3.5293870">
        <ele>647.1</ele>
        <time>2021-04-04T12:31:54Z</time>
      </trkpt>
      <trkpt lat="40.3755310" lon="-3.5295130">
        <ele>647.0</ele>
        <time>2021-04-04T12:31:55Z</time>
      </trkpt>
      <trkpt lat="40.3755260" lon="-3.5296460">
        <ele>646.9</ele>
        <time>2021-04-04T12:31:56Z</time>
      </trkpt>
      <trkpt lat="40.3755150" lon="-3.5297710">
        <ele>646.8</ele>
        <time>2021-04-04T12:31:57Z</time>
      </trkpt>
      <trkpt lat="40.3755050" lon="-3.5298980">
        <ele>646.7</ele>
        <time>2021-04-04T12:31:58Z</time>
      </trkpt>
      <trkpt lat="40.3754930" lon="-3.5300240">
        <ele>646.6</ele>
        <time>2021-04-04T12:31:59Z</time>
      </trkpt>
      <trkpt lat="40.3754870" lon="-3.5301420">
        <ele>646.4</ele>
        <time>2021-04-04T12:32:00Z</time>
      </trkpt>
      <trkpt lat="40.3754810" lon="-3.5302630">
        <ele>646.3</ele>
        <time>2021-04-04T12:32:01Z</time>
      </trkpt>
      <trkpt lat="40.3754780" lon="-3.5303830">
        <ele>646.1</ele>
        <time>2021-04-04T12:32:02Z</time>
      </trkpt>
      <trkpt lat="40.3754470" lon="-3.5304970">
        <ele>646.1</ele>
        <time>2021-04-04T12:32:03Z</time>
      </trkpt>
      <trkpt lat="40.3754720" lon="-3.5306090">
        <ele>646.1</ele>
        <time>2021-04-04T12:32:04Z</time>
      </trkpt>
      <trkpt lat="40.3754000" lon="-3.5307080">
        <ele>645.9</ele>
        <time>2021-04-04T12:32:05Z</time>
      </trkpt>
      <trkpt lat="40.3754060" lon="-3.5308300">
        <ele>645.7</ele>
        <time>2021-04-04T12:32:06Z</time>
      </trkpt>
      <trkpt lat="40.3754150" lon="-3.5309640">
        <ele>645.5</ele>
        <time>2021-04-04T12:32:07Z</time>
      </trkpt>
      <trkpt lat="40.3754050" lon="-3.5310810">
        <ele>645.3</ele>
        <time>2021-04-04T12:32:08Z</time>
      </trkpt>
      <trkpt lat="40.3753870" lon="-3.5311980">
        <ele>645.2</ele>
        <time>2021-04-04T12:32:09Z</time>
      </trkpt>
      <trkpt lat="40.3753460" lon="-3.5312770">
        <ele>645.1</ele>
        <time>2021-04-04T12:32:10Z</time>
      </trkpt>
      <trkpt lat="40.3753270" lon="-3.5313770">
        <ele>644.9</ele>
        <time>2021-04-04T12:32:11Z</time>
      </trkpt>
      <trkpt lat="40.3753270" lon="-3.5314950">
        <ele>644.8</ele>
        <time>2021-04-04T12:32:12Z</time>
      </trkpt>
      <trkpt lat="40.3753320" lon="-3.5316080">
        <ele>644.6</ele>
        <time>2021-04-04T12:32:13Z</time>
      </trkpt>
      <trkpt lat="40.3753350" lon="-3.5317050">
        <ele>644.5</ele>
        <time>2021-04-04T12:32:14Z</time>
      </trkpt>
      <trkpt lat="40.3753260" lon="-3.5318050">
        <ele>644.4</ele>
        <time>2021-04-04T12:32:15Z</time>
      </trkpt>
      <trkpt lat="40.3753360" lon="-3.5319330">
        <ele>644.3</ele>
        <time>2021-04-04T12:32:16Z</time>
      </trkpt>
      <trkpt lat="40.3753100" lon="-3.5320270">
        <ele>644.2</ele>
        <time>2021-04-04T12:32:17Z</time>
      </trkpt>
      <trkpt lat="40.3752920" lon="-3.5321140">
        <ele>644.1</ele>
        <time>2021-04-04T12:32:18Z</time>
      </trkpt>
      <trkpt lat="40.3753240" lon="-3.5321830">
        <ele>644.0</ele>
        <time>2021-04-04T12:32:19Z</time>
      </trkpt>
      <trkpt lat="40.3753640" lon="-3.5322510">
        <ele>643.8</ele>
        <time>2021-04-04T12:32:20Z</time>
      </trkpt>
      <trkpt lat="40.3754110" lon="-3.5323410">
        <ele>643.7</ele>
        <time>2021-04-04T12:32:21Z</time>
      </trkpt>
      <trkpt lat="40.3754520" lon="-3.5324040">
        <ele>643.6</ele>
        <time>2021-04-04T12:32:22Z</time>
      </trkpt>
      <trkpt lat="40.3754780" lon="-3.5324780">
        <ele>643.6</ele>
        <time>2021-04-04T12:32:23Z</time>
      </trkpt>
      <trkpt lat="40.3755680" lon="-3.5325070">
        <ele>643.4</ele>
        <time>2021-04-04T12:32:24Z</time>
      </trkpt>
      <trkpt lat="40.3756350" lon="-3.5325150">
        <ele>643.3</ele>
        <time>2021-04-04T12:32:25Z</time>
      </trkpt>
      <trkpt lat="40.3757010" lon="-3.5325000">
        <ele>643.2</ele>
        <time>2021-04-04T12:32:26Z</time>
      </trkpt>
      <trkpt lat="40.3757550" lon="-3.5325080">
        <ele>643.1</ele>
        <time>2021-04-04T12:32:27Z</time>
      </trkpt>
      <trkpt lat="40.3758400" lon="-3.5325450">
        <ele>643.0</ele>
        <time>2021-04-04T12:32:28Z</time>
      </trkpt>
      <trkpt lat="40.3758930" lon="-3.5325440">
        <ele>642.9</ele>
        <time>2021-04-04T12:32:29Z</time>
      </trkpt>
      <trkpt lat="40.3759450" lon="-3.5325510">
        <ele>642.8</ele>
        <time>2021-04-04T12:32:30Z</time>
      </trkpt>
      <trkpt lat="40.3760050" lon="-3.5325450">
        <ele>642.8</ele>
        <time>2021-04-04T12:32:31Z</time>
      </trkpt>
      <trkpt lat="40.3760960" lon="-3.5325640">
        <ele>642.7</ele>
        <time>2021-04-04T12:32:32Z</time>
      </trkpt>
      <trkpt lat="40.3761810" lon="-3.5325710">
        <ele>642.6</ele>
        <time>2021-04-04T12:32:33Z</time>
      </trkpt>
      <trkpt lat="40.3762920" lon="-3.5326050">
        <ele>642.6</ele>
        <time>2021-04-04T12:32:34Z</time>
      </trkpt>
      <trkpt lat="40.3763990" lon="-3.5326390">
        <ele>642.6</ele>
        <time>2021-04-04T12:32:35Z</time>
      </trkpt>
      <trkpt lat="40.3764690" lon="-3.5326380">
        <ele>642.6</ele>
        <time>2021-04-04T12:32:36Z</time>
      </trkpt>
      <trkpt lat="40.3765370" lon="-3.5326570">
        <ele>642.6</ele>
        <time>2021-04-04T12:32:37Z</time>
      </trkpt>
      <trkpt lat="40.3766160" lon="-3.5326680">
        <ele>642.6</ele>
        <time>2021-04-04T12:32:38Z</time>
      </trkpt>
      <trkpt lat="40.3766870" lon="-3.5326580">
        <ele>642.6</ele>
        <time>2021-04-04T12:32:39Z</time>
      </trkpt>
      <trkpt lat="40.3767700" lon="-3.5326770">
        <ele>642.6</ele>
        <time>2021-04-04T12:32:40Z</time>
      </trkpt>
      <trkpt lat="40.3768520" lon="-3.5326710">
        <ele>642.7</ele>
        <time>2021-04-04T12:32:41Z</time>
      </trkpt>
      <trkpt lat="40.3769390" lon="-3.5326840">
        <ele>642.7</ele>
        <time>2021-04-04T12:32:42Z</time>
      </trkpt>
      <trkpt lat="40.3770120" lon="-3.5326810">
        <ele>642.8</ele>
        <time>2021-04-04T12:32:43Z</time>
      </trkpt>
      <trkpt lat="40.3770960" lon="-3.5326820">
        <ele>642.9</ele>
        <time>2021-04-04T12:32:44Z</time>
      </trkpt>
      <trkpt lat="40.3771760" lon="-3.5326830">
        <ele>642.9</ele>
        <time>2021-04-04T12:32:45Z</time>
      </trkpt>
      <trkpt lat="40.3772450" lon="-3.5326850">
        <ele>643.0</ele>
        <time>2021-04-04T12:32:46Z</time>
      </trkpt>
      <trkpt lat="40.3773260" lon="-3.5326850">
        <ele>643.0</ele>
        <time>2021-04-04T12:32:47Z</time>
      </trkpt>
      <trkpt lat="40.3774140" lon="-3.5327190">
        <ele>643.1</ele>
        <time>2021-04-04T12:32:48Z</time>
      </trkpt>
      <trkpt lat="40.3774950" lon="-3.5327220">
        <ele>643.1</ele>
        <time>2021-04-04T12:32:49Z</time>
      </trkpt>
      <trkpt lat="40.3775520" lon="-3.5327270">
        <ele>643.1</ele>
        <time>2021-04-04T12:32:50Z</time>
      </trkpt>
      <trkpt lat="40.3776590" lon="-3.5327560">
        <ele>643.1</ele>
        <time>2021-04-04T12:32:51Z</time>
      </trkpt>
      <trkpt lat="40.3777590" lon="-3.5327720">
        <ele>643.1</ele>
        <time>2021-04-04T12:32:52Z</time>
      </trkpt>
      <trkpt lat="40.3778600" lon="-3.5328050">
        <ele>642.9</ele>
        <time>2021-04-04T12:32:53Z</time>
      </trkpt>
      <trkpt lat="40.3779410" lon="-3.5328160">
        <ele>642.8</ele>
        <time>2021-04-04T12:32:54Z</time>
      </trkpt>
      <trkpt lat="40.3780320" lon="-3.5328240">
        <ele>642.7</ele>
        <time>2021-04-04T12:32:55Z</time>
      </trkpt>
      <trkpt lat="40.3781130" lon="-3.5328350">
        <ele>642.5</ele>
        <time>2021-04-04T12:32:56Z</time>
      </trkpt>
      <trkpt lat="40.3781810" lon="-3.5328340">
        <ele>642.4</ele>
        <time>2021-04-04T12:32:57Z</time>
      </trkpt>
      <trkpt lat="40.3782660" lon="-3.5328540">
        <ele>642.2</ele>
        <time>2021-04-04T12:32:58Z</time>
      </trkpt>
      <trkpt lat="40.3783490" lon="-3.5328510">
        <ele>642.1</ele>
        <time>2021-04-04T12:32:59Z</time>
      </trkpt>
      <trkpt lat="40.3784380" lon="-3.5328700">
        <ele>641.9</ele>
        <time>2021-04-04T12:33:00Z</time>
      </trkpt>
      <trkpt lat="40.3785310" lon="-3.5328600">
        <ele>641.7</ele>
        <time>2021-04-04T12:33:01Z</time>
      </trkpt>
      <trkpt lat="40.3786160" lon="-3.5328910">
        <ele>641.4</ele>
        <time>2021-04-04T12:33:02Z</time>
      </trkpt>
      <trkpt lat="40.3787270" lon="-3.5329350">
        <ele>641.0</ele>
        <time>2021-04-04T12:33:03Z</time>
      </trkpt>
      <trkpt lat="40.3787980" lon="-3.5329240">
        <ele>640.7</ele>
        <time>2021-04-04T12:33:04Z</time>
      </trkpt>
      <trkpt lat="40.3788820" lon="-3.5329440">
        <ele>640.5</ele>
        <time>2021-04-04T12:33:05Z</time>
      </trkpt>
      <trkpt lat="40.3789790" lon="-3.5329210">
        <ele>640.3</ele>
        <time>2021-04-04T12:33:06Z</time>
      </trkpt>
      <trkpt lat="40.3790790" lon="-3.5329790">
        <ele>640.0</ele>
        <time>2021-04-04T12:33:07Z</time>
      </trkpt>
      <trkpt lat="40.3791670" lon="-3.5330170">
        <ele>639.9</ele>
        <time>2021-04-04T12:33:08Z</time>
      </trkpt>
      <trkpt lat="40.3791980" lon="-3.5329490">
        <ele>639.8</ele>
        <time>2021-04-04T12:33:09Z</time>
      </trkpt>
      <trkpt lat="40.3792590" lon="-3.5329540">
        <ele>639.8</ele>
        <time>2021-04-04T12:33:10Z</time>
      </trkpt>
      <trkpt lat="40.3792480" lon="-3.5328460">
        <ele>639.8</ele>
        <time>2021-04-04T12:33:11Z</time>
      </trkpt>
      <trkpt lat="40.3792830" lon="-3.5327940">
        <ele>639.8</ele>
        <time>2021-04-04T12:33:13Z</time>
      </trkpt>
      <trkpt lat="40.3793000" lon="-3.5327530">
        <ele>639.7</ele>
        <time>2021-04-04T12:33:14Z</time>
      </trkpt>
      <trkpt lat="40.3793270" lon="-3.5327260">
        <ele>639.7</ele>
        <time>2021-04-04T12:33:15Z</time>
      </trkpt>
      <trkpt lat="40.3793350" lon="-3.5326890">
        <ele>639.7</ele>
        <time>2021-04-04T12:33:16Z</time>
      </trkpt>
      <trkpt lat="40.3793840" lon="-3.5326870">
        <ele>639.7</ele>
        <time>2021-04-04T12:33:17Z</time>
      </trkpt>
      <trkpt lat="40.3794280" lon="-3.5327040">
        <ele>639.6</ele>
        <time>2021-04-04T12:33:18Z</time>
      </trkpt>
      <trkpt lat="40.3795170" lon="-3.5327790">
        <ele>639.6</ele>
        <time>2021-04-04T12:33:19Z</time>
      </trkpt>
      <trkpt lat="40.3795240" lon="-3.5328210">
        <ele>639.5</ele>
        <time>2021-04-04T12:33:20Z</time>
      </trkpt>
      <trkpt lat="40.3796850" lon="-3.5328940">
        <ele>639.4</ele>
        <time>2021-04-04T12:33:21Z</time>
      </trkpt>
      <trkpt lat="40.3797130" lon="-3.5329290">
        <ele>639.4</ele>
        <time>2021-04-04T12:33:22Z</time>
      </trkpt>
      <trkpt lat="40.3797550" lon="-3.5329680">
        <ele>639.4</ele>
        <time>2021-04-04T12:33:23Z</time>
      </trkpt>
      <trkpt lat="40.3798400" lon="-3.5329720">
        <ele>639.3</ele>
        <time>2021-04-04T12:33:24Z</time>
      </trkpt>
      <trkpt lat="40.3798970" lon="-3.5329810">
        <ele>639.3</ele>
        <time>2021-04-04T12:33:25Z</time>
      </trkpt>
      <trkpt lat="40.3799410" lon="-3.5329840">
        <ele>639.3</ele>
        <time>2021-04-04T12:33:26Z</time>
      </trkpt>
      <trkpt lat="40.3800640" lon="-3.5329890">
        <ele>639.4</ele>
        <time>2021-04-04T12:33:27Z</time>
      </trkpt>
      <trkpt lat="40.3801140" lon="-3.5329380">
        <ele>639.5</ele>
        <time>2021-04-04T12:33:28Z</time>
      </trkpt>
      <trkpt lat="40.3802370" lon="-3.5329420">
        <ele>639.6</ele>
        <time>2021-04-04T12:33:29Z</time>
      </trkpt>
      <trkpt lat="40.3803380" lon="-3.5329590">
        <ele>639.7</ele>
        <time>2021-04-04T12:33:30Z</time>
      </trkpt>
      <trkpt lat="40.3804110" lon="-3.5329310">
        <ele>639.7</ele>
        <time>2021-04-04T12:33:31Z</time>
      </trkpt>
      <trkpt lat="40.3805200" lon="-3.5330820">
        <ele>639.9</ele>
        <time>2021-04-04T12:33:32Z</time>
      </trkpt>
      <trkpt lat="40.3805810" lon="-3.5330990">
        <ele>639.9</ele>
        <time>2021-04-04T12:33:33Z</time>
      </trkpt>
      <trkpt lat="40.3806270" lon="-3.5330970">
        <ele>640.0</ele>
        <time>2021-04-04T12:33:34Z</time>
      </trkpt>
      <trkpt lat="40.3806860" lon="-3.5330910">
        <ele>640.0</ele>
        <time>2021-04-04T12:33:35Z</time>
      </trkpt>
      <trkpt lat="40.3807580" lon="-3.5331070">
        <ele>640.1</ele>
        <time>2021-04-04T12:33:36Z</time>
      </trkpt>
      <trkpt lat="40.3808480" lon="-3.5331080">
        <ele>640.2</ele>
        <time>2021-04-04T12:33:37Z</time>
      </trkpt>
      <trkpt lat="40.3809000" lon="-3.5331000">
        <ele>640.2</ele>
        <time>2021-04-04T12:33:38Z</time>
      </trkpt>
      <trkpt lat="40.3809630" lon="-3.5331140">
        <ele>640.3</ele>
        <time>2021-04-04T12:33:39Z</time>
      </trkpt>
      <trkpt lat="40.3810280" lon="-3.5331010">
        <ele>640.4</ele>
        <time>2021-04-04T12:33:40Z</time>
      </trkpt>
      <trkpt lat="40.3810670" lon="-3.5330700">
        <ele>640.4</ele>
        <time>2021-04-04T12:33:41Z</time>
      </trkpt>
      <trkpt lat="40.3811210" lon="-3.5330380">
        <ele>640.5</ele>
        <time>2021-04-04T12:33:42Z</time>
      </trkpt>
      <trkpt lat="40.3811840" lon="-3.5330080">
        <ele>640.5</ele>
        <time>2021-04-04T12:33:43Z</time>
      </trkpt>
      <trkpt lat="40.3812400" lon="-3.5329830">
        <ele>640.6</ele>
        <time>2021-04-04T12:33:44Z</time>
      </trkpt>
      <trkpt lat="40.3812920" lon="-3.5329600">
        <ele>640.6</ele>
        <time>2021-04-04T12:33:45Z</time>
      </trkpt>
      <trkpt lat="40.3813520" lon="-3.5329300">
        <ele>640.7</ele>
        <time>2021-04-04T12:33:46Z</time>
      </trkpt>
      <trkpt lat="40.3814080" lon="-3.5329170">
        <ele>640.7</ele>
        <time>2021-04-04T12:33:47Z</time>
      </trkpt>
      <trkpt lat="40.3814740" lon="-3.5328770">
        <ele>640.8</ele>
        <time>2021-04-04T12:33:48Z</time>
      </trkpt>
      <trkpt lat="40.3815330" lon="-3.5328500">
        <ele>640.9</ele>
        <time>2021-04-04T12:33:49Z</time>
      </trkpt>
      <trkpt lat="40.3815680" lon="-3.5328020">
        <ele>640.9</ele>
        <time>2021-04-04T12:33:50Z</time>
      </trkpt>
      <trkpt lat="40.3816260" lon="-3.5327610">
        <ele>641.0</ele>
        <time>2021-04-04T12:33:51Z</time>
      </trkpt>
      <trkpt lat="40.3816710" lon="-3.5326960">
        <ele>641.0</ele>
        <time>2021-04-04T12:33:52Z</time>
      </trkpt>
      <trkpt lat="40.3817450" lon="-3.5326770">
        <ele>641.1</ele>
        <time>2021-04-04T12:33:53Z</time>
      </trkpt>
      <trkpt lat="40.3818000" lon="-3.5326410">
        <ele>641.1</ele>
        <time>2021-04-04T12:33:54Z</time>
      </trkpt>
      <trkpt lat="40.3818540" lon="-3.5326000">
        <ele>641.2</ele>
        <time>2021-04-04T12:33:55Z</time>
      </trkpt>
      <trkpt lat="40.3819090" lon="-3.5325610">
        <ele>641.3</ele>
        <time>2021-04-04T12:33:56Z</time>
      </trkpt>
      <trkpt lat="40.3819640" lon="-3.5325150">
        <ele>641.3</ele>
        <time>2021-04-04T12:33:57Z</time>
      </trkpt>
      <trkpt lat="40.3820140" lon="-3.5324760">
        <ele>641.4</ele>
        <time>2021-04-04T12:33:58Z</time>
      </trkpt>
      <trkpt lat="40.3820620" lon="-3.5324260">
        <ele>641.4</ele>
        <time>2021-04-04T12:33:59Z</time>
      </trkpt>
      <trkpt lat="40.3821100" lon="-3.5323870">
        <ele>641.5</ele>
        <time>2021-04-04T12:34:00Z</time>
      </trkpt>
      <trkpt lat="40.3821510" lon="-3.5323440">
        <ele>641.5</ele>
        <time>2021-04-04T12:34:01Z</time>
      </trkpt>
      <trkpt lat="40.3821930" lon="-3.5323020">
        <ele>641.6</ele>
        <time>2021-04-04T12:34:02Z</time>
      </trkpt>
      <trkpt lat="40.3822370" lon="-3.5322540">
        <ele>641.6</ele>
        <time>2021-04-04T12:34:03Z</time>
      </trkpt>
      <trkpt lat="40.3822860" lon="-3.5322030">
        <ele>641.6</ele>
        <time>2021-04-04T12:34:04Z</time>
      </trkpt>
      <trkpt lat="40.3823340" lon="-3.5321530">
        <ele>641.4</ele>
        <time>2021-04-04T12:34:05Z</time>
      </trkpt>
      <trkpt lat="40.3823770" lon="-3.5321000">
        <ele>641.3</ele>
        <time>2021-04-04T12:34:06Z</time>
      </trkpt>
      <trkpt lat="40.3824200" lon="-3.5320470">
        <ele>641.4</ele>
        <time>2021-04-04T12:34:07Z</time>
      </trkpt>
      <trkpt lat="40.3824630" lon="-3.5319920">
        <ele>641.4</ele>
        <time>2021-04-04T12:34:08Z</time>
      </trkpt>
      <trkpt lat="40.3825070" lon="-3.5319410">
        <ele>641.5</ele>
        <time>2021-04-04T12:34:09Z</time>
      </trkpt>
      <trkpt lat="40.3825590" lon="-3.5318970">
        <ele>641.6</ele>
        <time>2021-04-04T12:34:10Z</time>
      </trkpt>
      <trkpt lat="40.3826200" lon="-3.5318660">
        <ele>641.6</ele>
        <time>2021-04-04T12:34:11Z</time>
      </trkpt>
      <trkpt lat="40.3826700" lon="-3.5318150">
        <ele>641.7</ele>
        <time>2021-04-04T12:34:12Z</time>
      </trkpt>
      <trkpt lat="40.3827270" lon="-3.5317760">
        <ele>641.8</ele>
        <time>2021-04-04T12:34:13Z</time>
      </trkpt>
      <trkpt lat="40.3827690" lon="-3.5317210">
        <ele>641.8</ele>
        <time>2021-04-04T12:34:14Z</time>
      </trkpt>
      <trkpt lat="40.3828160" lon="-3.5316710">
        <ele>641.9</ele>
        <time>2021-04-04T12:34:15Z</time>
      </trkpt>
      <trkpt lat="40.3828610" lon="-3.5316180">
        <ele>642.0</ele>
        <time>2021-04-04T12:34:16Z</time>
      </trkpt>
      <trkpt lat="40.3829040" lon="-3.5315700">
        <ele>642.1</ele>
        <time>2021-04-04T12:34:17Z</time>
      </trkpt>
      <trkpt lat="40.3829550" lon="-3.5315210">
        <ele>642.1</ele>
        <time>2021-04-04T12:34:18Z</time>
      </trkpt>
      <trkpt lat="40.3830120" lon="-3.5314760">
        <ele>642.2</ele>
        <time>2021-04-04T12:34:19Z</time>
      </trkpt>
      <trkpt lat="40.3830600" lon="-3.5314250">
        <ele>642.3</ele>
        <time>2021-04-04T12:34:20Z</time>
      </trkpt>
      <trkpt lat="40.3831120" lon="-3.5313740">
        <ele>642.4</ele>
        <time>2021-04-04T12:34:21Z</time>
      </trkpt>
      <trkpt lat="40.3831500" lon="-3.5312950">
        <ele>642.5</ele>
        <time>2021-04-04T12:34:22Z</time>
      </trkpt>
      <trkpt lat="40.3831910" lon="-3.5312360">
        <ele>642.6</ele>
        <time>2021-04-04T12:34:23Z</time>
      </trkpt>
      <trkpt lat="40.3832340" lon="-3.5311770">
        <ele>642.7</ele>
        <time>2021-04-04T12:34:24Z</time>
      </trkpt>
      <trkpt lat="40.3832590" lon="-3.5311350">
        <ele>642.7</ele>
        <time>2021-04-04T12:34:25Z</time>
      </trkpt>
      <trkpt lat="40.3833180" lon="-3.5311030">
        <ele>642.9</ele>
        <time>2021-04-04T12:34:26Z</time>
      </trkpt>
      <trkpt lat="40.3833560" lon="-3.5310580">
        <ele>643.0</ele>
        <time>2021-04-04T12:34:27Z</time>
      </trkpt>
      <trkpt lat="40.3834020" lon="-3.5310090">
        <ele>643.2</ele>
        <time>2021-04-04T12:34:28Z</time>
      </trkpt>
      <trkpt lat="40.3834290" lon="-3.5309210">
        <ele>643.4</ele>
        <time>2021-04-04T12:34:29Z</time>
      </trkpt>
      <trkpt lat="40.3834850" lon="-3.5308670">
        <ele>643.4</ele>
        <time>2021-04-04T12:34:30Z</time>
      </trkpt>
      <trkpt lat="40.3835090" lon="-3.5307870">
        <ele>643.5</ele>
        <time>2021-04-04T12:34:31Z</time>
      </trkpt>
      <trkpt lat="40.3835470" lon="-3.5307290">
        <ele>643.5</ele>
        <time>2021-04-04T12:34:32Z</time>
      </trkpt>
      <trkpt lat="40.3836130" lon="-3.5307040">
        <ele>643.6</ele>
        <time>2021-04-04T12:34:33Z</time>
      </trkpt>
      <trkpt lat="40.3836780" lon="-3.5306800">
        <ele>643.6</ele>
        <time>2021-04-04T12:34:34Z</time>
      </trkpt>
      <trkpt lat="40.3837420" lon="-3.5306600">
        <ele>643.7</ele>
        <time>2021-04-04T12:34:35Z</time>
      </trkpt>
      <trkpt lat="40.3837840" lon="-3.5306250">
        <ele>643.8</ele>
        <time>2021-04-04T12:34:36Z</time>
      </trkpt>
      <trkpt lat="40.3838090" lon="-3.5305890">
        <ele>643.8</ele>
        <time>2021-04-04T12:34:37Z</time>
      </trkpt>
      <trkpt lat="40.3838600" lon="-3.5305880">
        <ele>643.8</ele>
        <time>2021-04-04T12:34:38Z</time>
      </trkpt>
      <trkpt lat="40.3839120" lon="-3.5306060">
        <ele>644.0</ele>
        <time>2021-04-04T12:34:39Z</time>
      </trkpt>
      <trkpt lat="40.3839530" lon="-3.5306350">
        <ele>644.0</ele>
        <time>2021-04-04T12:34:40Z</time>
      </trkpt>
      <trkpt lat="40.3839820" lon="-3.5306700">
        <ele>644.1</ele>
        <time>2021-04-04T12:34:41Z</time>
      </trkpt>
      <trkpt lat="40.3840050" lon="-3.5307270">
        <ele>644.1</ele>
        <time>2021-04-04T12:34:42Z</time>
      </trkpt>
      <trkpt lat="40.3840190" lon="-3.5307700">
        <ele>644.1</ele>
        <time>2021-04-04T12:34:43Z</time>
      </trkpt>
      <trkpt lat="40.3840030" lon="-3.5308470">
        <ele>644.1</ele>
        <time>2021-04-04T12:34:44Z</time>
      </trkpt>
      <trkpt lat="40.3840070" lon="-3.5309080">
        <ele>644.1</ele>
        <time>2021-04-04T12:34:45Z</time>
      </trkpt>
      <trkpt lat="40.3839880" lon="-3.5309820">
        <ele>644.0</ele>
        <time>2021-04-04T12:34:46Z</time>
      </trkpt>
      <trkpt lat="40.3839650" lon="-3.5310410">
        <ele>644.0</ele>
        <time>2021-04-04T12:34:47Z</time>
      </trkpt>
      <trkpt lat="40.3838690" lon="-3.5311100">
        <ele>643.9</ele>
        <time>2021-04-04T12:34:48Z</time>
      </trkpt>
      <trkpt lat="40.3837860" lon="-3.5311490">
        <ele>643.9</ele>
        <time>2021-04-04T12:34:49Z</time>
      </trkpt>
      <trkpt lat="40.3837330" lon="-3.5311820">
        <ele>643.9</ele>
        <time>2021-04-04T12:34:50Z</time>
      </trkpt>
      <trkpt lat="40.3836840" lon="-3.5312170">
        <ele>643.8</ele>
        <time>2021-04-04T12:34:51Z</time>
      </trkpt>
      <trkpt lat="40.3836300" lon="-3.5312430">
        <ele>643.8</ele>
        <time>2021-04-04T12:34:52Z</time>
      </trkpt>
      <trkpt lat="40.3835860" lon="-3.5312990">
        <ele>643.8</ele>
        <time>2021-04-04T12:34:53Z</time>
      </trkpt>
      <trkpt lat="40.3835250" lon="-3.5312990">
        <ele>643.5</ele>
        <time>2021-04-04T12:34:54Z</time>
      </trkpt>
      <trkpt lat="40.3834540" lon="-3.5312750">
        <ele>643.4</ele>
        <time>2021-04-04T12:34:55Z</time>
      </trkpt>
      <trkpt lat="40.3834020" lon="-3.5313180">
        <ele>643.3</ele>
        <time>2021-04-04T12:34:56Z</time>
      </trkpt>
      <trkpt lat="40.3833490" lon="-3.5313660">
        <ele>643.3</ele>
        <time>2021-04-04T12:34:57Z</time>
      </trkpt>
      <trkpt lat="40.3833000" lon="-3.5314240">
        <ele>643.2</ele>
        <time>2021-04-04T12:34:58Z</time>
      </trkpt>
      <trkpt lat="40.3832580" lon="-3.5314660">
        <ele>643.1</ele>
        <time>2021-04-04T12:34:59Z</time>
      </trkpt>
      <trkpt lat="40.3832110" lon="-3.5315110">
        <ele>643.0</ele>
        <time>2021-04-04T12:35:00Z</time>
      </trkpt>
      <trkpt lat="40.3831670" lon="-3.5315490">
        <ele>642.9</ele>
        <time>2021-04-04T12:35:01Z</time>
      </trkpt>
      <trkpt lat="40.3831090" lon="-3.5315880">
        <ele>642.8</ele>
        <time>2021-04-04T12:35:02Z</time>
      </trkpt>
      <trkpt lat="40.3830620" lon="-3.5316400">
        <ele>642.7</ele>
        <time>2021-04-04T12:35:03Z</time>
      </trkpt>
      <trkpt lat="40.3830250" lon="-3.5317130">
        <ele>642.6</ele>
        <time>2021-04-04T12:35:04Z</time>
      </trkpt>
      <trkpt lat="40.3829750" lon="-3.5317640">
        <ele>642.5</ele>
        <time>2021-04-04T12:35:05Z</time>
      </trkpt>
      <trkpt lat="40.3829190" lon="-3.5318140">
        <ele>642.4</ele>
        <time>2021-04-04T12:35:06Z</time>
      </trkpt>
      <trkpt lat="40.3828610" lon="-3.5318580">
        <ele>642.3</ele>
        <time>2021-04-04T12:35:07Z</time>
      </trkpt>
      <trkpt lat="40.3828060" lon="-3.5319140">
        <ele>642.2</ele>
        <time>2021-04-04T12:35:08Z</time>
      </trkpt>
      <trkpt lat="40.3827580" lon="-3.5319630">
        <ele>642.1</ele>
        <time>2021-04-04T12:35:09Z</time>
      </trkpt>
      <trkpt lat="40.3827230" lon="-3.5320360">
        <ele>642.0</ele>
        <time>2021-04-04T12:35:10Z</time>
      </trkpt>
      <trkpt lat="40.3826610" lon="-3.5320480">
        <ele>641.9</ele>
        <time>2021-04-04T12:35:11Z</time>
      </trkpt>
      <trkpt lat="40.3826150" lon="-3.5321100">
        <ele>641.9</ele>
        <time>2021-04-04T12:35:12Z</time>
      </trkpt>
      <trkpt lat="40.3825490" lon="-3.5321560">
        <ele>641.8</ele>
        <time>2021-04-04T12:35:13Z</time>
      </trkpt>
      <trkpt lat="40.3825000" lon="-3.5321990">
        <ele>641.8</ele>
        <time>2021-04-04T12:35:14Z</time>
      </trkpt>
      <trkpt lat="40.3824620" lon="-3.5322540">
        <ele>641.7</ele>
        <time>2021-04-04T12:35:15Z</time>
      </trkpt>
      <trkpt lat="40.3824260" lon="-3.5323170">
        <ele>641.6</ele>
        <time>2021-04-04T12:35:16Z</time>
      </trkpt>
      <trkpt lat="40.3824000" lon="-3.5323970">
        <ele>641.4</ele>
        <time>2021-04-04T12:35:17Z</time>
      </trkpt>
      <trkpt lat="40.3823530" lon="-3.5324380">
        <ele>641.4</ele>
        <time>2021-04-04T12:35:18Z</time>
      </trkpt>
      <trkpt lat="40.3823130" lon="-3.5324860">
        <ele>641.3</ele>
        <time>2021-04-04T12:35:19Z</time>
      </trkpt>
      <trkpt lat="40.3822680" lon="-3.5325340">
        <ele>641.3</ele>
        <time>2021-04-04T12:35:20Z</time>
      </trkpt>
      <trkpt lat="40.3822280" lon="-3.5326000">
        <ele>641.2</ele>
        <time>2021-04-04T12:35:21Z</time>
      </trkpt>
      <trkpt lat="40.3821970" lon="-3.5326680">
        <ele>641.1</ele>
        <time>2021-04-04T12:35:22Z</time>
      </trkpt>
      <trkpt lat="40.3821650" lon="-3.5327190">
        <ele>641.1</ele>
        <time>2021-04-04T12:35:23Z</time>
      </trkpt>
      <trkpt lat="40.3821360" lon="-3.5327790">
        <ele>641.0</ele>
        <time>2021-04-04T12:35:24Z</time>
      </trkpt>
      <trkpt lat="40.3822670" lon="-3.5328530">
        <ele>640.9</ele>
        <time>2021-04-04T12:35:25Z</time>
      </trkpt>
      <trkpt lat="40.3823020" lon="-3.5329200">
        <ele>640.9</ele>
        <time>2021-04-04T12:35:26Z</time>
      </trkpt>
      <trkpt lat="40.3823690" lon="-3.5329950">
        <ele>640.8</ele>
        <time>2021-04-04T12:35:27Z</time>
      </trkpt>
      <trkpt lat="40.3824300" lon="-3.5330620">
        <ele>640.7</ele>
        <time>2021-04-04T12:35:28Z</time>
      </trkpt>
      <trkpt lat="40.3824700" lon="-3.5331290">
        <ele>640.7</ele>
        <time>2021-04-04T12:35:29Z</time>
      </trkpt>
      <trkpt lat="40.3825050" lon="-3.5331970">
        <ele>640.7</ele>
        <time>2021-04-04T12:35:30Z</time>
      </trkpt>
      <trkpt lat="40.3825410" lon="-3.5332610">
        <ele>640.7</ele>
        <time>2021-04-04T12:35:31Z</time>
      </trkpt>
      <trkpt lat="40.3825830" lon="-3.5333270">
        <ele>640.7</ele>
        <time>2021-04-04T12:35:32Z</time>
      </trkpt>
      <trkpt lat="40.3826240" lon="-3.5333900">
        <ele>640.8</ele>
        <time>2021-04-04T12:35:33Z</time>
      </trkpt>
      <trkpt lat="40.3826630" lon="-3.5334560">
        <ele>640.8</ele>
        <time>2021-04-04T12:35:34Z</time>
      </trkpt>
      <trkpt lat="40.3827000" lon="-3.5335210">
        <ele>640.9</ele>
        <time>2021-04-04T12:35:35Z</time>
      </trkpt>
      <trkpt lat="40.3827370" lon="-3.5335840">
        <ele>640.9</ele>
        <time>2021-04-04T12:35:36Z</time>
      </trkpt>
      <trkpt lat="40.3827750" lon="-3.5336460">
        <ele>641.0</ele>
        <time>2021-04-04T12:35:37Z</time>
      </trkpt>
      <trkpt lat="40.3828100" lon="-3.5337050">
        <ele>641.0</ele>
        <time>2021-04-04T12:35:38Z</time>
      </trkpt>
      <trkpt lat="40.3828520" lon="-3.5337670">
        <ele>641.0</ele>
        <time>2021-04-04T12:35:39Z</time>
      </trkpt>
      <trkpt lat="40.3828940" lon="-3.5338210">
        <ele>641.0</ele>
        <time>2021-04-04T12:35:40Z</time>
      </trkpt>
      <trkpt lat="40.3829300" lon="-3.5338890">
        <ele>641.1</ele>
        <time>2021-04-04T12:35:41Z</time>
      </trkpt>
      <trkpt lat="40.3829680" lon="-3.5339510">
        <ele>641.1</ele>
        <time>2021-04-04T12:35:42Z</time>
      </trkpt>
      <trkpt lat="40.3830140" lon="-3.5340090">
        <ele>641.1</ele>
        <time>2021-04-04T12:35:43Z</time>
      </trkpt>
      <trkpt lat="40.3830490" lon="-3.5340750">
        <ele>641.2</ele>
        <time>2021-04-04T12:35:44Z</time>
      </trkpt>
      <trkpt lat="40.3830830" lon="-3.5341350">
        <ele>641.2</ele>
        <time>2021-04-04T12:35:45Z</time>
      </trkpt>
      <trkpt lat="40.3831250" lon="-3.5341980">
        <ele>641.3</ele>
        <time>2021-04-04T12:35:46Z</time>
      </trkpt>
      <trkpt lat="40.3831590" lon="-3.5342590">
        <ele>641.3</ele>
        <time>2021-04-04T12:35:47Z</time>
      </trkpt>
      <trkpt lat="40.3832050" lon="-3.5343140">
        <ele>641.4</ele>
        <time>2021-04-04T12:35:48Z</time>
      </trkpt>
      <trkpt lat="40.3832400" lon="-3.5343750">
        <ele>641.4</ele>
        <time>2021-04-04T12:35:49Z</time>
      </trkpt>
      <trkpt lat="40.3832770" lon="-3.5344350">
        <ele>641.5</ele>
        <time>2021-04-04T12:35:50Z</time>
      </trkpt>
      <trkpt lat="40.3833190" lon="-3.5344980">
        <ele>641.5</ele>
        <time>2021-04-04T12:35:51Z</time>
      </trkpt>
      <trkpt lat="40.3833590" lon="-3.5345340">
        <ele>641.5</ele>
        <time>2021-04-04T12:35:52Z</time>
      </trkpt>
      <trkpt lat="40.3834110" lon="-3.5345950">
        <ele>641.5</ele>
        <time>2021-04-04T12:35:53Z</time>
      </trkpt>
      <trkpt lat="40.3834730" lon="-3.5346990">
        <ele>641.4</ele>
        <time>2021-04-04T12:35:54Z</time>
      </trkpt>
      <trkpt lat="40.3835460" lon="-3.5348120">
        <ele>641.4</ele>
        <time>2021-04-04T12:35:55Z</time>
      </trkpt>
      <trkpt lat="40.3835930" lon="-3.5348710">
        <ele>641.4</ele>
        <time>2021-04-04T12:35:56Z</time>
      </trkpt>
      <trkpt lat="40.3836070" lon="-3.5349160">
        <ele>641.3</ele>
        <time>2021-04-04T12:35:57Z</time>
      </trkpt>
      <trkpt lat="40.3836490" lon="-3.5349860">
        <ele>641.3</ele>
        <time>2021-04-04T12:35:58Z</time>
      </trkpt>
      <trkpt lat="40.3836800" lon="-3.5350190">
        <ele>641.2</ele>
        <time>2021-04-04T12:35:59Z</time>
      </trkpt>
      <trkpt lat="40.3836630" lon="-3.5350780">
        <ele>641.2</ele>
        <time>2021-04-04T12:36:00Z</time>
      </trkpt>
      <trkpt lat="40.3836940" lon="-3.5351280">
        <ele>641.1</ele>
        <time>2021-04-04T12:36:01Z</time>
      </trkpt>
      <trkpt lat="40.3837250" lon="-3.5351710">
        <ele>641.1</ele>
        <time>2021-04-04T12:36:02Z</time>
      </trkpt>
      <trkpt lat="40.3837880" lon="-3.5352830">
        <ele>640.9</ele>
        <time>2021-04-04T12:36:03Z</time>
      </trkpt>
      <trkpt lat="40.3838490" lon="-3.5353570">
        <ele>640.9</ele>
        <time>2021-04-04T12:36:04Z</time>
      </trkpt>
      <trkpt lat="40.3838660" lon="-3.5354170">
        <ele>640.8</ele>
        <time>2021-04-04T12:36:05Z</time>
      </trkpt>
      <trkpt lat="40.3839100" lon="-3.5354800">
        <ele>640.8</ele>
        <time>2021-04-04T12:36:06Z</time>
      </trkpt>
      <trkpt lat="40.3839570" lon="-3.5355530">
        <ele>640.7</ele>
        <time>2021-04-04T12:36:07Z</time>
      </trkpt>
      <trkpt lat="40.3839990" lon="-3.5356400">
        <ele>640.6</ele>
        <time>2021-04-04T12:36:08Z</time>
      </trkpt>
      <trkpt lat="40.3840820" lon="-3.5356900">
        <ele>640.5</ele>
        <time>2021-04-04T12:36:09Z</time>
      </trkpt>
      <trkpt lat="40.3841100" lon="-3.5357270">
        <ele>640.5</ele>
        <time>2021-04-04T12:36:10Z</time>
      </trkpt>
      <trkpt lat="40.3841970" lon="-3.5358180">
        <ele>640.4</ele>
        <time>2021-04-04T12:36:11Z</time>
      </trkpt>
      <trkpt lat="40.3842400" lon="-3.5358490">
        <ele>640.4</ele>
        <time>2021-04-04T12:36:12Z</time>
      </trkpt>
      <trkpt lat="40.3842810" lon="-3.5358740">
        <ele>640.3</ele>
        <time>2021-04-04T12:36:13Z</time>
      </trkpt>
      <trkpt lat="40.3844100" lon="-3.5359870">
        <ele>640.3</ele>
        <time>2021-04-04T12:36:14Z</time>
      </trkpt>
      <trkpt lat="40.3844580" lon="-3.5360370">
        <ele>640.3</ele>
        <time>2021-04-04T12:36:15Z</time>
      </trkpt>
      <trkpt lat="40.3845090" lon="-3.5360860">
        <ele>640.3</ele>
        <time>2021-04-04T12:36:16Z</time>
      </trkpt>
      <trkpt lat="40.3845220" lon="-3.5361550">
        <ele>640.3</ele>
        <time>2021-04-04T12:36:17Z</time>
      </trkpt>
      <trkpt lat="40.3845470" lon="-3.5361910">
        <ele>640.3</ele>
        <time>2021-04-04T12:36:18Z</time>
      </trkpt>
      <trkpt lat="40.3845810" lon="-3.5362140">
        <ele>640.3</ele>
        <time>2021-04-04T12:36:19Z</time>
      </trkpt>
      <trkpt lat="40.3846070" lon="-3.5362480">
        <ele>640.3</ele>
        <time>2021-04-04T12:36:20Z</time>
      </trkpt>
      <trkpt lat="40.3846490" lon="-3.5362550">
        <ele>640.3</ele>
        <time>2021-04-04T12:36:21Z</time>
      </trkpt>
      <trkpt lat="40.3846840" lon="-3.5362440">
        <ele>640.3</ele>
        <time>2021-04-04T12:36:22Z</time>
      </trkpt>
      <trkpt lat="40.3845860" lon="-3.5361380">
        <ele>640.3</ele>
        <time>2021-04-04T12:36:23Z</time>
      </trkpt>
      <trkpt lat="40.3845060" lon="-3.5360940">
        <ele>640.3</ele>
        <time>2021-04-04T12:36:24Z</time>
      </trkpt>
      <trkpt lat="40.3844560" lon="-3.5360690">
        <ele>640.3</ele>
        <time>2021-04-04T12:36:25Z</time>
      </trkpt>
      <trkpt lat="40.3844110" lon="-3.5360540">
        <ele>640.3</ele>
        <time>2021-04-04T12:36:26Z</time>
      </trkpt>
      <trkpt lat="40.3843830" lon="-3.5360280">
        <ele>640.3</ele>
        <time>2021-04-04T12:36:27Z</time>
      </trkpt>
      <trkpt lat="40.3843600" lon="-3.5359860">
        <ele>640.3</ele>
        <time>2021-04-04T12:36:28Z</time>
      </trkpt>
      <trkpt lat="40.3843190" lon="-3.5359480">
        <ele>640.3</ele>
        <time>2021-04-04T12:36:29Z</time>
      </trkpt>
      <trkpt lat="40.3842880" lon="-3.5359410">
        <ele>640.3</ele>
        <time>2021-04-04T12:36:30Z</time>
      </trkpt>
      <trkpt lat="40.3842840" lon="-3.5359130">
        <ele>640.3</ele>
        <time>2021-04-04T12:36:31Z</time>
      </trkpt>
      <trkpt lat="40.3842890" lon="-3.5358940">
        <ele>640.3</ele>
        <time>2021-04-04T12:36:32Z</time>
      </trkpt>
      <trkpt lat="40.3842890" lon="-3.5358940">
        <ele>640.3</ele>
        <time>2021-04-04T12:36:33Z</time>
      </trkpt>
      <trkpt lat="40.3842890" lon="-3.5358940">
        <ele>640.3</ele>
        <time>2021-04-04T12:36:34Z</time>
      </trkpt>
      <trkpt lat="40.3842890" lon="-3.5358940">
        <ele>640.3</ele>
        <time>2021-04-04T12:36:35Z</time>
      </trkpt>
      <trkpt lat="40.3842810" lon="-3.5358860">
        <ele>640.3</ele>
        <time>2021-04-04T12:36:36Z</time>
      </trkpt>
      <trkpt lat="40.3842750" lon="-3.5358830">
        <ele>640.3</ele>
        <time>2021-04-04T12:36:37Z</time>
      </trkpt>
      <trkpt lat="40.3842750" lon="-3.5358830">
        <ele>640.3</ele>
        <time>2021-04-04T12:36:38Z</time>
      </trkpt>
      <trkpt lat="40.3842600" lon="-3.5358940">
        <ele>640.3</ele>
        <time>2021-04-04T12:36:39Z</time>
      </trkpt>
      <trkpt lat="40.3842410" lon="-3.5359110">
        <ele>640.3</ele>
        <time>2021-04-04T12:36:40Z</time>
      </trkpt>
      <trkpt lat="40.3842270" lon="-3.5359260">
        <ele>640.3</ele>
        <time>2021-04-04T12:36:41Z</time>
      </trkpt>
      <trkpt lat="40.3842140" lon="-3.5359420">
        <ele>640.3</ele>
        <time>2021-04-04T12:36:42Z</time>
      </trkpt>
      <trkpt lat="40.3842000" lon="-3.5359570">
        <ele>640.3</ele>
        <time>2021-04-04T12:37:23Z</time>
      </trkpt>
      <trkpt lat="40.3841860" lon="-3.5359720">
        <ele>640.3</ele>
        <time>2021-04-04T12:37:24Z</time>
      </trkpt>
    </trkseg>
  </trk>
</gpx>
